<?xml version="1.0" encoding="UTF-8"?>
<gpx version="1.1" creator="https://www.youtrack.es" xsi:schemaLocation="http://www.topografix.com/GPX/1/1 http://www.topografix.com/GPX/1/1/gpx.xsd http://www.garmin.com/xmlschemas/GpxExtensions/v3 http://www.garmin.com/xmlschemas/GpxExtensionsv3.xsd http://www.garmin.com/xmlschemas/TrackPointExtension/v1 http://www.garmin.com/xmlschemas/TrackPointExtensionv1.xsd" xmlns:gpxtpx="http://www.garmin.com/xmlschemas/TrackPointExtension/v1" xmlns:gpxx="http://www.garmin.com/xmlschemas/GpxExtensions/v3" xmlns:xsi="http://www.w3.org/2001/XMLSchema-instance">
  <metadata>
    <link href="https://www.youtrack.es">
      <text>YouTrack.es</text>
    </link>
    <time>2026-05-08T06:21:23Z</time>
  </metadata>
  <trk>
    <src>https://www.youtrack.es</src>
    <link href="https://www.youtrack.es/ruta/39566--de-puente-electrico-a-laguna-pollone">
      <text>YouTrack.es</text>
    </link>
    <trkseg>
      <trkpt lat="-49.22964169643819332122802734375" lon="-73.0181126296520233154296875">
        <ele>552.4000244140625</ele>
        <time>2023-01-11T14:06:31.000Z</time>
      </trkpt>
      <trkpt lat="-49.22964102588593959808349609375" lon="-73.01809251308441162109375">
        <ele>552.4000244140625</ele>
        <time>2023-01-11T14:06:32.000Z</time>
      </trkpt>
      <trkpt lat="-49.22962727956473827362060546875" lon="-73.0180286429822444915771484375">
        <ele>552.4000244140625</ele>
        <time>2023-01-11T14:06:35.000Z</time>
      </trkpt>
      <trkpt lat="-49.22961856238543987274169921875" lon="-73.0180095322430133819580078125">
        <ele>552.4000244140625</ele>
        <time>2023-01-11T14:06:36.000Z</time>
      </trkpt>
      <trkpt lat="-49.22958570532500743865966796875" lon="-73.01797642372548580169677734375">
        <ele>552</ele>
        <time>2023-01-11T14:06:39.000Z</time>
      </trkpt>
      <trkpt lat="-49.22953784465789794921875" lon="-73.01787483505904674530029296875">
        <ele>551.79998779296875</ele>
        <time>2023-01-11T14:06:46.000Z</time>
      </trkpt>
      <trkpt lat="-49.2295338213443756103515625" lon="-73.0178439058363437652587890625">
        <ele>551.5999755859375</ele>
        <time>2023-01-11T14:06:48.000Z</time>
      </trkpt>
      <trkpt lat="-49.229532815515995025634765625" lon="-73.01782756112515926361083984375">
        <ele>551.4000244140625</ele>
        <time>2023-01-11T14:06:49.000Z</time>
      </trkpt>
      <trkpt lat="-49.22952267341315746307373046875" lon="-73.01780107431113719940185546875">
        <ele>551.20001220703125</ele>
        <time>2023-01-11T14:06:51.000Z</time>
      </trkpt>
      <trkpt lat="-49.2295048199594020843505859375" lon="-73.01774759776890277862548828125">
        <ele>551</ele>
        <time>2023-01-11T14:06:55.000Z</time>
      </trkpt>
      <trkpt lat="-49.22945528291165828704833984375" lon="-73.0176507867872714996337890625">
        <ele>550.20001220703125</ele>
        <time>2023-01-11T14:07:01.000Z</time>
      </trkpt>
      <trkpt lat="-49.2294466495513916015625" lon="-73.017621450126171112060546875">
        <ele>550</ele>
        <time>2023-01-11T14:07:03.000Z</time>
      </trkpt>
      <trkpt lat="-49.2293985374271869659423828125" lon="-73.0175398103892803192138671875">
        <ele>549.20001220703125</ele>
        <time>2023-01-11T14:07:09.000Z</time>
      </trkpt>
      <trkpt lat="-49.2293836176395416259765625" lon="-73.0174831487238407135009765625">
        <ele>549</ele>
        <time>2023-01-11T14:07:13.000Z</time>
      </trkpt>
      <trkpt lat="-49.22936509363353252410888671875" lon="-73.01744132302701473236083984375">
        <ele>549.20001220703125</ele>
        <time>2023-01-11T14:07:16.000Z</time>
      </trkpt>
      <trkpt lat="-49.22934749163687229156494140625" lon="-73.0173604376614093780517578125">
        <ele>549.20001220703125</ele>
        <time>2023-01-11T14:07:21.000Z</time>
      </trkpt>
      <trkpt lat="-49.2293368466198444366455078125" lon="-73.0173191986978054046630859375">
        <ele>549.20001220703125</ele>
        <time>2023-01-11T14:07:24.000Z</time>
      </trkpt>
      <trkpt lat="-49.2293046601116657257080078125" lon="-73.0172658897936344146728515625">
        <ele>549</ele>
        <time>2023-01-11T14:07:28.000Z</time>
      </trkpt>
      <trkpt lat="-49.2292647622525691986083984375" lon="-73.01721182651817798614501953125">
        <ele>548.20001220703125</ele>
        <time>2023-01-11T14:07:32.000Z</time>
      </trkpt>
      <trkpt lat="-49.229210950434207916259765625" lon="-73.017142675817012786865234375">
        <ele>548</ele>
        <time>2023-01-11T14:07:38.000Z</time>
      </trkpt>
      <trkpt lat="-49.22913710586726665496826171875" lon="-73.017040751874446868896484375">
        <ele>548.5999755859375</ele>
        <time>2023-01-11T14:07:45.000Z</time>
      </trkpt>
      <trkpt lat="-49.229113720357418060302734375" lon="-73.01699104718863964080810546875">
        <ele>548</ele>
        <time>2023-01-11T14:07:48.000Z</time>
      </trkpt>
      <trkpt lat="-49.2291061766445636749267578125" lon="-73.016975708305835723876953125">
        <ele>548</ele>
        <time>2023-01-11T14:07:49.000Z</time>
      </trkpt>
      <trkpt lat="-49.2290993034839630126953125" lon="-73.01695969887077808380126953125">
        <ele>548.20001220703125</ele>
        <time>2023-01-11T14:07:50.000Z</time>
      </trkpt>
      <trkpt lat="-49.22908564098179340362548828125" lon="-73.01692768000066280364990234375">
        <ele>548.4000244140625</ele>
        <time>2023-01-11T14:07:52.000Z</time>
      </trkpt>
      <trkpt lat="-49.22906653024256229400634765625" lon="-73.01688241772353649139404296875">
        <ele>548.4000244140625</ele>
        <time>2023-01-11T14:07:55.000Z</time>
      </trkpt>
      <trkpt lat="-49.22904205508530139923095703125" lon="-73.0168045498430728912353515625">
        <ele>548.4000244140625</ele>
        <time>2023-01-11T14:07:59.000Z</time>
      </trkpt>
      <trkpt lat="-49.22902353107929229736328125" lon="-73.0167395062744617462158203125">
        <ele>548.4000244140625</ele>
        <time>2023-01-11T14:08:03.000Z</time>
      </trkpt>
      <trkpt lat="-49.22898623161017894744873046875" lon="-73.01660816185176372528076171875">
        <ele>548.20001220703125</ele>
        <time>2023-01-11T14:08:11.000Z</time>
      </trkpt>
      <trkpt lat="-49.22892152331769466400146484375" lon="-73.0164515040814876556396484375">
        <ele>547.5999755859375</ele>
        <time>2023-01-11T14:08:21.000Z</time>
      </trkpt>
      <trkpt lat="-49.22891758382320404052734375" lon="-73.0164349079132080078125">
        <ele>547.4000244140625</ele>
        <time>2023-01-11T14:08:22.000Z</time>
      </trkpt>
      <trkpt lat="-49.2288832180202007293701171875" lon="-73.01633893512189388275146484375">
        <ele>547.4000244140625</ele>
        <time>2023-01-11T14:08:28.000Z</time>
      </trkpt>
      <trkpt lat="-49.2288570664823055267333984375" lon="-73.01630758680403232574462890625">
        <ele>547.4000244140625</ele>
        <time>2023-01-11T14:08:32.000Z</time>
      </trkpt>
      <trkpt lat="-49.22884893603622913360595703125" lon="-73.0162994563579559326171875">
        <ele>547.4000244140625</ele>
        <time>2023-01-11T14:08:33.000Z</time>
      </trkpt>
      <trkpt lat="-49.22884591855108737945556640625" lon="-73.0162892304360866546630859375">
        <ele>547.4000244140625</ele>
        <time>2023-01-11T14:08:34.000Z</time>
      </trkpt>
      <trkpt lat="-49.22883435152471065521240234375" lon="-73.01627825014293193817138671875">
        <ele>546.79998779296875</ele>
        <time>2023-01-11T14:08:36.000Z</time>
      </trkpt>
      <trkpt lat="-49.22881088219583034515380859375" lon="-73.016220666468143463134765625">
        <ele>547.79998779296875</ele>
        <time>2023-01-11T14:08:42.000Z</time>
      </trkpt>
      <trkpt lat="-49.2287920229136943817138671875" lon="-73.0161474086344242095947265625">
        <ele>547.20001220703125</ele>
        <time>2023-01-11T14:08:48.000Z</time>
      </trkpt>
      <trkpt lat="-49.22878942452371120452880859375" lon="-73.0161326564848423004150390625">
        <ele>547.20001220703125</ele>
        <time>2023-01-11T14:08:49.000Z</time>
      </trkpt>
      <trkpt lat="-49.228769727051258087158203125" lon="-73.01603198982775211334228515625">
        <ele>547.5999755859375</ele>
        <time>2023-01-11T14:08:55.000Z</time>
      </trkpt>
      <trkpt lat="-49.228736199438571929931640625" lon="-73.0159402079880237579345703125">
        <ele>547.20001220703125</ele>
        <time>2023-01-11T14:09:01.000Z</time>
      </trkpt>
      <trkpt lat="-49.2287279851734638214111328125" lon="-73.01591916941106319427490234375">
        <ele>547.20001220703125</ele>
        <time>2023-01-11T14:09:03.000Z</time>
      </trkpt>
      <trkpt lat="-49.22868498601019382476806640625" lon="-73.01581799983978271484375">
        <ele>547.20001220703125</ele>
        <time>2023-01-11T14:09:11.000Z</time>
      </trkpt>
      <trkpt lat="-49.228675179183483123779296875" lon="-73.01581255160272121429443359375">
        <ele>546.79998779296875</ele>
        <time>2023-01-11T14:09:15.000Z</time>
      </trkpt>
      <trkpt lat="-49.22867459245026111602783203125" lon="-73.01581062376499176025390625">
        <ele>546.79998779296875</ele>
        <time>2023-01-11T14:09:16.000Z</time>
      </trkpt>
      <trkpt lat="-49.228671826422214508056640625" lon="-73.0157796107232570648193359375">
        <ele>547</ele>
        <time>2023-01-11T14:09:24.000Z</time>
      </trkpt>
      <trkpt lat="-49.22864777036011219024658203125" lon="-73.0156750045716762542724609375">
        <ele>546.79998779296875</ele>
        <time>2023-01-11T14:09:31.000Z</time>
      </trkpt>
      <trkpt lat="-49.2286029271781444549560546875" lon="-73.0155861563980579376220703125">
        <ele>546.4000244140625</ele>
        <time>2023-01-11T14:09:38.000Z</time>
      </trkpt>
      <trkpt lat="-49.228597395122051239013671875" lon="-73.0155720748007297515869140625">
        <ele>546.4000244140625</ele>
        <time>2023-01-11T14:09:39.000Z</time>
      </trkpt>
      <trkpt lat="-49.22855054028332233428955078125" lon="-73.01548750139772891998291015625">
        <ele>546.5999755859375</ele>
        <time>2023-01-11T14:09:45.000Z</time>
      </trkpt>
      <trkpt lat="-49.228476695716381072998046875" lon="-73.0153635330498218536376953125">
        <ele>546</ele>
        <time>2023-01-11T14:09:55.000Z</time>
      </trkpt>
      <trkpt lat="-49.22843352891504764556884765625" lon="-73.01526881754398345947265625">
        <ele>545.79998779296875</ele>
        <time>2023-01-11T14:10:01.000Z</time>
      </trkpt>
      <trkpt lat="-49.2284111492335796356201171875" lon="-73.01521307788789272308349609375">
        <ele>545.79998779296875</ele>
        <time>2023-01-11T14:10:04.000Z</time>
      </trkpt>
      <trkpt lat="-49.22838910482823848724365234375" lon="-73.01516748033463954925537109375">
        <ele>545</ele>
        <time>2023-01-11T14:10:08.000Z</time>
      </trkpt>
      <trkpt lat="-49.2283601872622966766357421875" lon="-73.015046529471874237060546875">
        <ele>545.4000244140625</ele>
        <time>2023-01-11T14:10:14.000Z</time>
      </trkpt>
      <trkpt lat="-49.2283551581203937530517578125" lon="-73.01503169350326061248779296875">
        <ele>545</ele>
        <time>2023-01-11T14:10:15.000Z</time>
      </trkpt>
      <trkpt lat="-49.228349290788173675537109375" lon="-73.01499716006219387054443359375">
        <ele>544.4000244140625</ele>
        <time>2023-01-11T14:10:17.000Z</time>
      </trkpt>
      <trkpt lat="-49.22830293886363506317138671875" lon="-73.01484611816704273223876953125">
        <ele>545.20001220703125</ele>
        <time>2023-01-11T14:10:25.000Z</time>
      </trkpt>
      <trkpt lat="-49.22823471017181873321533203125" lon="-73.01467881537973880767822265625">
        <ele>543.79998779296875</ele>
        <time>2023-01-11T14:10:36.000Z</time>
      </trkpt>
      <trkpt lat="-49.22818391583859920501708984375" lon="-73.01456565968692302703857421875">
        <ele>544.4000244140625</ele>
        <time>2023-01-11T14:10:43.000Z</time>
      </trkpt>
      <trkpt lat="-49.22816128470003604888916015625" lon="-73.0145142786204814910888671875">
        <ele>544</ele>
        <time>2023-01-11T14:10:47.000Z</time>
      </trkpt>
      <trkpt lat="-49.22807042486965656280517578125" lon="-73.01433985121548175811767578125">
        <ele>544</ele>
        <time>2023-01-11T14:10:59.000Z</time>
      </trkpt>
      <trkpt lat="-49.22802281565964221954345703125" lon="-73.014260642230510711669921875">
        <ele>543.4000244140625</ele>
        <time>2023-01-11T14:11:05.000Z</time>
      </trkpt>
      <trkpt lat="-49.2280061356723308563232421875" lon="-73.01423071883618831634521484375">
        <ele>543.4000244140625</ele>
        <time>2023-01-11T14:11:07.000Z</time>
      </trkpt>
      <trkpt lat="-49.22793899662792682647705078125" lon="-73.014160059392452239990234375">
        <ele>543.79998779296875</ele>
        <time>2023-01-11T14:11:14.000Z</time>
      </trkpt>
      <trkpt lat="-49.227891303598880767822265625" lon="-73.0140968598425388336181640625">
        <ele>543.79998779296875</ele>
        <time>2023-01-11T14:11:19.000Z</time>
      </trkpt>
      <trkpt lat="-49.22783019952476024627685546875" lon="-73.01404816098511219024658203125">
        <ele>543.20001220703125</ele>
        <time>2023-01-11T14:11:27.000Z</time>
      </trkpt>
      <trkpt lat="-49.22779977321624755859375" lon="-73.01404078491032123565673828125">
        <ele>543.4000244140625</ele>
        <time>2023-01-11T14:11:33.000Z</time>
      </trkpt>
      <trkpt lat="-49.2277825064957141876220703125" lon="-73.01402603276073932647705078125">
        <ele>543.5999755859375</ele>
        <time>2023-01-11T14:11:38.000Z</time>
      </trkpt>
      <trkpt lat="-49.2277662456035614013671875" lon="-73.0140646733343601226806640625">
        <ele>543.5999755859375</ele>
        <time>2023-01-11T14:11:41.000Z</time>
      </trkpt>
      <trkpt lat="-49.22775878570973873138427734375" lon="-73.0140690319240093231201171875">
        <ele>543.4000244140625</ele>
        <time>2023-01-11T14:11:43.000Z</time>
      </trkpt>
      <trkpt lat="-49.227751158177852630615234375" lon="-73.01407146267592906951904296875">
        <ele>543.4000244140625</ele>
        <time>2023-01-11T14:11:44.000Z</time>
      </trkpt>
      <trkpt lat="-49.227712266147136688232421875" lon="-73.01400549709796905517578125">
        <ele>543.20001220703125</ele>
        <time>2023-01-11T14:11:52.000Z</time>
      </trkpt>
      <trkpt lat="-49.22770095057785511016845703125" lon="-73.01393710076808929443359375">
        <ele>543.20001220703125</ele>
        <time>2023-01-11T14:11:56.000Z</time>
      </trkpt>
      <trkpt lat="-49.22768234275281429290771484375" lon="-73.0138822831213474273681640625">
        <ele>543.20001220703125</ele>
        <time>2023-01-11T14:12:00.000Z</time>
      </trkpt>
      <trkpt lat="-49.2276571132242679595947265625" lon="-73.01377893425524234771728515625">
        <ele>543.4000244140625</ele>
        <time>2023-01-11T14:12:05.000Z</time>
      </trkpt>
      <trkpt lat="-49.227636158466339111328125" lon="-73.01376971416175365447998046875">
        <ele>543.4000244140625</ele>
        <time>2023-01-11T14:12:08.000Z</time>
      </trkpt>
      <trkpt lat="-49.22755275852978229522705078125" lon="-73.0137629248201847076416015625">
        <ele>543.4000244140625</ele>
        <time>2023-01-11T14:12:15.000Z</time>
      </trkpt>
      <trkpt lat="-49.227504730224609375" lon="-73.01365546882152557373046875">
        <ele>543.20001220703125</ele>
        <time>2023-01-11T14:12:24.000Z</time>
      </trkpt>
      <trkpt lat="-49.22746743075549602508544921875" lon="-73.0136693827807903289794921875">
        <ele>543.5999755859375</ele>
        <time>2023-01-11T14:12:32.000Z</time>
      </trkpt>
      <trkpt lat="-49.22743893228471279144287109375" lon="-73.01370198838412761688232421875">
        <ele>543.5999755859375</ele>
        <time>2023-01-11T14:12:38.000Z</time>
      </trkpt>
      <trkpt lat="-49.2274331487715244293212890625" lon="-73.01370634697377681732177734375">
        <ele>543.5999755859375</ele>
        <time>2023-01-11T14:12:39.000Z</time>
      </trkpt>
      <trkpt lat="-49.22743222676217555999755859375" lon="-73.0137223564088344573974609375">
        <ele>544</ele>
        <time>2023-01-11T14:12:45.000Z</time>
      </trkpt>
      <trkpt lat="-49.22743675298988819122314453125" lon="-73.0137354321777820587158203125">
        <ele>544</ele>
        <time>2023-01-11T14:12:56.000Z</time>
      </trkpt>
      <trkpt lat="-49.2274422012269496917724609375" lon="-73.013744987547397613525390625">
        <ele>544</ele>
        <time>2023-01-11T14:12:57.000Z</time>
      </trkpt>
      <trkpt lat="-49.2274341545999050140380859375" lon="-73.01379360258579254150390625">
        <ele>543.79998779296875</ele>
        <time>2023-01-11T14:13:03.000Z</time>
      </trkpt>
      <trkpt lat="-49.227417223155498504638671875" lon="-73.01380676217377185821533203125">
        <ele>544.4000244140625</ele>
        <time>2023-01-11T14:13:25.000Z</time>
      </trkpt>
      <trkpt lat="-49.2273982800543308258056640625" lon="-73.01381179131567478179931640625">
        <ele>544.4000244140625</ele>
        <time>2023-01-11T14:13:30.000Z</time>
      </trkpt>
      <trkpt lat="-49.227391742169857025146484375" lon="-73.01381598226726055145263671875">
        <ele>544.5999755859375</ele>
        <time>2023-01-11T14:13:40.000Z</time>
      </trkpt>
      <trkpt lat="-49.227391742169857025146484375" lon="-73.01381330005824565887451171875">
        <ele>544.5999755859375</ele>
        <time>2023-01-11T14:13:44.000Z</time>
      </trkpt>
      <trkpt lat="-49.22734891064465045928955078125" lon="-73.0138410441577434539794921875">
        <ele>544.4000244140625</ele>
        <time>2023-01-11T14:13:53.000Z</time>
      </trkpt>
      <trkpt lat="-49.22728889621794223785400390625" lon="-73.0138792656362056732177734375">
        <ele>544.5999755859375</ele>
        <time>2023-01-11T14:14:00.000Z</time>
      </trkpt>
      <trkpt lat="-49.227278418838977813720703125" lon="-73.01389510743319988250732421875">
        <ele>544.5999755859375</ele>
        <time>2023-01-11T14:14:02.000Z</time>
      </trkpt>
      <trkpt lat="-49.22725805081427097320556640625" lon="-73.0139471590518951416015625">
        <ele>544.5999755859375</ele>
        <time>2023-01-11T14:14:07.000Z</time>
      </trkpt>
      <trkpt lat="-49.22724732197821140289306640625" lon="-73.01395847462117671966552734375">
        <ele>545.20001220703125</ele>
        <time>2023-01-11T14:14:09.000Z</time>
      </trkpt>
      <trkpt lat="-49.227246232330799102783203125" lon="-73.01396970637142658233642578125">
        <ele>545.5999755859375</ele>
        <time>2023-01-11T14:14:11.000Z</time>
      </trkpt>
      <trkpt lat="-49.227249585092067718505859375" lon="-73.01398395560681819915771484375">
        <ele>546.4000244140625</ele>
        <time>2023-01-11T14:14:13.000Z</time>
      </trkpt>
      <trkpt lat="-49.227249920368194580078125" lon="-73.01398848183453083038330078125">
        <ele>546.5999755859375</ele>
        <time>2023-01-11T14:14:14.000Z</time>
      </trkpt>
      <trkpt lat="-49.2272353358566761016845703125" lon="-73.014021255075931549072265625">
        <ele>548</ele>
        <time>2023-01-11T14:14:19.000Z</time>
      </trkpt>
      <trkpt lat="-49.22721966169774532318115234375" lon="-73.01405436359345912933349609375">
        <ele>549</ele>
        <time>2023-01-11T14:14:25.000Z</time>
      </trkpt>
      <trkpt lat="-49.2272163927555084228515625" lon="-73.0140812695026397705078125">
        <ele>549.4000244140625</ele>
        <time>2023-01-11T14:14:28.000Z</time>
      </trkpt>
      <trkpt lat="-49.22720658592879772186279296875" lon="-73.01411680877208709716796875">
        <ele>550.20001220703125</ele>
        <time>2023-01-11T14:14:31.000Z</time>
      </trkpt>
      <trkpt lat="-49.22717750072479248046875" lon="-73.014168106019496917724609375">
        <ele>551.4000244140625</ele>
        <time>2023-01-11T14:14:36.000Z</time>
      </trkpt>
      <trkpt lat="-49.22715981490910053253173828125" lon="-73.0142219178378582000732421875">
        <ele>552.5999755859375</ele>
        <time>2023-01-11T14:14:42.000Z</time>
      </trkpt>
      <trkpt lat="-49.22714975662529468536376953125" lon="-73.01423926837742328643798828125">
        <ele>553.20001220703125</ele>
        <time>2023-01-11T14:14:44.000Z</time>
      </trkpt>
      <trkpt lat="-49.227135591208934783935546875" lon="-73.01425485871732234954833984375">
        <ele>553.79998779296875</ele>
        <time>2023-01-11T14:14:48.000Z</time>
      </trkpt>
      <trkpt lat="-49.22713466919958591461181640625" lon="-73.01425787620246410369873046875">
        <ele>554.4000244140625</ele>
        <time>2023-01-11T14:14:50.000Z</time>
      </trkpt>
      <trkpt lat="-49.22711245715618133544921875" lon="-73.01426374353468418121337890625">
        <ele>554.79998779296875</ele>
        <time>2023-01-11T14:14:58.000Z</time>
      </trkpt>
      <trkpt lat="-49.2271065898239612579345703125" lon="-73.014286793768405914306640625">
        <ele>555.79998779296875</ele>
        <time>2023-01-11T14:15:01.000Z</time>
      </trkpt>
      <trkpt lat="-49.2271077632904052734375" lon="-73.01428536884486675262451171875">
        <ele>557</ele>
        <time>2023-01-11T14:15:05.000Z</time>
      </trkpt>
      <trkpt lat="-49.22711455263197422027587890625" lon="-73.01427396945655345916748046875">
        <ele>557.5999755859375</ele>
        <time>2023-01-11T14:15:07.000Z</time>
      </trkpt>
      <trkpt lat="-49.22711849212646484375" lon="-73.01430079154670238494873046875">
        <ele>558.20001220703125</ele>
        <time>2023-01-11T14:15:11.000Z</time>
      </trkpt>
      <trkpt lat="-49.2271077632904052734375" lon="-73.01431931555271148681640625">
        <ele>558.4000244140625</ele>
        <time>2023-01-11T14:15:13.000Z</time>
      </trkpt>
      <trkpt lat="-49.2271091043949127197265625" lon="-73.01432929001748561859130859375">
        <ele>559.20001220703125</ele>
        <time>2023-01-11T14:15:19.000Z</time>
      </trkpt>
      <trkpt lat="-49.22711086459457874298095703125" lon="-73.01432023756206035614013671875">
        <ele>560.20001220703125</ele>
        <time>2023-01-11T14:15:28.000Z</time>
      </trkpt>
      <trkpt lat="-49.227109439671039581298828125" lon="-73.01433406770229339599609375">
        <ele>561.4000244140625</ele>
        <time>2023-01-11T14:15:35.000Z</time>
      </trkpt>
      <trkpt lat="-49.227109439671039581298828125" lon="-73.01433616317808628082275390625">
        <ele>562.20001220703125</ele>
        <time>2023-01-11T14:15:39.000Z</time>
      </trkpt>
      <trkpt lat="-49.227109439671039581298828125" lon="-73.01433742046356201171875">
        <ele>563</ele>
        <time>2023-01-11T14:15:40.000Z</time>
      </trkpt>
      <trkpt lat="-49.227109439671039581298828125" lon="-73.01433750428259372711181640625">
        <ele>563.20001220703125</ele>
        <time>2023-01-11T14:15:42.000Z</time>
      </trkpt>
      <trkpt lat="-49.22711086459457874298095703125" lon="-73.01433834247291088104248046875">
        <ele>564</ele>
        <time>2023-01-11T14:15:45.000Z</time>
      </trkpt>
      <trkpt lat="-49.2271225154399871826171875" lon="-73.0143395997583866119384765625">
        <ele>565.20001220703125</ele>
        <time>2023-01-11T14:15:50.000Z</time>
      </trkpt>
      <trkpt lat="-49.22713265754282474517822265625" lon="-73.01434085704386234283447265625">
        <ele>566.5999755859375</ele>
        <time>2023-01-11T14:15:53.000Z</time>
      </trkpt>
      <trkpt lat="-49.227152355015277862548828125" lon="-73.0143449641764163970947265625">
        <ele>567.5999755859375</ele>
        <time>2023-01-11T14:15:57.000Z</time>
      </trkpt>
      <trkpt lat="-49.2271910794079303741455078125" lon="-73.0143955908715724945068359375">
        <ele>568.79998779296875</ele>
        <time>2023-01-11T14:16:10.000Z</time>
      </trkpt>
      <trkpt lat="-49.227199293673038482666015625" lon="-73.01442199386656284332275390625">
        <ele>568.79998779296875</ele>
        <time>2023-01-11T14:16:16.000Z</time>
      </trkpt>
      <trkpt lat="-49.227199293673038482666015625" lon="-73.01443356089293956756591796875">
        <ele>568.5999755859375</ele>
        <time>2023-01-11T14:16:18.000Z</time>
      </trkpt>
      <trkpt lat="-49.227199293673038482666015625" lon="-73.01446951925754547119140625">
        <ele>568.5999755859375</ele>
        <time>2023-01-11T14:16:25.000Z</time>
      </trkpt>
      <trkpt lat="-49.22719292342662811279296875" lon="-73.0144988559186458587646484375">
        <ele>568.5999755859375</ele>
        <time>2023-01-11T14:16:33.000Z</time>
      </trkpt>
      <trkpt lat="-49.2271964438259601593017578125" lon="-73.014512769877910614013671875">
        <ele>568.4000244140625</ele>
        <time>2023-01-11T14:16:46.000Z</time>
      </trkpt>
      <trkpt lat="-49.2272058315575122833251953125" lon="-73.014512099325656890869140625">
        <ele>568.5999755859375</ele>
        <time>2023-01-11T14:16:52.000Z</time>
      </trkpt>
      <trkpt lat="-49.22721572220325469970703125" lon="-73.01450732164084911346435546875">
        <ele>568.5999755859375</ele>
        <time>2023-01-11T14:17:00.000Z</time>
      </trkpt>
      <trkpt lat="-49.22723256982862949371337890625" lon="-73.01449977792799472808837890625">
        <ele>569.79998779296875</ele>
        <time>2023-01-11T14:17:12.000Z</time>
      </trkpt>
      <trkpt lat="-49.22723717987537384033203125" lon="-73.0145012028515338897705078125">
        <ele>570.79998779296875</ele>
        <time>2023-01-11T14:17:18.000Z</time>
      </trkpt>
      <trkpt lat="-49.22723877243697643280029296875" lon="-73.01451285369694232940673828125">
        <ele>571</ele>
        <time>2023-01-11T14:17:21.000Z</time>
      </trkpt>
      <trkpt lat="-49.22723910771310329437255859375" lon="-73.01452022977173328399658203125">
        <ele>571.4000244140625</ele>
        <time>2023-01-11T14:17:22.000Z</time>
      </trkpt>
      <trkpt lat="-49.22723977826535701751708984375" lon="-73.01452576182782649993896484375">
        <ele>571.4000244140625</ele>
        <time>2023-01-11T14:17:23.000Z</time>
      </trkpt>
      <trkpt lat="-49.22724246047437191009521484375" lon="-73.01452944986522197723388671875">
        <ele>571.79998779296875</ele>
        <time>2023-01-11T14:17:24.000Z</time>
      </trkpt>
      <trkpt lat="-49.22725729644298553466796875" lon="-73.01453548483550548553466796875">
        <ele>572.5999755859375</ele>
        <time>2023-01-11T14:17:27.000Z</time>
      </trkpt>
      <trkpt lat="-49.22726400196552276611328125" lon="-73.01453799940645694732666015625">
        <ele>572.79998779296875</ele>
        <time>2023-01-11T14:17:28.000Z</time>
      </trkpt>
      <trkpt lat="-49.2272705398499965667724609375" lon="-73.01454126834869384765625">
        <ele>573</ele>
        <time>2023-01-11T14:17:29.000Z</time>
      </trkpt>
      <trkpt lat="-49.22729878686368465423583984375" lon="-73.01456918008625507354736328125">
        <ele>574.4000244140625</ele>
        <time>2023-01-11T14:17:35.000Z</time>
      </trkpt>
      <trkpt lat="-49.22733105719089508056640625" lon="-73.014601953327655792236328125">
        <ele>575.5999755859375</ele>
        <time>2023-01-11T14:17:45.000Z</time>
      </trkpt>
      <trkpt lat="-49.2273344099521636962890625" lon="-73.01460497081279754638671875">
        <ele>575.79998779296875</ele>
        <time>2023-01-11T14:17:47.000Z</time>
      </trkpt>
      <trkpt lat="-49.22735427506268024444580078125" lon="-73.0146098323166370391845703125">
        <ele>576.4000244140625</ele>
        <time>2023-01-11T14:17:54.000Z</time>
      </trkpt>
      <trkpt lat="-49.22735746018588542938232421875" lon="-73.0146118439733982086181640625">
        <ele>576.4000244140625</ele>
        <time>2023-01-11T14:17:55.000Z</time>
      </trkpt>
      <trkpt lat="-49.22735989093780517578125" lon="-73.014614023268222808837890625">
        <ele>576.79998779296875</ele>
        <time>2023-01-11T14:17:56.000Z</time>
      </trkpt>
      <trkpt lat="-49.22737489454448223114013671875" lon="-73.014628104865550994873046875">
        <ele>577.5999755859375</ele>
        <time>2023-01-11T14:18:02.000Z</time>
      </trkpt>
      <trkpt lat="-49.227386377751827239990234375" lon="-73.0146430246531963348388671875">
        <ele>577.79998779296875</ele>
        <time>2023-01-11T14:18:06.000Z</time>
      </trkpt>
      <trkpt lat="-49.22740071080625057220458984375" lon="-73.01469189114868640899658203125">
        <ele>578</ele>
        <time>2023-01-11T14:18:09.000Z</time>
      </trkpt>
      <trkpt lat="-49.22742091119289398193359375" lon="-73.01479716785252094268798828125">
        <ele>578.20001220703125</ele>
        <time>2023-01-11T14:18:13.000Z</time>
      </trkpt>
      <trkpt lat="-49.2274254374206066131591796875" lon="-73.0148753710091114044189453125">
        <ele>578.4000244140625</ele>
        <time>2023-01-11T14:18:20.000Z</time>
      </trkpt>
      <trkpt lat="-49.22742736525833606719970703125" lon="-73.01488266326487064361572265625">
        <ele>578.20001220703125</ele>
        <time>2023-01-11T14:18:27.000Z</time>
      </trkpt>
      <trkpt lat="-49.227426946163177490234375" lon="-73.01488266326487064361572265625">
        <ele>578.20001220703125</ele>
        <time>2023-01-11T14:18:38.000Z</time>
      </trkpt>
      <trkpt lat="-49.22742518596351146697998046875" lon="-73.01488417200744152069091796875">
        <ele>578.20001220703125</ele>
        <time>2023-01-11T14:18:47.000Z</time>
      </trkpt>
      <trkpt lat="-49.22742401249706745147705078125" lon="-73.0149018578231334686279296875">
        <ele>578.20001220703125</ele>
        <time>2023-01-11T14:18:51.000Z</time>
      </trkpt>
      <trkpt lat="-49.227422587573528289794921875" lon="-73.014905042946338653564453125">
        <ele>578.20001220703125</ele>
        <time>2023-01-11T14:18:54.000Z</time>
      </trkpt>
      <trkpt lat="-49.22740741632878780364990234375" lon="-73.0149223096668720245361328125">
        <ele>578.20001220703125</ele>
        <time>2023-01-11T14:19:01.000Z</time>
      </trkpt>
      <trkpt lat="-49.22740322537720203399658203125" lon="-73.01492675207555294036865234375">
        <ele>578.4000244140625</ele>
        <time>2023-01-11T14:19:04.000Z</time>
      </trkpt>
      <trkpt lat="-49.22738327644765377044677734375" lon="-73.01498039625585079193115234375">
        <ele>578.5999755859375</ele>
        <time>2023-01-11T14:19:07.000Z</time>
      </trkpt>
      <trkpt lat="-49.2273748107254505157470703125" lon="-73.0149984173476696014404296875">
        <ele>578.5999755859375</ele>
        <time>2023-01-11T14:19:08.000Z</time>
      </trkpt>
      <trkpt lat="-49.22735813073813915252685546875" lon="-73.0150138400495052337646484375">
        <ele>579</ele>
        <time>2023-01-11T14:19:11.000Z</time>
      </trkpt>
      <trkpt lat="-49.22735326923429965972900390625" lon="-73.01500956527888774871826171875">
        <ele>579</ele>
        <time>2023-01-11T14:19:12.000Z</time>
      </trkpt>
      <trkpt lat="-49.22733013518154621124267578125" lon="-73.01496966741979122161865234375">
        <ele>579.5999755859375</ele>
        <time>2023-01-11T14:19:19.000Z</time>
      </trkpt>
      <trkpt lat="-49.227329380810260772705078125" lon="-73.0149645544588565826416015625">
        <ele>579.5999755859375</ele>
        <time>2023-01-11T14:19:22.000Z</time>
      </trkpt>
      <trkpt lat="-49.227329380810260772705078125" lon="-73.01496849395334720611572265625">
        <ele>579.79998779296875</ele>
        <time>2023-01-11T14:19:34.000Z</time>
      </trkpt>
      <trkpt lat="-49.227329380810260772705078125" lon="-73.01496916450560092926025390625">
        <ele>579.5999755859375</ele>
        <time>2023-01-11T14:19:37.000Z</time>
      </trkpt>
      <trkpt lat="-49.22732770442962646484375" lon="-73.014969415962696075439453125">
        <ele>580</ele>
        <time>2023-01-11T14:19:40.000Z</time>
      </trkpt>
      <trkpt lat="-49.2273168079555034637451171875" lon="-73.0149685777723789215087890625">
        <ele>577.5999755859375</ele>
        <time>2023-01-11T14:19:47.000Z</time>
      </trkpt>
      <trkpt lat="-49.22731404192745685577392578125" lon="-73.01496782340109348297119140625">
        <ele>578.5999755859375</ele>
        <time>2023-01-11T14:19:53.000Z</time>
      </trkpt>
      <trkpt lat="-49.2273124493658542633056640625" lon="-73.0149675719439983367919921875">
        <ele>579.79998779296875</ele>
        <time>2023-01-11T14:20:01.000Z</time>
      </trkpt>
      <trkpt lat="-49.2273124493658542633056640625" lon="-73.01496765576303005218505859375">
        <ele>579.79998779296875</ele>
        <time>2023-01-11T14:20:03.000Z</time>
      </trkpt>
      <trkpt lat="-49.2273124493658542633056640625" lon="-73.01496765576303005218505859375">
        <ele>579.79998779296875</ele>
        <time>2023-01-11T14:20:04.000Z</time>
      </trkpt>
      <trkpt lat="-49.2273124493658542633056640625" lon="-73.01496765576303005218505859375">
        <ele>579.79998779296875</ele>
        <time>2023-01-11T14:20:05.000Z</time>
      </trkpt>
      <trkpt lat="-49.2273124493658542633056640625" lon="-73.0149675719439983367919921875">
        <ele>579.79998779296875</ele>
        <time>2023-01-11T14:20:06.000Z</time>
      </trkpt>
      <trkpt lat="-49.2273121140897274017333984375" lon="-73.01496815867722034454345703125">
        <ele>579</ele>
        <time>2023-01-11T14:20:11.000Z</time>
      </trkpt>
      <trkpt lat="-49.2273107729852199554443359375" lon="-73.0149690806865692138671875">
        <ele>578.20001220703125</ele>
        <time>2023-01-11T14:20:14.000Z</time>
      </trkpt>
      <trkpt lat="-49.2273087613284587860107421875" lon="-73.01497033797204494476318359375">
        <ele>578.20001220703125</ele>
        <time>2023-01-11T14:20:17.000Z</time>
      </trkpt>
      <trkpt lat="-49.22730700112879276275634765625" lon="-73.01497285254299640655517578125">
        <ele>579.20001220703125</ele>
        <time>2023-01-11T14:20:22.000Z</time>
      </trkpt>
      <trkpt lat="-49.22730700112879276275634765625" lon="-73.014974109828472137451171875">
        <ele>578.5999755859375</ele>
        <time>2023-01-11T14:20:33.000Z</time>
      </trkpt>
      <trkpt lat="-49.227308593690395355224609375" lon="-73.01497503183782100677490234375">
        <ele>579.20001220703125</ele>
        <time>2023-01-11T14:20:40.000Z</time>
      </trkpt>
      <trkpt lat="-49.2273087613284587860107421875" lon="-73.01497486419975757598876953125">
        <ele>579.4000244140625</ele>
        <time>2023-01-11T14:20:41.000Z</time>
      </trkpt>
      <trkpt lat="-49.22735092230141162872314453125" lon="-73.01500537432730197906494140625">
        <ele>579.4000244140625</ele>
        <time>2023-01-11T14:20:50.000Z</time>
      </trkpt>
      <trkpt lat="-49.22734019346535205841064453125" lon="-73.01509070210158824920654296875">
        <ele>578.5999755859375</ele>
        <time>2023-01-11T14:20:56.000Z</time>
      </trkpt>
      <trkpt lat="-49.22733617015182971954345703125" lon="-73.0151077173650264739990234375">
        <ele>578.5999755859375</ele>
        <time>2023-01-11T14:20:57.000Z</time>
      </trkpt>
      <trkpt lat="-49.22730700112879276275634765625" lon="-73.01517234183847904205322265625">
        <ele>578.5999755859375</ele>
        <time>2023-01-11T14:21:02.000Z</time>
      </trkpt>
      <trkpt lat="-49.2273033969104290008544921875" lon="-73.0151761136949062347412109375">
        <ele>578.5999755859375</ele>
        <time>2023-01-11T14:21:03.000Z</time>
      </trkpt>
      <trkpt lat="-49.2272963561117649078369140625" lon="-73.01518030464649200439453125">
        <ele>578.79998779296875</ele>
        <time>2023-01-11T14:21:05.000Z</time>
      </trkpt>
      <trkpt lat="-49.227287806570529937744140625" lon="-73.01518508233129978179931640625">
        <ele>578.79998779296875</ele>
        <time>2023-01-11T14:21:07.000Z</time>
      </trkpt>
      <trkpt lat="-49.227293170988559722900390625" lon="-73.0151871778070926666259765625">
        <ele>579.4000244140625</ele>
        <time>2023-01-11T14:21:13.000Z</time>
      </trkpt>
      <trkpt lat="-49.22729476355016231536865234375" lon="-73.01517485640943050384521484375">
        <ele>579.20001220703125</ele>
        <time>2023-01-11T14:21:17.000Z</time>
      </trkpt>
      <trkpt lat="-49.227293841540813446044921875" lon="-73.01517670042812824249267578125">
        <ele>579.20001220703125</ele>
        <time>2023-01-11T14:21:32.000Z</time>
      </trkpt>
      <trkpt lat="-49.227293170988559722900390625" lon="-73.01517753861844539642333984375">
        <ele>579.20001220703125</ele>
        <time>2023-01-11T14:21:36.000Z</time>
      </trkpt>
      <trkpt lat="-49.22730146907269954681396484375" lon="-73.01519572734832763671875">
        <ele>579.20001220703125</ele>
        <time>2023-01-11T14:21:38.000Z</time>
      </trkpt>
      <trkpt lat="-49.22731228172779083251953125" lon="-73.0152424983680248260498046875">
        <ele>579.20001220703125</ele>
        <time>2023-01-11T14:21:41.000Z</time>
      </trkpt>
      <trkpt lat="-49.2273181490600109100341796875" lon="-73.01532380282878875732421875">
        <ele>578.5999755859375</ele>
        <time>2023-01-11T14:21:47.000Z</time>
      </trkpt>
      <trkpt lat="-49.22733047045767307281494140625" lon="-73.0153588391840457916259765625">
        <ele>579.20001220703125</ele>
        <time>2023-01-11T14:21:51.000Z</time>
      </trkpt>
      <trkpt lat="-49.2273396067321300506591796875" lon="-73.01538943313062191009521484375">
        <ele>579.4000244140625</ele>
        <time>2023-01-11T14:21:53.000Z</time>
      </trkpt>
      <trkpt lat="-49.2273370921611785888671875" lon="-73.0154027603566646575927734375">
        <ele>579.5999755859375</ele>
        <time>2023-01-11T14:21:54.000Z</time>
      </trkpt>
      <trkpt lat="-49.22732410021126270294189453125" lon="-73.0154443345963954925537109375">
        <ele>580.20001220703125</ele>
        <time>2023-01-11T14:21:58.000Z</time>
      </trkpt>
      <trkpt lat="-49.22732342965900897979736328125" lon="-73.01550325937569141387939453125">
        <ele>580.4000244140625</ele>
        <time>2023-01-11T14:22:04.000Z</time>
      </trkpt>
      <trkpt lat="-49.2273245193064212799072265625" lon="-73.0155130662024021148681640625">
        <ele>580.5999755859375</ele>
        <time>2023-01-11T14:22:06.000Z</time>
      </trkpt>
      <trkpt lat="-49.227355532348155975341796875" lon="-73.01558665931224822998046875">
        <ele>579.20001220703125</ele>
        <time>2023-01-11T14:22:14.000Z</time>
      </trkpt>
      <trkpt lat="-49.2273543588817119598388671875" lon="-73.0155993998050689697265625">
        <ele>579.20001220703125</ele>
        <time>2023-01-11T14:22:15.000Z</time>
      </trkpt>
      <trkpt lat="-49.22736818902194499969482421875" lon="-73.0156334303319454193115234375">
        <ele>578.4000244140625</ele>
        <time>2023-01-11T14:22:21.000Z</time>
      </trkpt>
      <trkpt lat="-49.2273800075054168701171875" lon="-73.01564005203545093536376953125">
        <ele>578.20001220703125</ele>
        <time>2023-01-11T14:22:23.000Z</time>
      </trkpt>
      <trkpt lat="-49.2273962683975696563720703125" lon="-73.015639968216419219970703125">
        <ele>578</ele>
        <time>2023-01-11T14:22:25.000Z</time>
      </trkpt>
      <trkpt lat="-49.22740473411977291107177734375" lon="-73.01565815694630146026611328125">
        <ele>578</ele>
        <time>2023-01-11T14:22:28.000Z</time>
      </trkpt>
      <trkpt lat="-49.22740481793880462646484375" lon="-73.01570727489888668060302734375">
        <ele>578.4000244140625</ele>
        <time>2023-01-11T14:22:35.000Z</time>
      </trkpt>
      <trkpt lat="-49.22741898335516452789306640625" lon="-73.0157799459993839263916015625">
        <ele>578.79998779296875</ele>
        <time>2023-01-11T14:22:42.000Z</time>
      </trkpt>
      <trkpt lat="-49.227439351379871368408203125" lon="-73.0157957039773464202880859375">
        <ele>578.79998779296875</ele>
        <time>2023-01-11T14:22:48.000Z</time>
      </trkpt>
      <trkpt lat="-49.2274100147187709808349609375" lon="-73.01583065651357173919677734375">
        <ele>579.5999755859375</ele>
        <time>2023-01-11T14:22:50.000Z</time>
      </trkpt>
      <trkpt lat="-49.22738344408571720123291015625" lon="-73.01587038673460483551025390625">
        <ele>580.5999755859375</ele>
        <time>2023-01-11T14:22:53.000Z</time>
      </trkpt>
      <trkpt lat="-49.22737598419189453125" lon="-73.01588731817901134490966796875">
        <ele>581.5999755859375</ele>
        <time>2023-01-11T14:22:56.000Z</time>
      </trkpt>
      <trkpt lat="-49.22737665474414825439453125" lon="-73.01590047776699066162109375">
        <ele>581.79998779296875</ele>
        <time>2023-01-11T14:22:57.000Z</time>
      </trkpt>
      <trkpt lat="-49.22738134860992431640625" lon="-73.01591388881206512451171875">
        <ele>582.79998779296875</ele>
        <time>2023-01-11T14:22:59.000Z</time>
      </trkpt>
      <trkpt lat="-49.22737439163029193878173828125" lon="-73.0159375257790088653564453125">
        <ele>583</ele>
        <time>2023-01-11T14:23:05.000Z</time>
      </trkpt>
      <trkpt lat="-49.22736416570842266082763671875" lon="-73.01596887409687042236328125">
        <ele>583.4000244140625</ele>
        <time>2023-01-11T14:23:13.000Z</time>
      </trkpt>
      <trkpt lat="-49.22736416570842266082763671875" lon="-73.01596887409687042236328125">
        <ele>581.5999755859375</ele>
        <time>2023-01-11T14:23:16.000Z</time>
      </trkpt>
      <trkpt lat="-49.22736416570842266082763671875" lon="-73.01596887409687042236328125">
        <ele>581.5999755859375</ele>
        <time>2023-01-11T14:23:22.000Z</time>
      </trkpt>
      <trkpt lat="-49.22736416570842266082763671875" lon="-73.01596887409687042236328125">
        <ele>579.5999755859375</ele>
        <time>2023-01-11T14:23:23.000Z</time>
      </trkpt>
      <trkpt lat="-49.22734907828271389007568359375" lon="-73.01600282080471515655517578125">
        <ele>579.79998779296875</ele>
        <time>2023-01-11T14:23:30.000Z</time>
      </trkpt>
      <trkpt lat="-49.2273436300456523895263671875" lon="-73.016007430851459503173828125">
        <ele>579.79998779296875</ele>
        <time>2023-01-11T14:23:31.000Z</time>
      </trkpt>
      <trkpt lat="-49.22733776271343231201171875" lon="-73.01600885577499866485595703125">
        <ele>579.4000244140625</ele>
        <time>2023-01-11T14:23:32.000Z</time>
      </trkpt>
      <trkpt lat="-49.22732728533446788787841796875" lon="-73.01602059043943881988525390625">
        <ele>580.20001220703125</ele>
        <time>2023-01-11T14:23:39.000Z</time>
      </trkpt>
      <trkpt lat="-49.22731035389006137847900390625" lon="-73.01605110056698322296142578125">
        <ele>579.4000244140625</ele>
        <time>2023-01-11T14:23:54.000Z</time>
      </trkpt>
      <trkpt lat="-49.2273003794252872467041015625" lon="-73.01608328707516193389892578125">
        <ele>578.5999755859375</ele>
        <time>2023-01-11T14:23:56.000Z</time>
      </trkpt>
      <trkpt lat="-49.22729996033012866973876953125" lon="-73.01621706224977970123291015625">
        <ele>579</ele>
        <time>2023-01-11T14:24:05.000Z</time>
      </trkpt>
      <trkpt lat="-49.22729711048305034637451171875" lon="-73.01624170504510402679443359375">
        <ele>575.4000244140625</ele>
        <time>2023-01-11T14:24:09.000Z</time>
      </trkpt>
      <trkpt lat="-49.22729752957820892333984375" lon="-73.016238100826740264892578125">
        <ele>575.20001220703125</ele>
        <time>2023-01-11T14:24:10.000Z</time>
      </trkpt>
      <trkpt lat="-49.22729208134114742279052734375" lon="-73.01624237559735774993896484375">
        <ele>577.5999755859375</ele>
        <time>2023-01-11T14:24:14.000Z</time>
      </trkpt>
      <trkpt lat="-49.2273017205297946929931640625" lon="-73.01623952575027942657470703125">
        <ele>577.79998779296875</ele>
        <time>2023-01-11T14:24:17.000Z</time>
      </trkpt>
      <trkpt lat="-49.227287136018276214599609375" lon="-73.0162426270544528961181640625">
        <ele>578.20001220703125</ele>
        <time>2023-01-11T14:24:37.000Z</time>
      </trkpt>
      <trkpt lat="-49.22728638164699077606201171875" lon="-73.0162426270544528961181640625">
        <ele>579.20001220703125</ele>
        <time>2023-01-11T14:24:38.000Z</time>
      </trkpt>
      <trkpt lat="-49.22728411853313446044921875" lon="-73.016247488558292388916015625">
        <ele>579.20001220703125</ele>
        <time>2023-01-11T14:24:39.000Z</time>
      </trkpt>
      <trkpt lat="-49.2272410355508327484130859375" lon="-73.01629233174026012420654296875">
        <ele>574.20001220703125</ele>
        <time>2023-01-11T14:24:42.000Z</time>
      </trkpt>
      <trkpt lat="-49.22720432281494140625" lon="-73.0163395218551158905029296875">
        <ele>574.20001220703125</ele>
        <time>2023-01-11T14:24:45.000Z</time>
      </trkpt>
      <trkpt lat="-49.22720071859657764434814453125" lon="-73.01635670475661754608154296875">
        <ele>574.5999755859375</ele>
        <time>2023-01-11T14:24:46.000Z</time>
      </trkpt>
      <trkpt lat="-49.227190576493740081787109375" lon="-73.01638956181704998016357421875">
        <ele>574.5999755859375</ele>
        <time>2023-01-11T14:24:48.000Z</time>
      </trkpt>
      <trkpt lat="-49.22717959620058536529541015625" lon="-73.01640364341437816619873046875">
        <ele>575</ele>
        <time>2023-01-11T14:24:51.000Z</time>
      </trkpt>
      <trkpt lat="-49.2271629162132740020751953125" lon="-73.0164558626711368560791015625">
        <ele>573.20001220703125</ele>
        <time>2023-01-11T14:24:55.000Z</time>
      </trkpt>
      <trkpt lat="-49.22715562395751476287841796875" lon="-73.01648427732288837432861328125">
        <ele>572.20001220703125</ele>
        <time>2023-01-11T14:24:57.000Z</time>
      </trkpt>
      <trkpt lat="-49.22715512104332447052001953125" lon="-73.01651109941303730010986328125">
        <ele>572</ele>
        <time>2023-01-11T14:24:59.000Z</time>
      </trkpt>
      <trkpt lat="-49.22715243883430957794189453125" lon="-73.0165229178965091705322265625">
        <ele>571.79998779296875</ele>
        <time>2023-01-11T14:25:00.000Z</time>
      </trkpt>
      <trkpt lat="-49.22714774496853351593017578125" lon="-73.01653691567480564117431640625">
        <ele>570.79998779296875</ele>
        <time>2023-01-11T14:25:01.000Z</time>
      </trkpt>
      <trkpt lat="-49.22713818959891796112060546875" lon="-73.0165722034871578216552734375">
        <ele>569.20001220703125</ele>
        <time>2023-01-11T14:25:03.000Z</time>
      </trkpt>
      <trkpt lat="-49.22712075524032115936279296875" lon="-73.0165929906070232391357421875">
        <ele>568.79998779296875</ele>
        <time>2023-01-11T14:25:05.000Z</time>
      </trkpt>
      <trkpt lat="-49.22711321152746677398681640625" lon="-73.01659055985510349273681640625">
        <ele>568.4000244140625</ele>
        <time>2023-01-11T14:25:10.000Z</time>
      </trkpt>
      <trkpt lat="-49.22710114158689975738525390625" lon="-73.016619645059108734130859375">
        <ele>568.20001220703125</ele>
        <time>2023-01-11T14:25:22.000Z</time>
      </trkpt>
      <trkpt lat="-49.2270878143608570098876953125" lon="-73.0166456289589405059814453125">
        <ele>568</ele>
        <time>2023-01-11T14:25:24.000Z</time>
      </trkpt>
      <trkpt lat="-49.22708027064800262451171875" lon="-73.01665912382304668426513671875">
        <ele>568</ele>
        <time>2023-01-11T14:25:25.000Z</time>
      </trkpt>
      <trkpt lat="-49.2270358465611934661865234375" lon="-73.0167849361896514892578125">
        <ele>567.20001220703125</ele>
        <time>2023-01-11T14:25:35.000Z</time>
      </trkpt>
      <trkpt lat="-49.2270210944116115570068359375" lon="-73.016824163496494293212890625">
        <ele>565.5999755859375</ele>
        <time>2023-01-11T14:25:38.000Z</time>
      </trkpt>
      <trkpt lat="-49.226987063884735107421875" lon="-73.01693924702703952789306640625">
        <ele>564.4000244140625</ele>
        <time>2023-01-11T14:25:46.000Z</time>
      </trkpt>
      <trkpt lat="-49.22695328481495380401611328125" lon="-73.01702843047678470611572265625">
        <ele>563.5999755859375</ele>
        <time>2023-01-11T14:25:52.000Z</time>
      </trkpt>
      <trkpt lat="-49.22693274915218353271484375" lon="-73.0170617066323757171630859375">
        <ele>563.79998779296875</ele>
        <time>2023-01-11T14:25:55.000Z</time>
      </trkpt>
      <trkpt lat="-49.22692109830677509307861328125" lon="-73.01709531806409358978271484375">
        <ele>563.20001220703125</ele>
        <time>2023-01-11T14:25:58.000Z</time>
      </trkpt>
      <trkpt lat="-49.2268936894834041595458984375" lon="-73.01716757006943225860595703125">
        <ele>562</ele>
        <time>2023-01-11T14:26:03.000Z</time>
      </trkpt>
      <trkpt lat="-49.2268581502139568328857421875" lon="-73.0172088928520679473876953125">
        <ele>560.20001220703125</ele>
        <time>2023-01-11T14:26:06.000Z</time>
      </trkpt>
      <trkpt lat="-49.22678749077022075653076171875" lon="-73.017283491790294647216796875">
        <ele>561</ele>
        <time>2023-01-11T14:26:14.000Z</time>
      </trkpt>
      <trkpt lat="-49.22675438225269317626953125" lon="-73.01730369217693805694580078125">
        <ele>559</ele>
        <time>2023-01-11T14:26:17.000Z</time>
      </trkpt>
      <trkpt lat="-49.2267340980470180511474609375" lon="-73.01731475628912448883056640625">
        <ele>557.5999755859375</ele>
        <time>2023-01-11T14:26:19.000Z</time>
      </trkpt>
      <trkpt lat="-49.22670568339526653289794921875" lon="-73.01733017899096012115478515625">
        <ele>557.20001220703125</ele>
        <time>2023-01-11T14:26:22.000Z</time>
      </trkpt>
      <trkpt lat="-49.22668959014117717742919921875" lon="-73.01734560169279575347900390625">
        <ele>556.4000244140625</ele>
        <time>2023-01-11T14:26:24.000Z</time>
      </trkpt>
      <trkpt lat="-49.2266692221164703369140625" lon="-73.01735515706241130828857421875">
        <ele>555.4000244140625</ele>
        <time>2023-01-11T14:26:26.000Z</time>
      </trkpt>
      <trkpt lat="-49.22663426958024501800537109375" lon="-73.0173369683325290679931640625">
        <ele>554.79998779296875</ele>
        <time>2023-01-11T14:26:30.000Z</time>
      </trkpt>
      <trkpt lat="-49.226615913212299346923828125" lon="-73.01734241656959056854248046875">
        <ele>554.20001220703125</ele>
        <time>2023-01-11T14:26:32.000Z</time>
      </trkpt>
      <trkpt lat="-49.2265899293124675750732421875" lon="-73.01735850982367992401123046875">
        <ele>553.5999755859375</ele>
        <time>2023-01-11T14:26:35.000Z</time>
      </trkpt>
      <trkpt lat="-49.226575009524822235107421875" lon="-73.01736898720264434814453125">
        <ele>553.20001220703125</ele>
        <time>2023-01-11T14:26:37.000Z</time>
      </trkpt>
      <trkpt lat="-49.22655916772782802581787109375" lon="-73.01738617010414600372314453125">
        <ele>552.79998779296875</ele>
        <time>2023-01-11T14:26:40.000Z</time>
      </trkpt>
      <trkpt lat="-49.2265161685645580291748046875" lon="-73.01746864803135395050048828125">
        <ele>552.4000244140625</ele>
        <time>2023-01-11T14:26:49.000Z</time>
      </trkpt>
      <trkpt lat="-49.2265077866613864898681640625" lon="-73.017481975257396697998046875">
        <ele>551.79998779296875</ele>
        <time>2023-01-11T14:26:50.000Z</time>
      </trkpt>
      <trkpt lat="-49.22648725099861621856689453125" lon="-73.01751625724136829376220703125">
        <ele>550.4000244140625</ele>
        <time>2023-01-11T14:26:53.000Z</time>
      </trkpt>
      <trkpt lat="-49.22648004256188869476318359375" lon="-73.017526566982269287109375">
        <ele>549</ele>
        <time>2023-01-11T14:26:54.000Z</time>
      </trkpt>
      <trkpt lat="-49.22645489685237407684326171875" lon="-73.0175547301769256591796875">
        <ele>548.5999755859375</ele>
        <time>2023-01-11T14:26:57.000Z</time>
      </trkpt>
      <trkpt lat="-49.22644115053117275238037109375" lon="-73.0175441689789295196533203125">
        <ele>548.5999755859375</ele>
        <time>2023-01-11T14:27:00.000Z</time>
      </trkpt>
      <trkpt lat="-49.22642153687775135040283203125" lon="-73.01750401966273784637451171875">
        <ele>548</ele>
        <time>2023-01-11T14:27:04.000Z</time>
      </trkpt>
      <trkpt lat="-49.2264035157859325408935546875" lon="-73.01748926751315593719482421875">
        <ele>547.79998779296875</ele>
        <time>2023-01-11T14:27:06.000Z</time>
      </trkpt>
      <trkpt lat="-49.22632765956223011016845703125" lon="-73.01749169826507568359375">
        <ele>547.4000244140625</ele>
        <time>2023-01-11T14:27:12.000Z</time>
      </trkpt>
      <trkpt lat="-49.226295389235019683837890625" lon="-73.0174898542463779449462890625">
        <ele>547.20001220703125</ele>
        <time>2023-01-11T14:27:15.000Z</time>
      </trkpt>
      <trkpt lat="-49.2262667231261730194091796875" lon="-73.017479293048381805419921875">
        <ele>547</ele>
        <time>2023-01-11T14:27:18.000Z</time>
      </trkpt>
      <trkpt lat="-49.2262570001184940338134765625" lon="-73.01748172380030155181884765625">
        <ele>547</ele>
        <time>2023-01-11T14:27:19.000Z</time>
      </trkpt>
      <trkpt lat="-49.226251803338527679443359375" lon="-73.0174903571605682373046875">
        <ele>546.79998779296875</ele>
        <time>2023-01-11T14:27:20.000Z</time>
      </trkpt>
      <trkpt lat="-49.2262320220470428466796875" lon="-73.017510138452053070068359375">
        <ele>546.5999755859375</ele>
        <time>2023-01-11T14:27:24.000Z</time>
      </trkpt>
      <trkpt lat="-49.22622221522033214569091796875" lon="-73.0175103060901165008544921875">
        <ele>546.79998779296875</ele>
        <time>2023-01-11T14:27:25.000Z</time>
      </trkpt>
      <trkpt lat="-49.22621928155422210693359375" lon="-73.017508126795291900634765625">
        <ele>546.79998779296875</ele>
        <time>2023-01-11T14:27:26.000Z</time>
      </trkpt>
      <trkpt lat="-49.2262194491922855377197265625" lon="-73.0175072886049747467041015625">
        <ele>547</ele>
        <time>2023-01-11T14:27:27.000Z</time>
      </trkpt>
      <trkpt lat="-49.22622104175388813018798828125" lon="-73.0175099708139896392822265625">
        <ele>547</ele>
        <time>2023-01-11T14:27:29.000Z</time>
      </trkpt>
      <trkpt lat="-49.2262204550206661224365234375" lon="-73.01752916537225246429443359375">
        <ele>546.79998779296875</ele>
        <time>2023-01-11T14:27:37.000Z</time>
      </trkpt>
      <trkpt lat="-49.22622405923902988433837890625" lon="-73.01754358224570751190185546875">
        <ele>546.79998779296875</ele>
        <time>2023-01-11T14:27:38.000Z</time>
      </trkpt>
      <trkpt lat="-49.22623931430280208587646484375" lon="-73.0176258087158203125">
        <ele>547.4000244140625</ele>
        <time>2023-01-11T14:27:43.000Z</time>
      </trkpt>
      <trkpt lat="-49.22624342143535614013671875" lon="-73.01774776540696620941162109375">
        <ele>548</ele>
        <time>2023-01-11T14:27:50.000Z</time>
      </trkpt>
      <trkpt lat="-49.22624149359762668609619140625" lon="-73.017764277756214141845703125">
        <ele>548</ele>
        <time>2023-01-11T14:27:51.000Z</time>
      </trkpt>
      <trkpt lat="-49.2262348718941211700439453125" lon="-73.01785991527140140533447265625">
        <ele>549</ele>
        <time>2023-01-11T14:27:57.000Z</time>
      </trkpt>
      <trkpt lat="-49.22623059712350368499755859375" lon="-73.01790014840662479400634765625">
        <ele>549.5999755859375</ele>
        <time>2023-01-11T14:28:00.000Z</time>
      </trkpt>
      <trkpt lat="-49.2262288369238376617431640625" lon="-73.01797114312648773193359375">
        <ele>549.20001220703125</ele>
        <time>2023-01-11T14:28:05.000Z</time>
      </trkpt>
      <trkpt lat="-49.226224310696125030517578125" lon="-73.01804532296955585479736328125">
        <ele>549.4000244140625</ele>
        <time>2023-01-11T14:28:10.000Z</time>
      </trkpt>
      <trkpt lat="-49.22621190547943115234375" lon="-73.01810651086270809173583984375">
        <ele>548</ele>
        <time>2023-01-11T14:28:14.000Z</time>
      </trkpt>
      <trkpt lat="-49.22620318830013275146484375" lon="-73.01814205013215541839599609375">
        <ele>546</ele>
        <time>2023-01-11T14:28:16.000Z</time>
      </trkpt>
      <trkpt lat="-49.2261943034827709197998046875" lon="-73.01820172928273677825927734375">
        <ele>546</ele>
        <time>2023-01-11T14:28:19.000Z</time>
      </trkpt>
      <trkpt lat="-49.22619069926440715789794921875" lon="-73.0182207562029361724853515625">
        <ele>547.5999755859375</ele>
        <time>2023-01-11T14:28:20.000Z</time>
      </trkpt>
      <trkpt lat="-49.226187765598297119140625" lon="-73.01827146671712398529052734375">
        <ele>548</ele>
        <time>2023-01-11T14:28:23.000Z</time>
      </trkpt>
      <trkpt lat="-49.22618416137993335723876953125" lon="-73.01835981197655200958251953125">
        <ele>548</ele>
        <time>2023-01-11T14:28:28.000Z</time>
      </trkpt>
      <trkpt lat="-49.226110987365245819091796875" lon="-73.01843491382896900177001953125">
        <ele>547.5999755859375</ele>
        <time>2023-01-11T14:28:35.000Z</time>
      </trkpt>
      <trkpt lat="-49.22605239786207675933837890625" lon="-73.0184876359999179840087890625">
        <ele>549</ele>
        <time>2023-01-11T14:28:40.000Z</time>
      </trkpt>
      <trkpt lat="-49.2260481230914592742919921875" lon="-73.0184933356940746307373046875">
        <ele>548.79998779296875</ele>
        <time>2023-01-11T14:28:41.000Z</time>
      </trkpt>
      <trkpt lat="-49.22604183666408061981201171875" lon="-73.01851873286068439483642578125">
        <ele>549.20001220703125</ele>
        <time>2023-01-11T14:28:46.000Z</time>
      </trkpt>
      <trkpt lat="-49.226026497781276702880859375" lon="-73.01861428655683994293212890625">
        <ele>548.79998779296875</ele>
        <time>2023-01-11T14:28:52.000Z</time>
      </trkpt>
      <trkpt lat="-49.22600998543202877044677734375" lon="-73.01873431541025638580322265625">
        <ele>549.5999755859375</ele>
        <time>2023-01-11T14:28:59.000Z</time>
      </trkpt>
      <trkpt lat="-49.22599053941667079925537109375" lon="-73.01876231096684932708740234375">
        <ele>549.4000244140625</ele>
        <time>2023-01-11T14:29:01.000Z</time>
      </trkpt>
      <trkpt lat="-49.2258962430059909820556640625" lon="-73.01887881942093372344970703125">
        <ele>548.5999755859375</ele>
        <time>2023-01-11T14:29:12.000Z</time>
      </trkpt>
      <trkpt lat="-49.2258908785879611968994140625" lon="-73.0188856087625026702880859375">
        <ele>548.4000244140625</ele>
        <time>2023-01-11T14:29:13.000Z</time>
      </trkpt>
      <trkpt lat="-49.22589473426342010498046875" lon="-73.0188939906656742095947265625">
        <ele>548</ele>
        <time>2023-01-11T14:29:18.000Z</time>
      </trkpt>
      <trkpt lat="-49.22589666210114955902099609375" lon="-73.018893487751483917236328125">
        <ele>547.5999755859375</ele>
        <time>2023-01-11T14:29:19.000Z</time>
      </trkpt>
      <trkpt lat="-49.22589180059731006622314453125" lon="-73.01895073615014553070068359375">
        <ele>547.20001220703125</ele>
        <time>2023-01-11T14:29:27.000Z</time>
      </trkpt>
      <trkpt lat="-49.2258731089532375335693359375" lon="-73.0189915560185909271240234375">
        <ele>549.20001220703125</ele>
        <time>2023-01-11T14:29:30.000Z</time>
      </trkpt>
      <trkpt lat="-49.22585190273821353912353515625" lon="-73.0190433561801910400390625">
        <ele>549.5999755859375</ele>
        <time>2023-01-11T14:29:33.000Z</time>
      </trkpt>
      <trkpt lat="-49.2258151061832904815673828125" lon="-73.01920135505497455596923828125">
        <ele>549.79998779296875</ele>
        <time>2023-01-11T14:29:43.000Z</time>
      </trkpt>
      <trkpt lat="-49.2257866077125072479248046875" lon="-73.01933663897216320037841796875">
        <ele>549.4000244140625</ele>
        <time>2023-01-11T14:29:51.000Z</time>
      </trkpt>
      <trkpt lat="-49.22578702680766582489013671875" lon="-73.0193606950342655181884765625">
        <ele>549.4000244140625</ele>
        <time>2023-01-11T14:29:54.000Z</time>
      </trkpt>
      <trkpt lat="-49.225785769522190093994140625" lon="-73.019355498254299163818359375">
        <ele>548.20001220703125</ele>
        <time>2023-01-11T14:30:12.000Z</time>
      </trkpt>
      <trkpt lat="-49.22576858662068843841552734375" lon="-73.019413836300373077392578125">
        <ele>548.79998779296875</ele>
        <time>2023-01-11T14:30:19.000Z</time>
      </trkpt>
      <trkpt lat="-49.225763976573944091796875" lon="-73.019432611763477325439453125">
        <ele>550.20001220703125</ele>
        <time>2023-01-11T14:30:20.000Z</time>
      </trkpt>
      <trkpt lat="-49.225726090371608734130859375" lon="-73.01956730894744396209716796875">
        <ele>551.79998779296875</ele>
        <time>2023-01-11T14:30:27.000Z</time>
      </trkpt>
      <trkpt lat="-49.2257212288677692413330078125" lon="-73.01958306692540645599365234375">
        <ele>553</ele>
        <time>2023-01-11T14:30:28.000Z</time>
      </trkpt>
      <trkpt lat="-49.22571443952620029449462890625" lon="-73.0196195282042026519775390625">
        <ele>553</ele>
        <time>2023-01-11T14:30:30.000Z</time>
      </trkpt>
      <trkpt lat="-49.2257089912891387939453125" lon="-73.01966588012874126434326171875">
        <ele>553</ele>
        <time>2023-01-11T14:30:33.000Z</time>
      </trkpt>
      <trkpt lat="-49.22570689581334590911865234375" lon="-73.0196768604218959808349609375">
        <ele>551.20001220703125</ele>
        <time>2023-01-11T14:30:34.000Z</time>
      </trkpt>
      <trkpt lat="-49.22570387832820415496826171875" lon="-73.01970158703625202178955078125">
        <ele>549</ele>
        <time>2023-01-11T14:30:36.000Z</time>
      </trkpt>
      <trkpt lat="-49.22570991329848766326904296875" lon="-73.01970141939818859100341796875">
        <ele>548.79998779296875</ele>
        <time>2023-01-11T14:30:39.000Z</time>
      </trkpt>
      <trkpt lat="-49.2257063090801239013671875" lon="-73.01970326341688632965087890625">
        <ele>549</ele>
        <time>2023-01-11T14:30:46.000Z</time>
      </trkpt>
      <trkpt lat="-49.2257063090801239013671875" lon="-73.01970074884593486785888671875">
        <ele>547.4000244140625</ele>
        <time>2023-01-11T14:31:06.000Z</time>
      </trkpt>
      <trkpt lat="-49.22570136375725269317626953125" lon="-73.01969714462757110595703125">
        <ele>547.4000244140625</ele>
        <time>2023-01-11T14:31:17.000Z</time>
      </trkpt>
      <trkpt lat="-49.22570027410984039306640625" lon="-73.01969689317047595977783203125">
        <ele>547.4000244140625</ele>
        <time>2023-01-11T14:31:20.000Z</time>
      </trkpt>
      <trkpt lat="-49.2257001064717769622802734375" lon="-73.01968985237181186676025390625">
        <ele>547.20001220703125</ele>
        <time>2023-01-11T14:31:27.000Z</time>
      </trkpt>
      <trkpt lat="-49.2257001064717769622802734375" lon="-73.01968951709568500518798828125">
        <ele>547.79998779296875</ele>
        <time>2023-01-11T14:31:30.000Z</time>
      </trkpt>
      <trkpt lat="-49.22570069320499897003173828125" lon="-73.01968951709568500518798828125">
        <ele>548.20001220703125</ele>
        <time>2023-01-11T14:31:32.000Z</time>
      </trkpt>
      <trkpt lat="-49.2257009446620941162109375" lon="-73.01968951709568500518798828125">
        <ele>548.5999755859375</ele>
        <time>2023-01-11T14:31:33.000Z</time>
      </trkpt>
      <trkpt lat="-49.22570203430950641632080078125" lon="-73.01968951709568500518798828125">
        <ele>548.20001220703125</ele>
        <time>2023-01-11T14:31:37.000Z</time>
      </trkpt>
      <trkpt lat="-49.22570203430950641632080078125" lon="-73.0196912772953510284423828125">
        <ele>549.79998779296875</ele>
        <time>2023-01-11T14:31:43.000Z</time>
      </trkpt>
      <trkpt lat="-49.22570086084306240081787109375" lon="-73.01969421096146106719970703125">
        <ele>546.79998779296875</ele>
        <time>2023-01-11T14:31:49.000Z</time>
      </trkpt>
      <trkpt lat="-49.22569633461534976959228515625" lon="-73.019717596471309661865234375">
        <ele>548.79998779296875</ele>
        <time>2023-01-11T14:32:04.000Z</time>
      </trkpt>
      <trkpt lat="-49.2256964184343814849853515625" lon="-73.01971466280519962310791015625">
        <ele>550</ele>
        <time>2023-01-11T14:32:14.000Z</time>
      </trkpt>
      <trkpt lat="-49.2256964184343814849853515625" lon="-73.0197137407958507537841796875">
        <ele>551.20001220703125</ele>
        <time>2023-01-11T14:32:16.000Z</time>
      </trkpt>
      <trkpt lat="-49.2256964184343814849853515625" lon="-73.01971164532005786895751953125">
        <ele>549.5999755859375</ele>
        <time>2023-01-11T14:32:20.000Z</time>
      </trkpt>
      <trkpt lat="-49.2256964184343814849853515625" lon="-73.01971147768199443817138671875">
        <ele>547</ele>
        <time>2023-01-11T14:32:22.000Z</time>
      </trkpt>
      <trkpt lat="-49.22569449059665203094482421875" lon="-73.01971198059618473052978515625">
        <ele>550.5999755859375</ele>
        <time>2023-01-11T14:32:26.000Z</time>
      </trkpt>
      <trkpt lat="-49.22568895854055881500244140625" lon="-73.01980175077915191650390625">
        <ele>550.79998779296875</ele>
        <time>2023-01-11T14:32:33.000Z</time>
      </trkpt>
      <trkpt lat="-49.22566942870616912841796875" lon="-73.01993175409734249114990234375">
        <ele>550.79998779296875</ele>
        <time>2023-01-11T14:32:39.000Z</time>
      </trkpt>
      <trkpt lat="-49.2256553471088409423828125" lon="-73.01996729336678981781005859375">
        <ele>551.20001220703125</ele>
        <time>2023-01-11T14:32:42.000Z</time>
      </trkpt>
      <trkpt lat="-49.22563900239765644073486328125" lon="-73.02000400610268115997314453125">
        <ele>549.4000244140625</ele>
        <time>2023-01-11T14:32:44.000Z</time>
      </trkpt>
      <trkpt lat="-49.22563145868480205535888671875" lon="-73.020018674433231353759765625">
        <ele>548.4000244140625</ele>
        <time>2023-01-11T14:32:45.000Z</time>
      </trkpt>
      <trkpt lat="-49.22562005929648876190185546875" lon="-73.0200402997434139251708984375">
        <ele>549.4000244140625</ele>
        <time>2023-01-11T14:32:47.000Z</time>
      </trkpt>
      <trkpt lat="-49.22561553306877613067626953125" lon="-73.02005496807396411895751953125">
        <ele>551.5999755859375</ele>
        <time>2023-01-11T14:32:48.000Z</time>
      </trkpt>
      <trkpt lat="-49.22558653168380260467529296875" lon="-73.0201358534395694732666015625">
        <ele>552</ele>
        <time>2023-01-11T14:32:54.000Z</time>
      </trkpt>
      <trkpt lat="-49.22553858719766139984130859375" lon="-73.02025261335074901580810546875">
        <ele>551</ele>
        <time>2023-01-11T14:33:02.000Z</time>
      </trkpt>
      <trkpt lat="-49.225522242486476898193359375" lon="-73.02028161473572254180908203125">
        <ele>550.20001220703125</ele>
        <time>2023-01-11T14:33:04.000Z</time>
      </trkpt>
      <trkpt lat="-49.22549231909215450286865234375" lon="-73.0203480832278728485107421875">
        <ele>550.79998779296875</ele>
        <time>2023-01-11T14:33:09.000Z</time>
      </trkpt>
      <trkpt lat="-49.22540414147078990936279296875" lon="-73.020492084324359893798828125">
        <ele>551.5999755859375</ele>
        <time>2023-01-11T14:33:20.000Z</time>
      </trkpt>
      <trkpt lat="-49.2253608070313930511474609375" lon="-73.02055570296943187713623046875">
        <ele>551.20001220703125</ele>
        <time>2023-01-11T14:33:29.000Z</time>
      </trkpt>
      <trkpt lat="-49.2253093421459197998046875" lon="-73.0206307210028171539306640625">
        <ele>551.20001220703125</ele>
        <time>2023-01-11T14:33:37.000Z</time>
      </trkpt>
      <trkpt lat="-49.22523901797831058502197265625" lon="-73.02074697799980640411376953125">
        <ele>552.5999755859375</ele>
        <time>2023-01-11T14:33:46.000Z</time>
      </trkpt>
      <trkpt lat="-49.22520808875560760498046875" lon="-73.02078838460147380828857421875">
        <ele>551.4000244140625</ele>
        <time>2023-01-11T14:33:50.000Z</time>
      </trkpt>
      <trkpt lat="-49.2252002097666263580322265625" lon="-73.02080146037042140960693359375">
        <ele>551.4000244140625</ele>
        <time>2023-01-11T14:33:51.000Z</time>
      </trkpt>
      <trkpt lat="-49.22516928054392337799072265625" lon="-73.020847477018833160400390625">
        <ele>550.20001220703125</ele>
        <time>2023-01-11T14:33:55.000Z</time>
      </trkpt>
      <trkpt lat="-49.22515503130853176116943359375" lon="-73.02086985670030117034912109375">
        <ele>551.20001220703125</ele>
        <time>2023-01-11T14:33:57.000Z</time>
      </trkpt>
      <trkpt lat="-49.22514715231955051422119140625" lon="-73.02088108845055103302001953125">
        <ele>551.79998779296875</ele>
        <time>2023-01-11T14:33:58.000Z</time>
      </trkpt>
      <trkpt lat="-49.2251314781606197357177734375" lon="-73.0209039710462093353271484375">
        <ele>550.20001220703125</ele>
        <time>2023-01-11T14:34:00.000Z</time>
      </trkpt>
      <trkpt lat="-49.22510809265077114105224609375" lon="-73.02094294689595699310302734375">
        <ele>551.79998779296875</ele>
        <time>2023-01-11T14:34:03.000Z</time>
      </trkpt>
      <trkpt lat="-49.22508537769317626953125" lon="-73.0209874548017978668212890625">
        <ele>552.4000244140625</ele>
        <time>2023-01-11T14:34:07.000Z</time>
      </trkpt>
      <trkpt lat="-49.2250677756965160369873046875" lon="-73.0210159532725811004638671875">
        <ele>553.20001220703125</ele>
        <time>2023-01-11T14:34:09.000Z</time>
      </trkpt>
      <trkpt lat="-49.22498001717031002044677734375" lon="-73.0211403407156467437744140625">
        <ele>552</ele>
        <time>2023-01-11T14:34:19.000Z</time>
      </trkpt>
      <trkpt lat="-49.224900305271148681640625" lon="-73.02124612033367156982421875">
        <ele>552.20001220703125</ele>
        <time>2023-01-11T14:34:28.000Z</time>
      </trkpt>
      <trkpt lat="-49.22486635856330394744873046875" lon="-73.0212868563830852508544921875">
        <ele>551.79998779296875</ele>
        <time>2023-01-11T14:34:32.000Z</time>
      </trkpt>
      <trkpt lat="-49.224857054650783538818359375" lon="-73.02129498682916164398193359375">
        <ele>551.79998779296875</ele>
        <time>2023-01-11T14:34:33.000Z</time>
      </trkpt>
      <trkpt lat="-49.2248505167663097381591796875" lon="-73.02130739204585552215576171875">
        <ele>550.79998779296875</ele>
        <time>2023-01-11T14:34:34.000Z</time>
      </trkpt>
      <trkpt lat="-49.22484691254794597625732421875" lon="-73.02131996490061283111572265625">
        <ele>550.5999755859375</ele>
        <time>2023-01-11T14:34:35.000Z</time>
      </trkpt>
      <trkpt lat="-49.2248485051095485687255859375" lon="-73.0213488824665546417236328125">
        <ele>551.20001220703125</ele>
        <time>2023-01-11T14:34:37.000Z</time>
      </trkpt>
      <trkpt lat="-49.22488429583609104156494140625" lon="-73.02152817137539386749267578125">
        <ele>551.20001220703125</ele>
        <time>2023-01-11T14:34:48.000Z</time>
      </trkpt>
      <trkpt lat="-49.22489368356764316558837890625" lon="-73.021615259349346160888671875">
        <ele>551.5999755859375</ele>
        <time>2023-01-11T14:34:53.000Z</time>
      </trkpt>
      <trkpt lat="-49.22490357421338558197021484375" lon="-73.021739982068538665771484375">
        <ele>552</ele>
        <time>2023-01-11T14:35:00.000Z</time>
      </trkpt>
      <trkpt lat="-49.224921427667140960693359375" lon="-73.02188406698405742645263671875">
        <ele>552.20001220703125</ele>
        <time>2023-01-11T14:35:08.000Z</time>
      </trkpt>
      <trkpt lat="-49.224903993308544158935546875" lon="-73.02197559736669063568115234375">
        <ele>553</ele>
        <time>2023-01-11T14:35:14.000Z</time>
      </trkpt>
      <trkpt lat="-49.22489619813859462738037109375" lon="-73.022005520761013031005859375">
        <ele>554</ele>
        <time>2023-01-11T14:35:16.000Z</time>
      </trkpt>
      <trkpt lat="-49.224884547293186187744140625" lon="-73.0220315046608448028564453125">
        <ele>554.4000244140625</ele>
        <time>2023-01-11T14:35:18.000Z</time>
      </trkpt>
      <trkpt lat="-49.22484339214861392974853515625" lon="-73.02217089571058750152587890625">
        <ele>553.4000244140625</ele>
        <time>2023-01-11T14:35:27.000Z</time>
      </trkpt>
      <trkpt lat="-49.2248381115496158599853515625" lon="-73.02218581549823284149169921875">
        <ele>553</ele>
        <time>2023-01-11T14:35:28.000Z</time>
      </trkpt>
      <trkpt lat="-49.2247931845486164093017578125" lon="-73.0223020724952220916748046875">
        <ele>552</ele>
        <time>2023-01-11T14:35:36.000Z</time>
      </trkpt>
      <trkpt lat="-49.22475940547883510589599609375" lon="-73.0224100314080715179443359375">
        <ele>552.4000244140625</ele>
        <time>2023-01-11T14:35:43.000Z</time>
      </trkpt>
      <trkpt lat="-49.224757142364978790283203125" lon="-73.022424280643463134765625">
        <ele>552.4000244140625</ele>
        <time>2023-01-11T14:35:44.000Z</time>
      </trkpt>
      <trkpt lat="-49.2247526161372661590576171875" lon="-73.02243693731725215911865234375">
        <ele>553</ele>
        <time>2023-01-11T14:35:45.000Z</time>
      </trkpt>
      <trkpt lat="-49.2247318290174007415771484375" lon="-73.022580184042453765869140625">
        <ele>551.79998779296875</ele>
        <time>2023-01-11T14:35:53.000Z</time>
      </trkpt>
      <trkpt lat="-49.224717915058135986328125" lon="-73.02262569777667522430419921875">
        <ele>552.20001220703125</ele>
        <time>2023-01-11T14:35:56.000Z</time>
      </trkpt>
      <trkpt lat="-49.224668629467487335205078125" lon="-73.0227516777813434600830078125">
        <ele>551.5999755859375</ele>
        <time>2023-01-11T14:36:04.000Z</time>
      </trkpt>
      <trkpt lat="-49.224606268107891082763671875" lon="-73.02287648431956768035888671875">
        <ele>552</ele>
        <time>2023-01-11T14:36:14.000Z</time>
      </trkpt>
      <trkpt lat="-49.22456980682909488677978515625" lon="-73.02294923923909664154052734375">
        <ele>553.20001220703125</ele>
        <time>2023-01-11T14:36:20.000Z</time>
      </trkpt>
      <trkpt lat="-49.2245309986174106597900390625" lon="-73.02299986593425273895263671875">
        <ele>553.20001220703125</ele>
        <time>2023-01-11T14:36:25.000Z</time>
      </trkpt>
      <trkpt lat="-49.22452555038034915924072265625" lon="-73.023043535649776458740234375">
        <ele>554.20001220703125</ele>
        <time>2023-01-11T14:36:29.000Z</time>
      </trkpt>
      <trkpt lat="-49.22451180405914783477783203125" lon="-73.0230695195496082305908203125">
        <ele>554.79998779296875</ele>
        <time>2023-01-11T14:36:32.000Z</time>
      </trkpt>
      <trkpt lat="-49.2245041765272617340087890625" lon="-73.0230934917926788330078125">
        <ele>555.5999755859375</ele>
        <time>2023-01-11T14:36:36.000Z</time>
      </trkpt>
      <trkpt lat="-49.2244864068925380706787109375" lon="-73.0231144465506076812744140625">
        <ele>556.20001220703125</ele>
        <time>2023-01-11T14:36:40.000Z</time>
      </trkpt>
      <trkpt lat="-49.2244840599596500396728515625" lon="-73.02312810905277729034423828125">
        <ele>556.79998779296875</ele>
        <time>2023-01-11T14:36:42.000Z</time>
      </trkpt>
      <trkpt lat="-49.22446872107684612274169921875" lon="-73.02318711765110492706298828125">
        <ele>556.5999755859375</ele>
        <time>2023-01-11T14:36:49.000Z</time>
      </trkpt>
      <trkpt lat="-49.22444659285247325897216796875" lon="-73.02322156727313995361328125">
        <ele>556.5999755859375</ele>
        <time>2023-01-11T14:36:55.000Z</time>
      </trkpt>
      <trkpt lat="-49.22440770082175731658935546875" lon="-73.02332751452922821044921875">
        <ele>556</ele>
        <time>2023-01-11T14:37:03.000Z</time>
      </trkpt>
      <trkpt lat="-49.224403761327266693115234375" lon="-73.023388199508190155029296875">
        <ele>555.5999755859375</ele>
        <time>2023-01-11T14:37:06.000Z</time>
      </trkpt>
      <trkpt lat="-49.22439211048185825347900390625" lon="-73.023467995226383209228515625">
        <ele>555.5999755859375</ele>
        <time>2023-01-11T14:37:11.000Z</time>
      </trkpt>
      <trkpt lat="-49.2243546433746814727783203125" lon="-73.0235912092030048370361328125">
        <ele>555.20001220703125</ele>
        <time>2023-01-11T14:37:19.000Z</time>
      </trkpt>
      <trkpt lat="-49.2243383824825286865234375" lon="-73.02362968213856220245361328125">
        <ele>556.20001220703125</ele>
        <time>2023-01-11T14:37:22.000Z</time>
      </trkpt>
      <trkpt lat="-49.22433109022676944732666015625" lon="-73.023643679916858673095703125">
        <ele>556.79998779296875</ele>
        <time>2023-01-11T14:37:23.000Z</time>
      </trkpt>
      <trkpt lat="-49.224313236773014068603515625" lon="-73.02367343567311763763427734375">
        <ele>557</ele>
        <time>2023-01-11T14:37:27.000Z</time>
      </trkpt>
      <trkpt lat="-49.22431365586817264556884765625" lon="-73.0236723460257053375244140625">
        <ele>556.5999755859375</ele>
        <time>2023-01-11T14:37:30.000Z</time>
      </trkpt>
      <trkpt lat="-49.224309884011745452880859375" lon="-73.023670502007007598876953125">
        <ele>556.5999755859375</ele>
        <time>2023-01-11T14:37:39.000Z</time>
      </trkpt>
      <trkpt lat="-49.2242899350821971893310546875" lon="-73.02372406236827373504638671875">
        <ele>557.20001220703125</ele>
        <time>2023-01-11T14:37:50.000Z</time>
      </trkpt>
      <trkpt lat="-49.22426051460206508636474609375" lon="-73.023788519203662872314453125">
        <ele>558.4000244140625</ele>
        <time>2023-01-11T14:37:54.000Z</time>
      </trkpt>
      <trkpt lat="-49.2242466844618320465087890625" lon="-73.02381928078830242156982421875">
        <ele>561.4000244140625</ele>
        <time>2023-01-11T14:37:56.000Z</time>
      </trkpt>
      <trkpt lat="-49.22423721291124820709228515625" lon="-73.02383939735591411590576171875">
        <ele>561.4000244140625</ele>
        <time>2023-01-11T14:37:58.000Z</time>
      </trkpt>
      <trkpt lat="-49.2241863347589969635009765625" lon="-73.02391533739864826202392578125">
        <ele>559</ele>
        <time>2023-01-11T14:38:06.000Z</time>
      </trkpt>
      <trkpt lat="-49.22417904250323772430419921875" lon="-73.02392162382602691650390625">
        <ele>558.4000244140625</ele>
        <time>2023-01-11T14:38:07.000Z</time>
      </trkpt>
      <trkpt lat="-49.2241747677326202392578125" lon="-73.02392137236893177032470703125">
        <ele>558</ele>
        <time>2023-01-11T14:38:08.000Z</time>
      </trkpt>
      <trkpt lat="-49.22416864894330501556396484375" lon="-73.02391651086509227752685546875">
        <ele>557.79998779296875</ele>
        <time>2023-01-11T14:38:11.000Z</time>
      </trkpt>
      <trkpt lat="-49.224167056381702423095703125" lon="-73.0239140801131725311279296875">
        <ele>557.4000244140625</ele>
        <time>2023-01-11T14:38:13.000Z</time>
      </trkpt>
      <trkpt lat="-49.224161691963672637939453125" lon="-73.0238885991275310516357421875">
        <ele>557.5999755859375</ele>
        <time>2023-01-11T14:38:23.000Z</time>
      </trkpt>
      <trkpt lat="-49.22416202723979949951171875" lon="-73.02388834767043590545654296875">
        <ele>556.20001220703125</ele>
        <time>2023-01-11T14:38:25.000Z</time>
      </trkpt>
      <trkpt lat="-49.2241615243256092071533203125" lon="-73.0238892696797847747802734375">
        <ele>557.79998779296875</ele>
        <time>2023-01-11T14:38:28.000Z</time>
      </trkpt>
      <trkpt lat="-49.2241615243256092071533203125" lon="-73.0238892696797847747802734375">
        <ele>557</ele>
        <time>2023-01-11T14:38:37.000Z</time>
      </trkpt>
      <trkpt lat="-49.2241615243256092071533203125" lon="-73.0238892696797847747802734375">
        <ele>557</ele>
        <time>2023-01-11T14:38:42.000Z</time>
      </trkpt>
      <trkpt lat="-49.22416127286851406097412109375" lon="-73.0238892696797847747802734375">
        <ele>557.5999755859375</ele>
        <time>2023-01-11T14:38:47.000Z</time>
      </trkpt>
      <trkpt lat="-49.22414786182343959808349609375" lon="-73.02392455749213695526123046875">
        <ele>555</ele>
        <time>2023-01-11T14:38:50.000Z</time>
      </trkpt>
      <trkpt lat="-49.2241290025413036346435546875" lon="-73.0239777825772762298583984375">
        <ele>554.20001220703125</ele>
        <time>2023-01-11T14:38:52.000Z</time>
      </trkpt>
      <trkpt lat="-49.2240870930254459381103515625" lon="-73.02408121526241302490234375">
        <ele>555.20001220703125</ele>
        <time>2023-01-11T14:38:57.000Z</time>
      </trkpt>
      <trkpt lat="-49.224075190722942352294921875" lon="-73.02414290606975555419921875">
        <ele>555.4000244140625</ele>
        <time>2023-01-11T14:39:01.000Z</time>
      </trkpt>
      <trkpt lat="-49.22406856901943683624267578125" lon="-73.024184145033359527587890625">
        <ele>554</ele>
        <time>2023-01-11T14:39:03.000Z</time>
      </trkpt>
      <trkpt lat="-49.22405716963112354278564453125" lon="-73.0242372862994670867919921875">
        <ele>553.20001220703125</ele>
        <time>2023-01-11T14:39:06.000Z</time>
      </trkpt>
      <trkpt lat="-49.22404107637703418731689453125" lon="-73.02429721690714359283447265625">
        <ele>553.79998779296875</ele>
        <time>2023-01-11T14:39:10.000Z</time>
      </trkpt>
      <trkpt lat="-49.224043674767017364501953125" lon="-73.02433761768043041229248046875">
        <ele>554.20001220703125</ele>
        <time>2023-01-11T14:39:13.000Z</time>
      </trkpt>
      <trkpt lat="-49.22405582852661609649658203125" lon="-73.02437919192016124725341796875">
        <ele>554.5999755859375</ele>
        <time>2023-01-11T14:39:16.000Z</time>
      </trkpt>
      <trkpt lat="-49.2240522243082523345947265625" lon="-73.0244250409305095672607421875">
        <ele>554.79998779296875</ele>
        <time>2023-01-11T14:39:19.000Z</time>
      </trkpt>
      <trkpt lat="-49.22404208220541477203369140625" lon="-73.02444507367908954620361328125">
        <ele>555.4000244140625</ele>
        <time>2023-01-11T14:39:21.000Z</time>
      </trkpt>
      <trkpt lat="-49.22403059899806976318359375" lon="-73.02446451969444751739501953125">
        <ele>556.20001220703125</ele>
        <time>2023-01-11T14:39:23.000Z</time>
      </trkpt>
      <trkpt lat="-49.22401844523847103118896484375" lon="-73.024478852748870849609375">
        <ele>556.4000244140625</ele>
        <time>2023-01-11T14:39:25.000Z</time>
      </trkpt>
      <trkpt lat="-49.22400511801242828369140625" lon="-73.0245031602680683135986328125">
        <ele>556.5999755859375</ele>
        <time>2023-01-11T14:39:29.000Z</time>
      </trkpt>
      <trkpt lat="-49.22400377690792083740234375" lon="-73.02449922077357769012451171875">
        <ele>556.5999755859375</ele>
        <time>2023-01-11T14:39:31.000Z</time>
      </trkpt>
      <trkpt lat="-49.223955161869525909423828125" lon="-73.02454766817390918731689453125">
        <ele>556.79998779296875</ele>
        <time>2023-01-11T14:39:39.000Z</time>
      </trkpt>
      <trkpt lat="-49.2239385657012462615966796875" lon="-73.02463651634752750396728515625">
        <ele>557.5999755859375</ele>
        <time>2023-01-11T14:39:46.000Z</time>
      </trkpt>
      <trkpt lat="-49.223943762481212615966796875" lon="-73.0246473290026187896728515625">
        <ele>557.5999755859375</ele>
        <time>2023-01-11T14:39:47.000Z</time>
      </trkpt>
      <trkpt lat="-49.22397787682712078094482421875" lon="-73.024717234075069427490234375">
        <ele>557.20001220703125</ele>
        <time>2023-01-11T14:39:54.000Z</time>
      </trkpt>
      <trkpt lat="-49.22397427260875701904296875" lon="-73.024706505239009857177734375">
        <ele>557.4000244140625</ele>
        <time>2023-01-11T14:40:01.000Z</time>
      </trkpt>
      <trkpt lat="-49.22397963702678680419921875" lon="-73.02470843307673931121826171875">
        <ele>556.4000244140625</ele>
        <time>2023-01-11T14:40:06.000Z</time>
      </trkpt>
      <trkpt lat="-49.2239747755229473114013671875" lon="-73.0247026495635509490966796875">
        <ele>557.5999755859375</ele>
        <time>2023-01-11T14:40:10.000Z</time>
      </trkpt>
      <trkpt lat="-49.22395977191627025604248046875" lon="-73.02472067065536975860595703125">
        <ele>558</ele>
        <time>2023-01-11T14:40:19.000Z</time>
      </trkpt>
      <trkpt lat="-49.22395474277436733245849609375" lon="-73.02474045194685459136962890625">
        <ele>558.4000244140625</ele>
        <time>2023-01-11T14:40:20.000Z</time>
      </trkpt>
      <trkpt lat="-49.22395013272762298583984375" lon="-73.02478588186204433441162109375">
        <ele>558</ele>
        <time>2023-01-11T14:40:22.000Z</time>
      </trkpt>
      <trkpt lat="-49.223943091928958892822265625" lon="-73.02489124238491058349609375">
        <ele>557.4000244140625</ele>
        <time>2023-01-11T14:40:27.000Z</time>
      </trkpt>
      <trkpt lat="-49.2239409126341342926025390625" lon="-73.0249611474573612213134765625">
        <ele>557.4000244140625</ele>
        <time>2023-01-11T14:40:31.000Z</time>
      </trkpt>
      <trkpt lat="-49.22394485212862491607666015625" lon="-73.02503063343465328216552734375">
        <ele>557.4000244140625</ele>
        <time>2023-01-11T14:40:37.000Z</time>
      </trkpt>
      <trkpt lat="-49.223918616771697998046875" lon="-73.02510925568640232086181640625">
        <ele>558.5999755859375</ele>
        <time>2023-01-11T14:40:44.000Z</time>
      </trkpt>
      <trkpt lat="-49.22391660511493682861328125" lon="-73.02519944496452808380126953125">
        <ele>558.79998779296875</ele>
        <time>2023-01-11T14:40:52.000Z</time>
      </trkpt>
      <trkpt lat="-49.22392255626618862152099609375" lon="-73.02523079328238964080810546875">
        <ele>558.79998779296875</ele>
        <time>2023-01-11T14:40:54.000Z</time>
      </trkpt>
      <trkpt lat="-49.22392708249390125274658203125" lon="-73.025242947041988372802734375">
        <ele>558.5999755859375</ele>
        <time>2023-01-11T14:40:55.000Z</time>
      </trkpt>
      <trkpt lat="-49.22392867505550384521484375" lon="-73.0252902209758758544921875">
        <ele>558.5999755859375</ele>
        <time>2023-01-11T14:40:59.000Z</time>
      </trkpt>
      <trkpt lat="-49.22392590902745723724365234375" lon="-73.02532835863530635833740234375">
        <ele>558.4000244140625</ele>
        <time>2023-01-11T14:41:01.000Z</time>
      </trkpt>
      <trkpt lat="-49.22391668893396854400634765625" lon="-73.02542391233146190643310546875">
        <ele>557.5999755859375</ele>
        <time>2023-01-11T14:41:08.000Z</time>
      </trkpt>
      <trkpt lat="-49.223913252353668212890625" lon="-73.0254362337291240692138671875">
        <ele>557.5999755859375</ele>
        <time>2023-01-11T14:41:09.000Z</time>
      </trkpt>
      <trkpt lat="-49.223894812166690826416015625" lon="-73.02547638304531574249267578125">
        <ele>557.5999755859375</ele>
        <time>2023-01-11T14:41:13.000Z</time>
      </trkpt>
      <trkpt lat="-49.22389590181410312652587890625" lon="-73.0255066417157649993896484375">
        <ele>558</ele>
        <time>2023-01-11T14:41:15.000Z</time>
      </trkpt>
      <trkpt lat="-49.22389925457537174224853515625" lon="-73.02554008550941944122314453125">
        <ele>558.20001220703125</ele>
        <time>2023-01-11T14:41:17.000Z</time>
      </trkpt>
      <trkpt lat="-49.22390495426952838897705078125" lon="-73.0256300233304500579833984375">
        <ele>559</ele>
        <time>2023-01-11T14:41:23.000Z</time>
      </trkpt>
      <trkpt lat="-49.223905541002750396728515625" lon="-73.025641925632953643798828125">
        <ele>559.4000244140625</ele>
        <time>2023-01-11T14:41:24.000Z</time>
      </trkpt>
      <trkpt lat="-49.22389707528054714202880859375" lon="-73.02566095255315303802490234375">
        <ele>560.4000244140625</ele>
        <time>2023-01-11T14:41:26.000Z</time>
      </trkpt>
      <trkpt lat="-49.223888106644153594970703125" lon="-73.02575893700122833251953125">
        <ele>559.79998779296875</ele>
        <time>2023-01-11T14:41:34.000Z</time>
      </trkpt>
      <trkpt lat="-49.22388014383614063262939453125" lon="-73.02579858340322971343994140625">
        <ele>559.20001220703125</ele>
        <time>2023-01-11T14:41:37.000Z</time>
      </trkpt>
      <trkpt lat="-49.22386405058205127716064453125" lon="-73.02586245350539684295654296875">
        <ele>559.4000244140625</ele>
        <time>2023-01-11T14:41:42.000Z</time>
      </trkpt>
      <trkpt lat="-49.2238247394561767578125" lon="-73.02598549984395503997802734375">
        <ele>558.4000244140625</ele>
        <time>2023-01-11T14:41:51.000Z</time>
      </trkpt>
      <trkpt lat="-49.22379724681377410888671875" lon="-73.0260752700269222259521484375">
        <ele>559</ele>
        <time>2023-01-11T14:41:59.000Z</time>
      </trkpt>
      <trkpt lat="-49.22380655072629451751708984375" lon="-73.02617895416915416717529296875">
        <ele>558.79998779296875</ele>
        <time>2023-01-11T14:42:10.000Z</time>
      </trkpt>
      <trkpt lat="-49.2238114960491657257080078125" lon="-73.02619152702391147613525390625">
        <ele>558.79998779296875</ele>
        <time>2023-01-11T14:42:11.000Z</time>
      </trkpt>
      <trkpt lat="-49.2238233983516693115234375" lon="-73.02619018591940402984619140625">
        <ele>558.79998779296875</ele>
        <time>2023-01-11T14:42:13.000Z</time>
      </trkpt>
      <trkpt lat="-49.22382599674165248870849609375" lon="-73.02620418369770050048828125">
        <ele>558.20001220703125</ele>
        <time>2023-01-11T14:42:18.000Z</time>
      </trkpt>
      <trkpt lat="-49.22384359873831272125244140625" lon="-73.02628221921622753143310546875">
        <ele>558.79998779296875</ele>
        <time>2023-01-11T14:42:25.000Z</time>
      </trkpt>
      <trkpt lat="-49.223843179643154144287109375" lon="-73.02629479207098484039306640625">
        <ele>559.4000244140625</ele>
        <time>2023-01-11T14:42:26.000Z</time>
      </trkpt>
      <trkpt lat="-49.22382566146552562713623046875" lon="-73.0263894237577915191650390625">
        <ele>559</ele>
        <time>2023-01-11T14:42:34.000Z</time>
      </trkpt>
      <trkpt lat="-49.223823063075542449951171875" lon="-73.02654490806162357330322265625">
        <ele>559.4000244140625</ele>
        <time>2023-01-11T14:42:45.000Z</time>
      </trkpt>
      <trkpt lat="-49.223827421665191650390625" lon="-73.02655278705060482025146484375">
        <ele>559.4000244140625</ele>
        <time>2023-01-11T14:42:46.000Z</time>
      </trkpt>
      <trkpt lat="-49.22382934950292110443115234375" lon="-73.026563934981822967529296875">
        <ele>559.4000244140625</ele>
        <time>2023-01-11T14:42:47.000Z</time>
      </trkpt>
      <trkpt lat="-49.22382867895066738128662109375" lon="-73.02657776512205600738525390625">
        <ele>559.79998779296875</ele>
        <time>2023-01-11T14:42:48.000Z</time>
      </trkpt>
      <trkpt lat="-49.22383345663547515869140625" lon="-73.0266539566218852996826171875">
        <ele>560</ele>
        <time>2023-01-11T14:42:53.000Z</time>
      </trkpt>
      <trkpt lat="-49.223825074732303619384765625" lon="-73.02674942649900913238525390625">
        <ele>559.79998779296875</ele>
        <time>2023-01-11T14:43:00.000Z</time>
      </trkpt>
      <trkpt lat="-49.22381727956235408782958984375" lon="-73.02676317282021045684814453125">
        <ele>559.79998779296875</ele>
        <time>2023-01-11T14:43:02.000Z</time>
      </trkpt>
      <trkpt lat="-49.22381359152495861053466796875" lon="-73.02678748033940792083740234375">
        <ele>560.4000244140625</ele>
        <time>2023-01-11T14:43:06.000Z</time>
      </trkpt>
      <trkpt lat="-49.223800599575042724609375" lon="-73.02683793939650058746337890625">
        <ele>560.4000244140625</ele>
        <time>2023-01-11T14:43:10.000Z</time>
      </trkpt>
      <trkpt lat="-49.2237873561680316925048828125" lon="-73.02684179507195949554443359375">
        <ele>560.4000244140625</ele>
        <time>2023-01-11T14:43:11.000Z</time>
      </trkpt>
      <trkpt lat="-49.2237561754882335662841796875" lon="-73.02686140872538089752197265625">
        <ele>561.20001220703125</ele>
        <time>2023-01-11T14:43:14.000Z</time>
      </trkpt>
      <trkpt lat="-49.22374536283314228057861328125" lon="-73.026869036257266998291015625">
        <ele>561.79998779296875</ele>
        <time>2023-01-11T14:43:15.000Z</time>
      </trkpt>
      <trkpt lat="-49.2237283475697040557861328125" lon="-73.0268822796642780303955078125">
        <ele>563.5999755859375</ele>
        <time>2023-01-11T14:43:18.000Z</time>
      </trkpt>
      <trkpt lat="-49.223722480237483978271484375" lon="-73.0268889851868152618408203125">
        <ele>565.5999755859375</ele>
        <time>2023-01-11T14:43:19.000Z</time>
      </trkpt>
      <trkpt lat="-49.2237132601439952850341796875" lon="-73.02694489248096942901611328125">
        <ele>564.4000244140625</ele>
        <time>2023-01-11T14:43:25.000Z</time>
      </trkpt>
      <trkpt lat="-49.22371149994432926177978515625" lon="-73.02694925107061862945556640625">
        <ele>564</ele>
        <time>2023-01-11T14:43:26.000Z</time>
      </trkpt>
      <trkpt lat="-49.2237162776291370391845703125" lon="-73.02696727216243743896484375">
        <ele>563.5999755859375</ele>
        <time>2023-01-11T14:43:34.000Z</time>
      </trkpt>
      <trkpt lat="-49.22372055239975452423095703125" lon="-73.02697858773171901702880859375">
        <ele>563.20001220703125</ele>
        <time>2023-01-11T14:43:38.000Z</time>
      </trkpt>
      <trkpt lat="-49.223721139132976531982421875" lon="-73.02702091634273529052734375">
        <ele>562.20001220703125</ele>
        <time>2023-01-11T14:43:41.000Z</time>
      </trkpt>
      <trkpt lat="-49.2237229831516742706298828125" lon="-73.0270443856716156005859375">
        <ele>562.20001220703125</ele>
        <time>2023-01-11T14:43:42.000Z</time>
      </trkpt>
      <trkpt lat="-49.22372256405651569366455078125" lon="-73.02709341980516910552978515625">
        <ele>560.79998779296875</ele>
        <time>2023-01-11T14:43:45.000Z</time>
      </trkpt>
      <trkpt lat="-49.22372977249324321746826171875" lon="-73.02713633514940738677978515625">
        <ele>562</ele>
        <time>2023-01-11T14:43:48.000Z</time>
      </trkpt>
      <trkpt lat="-49.22373295761644840240478515625" lon="-73.02716332487761974334716796875">
        <ele>562</ele>
        <time>2023-01-11T14:43:50.000Z</time>
      </trkpt>
      <trkpt lat="-49.22373580746352672576904296875" lon="-73.02718712948262691497802734375">
        <ele>561.5999755859375</ele>
        <time>2023-01-11T14:43:52.000Z</time>
      </trkpt>
      <trkpt lat="-49.22375123016536235809326171875" lon="-73.02727664820849895477294921875">
        <ele>561.4000244140625</ele>
        <time>2023-01-11T14:43:58.000Z</time>
      </trkpt>
      <trkpt lat="-49.2237590253353118896484375" lon="-73.027323000133037567138671875">
        <ele>561.5999755859375</ele>
        <time>2023-01-11T14:44:01.000Z</time>
      </trkpt>
      <trkpt lat="-49.22375567257404327392578125" lon="-73.02732995711266994476318359375">
        <ele>561.79998779296875</ele>
        <time>2023-01-11T14:44:02.000Z</time>
      </trkpt>
      <trkpt lat="-49.2237544991075992584228515625" lon="-73.02733875811100006103515625">
        <ele>561.79998779296875</ele>
        <time>2023-01-11T14:44:05.000Z</time>
      </trkpt>
      <trkpt lat="-49.22375299036502838134765625" lon="-73.0274294503033161163330078125">
        <ele>561.79998779296875</ele>
        <time>2023-01-11T14:44:12.000Z</time>
      </trkpt>
      <trkpt lat="-49.2237645573914051055908203125" lon="-73.02752592600882053375244140625">
        <ele>561.20001220703125</ele>
        <time>2023-01-11T14:44:19.000Z</time>
      </trkpt>
      <trkpt lat="-49.22378391958773136138916015625" lon="-73.0276138521730899810791015625">
        <ele>562</ele>
        <time>2023-01-11T14:44:27.000Z</time>
      </trkpt>
      <trkpt lat="-49.2237850092351436614990234375" lon="-73.02774083800613880157470703125">
        <ele>562.20001220703125</ele>
        <time>2023-01-11T14:44:37.000Z</time>
      </trkpt>
      <trkpt lat="-49.2237783037126064300537109375" lon="-73.0277687497437000274658203125">
        <ele>562.20001220703125</ele>
        <time>2023-01-11T14:44:39.000Z</time>
      </trkpt>
      <trkpt lat="-49.22374653629958629608154296875" lon="-73.0278718471527099609375">
        <ele>562.5999755859375</ele>
        <time>2023-01-11T14:44:46.000Z</time>
      </trkpt>
      <trkpt lat="-49.2237404175102710723876953125" lon="-73.02798290736973285675048828125">
        <ele>563.20001220703125</ele>
        <time>2023-01-11T14:44:53.000Z</time>
      </trkpt>
      <trkpt lat="-49.22373999841511249542236328125" lon="-73.02800285629928112030029296875">
        <ele>563.20001220703125</ele>
        <time>2023-01-11T14:44:54.000Z</time>
      </trkpt>
      <trkpt lat="-49.22373899258673191070556640625" lon="-73.0280141718685626983642578125">
        <ele>564.4000244140625</ele>
        <time>2023-01-11T14:44:55.000Z</time>
      </trkpt>
      <trkpt lat="-49.22372289933264255523681640625" lon="-73.02811752073466777801513671875">
        <ele>563.4000244140625</ele>
        <time>2023-01-11T14:45:01.000Z</time>
      </trkpt>
      <trkpt lat="-49.2237186245620250701904296875" lon="-73.02812975831329822540283203125">
        <ele>563.4000244140625</ele>
        <time>2023-01-11T14:45:02.000Z</time>
      </trkpt>
      <trkpt lat="-49.223711080849170684814453125" lon="-73.0281657166779041290283203125">
        <ele>561.5999755859375</ele>
        <time>2023-01-11T14:45:04.000Z</time>
      </trkpt>
      <trkpt lat="-49.2237125895917415618896484375" lon="-73.0281801335513591766357421875">
        <ele>561.5999755859375</ele>
        <time>2023-01-11T14:45:05.000Z</time>
      </trkpt>
      <trkpt lat="-49.22371678054332733154296875" lon="-73.02822195924818515777587890625">
        <ele>562.4000244140625</ele>
        <time>2023-01-11T14:45:08.000Z</time>
      </trkpt>
      <trkpt lat="-49.22372323460876941680908203125" lon="-73.02829496562480926513671875">
        <ele>562.20001220703125</ele>
        <time>2023-01-11T14:45:14.000Z</time>
      </trkpt>
      <trkpt lat="-49.22372859902679920196533203125" lon="-73.0283184349536895751953125">
        <ele>562.5999755859375</ele>
        <time>2023-01-11T14:45:16.000Z</time>
      </trkpt>
      <trkpt lat="-49.22372893430292606353759765625" lon="-73.028331510722637176513671875">
        <ele>562.79998779296875</ele>
        <time>2023-01-11T14:45:17.000Z</time>
      </trkpt>
      <trkpt lat="-49.22371141612529754638671875" lon="-73.0284523777663707733154296875">
        <ele>563.4000244140625</ele>
        <time>2023-01-11T14:45:25.000Z</time>
      </trkpt>
      <trkpt lat="-49.22368283383548259735107421875" lon="-73.0284932814538478851318359375">
        <ele>564.20001220703125</ele>
        <time>2023-01-11T14:45:29.000Z</time>
      </trkpt>
      <trkpt lat="-49.22365198843181133270263671875" lon="-73.0285315029323101043701171875">
        <ele>564</ele>
        <time>2023-01-11T14:45:33.000Z</time>
      </trkpt>
      <trkpt lat="-49.22365684993565082550048828125" lon="-73.02859998308122158050537109375">
        <ele>564.5999755859375</ele>
        <time>2023-01-11T14:45:39.000Z</time>
      </trkpt>
      <trkpt lat="-49.2236462049186229705810546875" lon="-73.02866469137370586395263671875">
        <ele>565.20001220703125</ele>
        <time>2023-01-11T14:45:46.000Z</time>
      </trkpt>
      <trkpt lat="-49.22364461235702037811279296875" lon="-73.0286817066371440887451171875">
        <ele>565.5999755859375</ele>
        <time>2023-01-11T14:45:48.000Z</time>
      </trkpt>
      <trkpt lat="-49.22364394180476665496826171875" lon="-73.0286991409957408905029296875">
        <ele>566.4000244140625</ele>
        <time>2023-01-11T14:45:51.000Z</time>
      </trkpt>
      <trkpt lat="-49.22365400008857250213623046875" lon="-73.02872487343847751617431640625">
        <ele>568</ele>
        <time>2023-01-11T14:45:54.000Z</time>
      </trkpt>
      <trkpt lat="-49.223659448325634002685546875" lon="-73.0287551321089267730712890625">
        <ele>566.79998779296875</ele>
        <time>2023-01-11T14:45:59.000Z</time>
      </trkpt>
      <trkpt lat="-49.223661459982395172119140625" lon="-73.0287504382431507110595703125">
        <ele>566.5999755859375</ele>
        <time>2023-01-11T14:46:03.000Z</time>
      </trkpt>
      <trkpt lat="-49.22366003505885601043701171875" lon="-73.0287524498999118804931640625">
        <ele>566.20001220703125</ele>
        <time>2023-01-11T14:46:17.000Z</time>
      </trkpt>
      <trkpt lat="-49.223659448325634002685546875" lon="-73.02875253371894359588623046875">
        <ele>567.20001220703125</ele>
        <time>2023-01-11T14:46:18.000Z</time>
      </trkpt>
      <trkpt lat="-49.223658107221126556396484375" lon="-73.0287551321089267730712890625">
        <ele>569.20001220703125</ele>
        <time>2023-01-11T14:46:23.000Z</time>
      </trkpt>
      <trkpt lat="-49.2236544191837310791015625" lon="-73.0287661962211132049560546875">
        <ele>569.5999755859375</ele>
        <time>2023-01-11T14:46:26.000Z</time>
      </trkpt>
      <trkpt lat="-49.22365467064082622528076171875" lon="-73.02882042713463306427001953125">
        <ele>569.20001220703125</ele>
        <time>2023-01-11T14:46:29.000Z</time>
      </trkpt>
      <trkpt lat="-49.2236505635082721710205078125" lon="-73.028900139033794403076171875">
        <ele>568</ele>
        <time>2023-01-11T14:46:33.000Z</time>
      </trkpt>
      <trkpt lat="-49.22362835146486759185791015625" lon="-73.02897465415298938751220703125">
        <ele>568.20001220703125</ele>
        <time>2023-01-11T14:46:37.000Z</time>
      </trkpt>
      <trkpt lat="-49.2236244119703769683837890625" lon="-73.02902276627719402313232421875">
        <ele>568</ele>
        <time>2023-01-11T14:46:42.000Z</time>
      </trkpt>
      <trkpt lat="-49.22362424433231353759765625" lon="-73.02902829833328723907470703125">
        <ele>567.79998779296875</ele>
        <time>2023-01-11T14:46:44.000Z</time>
      </trkpt>
      <trkpt lat="-49.223637990653514862060546875" lon="-73.02908428944647312164306640625">
        <ele>568.20001220703125</ele>
        <time>2023-01-11T14:46:57.000Z</time>
      </trkpt>
      <trkpt lat="-49.223637320101261138916015625" lon="-73.02910289727151393890380859375">
        <ele>567</ele>
        <time>2023-01-11T14:46:59.000Z</time>
      </trkpt>
      <trkpt lat="-49.22364125959575176239013671875" lon="-73.0291271209716796875">
        <ele>566.4000244140625</ele>
        <time>2023-01-11T14:47:05.000Z</time>
      </trkpt>
      <trkpt lat="-49.223631285130977630615234375" lon="-73.0291561223566532135009765625">
        <ele>565.79998779296875</ele>
        <time>2023-01-11T14:47:08.000Z</time>
      </trkpt>
      <trkpt lat="-49.22362768091261386871337890625" lon="-73.02916307933628559112548828125">
        <ele>564.79998779296875</ele>
        <time>2023-01-11T14:47:09.000Z</time>
      </trkpt>
      <trkpt lat="-49.2236177064478397369384765625" lon="-73.0291606485843658447265625">
        <ele>564.4000244140625</ele>
        <time>2023-01-11T14:47:13.000Z</time>
      </trkpt>
      <trkpt lat="-49.223620891571044921875" lon="-73.02918889559805393218994140625">
        <ele>564.4000244140625</ele>
        <time>2023-01-11T14:47:17.000Z</time>
      </trkpt>
      <trkpt lat="-49.22361410222947597503662109375" lon="-73.029210269451141357421875">
        <ele>565</ele>
        <time>2023-01-11T14:47:19.000Z</time>
      </trkpt>
      <trkpt lat="-49.2236103303730487823486328125" lon="-73.0292168073356151580810546875">
        <ele>566</ele>
        <time>2023-01-11T14:47:20.000Z</time>
      </trkpt>
      <trkpt lat="-49.22360488213598728179931640625" lon="-73.02923751063644886016845703125">
        <ele>564.5999755859375</ele>
        <time>2023-01-11T14:47:22.000Z</time>
      </trkpt>
      <trkpt lat="-49.22359817661345005035400390625" lon="-73.02928478457033634185791015625">
        <ele>564.5999755859375</ele>
        <time>2023-01-11T14:47:26.000Z</time>
      </trkpt>
      <trkpt lat="-49.2235959134995937347412109375" lon="-73.02929467521607875823974609375">
        <ele>564.5999755859375</ele>
        <time>2023-01-11T14:47:27.000Z</time>
      </trkpt>
      <trkpt lat="-49.22357839532196521759033203125" lon="-73.0293264426290988922119140625">
        <ele>563.4000244140625</ele>
        <time>2023-01-11T14:47:32.000Z</time>
      </trkpt>
      <trkpt lat="-49.22357588075101375579833984375" lon="-73.02932669408619403839111328125">
        <ele>562.4000244140625</ele>
        <time>2023-01-11T14:47:33.000Z</time>
      </trkpt>
      <trkpt lat="-49.2235741205513477325439453125" lon="-73.02932870574295520782470703125">
        <ele>562.4000244140625</ele>
        <time>2023-01-11T14:47:35.000Z</time>
      </trkpt>
      <trkpt lat="-49.22355945222079753875732421875" lon="-73.02936290390789508819580078125">
        <ele>563</ele>
        <time>2023-01-11T14:47:40.000Z</time>
      </trkpt>
      <trkpt lat="-49.22354780137538909912109375" lon="-73.0293884687125682830810546875">
        <ele>563</ele>
        <time>2023-01-11T14:47:42.000Z</time>
      </trkpt>
      <trkpt lat="-49.22352634370326995849609375" lon="-73.0294374190270900726318359375">
        <ele>561.5999755859375</ele>
        <time>2023-01-11T14:47:47.000Z</time>
      </trkpt>
      <trkpt lat="-49.223532043397426605224609375" lon="-73.02947052754461765289306640625">
        <ele>562</ele>
        <time>2023-01-11T14:47:49.000Z</time>
      </trkpt>
      <trkpt lat="-49.223552830517292022705078125" lon="-73.029580079019069671630859375">
        <ele>563.4000244140625</ele>
        <time>2023-01-11T14:47:57.000Z</time>
      </trkpt>
      <trkpt lat="-49.22354570589959621429443359375" lon="-73.029708154499530792236328125">
        <ele>562</ele>
        <time>2023-01-11T14:48:06.000Z</time>
      </trkpt>
      <trkpt lat="-49.2235283553600311279296875" lon="-73.029844947159290313720703125">
        <ele>562.79998779296875</ele>
        <time>2023-01-11T14:48:16.000Z</time>
      </trkpt>
      <trkpt lat="-49.22351771034300327301025390625" lon="-73.0298843421041965484619140625">
        <ele>561.79998779296875</ele>
        <time>2023-01-11T14:48:24.000Z</time>
      </trkpt>
      <trkpt lat="-49.223514609038829803466796875" lon="-73.02988350391387939453125">
        <ele>561.20001220703125</ele>
        <time>2023-01-11T14:48:25.000Z</time>
      </trkpt>
      <trkpt lat="-49.22349172644317150115966796875" lon="-73.0298793129622936248779296875">
        <ele>561.20001220703125</ele>
        <time>2023-01-11T14:48:31.000Z</time>
      </trkpt>
      <trkpt lat="-49.22349457629024982452392578125" lon="-73.02988157607614994049072265625">
        <ele>560.20001220703125</ele>
        <time>2023-01-11T14:48:38.000Z</time>
      </trkpt>
      <trkpt lat="-49.22349457629024982452392578125" lon="-73.02988157607614994049072265625">
        <ele>560</ele>
        <time>2023-01-11T14:48:41.000Z</time>
      </trkpt>
      <trkpt lat="-49.22347948886454105377197265625" lon="-73.02990755997598171234130859375">
        <ele>561.4000244140625</ele>
        <time>2023-01-11T14:48:45.000Z</time>
      </trkpt>
      <trkpt lat="-49.2234450392425060272216796875" lon="-73.0299624614417552947998046875">
        <ele>561.4000244140625</ele>
        <time>2023-01-11T14:48:48.000Z</time>
      </trkpt>
      <trkpt lat="-49.22341394238173961639404296875" lon="-73.03011593408882617950439453125">
        <ele>562.79998779296875</ele>
        <time>2023-01-11T14:48:56.000Z</time>
      </trkpt>
      <trkpt lat="-49.223409332334995269775390625" lon="-73.0301341228187084197998046875">
        <ele>562.79998779296875</ele>
        <time>2023-01-11T14:48:57.000Z</time>
      </trkpt>
      <trkpt lat="-49.223410002887248992919921875" lon="-73.03015264682471752166748046875">
        <ele>562.79998779296875</ele>
        <time>2023-01-11T14:48:58.000Z</time>
      </trkpt>
      <trkpt lat="-49.223393239080905914306640625" lon="-73.03025088272988796234130859375">
        <ele>562.20001220703125</ele>
        <time>2023-01-11T14:49:04.000Z</time>
      </trkpt>
      <trkpt lat="-49.2233605496585369110107421875" lon="-73.03031911142170429229736328125">
        <ele>562.5999755859375</ele>
        <time>2023-01-11T14:49:09.000Z</time>
      </trkpt>
      <trkpt lat="-49.2233379185199737548828125" lon="-73.0303327739238739013671875">
        <ele>561.5999755859375</ele>
        <time>2023-01-11T14:49:11.000Z</time>
      </trkpt>
      <trkpt lat="-49.22331067733466625213623046875" lon="-73.030350543558597564697265625">
        <ele>561</ele>
        <time>2023-01-11T14:49:14.000Z</time>
      </trkpt>
      <trkpt lat="-49.22329558990895748138427734375" lon="-73.030347526073455810546875">
        <ele>560.79998779296875</ele>
        <time>2023-01-11T14:49:18.000Z</time>
      </trkpt>
      <trkpt lat="-49.223301373422145843505859375" lon="-73.030349873006343841552734375">
        <ele>560.79998779296875</ele>
        <time>2023-01-11T14:49:20.000Z</time>
      </trkpt>
      <trkpt lat="-49.2232921533286571502685546875" lon="-73.0303443409502506256103515625">
        <ele>560.4000244140625</ele>
        <time>2023-01-11T14:49:26.000Z</time>
      </trkpt>
      <trkpt lat="-49.2232847772538661956787109375" lon="-73.03034325130283832550048828125">
        <ele>560.4000244140625</ele>
        <time>2023-01-11T14:49:28.000Z</time>
      </trkpt>
      <trkpt lat="-49.2232847772538661956787109375" lon="-73.03034325130283832550048828125">
        <ele>561.5999755859375</ele>
        <time>2023-01-11T14:49:33.000Z</time>
      </trkpt>
      <trkpt lat="-49.22328804619610309600830078125" lon="-73.03034325130283832550048828125">
        <ele>561.5999755859375</ele>
        <time>2023-01-11T14:49:37.000Z</time>
      </trkpt>
      <trkpt lat="-49.22329567372798919677734375" lon="-73.03034325130283832550048828125">
        <ele>562.20001220703125</ele>
        <time>2023-01-11T14:49:44.000Z</time>
      </trkpt>
      <trkpt lat="-49.22329567372798919677734375" lon="-73.03034325130283832550048828125">
        <ele>562.20001220703125</ele>
        <time>2023-01-11T14:49:45.000Z</time>
      </trkpt>
      <trkpt lat="-49.22329567372798919677734375" lon="-73.03034325130283832550048828125">
        <ele>561.5999755859375</ele>
        <time>2023-01-11T14:49:46.000Z</time>
      </trkpt>
      <trkpt lat="-49.22329366207122802734375" lon="-73.0303500406444072723388671875">
        <ele>561.5999755859375</ele>
        <time>2023-01-11T14:49:47.000Z</time>
      </trkpt>
      <trkpt lat="-49.22329223714768886566162109375" lon="-73.0303674750030040740966796875">
        <ele>562.4000244140625</ele>
        <time>2023-01-11T14:49:48.000Z</time>
      </trkpt>
      <trkpt lat="-49.2232945002615451812744140625" lon="-73.03050535731017589569091796875">
        <ele>561.79998779296875</ele>
        <time>2023-01-11T14:49:55.000Z</time>
      </trkpt>
      <trkpt lat="-49.2232898063957691192626953125" lon="-73.0305290780961513519287109375">
        <ele>561.79998779296875</ele>
        <time>2023-01-11T14:49:56.000Z</time>
      </trkpt>
      <trkpt lat="-49.2232814244925975799560546875" lon="-73.03057216107845306396484375">
        <ele>561.5999755859375</ele>
        <time>2023-01-11T14:49:59.000Z</time>
      </trkpt>
      <trkpt lat="-49.2232995294034481048583984375" lon="-73.030621446669101715087890625">
        <ele>561.20001220703125</ele>
        <time>2023-01-11T14:50:03.000Z</time>
      </trkpt>
      <trkpt lat="-49.22329994849860668182373046875" lon="-73.03074340336024761199951171875">
        <ele>563</ele>
        <time>2023-01-11T14:50:12.000Z</time>
      </trkpt>
      <trkpt lat="-49.22329525463283061981201171875" lon="-73.03075983189046382904052734375">
        <ele>563</ele>
        <time>2023-01-11T14:50:13.000Z</time>
      </trkpt>
      <trkpt lat="-49.2232894711196422576904296875" lon="-73.03077156655490398406982421875">
        <ele>564.4000244140625</ele>
        <time>2023-01-11T14:50:14.000Z</time>
      </trkpt>
      <trkpt lat="-49.22327966429293155670166015625" lon="-73.0308459140360355377197265625">
        <ele>562.5999755859375</ele>
        <time>2023-01-11T14:50:19.000Z</time>
      </trkpt>
      <trkpt lat="-49.2232810892164707183837890625" lon="-73.0308879911899566650390625">
        <ele>561.79998779296875</ele>
        <time>2023-01-11T14:50:22.000Z</time>
      </trkpt>
      <trkpt lat="-49.22330665402114391326904296875" lon="-73.03103039972484111785888671875">
        <ele>562.5999755859375</ele>
        <time>2023-01-11T14:50:31.000Z</time>
      </trkpt>
      <trkpt lat="-49.22330883331596851348876953125" lon="-73.03104615770280361175537109375">
        <ele>562.5999755859375</ele>
        <time>2023-01-11T14:50:32.000Z</time>
      </trkpt>
      <trkpt lat="-49.22328771091997623443603515625" lon="-73.031228967010974884033203125">
        <ele>563.4000244140625</ele>
        <time>2023-01-11T14:50:43.000Z</time>
      </trkpt>
      <trkpt lat="-49.2232532612979412078857421875" lon="-73.03130968473851680755615234375">
        <ele>561.79998779296875</ele>
        <time>2023-01-11T14:50:52.000Z</time>
      </trkpt>
      <trkpt lat="-49.2232467234134674072265625" lon="-73.031339608132839202880859375">
        <ele>561.79998779296875</ele>
        <time>2023-01-11T14:50:55.000Z</time>
      </trkpt>
      <trkpt lat="-49.223235659301280975341796875" lon="-73.03137137554585933685302734375">
        <ele>560.20001220703125</ele>
        <time>2023-01-11T14:50:57.000Z</time>
      </trkpt>
      <trkpt lat="-49.2232318036258220672607421875" lon="-73.03138830699026584625244140625">
        <ele>559.79998779296875</ele>
        <time>2023-01-11T14:50:58.000Z</time>
      </trkpt>
      <trkpt lat="-49.22320037148892879486083984375" lon="-73.0315100960433483123779296875">
        <ele>561.4000244140625</ele>
        <time>2023-01-11T14:51:06.000Z</time>
      </trkpt>
      <trkpt lat="-49.22318746335804462432861328125" lon="-73.0315432883799076080322265625">
        <ele>561.4000244140625</ele>
        <time>2023-01-11T14:51:09.000Z</time>
      </trkpt>
      <trkpt lat="-49.22318712808191776275634765625" lon="-73.031634651124477386474609375">
        <ele>562.79998779296875</ele>
        <time>2023-01-11T14:51:13.000Z</time>
      </trkpt>
      <trkpt lat="-49.22315393574535846710205078125" lon="-73.0316857807338237762451171875">
        <ele>562.5999755859375</ele>
        <time>2023-01-11T14:51:18.000Z</time>
      </trkpt>
      <trkpt lat="-49.22313767485320568084716796875" lon="-73.0317236669361591339111328125">
        <ele>561.79998779296875</ele>
        <time>2023-01-11T14:51:20.000Z</time>
      </trkpt>
      <trkpt lat="-49.223077408969402313232421875" lon="-73.0318426899611949920654296875">
        <ele>561.20001220703125</ele>
        <time>2023-01-11T14:51:29.000Z</time>
      </trkpt>
      <trkpt lat="-49.22301001846790313720703125" lon="-73.03193178959190845489501953125">
        <ele>562.79998779296875</ele>
        <time>2023-01-11T14:51:39.000Z</time>
      </trkpt>
      <trkpt lat="-49.22300172038376331329345703125" lon="-73.0319509841501712799072265625">
        <ele>562.79998779296875</ele>
        <time>2023-01-11T14:51:41.000Z</time>
      </trkpt>
      <trkpt lat="-49.22298613004386425018310546875" lon="-73.0319949053227901458740234375">
        <ele>563.20001220703125</ele>
        <time>2023-01-11T14:51:45.000Z</time>
      </trkpt>
      <trkpt lat="-49.22298252582550048828125" lon="-73.03201393224298954010009765625">
        <ele>562.5999755859375</ele>
        <time>2023-01-11T14:51:46.000Z</time>
      </trkpt>
      <trkpt lat="-49.22296484000980854034423828125" lon="-73.03204310126602649688720703125">
        <ele>563.4000244140625</ele>
        <time>2023-01-11T14:51:50.000Z</time>
      </trkpt>
      <trkpt lat="-49.22294874675571918487548828125" lon="-73.032081238925457000732421875">
        <ele>563.4000244140625</ele>
        <time>2023-01-11T14:51:54.000Z</time>
      </trkpt>
      <trkpt lat="-49.2229344137012958526611328125" lon="-73.03208434022963047027587890625">
        <ele>563.4000244140625</ele>
        <time>2023-01-11T14:51:56.000Z</time>
      </trkpt>
      <trkpt lat="-49.2229302227497100830078125" lon="-73.0320881120860576629638671875">
        <ele>563.79998779296875</ele>
        <time>2023-01-11T14:51:58.000Z</time>
      </trkpt>
      <trkpt lat="-49.22293080948293209075927734375" lon="-73.03213731385767459869384765625">
        <ele>563.20001220703125</ele>
        <time>2023-01-11T14:52:02.000Z</time>
      </trkpt>
      <trkpt lat="-49.22294019721448421478271484375" lon="-73.03216111846268177032470703125">
        <ele>563.20001220703125</ele>
        <time>2023-01-11T14:52:04.000Z</time>
      </trkpt>
      <trkpt lat="-49.2229377664625644683837890625" lon="-73.0321903713047504425048828125">
        <ele>562.79998779296875</ele>
        <time>2023-01-11T14:52:06.000Z</time>
      </trkpt>
      <trkpt lat="-49.22294103540480136871337890625" lon="-73.03224711678922176361083984375">
        <ele>562.20001220703125</ele>
        <time>2023-01-11T14:52:10.000Z</time>
      </trkpt>
      <trkpt lat="-49.22295612283051013946533203125" lon="-73.0323730967938899993896484375">
        <ele>562.20001220703125</ele>
        <time>2023-01-11T14:52:19.000Z</time>
      </trkpt>
      <trkpt lat="-49.2229531891644001007080078125" lon="-73.03243084810674190521240234375">
        <ele>562.4000244140625</ele>
        <time>2023-01-11T14:52:23.000Z</time>
      </trkpt>
      <trkpt lat="-49.22295176424086093902587890625" lon="-73.03246387280523777008056640625">
        <ele>561.5999755859375</ele>
        <time>2023-01-11T14:52:25.000Z</time>
      </trkpt>
      <trkpt lat="-49.22294908203184604644775390625" lon="-73.03250201046466827392578125">
        <ele>561.20001220703125</ele>
        <time>2023-01-11T14:52:27.000Z</time>
      </trkpt>
      <trkpt lat="-49.2229491658508777618408203125" lon="-73.03254199214279651641845703125">
        <ele>561.20001220703125</ele>
        <time>2023-01-11T14:52:30.000Z</time>
      </trkpt>
      <trkpt lat="-49.2229521833360195159912109375" lon="-73.0326044373214244842529296875">
        <ele>561.5999755859375</ele>
        <time>2023-01-11T14:52:34.000Z</time>
      </trkpt>
      <trkpt lat="-49.2229535244405269622802734375" lon="-73.0326530523598194122314453125">
        <ele>561.20001220703125</ele>
        <time>2023-01-11T14:52:37.000Z</time>
      </trkpt>
      <trkpt lat="-49.2229572124779224395751953125" lon="-73.03267124108970165252685546875">
        <ele>561.20001220703125</ele>
        <time>2023-01-11T14:52:38.000Z</time>
      </trkpt>
      <trkpt lat="-49.22297121025621891021728515625" lon="-73.03275221027433872222900390625">
        <ele>561.79998779296875</ele>
        <time>2023-01-11T14:52:43.000Z</time>
      </trkpt>
      <trkpt lat="-49.22298411838710308074951171875" lon="-73.03281825967133045196533203125">
        <ele>561.79998779296875</ele>
        <time>2023-01-11T14:52:47.000Z</time>
      </trkpt>
      <trkpt lat="-49.22298830933868885040283203125" lon="-73.0328515358269214630126953125">
        <ele>561.79998779296875</ele>
        <time>2023-01-11T14:52:49.000Z</time>
      </trkpt>
      <trkpt lat="-49.2229890637099742889404296875" lon="-73.0329742468893527984619140625">
        <ele>561.79998779296875</ele>
        <time>2023-01-11T14:52:56.000Z</time>
      </trkpt>
      <trkpt lat="-49.22299970872700214385986328125" lon="-73.03306267596781253814697265625">
        <ele>561.5999755859375</ele>
        <time>2023-01-11T14:53:02.000Z</time>
      </trkpt>
      <trkpt lat="-49.22299954108893871307373046875" lon="-73.0331086926162242889404296875">
        <ele>561.5999755859375</ele>
        <time>2023-01-11T14:53:05.000Z</time>
      </trkpt>
      <trkpt lat="-49.222993589937686920166015625" lon="-73.03314079530537128448486328125">
        <ele>561.5999755859375</ele>
        <time>2023-01-11T14:53:07.000Z</time>
      </trkpt>
      <trkpt lat="-49.222978167235851287841796875" lon="-73.033206760883331298828125">
        <ele>561.5999755859375</ele>
        <time>2023-01-11T14:53:11.000Z</time>
      </trkpt>
      <trkpt lat="-49.2229733057320117950439453125" lon="-73.0332210101187229156494140625">
        <ele>559.79998779296875</ele>
        <time>2023-01-11T14:53:12.000Z</time>
      </trkpt>
      <trkpt lat="-49.22293491661548614501953125" lon="-73.033357299864292144775390625">
        <ele>560.20001220703125</ele>
        <time>2023-01-11T14:53:20.000Z</time>
      </trkpt>
      <trkpt lat="-49.22291169874370098114013671875" lon="-73.0334624089300632476806640625">
        <ele>560.20001220703125</ele>
        <time>2023-01-11T14:53:26.000Z</time>
      </trkpt>
      <trkpt lat="-49.22289862297475337982177734375" lon="-73.033507168292999267578125">
        <ele>560.20001220703125</ele>
        <time>2023-01-11T14:53:29.000Z</time>
      </trkpt>
      <trkpt lat="-49.2228821106255054473876953125" lon="-73.03358587436378002166748046875">
        <ele>560.4000244140625</ele>
        <time>2023-01-11T14:53:34.000Z</time>
      </trkpt>
      <trkpt lat="-49.22284103929996490478515625" lon="-73.03374278359115123748779296875">
        <ele>560</ele>
        <time>2023-01-11T14:53:44.000Z</time>
      </trkpt>
      <trkpt lat="-49.2227925918996334075927734375" lon="-73.03389801643788814544677734375">
        <ele>559.4000244140625</ele>
        <time>2023-01-11T14:53:54.000Z</time>
      </trkpt>
      <trkpt lat="-49.222784377634525299072265625" lon="-73.03399222902953624725341796875">
        <ele>561.20001220703125</ele>
        <time>2023-01-11T14:54:00.000Z</time>
      </trkpt>
      <trkpt lat="-49.22278605401515960693359375" lon="-73.0340293608605861663818359375">
        <ele>562</ele>
        <time>2023-01-11T14:54:03.000Z</time>
      </trkpt>
      <trkpt lat="-49.22278714366257190704345703125" lon="-73.03404025733470916748046875">
        <ele>562.20001220703125</ele>
        <time>2023-01-11T14:54:04.000Z</time>
      </trkpt>
      <trkpt lat="-49.222785718739032745361328125" lon="-73.0340749584138393402099609375">
        <ele>563.4000244140625</ele>
        <time>2023-01-11T14:54:07.000Z</time>
      </trkpt>
      <trkpt lat="-49.2227610759437084197998046875" lon="-73.0341369844973087310791015625">
        <ele>562.5999755859375</ele>
        <time>2023-01-11T14:54:12.000Z</time>
      </trkpt>
      <trkpt lat="-49.22275847755372524261474609375" lon="-73.03414360620081424713134765625">
        <ele>562.20001220703125</ele>
        <time>2023-01-11T14:54:13.000Z</time>
      </trkpt>
      <trkpt lat="-49.2227650992572307586669921875" lon="-73.0341460369527339935302734375">
        <ele>562.20001220703125</ele>
        <time>2023-01-11T14:54:14.000Z</time>
      </trkpt>
      <trkpt lat="-49.22276702709496021270751953125" lon="-73.034198842942714691162109375">
        <ele>563.20001220703125</ele>
        <time>2023-01-11T14:54:18.000Z</time>
      </trkpt>
      <trkpt lat="-49.22276468016207218170166015625" lon="-73.03421200253069400787353515625">
        <ele>563.4000244140625</ele>
        <time>2023-01-11T14:54:19.000Z</time>
      </trkpt>
      <trkpt lat="-49.2227627523243427276611328125" lon="-73.034229017794132232666015625">
        <ele>563.5999755859375</ele>
        <time>2023-01-11T14:54:20.000Z</time>
      </trkpt>
      <trkpt lat="-49.22273986972868442535400390625" lon="-73.0343036167323589324951171875">
        <ele>563.79998779296875</ele>
        <time>2023-01-11T14:54:25.000Z</time>
      </trkpt>
      <trkpt lat="-49.22272193245589733123779296875" lon="-73.03434058092534542083740234375">
        <ele>563.5999755859375</ele>
        <time>2023-01-11T14:54:28.000Z</time>
      </trkpt>
      <trkpt lat="-49.2227235250174999237060546875" lon="-73.0343565903604030609130859375">
        <ele>563.5999755859375</ele>
        <time>2023-01-11T14:54:29.000Z</time>
      </trkpt>
      <trkpt lat="-49.22273567877709865570068359375" lon="-73.03441031835973262786865234375">
        <ele>564.20001220703125</ele>
        <time>2023-01-11T14:54:33.000Z</time>
      </trkpt>
      <trkpt lat="-49.22273911535739898681640625" lon="-73.03442247211933135986328125">
        <ele>564.20001220703125</ele>
        <time>2023-01-11T14:54:34.000Z</time>
      </trkpt>
      <trkpt lat="-49.22273618169128894805908203125" lon="-73.03447687067091464996337890625">
        <ele>564.20001220703125</ele>
        <time>2023-01-11T14:54:38.000Z</time>
      </trkpt>
      <trkpt lat="-49.222740791738033294677734375" lon="-73.03453168831765651702880859375">
        <ele>564</ele>
        <time>2023-01-11T14:54:41.000Z</time>
      </trkpt>
      <trkpt lat="-49.2227339185774326324462890625" lon="-73.03461215458810329437255859375">
        <ele>563</ele>
        <time>2023-01-11T14:54:46.000Z</time>
      </trkpt>
      <trkpt lat="-49.22272109426558017730712890625" lon="-73.03464450873434543609619140625">
        <ele>563</ele>
        <time>2023-01-11T14:54:48.000Z</time>
      </trkpt>
      <trkpt lat="-49.22271656803786754608154296875" lon="-73.03465716540813446044921875">
        <ele>563</ele>
        <time>2023-01-11T14:54:49.000Z</time>
      </trkpt>
      <trkpt lat="-49.222702570259571075439453125" lon="-73.03473721258342266082763671875">
        <ele>563</ele>
        <time>2023-01-11T14:54:54.000Z</time>
      </trkpt>
      <trkpt lat="-49.22271489165723323822021484375" lon="-73.03479152731597423553466796875">
        <ele>563</ele>
        <time>2023-01-11T14:54:58.000Z</time>
      </trkpt>
      <trkpt lat="-49.222703911364078521728515625" lon="-73.03482723422348499298095703125">
        <ele>562.79998779296875</ele>
        <time>2023-01-11T14:55:01.000Z</time>
      </trkpt>
      <trkpt lat="-49.2227000556886196136474609375" lon="-73.03483461029827594757080078125">
        <ele>563.20001220703125</ele>
        <time>2023-01-11T14:55:02.000Z</time>
      </trkpt>
      <trkpt lat="-49.22269913367927074432373046875" lon="-73.03487350232899188995361328125">
        <ele>563.20001220703125</ele>
        <time>2023-01-11T14:55:05.000Z</time>
      </trkpt>
      <trkpt lat="-49.22269427217543125152587890625" lon="-73.03492798469960689544677734375">
        <ele>563</ele>
        <time>2023-01-11T14:55:09.000Z</time>
      </trkpt>
      <trkpt lat="-49.22266879118978977203369140625" lon="-73.03507265634834766387939453125">
        <ele>563.20001220703125</ele>
        <time>2023-01-11T14:55:19.000Z</time>
      </trkpt>
      <trkpt lat="-49.222691841423511505126953125" lon="-73.03512110374867916107177734375">
        <ele>563.4000244140625</ele>
        <time>2023-01-11T14:55:24.000Z</time>
      </trkpt>
      <trkpt lat="-49.2226970382034778594970703125" lon="-73.03512395359575748443603515625">
        <ele>563.5999755859375</ele>
        <time>2023-01-11T14:55:25.000Z</time>
      </trkpt>
      <trkpt lat="-49.22270424664020538330078125" lon="-73.0351280607283115386962890625">
        <ele>563.5999755859375</ele>
        <time>2023-01-11T14:55:26.000Z</time>
      </trkpt>
      <trkpt lat="-49.22271891497075557708740234375" lon="-73.03516033105552196502685546875">
        <ele>563.79998779296875</ele>
        <time>2023-01-11T14:55:29.000Z</time>
      </trkpt>
      <trkpt lat="-49.22273584641516208648681640625" lon="-73.0351897515356540679931640625">
        <ele>564</ele>
        <time>2023-01-11T14:55:32.000Z</time>
      </trkpt>
      <trkpt lat="-49.22273282893002033233642578125" lon="-73.03520567715167999267578125">
        <ele>564</ele>
        <time>2023-01-11T14:55:33.000Z</time>
      </trkpt>
      <trkpt lat="-49.22268815338611602783203125" lon="-73.0352397076785564422607421875">
        <ele>564</ele>
        <time>2023-01-11T14:55:37.000Z</time>
      </trkpt>
      <trkpt lat="-49.22265538014471530914306640625" lon="-73.03525286726653575897216796875">
        <ele>564.20001220703125</ele>
        <time>2023-01-11T14:55:43.000Z</time>
      </trkpt>
      <trkpt lat="-49.22265194356441497802734375" lon="-73.035261668264865875244140625">
        <ele>564.4000244140625</ele>
        <time>2023-01-11T14:55:51.000Z</time>
      </trkpt>
      <trkpt lat="-49.22265194356441497802734375" lon="-73.035261668264865875244140625">
        <ele>564.4000244140625</ele>
        <time>2023-01-11T14:55:52.000Z</time>
      </trkpt>
      <trkpt lat="-49.2226511053740978240966796875" lon="-73.03526460193097591400146484375">
        <ele>564.4000244140625</ele>
        <time>2023-01-11T14:56:12.000Z</time>
      </trkpt>
      <trkpt lat="-49.22264599241316318511962890625" lon="-73.0352725647389888763427734375">
        <ele>564.4000244140625</ele>
        <time>2023-01-11T14:56:18.000Z</time>
      </trkpt>
      <trkpt lat="-49.22264389693737030029296875" lon="-73.03529175929725170135498046875">
        <ele>565.4000244140625</ele>
        <time>2023-01-11T14:56:31.000Z</time>
      </trkpt>
      <trkpt lat="-49.222641550004482269287109375" lon="-73.03532905876636505126953125">
        <ele>566.4000244140625</ele>
        <time>2023-01-11T14:56:37.000Z</time>
      </trkpt>
      <trkpt lat="-49.222595952451229095458984375" lon="-73.035391755402088165283203125">
        <ele>567.79998779296875</ele>
        <time>2023-01-11T14:56:45.000Z</time>
      </trkpt>
      <trkpt lat="-49.2225773446261882781982421875" lon="-73.03545487113296985626220703125">
        <ele>569</ele>
        <time>2023-01-11T14:56:49.000Z</time>
      </trkpt>
      <trkpt lat="-49.22255949117243289947509765625" lon="-73.03549778647720813751220703125">
        <ele>569</ele>
        <time>2023-01-11T14:56:53.000Z</time>
      </trkpt>
      <trkpt lat="-49.22255136072635650634765625" lon="-73.0355277098715305328369140625">
        <ele>570</ele>
        <time>2023-01-11T14:56:58.000Z</time>
      </trkpt>
      <trkpt lat="-49.22255345620214939117431640625" lon="-73.035547994077205657958984375">
        <ele>570.4000244140625</ele>
        <time>2023-01-11T14:57:00.000Z</time>
      </trkpt>
      <trkpt lat="-49.2225505225360393524169921875" lon="-73.03559551946818828582763671875">
        <ele>571.20001220703125</ele>
        <time>2023-01-11T14:57:05.000Z</time>
      </trkpt>
      <trkpt lat="-49.22255563549697399139404296875" lon="-73.03562686778604984283447265625">
        <ele>571.79998779296875</ele>
        <time>2023-01-11T14:57:08.000Z</time>
      </trkpt>
      <trkpt lat="-49.22255530022084712982177734375" lon="-73.03563105873763561248779296875">
        <ele>572</ele>
        <time>2023-01-11T14:57:09.000Z</time>
      </trkpt>
      <trkpt lat="-49.22255312092602252960205078125" lon="-73.035636842250823974609375">
        <ele>572</ele>
        <time>2023-01-11T14:57:10.000Z</time>
      </trkpt>
      <trkpt lat="-49.22254507429897785186767578125" lon="-73.035625778138637542724609375">
        <ele>572</ele>
        <time>2023-01-11T14:57:14.000Z</time>
      </trkpt>
      <trkpt lat="-49.2225468344986438751220703125" lon="-73.0356279574334621429443359375">
        <ele>572</ele>
        <time>2023-01-11T14:57:17.000Z</time>
      </trkpt>
      <trkpt lat="-49.2225468344986438751220703125" lon="-73.0356279574334621429443359375">
        <ele>572.20001220703125</ele>
        <time>2023-01-11T14:57:18.000Z</time>
      </trkpt>
      <trkpt lat="-49.2225468344986438751220703125" lon="-73.0356279574334621429443359375">
        <ele>572.20001220703125</ele>
        <time>2023-01-11T14:57:20.000Z</time>
      </trkpt>
      <trkpt lat="-49.2225468344986438751220703125" lon="-73.0356279574334621429443359375">
        <ele>572.20001220703125</ele>
        <time>2023-01-11T14:57:23.000Z</time>
      </trkpt>
      <trkpt lat="-49.2225428111851215362548828125" lon="-73.035642541944980621337890625">
        <ele>572.20001220703125</ele>
        <time>2023-01-11T14:57:35.000Z</time>
      </trkpt>
      <trkpt lat="-49.2225273884832859039306640625" lon="-73.03565084002912044525146484375">
        <ele>573.4000244140625</ele>
        <time>2023-01-11T14:57:44.000Z</time>
      </trkpt>
      <trkpt lat="-49.222528897225856781005859375" lon="-73.03565637208521366119384765625">
        <ele>573.5999755859375</ele>
        <time>2023-01-11T14:57:46.000Z</time>
      </trkpt>
      <trkpt lat="-49.22252797521650791168212890625" lon="-73.0357087589800357818603515625">
        <ele>573.5999755859375</ele>
        <time>2023-01-11T14:57:49.000Z</time>
      </trkpt>
      <trkpt lat="-49.222520180046558380126953125" lon="-73.035815544426441192626953125">
        <ele>574.20001220703125</ele>
        <time>2023-01-11T14:57:55.000Z</time>
      </trkpt>
      <trkpt lat="-49.22251221723854541778564453125" lon="-73.035843372344970703125">
        <ele>574.5999755859375</ele>
        <time>2023-01-11T14:57:58.000Z</time>
      </trkpt>
      <trkpt lat="-49.22250735573470592498779296875" lon="-73.0358482338488101959228515625">
        <ele>574.79998779296875</ele>
        <time>2023-01-11T14:57:59.000Z</time>
      </trkpt>
      <trkpt lat="-49.22245237044990062713623046875" lon="-73.03586189635097980499267578125">
        <ele>575.4000244140625</ele>
        <time>2023-01-11T14:58:08.000Z</time>
      </trkpt>
      <trkpt lat="-49.22244365327060222625732421875" lon="-73.03587011061608791351318359375">
        <ele>575.5999755859375</ele>
        <time>2023-01-11T14:58:09.000Z</time>
      </trkpt>
      <trkpt lat="-49.2224251292645931243896484375" lon="-73.035872876644134521484375">
        <ele>576.79998779296875</ele>
        <time>2023-01-11T14:58:13.000Z</time>
      </trkpt>
      <trkpt lat="-49.22242169268429279327392578125" lon="-73.03588737733662128448486328125">
        <ele>577.20001220703125</ele>
        <time>2023-01-11T14:58:15.000Z</time>
      </trkpt>
      <trkpt lat="-49.2223922722041606903076171875" lon="-73.0358991958200931549072265625">
        <ele>578.20001220703125</ele>
        <time>2023-01-11T14:58:21.000Z</time>
      </trkpt>
      <trkpt lat="-49.22238514758646488189697265625" lon="-73.0358970165252685546875">
        <ele>578.5999755859375</ele>
        <time>2023-01-11T14:58:23.000Z</time>
      </trkpt>
      <trkpt lat="-49.2223577387630939483642578125" lon="-73.03589609451591968536376953125">
        <ele>579.20001220703125</ele>
        <time>2023-01-11T14:58:28.000Z</time>
      </trkpt>
      <trkpt lat="-49.22233812510967254638671875" lon="-73.03588301874697208404541015625">
        <ele>579.4000244140625</ele>
        <time>2023-01-11T14:58:31.000Z</time>
      </trkpt>
      <trkpt lat="-49.2223121412098407745361328125" lon="-73.03590078838169574737548828125">
        <ele>580.79998779296875</ele>
        <time>2023-01-11T14:58:37.000Z</time>
      </trkpt>
      <trkpt lat="-49.22230183146893978118896484375" lon="-73.03592174313962459564208984375">
        <ele>581.20001220703125</ele>
        <time>2023-01-11T14:58:40.000Z</time>
      </trkpt>
      <trkpt lat="-49.2222725786268711090087890625" lon="-73.0359037220478057861328125">
        <ele>581.79998779296875</ele>
        <time>2023-01-11T14:58:45.000Z</time>
      </trkpt>
      <trkpt lat="-49.22225363552570343017578125" lon="-73.0358851142227649688720703125">
        <ele>582.20001220703125</ele>
        <time>2023-01-11T14:58:48.000Z</time>
      </trkpt>
      <trkpt lat="-49.2222356982529163360595703125" lon="-73.03587866015732288360595703125">
        <ele>584.20001220703125</ele>
        <time>2023-01-11T14:58:50.000Z</time>
      </trkpt>
      <trkpt lat="-49.2222162522375583648681640625" lon="-73.0359015427529811859130859375">
        <ele>584.4000244140625</ele>
        <time>2023-01-11T14:58:54.000Z</time>
      </trkpt>
      <trkpt lat="-49.222213067114353179931640625" lon="-73.0359042249619960784912109375">
        <ele>583</ele>
        <time>2023-01-11T14:58:56.000Z</time>
      </trkpt>
      <trkpt lat="-49.22221080400049686431884765625" lon="-73.03589039482176303863525390625">
        <ele>582.79998779296875</ele>
        <time>2023-01-11T14:59:00.000Z</time>
      </trkpt>
      <trkpt lat="-49.222203008830547332763671875" lon="-73.03588234819471836090087890625">
        <ele>585.20001220703125</ele>
        <time>2023-01-11T14:59:03.000Z</time>
      </trkpt>
      <trkpt lat="-49.22218859195709228515625" lon="-73.03588922135531902313232421875">
        <ele>585.4000244140625</ele>
        <time>2023-01-11T14:59:05.000Z</time>
      </trkpt>
      <trkpt lat="-49.2221783660352230072021484375" lon="-73.03589039482176303863525390625">
        <ele>585.79998779296875</ele>
        <time>2023-01-11T14:59:06.000Z</time>
      </trkpt>
      <trkpt lat="-49.22214232385158538818359375" lon="-73.035937249660491943359375">
        <ele>585.5999755859375</ele>
        <time>2023-01-11T14:59:12.000Z</time>
      </trkpt>
      <trkpt lat="-49.22208331525325775146484375" lon="-73.03599315695464611053466796875">
        <ele>584.79998779296875</ele>
        <time>2023-01-11T14:59:21.000Z</time>
      </trkpt>
      <trkpt lat="-49.22207686118781566619873046875" lon="-73.035997934639453887939453125">
        <ele>584.79998779296875</ele>
        <time>2023-01-11T14:59:27.000Z</time>
      </trkpt>
      <trkpt lat="-49.2221123166382312774658203125" lon="-73.0360195599496364593505859375">
        <ele>585.5999755859375</ele>
        <time>2023-01-11T14:59:34.000Z</time>
      </trkpt>
      <trkpt lat="-49.22212128527462482452392578125" lon="-73.03604520857334136962890625">
        <ele>586.20001220703125</ele>
        <time>2023-01-11T14:59:38.000Z</time>
      </trkpt>
      <trkpt lat="-49.22212480567395687103271484375" lon="-73.03606121800839900970458984375">
        <ele>586.5999755859375</ele>
        <time>2023-01-11T14:59:40.000Z</time>
      </trkpt>
      <trkpt lat="-49.2221284098923206329345703125" lon="-73.0360698513686656951904296875">
        <ele>586.5999755859375</ele>
        <time>2023-01-11T14:59:41.000Z</time>
      </trkpt>
      <trkpt lat="-49.22210234217345714569091796875" lon="-73.03609491325914859771728515625">
        <ele>588.20001220703125</ele>
        <time>2023-01-11T14:59:46.000Z</time>
      </trkpt>
      <trkpt lat="-49.22209312207996845245361328125" lon="-73.0361063964664936065673828125">
        <ele>588.79998779296875</ele>
        <time>2023-01-11T14:59:48.000Z</time>
      </trkpt>
      <trkpt lat="-49.22208658419549465179443359375" lon="-73.03612089715898036956787109375">
        <ele>589.4000244140625</ele>
        <time>2023-01-11T14:59:50.000Z</time>
      </trkpt>
      <trkpt lat="-49.2220799624919891357421875" lon="-73.0361161194741725921630859375">
        <ele>589.79998779296875</ele>
        <time>2023-01-11T14:59:55.000Z</time>
      </trkpt>
      <trkpt lat="-49.2220799624919891357421875" lon="-73.0361161194741725921630859375">
        <ele>590.5999755859375</ele>
        <time>2023-01-11T15:00:00.000Z</time>
      </trkpt>
      <trkpt lat="-49.2220799624919891357421875" lon="-73.0361161194741725921630859375">
        <ele>589.5999755859375</ele>
        <time>2023-01-11T15:00:03.000Z</time>
      </trkpt>
      <trkpt lat="-49.22207736410200595855712890625" lon="-73.0361397564411163330078125">
        <ele>590.5999755859375</ele>
        <time>2023-01-11T15:00:21.000Z</time>
      </trkpt>
      <trkpt lat="-49.2220808006823062896728515625" lon="-73.0361586995422840118408203125">
        <ele>591.79998779296875</ele>
        <time>2023-01-11T15:00:31.000Z</time>
      </trkpt>
      <trkpt lat="-49.222088344395160675048828125" lon="-73.03627143613994121551513671875">
        <ele>592.4000244140625</ele>
        <time>2023-01-11T15:00:42.000Z</time>
      </trkpt>
      <trkpt lat="-49.222064204514026641845703125" lon="-73.036339916288852691650390625">
        <ele>590.79998779296875</ele>
        <time>2023-01-11T15:00:46.000Z</time>
      </trkpt>
      <trkpt lat="-49.2220476083457469940185546875" lon="-73.0363464541733264923095703125">
        <ele>590.79998779296875</ele>
        <time>2023-01-11T15:00:48.000Z</time>
      </trkpt>
      <trkpt lat="-49.22204283066093921661376953125" lon="-73.03634695708751678466796875">
        <ele>590.79998779296875</ele>
        <time>2023-01-11T15:00:49.000Z</time>
      </trkpt>
      <trkpt lat="-49.2220355384051799774169921875" lon="-73.0363545008003711700439453125">
        <ele>592</ele>
        <time>2023-01-11T15:00:53.000Z</time>
      </trkpt>
      <trkpt lat="-49.2220382206141948699951171875" lon="-73.03636305034160614013671875">
        <ele>592</ele>
        <time>2023-01-11T15:00:54.000Z</time>
      </trkpt>
      <trkpt lat="-49.2220375500619411468505859375" lon="-73.0363860167562961578369140625">
        <ele>592.20001220703125</ele>
        <time>2023-01-11T15:00:56.000Z</time>
      </trkpt>
      <trkpt lat="-49.22204400412738323211669921875" lon="-73.036396242678165435791015625">
        <ele>592.4000244140625</ele>
        <time>2023-01-11T15:00:57.000Z</time>
      </trkpt>
      <trkpt lat="-49.22202858142554759979248046875" lon="-73.03642499260604381561279296875">
        <ele>592.79998779296875</ele>
        <time>2023-01-11T15:01:03.000Z</time>
      </trkpt>
      <trkpt lat="-49.222017265856266021728515625" lon="-73.036449216306209564208984375">
        <ele>593.20001220703125</ele>
        <time>2023-01-11T15:01:10.000Z</time>
      </trkpt>
      <trkpt lat="-49.2220050282776355743408203125" lon="-73.03647662512958049774169921875">
        <ele>594.20001220703125</ele>
        <time>2023-01-11T15:01:13.000Z</time>
      </trkpt>
      <trkpt lat="-49.2220008373260498046875" lon="-73.03647897206246852874755859375">
        <ele>594.5999755859375</ele>
        <time>2023-01-11T15:01:14.000Z</time>
      </trkpt>
      <trkpt lat="-49.22199974767863750457763671875" lon="-73.0365030281245708465576171875">
        <ele>595.4000244140625</ele>
        <time>2023-01-11T15:01:17.000Z</time>
      </trkpt>
      <trkpt lat="-49.22199740074574947357177734375" lon="-73.03652809001505374908447265625">
        <ele>595.4000244140625</ele>
        <time>2023-01-11T15:01:19.000Z</time>
      </trkpt>
      <trkpt lat="-49.2219758592545986175537109375" lon="-73.03655482828617095947265625">
        <ele>595.79998779296875</ele>
        <time>2023-01-11T15:01:22.000Z</time>
      </trkpt>
      <trkpt lat="-49.2219312675297260284423828125" lon="-73.03661894984543323516845703125">
        <ele>596.4000244140625</ele>
        <time>2023-01-11T15:01:28.000Z</time>
      </trkpt>
      <trkpt lat="-49.22191056422889232635498046875" lon="-73.03666052408516407012939453125">
        <ele>597.20001220703125</ele>
        <time>2023-01-11T15:01:32.000Z</time>
      </trkpt>
      <trkpt lat="-49.2218868434429168701171875" lon="-73.0366807244718074798583984375">
        <ele>597.4000244140625</ele>
        <time>2023-01-11T15:01:35.000Z</time>
      </trkpt>
      <trkpt lat="-49.221885837614536285400390625" lon="-73.036688603460788726806640625">
        <ele>598</ele>
        <time>2023-01-11T15:01:36.000Z</time>
      </trkpt>
      <trkpt lat="-49.2218873463571071624755859375" lon="-73.03673579357564449310302734375">
        <ele>599.20001220703125</ele>
        <time>2023-01-11T15:01:41.000Z</time>
      </trkpt>
      <trkpt lat="-49.2218886874616146087646484375" lon="-73.0367561616003513336181640625">
        <ele>599.79998779296875</ele>
        <time>2023-01-11T15:01:43.000Z</time>
      </trkpt>
      <trkpt lat="-49.22188818454742431640625" lon="-73.0368024297058582305908203125">
        <ele>600.4000244140625</ele>
        <time>2023-01-11T15:01:47.000Z</time>
      </trkpt>
      <trkpt lat="-49.22188692726194858551025390625" lon="-73.03680938668549060821533203125">
        <ele>601.20001220703125</ele>
        <time>2023-01-11T15:01:48.000Z</time>
      </trkpt>
      <trkpt lat="-49.2218860052525997161865234375" lon="-73.0368188582360744476318359375">
        <ele>601.4000244140625</ele>
        <time>2023-01-11T15:01:49.000Z</time>
      </trkpt>
      <trkpt lat="-49.221878461539745330810546875" lon="-73.03684425540268421173095703125">
        <ele>601.20001220703125</ele>
        <time>2023-01-11T15:01:54.000Z</time>
      </trkpt>
      <trkpt lat="-49.22186873853206634521484375" lon="-73.0368641205132007598876953125">
        <ele>601.20001220703125</ele>
        <time>2023-01-11T15:01:59.000Z</time>
      </trkpt>
      <trkpt lat="-49.22184920869767665863037109375" lon="-73.0368708260357379913330078125">
        <ele>601.5999755859375</ele>
        <time>2023-01-11T15:02:02.000Z</time>
      </trkpt>
      <trkpt lat="-49.22184267081320285797119140625" lon="-73.03687929175794124603271484375">
        <ele>602.20001220703125</ele>
        <time>2023-01-11T15:02:04.000Z</time>
      </trkpt>
      <trkpt lat="-49.2218390665948390960693359375" lon="-73.03688448853790760040283203125">
        <ele>602.5999755859375</ele>
        <time>2023-01-11T15:02:05.000Z</time>
      </trkpt>
      <trkpt lat="-49.2218320257961750030517578125" lon="-73.036915920674800872802734375">
        <ele>603.79998779296875</ele>
        <time>2023-01-11T15:02:09.000Z</time>
      </trkpt>
      <trkpt lat="-49.2218135856091976165771484375" lon="-73.0369848199188709259033203125">
        <ele>604.20001220703125</ele>
        <time>2023-01-11T15:02:16.000Z</time>
      </trkpt>
      <trkpt lat="-49.22177620232105255126953125" lon="-73.0370166711509227752685546875">
        <ele>605.20001220703125</ele>
        <time>2023-01-11T15:02:23.000Z</time>
      </trkpt>
      <trkpt lat="-49.22176639549434185028076171875" lon="-73.0370387993752956390380859375">
        <ele>606.4000244140625</ele>
        <time>2023-01-11T15:02:27.000Z</time>
      </trkpt>
      <trkpt lat="-49.221777878701686859130859375" lon="-73.03702999837696552276611328125">
        <ele>606.20001220703125</ele>
        <time>2023-01-11T15:02:32.000Z</time>
      </trkpt>
      <trkpt lat="-49.221777878701686859130859375" lon="-73.03702999837696552276611328125">
        <ele>606</ele>
        <time>2023-01-11T15:02:40.000Z</time>
      </trkpt>
      <trkpt lat="-49.221775531768798828125" lon="-73.03704391233623027801513671875">
        <ele>606.4000244140625</ele>
        <time>2023-01-11T15:02:50.000Z</time>
      </trkpt>
      <trkpt lat="-49.221769161522388458251953125" lon="-73.03706310689449310302734375">
        <ele>605.20001220703125</ele>
        <time>2023-01-11T15:02:51.000Z</time>
      </trkpt>
      <trkpt lat="-49.22176220454275608062744140625" lon="-73.03708950988948345184326171875">
        <ele>605.20001220703125</ele>
        <time>2023-01-11T15:02:53.000Z</time>
      </trkpt>
      <trkpt lat="-49.221732951700687408447265625" lon="-73.03713058121502399444580078125">
        <ele>605.5999755859375</ele>
        <time>2023-01-11T15:03:02.000Z</time>
      </trkpt>
      <trkpt lat="-49.2217337898910045623779296875" lon="-73.03713058121502399444580078125">
        <ele>605.4000244140625</ele>
        <time>2023-01-11T15:03:12.000Z</time>
      </trkpt>
      <trkpt lat="-49.2217337898910045623779296875" lon="-73.03713326342403888702392578125">
        <ele>607.20001220703125</ele>
        <time>2023-01-11T15:03:16.000Z</time>
      </trkpt>
      <trkpt lat="-49.22173320315778255462646484375" lon="-73.037136532366275787353515625">
        <ele>608.20001220703125</ele>
        <time>2023-01-11T15:03:21.000Z</time>
      </trkpt>
      <trkpt lat="-49.2217178642749786376953125" lon="-73.03722227923572063446044921875">
        <ele>608.20001220703125</ele>
        <time>2023-01-11T15:03:26.000Z</time>
      </trkpt>
      <trkpt lat="-49.2216989211738109588623046875" lon="-73.03728036582469940185546875">
        <ele>608</ele>
        <time>2023-01-11T15:03:33.000Z</time>
      </trkpt>
      <trkpt lat="-49.22171073965728282928466796875" lon="-73.03733426146209239959716796875">
        <ele>608.79998779296875</ele>
        <time>2023-01-11T15:03:41.000Z</time>
      </trkpt>
      <trkpt lat="-49.2217124998569488525390625" lon="-73.0373512767255306243896484375">
        <ele>609.4000244140625</ele>
        <time>2023-01-11T15:03:43.000Z</time>
      </trkpt>
      <trkpt lat="-49.22171224839985370635986328125" lon="-73.037375919520854949951171875">
        <ele>611</ele>
        <time>2023-01-11T15:03:46.000Z</time>
      </trkpt>
      <trkpt lat="-49.221714176237583160400390625" lon="-73.037386648356914520263671875">
        <ele>612.4000244140625</ele>
        <time>2023-01-11T15:03:47.000Z</time>
      </trkpt>
      <trkpt lat="-49.2217217199504375457763671875" lon="-73.03741891868412494659423828125">
        <ele>612.5999755859375</ele>
        <time>2023-01-11T15:03:49.000Z</time>
      </trkpt>
      <trkpt lat="-49.221748374402523040771484375" lon="-73.0375095270574092864990234375">
        <ele>612.79998779296875</ele>
        <time>2023-01-11T15:03:56.000Z</time>
      </trkpt>
      <trkpt lat="-49.22173689119517803192138671875" lon="-73.0375505983829498291015625">
        <ele>612.5999755859375</ele>
        <time>2023-01-11T15:04:02.000Z</time>
      </trkpt>
      <trkpt lat="-49.22173001803457736968994140625" lon="-73.037584461271762847900390625">
        <ele>613</ele>
        <time>2023-01-11T15:04:08.000Z</time>
      </trkpt>
      <trkpt lat="-49.22172951512038707733154296875" lon="-73.03765411488711833953857421875">
        <ele>613.20001220703125</ele>
        <time>2023-01-11T15:04:16.000Z</time>
      </trkpt>
      <trkpt lat="-49.22172297723591327667236328125" lon="-73.037691079080104827880859375">
        <ele>613.4000244140625</ele>
        <time>2023-01-11T15:04:20.000Z</time>
      </trkpt>
      <trkpt lat="-49.22171308659017086029052734375" lon="-73.03770524449646472930908203125">
        <ele>614.5999755859375</ele>
        <time>2023-01-11T15:04:23.000Z</time>
      </trkpt>
      <trkpt lat="-49.2216720990836620330810546875" lon="-73.0377619899809360504150390625">
        <ele>615.20001220703125</ele>
        <time>2023-01-11T15:04:33.000Z</time>
      </trkpt>
      <trkpt lat="-49.2216684110462665557861328125" lon="-73.03777121007442474365234375">
        <ele>615.5999755859375</ele>
        <time>2023-01-11T15:04:34.000Z</time>
      </trkpt>
      <trkpt lat="-49.2216643877327442169189453125" lon="-73.0378136225044727325439453125">
        <ele>616.79998779296875</ele>
        <time>2023-01-11T15:04:41.000Z</time>
      </trkpt>
      <trkpt lat="-49.2216690815985202789306640625" lon="-73.0378179810941219329833984375">
        <ele>616.79998779296875</ele>
        <time>2023-01-11T15:04:42.000Z</time>
      </trkpt>
      <trkpt lat="-49.22167235054075717926025390625" lon="-73.03784639574587345123291015625">
        <ele>617</ele>
        <time>2023-01-11T15:04:46.000Z</time>
      </trkpt>
      <trkpt lat="-49.22166933305561542510986328125" lon="-73.037853352725505828857421875">
        <ele>617.5999755859375</ele>
        <time>2023-01-11T15:04:47.000Z</time>
      </trkpt>
      <trkpt lat="-49.22166614793241024017333984375" lon="-73.0378605611622333526611328125">
        <ele>617.79998779296875</ele>
        <time>2023-01-11T15:04:48.000Z</time>
      </trkpt>
      <trkpt lat="-49.22166111879050731658935546875" lon="-73.037879168987274169921875">
        <ele>618</ele>
        <time>2023-01-11T15:04:50.000Z</time>
      </trkpt>
      <trkpt lat="-49.2216586880385875701904296875" lon="-73.03788880817592144012451171875">
        <ele>618</ele>
        <time>2023-01-11T15:04:51.000Z</time>
      </trkpt>
      <trkpt lat="-49.22165910713374614715576171875" lon="-73.0379188992083072662353515625">
        <ele>618.79998779296875</ele>
        <time>2023-01-11T15:04:55.000Z</time>
      </trkpt>
      <trkpt lat="-49.22166078351438045501708984375" lon="-73.03794479928910732269287109375">
        <ele>619.20001220703125</ele>
        <time>2023-01-11T15:04:58.000Z</time>
      </trkpt>
      <trkpt lat="-49.221653826534748077392578125" lon="-73.0379582941532135009765625">
        <ele>619.20001220703125</ele>
        <time>2023-01-11T15:05:04.000Z</time>
      </trkpt>
      <trkpt lat="-49.221653826534748077392578125" lon="-73.0379690229892730712890625">
        <ele>619.4000244140625</ele>
        <time>2023-01-11T15:05:14.000Z</time>
      </trkpt>
      <trkpt lat="-49.22165290452539920806884765625" lon="-73.03796441294252872467041015625">
        <ele>619.20001220703125</ele>
        <time>2023-01-11T15:05:25.000Z</time>
      </trkpt>
      <trkpt lat="-49.2216308601200580596923828125" lon="-73.03801403380930423736572265625">
        <ele>620</ele>
        <time>2023-01-11T15:05:31.000Z</time>
      </trkpt>
      <trkpt lat="-49.22162524424493312835693359375" lon="-73.03802442736923694610595703125">
        <ele>620</ele>
        <time>2023-01-11T15:05:32.000Z</time>
      </trkpt>
      <trkpt lat="-49.221605546772480010986328125" lon="-73.0380996130406856536865234375">
        <ele>621.20001220703125</ele>
        <time>2023-01-11T15:05:38.000Z</time>
      </trkpt>
      <trkpt lat="-49.22160848043859004974365234375" lon="-73.0381157062947750091552734375">
        <ele>621.20001220703125</ele>
        <time>2023-01-11T15:05:40.000Z</time>
      </trkpt>
      <trkpt lat="-49.2216063849627971649169921875" lon="-73.03812660276889801025390625">
        <ele>621.79998779296875</ele>
        <time>2023-01-11T15:05:42.000Z</time>
      </trkpt>
      <trkpt lat="-49.2216130904853343963623046875" lon="-73.03816205821931362152099609375">
        <ele>622.20001220703125</ele>
        <time>2023-01-11T15:05:53.000Z</time>
      </trkpt>
      <trkpt lat="-49.22160722315311431884765625" lon="-73.03818225860595703125">
        <ele>622.5999755859375</ele>
        <time>2023-01-11T15:05:55.000Z</time>
      </trkpt>
      <trkpt lat="-49.22160613350570201873779296875" lon="-73.03819105960428714752197265625">
        <ele>622.5999755859375</ele>
        <time>2023-01-11T15:05:56.000Z</time>
      </trkpt>
      <trkpt lat="-49.22159758396446704864501953125" lon="-73.0382062308490276336669921875">
        <ele>623.5999755859375</ele>
        <time>2023-01-11T15:05:59.000Z</time>
      </trkpt>
      <trkpt lat="-49.2215688340365886688232421875" lon="-73.038238920271396636962890625">
        <ele>624</ele>
        <time>2023-01-11T15:06:05.000Z</time>
      </trkpt>
      <trkpt lat="-49.22156204469501972198486328125" lon="-73.0382424406707286834716796875">
        <ele>625.5999755859375</ele>
        <time>2023-01-11T15:06:06.000Z</time>
      </trkpt>
      <trkpt lat="-49.2215560935437679290771484375" lon="-73.038241602480411529541015625">
        <ele>625.5999755859375</ele>
        <time>2023-01-11T15:06:07.000Z</time>
      </trkpt>
      <trkpt lat="-49.22153480350971221923828125" lon="-73.0382560193538665771484375">
        <ele>625.5999755859375</ele>
        <time>2023-01-11T15:06:11.000Z</time>
      </trkpt>
      <trkpt lat="-49.221515022218227386474609375" lon="-73.03828342817723751068115234375">
        <ele>626</ele>
        <time>2023-01-11T15:06:14.000Z</time>
      </trkpt>
      <trkpt lat="-49.221509657800197601318359375" lon="-73.038299269974231719970703125">
        <ele>627.79998779296875</ele>
        <time>2023-01-11T15:06:16.000Z</time>
      </trkpt>
      <trkpt lat="-49.22150420956313610076904296875" lon="-73.03831829689443111419677734375">
        <ele>628.4000244140625</ele>
        <time>2023-01-11T15:06:18.000Z</time>
      </trkpt>
      <trkpt lat="-49.22150119207799434661865234375" lon="-73.03832567296922206878662109375">
        <ele>629</ele>
        <time>2023-01-11T15:06:19.000Z</time>
      </trkpt>
      <trkpt lat="-49.2214954085648059844970703125" lon="-73.0383809097111225128173828125">
        <ele>628.5999755859375</ele>
        <time>2023-01-11T15:06:26.000Z</time>
      </trkpt>
      <trkpt lat="-49.22147286124527454376220703125" lon="-73.03845207206904888153076171875">
        <ele>630.79998779296875</ele>
        <time>2023-01-11T15:06:32.000Z</time>
      </trkpt>
      <trkpt lat="-49.2214630544185638427734375" lon="-73.03848342038691043853759765625">
        <ele>630.79998779296875</ele>
        <time>2023-01-11T15:06:35.000Z</time>
      </trkpt>
      <trkpt lat="-49.22145877964794635772705078125" lon="-73.0385027825832366943359375">
        <ele>629.4000244140625</ele>
        <time>2023-01-11T15:06:37.000Z</time>
      </trkpt>
      <trkpt lat="-49.221451990306377410888671875" lon="-73.03852331824600696563720703125">
        <ele>628.20001220703125</ele>
        <time>2023-01-11T15:06:41.000Z</time>
      </trkpt>
      <trkpt lat="-49.22145006246864795684814453125" lon="-73.03852616809308528900146484375">
        <ele>627.5999755859375</ele>
        <time>2023-01-11T15:06:44.000Z</time>
      </trkpt>
      <trkpt lat="-49.22144134528934955596923828125" lon="-73.03852532990276813507080078125">
        <ele>627</ele>
        <time>2023-01-11T15:06:48.000Z</time>
      </trkpt>
      <trkpt lat="-49.22143883071839809417724609375" lon="-73.03853555582463741302490234375">
        <ele>625.4000244140625</ele>
        <time>2023-01-11T15:06:51.000Z</time>
      </trkpt>
      <trkpt lat="-49.22143195755779743194580078125" lon="-73.0385483801364898681640625">
        <ele>625.4000244140625</ele>
        <time>2023-01-11T15:06:55.000Z</time>
      </trkpt>
      <trkpt lat="-49.22143195755779743194580078125" lon="-73.0385483801364898681640625">
        <ele>626.5999755859375</ele>
        <time>2023-01-11T15:06:57.000Z</time>
      </trkpt>
      <trkpt lat="-49.221414439380168914794921875" lon="-73.03862038068473339080810546875">
        <ele>627.20001220703125</ele>
        <time>2023-01-11T15:07:03.000Z</time>
      </trkpt>
      <trkpt lat="-49.2214082367718219757080078125" lon="-73.03867972455918788909912109375">
        <ele>628</ele>
        <time>2023-01-11T15:07:06.000Z</time>
      </trkpt>
      <trkpt lat="-49.22139356844127178192138671875" lon="-73.038743175566196441650390625">
        <ele>625.4000244140625</ele>
        <time>2023-01-11T15:07:11.000Z</time>
      </trkpt>
      <trkpt lat="-49.22139457426965236663818359375" lon="-73.03874351084232330322265625">
        <ele>625.4000244140625</ele>
        <time>2023-01-11T15:07:12.000Z</time>
      </trkpt>
      <trkpt lat="-49.22139356844127178192138671875" lon="-73.038762621581554412841796875">
        <ele>624.79998779296875</ele>
        <time>2023-01-11T15:07:16.000Z</time>
      </trkpt>
      <trkpt lat="-49.22138049267232418060302734375" lon="-73.03878181613981723785400390625">
        <ele>624.79998779296875</ele>
        <time>2023-01-11T15:07:21.000Z</time>
      </trkpt>
      <trkpt lat="-49.221359789371490478515625" lon="-73.03883227519690990447998046875">
        <ele>621.79998779296875</ele>
        <time>2023-01-11T15:07:26.000Z</time>
      </trkpt>
      <trkpt lat="-49.22135886736214160919189453125" lon="-73.03884635679423809051513671875">
        <ele>625.4000244140625</ele>
        <time>2023-01-11T15:07:27.000Z</time>
      </trkpt>
      <trkpt lat="-49.2213569395244121551513671875" lon="-73.03885809145867824554443359375">
        <ele>622.5999755859375</ele>
        <time>2023-01-11T15:07:28.000Z</time>
      </trkpt>
      <trkpt lat="-49.22134277410805225372314453125" lon="-73.03892950527369976043701171875">
        <ele>621.4000244140625</ele>
        <time>2023-01-11T15:07:34.000Z</time>
      </trkpt>
      <trkpt lat="-49.22134168446063995361328125" lon="-73.038950376212596893310546875">
        <ele>619.79998779296875</ele>
        <time>2023-01-11T15:07:35.000Z</time>
      </trkpt>
      <trkpt lat="-49.2213415168225765228271484375" lon="-73.03896571509540081024169921875">
        <ele>619.79998779296875</ele>
        <time>2023-01-11T15:07:36.000Z</time>
      </trkpt>
      <trkpt lat="-49.221350736916065216064453125" lon="-73.03900863043963909149169921875">
        <ele>619.79998779296875</ele>
        <time>2023-01-11T15:07:40.000Z</time>
      </trkpt>
      <trkpt lat="-49.221343696117401123046875" lon="-73.03909647278487682342529296875">
        <ele>620</ele>
        <time>2023-01-11T15:07:46.000Z</time>
      </trkpt>
      <trkpt lat="-49.2213438637554645538330078125" lon="-73.0391232110559940338134765625">
        <ele>620</ele>
        <time>2023-01-11T15:07:48.000Z</time>
      </trkpt>
      <trkpt lat="-49.2213475517928600311279296875" lon="-73.039157576858997344970703125">
        <ele>620.5999755859375</ele>
        <time>2023-01-11T15:07:51.000Z</time>
      </trkpt>
      <trkpt lat="-49.221348725259304046630859375" lon="-73.03916537202894687652587890625">
        <ele>622</ele>
        <time>2023-01-11T15:07:53.000Z</time>
      </trkpt>
      <trkpt lat="-49.221348725259304046630859375" lon="-73.039171658456325531005859375">
        <ele>622</ele>
        <time>2023-01-11T15:07:54.000Z</time>
      </trkpt>
      <trkpt lat="-49.2213539220392704010009765625" lon="-73.039213903248310089111328125">
        <ele>623.20001220703125</ele>
        <time>2023-01-11T15:07:58.000Z</time>
      </trkpt>
      <trkpt lat="-49.22135107219219207763671875" lon="-73.03924583829939365386962890625">
        <ele>624.4000244140625</ele>
        <time>2023-01-11T15:08:00.000Z</time>
      </trkpt>
      <trkpt lat="-49.22133690677583217620849609375" lon="-73.0393106304109096527099609375">
        <ele>622.4000244140625</ele>
        <time>2023-01-11T15:08:04.000Z</time>
      </trkpt>
      <trkpt lat="-49.22133338637650012969970703125" lon="-73.039338290691375732421875">
        <ele>620.5999755859375</ele>
        <time>2023-01-11T15:08:06.000Z</time>
      </trkpt>
      <trkpt lat="-49.22132533974945545196533203125" lon="-73.039386905729770660400390625">
        <ele>619.5999755859375</ele>
        <time>2023-01-11T15:08:09.000Z</time>
      </trkpt>
      <trkpt lat="-49.22132466919720172882080078125" lon="-73.03942403756082057952880859375">
        <ele>619.5999755859375</ele>
        <time>2023-01-11T15:08:12.000Z</time>
      </trkpt>
      <trkpt lat="-49.221325926482677459716796875" lon="-73.0394457466900348663330078125">
        <ele>620.5999755859375</ele>
        <time>2023-01-11T15:08:19.000Z</time>
      </trkpt>
      <trkpt lat="-49.22132651321589946746826171875" lon="-73.03944583050906658172607421875">
        <ele>621</ele>
        <time>2023-01-11T15:08:22.000Z</time>
      </trkpt>
      <trkpt lat="-49.22132383100688457489013671875" lon="-73.03944398649036884307861328125">
        <ele>621</ele>
        <time>2023-01-11T15:08:24.000Z</time>
      </trkpt>
      <trkpt lat="-49.22132316045463085174560546875" lon="-73.03944465704262256622314453125">
        <ele>620.4000244140625</ele>
        <time>2023-01-11T15:08:27.000Z</time>
      </trkpt>
      <trkpt lat="-49.22132316045463085174560546875" lon="-73.039445243775844573974609375">
        <ele>620.20001220703125</ele>
        <time>2023-01-11T15:08:38.000Z</time>
      </trkpt>
      <trkpt lat="-49.22131997533142566680908203125" lon="-73.0394496023654937744140625">
        <ele>620.5999755859375</ele>
        <time>2023-01-11T15:09:02.000Z</time>
      </trkpt>
      <trkpt lat="-49.221313856542110443115234375" lon="-73.0394496023654937744140625">
        <ele>620.5999755859375</ele>
        <time>2023-01-11T15:09:08.000Z</time>
      </trkpt>
      <trkpt lat="-49.2213128507137298583984375" lon="-73.03945320658385753631591796875">
        <ele>620.5999755859375</ele>
        <time>2023-01-11T15:09:11.000Z</time>
      </trkpt>
      <trkpt lat="-49.2212975956499576568603515625" lon="-73.039507605135440826416015625">
        <ele>620.5999755859375</ele>
        <time>2023-01-11T15:09:23.000Z</time>
      </trkpt>
      <trkpt lat="-49.221347384154796600341796875" lon="-73.039552867412567138671875">
        <ele>620.5999755859375</ele>
        <time>2023-01-11T15:09:32.000Z</time>
      </trkpt>
      <trkpt lat="-49.22138166613876819610595703125" lon="-73.03961145691573619842529296875">
        <ele>620.5999755859375</ele>
        <time>2023-01-11T15:09:39.000Z</time>
      </trkpt>
      <trkpt lat="-49.2213877849280834197998046875" lon="-73.03962059319019317626953125">
        <ele>626</ele>
        <time>2023-01-11T15:09:41.000Z</time>
      </trkpt>
      <trkpt lat="-49.22139071859419345855712890625" lon="-73.039619922637939453125">
        <ele>626.20001220703125</ele>
        <time>2023-01-11T15:09:45.000Z</time>
      </trkpt>
      <trkpt lat="-49.2213884554803371429443359375" lon="-73.03962117992341518402099609375">
        <ele>626.20001220703125</ele>
        <time>2023-01-11T15:09:46.000Z</time>
      </trkpt>
      <trkpt lat="-49.221403710544109344482421875" lon="-73.03959268145263195037841796875">
        <ele>626.20001220703125</ele>
        <time>2023-01-11T15:09:53.000Z</time>
      </trkpt>
      <trkpt lat="-49.221431203186511993408203125" lon="-73.03958698175847530364990234375">
        <ele>626.79998779296875</ele>
        <time>2023-01-11T15:09:57.000Z</time>
      </trkpt>
      <trkpt lat="-49.22145358286798000335693359375" lon="-73.03958815522491931915283203125">
        <ele>627.4000244140625</ele>
        <time>2023-01-11T15:10:00.000Z</time>
      </trkpt>
      <trkpt lat="-49.2214585281908512115478515625" lon="-73.039587400853633880615234375">
        <ele>627.4000244140625</ele>
        <time>2023-01-11T15:10:01.000Z</time>
      </trkpt>
      <trkpt lat="-49.221482835710048675537109375" lon="-73.0396150611340999603271484375">
        <ele>628.79998779296875</ele>
        <time>2023-01-11T15:10:05.000Z</time>
      </trkpt>
      <trkpt lat="-49.22149180434644222259521484375" lon="-73.03965873084962368011474609375">
        <ele>629.20001220703125</ele>
        <time>2023-01-11T15:10:09.000Z</time>
      </trkpt>
      <trkpt lat="-49.2214974202215671539306640625" lon="-73.03967147134244441986083984375">
        <ele>630.20001220703125</ele>
        <time>2023-01-11T15:10:10.000Z</time>
      </trkpt>
      <trkpt lat="-49.221514351665973663330078125" lon="-73.03969779051840305328369140625">
        <ele>630.79998779296875</ele>
        <time>2023-01-11T15:10:16.000Z</time>
      </trkpt>
      <trkpt lat="-49.22152784653007984161376953125" lon="-73.03979217074811458587646484375">
        <ele>627.79998779296875</ele>
        <time>2023-01-11T15:10:29.000Z</time>
      </trkpt>
      <trkpt lat="-49.22154796309769153594970703125" lon="-73.03984480910003185272216796875">
        <ele>627.4000244140625</ele>
        <time>2023-01-11T15:10:36.000Z</time>
      </trkpt>
      <trkpt lat="-49.221555925905704498291015625" lon="-73.03985486738383769989013671875">
        <ele>626.79998779296875</ele>
        <time>2023-01-11T15:10:38.000Z</time>
      </trkpt>
      <trkpt lat="-49.22156187705695629119873046875" lon="-73.03986006416380405426025390625">
        <ele>626.79998779296875</ele>
        <time>2023-01-11T15:10:39.000Z</time>
      </trkpt>
      <trkpt lat="-49.22158014960587024688720703125" lon="-73.03989308886229991912841796875">
        <ele>628</ele>
        <time>2023-01-11T15:10:43.000Z</time>
      </trkpt>
      <trkpt lat="-49.22158819623291492462158203125" lon="-73.03990113548934459686279296875">
        <ele>628</ele>
        <time>2023-01-11T15:10:44.000Z</time>
      </trkpt>
      <trkpt lat="-49.22159791924059391021728515625" lon="-73.03990901447832584381103515625">
        <ele>628</ele>
        <time>2023-01-11T15:10:45.000Z</time>
      </trkpt>
      <trkpt lat="-49.22163647599518299102783203125" lon="-73.03996467031538486480712890625">
        <ele>628.79998779296875</ele>
        <time>2023-01-11T15:10:52.000Z</time>
      </trkpt>
      <trkpt lat="-49.22163806855678558349609375" lon="-73.0399833619594573974609375">
        <ele>630</ele>
        <time>2023-01-11T15:10:54.000Z</time>
      </trkpt>
      <trkpt lat="-49.2216508090496063232421875" lon="-73.039989732205867767333984375">
        <ele>630.4000244140625</ele>
        <time>2023-01-11T15:10:58.000Z</time>
      </trkpt>
      <trkpt lat="-49.22168944962322711944580078125" lon="-73.03997741080820560455322265625">
        <ele>631.20001220703125</ele>
        <time>2023-01-11T15:11:03.000Z</time>
      </trkpt>
      <trkpt lat="-49.2216975800693035125732421875" lon="-73.0399821884930133819580078125">
        <ele>631.4000244140625</ele>
        <time>2023-01-11T15:11:04.000Z</time>
      </trkpt>
      <trkpt lat="-49.22171409241855144500732421875" lon="-73.03998763673007488250732421875">
        <ele>631.5999755859375</ele>
        <time>2023-01-11T15:11:06.000Z</time>
      </trkpt>
      <trkpt lat="-49.22171987593173980712890625" lon="-73.03999073803424835205078125">
        <ele>631.5999755859375</ele>
        <time>2023-01-11T15:11:07.000Z</time>
      </trkpt>
      <trkpt lat="-49.2217260785400867462158203125" lon="-73.03999518044292926788330078125">
        <ele>631.5999755859375</ele>
        <time>2023-01-11T15:11:08.000Z</time>
      </trkpt>
      <trkpt lat="-49.2217314429581165313720703125" lon="-73.040001802146434783935546875">
        <ele>631.5999755859375</ele>
        <time>2023-01-11T15:11:09.000Z</time>
      </trkpt>
      <trkpt lat="-49.22173471190035343170166015625" lon="-73.04000574164092540740966796875">
        <ele>632.5999755859375</ele>
        <time>2023-01-11T15:11:10.000Z</time>
      </trkpt>
      <trkpt lat="-49.2217428423464298248291015625" lon="-73.04001295007765293121337890625">
        <ele>633.79998779296875</ele>
        <time>2023-01-11T15:11:14.000Z</time>
      </trkpt>
      <trkpt lat="-49.22174560837447643280029296875" lon="-73.040010519325733184814453125">
        <ele>633.4000244140625</ele>
        <time>2023-01-11T15:11:16.000Z</time>
      </trkpt>
      <trkpt lat="-49.22177075408399105072021484375" lon="-73.04004547186195850372314453125">
        <ele>634.20001220703125</ele>
        <time>2023-01-11T15:11:27.000Z</time>
      </trkpt>
      <trkpt lat="-49.2218021862208843231201171875" lon="-73.04004077799618244171142578125">
        <ele>634.79998779296875</ele>
        <time>2023-01-11T15:11:33.000Z</time>
      </trkpt>
      <trkpt lat="-49.22183076851069927215576171875" lon="-73.04006005637347698211669921875">
        <ele>636</ele>
        <time>2023-01-11T15:11:37.000Z</time>
      </trkpt>
      <trkpt lat="-49.2218353785574436187744140625" lon="-73.0400660075247287750244140625">
        <ele>635.20001220703125</ele>
        <time>2023-01-11T15:11:43.000Z</time>
      </trkpt>
      <trkpt lat="-49.2218573391437530517578125" lon="-73.040119819343090057373046875">
        <ele>635.79998779296875</ele>
        <time>2023-01-11T15:11:51.000Z</time>
      </trkpt>
      <trkpt lat="-49.22189178876578807830810546875" lon="-73.040166758000850677490234375">
        <ele>635.4000244140625</ele>
        <time>2023-01-11T15:11:56.000Z</time>
      </trkpt>
      <trkpt lat="-49.22191525809466838836669921875" lon="-73.0401937477290630340576171875">
        <ele>635</ele>
        <time>2023-01-11T15:11:59.000Z</time>
      </trkpt>
      <trkpt lat="-49.22191877849400043487548828125" lon="-73.040201626718044281005859375">
        <ele>634.79998779296875</ele>
        <time>2023-01-11T15:12:01.000Z</time>
      </trkpt>
      <trkpt lat="-49.22193487174808979034423828125" lon="-73.0402100086212158203125">
        <ele>634.20001220703125</ele>
        <time>2023-01-11T15:12:04.000Z</time>
      </trkpt>
      <trkpt lat="-49.221995808184146881103515625" lon="-73.04024814628064632415771484375">
        <ele>634.4000244140625</ele>
        <time>2023-01-11T15:12:11.000Z</time>
      </trkpt>
      <trkpt lat="-49.22200410626828670501708984375" lon="-73.040259294211864471435546875">
        <ele>634.20001220703125</ele>
        <time>2023-01-11T15:12:12.000Z</time>
      </trkpt>
      <trkpt lat="-49.22205037437379360198974609375" lon="-73.0402822606265544891357421875">
        <ele>634</ele>
        <time>2023-01-11T15:12:17.000Z</time>
      </trkpt>
      <trkpt lat="-49.22207920812070369720458984375" lon="-73.040322996675968170166015625">
        <ele>634</ele>
        <time>2023-01-11T15:12:21.000Z</time>
      </trkpt>
      <trkpt lat="-49.22209781594574451446533203125" lon="-73.04034923203289508819580078125">
        <ele>634</ele>
        <time>2023-01-11T15:12:23.000Z</time>
      </trkpt>
      <trkpt lat="-49.2221059463918209075927734375" lon="-73.04037203080952167510986328125">
        <ele>633.5999755859375</ele>
        <time>2023-01-11T15:12:25.000Z</time>
      </trkpt>
      <trkpt lat="-49.22210837714374065399169921875" lon="-73.0403905548155307769775390625">
        <ele>632.5999755859375</ele>
        <time>2023-01-11T15:12:27.000Z</time>
      </trkpt>
      <trkpt lat="-49.22211072407662868499755859375" lon="-73.04041729308664798736572265625">
        <ele>632.5999755859375</ele>
        <time>2023-01-11T15:12:29.000Z</time>
      </trkpt>
      <trkpt lat="-49.2221274040639400482177734375" lon="-73.040459454059600830078125">
        <ele>631.5999755859375</ele>
        <time>2023-01-11T15:12:33.000Z</time>
      </trkpt>
      <trkpt lat="-49.2221324332058429718017578125" lon="-73.04046305827796459197998046875">
        <ele>631.5999755859375</ele>
        <time>2023-01-11T15:12:34.000Z</time>
      </trkpt>
      <trkpt lat="-49.22214861027896404266357421875" lon="-73.04048736579716205596923828125">
        <ele>631.5999755859375</ele>
        <time>2023-01-11T15:12:36.000Z</time>
      </trkpt>
      <trkpt lat="-49.22217316925525665283203125" lon="-73.0405719392001628875732421875">
        <ele>630.4000244140625</ele>
        <time>2023-01-11T15:12:42.000Z</time>
      </trkpt>
      <trkpt lat="-49.22217861749231815338134765625" lon="-73.0405826680362224578857421875">
        <ele>629.5999755859375</ele>
        <time>2023-01-11T15:12:43.000Z</time>
      </trkpt>
      <trkpt lat="-49.222185909748077392578125" lon="-73.04059264250099658966064453125">
        <ele>629.5999755859375</ele>
        <time>2023-01-11T15:12:44.000Z</time>
      </trkpt>
      <trkpt lat="-49.2221988178789615631103515625" lon="-73.0406044609844684600830078125">
        <ele>629.4000244140625</ele>
        <time>2023-01-11T15:12:45.000Z</time>
      </trkpt>
      <trkpt lat="-49.222223795950412750244140625" lon="-73.04063941352069377899169921875">
        <ele>628.5999755859375</ele>
        <time>2023-01-11T15:12:48.000Z</time>
      </trkpt>
      <trkpt lat="-49.2222330160439014434814453125" lon="-73.04066623561084270477294921875">
        <ele>628.5999755859375</ele>
        <time>2023-01-11T15:12:50.000Z</time>
      </trkpt>
      <trkpt lat="-49.2222437448799610137939453125" lon="-73.04068886674940586090087890625">
        <ele>628.5999755859375</ele>
        <time>2023-01-11T15:12:52.000Z</time>
      </trkpt>
      <trkpt lat="-49.2222896777093410491943359375" lon="-73.0407477915287017822265625">
        <ele>629.20001220703125</ele>
        <time>2023-01-11T15:12:58.000Z</time>
      </trkpt>
      <trkpt lat="-49.22230736352503299713134765625" lon="-73.04076748900115489959716796875">
        <ele>628.79998779296875</ele>
        <time>2023-01-11T15:13:00.000Z</time>
      </trkpt>
      <trkpt lat="-49.22231524251401424407958984375" lon="-73.04078039713203907012939453125">
        <ele>628.79998779296875</ele>
        <time>2023-01-11T15:13:01.000Z</time>
      </trkpt>
      <trkpt lat="-49.2223158292472362518310546875" lon="-73.040792383253574371337890625">
        <ele>628.5999755859375</ele>
        <time>2023-01-11T15:13:02.000Z</time>
      </trkpt>
      <trkpt lat="-49.2223148234188556671142578125" lon="-73.04080487228929996490478515625">
        <ele>628.20001220703125</ele>
        <time>2023-01-11T15:13:03.000Z</time>
      </trkpt>
      <trkpt lat="-49.2223108001053333282470703125" lon="-73.0408173613250255584716796875">
        <ele>628.20001220703125</ele>
        <time>2023-01-11T15:13:04.000Z</time>
      </trkpt>
      <trkpt lat="-49.22233141958713531494140625" lon="-73.04085365496575832366943359375">
        <ele>628.4000244140625</ele>
        <time>2023-01-11T15:13:10.000Z</time>
      </trkpt>
      <trkpt lat="-49.22236218117177486419677734375" lon="-73.0408777110278606414794921875">
        <ele>628.79998779296875</ele>
        <time>2023-01-11T15:13:14.000Z</time>
      </trkpt>
      <trkpt lat="-49.2223751731216907501220703125" lon="-73.04089690558612346649169921875">
        <ele>628.79998779296875</ele>
        <time>2023-01-11T15:13:17.000Z</time>
      </trkpt>
      <trkpt lat="-49.22238732688128948211669921875" lon="-73.040915094316005706787109375">
        <ele>628.79998779296875</ele>
        <time>2023-01-11T15:13:19.000Z</time>
      </trkpt>
      <trkpt lat="-49.22239084728062152862548828125" lon="-73.04092490114271640777587890625">
        <ele>628.79998779296875</ele>
        <time>2023-01-11T15:13:20.000Z</time>
      </trkpt>
      <trkpt lat="-49.22239738516509532928466796875" lon="-73.0409382283687591552734375">
        <ele>628.79998779296875</ele>
        <time>2023-01-11T15:13:21.000Z</time>
      </trkpt>
      <trkpt lat="-49.22242051921784877777099609375" lon="-73.040960021317005157470703125">
        <ele>629</ele>
        <time>2023-01-11T15:13:26.000Z</time>
      </trkpt>
      <trkpt lat="-49.22237944789230823516845703125" lon="-73.04093328304588794708251953125">
        <ele>629</ele>
        <time>2023-01-11T15:13:31.000Z</time>
      </trkpt>
      <trkpt lat="-49.22238816507160663604736328125" lon="-73.04095155559480190277099609375">
        <ele>629</ele>
        <time>2023-01-11T15:13:33.000Z</time>
      </trkpt>
      <trkpt lat="-49.2223999835550785064697265625" lon="-73.04097921587526798248291015625">
        <ele>629.4000244140625</ele>
        <time>2023-01-11T15:13:36.000Z</time>
      </trkpt>
      <trkpt lat="-49.22242655418813228607177734375" lon="-73.04102028720080852508544921875">
        <ele>629.79998779296875</ele>
        <time>2023-01-11T15:13:40.000Z</time>
      </trkpt>
      <trkpt lat="-49.222443066537380218505859375" lon="-73.04111148230731487274169921875">
        <ele>630</ele>
        <time>2023-01-11T15:13:47.000Z</time>
      </trkpt>
      <trkpt lat="-49.2224393784999847412109375" lon="-73.041126318275928497314453125">
        <ele>630</ele>
        <time>2023-01-11T15:13:48.000Z</time>
      </trkpt>
      <trkpt lat="-49.22244784422218799591064453125" lon="-73.04119228385388851165771484375">
        <ele>629.79998779296875</ele>
        <time>2023-01-11T15:13:53.000Z</time>
      </trkpt>
      <trkpt lat="-49.22244281508028507232666015625" lon="-73.04127157665789127349853515625">
        <ele>630.5999755859375</ele>
        <time>2023-01-11T15:13:59.000Z</time>
      </trkpt>
      <trkpt lat="-49.2224355228245258331298828125" lon="-73.041296303272247314453125">
        <ele>631</ele>
        <time>2023-01-11T15:14:02.000Z</time>
      </trkpt>
      <trkpt lat="-49.22242353670299053192138671875" lon="-73.041332848370075225830078125">
        <ele>631.5999755859375</ele>
        <time>2023-01-11T15:14:05.000Z</time>
      </trkpt>
      <trkpt lat="-49.22240174375474452972412109375" lon="-73.04139998741447925567626953125">
        <ele>634.20001220703125</ele>
        <time>2023-01-11T15:14:11.000Z</time>
      </trkpt>
      <trkpt lat="-49.222400486469268798828125" lon="-73.04141457192599773406982421875">
        <ele>634.20001220703125</ele>
        <time>2023-01-11T15:14:12.000Z</time>
      </trkpt>
      <trkpt lat="-49.22241666354238986968994140625" lon="-73.0414912663400173187255859375">
        <ele>633.5999755859375</ele>
        <time>2023-01-11T15:14:18.000Z</time>
      </trkpt>
      <trkpt lat="-49.22241129912436008453369140625" lon="-73.04152655415236949920654296875">
        <ele>633.79998779296875</ele>
        <time>2023-01-11T15:14:20.000Z</time>
      </trkpt>
      <trkpt lat="-49.222384728491306304931640625" lon="-73.0416247062385082244873046875">
        <ele>633.5999755859375</ele>
        <time>2023-01-11T15:14:28.000Z</time>
      </trkpt>
      <trkpt lat="-49.22237156890332698822021484375" lon="-73.04161841981112957000732421875">
        <ele>633.20001220703125</ele>
        <time>2023-01-11T15:14:30.000Z</time>
      </trkpt>
      <trkpt lat="-49.22235430218279361724853515625" lon="-73.04162956774234771728515625">
        <ele>633.4000244140625</ele>
        <time>2023-01-11T15:14:37.000Z</time>
      </trkpt>
      <trkpt lat="-49.222329743206501007080078125" lon="-73.041698634624481201171875">
        <ele>634</ele>
        <time>2023-01-11T15:14:43.000Z</time>
      </trkpt>
      <trkpt lat="-49.2223305813968181610107421875" lon="-73.04172051139175891876220703125">
        <ele>634</ele>
        <time>2023-01-11T15:14:45.000Z</time>
      </trkpt>
      <trkpt lat="-49.22231876291334629058837890625" lon="-73.04174582473933696746826171875">
        <ele>634.79998779296875</ele>
        <time>2023-01-11T15:14:47.000Z</time>
      </trkpt>
      <trkpt lat="-49.22231256030499935150146484375" lon="-73.0417611636221408843994140625">
        <ele>634.79998779296875</ele>
        <time>2023-01-11T15:14:48.000Z</time>
      </trkpt>
      <trkpt lat="-49.22231197357177734375" lon="-73.0417819507420063018798828125">
        <ele>633.5999755859375</ele>
        <time>2023-01-11T15:14:50.000Z</time>
      </trkpt>
      <trkpt lat="-49.22231130301952362060546875" lon="-73.0417977087199687957763671875">
        <ele>633.5999755859375</ele>
        <time>2023-01-11T15:14:51.000Z</time>
      </trkpt>
      <trkpt lat="-49.22230937518179416656494140625" lon="-73.04182712920010089874267578125">
        <ele>632.5999755859375</ele>
        <time>2023-01-11T15:14:53.000Z</time>
      </trkpt>
      <trkpt lat="-49.2222913540899753570556640625" lon="-73.04185881279408931732177734375">
        <ele>632.5999755859375</ele>
        <time>2023-01-11T15:14:55.000Z</time>
      </trkpt>
      <trkpt lat="-49.22228305600583553314208984375" lon="-73.04187121801078319549560546875">
        <ele>632.5999755859375</ele>
        <time>2023-01-11T15:14:56.000Z</time>
      </trkpt>
      <trkpt lat="-49.22228707931935787200927734375" lon="-73.04186836816370487213134765625">
        <ele>633.79998779296875</ele>
        <time>2023-01-11T15:15:00.000Z</time>
      </trkpt>
      <trkpt lat="-49.2222913540899753570556640625" lon="-73.0418624170124530792236328125">
        <ele>633.79998779296875</ele>
        <time>2023-01-11T15:15:06.000Z</time>
      </trkpt>
      <trkpt lat="-49.22229579649865627288818359375" lon="-73.04189451970160007476806640625">
        <ele>633.5999755859375</ele>
        <time>2023-01-11T15:15:10.000Z</time>
      </trkpt>
      <trkpt lat="-49.22229579649865627288818359375" lon="-73.04188496433198451995849609375">
        <ele>633.79998779296875</ele>
        <time>2023-01-11T15:15:22.000Z</time>
      </trkpt>
      <trkpt lat="-49.22229043208062648773193359375" lon="-73.04187574423849582672119140625">
        <ele>634</ele>
        <time>2023-01-11T15:15:28.000Z</time>
      </trkpt>
      <trkpt lat="-49.22228909097611904144287109375" lon="-73.0418741516768932342529296875">
        <ele>633.79998779296875</ele>
        <time>2023-01-11T15:15:30.000Z</time>
      </trkpt>
      <trkpt lat="-49.22228741459548473358154296875" lon="-73.04187457077205181121826171875">
        <ele>633.4000244140625</ele>
        <time>2023-01-11T15:15:33.000Z</time>
      </trkpt>
      <trkpt lat="-49.2222658731043338775634765625" lon="-73.04195218719542026519775390625">
        <ele>633.5999755859375</ele>
        <time>2023-01-11T15:15:41.000Z</time>
      </trkpt>
      <trkpt lat="-49.22224827110767364501953125" lon="-73.04204707033932209014892578125">
        <ele>632.5999755859375</ele>
        <time>2023-01-11T15:15:47.000Z</time>
      </trkpt>
      <trkpt lat="-49.2222095467150211334228515625" lon="-73.04212887771427631378173828125">
        <ele>632.20001220703125</ele>
        <time>2023-01-11T15:15:53.000Z</time>
      </trkpt>
      <trkpt lat="-49.2221952974796295166015625" lon="-73.042150251567363739013671875">
        <ele>632.5999755859375</ele>
        <time>2023-01-11T15:15:55.000Z</time>
      </trkpt>
      <trkpt lat="-49.22219957225024700164794921875" lon="-73.0422154627740383148193359375">
        <ele>632.20001220703125</ele>
        <time>2023-01-11T15:15:59.000Z</time>
      </trkpt>
      <trkpt lat="-49.22218079678714275360107421875" lon="-73.0422835238277912139892578125">
        <ele>631.4000244140625</ele>
        <time>2023-01-11T15:16:03.000Z</time>
      </trkpt>
      <trkpt lat="-49.22217660583555698394775390625" lon="-73.04231914691627025604248046875">
        <ele>630.4000244140625</ele>
        <time>2023-01-11T15:16:06.000Z</time>
      </trkpt>
      <trkpt lat="-49.22216202132403850555419921875" lon="-73.04237195290625095367431640625">
        <ele>630</ele>
        <time>2023-01-11T15:16:09.000Z</time>
      </trkpt>
      <trkpt lat="-49.22210971824824810028076171875" lon="-73.04248812608420848846435546875">
        <ele>629.5999755859375</ele>
        <time>2023-01-11T15:16:16.000Z</time>
      </trkpt>
      <trkpt lat="-49.2220885120332241058349609375" lon="-73.04260329343378543853759765625">
        <ele>631</ele>
        <time>2023-01-11T15:16:24.000Z</time>
      </trkpt>
      <trkpt lat="-49.2220838181674480438232421875" lon="-73.042618297040462493896484375">
        <ele>631.5999755859375</ele>
        <time>2023-01-11T15:16:25.000Z</time>
      </trkpt>
      <trkpt lat="-49.22202791087329387664794921875" lon="-73.0426865257322788238525390625">
        <ele>632.20001220703125</ele>
        <time>2023-01-11T15:16:31.000Z</time>
      </trkpt>
      <trkpt lat="-49.22198868356645107269287109375" lon="-73.04272986017167568206787109375">
        <ele>630.4000244140625</ele>
        <time>2023-01-11T15:16:36.000Z</time>
      </trkpt>
      <trkpt lat="-49.2219852469861507415771484375" lon="-73.04274377413094043731689453125">
        <ele>629.20001220703125</ele>
        <time>2023-01-11T15:16:38.000Z</time>
      </trkpt>
      <trkpt lat="-49.22198063693940639495849609375" lon="-73.04273773916065692901611328125">
        <ele>629</ele>
        <time>2023-01-11T15:16:40.000Z</time>
      </trkpt>
      <trkpt lat="-49.2219726741313934326171875" lon="-73.0427420139312744140625">
        <ele>629</ele>
        <time>2023-01-11T15:16:43.000Z</time>
      </trkpt>
      <trkpt lat="-49.2219654656946659088134765625" lon="-73.04276389069855213165283203125">
        <ele>629.5999755859375</ele>
        <time>2023-01-11T15:16:46.000Z</time>
      </trkpt>
      <trkpt lat="-49.2219538986682891845703125" lon="-73.04276757873594760894775390625">
        <ele>629.5999755859375</ele>
        <time>2023-01-11T15:16:47.000Z</time>
      </trkpt>
      <trkpt lat="-49.22194928862154483795166015625" lon="-73.0427567660808563232421875">
        <ele>629.79998779296875</ele>
        <time>2023-01-11T15:16:49.000Z</time>
      </trkpt>
      <trkpt lat="-49.22194291837513446807861328125" lon="-73.04276020266115665435791015625">
        <ele>629.5999755859375</ele>
        <time>2023-01-11T15:16:53.000Z</time>
      </trkpt>
      <trkpt lat="-49.22194174490869045257568359375" lon="-73.042758442461490631103515625">
        <ele>629.79998779296875</ele>
        <time>2023-01-11T15:17:04.000Z</time>
      </trkpt>
      <trkpt lat="-49.22193638049066066741943359375" lon="-73.04278870113193988800048828125">
        <ele>628.20001220703125</ele>
        <time>2023-01-11T15:17:06.000Z</time>
      </trkpt>
      <trkpt lat="-49.22193420119583606719970703125" lon="-73.0428645573556423187255859375">
        <ele>627.5999755859375</ele>
        <time>2023-01-11T15:17:09.000Z</time>
      </trkpt>
      <trkpt lat="-49.22192213125526905059814453125" lon="-73.04290621541440486907958984375">
        <ele>627.5999755859375</ele>
        <time>2023-01-11T15:17:11.000Z</time>
      </trkpt>
      <trkpt lat="-49.2219150066375732421875" lon="-73.04295784793794155120849609375">
        <ele>627.5999755859375</ele>
        <time>2023-01-11T15:17:14.000Z</time>
      </trkpt>
      <trkpt lat="-49.22190402634441852569580078125" lon="-73.042982406914234161376953125">
        <ele>627.5999755859375</ele>
        <time>2023-01-11T15:17:20.000Z</time>
      </trkpt>
      <trkpt lat="-49.2218963988125324249267578125" lon="-73.04306563921272754669189453125">
        <ele>629</ele>
        <time>2023-01-11T15:17:27.000Z</time>
      </trkpt>
      <trkpt lat="-49.22189782373607158660888671875" lon="-73.04309631697833538055419921875">
        <ele>629</ele>
        <time>2023-01-11T15:17:29.000Z</time>
      </trkpt>
      <trkpt lat="-49.221894554793834686279296875" lon="-73.04315716959536075592041015625">
        <ele>628</ele>
        <time>2023-01-11T15:17:34.000Z</time>
      </trkpt>
      <trkpt lat="-49.22191274352371692657470703125" lon="-73.04321986623108386993408203125">
        <ele>627.4000244140625</ele>
        <time>2023-01-11T15:17:38.000Z</time>
      </trkpt>
      <trkpt lat="-49.2219081334769725799560546875" lon="-73.04325775243341922760009765625">
        <ele>627.4000244140625</ele>
        <time>2023-01-11T15:17:42.000Z</time>
      </trkpt>
      <trkpt lat="-49.22189346514642238616943359375" lon="-73.04326982237398624420166015625">
        <ele>626.20001220703125</ele>
        <time>2023-01-11T15:17:44.000Z</time>
      </trkpt>
      <trkpt lat="-49.22189078293740749359130859375" lon="-73.04326948709785938262939453125">
        <ele>626</ele>
        <time>2023-01-11T15:17:45.000Z</time>
      </trkpt>
      <trkpt lat="-49.22187385149300098419189453125" lon="-73.04327200166881084442138671875">
        <ele>625.5999755859375</ele>
        <time>2023-01-11T15:17:50.000Z</time>
      </trkpt>
      <trkpt lat="-49.22186379320919513702392578125" lon="-73.04334425367414951324462890625">
        <ele>625.20001220703125</ele>
        <time>2023-01-11T15:17:58.000Z</time>
      </trkpt>
      <trkpt lat="-49.22186144627630710601806640625" lon="-73.04337912239134311676025390625">
        <ele>625</ele>
        <time>2023-01-11T15:18:00.000Z</time>
      </trkpt>
      <trkpt lat="-49.22186379320919513702392578125" lon="-73.0434046871960163116455078125">
        <ele>624.79998779296875</ele>
        <time>2023-01-11T15:18:01.000Z</time>
      </trkpt>
      <trkpt lat="-49.2218588478863239288330078125" lon="-73.0434207804501056671142578125">
        <ele>624.79998779296875</ele>
        <time>2023-01-11T15:18:02.000Z</time>
      </trkpt>
      <trkpt lat="-49.2218679003417491912841796875" lon="-73.04347492754459381103515625">
        <ele>624.4000244140625</ele>
        <time>2023-01-11T15:18:06.000Z</time>
      </trkpt>
      <trkpt lat="-49.2218652181327342987060546875" lon="-73.0435022525489330291748046875">
        <ele>624</ele>
        <time>2023-01-11T15:18:08.000Z</time>
      </trkpt>
      <trkpt lat="-49.22186312265694141387939453125" lon="-73.043583892285823822021484375">
        <ele>623.20001220703125</ele>
        <time>2023-01-11T15:18:12.000Z</time>
      </trkpt>
      <trkpt lat="-49.2218601889908313751220703125" lon="-73.04359696805477142333984375">
        <ele>623</ele>
        <time>2023-01-11T15:18:13.000Z</time>
      </trkpt>
      <trkpt lat="-49.22185792587697505950927734375" lon="-73.04361247457563877105712890625">
        <ele>623</ele>
        <time>2023-01-11T15:18:14.000Z</time>
      </trkpt>
      <trkpt lat="-49.22185658477246761322021484375" lon="-73.04362605325877666473388671875">
        <ele>623</ele>
        <time>2023-01-11T15:18:15.000Z</time>
      </trkpt>
      <trkpt lat="-49.22183655202388763427734375" lon="-73.0436839722096920013427734375">
        <ele>622</ele>
        <time>2023-01-11T15:18:19.000Z</time>
      </trkpt>
      <trkpt lat="-49.2218224704265594482421875" lon="-73.0436993949115276336669921875">
        <ele>622</ele>
        <time>2023-01-11T15:18:22.000Z</time>
      </trkpt>
      <trkpt lat="-49.22180235385894775390625" lon="-73.043787740170955657958984375">
        <ele>622</ele>
        <time>2023-01-11T15:18:28.000Z</time>
      </trkpt>
      <trkpt lat="-49.2217971570789813995361328125" lon="-73.04380224086344242095947265625">
        <ele>622</ele>
        <time>2023-01-11T15:18:29.000Z</time>
      </trkpt>
      <trkpt lat="-49.221788607537746429443359375" lon="-73.04382738657295703887939453125">
        <ele>622</ele>
        <time>2023-01-11T15:18:31.000Z</time>
      </trkpt>
      <trkpt lat="-49.2217773757874965667724609375" lon="-73.0439047515392303466796875">
        <ele>622.4000244140625</ele>
        <time>2023-01-11T15:18:36.000Z</time>
      </trkpt>
      <trkpt lat="-49.22177595086395740509033203125" lon="-73.04392310790717601776123046875">
        <ele>622.4000244140625</ele>
        <time>2023-01-11T15:18:37.000Z</time>
      </trkpt>
      <trkpt lat="-49.22178022563457489013671875" lon="-73.04407532326877117156982421875">
        <ele>623.5999755859375</ele>
        <time>2023-01-11T15:18:48.000Z</time>
      </trkpt>
      <trkpt lat="-49.221751056611537933349609375" lon="-73.0441246926784515380859375">
        <ele>624.20001220703125</ele>
        <time>2023-01-11T15:18:56.000Z</time>
      </trkpt>
      <trkpt lat="-49.22173655591905117034912109375" lon="-73.04414086975157260894775390625">
        <ele>625.4000244140625</ele>
        <time>2023-01-11T15:18:58.000Z</time>
      </trkpt>
      <trkpt lat="-49.2217301018536090850830078125" lon="-73.0441513471305370330810546875">
        <ele>625.4000244140625</ele>
        <time>2023-01-11T15:18:59.000Z</time>
      </trkpt>
      <trkpt lat="-49.2217150144279003143310546875" lon="-73.04417456500232219696044921875">
        <ele>626.20001220703125</ele>
        <time>2023-01-11T15:19:01.000Z</time>
      </trkpt>
      <trkpt lat="-49.22171057201921939849853515625" lon="-73.04418613202869892120361328125">
        <ele>626.20001220703125</ele>
        <time>2023-01-11T15:19:02.000Z</time>
      </trkpt>
      <trkpt lat="-49.22169062308967113494873046875" lon="-73.04422468878328800201416015625">
        <ele>624</ele>
        <time>2023-01-11T15:19:05.000Z</time>
      </trkpt>
      <trkpt lat="-49.2216722667217254638671875" lon="-73.04424262605607509613037109375">
        <ele>623.5999755859375</ele>
        <time>2023-01-11T15:19:08.000Z</time>
      </trkpt>
      <trkpt lat="-49.22162842936813831329345703125" lon="-73.04426877759397029876708984375">
        <ele>624.20001220703125</ele>
        <time>2023-01-11T15:19:15.000Z</time>
      </trkpt>
      <trkpt lat="-49.22160563059151172637939453125" lon="-73.04427179507911205291748046875">
        <ele>627.79998779296875</ele>
        <time>2023-01-11T15:19:22.000Z</time>
      </trkpt>
      <trkpt lat="-49.22157394699752330780029296875" lon="-73.04424966685473918914794921875">
        <ele>626.79998779296875</ele>
        <time>2023-01-11T15:19:29.000Z</time>
      </trkpt>
      <trkpt lat="-49.22158333472907543182373046875" lon="-73.04425268433988094329833984375">
        <ele>627.79998779296875</ele>
        <time>2023-01-11T15:19:31.000Z</time>
      </trkpt>
      <trkpt lat="-49.2215762101113796234130859375" lon="-73.04427900351583957672119140625">
        <ele>628.4000244140625</ele>
        <time>2023-01-11T15:19:39.000Z</time>
      </trkpt>
      <trkpt lat="-49.2215762101113796234130859375" lon="-73.04427900351583957672119140625">
        <ele>626.5999755859375</ele>
        <time>2023-01-11T15:19:45.000Z</time>
      </trkpt>
      <trkpt lat="-49.2215762101113796234130859375" lon="-73.04427900351583957672119140625">
        <ele>624</ele>
        <time>2023-01-11T15:19:49.000Z</time>
      </trkpt>
      <trkpt lat="-49.2215622961521148681640625" lon="-73.0443102680146694183349609375">
        <ele>623.4000244140625</ele>
        <time>2023-01-11T15:19:59.000Z</time>
      </trkpt>
      <trkpt lat="-49.2215542495250701904296875" lon="-73.0443243496119976043701171875">
        <ele>622.20001220703125</ele>
        <time>2023-01-11T15:20:03.000Z</time>
      </trkpt>
      <trkpt lat="-49.22155332751572132110595703125" lon="-73.04432460106909275054931640625">
        <ele>622.20001220703125</ele>
        <time>2023-01-11T15:20:04.000Z</time>
      </trkpt>
      <trkpt lat="-49.2215487174689769744873046875" lon="-73.04434253834187984466552734375">
        <ele>621.79998779296875</ele>
        <time>2023-01-11T15:20:10.000Z</time>
      </trkpt>
      <trkpt lat="-49.22154528088867664337158203125" lon="-73.04435226134955883026123046875">
        <ele>620.5999755859375</ele>
        <time>2023-01-11T15:20:12.000Z</time>
      </trkpt>
      <trkpt lat="-49.2215435206890106201171875" lon="-73.04435293190181255340576171875">
        <ele>620.5999755859375</ele>
        <time>2023-01-11T15:20:13.000Z</time>
      </trkpt>
      <trkpt lat="-49.2215376533567905426025390625" lon="-73.0443553626537322998046875">
        <ele>622</ele>
        <time>2023-01-11T15:20:15.000Z</time>
      </trkpt>
      <trkpt lat="-49.22153689898550510406494140625" lon="-73.04435561411082744598388671875">
        <ele>620.5999755859375</ele>
        <time>2023-01-11T15:20:16.000Z</time>
      </trkpt>
      <trkpt lat="-49.2215299420058727264404296875" lon="-73.0443572066724300384521484375">
        <ele>622.4000244140625</ele>
        <time>2023-01-11T15:20:19.000Z</time>
      </trkpt>
      <trkpt lat="-49.22152918763458728790283203125" lon="-73.04435829631984233856201171875">
        <ele>620.79998779296875</ele>
        <time>2023-01-11T15:20:20.000Z</time>
      </trkpt>
      <trkpt lat="-49.221525080502033233642578125" lon="-73.04436651058495044708251953125">
        <ele>619.4000244140625</ele>
        <time>2023-01-11T15:20:24.000Z</time>
      </trkpt>
      <trkpt lat="-49.2214940674602985382080078125" lon="-73.04440339095890522003173828125">
        <ele>619.20001220703125</ele>
        <time>2023-01-11T15:20:26.000Z</time>
      </trkpt>
      <trkpt lat="-49.2214833386242389678955078125" lon="-73.0444229207932949066162109375">
        <ele>619.20001220703125</ele>
        <time>2023-01-11T15:20:28.000Z</time>
      </trkpt>
      <trkpt lat="-49.2214789800345897674560546875" lon="-73.04443423636257648468017578125">
        <ele>619.20001220703125</ele>
        <time>2023-01-11T15:20:29.000Z</time>
      </trkpt>
      <trkpt lat="-49.22142751514911651611328125" lon="-73.0444963462650775909423828125">
        <ele>618.20001220703125</ele>
        <time>2023-01-11T15:20:33.000Z</time>
      </trkpt>
      <trkpt lat="-49.2214276827871799468994140625" lon="-73.04452023468911647796630859375">
        <ele>617</ele>
        <time>2023-01-11T15:20:35.000Z</time>
      </trkpt>
      <trkpt lat="-49.2214415967464447021484375" lon="-73.044563569128513336181640625">
        <ele>615.79998779296875</ele>
        <time>2023-01-11T15:20:40.000Z</time>
      </trkpt>
      <trkpt lat="-49.22144201584160327911376953125" lon="-73.04456432349979877471923828125">
        <ele>615.79998779296875</ele>
        <time>2023-01-11T15:20:42.000Z</time>
      </trkpt>
      <trkpt lat="-49.2214669100940227508544921875" lon="-73.0445815064013004302978515625">
        <ele>616.20001220703125</ele>
        <time>2023-01-11T15:20:46.000Z</time>
      </trkpt>
      <trkpt lat="-49.22147939912974834442138671875" lon="-73.0446079932153224945068359375">
        <ele>616</ele>
        <time>2023-01-11T15:20:48.000Z</time>
      </trkpt>
      <trkpt lat="-49.22148006968200206756591796875" lon="-73.04461796768009662628173828125">
        <ele>615.5999755859375</ele>
        <time>2023-01-11T15:20:49.000Z</time>
      </trkpt>
      <trkpt lat="-49.22148107551038265228271484375" lon="-73.04462215863168239593505859375">
        <ele>614.20001220703125</ele>
        <time>2023-01-11T15:20:50.000Z</time>
      </trkpt>
      <trkpt lat="-49.2214818298816680908203125" lon="-73.044647388160228729248046875">
        <ele>613.5999755859375</ele>
        <time>2023-01-11T15:20:53.000Z</time>
      </trkpt>
      <trkpt lat="-49.221474789083003997802734375" lon="-73.0447122640907764434814453125">
        <ele>613.20001220703125</ele>
        <time>2023-01-11T15:20:57.000Z</time>
      </trkpt>
      <trkpt lat="-49.22146833501756191253662109375" lon="-73.04473950527608394622802734375">
        <ele>613</ele>
        <time>2023-01-11T15:20:59.000Z</time>
      </trkpt>
      <trkpt lat="-49.22146531753242015838623046875" lon="-73.04479591548442840576171875">
        <ele>613</ele>
        <time>2023-01-11T15:21:03.000Z</time>
      </trkpt>
      <trkpt lat="-49.22146246768534183502197265625" lon="-73.0448220670223236083984375">
        <ele>613.20001220703125</ele>
        <time>2023-01-11T15:21:05.000Z</time>
      </trkpt>
      <trkpt lat="-49.22146280296146869659423828125" lon="-73.0448332987725734710693359375">
        <ele>613.20001220703125</ele>
        <time>2023-01-11T15:21:06.000Z</time>
      </trkpt>
      <trkpt lat="-49.2214635573327541351318359375" lon="-73.04485903121531009674072265625">
        <ele>613.5999755859375</ele>
        <time>2023-01-11T15:21:08.000Z</time>
      </trkpt>
      <trkpt lat="-49.22145626507699489593505859375" lon="-73.04490412585437297821044921875">
        <ele>612.5999755859375</ele>
        <time>2023-01-11T15:21:12.000Z</time>
      </trkpt>
      <trkpt lat="-49.2214548401534557342529296875" lon="-73.04491460323333740234375">
        <ele>612</ele>
        <time>2023-01-11T15:21:13.000Z</time>
      </trkpt>
      <trkpt lat="-49.2214420996606349945068359375" lon="-73.04493346251547336578369140625">
        <ele>612.4000244140625</ele>
        <time>2023-01-11T15:21:15.000Z</time>
      </trkpt>
      <trkpt lat="-49.22141888178884983062744140625" lon="-73.04501946084201335906982421875">
        <ele>612.4000244140625</ele>
        <time>2023-01-11T15:21:22.000Z</time>
      </trkpt>
      <trkpt lat="-49.22141334973275661468505859375" lon="-73.04503002204000949859619140625">
        <ele>612.4000244140625</ele>
        <time>2023-01-11T15:21:23.000Z</time>
      </trkpt>
      <trkpt lat="-49.2213747091591358184814453125" lon="-73.04506237618625164031982421875">
        <ele>611</ele>
        <time>2023-01-11T15:21:27.000Z</time>
      </trkpt>
      <trkpt lat="-49.221331961452960968017578125" lon="-73.04504443891346454620361328125">
        <ele>610.5999755859375</ele>
        <time>2023-01-11T15:21:32.000Z</time>
      </trkpt>
      <trkpt lat="-49.22131813131272792816162109375" lon="-73.045056425034999847412109375">
        <ele>610</ele>
        <time>2023-01-11T15:21:34.000Z</time>
      </trkpt>
      <trkpt lat="-49.22129365615546703338623046875" lon="-73.0450884439051151275634765625">
        <ele>609.4000244140625</ele>
        <time>2023-01-11T15:21:38.000Z</time>
      </trkpt>
      <trkpt lat="-49.22128125093877315521240234375" lon="-73.045100010931491851806640625">
        <ele>608.79998779296875</ele>
        <time>2023-01-11T15:21:40.000Z</time>
      </trkpt>
      <trkpt lat="-49.22125141136348247528076171875" lon="-73.045093975961208343505859375">
        <ele>608.4000244140625</ele>
        <time>2023-01-11T15:21:45.000Z</time>
      </trkpt>
      <trkpt lat="-49.22123984433710575103759765625" lon="-73.04509959183633327484130859375">
        <ele>607.5999755859375</ele>
        <time>2023-01-11T15:21:47.000Z</time>
      </trkpt>
      <trkpt lat="-49.22119860537350177764892578125" lon="-73.04512021131813526153564453125">
        <ele>606.5999755859375</ele>
        <time>2023-01-11T15:21:53.000Z</time>
      </trkpt>
      <trkpt lat="-49.2211933247745037078857421875" lon="-73.0451333709061145782470703125">
        <ele>606.4000244140625</ele>
        <time>2023-01-11T15:21:54.000Z</time>
      </trkpt>
      <trkpt lat="-49.221169687807559967041015625" lon="-73.0452141724526882171630859375">
        <ele>606.20001220703125</ele>
        <time>2023-01-11T15:22:00.000Z</time>
      </trkpt>
      <trkpt lat="-49.22110590152442455291748046875" lon="-73.04530796594917774200439453125">
        <ele>606.20001220703125</ele>
        <time>2023-01-11T15:22:09.000Z</time>
      </trkpt>
      <trkpt lat="-49.22110430896282196044921875" lon="-73.0453719198703765869140625">
        <ele>607.20001220703125</ele>
        <time>2023-01-11T15:22:16.000Z</time>
      </trkpt>
      <trkpt lat="-49.2210850305855274200439453125" lon="-73.04548524320125579833984375">
        <ele>607</ele>
        <time>2023-01-11T15:22:24.000Z</time>
      </trkpt>
      <trkpt lat="-49.2210820131003856658935546875" lon="-73.04549731314182281494140625">
        <ele>607.20001220703125</ele>
        <time>2023-01-11T15:22:25.000Z</time>
      </trkpt>
      <trkpt lat="-49.22105041332542896270751953125" lon="-73.045610301196575164794921875">
        <ele>607.20001220703125</ele>
        <time>2023-01-11T15:22:33.000Z</time>
      </trkpt>
      <trkpt lat="-49.2210464738309383392333984375" lon="-73.04562245495617389678955078125">
        <ele>607.4000244140625</ele>
        <time>2023-01-11T15:22:34.000Z</time>
      </trkpt>
      <trkpt lat="-49.22103700228035449981689453125" lon="-73.045645169913768768310546875">
        <ele>607.5999755859375</ele>
        <time>2023-01-11T15:22:36.000Z</time>
      </trkpt>
      <trkpt lat="-49.221008084714412689208984375" lon="-73.0456835590302944183349609375">
        <ele>608.79998779296875</ele>
        <time>2023-01-11T15:22:40.000Z</time>
      </trkpt>
      <trkpt lat="-49.22098352573812007904052734375" lon="-73.0457018315792083740234375">
        <ele>609.20001220703125</ele>
        <time>2023-01-11T15:22:43.000Z</time>
      </trkpt>
      <trkpt lat="-49.22097832895815372467041015625" lon="-73.0457080341875553131103515625">
        <ele>609.4000244140625</ele>
        <time>2023-01-11T15:22:45.000Z</time>
      </trkpt>
      <trkpt lat="-49.220979921519756317138671875" lon="-73.04571666754782199859619140625">
        <ele>609.5999755859375</ele>
        <time>2023-01-11T15:22:48.000Z</time>
      </trkpt>
      <trkpt lat="-49.22097958624362945556640625" lon="-73.04572974331676959991455078125">
        <ele>609.5999755859375</ele>
        <time>2023-01-11T15:22:52.000Z</time>
      </trkpt>
      <trkpt lat="-49.22097564674913883209228515625" lon="-73.0457506142556667327880859375">
        <ele>610</ele>
        <time>2023-01-11T15:22:54.000Z</time>
      </trkpt>
      <trkpt lat="-49.22097422182559967041015625" lon="-73.04576293565332889556884765625">
        <ele>610.4000244140625</ele>
        <time>2023-01-11T15:22:55.000Z</time>
      </trkpt>
      <trkpt lat="-49.22096617519855499267578125" lon="-73.04577617906033992767333984375">
        <ele>611</ele>
        <time>2023-01-11T15:22:57.000Z</time>
      </trkpt>
      <trkpt lat="-49.22094178386032581329345703125" lon="-73.045803420245647430419921875">
        <ele>611.5999755859375</ele>
        <time>2023-01-11T15:23:02.000Z</time>
      </trkpt>
      <trkpt lat="-49.22091395594179630279541015625" lon="-73.04585346020758152008056640625">
        <ele>612.20001220703125</ele>
        <time>2023-01-11T15:23:08.000Z</time>
      </trkpt>
      <trkpt lat="-49.2209110222756862640380859375" lon="-73.045862428843975067138671875">
        <ele>612</ele>
        <time>2023-01-11T15:23:09.000Z</time>
      </trkpt>
      <trkpt lat="-49.2208915762603282928466796875" lon="-73.04592688567936420440673828125">
        <ele>613.4000244140625</ele>
        <time>2023-01-11T15:23:15.000Z</time>
      </trkpt>
      <trkpt lat="-49.22088260762393474578857421875" lon="-73.045944236218929290771484375">
        <ele>614.5999755859375</ele>
        <time>2023-01-11T15:23:17.000Z</time>
      </trkpt>
      <trkpt lat="-49.2208781652152538299560546875" lon="-73.04595035500824451446533203125">
        <ele>614.79998779296875</ele>
        <time>2023-01-11T15:23:19.000Z</time>
      </trkpt>
      <trkpt lat="-49.2208687774837017059326171875" lon="-73.0459829606115818023681640625">
        <ele>614.4000244140625</ele>
        <time>2023-01-11T15:23:26.000Z</time>
      </trkpt>
      <trkpt lat="-49.22086500562727451324462890625" lon="-73.04601095616817474365234375">
        <ele>614.4000244140625</ele>
        <time>2023-01-11T15:23:29.000Z</time>
      </trkpt>
      <trkpt lat="-49.22086969949305057525634765625" lon="-73.04607809521257877349853515625">
        <ele>615.5999755859375</ele>
        <time>2023-01-11T15:23:35.000Z</time>
      </trkpt>
      <trkpt lat="-49.2208595573902130126953125" lon="-73.046096451580524444580078125">
        <ele>616</ele>
        <time>2023-01-11T15:23:37.000Z</time>
      </trkpt>
      <trkpt lat="-49.22082628123462200164794921875" lon="-73.04616007022559642791748046875">
        <ele>617.20001220703125</ele>
        <time>2023-01-11T15:23:44.000Z</time>
      </trkpt>
      <trkpt lat="-49.220794178545475006103515625" lon="-73.04619510658085346221923828125">
        <ele>618.20001220703125</ele>
        <time>2023-01-11T15:23:49.000Z</time>
      </trkpt>
      <trkpt lat="-49.2207963578402996063232421875" lon="-73.04619560949504375457763671875">
        <ele>618.5999755859375</ele>
        <time>2023-01-11T15:23:50.000Z</time>
      </trkpt>
      <trkpt lat="-49.22080113552510738372802734375" lon="-73.0462126247584819793701171875">
        <ele>619.4000244140625</ele>
        <time>2023-01-11T15:23:52.000Z</time>
      </trkpt>
      <trkpt lat="-49.2207963578402996063232421875" lon="-73.0462283827364444732666015625">
        <ele>619.79998779296875</ele>
        <time>2023-01-11T15:23:55.000Z</time>
      </trkpt>
      <trkpt lat="-49.22079392708837985992431640625" lon="-73.04623785428702831268310546875">
        <ele>619.79998779296875</ele>
        <time>2023-01-11T15:23:56.000Z</time>
      </trkpt>
      <trkpt lat="-49.2207782529294490814208984375" lon="-73.0462736450135707855224609375">
        <ele>621.79998779296875</ele>
        <time>2023-01-11T15:24:01.000Z</time>
      </trkpt>
      <trkpt lat="-49.22077666036784648895263671875" lon="-73.04627741686999797821044921875">
        <ele>623</ele>
        <time>2023-01-11T15:24:02.000Z</time>
      </trkpt>
      <trkpt lat="-49.22076635062694549560546875" lon="-73.04629082791507244110107421875">
        <ele>623.79998779296875</ele>
        <time>2023-01-11T15:24:04.000Z</time>
      </trkpt>
      <trkpt lat="-49.220758639276027679443359375" lon="-73.04632209241390228271484375">
        <ele>622</ele>
        <time>2023-01-11T15:24:08.000Z</time>
      </trkpt>
      <trkpt lat="-49.2207594774663448333740234375" lon="-73.04632469080388545989990234375">
        <ele>620.5999755859375</ele>
        <time>2023-01-11T15:24:11.000Z</time>
      </trkpt>
      <trkpt lat="-49.22075738199055194854736328125" lon="-73.0463279597461223602294921875">
        <ele>622</ele>
        <time>2023-01-11T15:24:12.000Z</time>
      </trkpt>
      <trkpt lat="-49.22075822018086910247802734375" lon="-73.0463289655745029449462890625">
        <ele>624</ele>
        <time>2023-01-11T15:24:13.000Z</time>
      </trkpt>
      <trkpt lat="-49.2207591421902179718017578125" lon="-73.04632971994578838348388671875">
        <ele>625.79998779296875</ele>
        <time>2023-01-11T15:24:14.000Z</time>
      </trkpt>
      <trkpt lat="-49.2207581363618373870849609375" lon="-73.0463293008506298065185546875">
        <ele>624</ele>
        <time>2023-01-11T15:24:15.000Z</time>
      </trkpt>
      <trkpt lat="-49.22075838781893253326416015625" lon="-73.0463267862796783447265625">
        <ele>621.5999755859375</ele>
        <time>2023-01-11T15:24:16.000Z</time>
      </trkpt>
      <trkpt lat="-49.2207598127424716949462890625" lon="-73.04632611572742462158203125">
        <ele>624</ele>
        <time>2023-01-11T15:24:18.000Z</time>
      </trkpt>
      <trkpt lat="-49.22075436450541019439697265625" lon="-73.0463215894997119903564453125">
        <ele>624</ele>
        <time>2023-01-11T15:24:20.000Z</time>
      </trkpt>
      <trkpt lat="-49.220748580992221832275390625" lon="-73.0462994612753391265869140625">
        <ele>624.4000244140625</ele>
        <time>2023-01-11T15:24:27.000Z</time>
      </trkpt>
      <trkpt lat="-49.2207510955631732940673828125" lon="-73.04629795253276824951171875">
        <ele>623.4000244140625</ele>
        <time>2023-01-11T15:24:39.000Z</time>
      </trkpt>
      <trkpt lat="-49.22075084410607814788818359375" lon="-73.04629669524729251861572265625">
        <ele>624.79998779296875</ele>
        <time>2023-01-11T15:24:45.000Z</time>
      </trkpt>
      <trkpt lat="-49.2207484133541584014892578125" lon="-73.0462924204766750335693359375">
        <ele>623.79998779296875</ele>
        <time>2023-01-11T15:24:49.000Z</time>
      </trkpt>
      <trkpt lat="-49.22074715606868267059326171875" lon="-73.04629116319119930267333984375">
        <ele>623.20001220703125</ele>
        <time>2023-01-11T15:24:55.000Z</time>
      </trkpt>
      <trkpt lat="-49.2207467369735240936279296875" lon="-73.04629116319119930267333984375">
        <ele>622.79998779296875</ele>
        <time>2023-01-11T15:24:57.000Z</time>
      </trkpt>
      <trkpt lat="-49.22075017355382442474365234375" lon="-73.04633005522191524505615234375">
        <ele>623.20001220703125</ele>
        <time>2023-01-11T15:25:12.000Z</time>
      </trkpt>
      <trkpt lat="-49.220767356455326080322265625" lon="-73.04642133414745330810546875">
        <ele>622.20001220703125</ele>
        <time>2023-01-11T15:25:16.000Z</time>
      </trkpt>
      <trkpt lat="-49.220793507993221282958984375" lon="-73.04650691337883472442626953125">
        <ele>621.4000244140625</ele>
        <time>2023-01-11T15:25:20.000Z</time>
      </trkpt>
      <trkpt lat="-49.2207978665828704833984375" lon="-73.04655821062624454498291015625">
        <ele>621.20001220703125</ele>
        <time>2023-01-11T15:25:23.000Z</time>
      </trkpt>
      <trkpt lat="-49.22078504227101802825927734375" lon="-73.046605400741100311279296875">
        <ele>620.5999755859375</ele>
        <time>2023-01-11T15:25:28.000Z</time>
      </trkpt>
      <trkpt lat="-49.22078068368136882781982421875" lon="-73.04660883732140064239501953125">
        <ele>620.5999755859375</ele>
        <time>2023-01-11T15:25:29.000Z</time>
      </trkpt>
      <trkpt lat="-49.22077783383429050445556640625" lon="-73.04661453701555728912353515625">
        <ele>620</ele>
        <time>2023-01-11T15:25:30.000Z</time>
      </trkpt>
      <trkpt lat="-49.22078889794647693634033203125" lon="-73.04662107490003108978271484375">
        <ele>619.79998779296875</ele>
        <time>2023-01-11T15:25:40.000Z</time>
      </trkpt>
      <trkpt lat="-49.22078889794647693634033203125" lon="-73.04662107490003108978271484375">
        <ele>619.79998779296875</ele>
        <time>2023-01-11T15:25:44.000Z</time>
      </trkpt>
      <trkpt lat="-49.22078889794647693634033203125" lon="-73.04662107490003108978271484375">
        <ele>619.79998779296875</ele>
        <time>2023-01-11T15:25:46.000Z</time>
      </trkpt>
      <trkpt lat="-49.22078889794647693634033203125" lon="-73.04662107490003108978271484375">
        <ele>619.79998779296875</ele>
        <time>2023-01-11T15:25:48.000Z</time>
      </trkpt>
      <trkpt lat="-49.220788478851318359375" lon="-73.0466290377080440521240234375">
        <ele>620.5999755859375</ele>
        <time>2023-01-11T15:25:51.000Z</time>
      </trkpt>
      <trkpt lat="-49.22078034840524196624755859375" lon="-73.04670992307364940643310546875">
        <ele>620.5999755859375</ele>
        <time>2023-01-11T15:25:54.000Z</time>
      </trkpt>
      <trkpt lat="-49.2207782529294490814208984375" lon="-73.0467996932566165924072265625">
        <ele>621.20001220703125</ele>
        <time>2023-01-11T15:25:58.000Z</time>
      </trkpt>
      <trkpt lat="-49.22077448107302188873291015625" lon="-73.04685744456946849822998046875">
        <ele>621.20001220703125</ele>
        <time>2023-01-11T15:26:01.000Z</time>
      </trkpt>
      <trkpt lat="-49.22076702117919921875" lon="-73.046872951090335845947265625">
        <ele>620.79998779296875</ele>
        <time>2023-01-11T15:26:02.000Z</time>
      </trkpt>
      <trkpt lat="-49.220743887126445770263671875" lon="-73.04691930301487445831298828125">
        <ele>621</ele>
        <time>2023-01-11T15:26:09.000Z</time>
      </trkpt>
      <trkpt lat="-49.2207400314509868621826171875" lon="-73.04692114703357219696044921875">
        <ele>621</ele>
        <time>2023-01-11T15:26:10.000Z</time>
      </trkpt>
      <trkpt lat="-49.22070457600057125091552734375" lon="-73.0469606257975101470947265625">
        <ele>620.79998779296875</ele>
        <time>2023-01-11T15:26:18.000Z</time>
      </trkpt>
      <trkpt lat="-49.2206971161067485809326171875" lon="-73.0469356477260589599609375">
        <ele>620.79998779296875</ele>
        <time>2023-01-11T15:26:25.000Z</time>
      </trkpt>
      <trkpt lat="-49.220698289573192596435546875" lon="-73.04693388752639293670654296875">
        <ele>620.20001220703125</ele>
        <time>2023-01-11T15:26:26.000Z</time>
      </trkpt>
      <trkpt lat="-49.220676831901073455810546875" lon="-73.0469539202749729156494140625">
        <ele>620.5999755859375</ele>
        <time>2023-01-11T15:26:35.000Z</time>
      </trkpt>
      <trkpt lat="-49.220676831901073455810546875" lon="-73.0469539202749729156494140625">
        <ele>620.20001220703125</ele>
        <time>2023-01-11T15:26:39.000Z</time>
      </trkpt>
      <trkpt lat="-49.2206602357327938079833984375" lon="-73.04697646759450435638427734375">
        <ele>620.5999755859375</ele>
        <time>2023-01-11T15:26:49.000Z</time>
      </trkpt>
      <trkpt lat="-49.2206369340419769287109375" lon="-73.0470132641494274139404296875">
        <ele>620</ele>
        <time>2023-01-11T15:26:57.000Z</time>
      </trkpt>
      <trkpt lat="-49.22063282690942287445068359375" lon="-73.04706162773072719573974609375">
        <ele>621</ele>
        <time>2023-01-11T15:27:05.000Z</time>
      </trkpt>
      <trkpt lat="-49.22062276862561702728271484375" lon="-73.0470927245914936065673828125">
        <ele>621.20001220703125</ele>
        <time>2023-01-11T15:27:09.000Z</time>
      </trkpt>
      <trkpt lat="-49.22062285244464874267578125" lon="-73.04710353724658489227294921875">
        <ele>621.5999755859375</ele>
        <time>2023-01-11T15:27:12.000Z</time>
      </trkpt>
      <trkpt lat="-49.2206277139484882354736328125" lon="-73.0471078120172023773193359375">
        <ele>622.4000244140625</ele>
        <time>2023-01-11T15:27:14.000Z</time>
      </trkpt>
      <trkpt lat="-49.22064489684998989105224609375" lon="-73.04712097160518169403076171875">
        <ele>622.5999755859375</ele>
        <time>2023-01-11T15:27:18.000Z</time>
      </trkpt>
      <trkpt lat="-49.2206568829715251922607421875" lon="-73.04717830382287502288818359375">
        <ele>623.20001220703125</ele>
        <time>2023-01-11T15:27:25.000Z</time>
      </trkpt>
      <trkpt lat="-49.220659397542476654052734375" lon="-73.04718978703022003173828125">
        <ele>623.4000244140625</ele>
        <time>2023-01-11T15:27:28.000Z</time>
      </trkpt>
      <trkpt lat="-49.22066710889339447021484375" lon="-73.0471869371831417083740234375">
        <ele>624.20001220703125</ele>
        <time>2023-01-11T15:27:32.000Z</time>
      </trkpt>
      <trkpt lat="-49.22067188657820224761962890625" lon="-73.0471959896385669708251953125">
        <ele>624.79998779296875</ele>
        <time>2023-01-11T15:27:33.000Z</time>
      </trkpt>
      <trkpt lat="-49.22067993320524692535400390625" lon="-73.0472174473106861114501953125">
        <ele>624.79998779296875</ele>
        <time>2023-01-11T15:27:35.000Z</time>
      </trkpt>
      <trkpt lat="-49.2206932604312896728515625" lon="-73.04724317975342273712158203125">
        <ele>625</ele>
        <time>2023-01-11T15:27:39.000Z</time>
      </trkpt>
      <trkpt lat="-49.22069124877452850341796875" lon="-73.04730017669498920440673828125">
        <ele>624.20001220703125</ele>
        <time>2023-01-11T15:27:48.000Z</time>
      </trkpt>
      <trkpt lat="-49.220662079751491546630859375" lon="-73.0473326146602630615234375">
        <ele>624.5999755859375</ele>
        <time>2023-01-11T15:27:56.000Z</time>
      </trkpt>
      <trkpt lat="-49.22065663151443004608154296875" lon="-73.04733018390834331512451171875">
        <ele>624.5999755859375</ele>
        <time>2023-01-11T15:27:58.000Z</time>
      </trkpt>
      <trkpt lat="-49.22063718549907207489013671875" lon="-73.04733303375542163848876953125">
        <ele>624.4000244140625</ele>
        <time>2023-01-11T15:28:02.000Z</time>
      </trkpt>
      <trkpt lat="-49.2206280492246150970458984375" lon="-73.04732582531869411468505859375">
        <ele>625.20001220703125</ele>
        <time>2023-01-11T15:28:04.000Z</time>
      </trkpt>
      <trkpt lat="-49.2206025682389736175537109375" lon="-73.04741970263421535491943359375">
        <ele>624.79998779296875</ele>
        <time>2023-01-11T15:28:12.000Z</time>
      </trkpt>
      <trkpt lat="-49.22059091739356517791748046875" lon="-73.04743613116443157196044921875">
        <ele>625</ele>
        <time>2023-01-11T15:28:14.000Z</time>
      </trkpt>
      <trkpt lat="-49.220565855503082275390625" lon="-73.0474658869206905364990234375">
        <ele>625.20001220703125</ele>
        <time>2023-01-11T15:28:18.000Z</time>
      </trkpt>
      <trkpt lat="-49.22056107781827449798583984375" lon="-73.0474772863090038299560546875">
        <ele>626.4000244140625</ele>
        <time>2023-01-11T15:28:19.000Z</time>
      </trkpt>
      <trkpt lat="-49.22054833732545375823974609375" lon="-73.04750486277043819427490234375">
        <ele>626.4000244140625</ele>
        <time>2023-01-11T15:28:22.000Z</time>
      </trkpt>
      <trkpt lat="-49.2205314897000789642333984375" lon="-73.04753319360315799713134765625">
        <ele>625.5999755859375</ele>
        <time>2023-01-11T15:28:25.000Z</time>
      </trkpt>
      <trkpt lat="-49.22053408809006214141845703125" lon="-73.04755599237978458404541015625">
        <ele>625.5999755859375</ele>
        <time>2023-01-11T15:28:27.000Z</time>
      </trkpt>
      <trkpt lat="-49.22053928487002849578857421875" lon="-73.0476127378642559051513671875">
        <ele>625.4000244140625</ele>
        <time>2023-01-11T15:28:31.000Z</time>
      </trkpt>
      <trkpt lat="-49.22054238617420196533203125" lon="-73.0476442538201808929443359375">
        <ele>625</ele>
        <time>2023-01-11T15:28:33.000Z</time>
      </trkpt>
      <trkpt lat="-49.22053433954715728759765625" lon="-73.047700412571430206298828125">
        <ele>624.5999755859375</ele>
        <time>2023-01-11T15:28:37.000Z</time>
      </trkpt>
      <trkpt lat="-49.220497123897075653076171875" lon="-73.0478048510849475860595703125">
        <ele>624.79998779296875</ele>
        <time>2023-01-11T15:28:45.000Z</time>
      </trkpt>
      <trkpt lat="-49.22044892795383930206298828125" lon="-73.04782773368060588836669921875">
        <ele>624.79998779296875</ele>
        <time>2023-01-11T15:28:52.000Z</time>
      </trkpt>
      <trkpt lat="-49.22042981721460819244384765625" lon="-73.04785120300948619842529296875">
        <ele>624.4000244140625</ele>
        <time>2023-01-11T15:28:55.000Z</time>
      </trkpt>
      <trkpt lat="-49.2204258777201175689697265625" lon="-73.04785841144621372222900390625">
        <ele>623.5999755859375</ele>
        <time>2023-01-11T15:28:56.000Z</time>
      </trkpt>
      <trkpt lat="-49.22041632235050201416015625" lon="-73.04789026267826557159423828125">
        <ele>622.5999755859375</ele>
        <time>2023-01-11T15:29:00.000Z</time>
      </trkpt>
      <trkpt lat="-49.2204111255705356597900390625" lon="-73.0479107983410358428955078125">
        <ele>622.4000244140625</ele>
        <time>2023-01-11T15:29:02.000Z</time>
      </trkpt>
      <trkpt lat="-49.220405258238315582275390625" lon="-73.04792228154838085174560546875">
        <ele>621.5999755859375</ele>
        <time>2023-01-11T15:29:03.000Z</time>
      </trkpt>
      <trkpt lat="-49.2203993909060955047607421875" lon="-73.0479607544839382171630859375">
        <ele>621.4000244140625</ele>
        <time>2023-01-11T15:29:06.000Z</time>
      </trkpt>
      <trkpt lat="-49.2203963734209537506103515625" lon="-73.04797693155705928802490234375">
        <ele>620</ele>
        <time>2023-01-11T15:29:07.000Z</time>
      </trkpt>
      <trkpt lat="-49.2203856445848941802978515625" lon="-73.0480023287236690521240234375">
        <ele>619.4000244140625</ele>
        <time>2023-01-11T15:29:10.000Z</time>
      </trkpt>
      <trkpt lat="-49.22037231735885143280029296875" lon="-73.04805387742817401885986328125">
        <ele>618.5999755859375</ele>
        <time>2023-01-11T15:29:14.000Z</time>
      </trkpt>
      <trkpt lat="-49.22035806812345981597900390625" lon="-73.04808673448860645294189453125">
        <ele>618.20001220703125</ele>
        <time>2023-01-11T15:29:17.000Z</time>
      </trkpt>
      <trkpt lat="-49.22034717164933681488037109375" lon="-73.04811992682516574859619140625">
        <ele>618</ele>
        <time>2023-01-11T15:29:20.000Z</time>
      </trkpt>
      <trkpt lat="-49.2203410528600215911865234375" lon="-73.0481310747563838958740234375">
        <ele>617.5999755859375</ele>
        <time>2023-01-11T15:29:21.000Z</time>
      </trkpt>
      <trkpt lat="-49.2203343473374843597412109375" lon="-73.0481481738388538360595703125">
        <ele>616.20001220703125</ele>
        <time>2023-01-11T15:29:22.000Z</time>
      </trkpt>
      <trkpt lat="-49.22032286413013935089111328125" lon="-73.0482051707804203033447265625">
        <ele>616.20001220703125</ele>
        <time>2023-01-11T15:29:25.000Z</time>
      </trkpt>
      <trkpt lat="-49.22032286413013935089111328125" lon="-73.04821707308292388916015625">
        <ele>616.5999755859375</ele>
        <time>2023-01-11T15:29:26.000Z</time>
      </trkpt>
      <trkpt lat="-49.22032688744366168975830078125" lon="-73.0482392013072967529296875">
        <ele>617.20001220703125</ele>
        <time>2023-01-11T15:29:29.000Z</time>
      </trkpt>
      <trkpt lat="-49.22033744864165782928466796875" lon="-73.04826040752232074737548828125">
        <ele>618.20001220703125</ele>
        <time>2023-01-11T15:29:33.000Z</time>
      </trkpt>
      <trkpt lat="-49.2203420586884021759033203125" lon="-73.04826728068292140960693359375">
        <ele>618.5999755859375</ele>
        <time>2023-01-11T15:29:34.000Z</time>
      </trkpt>
      <trkpt lat="-49.220373742282390594482421875" lon="-73.048270381987094879150390625">
        <ele>617.4000244140625</ele>
        <time>2023-01-11T15:29:41.000Z</time>
      </trkpt>
      <trkpt lat="-49.22037214972078800201416015625" lon="-73.04826510138809680938720703125">
        <ele>616.4000244140625</ele>
        <time>2023-01-11T15:29:47.000Z</time>
      </trkpt>
      <trkpt lat="-49.22037214972078800201416015625" lon="-73.04826510138809680938720703125">
        <ele>617.20001220703125</ele>
        <time>2023-01-11T15:29:55.000Z</time>
      </trkpt>
      <trkpt lat="-49.2203732393682003021240234375" lon="-73.04826510138809680938720703125">
        <ele>617.5999755859375</ele>
        <time>2023-01-11T15:29:57.000Z</time>
      </trkpt>
      <trkpt lat="-49.2203732393682003021240234375" lon="-73.04826510138809680938720703125">
        <ele>616.4000244140625</ele>
        <time>2023-01-11T15:29:58.000Z</time>
      </trkpt>
      <trkpt lat="-49.2203732393682003021240234375" lon="-73.04826510138809680938720703125">
        <ele>614.4000244140625</ele>
        <time>2023-01-11T15:29:59.000Z</time>
      </trkpt>
      <trkpt lat="-49.22037349082529544830322265625" lon="-73.0482740700244903564453125">
        <ele>613.4000244140625</ele>
        <time>2023-01-11T15:30:09.000Z</time>
      </trkpt>
      <trkpt lat="-49.22037365846335887908935546875" lon="-73.04828270338475704193115234375">
        <ele>613.20001220703125</ele>
        <time>2023-01-11T15:30:10.000Z</time>
      </trkpt>
      <trkpt lat="-49.220384471118450164794921875" lon="-73.048345483839511871337890625">
        <ele>612</ele>
        <time>2023-01-11T15:30:22.000Z</time>
      </trkpt>
      <trkpt lat="-49.22038857825100421905517578125" lon="-73.0483867228031158447265625">
        <ele>612</ele>
        <time>2023-01-11T15:30:24.000Z</time>
      </trkpt>
      <trkpt lat="-49.2203873209655284881591796875" lon="-73.04840474389493465423583984375">
        <ele>612</ele>
        <time>2023-01-11T15:30:25.000Z</time>
      </trkpt>
      <trkpt lat="-49.2203920148313045501708984375" lon="-73.048493005335330963134765625">
        <ele>611</ele>
        <time>2023-01-11T15:30:30.000Z</time>
      </trkpt>
      <trkpt lat="-49.22039754688739776611328125" lon="-73.04851203225553035736083984375">
        <ele>610.4000244140625</ele>
        <time>2023-01-11T15:30:31.000Z</time>
      </trkpt>
      <trkpt lat="-49.22039511613547801971435546875" lon="-73.04852225817739963531494140625">
        <ele>610</ele>
        <time>2023-01-11T15:30:32.000Z</time>
      </trkpt>
      <trkpt lat="-49.2204047553241252899169921875" lon="-73.0486024729907512664794921875">
        <ele>610.20001220703125</ele>
        <time>2023-01-11T15:30:36.000Z</time>
      </trkpt>
      <trkpt lat="-49.22041439451277256011962890625" lon="-73.0486346594989299774169921875">
        <ele>611.20001220703125</ele>
        <time>2023-01-11T15:30:39.000Z</time>
      </trkpt>
      <trkpt lat="-49.22042260877788066864013671875" lon="-73.04865335114300251007080078125">
        <ele>611.5999755859375</ele>
        <time>2023-01-11T15:30:42.000Z</time>
      </trkpt>
      <trkpt lat="-49.22044088132679462432861328125" lon="-73.0486852861940860748291015625">
        <ele>611.79998779296875</ele>
        <time>2023-01-11T15:30:46.000Z</time>
      </trkpt>
      <trkpt lat="-49.22044557519257068634033203125" lon="-73.04869559593498706817626953125">
        <ele>612</ele>
        <time>2023-01-11T15:30:52.000Z</time>
      </trkpt>
      <trkpt lat="-49.220450185239315032958984375" lon="-73.04870414547622203826904296875">
        <ele>612.79998779296875</ele>
        <time>2023-01-11T15:31:02.000Z</time>
      </trkpt>
      <trkpt lat="-49.220450185239315032958984375" lon="-73.04870414547622203826904296875">
        <ele>613.20001220703125</ele>
        <time>2023-01-11T15:31:03.000Z</time>
      </trkpt>
      <trkpt lat="-49.220450185239315032958984375" lon="-73.04870414547622203826904296875">
        <ele>613.79998779296875</ele>
        <time>2023-01-11T15:31:06.000Z</time>
      </trkpt>
      <trkpt lat="-49.22051346860826015472412109375" lon="-73.04868218488991260528564453125">
        <ele>614.5999755859375</ele>
        <time>2023-01-11T15:31:14.000Z</time>
      </trkpt>
      <trkpt lat="-49.220565855503082275390625" lon="-73.048683106899261474609375">
        <ele>614.4000244140625</ele>
        <time>2023-01-11T15:31:18.000Z</time>
      </trkpt>
      <trkpt lat="-49.22059477306902408599853515625" lon="-73.04868386127054691314697265625">
        <ele>613.5999755859375</ele>
        <time>2023-01-11T15:31:22.000Z</time>
      </trkpt>
      <trkpt lat="-49.22061706893146038055419921875" lon="-73.04871856234967708587646484375">
        <ele>613.4000244140625</ele>
        <time>2023-01-11T15:31:25.000Z</time>
      </trkpt>
      <trkpt lat="-49.22065881080925464630126953125" lon="-73.048786707222461700439453125">
        <ele>614</ele>
        <time>2023-01-11T15:31:29.000Z</time>
      </trkpt>
      <trkpt lat="-49.220680184662342071533203125" lon="-73.0488086678087711334228515625">
        <ele>614</ele>
        <time>2023-01-11T15:31:32.000Z</time>
      </trkpt>
      <trkpt lat="-49.220699965953826904296875" lon="-73.0487945862114429473876953125">
        <ele>614.20001220703125</ele>
        <time>2023-01-11T15:31:35.000Z</time>
      </trkpt>
      <trkpt lat="-49.220713041722774505615234375" lon="-73.0487942509353160858154296875">
        <ele>614.79998779296875</ele>
        <time>2023-01-11T15:31:36.000Z</time>
      </trkpt>
      <trkpt lat="-49.22076056711375713348388671875" lon="-73.048773966729640960693359375">
        <ele>616</ele>
        <time>2023-01-11T15:31:43.000Z</time>
      </trkpt>
      <trkpt lat="-49.22078856267035007476806640625" lon="-73.0487828515470027923583984375">
        <ele>617.5999755859375</ele>
        <time>2023-01-11T15:31:47.000Z</time>
      </trkpt>
      <trkpt lat="-49.220793507993221282958984375" lon="-73.0487872101366519927978515625">
        <ele>617.79998779296875</ele>
        <time>2023-01-11T15:31:50.000Z</time>
      </trkpt>
      <trkpt lat="-49.22080515883862972259521484375" lon="-73.04879450239241123199462890625">
        <ele>617</ele>
        <time>2023-01-11T15:32:01.000Z</time>
      </trkpt>
      <trkpt lat="-49.22080515883862972259521484375" lon="-73.04879450239241123199462890625">
        <ele>616.20001220703125</ele>
        <time>2023-01-11T15:32:05.000Z</time>
      </trkpt>
      <trkpt lat="-49.22080515883862972259521484375" lon="-73.04879450239241123199462890625">
        <ele>616.20001220703125</ele>
        <time>2023-01-11T15:32:12.000Z</time>
      </trkpt>
      <trkpt lat="-49.2208734713494777679443359375" lon="-73.04880313575267791748046875">
        <ele>616.79998779296875</ele>
        <time>2023-01-11T15:32:26.000Z</time>
      </trkpt>
      <trkpt lat="-49.2208997905254364013671875" lon="-73.048802129924297332763671875">
        <ele>617.79998779296875</ele>
        <time>2023-01-11T15:32:28.000Z</time>
      </trkpt>
      <trkpt lat="-49.220961816608905792236328125" lon="-73.04879886098206043243408203125">
        <ele>618.20001220703125</ele>
        <time>2023-01-11T15:32:35.000Z</time>
      </trkpt>
      <trkpt lat="-49.22097514383494853973388671875" lon="-73.04879265837371349334716796875">
        <ele>619.20001220703125</ele>
        <time>2023-01-11T15:32:37.000Z</time>
      </trkpt>
      <trkpt lat="-49.220987968146800994873046875" lon="-73.0487768165767192840576171875">
        <ele>619.5999755859375</ele>
        <time>2023-01-11T15:32:39.000Z</time>
      </trkpt>
      <trkpt lat="-49.22100783325731754302978515625" lon="-73.0487560294568538665771484375">
        <ele>620.20001220703125</ele>
        <time>2023-01-11T15:32:42.000Z</time>
      </trkpt>
      <trkpt lat="-49.2210317216813564300537109375" lon="-73.04872811771929264068603515625">
        <ele>620.5999755859375</ele>
        <time>2023-01-11T15:32:45.000Z</time>
      </trkpt>
      <trkpt lat="-49.22105242498219013214111328125" lon="-73.0487278662621974945068359375">
        <ele>622</ele>
        <time>2023-01-11T15:32:48.000Z</time>
      </trkpt>
      <trkpt lat="-49.221061728894710540771484375" lon="-73.04873113520443439483642578125">
        <ele>622</ele>
        <time>2023-01-11T15:32:52.000Z</time>
      </trkpt>
      <trkpt lat="-49.22108285129070281982421875" lon="-73.04875292815268039703369140625">
        <ele>621</ele>
        <time>2023-01-11T15:32:58.000Z</time>
      </trkpt>
      <trkpt lat="-49.22108042053878307342529296875" lon="-73.0487516708672046661376953125">
        <ele>621</ele>
        <time>2023-01-11T15:32:59.000Z</time>
      </trkpt>
      <trkpt lat="-49.22108729369938373565673828125" lon="-73.0487496592104434967041015625">
        <ele>623</ele>
        <time>2023-01-11T15:33:12.000Z</time>
      </trkpt>
      <trkpt lat="-49.22108729369938373565673828125" lon="-73.0487429536879062652587890625">
        <ele>625</ele>
        <time>2023-01-11T15:33:15.000Z</time>
      </trkpt>
      <trkpt lat="-49.221112690865993499755859375" lon="-73.04868939332664012908935546875">
        <ele>625.79998779296875</ele>
        <time>2023-01-11T15:33:24.000Z</time>
      </trkpt>
      <trkpt lat="-49.22112249769270420074462890625" lon="-73.04867346771061420440673828125">
        <ele>626.4000244140625</ele>
        <time>2023-01-11T15:33:25.000Z</time>
      </trkpt>
      <trkpt lat="-49.22115636058151721954345703125" lon="-73.048621080815792083740234375">
        <ele>627.5999755859375</ele>
        <time>2023-01-11T15:33:28.000Z</time>
      </trkpt>
      <trkpt lat="-49.22119013965129852294921875" lon="-73.04856785573065280914306640625">
        <ele>628.4000244140625</ele>
        <time>2023-01-11T15:33:33.000Z</time>
      </trkpt>
      <trkpt lat="-49.22118603251874446868896484375" lon="-73.0485785007476806640625">
        <ele>628.79998779296875</ele>
        <time>2023-01-11T15:33:36.000Z</time>
      </trkpt>
      <trkpt lat="-49.22120531089603900909423828125" lon="-73.0485461466014385223388671875">
        <ele>629.79998779296875</ele>
        <time>2023-01-11T15:33:41.000Z</time>
      </trkpt>
      <trkpt lat="-49.22121318988502025604248046875" lon="-73.04854002781212329864501953125">
        <ele>630</ele>
        <time>2023-01-11T15:33:42.000Z</time>
      </trkpt>
      <trkpt lat="-49.22124437056481838226318359375" lon="-73.04848135448992252349853515625">
        <ele>629</ele>
        <time>2023-01-11T15:33:50.000Z</time>
      </trkpt>
      <trkpt lat="-49.22124437056481838226318359375" lon="-73.04846676997840404510498046875">
        <ele>629</ele>
        <time>2023-01-11T15:33:51.000Z</time>
      </trkpt>
      <trkpt lat="-49.22125576995313167572021484375" lon="-73.04844346828758716583251953125">
        <ele>630</ele>
        <time>2023-01-11T15:33:54.000Z</time>
      </trkpt>
      <trkpt lat="-49.22127605415880680084228515625" lon="-73.04840994067490100860595703125">
        <ele>631</ele>
        <time>2023-01-11T15:33:59.000Z</time>
      </trkpt>
      <trkpt lat="-49.22127521596848964691162109375" lon="-73.04834179580211639404296875">
        <ele>631.5999755859375</ele>
        <time>2023-01-11T15:34:08.000Z</time>
      </trkpt>
      <trkpt lat="-49.22129952348768711090087890625" lon="-73.048320002853870391845703125">
        <ele>632</ele>
        <time>2023-01-11T15:34:12.000Z</time>
      </trkpt>
      <trkpt lat="-49.221303798258304595947265625" lon="-73.04831606335937976837158203125">
        <ele>632.20001220703125</ele>
        <time>2023-01-11T15:34:13.000Z</time>
      </trkpt>
      <trkpt lat="-49.2213155329227447509765625" lon="-73.048303909599781036376953125">
        <ele>632.79998779296875</ele>
        <time>2023-01-11T15:34:16.000Z</time>
      </trkpt>
      <trkpt lat="-49.22135300002992153167724609375" lon="-73.04826275445520877838134765625">
        <ele>633.20001220703125</ele>
        <time>2023-01-11T15:34:24.000Z</time>
      </trkpt>
      <trkpt lat="-49.22136808745563030242919921875" lon="-73.04824967868626117706298828125">
        <ele>633.4000244140625</ele>
        <time>2023-01-11T15:34:27.000Z</time>
      </trkpt>
      <trkpt lat="-49.22140127979218959808349609375" lon="-73.0482417158782482147216796875">
        <ele>633.4000244140625</ele>
        <time>2023-01-11T15:34:31.000Z</time>
      </trkpt>
      <trkpt lat="-49.22143380157649517059326171875" lon="-73.04824247024953365325927734375">
        <ele>633.4000244140625</ele>
        <time>2023-01-11T15:34:35.000Z</time>
      </trkpt>
      <trkpt lat="-49.22147621400654315948486328125" lon="-73.0482326634228229522705078125">
        <ele>634.4000244140625</ele>
        <time>2023-01-11T15:34:42.000Z</time>
      </trkpt>
      <trkpt lat="-49.22148928977549076080322265625" lon="-73.04822738282382488250732421875">
        <ele>634.79998779296875</ele>
        <time>2023-01-11T15:34:44.000Z</time>
      </trkpt>
      <trkpt lat="-49.22150270082056522369384765625" lon="-73.0482326634228229522705078125">
        <ele>635.4000244140625</ele>
        <time>2023-01-11T15:34:46.000Z</time>
      </trkpt>
      <trkpt lat="-49.22153388150036334991455078125" lon="-73.04823760874569416046142578125">
        <ele>636.5999755859375</ele>
        <time>2023-01-11T15:34:53.000Z</time>
      </trkpt>
      <trkpt lat="-49.22155399806797504425048828125" lon="-73.048224784433841705322265625">
        <ele>637</ele>
        <time>2023-01-11T15:34:57.000Z</time>
      </trkpt>
      <trkpt lat="-49.2215705104172229766845703125" lon="-73.04822235368192195892333984375">
        <ele>637.79998779296875</ele>
        <time>2023-01-11T15:35:00.000Z</time>
      </trkpt>
      <trkpt lat="-49.22157503664493560791015625" lon="-73.04822436533868312835693359375">
        <ele>638</ele>
        <time>2023-01-11T15:35:03.000Z</time>
      </trkpt>
      <trkpt lat="-49.22156699001789093017578125" lon="-73.0482232756912708282470703125">
        <ele>638.20001220703125</ele>
        <time>2023-01-11T15:35:05.000Z</time>
      </trkpt>
      <trkpt lat="-49.2216070555150508880615234375" lon="-73.04822419770061969757080078125">
        <ele>638.5999755859375</ele>
        <time>2023-01-11T15:35:12.000Z</time>
      </trkpt>
      <trkpt lat="-49.22161904163658618927001953125" lon="-73.0482256226241588592529296875">
        <ele>639</ele>
        <time>2023-01-11T15:35:14.000Z</time>
      </trkpt>
      <trkpt lat="-49.22163865529000759124755859375" lon="-73.04822905920445919036865234375">
        <ele>640.20001220703125</ele>
        <time>2023-01-11T15:35:17.000Z</time>
      </trkpt>
      <trkpt lat="-49.2216615378856658935546875" lon="-73.048221431672573089599609375">
        <ele>641</ele>
        <time>2023-01-11T15:35:21.000Z</time>
      </trkpt>
      <trkpt lat="-49.22167427837848663330078125" lon="-73.0482185818254947662353515625">
        <ele>641.20001220703125</ele>
        <time>2023-01-11T15:35:23.000Z</time>
      </trkpt>
      <trkpt lat="-49.22168861143290996551513671875" lon="-73.0481984652578830718994140625">
        <ele>641.5999755859375</ele>
        <time>2023-01-11T15:35:27.000Z</time>
      </trkpt>
      <trkpt lat="-49.22168827615678310394287109375" lon="-73.0481890775263309478759765625">
        <ele>641.5999755859375</ele>
        <time>2023-01-11T15:35:28.000Z</time>
      </trkpt>
      <trkpt lat="-49.2216952331364154815673828125" lon="-73.0481776781380176544189453125">
        <ele>642</ele>
        <time>2023-01-11T15:35:30.000Z</time>
      </trkpt>
      <trkpt lat="-49.2217066325247287750244140625" lon="-73.0481676198542118072509765625">
        <ele>642.4000244140625</ele>
        <time>2023-01-11T15:35:32.000Z</time>
      </trkpt>
      <trkpt lat="-49.2217106558382511138916015625" lon="-73.04816368035972118377685546875">
        <ele>643.4000244140625</ele>
        <time>2023-01-11T15:35:33.000Z</time>
      </trkpt>
      <trkpt lat="-49.22172716818749904632568359375" lon="-73.0481535382568836212158203125">
        <ele>644.4000244140625</ele>
        <time>2023-01-11T15:35:36.000Z</time>
      </trkpt>
      <trkpt lat="-49.2217337898910045623779296875" lon="-73.04814867675304412841796875">
        <ele>646</ele>
        <time>2023-01-11T15:35:37.000Z</time>
      </trkpt>
      <trkpt lat="-49.2217696644365787506103515625" lon="-73.04811892099678516387939453125">
        <ele>645.5999755859375</ele>
        <time>2023-01-11T15:35:45.000Z</time>
      </trkpt>
      <trkpt lat="-49.2217743583023548126220703125" lon="-73.0481169931590557098388671875">
        <ele>645.79998779296875</ele>
        <time>2023-01-11T15:35:46.000Z</time>
      </trkpt>
      <trkpt lat="-49.22179338522255420684814453125" lon="-73.04811825044453144073486328125">
        <ele>647</ele>
        <time>2023-01-11T15:35:49.000Z</time>
      </trkpt>
      <trkpt lat="-49.221810735762119293212890625" lon="-73.04808606393635272979736328125">
        <ele>647.79998779296875</ele>
        <time>2023-01-11T15:35:56.000Z</time>
      </trkpt>
      <trkpt lat="-49.2218122445046901702880859375" lon="-73.04807935841381549835205078125">
        <ele>648.4000244140625</ele>
        <time>2023-01-11T15:35:57.000Z</time>
      </trkpt>
      <trkpt lat="-49.2218249849975109100341796875" lon="-73.0480730719864368438720703125">
        <ele>649.5999755859375</ele>
        <time>2023-01-11T15:36:00.000Z</time>
      </trkpt>
      <trkpt lat="-49.2218305170536041259765625" lon="-73.04806561209261417388916015625">
        <ele>650.4000244140625</ele>
        <time>2023-01-11T15:36:02.000Z</time>
      </trkpt>
      <trkpt lat="-49.2218387313187122344970703125" lon="-73.04805991239845752716064453125">
        <ele>650.79998779296875</ele>
        <time>2023-01-11T15:36:04.000Z</time>
      </trkpt>
      <trkpt lat="-49.2218501307070255279541015625" lon="-73.04806024767458438873291015625">
        <ele>651.79998779296875</ele>
        <time>2023-01-11T15:36:07.000Z</time>
      </trkpt>
      <trkpt lat="-49.22185935080051422119140625" lon="-73.0480425618588924407958984375">
        <ele>652.20001220703125</ele>
        <time>2023-01-11T15:36:10.000Z</time>
      </trkpt>
      <trkpt lat="-49.2218806408345699310302734375" lon="-73.0480076931416988372802734375">
        <ele>652.5999755859375</ele>
        <time>2023-01-11T15:36:17.000Z</time>
      </trkpt>
      <trkpt lat="-49.2218900285661220550537109375" lon="-73.0479979701340198516845703125">
        <ele>652.79998779296875</ele>
        <time>2023-01-11T15:36:19.000Z</time>
      </trkpt>
      <trkpt lat="-49.2219088040292263031005859375" lon="-73.04798983968794345855712890625">
        <ele>652.20001220703125</ele>
        <time>2023-01-11T15:36:26.000Z</time>
      </trkpt>
      <trkpt lat="-49.22191894613206386566162109375" lon="-73.04798506200313568115234375">
        <ele>652.20001220703125</ele>
        <time>2023-01-11T15:36:33.000Z</time>
      </trkpt>
      <trkpt lat="-49.221939146518707275390625" lon="-73.047953881323337554931640625">
        <ele>652.20001220703125</ele>
        <time>2023-01-11T15:36:37.000Z</time>
      </trkpt>
      <trkpt lat="-49.22195046208798885345458984375" lon="-73.04794692434370517730712890625">
        <ele>652.20001220703125</ele>
        <time>2023-01-11T15:36:39.000Z</time>
      </trkpt>
      <trkpt lat="-49.22195498831570148468017578125" lon="-73.04794575087726116180419921875">
        <ele>652.20001220703125</ele>
        <time>2023-01-11T15:36:40.000Z</time>
      </trkpt>
      <trkpt lat="-49.22197141684591770172119140625" lon="-73.0479372851550579071044921875">
        <ele>654</ele>
        <time>2023-01-11T15:36:43.000Z</time>
      </trkpt>
      <trkpt lat="-49.2220147512853145599365234375" lon="-73.04792873561382293701171875">
        <ele>653.79998779296875</ele>
        <time>2023-01-11T15:36:50.000Z</time>
      </trkpt>
      <trkpt lat="-49.2220224626362323760986328125" lon="-73.04792680777609348297119140625">
        <ele>653.4000244140625</ele>
        <time>2023-01-11T15:36:51.000Z</time>
      </trkpt>
      <trkpt lat="-49.22204232774674892425537109375" lon="-73.04792999289929866790771484375">
        <ele>652.79998779296875</ele>
        <time>2023-01-11T15:36:53.000Z</time>
      </trkpt>
      <trkpt lat="-49.222065545618534088134765625" lon="-73.0479382909834384918212890625">
        <ele>652.20001220703125</ele>
        <time>2023-01-11T15:36:56.000Z</time>
      </trkpt>
      <trkpt lat="-49.222074262797832489013671875" lon="-73.04794021882116794586181640625">
        <ele>652.20001220703125</ele>
        <time>2023-01-11T15:36:57.000Z</time>
      </trkpt>
      <trkpt lat="-49.2220960557460784912109375" lon="-73.04795530624687671661376953125">
        <ele>652.5999755859375</ele>
        <time>2023-01-11T15:37:01.000Z</time>
      </trkpt>
      <trkpt lat="-49.222143329679965972900390625" lon="-73.04797165095806121826171875">
        <ele>652.4000244140625</ele>
        <time>2023-01-11T15:37:09.000Z</time>
      </trkpt>
      <trkpt lat="-49.22217207960784435272216796875" lon="-73.047980032861232757568359375">
        <ele>652.20001220703125</ele>
        <time>2023-01-11T15:37:13.000Z</time>
      </trkpt>
      <trkpt lat="-49.22221801243722438812255859375" lon="-73.04800962097942829132080078125">
        <ele>652.20001220703125</ele>
        <time>2023-01-11T15:37:19.000Z</time>
      </trkpt>
      <trkpt lat="-49.22222002409398555755615234375" lon="-73.04801548831164836883544921875">
        <ele>652.20001220703125</ele>
        <time>2023-01-11T15:37:20.000Z</time>
      </trkpt>
      <trkpt lat="-49.2222306691110134124755859375" lon="-73.04802118800580501556396484375">
        <ele>652.20001220703125</ele>
        <time>2023-01-11T15:37:22.000Z</time>
      </trkpt>
      <trkpt lat="-49.2222538031637668609619140625" lon="-73.048041723668575286865234375">
        <ele>652.4000244140625</ele>
        <time>2023-01-11T15:37:25.000Z</time>
      </trkpt>
      <trkpt lat="-49.22227802686393260955810546875" lon="-73.04806192405521869659423828125">
        <ele>653</ele>
        <time>2023-01-11T15:37:28.000Z</time>
      </trkpt>
      <trkpt lat="-49.22234407626092433929443359375" lon="-73.04809645749628543853759765625">
        <ele>652.79998779296875</ele>
        <time>2023-01-11T15:37:34.000Z</time>
      </trkpt>
      <trkpt lat="-49.22238565050065517425537109375" lon="-73.0481116287410259246826171875">
        <ele>652.79998779296875</ele>
        <time>2023-01-11T15:37:39.000Z</time>
      </trkpt>
      <trkpt lat="-49.22239780426025390625" lon="-73.0481076054275035858154296875">
        <ele>652.79998779296875</ele>
        <time>2023-01-11T15:37:41.000Z</time>
      </trkpt>
      <trkpt lat="-49.22245957888662815093994140625" lon="-73.04812026210129261016845703125">
        <ele>652.5999755859375</ele>
        <time>2023-01-11T15:37:48.000Z</time>
      </trkpt>
      <trkpt lat="-49.22247986309230327606201171875" lon="-73.048130907118320465087890625">
        <ele>652.5999755859375</ele>
        <time>2023-01-11T15:37:50.000Z</time>
      </trkpt>
      <trkpt lat="-49.22257306985557079315185546875" lon="-73.04819687269628047943115234375">
        <ele>652.79998779296875</ele>
        <time>2023-01-11T15:38:01.000Z</time>
      </trkpt>
      <trkpt lat="-49.22268438152968883514404296875" lon="-73.04822872392833232879638671875">
        <ele>652.5999755859375</ele>
        <time>2023-01-11T15:38:13.000Z</time>
      </trkpt>
      <trkpt lat="-49.2227030731737613677978515625" lon="-73.048230819404125213623046875">
        <ele>652.5999755859375</ele>
        <time>2023-01-11T15:38:15.000Z</time>
      </trkpt>
      <trkpt lat="-49.22280885279178619384765625" lon="-73.0482472479343414306640625">
        <ele>652.79998779296875</ele>
        <time>2023-01-11T15:38:26.000Z</time>
      </trkpt>
      <trkpt lat="-49.2229082621634006500244140625" lon="-73.0483008921146392822265625">
        <ele>653.4000244140625</ele>
        <time>2023-01-11T15:38:36.000Z</time>
      </trkpt>
      <trkpt lat="-49.22291773371398448944091796875" lon="-73.04831086657941341400146484375">
        <ele>653.5999755859375</ele>
        <time>2023-01-11T15:38:37.000Z</time>
      </trkpt>
      <trkpt lat="-49.22294002957642078399658203125" lon="-73.048332743346691131591796875">
        <ele>653.4000244140625</ele>
        <time>2023-01-11T15:38:39.000Z</time>
      </trkpt>
      <trkpt lat="-49.222958050668239593505859375" lon="-73.0483486689627170562744140625">
        <ele>653.4000244140625</ele>
        <time>2023-01-11T15:38:41.000Z</time>
      </trkpt>
      <trkpt lat="-49.2230165563523769378662109375" lon="-73.04839267395436763763427734375">
        <ele>653.20001220703125</ele>
        <time>2023-01-11T15:38:48.000Z</time>
      </trkpt>
      <trkpt lat="-49.22302586026489734649658203125" lon="-73.04839837364852428436279296875">
        <ele>653.20001220703125</ele>
        <time>2023-01-11T15:38:49.000Z</time>
      </trkpt>
      <trkpt lat="-49.22305402345955371856689453125" lon="-73.04843039251863956451416015625">
        <ele>653.20001220703125</ele>
        <time>2023-01-11T15:38:52.000Z</time>
      </trkpt>
      <trkpt lat="-49.22311839647591114044189453125" lon="-73.0484643392264842987060546875">
        <ele>653.20001220703125</ele>
        <time>2023-01-11T15:38:57.000Z</time>
      </trkpt>
      <trkpt lat="-49.22316491603851318359375" lon="-73.0485092662274837493896484375">
        <ele>653.20001220703125</ele>
        <time>2023-01-11T15:39:04.000Z</time>
      </trkpt>
      <trkpt lat="-49.22317631542682647705078125" lon="-73.0485163070261478424072265625">
        <ele>653.20001220703125</ele>
        <time>2023-01-11T15:39:05.000Z</time>
      </trkpt>
      <trkpt lat="-49.223189055919647216796875" lon="-73.04851454682648181915283203125">
        <ele>653.20001220703125</ele>
        <time>2023-01-11T15:39:06.000Z</time>
      </trkpt>
      <trkpt lat="-49.22320581972599029541015625" lon="-73.04852426983416080474853515625">
        <ele>653.20001220703125</ele>
        <time>2023-01-11T15:39:08.000Z</time>
      </trkpt>
      <trkpt lat="-49.22321428544819355010986328125" lon="-73.048535250127315521240234375">
        <ele>653.20001220703125</ele>
        <time>2023-01-11T15:39:09.000Z</time>
      </trkpt>
      <trkpt lat="-49.2232371680438518524169921875" lon="-73.0485642515122890472412109375">
        <ele>653.20001220703125</ele>
        <time>2023-01-11T15:39:12.000Z</time>
      </trkpt>
      <trkpt lat="-49.22330631874501705169677734375" lon="-73.04861227981746196746826171875">
        <ele>653.20001220703125</ele>
        <time>2023-01-11T15:39:20.000Z</time>
      </trkpt>
      <trkpt lat="-49.22331403009593486785888671875" lon="-73.0486380122601985931396484375">
        <ele>653.20001220703125</ele>
        <time>2023-01-11T15:39:22.000Z</time>
      </trkpt>
      <trkpt lat="-49.223367758095264434814453125" lon="-73.04867782630026340484619140625">
        <ele>653.20001220703125</ele>
        <time>2023-01-11T15:39:28.000Z</time>
      </trkpt>
      <trkpt lat="-49.2234165407717227935791015625" lon="-73.04872442968189716339111328125">
        <ele>653.20001220703125</ele>
        <time>2023-01-11T15:39:34.000Z</time>
      </trkpt>
      <trkpt lat="-49.22344294376671314239501953125" lon="-73.0487541854381561279296875">
        <ele>653.20001220703125</ele>
        <time>2023-01-11T15:39:37.000Z</time>
      </trkpt>
      <trkpt lat="-49.223446212708950042724609375" lon="-73.04877958260476589202880859375">
        <ele>653.20001220703125</ele>
        <time>2023-01-11T15:39:44.000Z</time>
      </trkpt>
      <trkpt lat="-49.22344830818474292755126953125" lon="-73.048779666423797607421875">
        <ele>653.20001220703125</ele>
        <time>2023-01-11T15:39:55.000Z</time>
      </trkpt>
      <trkpt lat="-49.223436154425144195556640625" lon="-73.04877975024282932281494140625">
        <ele>653.20001220703125</ele>
        <time>2023-01-11T15:40:09.000Z</time>
      </trkpt>
      <trkpt lat="-49.22344051301479339599609375" lon="-73.04880020208656787872314453125">
        <ele>653.20001220703125</ele>
        <time>2023-01-11T15:40:30.000Z</time>
      </trkpt>
      <trkpt lat="-49.22343858517706394195556640625" lon="-73.048790395259857177734375">
        <ele>653.20001220703125</ele>
        <time>2023-01-11T15:40:52.000Z</time>
      </trkpt>
      <trkpt lat="-49.22344344668090343475341796875" lon="-73.04877631366252899169921875">
        <ele>653.20001220703125</ele>
        <time>2023-01-11T15:41:09.000Z</time>
      </trkpt>
      <trkpt lat="-49.22344612888991832733154296875" lon="-73.04877631366252899169921875">
        <ele>653.20001220703125</ele>
        <time>2023-01-11T15:41:10.000Z</time>
      </trkpt>
      <trkpt lat="-49.22345786355435848236083984375" lon="-73.0488381721079349517822265625">
        <ele>653.20001220703125</ele>
        <time>2023-01-11T15:41:28.000Z</time>
      </trkpt>
      <trkpt lat="-49.22345266677439212799072265625" lon="-73.04884697310626506805419921875">
        <ele>653.20001220703125</ele>
        <time>2023-01-11T15:41:34.000Z</time>
      </trkpt>
      <trkpt lat="-49.2234507389366626739501953125" lon="-73.04885032586753368377685546875">
        <ele>653.20001220703125</ele>
        <time>2023-01-11T15:41:47.000Z</time>
      </trkpt>
      <trkpt lat="-49.223456941545009613037109375" lon="-73.0488388426601886749267578125">
        <ele>653.20001220703125</ele>
        <time>2023-01-11T15:41:56.000Z</time>
      </trkpt>
      <trkpt lat="-49.22346389852464199066162109375" lon="-73.048824258148670196533203125">
        <ele>653.20001220703125</ele>
        <time>2023-01-11T15:42:06.000Z</time>
      </trkpt>
      <trkpt lat="-49.2234681732952594757080078125" lon="-73.0488240905106067657470703125">
        <ele>653.20001220703125</ele>
        <time>2023-01-11T15:42:08.000Z</time>
      </trkpt>
      <trkpt lat="-49.22347093932330608367919921875" lon="-73.04882400669157505035400390625">
        <ele>653.20001220703125</ele>
        <time>2023-01-11T15:42:10.000Z</time>
      </trkpt>
      <trkpt lat="-49.2234752140939235687255859375" lon="-73.04882685653865337371826171875">
        <ele>653.20001220703125</ele>
        <time>2023-01-11T15:42:16.000Z</time>
      </trkpt>
      <trkpt lat="-49.22347563318908214569091796875" lon="-73.0488277785480022430419921875">
        <ele>653.20001220703125</ele>
        <time>2023-01-11T15:42:18.000Z</time>
      </trkpt>
      <trkpt lat="-49.2234800755977630615234375" lon="-73.0488411895930767059326171875">
        <ele>653.20001220703125</ele>
        <time>2023-01-11T15:42:30.000Z</time>
      </trkpt>
      <trkpt lat="-49.22348074615001678466796875" lon="-73.04884278215467929840087890625">
        <ele>653.20001220703125</ele>
        <time>2023-01-11T15:42:31.000Z</time>
      </trkpt>
      <trkpt lat="-49.22349574975669384002685546875" lon="-73.0488579533994197845458984375">
        <ele>653.20001220703125</ele>
        <time>2023-01-11T15:42:50.000Z</time>
      </trkpt>
      <trkpt lat="-49.2235358990728855133056640625" lon="-73.0489231646060943603515625">
        <ele>653.20001220703125</ele>
        <time>2023-01-11T15:42:58.000Z</time>
      </trkpt>
      <trkpt lat="-49.223595075309276580810546875" lon="-73.04899298585951328277587890625">
        <ele>653.20001220703125</ele>
        <time>2023-01-11T15:43:06.000Z</time>
      </trkpt>
      <trkpt lat="-49.22363019548356533050537109375" lon="-73.04905232973396778106689453125">
        <ele>653.20001220703125</ele>
        <time>2023-01-11T15:43:12.000Z</time>
      </trkpt>
      <trkpt lat="-49.2236700095236301422119140625" lon="-73.0490695126354694366455078125">
        <ele>653.20001220703125</ele>
        <time>2023-01-11T15:43:17.000Z</time>
      </trkpt>
      <trkpt lat="-49.2236951552331447601318359375" lon="-73.04907672107219696044921875">
        <ele>653.20001220703125</ele>
        <time>2023-01-11T15:43:19.000Z</time>
      </trkpt>
      <trkpt lat="-49.22374720685184001922607421875" lon="-73.04912055842578411102294921875">
        <ele>653.20001220703125</ele>
        <time>2023-01-11T15:43:26.000Z</time>
      </trkpt>
      <trkpt lat="-49.22375944443047046661376953125" lon="-73.0491187982261180877685546875">
        <ele>653.20001220703125</ele>
        <time>2023-01-11T15:43:28.000Z</time>
      </trkpt>
      <trkpt lat="-49.22383320517838001251220703125" lon="-73.04921125061810016632080078125">
        <ele>653.20001220703125</ele>
        <time>2023-01-11T15:43:37.000Z</time>
      </trkpt>
      <trkpt lat="-49.223838150501251220703125" lon="-73.04922415874898433685302734375">
        <ele>653.20001220703125</ele>
        <time>2023-01-11T15:43:38.000Z</time>
      </trkpt>
      <trkpt lat="-49.22387746162712574005126953125" lon="-73.0492669902741909027099609375">
        <ele>653.20001220703125</ele>
        <time>2023-01-11T15:43:45.000Z</time>
      </trkpt>
      <trkpt lat="-49.22391233034431934356689453125" lon="-73.0492341332137584686279296875">
        <ele>653.20001220703125</ele>
        <time>2023-01-11T15:43:51.000Z</time>
      </trkpt>
      <trkpt lat="-49.22393093816936016082763671875" lon="-73.04923840798437595367431640625">
        <ele>653.20001220703125</ele>
        <time>2023-01-11T15:43:54.000Z</time>
      </trkpt>
      <trkpt lat="-49.22393613494932651519775390625" lon="-73.049244694411754608154296875">
        <ele>653.20001220703125</ele>
        <time>2023-01-11T15:43:55.000Z</time>
      </trkpt>
      <trkpt lat="-49.22393940389156341552734375" lon="-73.04927051067352294921875">
        <ele>653.20001220703125</ele>
        <time>2023-01-11T15:44:00.000Z</time>
      </trkpt>
      <trkpt lat="-49.2239432595670223236083984375" lon="-73.04927520453929901123046875">
        <ele>653.20001220703125</ele>
        <time>2023-01-11T15:44:01.000Z</time>
      </trkpt>
      <trkpt lat="-49.22396614216268062591552734375" lon="-73.04929138161242008209228515625">
        <ele>653.20001220703125</ele>
        <time>2023-01-11T15:44:05.000Z</time>
      </trkpt>
      <trkpt lat="-49.224008135497570037841796875" lon="-73.04931619204580783843994140625">
        <ele>653.20001220703125</ele>
        <time>2023-01-11T15:44:11.000Z</time>
      </trkpt>
      <trkpt lat="-49.22406303696334362030029296875" lon="-73.04937788285315036773681640625">
        <ele>653.20001220703125</ele>
        <time>2023-01-11T15:44:18.000Z</time>
      </trkpt>
      <trkpt lat="-49.22407141886651515960693359375" lon="-73.04938257671892642974853515625">
        <ele>653.20001220703125</ele>
        <time>2023-01-11T15:44:19.000Z</time>
      </trkpt>
      <trkpt lat="-49.22412087209522724151611328125" lon="-73.049404956400394439697265625">
        <ele>653.20001220703125</ele>
        <time>2023-01-11T15:44:27.000Z</time>
      </trkpt>
      <trkpt lat="-49.22413118183612823486328125" lon="-73.04941493086516857147216796875">
        <ele>653.20001220703125</ele>
        <time>2023-01-11T15:44:32.000Z</time>
      </trkpt>
      <trkpt lat="-49.22412849962711334228515625" lon="-73.04942398332059383392333984375">
        <ele>653.20001220703125</ele>
        <time>2023-01-11T15:44:39.000Z</time>
      </trkpt>
      <trkpt lat="-49.22413763590157032012939453125" lon="-73.04942264221608638763427734375">
        <ele>653.20001220703125</ele>
        <time>2023-01-11T15:44:46.000Z</time>
      </trkpt>
      <trkpt lat="-49.2241521365940570831298828125" lon="-73.04944259114563465118408203125">
        <ele>659</ele>
        <time>2023-01-11T15:44:50.000Z</time>
      </trkpt>
      <trkpt lat="-49.2241595126688480377197265625" lon="-73.04943538270890712738037109375">
        <ele>659</ele>
        <time>2023-01-11T15:44:52.000Z</time>
      </trkpt>
      <trkpt lat="-49.224179796874523162841796875" lon="-73.04944560863077640533447265625">
        <ele>658.20001220703125</ele>
        <time>2023-01-11T15:44:54.000Z</time>
      </trkpt>
      <trkpt lat="-49.22419027425348758697509765625" lon="-73.04947829805314540863037109375">
        <ele>658.20001220703125</ele>
        <time>2023-01-11T15:44:58.000Z</time>
      </trkpt>
      <trkpt lat="-49.22420619986951351165771484375" lon="-73.049514256417751312255859375">
        <ele>658.5999755859375</ele>
        <time>2023-01-11T15:45:02.000Z</time>
      </trkpt>
      <trkpt lat="-49.2242339439690113067626953125" lon="-73.0496176891028881072998046875">
        <ele>659</ele>
        <time>2023-01-11T15:45:14.000Z</time>
      </trkpt>
      <trkpt lat="-49.22425179742276668548583984375" lon="-73.049702681601047515869140625">
        <ele>659.5999755859375</ele>
        <time>2023-01-11T15:45:23.000Z</time>
      </trkpt>
      <trkpt lat="-49.2243234626948833465576171875" lon="-73.049779795110225677490234375">
        <ele>659.79998779296875</ele>
        <time>2023-01-11T15:45:33.000Z</time>
      </trkpt>
      <trkpt lat="-49.22432639636099338531494140625" lon="-73.04978809319436550140380859375">
        <ele>660</ele>
        <time>2023-01-11T15:45:35.000Z</time>
      </trkpt>
      <trkpt lat="-49.22434936277568340301513671875" lon="-73.04984358139336109161376953125">
        <ele>660.5999755859375</ele>
        <time>2023-01-11T15:45:42.000Z</time>
      </trkpt>
      <trkpt lat="-49.224352128803730010986328125" lon="-73.04985363967716693878173828125">
        <ele>660.5999755859375</ele>
        <time>2023-01-11T15:45:43.000Z</time>
      </trkpt>
      <trkpt lat="-49.224360845983028411865234375" lon="-73.0498929508030414581298828125">
        <ele>660.5999755859375</ele>
        <time>2023-01-11T15:45:47.000Z</time>
      </trkpt>
      <trkpt lat="-49.22437953762710094451904296875" lon="-73.049917928874492645263671875">
        <ele>660.5999755859375</ele>
        <time>2023-01-11T15:45:51.000Z</time>
      </trkpt>
      <trkpt lat="-49.22440074384212493896484375" lon="-73.04992740042507648468017578125">
        <ele>661.20001220703125</ele>
        <time>2023-01-11T15:45:54.000Z</time>
      </trkpt>
      <trkpt lat="-49.2244408093392848968505859375" lon="-73.04997601546347141265869140625">
        <ele>662</ele>
        <time>2023-01-11T15:46:00.000Z</time>
      </trkpt>
      <trkpt lat="-49.2244448326528072357177734375" lon="-73.04998406209051609039306640625">
        <ele>662.20001220703125</ele>
        <time>2023-01-11T15:46:01.000Z</time>
      </trkpt>
      <trkpt lat="-49.2244954593479633331298828125" lon="-73.0500739999115467071533203125">
        <ele>662</ele>
        <time>2023-01-11T15:46:09.000Z</time>
      </trkpt>
      <trkpt lat="-49.2245061881840229034423828125" lon="-73.05008296854794025421142578125">
        <ele>662</ele>
        <time>2023-01-11T15:46:10.000Z</time>
      </trkpt>
      <trkpt lat="-49.224531166255474090576171875" lon="-73.05016569793224334716796875">
        <ele>662</ele>
        <time>2023-01-11T15:46:17.000Z</time>
      </trkpt>
      <trkpt lat="-49.224541895091533660888671875" lon="-73.0501910112798213958740234375">
        <ele>662.20001220703125</ele>
        <time>2023-01-11T15:46:19.000Z</time>
      </trkpt>
      <trkpt lat="-49.22456796281039714813232421875" lon="-73.05027508176863193511962890625">
        <ele>663.20001220703125</ele>
        <time>2023-01-11T15:46:27.000Z</time>
      </trkpt>
      <trkpt lat="-49.2245645262300968170166015625" lon="-73.05027659051120281219482421875">
        <ele>663.4000244140625</ele>
        <time>2023-01-11T15:46:29.000Z</time>
      </trkpt>
      <trkpt lat="-49.22458036802709102630615234375" lon="-73.05031280033290386199951171875">
        <ele>663.79998779296875</ele>
        <time>2023-01-11T15:46:37.000Z</time>
      </trkpt>
      <trkpt lat="-49.22460182569921016693115234375" lon="-73.05037717334926128387451171875">
        <ele>663.79998779296875</ele>
        <time>2023-01-11T15:46:43.000Z</time>
      </trkpt>
      <trkpt lat="-49.22462739050388336181640625" lon="-73.05042193271219730377197265625">
        <ele>664.4000244140625</ele>
        <time>2023-01-11T15:46:48.000Z</time>
      </trkpt>
      <trkpt lat="-49.22464641742408275604248046875" lon="-73.0504575558006763458251953125">
        <ele>665.5999755859375</ele>
        <time>2023-01-11T15:46:52.000Z</time>
      </trkpt>
      <trkpt lat="-49.224661923944950103759765625" lon="-73.0504662729799747467041015625">
        <ele>665.5999755859375</ele>
        <time>2023-01-11T15:46:55.000Z</time>
      </trkpt>
      <trkpt lat="-49.22468430362641811370849609375" lon="-73.05045596323907375335693359375">
        <ele>666.5999755859375</ele>
        <time>2023-01-11T15:47:02.000Z</time>
      </trkpt>
      <trkpt lat="-49.224686734378337860107421875" lon="-73.0504521913826465606689453125">
        <ele>666.79998779296875</ele>
        <time>2023-01-11T15:47:03.000Z</time>
      </trkpt>
      <trkpt lat="-49.22468774020671844482421875" lon="-73.05046736262738704681396484375">
        <ele>667</ele>
        <time>2023-01-11T15:47:10.000Z</time>
      </trkpt>
      <trkpt lat="-49.224723614752292633056640625" lon="-73.0504377745091915130615234375">
        <ele>666.20001220703125</ele>
        <time>2023-01-11T15:47:16.000Z</time>
      </trkpt>
      <trkpt lat="-49.22473928891122341156005859375" lon="-73.05041958577930927276611328125">
        <ele>667.5999755859375</ele>
        <time>2023-01-11T15:47:23.000Z</time>
      </trkpt>
      <trkpt lat="-49.224750436842441558837890625" lon="-73.05040986277163028717041015625">
        <ele>667.79998779296875</ele>
        <time>2023-01-11T15:47:25.000Z</time>
      </trkpt>
      <trkpt lat="-49.2247905023396015167236328125" lon="-73.0504032410681247711181640625">
        <ele>667.79998779296875</ele>
        <time>2023-01-11T15:47:30.000Z</time>
      </trkpt>
      <trkpt lat="-49.22485361807048320770263671875" lon="-73.05040533654391765594482421875">
        <ele>668.5999755859375</ele>
        <time>2023-01-11T15:47:39.000Z</time>
      </trkpt>
      <trkpt lat="-49.22487893141806125640869140625" lon="-73.05046870373189449310302734375">
        <ele>669</ele>
        <time>2023-01-11T15:47:44.000Z</time>
      </trkpt>
      <trkpt lat="-49.22488463111221790313720703125" lon="-73.05046920664608478546142578125">
        <ele>669.5999755859375</ele>
        <time>2023-01-11T15:47:47.000Z</time>
      </trkpt>
      <trkpt lat="-49.2249044962227344512939453125" lon="-73.0505024828016757965087890625">
        <ele>670</ele>
        <time>2023-01-11T15:47:50.000Z</time>
      </trkpt>
      <trkpt lat="-49.224911369383335113525390625" lon="-73.05051715113222599029541015625">
        <ele>671.20001220703125</ele>
        <time>2023-01-11T15:47:51.000Z</time>
      </trkpt>
      <trkpt lat="-49.22492234967648983001708984375" lon="-73.05052989162504673004150390625">
        <ele>671.4000244140625</ele>
        <time>2023-01-11T15:47:52.000Z</time>
      </trkpt>
      <trkpt lat="-49.22492620535194873809814453125" lon="-73.05057205259799957275390625">
        <ele>671.5999755859375</ele>
        <time>2023-01-11T15:47:55.000Z</time>
      </trkpt>
      <trkpt lat="-49.22495000995695590972900390625" lon="-73.050624690949916839599609375">
        <ele>672.20001220703125</ele>
        <time>2023-01-11T15:48:03.000Z</time>
      </trkpt>
      <trkpt lat="-49.22494590282440185546875" lon="-73.050625026226043701171875">
        <ele>672.20001220703125</ele>
        <time>2023-01-11T15:48:04.000Z</time>
      </trkpt>
      <trkpt lat="-49.22491916455328464508056640625" lon="-73.0506117828190326690673828125">
        <ele>672.20001220703125</ele>
        <time>2023-01-11T15:48:06.000Z</time>
      </trkpt>
      <trkpt lat="-49.224909357726573944091796875" lon="-73.05061630904674530029296875">
        <ele>672.20001220703125</ele>
        <time>2023-01-11T15:48:08.000Z</time>
      </trkpt>
      <trkpt lat="-49.224963001906871795654296875" lon="-73.05062837898731231689453125">
        <ele>672.79998779296875</ele>
        <time>2023-01-11T15:48:16.000Z</time>
      </trkpt>
      <trkpt lat="-49.2249869741499423980712890625" lon="-73.0506174825131893157958984375">
        <ele>673.4000244140625</ele>
        <time>2023-01-11T15:48:19.000Z</time>
      </trkpt>
      <trkpt lat="-49.22503198496997356414794921875" lon="-73.050628043711185455322265625">
        <ele>674.4000244140625</ele>
        <time>2023-01-11T15:48:24.000Z</time>
      </trkpt>
      <trkpt lat="-49.2250402830541133880615234375" lon="-73.05063030682504177093505859375">
        <ele>674.4000244140625</ele>
        <time>2023-01-11T15:48:25.000Z</time>
      </trkpt>
      <trkpt lat="-49.22507942654192447662353515625" lon="-73.050605915486812591552734375">
        <ele>675.4000244140625</ele>
        <time>2023-01-11T15:48:32.000Z</time>
      </trkpt>
      <trkpt lat="-49.2250838689506053924560546875" lon="-73.05061186663806438446044921875">
        <ele>675.5999755859375</ele>
        <time>2023-01-11T15:48:33.000Z</time>
      </trkpt>
      <trkpt lat="-49.2251002974808216094970703125" lon="-73.05064908228814601898193359375">
        <ele>676.5999755859375</ele>
        <time>2023-01-11T15:48:38.000Z</time>
      </trkpt>
      <trkpt lat="-49.22510658390820026397705078125" lon="-73.050671629607677459716796875">
        <ele>676.79998779296875</ele>
        <time>2023-01-11T15:48:40.000Z</time>
      </trkpt>
      <trkpt lat="-49.22511957585811614990234375" lon="-73.05069635622203350067138671875">
        <ele>677.5999755859375</ele>
        <time>2023-01-11T15:48:43.000Z</time>
      </trkpt>
      <trkpt lat="-49.2251298017799854278564453125" lon="-73.05070389993488788604736328125">
        <ele>679</ele>
        <time>2023-01-11T15:48:47.000Z</time>
      </trkpt>
      <trkpt lat="-49.225138686597347259521484375" lon="-73.050693087279796600341796875">
        <ele>680.4000244140625</ele>
        <time>2023-01-11T15:48:50.000Z</time>
      </trkpt>
      <trkpt lat="-49.22514078207314014434814453125" lon="-73.0507009662687778472900390625">
        <ele>680</ele>
        <time>2023-01-11T15:48:51.000Z</time>
      </trkpt>
      <trkpt lat="-49.22518403269350528717041015625" lon="-73.0507497489452362060546875">
        <ele>681.5999755859375</ele>
        <time>2023-01-11T15:49:00.000Z</time>
      </trkpt>
      <trkpt lat="-49.22518906183540821075439453125" lon="-73.05075402371585369110107421875">
        <ele>681.79998779296875</ele>
        <time>2023-01-11T15:49:01.000Z</time>
      </trkpt>
      <trkpt lat="-49.225223846733570098876953125" lon="-73.05080414749681949615478515625">
        <ele>683</ele>
        <time>2023-01-11T15:49:10.000Z</time>
      </trkpt>
      <trkpt lat="-49.22522552311420440673828125" lon="-73.0508099310100078582763671875">
        <ele>683.20001220703125</ele>
        <time>2023-01-11T15:49:11.000Z</time>
      </trkpt>
      <trkpt lat="-49.22522996552288532257080078125" lon="-73.050825186073780059814453125">
        <ele>684</ele>
        <time>2023-01-11T15:49:13.000Z</time>
      </trkpt>
      <trkpt lat="-49.22526801936328411102294921875" lon="-73.0508689396083354949951171875">
        <ele>684.20001220703125</ele>
        <time>2023-01-11T15:49:20.000Z</time>
      </trkpt>
      <trkpt lat="-49.22528319060802459716796875" lon="-73.0509601347148418426513671875">
        <ele>684.20001220703125</ele>
        <time>2023-01-11T15:49:29.000Z</time>
      </trkpt>
      <trkpt lat="-49.22530573792755603790283203125" lon="-73.05101729929447174072265625">
        <ele>685.4000244140625</ele>
        <time>2023-01-11T15:49:36.000Z</time>
      </trkpt>
      <trkpt lat="-49.22531328164041042327880859375" lon="-73.05104034952819347381591796875">
        <ele>685.5999755859375</ele>
        <time>2023-01-11T15:49:39.000Z</time>
      </trkpt>
      <trkpt lat="-49.2253313027322292327880859375" lon="-73.05107236839830875396728515625">
        <ele>686</ele>
        <time>2023-01-11T15:49:44.000Z</time>
      </trkpt>
      <trkpt lat="-49.22533088363707065582275390625" lon="-73.05110991932451725006103515625">
        <ele>686.4000244140625</ele>
        <time>2023-01-11T15:49:50.000Z</time>
      </trkpt>
      <trkpt lat="-49.22532635740935802459716796875" lon="-73.051104806363582611083984375">
        <ele>686.4000244140625</ele>
        <time>2023-01-11T15:49:51.000Z</time>
      </trkpt>
      <trkpt lat="-49.22531613148748874664306640625" lon="-73.0510892160236835479736328125">
        <ele>686.4000244140625</ele>
        <time>2023-01-11T15:49:57.000Z</time>
      </trkpt>
      <trkpt lat="-49.225316382944583892822265625" lon="-73.0510892160236835479736328125">
        <ele>686.4000244140625</ele>
        <time>2023-01-11T15:50:04.000Z</time>
      </trkpt>
      <trkpt lat="-49.2253227531909942626953125" lon="-73.05109114386141300201416015625">
        <ele>687.5999755859375</ele>
        <time>2023-01-11T15:50:13.000Z</time>
      </trkpt>
      <trkpt lat="-49.2253245972096920013427734375" lon="-73.05109114386141300201416015625">
        <ele>689</ele>
        <time>2023-01-11T15:50:16.000Z</time>
      </trkpt>
      <trkpt lat="-49.225361645221710205078125" lon="-73.0510877072811126708984375">
        <ele>689.20001220703125</ele>
        <time>2023-01-11T15:50:22.000Z</time>
      </trkpt>
      <trkpt lat="-49.22538536600768566131591796875" lon="-73.051079325377941131591796875">
        <ele>689.20001220703125</ele>
        <time>2023-01-11T15:50:24.000Z</time>
      </trkpt>
      <trkpt lat="-49.22542744316160678863525390625" lon="-73.0510627292096614837646484375">
        <ele>690.5999755859375</ele>
        <time>2023-01-11T15:50:28.000Z</time>
      </trkpt>
      <trkpt lat="-49.225450493395328521728515625" lon="-73.05104135535657405853271484375">
        <ele>691.4000244140625</ele>
        <time>2023-01-11T15:50:33.000Z</time>
      </trkpt>
      <trkpt lat="-49.22550355084240436553955078125" lon="-73.05108594708144664764404296875">
        <ele>691.4000244140625</ele>
        <time>2023-01-11T15:50:42.000Z</time>
      </trkpt>
      <trkpt lat="-49.225510172545909881591796875" lon="-73.05111025460064411163330078125">
        <ele>692</ele>
        <time>2023-01-11T15:50:45.000Z</time>
      </trkpt>
      <trkpt lat="-49.225521571934223175048828125" lon="-73.05111922323703765869140625">
        <ele>693</ele>
        <time>2023-01-11T15:50:49.000Z</time>
      </trkpt>
      <trkpt lat="-49.22552433796226978302001953125" lon="-73.05112148635089397430419921875">
        <ele>694</ele>
        <time>2023-01-11T15:50:50.000Z</time>
      </trkpt>
      <trkpt lat="-49.22552785836160182952880859375" lon="-73.05114336311817169189453125">
        <ele>694.4000244140625</ele>
        <time>2023-01-11T15:50:53.000Z</time>
      </trkpt>
      <trkpt lat="-49.2255348153412342071533203125" lon="-73.05118552409112453460693359375">
        <ele>695</ele>
        <time>2023-01-11T15:50:58.000Z</time>
      </trkpt>
      <trkpt lat="-49.2255358211696147918701171875" lon="-73.05119206197559833526611328125">
        <ele>695.4000244140625</ele>
        <time>2023-01-11T15:50:59.000Z</time>
      </trkpt>
      <trkpt lat="-49.225555099546909332275390625" lon="-73.0512018688023090362548828125">
        <ele>696.20001220703125</ele>
        <time>2023-01-11T15:51:03.000Z</time>
      </trkpt>
      <trkpt lat="-49.22555836848914623260498046875" lon="-73.0512042157351970672607421875">
        <ele>696.20001220703125</ele>
        <time>2023-01-11T15:51:04.000Z</time>
      </trkpt>
      <trkpt lat="-49.22556440345942974090576171875" lon="-73.05121838115155696868896484375">
        <ele>695.5999755859375</ele>
        <time>2023-01-11T15:51:06.000Z</time>
      </trkpt>
      <trkpt lat="-49.22560798935592174530029296875" lon="-73.05128325708210468292236328125">
        <ele>696</ele>
        <time>2023-01-11T15:51:15.000Z</time>
      </trkpt>
      <trkpt lat="-49.225592315196990966796875" lon="-73.05127479135990142822265625">
        <ele>695.79998779296875</ele>
        <time>2023-01-11T15:51:25.000Z</time>
      </trkpt>
      <trkpt lat="-49.2256303690373897552490234375" lon="-73.05125408805906772613525390625">
        <ele>696.20001220703125</ele>
        <time>2023-01-11T15:51:32.000Z</time>
      </trkpt>
      <trkpt lat="-49.2256303690373897552490234375" lon="-73.05125408805906772613525390625">
        <ele>696.4000244140625</ele>
        <time>2023-01-11T15:51:38.000Z</time>
      </trkpt>
      <trkpt lat="-49.22562408261001110076904296875" lon="-73.0512541718780994415283203125">
        <ele>696.4000244140625</ele>
        <time>2023-01-11T15:51:45.000Z</time>
      </trkpt>
      <trkpt lat="-49.22562207095324993133544921875" lon="-73.05125492624938488006591796875">
        <ele>696.5999755859375</ele>
        <time>2023-01-11T15:51:47.000Z</time>
      </trkpt>
      <trkpt lat="-49.2256219871342182159423828125" lon="-73.05125660263001918792724609375">
        <ele>696.20001220703125</ele>
        <time>2023-01-11T15:51:53.000Z</time>
      </trkpt>
      <trkpt lat="-49.22564956359565258026123046875" lon="-73.05127303116023540496826171875">
        <ele>696.4000244140625</ele>
        <time>2023-01-11T15:51:56.000Z</time>
      </trkpt>
      <trkpt lat="-49.2257383279502391815185546875" lon="-73.051359616219997406005859375">
        <ele>697</ele>
        <time>2023-01-11T15:52:03.000Z</time>
      </trkpt>
      <trkpt lat="-49.22577135264873504638671875" lon="-73.051367662847042083740234375">
        <ele>697.5999755859375</ele>
        <time>2023-01-11T15:52:07.000Z</time>
      </trkpt>
      <trkpt lat="-49.22578367404639720916748046875" lon="-73.05138400755822658538818359375">
        <ele>697.79998779296875</ele>
        <time>2023-01-11T15:52:09.000Z</time>
      </trkpt>
      <trkpt lat="-49.22583195380866527557373046875" lon="-73.05139590986073017120361328125">
        <ele>698.4000244140625</ele>
        <time>2023-01-11T15:52:17.000Z</time>
      </trkpt>
      <trkpt lat="-49.2258600331842899322509765625" lon="-73.0514335446059703826904296875">
        <ele>698.79998779296875</ele>
        <time>2023-01-11T15:52:22.000Z</time>
      </trkpt>
      <trkpt lat="-49.225871264934539794921875" lon="-73.05144905112683773040771484375">
        <ele>699.4000244140625</ele>
        <time>2023-01-11T15:52:24.000Z</time>
      </trkpt>
      <trkpt lat="-49.22588392160832881927490234375" lon="-73.0514643900096416473388671875">
        <ele>699.79998779296875</ele>
        <time>2023-01-11T15:52:26.000Z</time>
      </trkpt>
      <trkpt lat="-49.2258989252150058746337890625" lon="-73.05148291401565074920654296875">
        <ele>700.4000244140625</ele>
        <time>2023-01-11T15:52:30.000Z</time>
      </trkpt>
      <trkpt lat="-49.2259061336517333984375" lon="-73.051497079432010650634765625">
        <ele>700.5999755859375</ele>
        <time>2023-01-11T15:52:32.000Z</time>
      </trkpt>
      <trkpt lat="-49.225919209420680999755859375" lon="-73.05154410190880298614501953125">
        <ele>700.79998779296875</ele>
        <time>2023-01-11T15:52:36.000Z</time>
      </trkpt>
      <trkpt lat="-49.22592750750482082366943359375" lon="-73.0515611171722412109375">
        <ele>701.4000244140625</ele>
        <time>2023-01-11T15:52:38.000Z</time>
      </trkpt>
      <trkpt lat="-49.22593572176992893218994140625" lon="-73.051564805209636688232421875">
        <ele>701.4000244140625</ele>
        <time>2023-01-11T15:52:39.000Z</time>
      </trkpt>
      <trkpt lat="-49.2259867675602436065673828125" lon="-73.0515678226947784423828125">
        <ele>702.4000244140625</ele>
        <time>2023-01-11T15:52:48.000Z</time>
      </trkpt>
      <trkpt lat="-49.22601853497326374053955078125" lon="-73.0515938065946102142333984375">
        <ele>703.5999755859375</ele>
        <time>2023-01-11T15:52:52.000Z</time>
      </trkpt>
      <trkpt lat="-49.22604284249246120452880859375" lon="-73.0516179464757442474365234375">
        <ele>704.20001220703125</ele>
        <time>2023-01-11T15:52:58.000Z</time>
      </trkpt>
      <trkpt lat="-49.226064048707485198974609375" lon="-73.05163043551146984100341796875">
        <ele>704.4000244140625</ele>
        <time>2023-01-11T15:53:00.000Z</time>
      </trkpt>
      <trkpt lat="-49.22609866596758365631103515625" lon="-73.05168810300529003143310546875">
        <ele>704</ele>
        <time>2023-01-11T15:53:10.000Z</time>
      </trkpt>
      <trkpt lat="-49.2260943911969661712646484375" lon="-73.0516860075294971466064453125">
        <ele>704</ele>
        <time>2023-01-11T15:53:11.000Z</time>
      </trkpt>
      <trkpt lat="-49.2261195369064807891845703125" lon="-73.05168944410979747772216796875">
        <ele>704.20001220703125</ele>
        <time>2023-01-11T15:53:18.000Z</time>
      </trkpt>
      <trkpt lat="-49.2261440120637416839599609375" lon="-73.051714338362216949462890625">
        <ele>704.5999755859375</ele>
        <time>2023-01-11T15:53:22.000Z</time>
      </trkpt>
      <trkpt lat="-49.2261554114520549774169921875" lon="-73.05173755623400211334228515625">
        <ele>705.79998779296875</ele>
        <time>2023-01-11T15:53:26.000Z</time>
      </trkpt>
      <trkpt lat="-49.22613747417926788330078125" lon="-73.05173537693917751312255859375">
        <ele>706.20001220703125</ele>
        <time>2023-01-11T15:53:30.000Z</time>
      </trkpt>
      <trkpt lat="-49.2261245660483837127685546875" lon="-73.051714338362216949462890625">
        <ele>706.20001220703125</ele>
        <time>2023-01-11T15:53:32.000Z</time>
      </trkpt>
      <trkpt lat="-49.2261175252497196197509765625" lon="-73.05168382823467254638671875">
        <ele>707</ele>
        <time>2023-01-11T15:53:43.000Z</time>
      </trkpt>
      <trkpt lat="-49.2261327803134918212890625" lon="-73.05169866420328617095947265625">
        <ele>706.79998779296875</ele>
        <time>2023-01-11T15:53:50.000Z</time>
      </trkpt>
      <trkpt lat="-49.22614191658794879913330078125" lon="-73.05171425454318523406982421875">
        <ele>706.79998779296875</ele>
        <time>2023-01-11T15:53:54.000Z</time>
      </trkpt>
      <trkpt lat="-49.22616203315556049346923828125" lon="-73.051745183765888214111328125">
        <ele>706.79998779296875</ele>
        <time>2023-01-11T15:53:58.000Z</time>
      </trkpt>
      <trkpt lat="-49.22621467150747776031494140625" lon="-73.051783405244350433349609375">
        <ele>706.4000244140625</ele>
        <time>2023-01-11T15:54:02.000Z</time>
      </trkpt>
      <trkpt lat="-49.22631525434553623199462890625" lon="-73.05186948738992214202880859375">
        <ele>705.79998779296875</ele>
        <time>2023-01-11T15:54:11.000Z</time>
      </trkpt>
      <trkpt lat="-49.226326234638690948486328125" lon="-73.05186948738992214202880859375">
        <ele>705.79998779296875</ele>
        <time>2023-01-11T15:54:12.000Z</time>
      </trkpt>
      <trkpt lat="-49.22640376724302768707275390625" lon="-73.05188323371112346649169921875">
        <ele>706.4000244140625</ele>
        <time>2023-01-11T15:54:21.000Z</time>
      </trkpt>
      <trkpt lat="-49.22647417522966861724853515625" lon="-73.05189882405102252960205078125">
        <ele>707.20001220703125</ele>
        <time>2023-01-11T15:54:29.000Z</time>
      </trkpt>
      <trkpt lat="-49.22648079693317413330078125" lon="-73.0519015900790691375732421875">
        <ele>707.20001220703125</ele>
        <time>2023-01-11T15:54:30.000Z</time>
      </trkpt>
      <trkpt lat="-49.2265265621244907379150390625" lon="-73.051921539008617401123046875">
        <ele>708</ele>
        <time>2023-01-11T15:54:38.000Z</time>
      </trkpt>
      <trkpt lat="-49.22656084410846233367919921875" lon="-73.05197828449308872222900390625">
        <ele>708.20001220703125</ele>
        <time>2023-01-11T15:54:47.000Z</time>
      </trkpt>
      <trkpt lat="-49.2265699803829193115234375" lon="-73.05197778157889842987060546875">
        <ele>709.4000244140625</ele>
        <time>2023-01-11T15:54:49.000Z</time>
      </trkpt>
      <trkpt lat="-49.2266019992530345916748046875" lon="-73.0519813857972621917724609375">
        <ele>710.4000244140625</ele>
        <time>2023-01-11T15:54:54.000Z</time>
      </trkpt>
      <trkpt lat="-49.22662186436355113983154296875" lon="-73.05196604691445827484130859375">
        <ele>710.79998779296875</ele>
        <time>2023-01-11T15:54:58.000Z</time>
      </trkpt>
      <trkpt lat="-49.22665472142398357391357421875" lon="-73.05197090841829776763916015625">
        <ele>711.5999755859375</ele>
        <time>2023-01-11T15:55:04.000Z</time>
      </trkpt>
      <trkpt lat="-49.2266683839261531829833984375" lon="-73.0519780330359935760498046875">
        <ele>712.20001220703125</ele>
        <time>2023-01-11T15:55:06.000Z</time>
      </trkpt>
      <trkpt lat="-49.226692020893096923828125" lon="-73.05197593756020069122314453125">
        <ele>713.4000244140625</ele>
        <time>2023-01-11T15:55:10.000Z</time>
      </trkpt>
      <trkpt lat="-49.2267148196697235107421875" lon="-73.05195900611579418182373046875">
        <ele>713.4000244140625</ele>
        <time>2023-01-11T15:55:14.000Z</time>
      </trkpt>
      <trkpt lat="-49.22674440778791904449462890625" lon="-73.05193637497723102569580078125">
        <ele>714</ele>
        <time>2023-01-11T15:55:22.000Z</time>
      </trkpt>
      <trkpt lat="-49.22676083631813526153564453125" lon="-73.05192899890244007110595703125">
        <ele>714.5999755859375</ele>
        <time>2023-01-11T15:55:25.000Z</time>
      </trkpt>
      <trkpt lat="-49.22679201699793338775634765625" lon="-73.05193520151078701019287109375">
        <ele>715.20001220703125</ele>
        <time>2023-01-11T15:55:29.000Z</time>
      </trkpt>
      <trkpt lat="-49.2268048413097858428955078125" lon="-73.0519515462219715118408203125">
        <ele>715.20001220703125</ele>
        <time>2023-01-11T15:55:32.000Z</time>
      </trkpt>
      <trkpt lat="-49.22680207528173923492431640625" lon="-73.0519438348710536956787109375">
        <ele>715.5999755859375</ele>
        <time>2023-01-11T15:55:35.000Z</time>
      </trkpt>
      <trkpt lat="-49.22680241055786609649658203125" lon="-73.0519431643187999725341796875">
        <ele>716</ele>
        <time>2023-01-11T15:55:37.000Z</time>
      </trkpt>
      <trkpt lat="-49.226796291768550872802734375" lon="-73.05194676853716373443603515625">
        <ele>714.4000244140625</ele>
        <time>2023-01-11T15:55:55.000Z</time>
      </trkpt>
      <trkpt lat="-49.22680794261395931243896484375" lon="-73.05196017958223819732666015625">
        <ele>714</ele>
        <time>2023-01-11T15:56:01.000Z</time>
      </trkpt>
      <trkpt lat="-49.226884804666042327880859375" lon="-73.052035532891750335693359375">
        <ele>714</ele>
        <time>2023-01-11T15:56:08.000Z</time>
      </trkpt>
      <trkpt lat="-49.22694523818790912628173828125" lon="-73.05207685567438602447509765625">
        <ele>714.20001220703125</ele>
        <time>2023-01-11T15:56:16.000Z</time>
      </trkpt>
      <trkpt lat="-49.2269516922533512115478515625" lon="-73.052100241184234619140625">
        <ele>713.79998779296875</ele>
        <time>2023-01-11T15:56:24.000Z</time>
      </trkpt>
      <trkpt lat="-49.22695219516754150390625" lon="-73.05210401304066181182861328125">
        <ele>713.5999755859375</ele>
        <time>2023-01-11T15:56:26.000Z</time>
      </trkpt>
      <trkpt lat="-49.22695219516754150390625" lon="-73.05210493505001068115234375">
        <ele>713</ele>
        <time>2023-01-11T15:56:28.000Z</time>
      </trkpt>
      <trkpt lat="-49.22695219516754150390625" lon="-73.05210493505001068115234375">
        <ele>713.20001220703125</ele>
        <time>2023-01-11T15:56:35.000Z</time>
      </trkpt>
      <trkpt lat="-49.22695219516754150390625" lon="-73.0521047674119472503662109375">
        <ele>713.20001220703125</ele>
        <time>2023-01-11T15:56:40.000Z</time>
      </trkpt>
      <trkpt lat="-49.22695219516754150390625" lon="-73.0521047674119472503662109375">
        <ele>714</ele>
        <time>2023-01-11T15:56:44.000Z</time>
      </trkpt>
      <trkpt lat="-49.226963929831981658935546875" lon="-73.0521181784570217132568359375">
        <ele>715.4000244140625</ele>
        <time>2023-01-11T15:56:53.000Z</time>
      </trkpt>
      <trkpt lat="-49.22701321542263031005859375" lon="-73.05216520093381404876708984375">
        <ele>715.79998779296875</ele>
        <time>2023-01-11T15:56:57.000Z</time>
      </trkpt>
      <trkpt lat="-49.227059148252010345458984375" lon="-73.05221490561962127685546875">
        <ele>716.79998779296875</ele>
        <time>2023-01-11T15:57:01.000Z</time>
      </trkpt>
      <trkpt lat="-49.22708622179925441741943359375" lon="-73.0522667057812213897705078125">
        <ele>717</ele>
        <time>2023-01-11T15:57:06.000Z</time>
      </trkpt>
      <trkpt lat="-49.2270854674279689788818359375" lon="-73.0522737465798854827880859375">
        <ele>717</ele>
        <time>2023-01-11T15:57:09.000Z</time>
      </trkpt>
      <trkpt lat="-49.2270767502486705780029296875" lon="-73.05226360447704792022705078125">
        <ele>716.5999755859375</ele>
        <time>2023-01-11T15:57:11.000Z</time>
      </trkpt>
      <trkpt lat="-49.22708940692245960235595703125" lon="-73.05227969773113727569580078125">
        <ele>716.5999755859375</ele>
        <time>2023-01-11T15:57:15.000Z</time>
      </trkpt>
      <trkpt lat="-49.2271086014807224273681640625" lon="-73.05229210294783115386962890625">
        <ele>718</ele>
        <time>2023-01-11T15:57:19.000Z</time>
      </trkpt>
      <trkpt lat="-49.2271260358393192291259765625" lon="-73.0522854812443256378173828125">
        <ele>718.5999755859375</ele>
        <time>2023-01-11T15:57:22.000Z</time>
      </trkpt>
      <trkpt lat="-49.22716383822262287139892578125" lon="-73.0523133091628551483154296875">
        <ele>718.79998779296875</ele>
        <time>2023-01-11T15:57:26.000Z</time>
      </trkpt>
      <trkpt lat="-49.2271850444376468658447265625" lon="-73.052326552569866180419921875">
        <ele>719.4000244140625</ele>
        <time>2023-01-11T15:57:29.000Z</time>
      </trkpt>
      <trkpt lat="-49.22722502611577510833740234375" lon="-73.0523696355521678924560546875">
        <ele>718.5999755859375</ele>
        <time>2023-01-11T15:57:34.000Z</time>
      </trkpt>
      <trkpt lat="-49.22724346630275249481201171875" lon="-73.05236536078155040740966796875">
        <ele>719</ele>
        <time>2023-01-11T15:57:38.000Z</time>
      </trkpt>
      <trkpt lat="-49.2272527702152729034423828125" lon="-73.05236217565834522247314453125">
        <ele>719.20001220703125</ele>
        <time>2023-01-11T15:57:40.000Z</time>
      </trkpt>
      <trkpt lat="-49.22727095894515514373779296875" lon="-73.0523537099361419677734375">
        <ele>718.4000244140625</ele>
        <time>2023-01-11T15:57:44.000Z</time>
      </trkpt>
      <trkpt lat="-49.22727565281093120574951171875" lon="-73.052360080182552337646484375">
        <ele>718.20001220703125</ele>
        <time>2023-01-11T15:57:45.000Z</time>
      </trkpt>
      <trkpt lat="-49.22728671692311763763427734375" lon="-73.05237717926502227783203125">
        <ele>718.4000244140625</ele>
        <time>2023-01-11T15:57:48.000Z</time>
      </trkpt>
      <trkpt lat="-49.22730021178722381591796875" lon="-73.05239302106201648712158203125">
        <ele>719.4000244140625</ele>
        <time>2023-01-11T15:57:52.000Z</time>
      </trkpt>
      <trkpt lat="-49.227303899824619293212890625" lon="-73.0523941107094287872314453125">
        <ele>721.4000244140625</ele>
        <time>2023-01-11T15:57:54.000Z</time>
      </trkpt>
      <trkpt lat="-49.22729945741593837738037109375" lon="-73.0524071864783763885498046875">
        <ele>721.79998779296875</ele>
        <time>2023-01-11T15:57:58.000Z</time>
      </trkpt>
      <trkpt lat="-49.2272990383207798004150390625" lon="-73.05240743793547153472900390625">
        <ele>721.79998779296875</ele>
        <time>2023-01-11T15:58:00.000Z</time>
      </trkpt>
      <trkpt lat="-49.2272990383207798004150390625" lon="-73.05240743793547153472900390625">
        <ele>719.20001220703125</ele>
        <time>2023-01-11T15:58:01.000Z</time>
      </trkpt>
      <trkpt lat="-49.2272990383207798004150390625" lon="-73.05240743793547153472900390625">
        <ele>720.4000244140625</ele>
        <time>2023-01-11T15:58:04.000Z</time>
      </trkpt>
      <trkpt lat="-49.2272990383207798004150390625" lon="-73.05240743793547153472900390625">
        <ele>722.4000244140625</ele>
        <time>2023-01-11T15:58:06.000Z</time>
      </trkpt>
      <trkpt lat="-49.22730146907269954681396484375" lon="-73.05240224115550518035888671875">
        <ele>722.4000244140625</ele>
        <time>2023-01-11T15:58:12.000Z</time>
      </trkpt>
      <trkpt lat="-49.2273208312690258026123046875" lon="-73.05240408517420291900634765625">
        <ele>721</ele>
        <time>2023-01-11T15:58:24.000Z</time>
      </trkpt>
      <trkpt lat="-49.22733700834214687347412109375" lon="-73.05240894667804241180419921875">
        <ele>721</ele>
        <time>2023-01-11T15:58:25.000Z</time>
      </trkpt>
      <trkpt lat="-49.227419234812259674072265625" lon="-73.05241338908672332763671875">
        <ele>721</ele>
        <time>2023-01-11T15:58:30.000Z</time>
      </trkpt>
      <trkpt lat="-49.22746910713613033294677734375" lon="-73.05241313762962818145751953125">
        <ele>722</ele>
        <time>2023-01-11T15:58:36.000Z</time>
      </trkpt>
      <trkpt lat="-49.22748100943863391876220703125" lon="-73.05244079791009426116943359375">
        <ele>721.79998779296875</ele>
        <time>2023-01-11T15:58:41.000Z</time>
      </trkpt>
      <trkpt lat="-49.2274864576756954193115234375" lon="-73.0524556338787078857421875">
        <ele>721.20001220703125</ele>
        <time>2023-01-11T15:58:49.000Z</time>
      </trkpt>
      <trkpt lat="-49.2274864576756954193115234375" lon="-73.0524556338787078857421875">
        <ele>720.79998779296875</ele>
        <time>2023-01-11T15:58:56.000Z</time>
      </trkpt>
      <trkpt lat="-49.2274686880409717559814453125" lon="-73.05247734300792217254638671875">
        <ele>721.4000244140625</ele>
        <time>2023-01-11T15:59:13.000Z</time>
      </trkpt>
      <trkpt lat="-49.22746676020324230194091796875" lon="-73.052477426826953887939453125">
        <ele>721.5999755859375</ele>
        <time>2023-01-11T15:59:15.000Z</time>
      </trkpt>
      <trkpt lat="-49.22746516764163970947265625" lon="-73.052477426826953887939453125">
        <ele>722.20001220703125</ele>
        <time>2023-01-11T15:59:18.000Z</time>
      </trkpt>
      <trkpt lat="-49.22750213183462619781494140625" lon="-73.05251254700124263763427734375">
        <ele>721.79998779296875</ele>
        <time>2023-01-11T15:59:24.000Z</time>
      </trkpt>
      <trkpt lat="-49.22753213904798030853271484375" lon="-73.05252109654247760772705078125">
        <ele>722</ele>
        <time>2023-01-11T15:59:27.000Z</time>
      </trkpt>
      <trkpt lat="-49.2275749705731868743896484375" lon="-73.0525412969291210174560546875">
        <ele>722</ele>
        <time>2023-01-11T15:59:31.000Z</time>
      </trkpt>
      <trkpt lat="-49.22761947847902774810791015625" lon="-73.05250047706067562103271484375">
        <ele>722.20001220703125</ele>
        <time>2023-01-11T15:59:38.000Z</time>
      </trkpt>
      <trkpt lat="-49.2276530899107456207275390625" lon="-73.05250869132578372955322265625">
        <ele>723.5999755859375</ele>
        <time>2023-01-11T15:59:41.000Z</time>
      </trkpt>
      <trkpt lat="-49.2276705242693424224853515625" lon="-73.05250651203095912933349609375">
        <ele>723.5999755859375</ele>
        <time>2023-01-11T15:59:44.000Z</time>
      </trkpt>
      <trkpt lat="-49.22772936522960662841796875" lon="-73.05252679623663425445556640625">
        <ele>724.4000244140625</ele>
        <time>2023-01-11T15:59:52.000Z</time>
      </trkpt>
      <trkpt lat="-49.22773531638085842132568359375" lon="-73.0525252036750316619873046875">
        <ele>724.5999755859375</ele>
        <time>2023-01-11T15:59:53.000Z</time>
      </trkpt>
      <trkpt lat="-49.2277707718312740325927734375" lon="-73.05257943458855152130126953125">
        <ele>725.79998779296875</ele>
        <time>2023-01-11T16:00:00.000Z</time>
      </trkpt>
      <trkpt lat="-49.2277754656970500946044921875" lon="-73.0525889061391353607177734375">
        <ele>726</ele>
        <time>2023-01-11T16:00:01.000Z</time>
      </trkpt>
      <trkpt lat="-49.2278120107948780059814453125" lon="-73.0525936000049114227294921875">
        <ele>727</ele>
        <time>2023-01-11T16:00:06.000Z</time>
      </trkpt>
      <trkpt lat="-49.22783757559955120086669921875" lon="-73.05259569548070430755615234375">
        <ele>727</ele>
        <time>2023-01-11T16:00:09.000Z</time>
      </trkpt>
      <trkpt lat="-49.22789993695914745330810546875" lon="-73.0525842122733592987060546875">
        <ele>726.4000244140625</ele>
        <time>2023-01-11T16:00:18.000Z</time>
      </trkpt>
      <trkpt lat="-49.227918125689029693603515625" lon="-73.05257105268537998199462890625">
        <ele>726.79998779296875</ele>
        <time>2023-01-11T16:00:24.000Z</time>
      </trkpt>
      <trkpt lat="-49.2279219813644886016845703125" lon="-73.05256367661058902740478515625">
        <ele>726.4000244140625</ele>
        <time>2023-01-11T16:00:25.000Z</time>
      </trkpt>
      <trkpt lat="-49.22795995138585567474365234375" lon="-73.05256619118154048919677734375">
        <ele>726.79998779296875</ele>
        <time>2023-01-11T16:00:33.000Z</time>
      </trkpt>
      <trkpt lat="-49.22797453589737415313720703125" lon="-73.05259334854781627655029296875">
        <ele>726.5999755859375</ele>
        <time>2023-01-11T16:00:37.000Z</time>
      </trkpt>
      <trkpt lat="-49.2279856838285923004150390625" lon="-73.05262335576117038726806640625">
        <ele>726.5999755859375</ele>
        <time>2023-01-11T16:00:40.000Z</time>
      </trkpt>
      <trkpt lat="-49.22802264802157878875732421875" lon="-73.0527079291641712188720703125">
        <ele>727</ele>
        <time>2023-01-11T16:00:48.000Z</time>
      </trkpt>
      <trkpt lat="-49.228072352707386016845703125" lon="-73.052751012146472930908203125">
        <ele>728</ele>
        <time>2023-01-11T16:00:57.000Z</time>
      </trkpt>
      <trkpt lat="-49.22808744013309478759765625" lon="-73.052767775952816009521484375">
        <ele>728</ele>
        <time>2023-01-11T16:00:59.000Z</time>
      </trkpt>
      <trkpt lat="-49.228124655783176422119140625" lon="-73.052841536700725555419921875">
        <ele>728.5999755859375</ele>
        <time>2023-01-11T16:01:06.000Z</time>
      </trkpt>
      <trkpt lat="-49.22812758944928646087646484375" lon="-73.05284949950873851776123046875">
        <ele>728.5999755859375</ele>
        <time>2023-01-11T16:01:07.000Z</time>
      </trkpt>
      <trkpt lat="-49.2281368933618068695068359375" lon="-73.05286710150539875030517578125">
        <ele>728.79998779296875</ele>
        <time>2023-01-11T16:01:09.000Z</time>
      </trkpt>
      <trkpt lat="-49.228151142597198486328125" lon="-73.0528769083321094512939453125">
        <ele>729</ele>
        <time>2023-01-11T16:01:12.000Z</time>
      </trkpt>
      <trkpt lat="-49.22817670740187168121337890625" lon="-73.052903898060321807861328125">
        <ele>729.79998779296875</ele>
        <time>2023-01-11T16:01:16.000Z</time>
      </trkpt>
      <trkpt lat="-49.2281952314078807830810546875" lon="-73.05293130688369274139404296875">
        <ele>730.20001220703125</ele>
        <time>2023-01-11T16:01:20.000Z</time>
      </trkpt>
      <trkpt lat="-49.22819799743592739105224609375" lon="-73.05295326747000217437744140625">
        <ele>731.4000244140625</ele>
        <time>2023-01-11T16:01:23.000Z</time>
      </trkpt>
      <trkpt lat="-49.22819749452173709869384765625" lon="-73.05295762605965137481689453125">
        <ele>731.5999755859375</ele>
        <time>2023-01-11T16:01:24.000Z</time>
      </trkpt>
      <trkpt lat="-49.2281955666840076446533203125" lon="-73.0529533512890338897705078125">
        <ele>731.79998779296875</ele>
        <time>2023-01-11T16:01:31.000Z</time>
      </trkpt>
      <trkpt lat="-49.2282103188335895538330078125" lon="-73.0529711209237575531005859375">
        <ele>730.4000244140625</ele>
        <time>2023-01-11T16:01:54.000Z</time>
      </trkpt>
      <trkpt lat="-49.2282150126993656158447265625" lon="-73.05297589860856533050537109375">
        <ele>730.4000244140625</ele>
        <time>2023-01-11T16:01:55.000Z</time>
      </trkpt>
      <trkpt lat="-49.22822423279285430908203125" lon="-73.0530421994626522064208984375">
        <ele>731</ele>
        <time>2023-01-11T16:02:04.000Z</time>
      </trkpt>
      <trkpt lat="-49.228227250277996063232421875" lon="-73.05307161994278430938720703125">
        <ele>731.5999755859375</ele>
        <time>2023-01-11T16:02:08.000Z</time>
      </trkpt>
      <trkpt lat="-49.22822833992540836334228515625" lon="-73.0530757270753383636474609375">
        <ele>732</ele>
        <time>2023-01-11T16:02:11.000Z</time>
      </trkpt>
      <trkpt lat="-49.228262789547443389892578125" lon="-73.05307589471340179443359375">
        <ele>733</ele>
        <time>2023-01-11T16:02:20.000Z</time>
      </trkpt>
      <trkpt lat="-49.22827192582190036773681640625" lon="-73.05307145230472087860107421875">
        <ele>734.79998779296875</ele>
        <time>2023-01-11T16:02:24.000Z</time>
      </trkpt>
      <trkpt lat="-49.2282723449170589447021484375" lon="-73.053062818944454193115234375">
        <ele>736</ele>
        <time>2023-01-11T16:02:26.000Z</time>
      </trkpt>
      <trkpt lat="-49.2282743565738201141357421875" lon="-73.05304328911006450653076171875">
        <ele>737.4000244140625</ele>
        <time>2023-01-11T16:02:29.000Z</time>
      </trkpt>
      <trkpt lat="-49.228276200592517852783203125" lon="-73.05304043926298618316650390625">
        <ele>738.5999755859375</ele>
        <time>2023-01-11T16:02:33.000Z</time>
      </trkpt>
      <trkpt lat="-49.22829086892306804656982421875" lon="-73.05304043926298618316650390625">
        <ele>740</ele>
        <time>2023-01-11T16:02:37.000Z</time>
      </trkpt>
      <trkpt lat="-49.2283129133284091949462890625" lon="-73.05304043926298618316650390625">
        <ele>741</ele>
        <time>2023-01-11T16:02:42.000Z</time>
      </trkpt>
      <trkpt lat="-49.22832104377448558807373046875" lon="-73.0530505813658237457275390625">
        <ele>740.79998779296875</ele>
        <time>2023-01-11T16:02:50.000Z</time>
      </trkpt>
      <trkpt lat="-49.2283226363360881805419921875" lon="-73.05305753834545612335205078125">
        <ele>740.5999755859375</ele>
        <time>2023-01-11T16:02:53.000Z</time>
      </trkpt>
      <trkpt lat="-49.2283353768289089202880859375" lon="-73.05306290276348590850830078125">
        <ele>740</ele>
        <time>2023-01-11T16:02:58.000Z</time>
      </trkpt>
      <trkpt lat="-49.228375442326068878173828125" lon="-73.05308704264461994171142578125">
        <ele>739.5999755859375</ele>
        <time>2023-01-11T16:03:08.000Z</time>
      </trkpt>
      <trkpt lat="-49.22839228995144367218017578125" lon="-73.053110428154468536376953125">
        <ele>738.5999755859375</ele>
        <time>2023-01-11T16:03:16.000Z</time>
      </trkpt>
      <trkpt lat="-49.228396229445934295654296875" lon="-73.0531173013150691986083984375">
        <ele>737.4000244140625</ele>
        <time>2023-01-11T16:03:21.000Z</time>
      </trkpt>
      <trkpt lat="-49.22840083949267864227294921875" lon="-73.0531176365911960601806640625">
        <ele>736.5999755859375</ele>
        <time>2023-01-11T16:03:28.000Z</time>
      </trkpt>
      <trkpt lat="-49.228401593863964080810546875" lon="-73.0531176365911960601806640625">
        <ele>736.5999755859375</ele>
        <time>2023-01-11T16:03:29.000Z</time>
      </trkpt>
      <trkpt lat="-49.22840394079685211181640625" lon="-73.05309860967099666595458984375">
        <ele>738.20001220703125</ele>
        <time>2023-01-11T16:03:42.000Z</time>
      </trkpt>
      <trkpt lat="-49.2284067906439304351806640625" lon="-73.05308251641690731048583984375">
        <ele>737.4000244140625</ele>
        <time>2023-01-11T16:03:51.000Z</time>
      </trkpt>
      <trkpt lat="-49.2284134961664676666259765625" lon="-73.05306893773376941680908203125">
        <ele>737.4000244140625</ele>
        <time>2023-01-11T16:04:00.000Z</time>
      </trkpt>
      <trkpt lat="-49.22841131687164306640625" lon="-73.0530542694032192230224609375">
        <ele>737.20001220703125</ele>
        <time>2023-01-11T16:04:06.000Z</time>
      </trkpt>
      <trkpt lat="-49.22841274179518222808837890625" lon="-73.05304010398685932159423828125">
        <ele>736.79998779296875</ele>
        <time>2023-01-11T16:04:16.000Z</time>
      </trkpt>
      <trkpt lat="-49.22841106541454792022705078125" lon="-73.0530385114252567291259765625">
        <ele>736.4000244140625</ele>
        <time>2023-01-11T16:04:23.000Z</time>
      </trkpt>
      <trkpt lat="-49.22840821556746959686279296875" lon="-73.053044714033603668212890625">
        <ele>735.79998779296875</ele>
        <time>2023-01-11T16:04:41.000Z</time>
      </trkpt>
      <trkpt lat="-49.22840653918683528900146484375" lon="-73.05304781533777713775634765625">
        <ele>735.4000244140625</ele>
        <time>2023-01-11T16:04:56.000Z</time>
      </trkpt>
      <trkpt lat="-49.22840637154877185821533203125" lon="-73.0530478991568088531494140625">
        <ele>735.20001220703125</ele>
        <time>2023-01-11T16:05:02.000Z</time>
      </trkpt>
      <trkpt lat="-49.228406287729740142822265625" lon="-73.05304798297584056854248046875">
        <ele>735.20001220703125</ele>
        <time>2023-01-11T16:05:08.000Z</time>
      </trkpt>
      <trkpt lat="-49.22840586863458156585693359375" lon="-73.0530482344329357147216796875">
        <ele>735</ele>
        <time>2023-01-11T16:05:28.000Z</time>
      </trkpt>
      <trkpt lat="-49.22839245758950710296630859375" lon="-73.0529858730733394622802734375">
        <ele>738.4000244140625</ele>
        <time>2023-01-11T16:24:34.000Z</time>
      </trkpt>
      <trkpt lat="-49.22839245758950710296630859375" lon="-73.0529858730733394622802734375">
        <ele>738.4000244140625</ele>
        <time>2023-01-11T16:24:37.000Z</time>
      </trkpt>
      <trkpt lat="-49.2284728400409221649169921875" lon="-73.05300774984061717987060546875">
        <ele>735.5999755859375</ele>
        <time>2023-01-11T16:36:12.000Z</time>
      </trkpt>
      <trkpt lat="-49.2284718342125415802001953125" lon="-73.05300883948802947998046875">
        <ele>734.20001220703125</ele>
        <time>2023-01-11T16:36:15.000Z</time>
      </trkpt>
      <trkpt lat="-49.22845783643424510955810546875" lon="-73.05300347506999969482421875">
        <ele>733.5999755859375</ele>
        <time>2023-01-11T16:36:20.000Z</time>
      </trkpt>
      <trkpt lat="-49.22841332852840423583984375" lon="-73.0529976077377796173095703125">
        <ele>735.5999755859375</ele>
        <time>2023-01-11T16:36:25.000Z</time>
      </trkpt>
      <trkpt lat="-49.22840586863458156585693359375" lon="-73.05299165658652782440185546875">
        <ele>735.20001220703125</ele>
        <time>2023-01-11T16:36:27.000Z</time>
      </trkpt>
      <trkpt lat="-49.22837804071605205535888671875" lon="-73.05294488556683063507080078125">
        <ele>734.4000244140625</ele>
        <time>2023-01-11T16:36:30.000Z</time>
      </trkpt>
      <trkpt lat="-49.22836982645094394683837890625" lon="-73.05292979814112186431884765625">
        <ele>733.5999755859375</ele>
        <time>2023-01-11T16:36:31.000Z</time>
      </trkpt>
      <trkpt lat="-49.22836278565227985382080078125" lon="-73.0529168061912059783935546875">
        <ele>732.4000244140625</ele>
        <time>2023-01-11T16:36:32.000Z</time>
      </trkpt>
      <trkpt lat="-49.2283575050532817840576171875" lon="-73.05291068740189075469970703125">
        <ele>730.79998779296875</ele>
        <time>2023-01-11T16:36:33.000Z</time>
      </trkpt>
      <trkpt lat="-49.2283481173217296600341796875" lon="-73.0529057420790195465087890625">
        <ele>729.5999755859375</ele>
        <time>2023-01-11T16:36:37.000Z</time>
      </trkpt>
      <trkpt lat="-49.2283367179334163665771484375" lon="-73.05292678065598011016845703125">
        <ele>729</ele>
        <time>2023-01-11T16:36:40.000Z</time>
      </trkpt>
      <trkpt lat="-49.22832615673542022705078125" lon="-73.05292837321758270263671875">
        <ele>728.20001220703125</ele>
        <time>2023-01-11T16:36:42.000Z</time>
      </trkpt>
      <trkpt lat="-49.22833177261054515838623046875" lon="-73.0529419519007205963134765625">
        <ele>727.5999755859375</ele>
        <time>2023-01-11T16:36:44.000Z</time>
      </trkpt>
      <trkpt lat="-49.22832749783992767333984375" lon="-73.0529479868710041046142578125">
        <ele>727.20001220703125</ele>
        <time>2023-01-11T16:36:47.000Z</time>
      </trkpt>
      <trkpt lat="-49.22832749783992767333984375" lon="-73.0529479868710041046142578125">
        <ele>727.20001220703125</ele>
        <time>2023-01-11T16:36:49.000Z</time>
      </trkpt>
      <trkpt lat="-49.22832749783992767333984375" lon="-73.0529479868710041046142578125">
        <ele>727.4000244140625</ele>
        <time>2023-01-11T16:36:53.000Z</time>
      </trkpt>
      <trkpt lat="-49.22832749783992767333984375" lon="-73.0529479868710041046142578125">
        <ele>727.4000244140625</ele>
        <time>2023-01-11T16:36:57.000Z</time>
      </trkpt>
      <trkpt lat="-49.22832406125962734222412109375" lon="-73.052951507270336151123046875">
        <ele>726.79998779296875</ele>
        <time>2023-01-11T16:36:59.000Z</time>
      </trkpt>
      <trkpt lat="-49.22830226831138134002685546875" lon="-73.0530066601932048797607421875">
        <ele>726.5999755859375</ele>
        <time>2023-01-11T16:37:03.000Z</time>
      </trkpt>
      <trkpt lat="-49.22827879898250102996826171875" lon="-73.05301864631474018096923828125">
        <ele>726.5999755859375</ele>
        <time>2023-01-11T16:37:06.000Z</time>
      </trkpt>
      <trkpt lat="-49.2282756976783275604248046875" lon="-73.05302283726632595062255859375">
        <ele>726.5999755859375</ele>
        <time>2023-01-11T16:37:07.000Z</time>
      </trkpt>
      <trkpt lat="-49.22827108763158321380615234375" lon="-73.0530287884175777435302734375">
        <ele>726.5999755859375</ele>
        <time>2023-01-11T16:37:08.000Z</time>
      </trkpt>
      <trkpt lat="-49.2282227240502834320068359375" lon="-73.05298293940722942352294921875">
        <ele>727</ele>
        <time>2023-01-11T16:37:14.000Z</time>
      </trkpt>
      <trkpt lat="-49.22821174375712871551513671875" lon="-73.05295653641223907470703125">
        <ele>727.20001220703125</ele>
        <time>2023-01-11T16:37:18.000Z</time>
      </trkpt>
      <trkpt lat="-49.22820487059652805328369140625" lon="-73.05295159108936786651611328125">
        <ele>727.20001220703125</ele>
        <time>2023-01-11T16:37:19.000Z</time>
      </trkpt>
      <trkpt lat="-49.2281774617731571197509765625" lon="-73.05290297605097293853759765625">
        <ele>727.20001220703125</ele>
        <time>2023-01-11T16:37:24.000Z</time>
      </trkpt>
      <trkpt lat="-49.22816229052841663360595703125" lon="-73.05290599353611469268798828125">
        <ele>727.5999755859375</ele>
        <time>2023-01-11T16:37:26.000Z</time>
      </trkpt>
      <trkpt lat="-49.22815005294978618621826171875" lon="-73.052870370447635650634765625">
        <ele>726.20001220703125</ele>
        <time>2023-01-11T16:37:32.000Z</time>
      </trkpt>
      <trkpt lat="-49.22812256030738353729248046875" lon="-73.05281035602092742919921875">
        <ele>726.79998779296875</ele>
        <time>2023-01-11T16:37:38.000Z</time>
      </trkpt>
      <trkpt lat="-49.22811501659452915191650390625" lon="-73.05280574597418308258056640625">
        <ele>726.79998779296875</ele>
        <time>2023-01-11T16:37:39.000Z</time>
      </trkpt>
      <trkpt lat="-49.228087775409221649169921875" lon="-73.05277506820857524871826171875">
        <ele>725.5999755859375</ele>
        <time>2023-01-11T16:37:44.000Z</time>
      </trkpt>
      <trkpt lat="-49.22807998023927211761474609375" lon="-73.05277909152209758758544921875">
        <ele>725.20001220703125</ele>
        <time>2023-01-11T16:37:47.000Z</time>
      </trkpt>
      <trkpt lat="-49.2280517332255840301513671875" lon="-73.05271622724831104278564453125">
        <ele>725</ele>
        <time>2023-01-11T16:37:56.000Z</time>
      </trkpt>
      <trkpt lat="-49.22802935354411602020263671875" lon="-73.05272377096116542816162109375">
        <ele>725.4000244140625</ele>
        <time>2023-01-11T16:38:00.000Z</time>
      </trkpt>
      <trkpt lat="-49.22802214510738849639892578125" lon="-73.0527005530893802642822265625">
        <ele>725</ele>
        <time>2023-01-11T16:38:02.000Z</time>
      </trkpt>
      <trkpt lat="-49.22802130691707134246826171875" lon="-73.052691332995891571044921875">
        <ele>723</ele>
        <time>2023-01-11T16:38:03.000Z</time>
      </trkpt>
      <trkpt lat="-49.22801258973777294158935546875" lon="-73.05266694165766239166259765625">
        <ele>722.20001220703125</ele>
        <time>2023-01-11T16:38:06.000Z</time>
      </trkpt>
      <trkpt lat="-49.22798928804695606231689453125" lon="-73.05267180316150188446044921875">
        <ele>724.4000244140625</ele>
        <time>2023-01-11T16:38:08.000Z</time>
      </trkpt>
      <trkpt lat="-49.2279739491641521453857421875" lon="-73.0526648461818695068359375">
        <ele>724.4000244140625</ele>
        <time>2023-01-11T16:38:10.000Z</time>
      </trkpt>
      <trkpt lat="-49.22797822393476963043212890625" lon="-73.05263743735849857330322265625">
        <ele>724.79998779296875</ele>
        <time>2023-01-11T16:38:12.000Z</time>
      </trkpt>
      <trkpt lat="-49.22796866856515407562255859375" lon="-73.05259536020457744598388671875">
        <ele>722.5999755859375</ele>
        <time>2023-01-11T16:38:14.000Z</time>
      </trkpt>
      <trkpt lat="-49.22795894555747509002685546875" lon="-73.0525580607354640960693359375">
        <ele>722.79998779296875</ele>
        <time>2023-01-11T16:38:17.000Z</time>
      </trkpt>
      <trkpt lat="-49.22796296887099742889404296875" lon="-73.0525446496903896331787109375">
        <ele>724.4000244140625</ele>
        <time>2023-01-11T16:38:18.000Z</time>
      </trkpt>
      <trkpt lat="-49.22795508988201618194580078125" lon="-73.05253299884498119354248046875">
        <ele>724.4000244140625</ele>
        <time>2023-01-11T16:38:19.000Z</time>
      </trkpt>
      <trkpt lat="-49.22794737853109836578369140625" lon="-73.0525127984583377838134765625">
        <ele>723.79998779296875</ele>
        <time>2023-01-11T16:38:20.000Z</time>
      </trkpt>
      <trkpt lat="-49.22794251702725887298583984375" lon="-73.0524960346519947052001953125">
        <ele>724.4000244140625</ele>
        <time>2023-01-11T16:38:21.000Z</time>
      </trkpt>
      <trkpt lat="-49.22793455421924591064453125" lon="-73.052492178976535797119140625">
        <ele>724.4000244140625</ele>
        <time>2023-01-11T16:38:22.000Z</time>
      </trkpt>
      <trkpt lat="-49.22791284509003162384033203125" lon="-73.0525292269885540008544921875">
        <ele>724.5999755859375</ele>
        <time>2023-01-11T16:38:26.000Z</time>
      </trkpt>
      <trkpt lat="-49.22787914983928203582763671875" lon="-73.05253534577786922454833984375">
        <ele>724.20001220703125</ele>
        <time>2023-01-11T16:38:31.000Z</time>
      </trkpt>
      <trkpt lat="-49.22786674462258815765380859375" lon="-73.0525496788322925567626953125">
        <ele>724</ele>
        <time>2023-01-11T16:38:33.000Z</time>
      </trkpt>
      <trkpt lat="-49.22782734967768192291259765625" lon="-73.052580021321773529052734375">
        <ele>724</ele>
        <time>2023-01-11T16:38:38.000Z</time>
      </trkpt>
      <trkpt lat="-49.22777186147868633270263671875" lon="-73.0525895766913890838623046875">
        <ele>723.79998779296875</ele>
        <time>2023-01-11T16:38:43.000Z</time>
      </trkpt>
      <trkpt lat="-49.22776331193745136260986328125" lon="-73.05257842876017093658447265625">
        <ele>723.4000244140625</ele>
        <time>2023-01-11T16:38:44.000Z</time>
      </trkpt>
      <trkpt lat="-49.22775576822459697723388671875" lon="-73.05256602354347705841064453125">
        <ele>723</ele>
        <time>2023-01-11T16:38:45.000Z</time>
      </trkpt>
      <trkpt lat="-49.22775057144463062286376953125" lon="-73.05254976265132427215576171875">
        <ele>723</ele>
        <time>2023-01-11T16:38:46.000Z</time>
      </trkpt>
      <trkpt lat="-49.22774420119822025299072265625" lon="-73.05253886617720127105712890625">
        <ele>724.4000244140625</ele>
        <time>2023-01-11T16:38:47.000Z</time>
      </trkpt>
      <trkpt lat="-49.227711595594882965087890625" lon="-73.05251665413379669189453125">
        <ele>723.4000244140625</ele>
        <time>2023-01-11T16:38:51.000Z</time>
      </trkpt>
      <trkpt lat="-49.22767706215381622314453125" lon="-73.052494525909423828125">
        <ele>723</ele>
        <time>2023-01-11T16:38:55.000Z</time>
      </trkpt>
      <trkpt lat="-49.22765518538653850555419921875" lon="-73.05244423449039459228515625">
        <ele>723</ele>
        <time>2023-01-11T16:38:59.000Z</time>
      </trkpt>
      <trkpt lat="-49.2276101745665073394775390625" lon="-73.05241581983864307403564453125">
        <ele>721.79998779296875</ele>
        <time>2023-01-11T16:39:03.000Z</time>
      </trkpt>
      <trkpt lat="-49.2276011221110820770263671875" lon="-73.0524081923067569732666015625">
        <ele>721.79998779296875</ele>
        <time>2023-01-11T16:39:06.000Z</time>
      </trkpt>
      <trkpt lat="-49.2275865375995635986328125" lon="-73.0523907579481601715087890625">
        <ele>722.79998779296875</ele>
        <time>2023-01-11T16:39:10.000Z</time>
      </trkpt>
      <trkpt lat="-49.22756767831742763519287109375" lon="-73.05239570327103137969970703125">
        <ele>723.20001220703125</ele>
        <time>2023-01-11T16:39:13.000Z</time>
      </trkpt>
      <trkpt lat="-49.22756097279489040374755859375" lon="-73.052387572824954986572265625">
        <ele>723.79998779296875</ele>
        <time>2023-01-11T16:39:14.000Z</time>
      </trkpt>
      <trkpt lat="-49.22752057202160358428955078125" lon="-73.052342645823955535888671875">
        <ele>723</ele>
        <time>2023-01-11T16:39:22.000Z</time>
      </trkpt>
      <trkpt lat="-49.22749643214046955108642578125" lon="-73.05229998193681240081787109375">
        <ele>722.79998779296875</ele>
        <time>2023-01-11T16:39:27.000Z</time>
      </trkpt>
      <trkpt lat="-49.22748335637152194976806640625" lon="-73.05229528807103633880615234375">
        <ele>722.79998779296875</ele>
        <time>2023-01-11T16:39:29.000Z</time>
      </trkpt>
      <trkpt lat="-49.22746525146067142486572265625" lon="-73.05226008407771587371826171875">
        <ele>722.20001220703125</ele>
        <time>2023-01-11T16:39:35.000Z</time>
      </trkpt>
      <trkpt lat="-49.22742116264998912811279296875" lon="-73.05222152732312679290771484375">
        <ele>722.4000244140625</ele>
        <time>2023-01-11T16:39:41.000Z</time>
      </trkpt>
      <trkpt lat="-49.227411858737468719482421875" lon="-73.05220945738255977630615234375">
        <ele>722.20001220703125</ele>
        <time>2023-01-11T16:39:43.000Z</time>
      </trkpt>
      <trkpt lat="-49.22739383764564990997314453125" lon="-73.05217995308339595794677734375">
        <ele>722.20001220703125</ele>
        <time>2023-01-11T16:39:47.000Z</time>
      </trkpt>
      <trkpt lat="-49.2273788340389728546142578125" lon="-73.0521587468683719635009765625">
        <ele>722.4000244140625</ele>
        <time>2023-01-11T16:39:51.000Z</time>
      </trkpt>
      <trkpt lat="-49.22731705941259860992431640625" lon="-73.05212094448506832122802734375">
        <ele>723.20001220703125</ele>
        <time>2023-01-11T16:40:00.000Z</time>
      </trkpt>
      <trkpt lat="-49.22728286124765872955322265625" lon="-73.05208741687238216400146484375">
        <ele>723.20001220703125</ele>
        <time>2023-01-11T16:40:06.000Z</time>
      </trkpt>
      <trkpt lat="-49.2272745631635189056396484375" lon="-73.052073754370212554931640625">
        <ele>723.20001220703125</ele>
        <time>2023-01-11T16:40:07.000Z</time>
      </trkpt>
      <trkpt lat="-49.22725318931043148040771484375" lon="-73.05204860866069793701171875">
        <ele>724</ele>
        <time>2023-01-11T16:40:11.000Z</time>
      </trkpt>
      <trkpt lat="-49.227242879569530487060546875" lon="-73.05203695781528949737548828125">
        <ele>724.20001220703125</ele>
        <time>2023-01-11T16:40:14.000Z</time>
      </trkpt>
      <trkpt lat="-49.2272329889237880706787109375" lon="-73.05204969830811023712158203125">
        <ele>724</ele>
        <time>2023-01-11T16:40:16.000Z</time>
      </trkpt>
      <trkpt lat="-49.2271967791020870208740234375" lon="-73.052073419094085693359375">
        <ele>724</ele>
        <time>2023-01-11T16:40:21.000Z</time>
      </trkpt>
      <trkpt lat="-49.2271900735795497894287109375" lon="-73.05205992422997951507568359375">
        <ele>724.20001220703125</ele>
        <time>2023-01-11T16:40:26.000Z</time>
      </trkpt>
      <trkpt lat="-49.22719669528305530548095703125" lon="-73.05209613405168056488037109375">
        <ele>722.5999755859375</ele>
        <time>2023-01-11T16:40:30.000Z</time>
      </trkpt>
      <trkpt lat="-49.22719619236886501312255859375" lon="-73.0520975589752197265625">
        <ele>722.4000244140625</ele>
        <time>2023-01-11T16:40:32.000Z</time>
      </trkpt>
      <trkpt lat="-49.22719619236886501312255859375" lon="-73.0520975589752197265625">
        <ele>721.4000244140625</ele>
        <time>2023-01-11T16:40:33.000Z</time>
      </trkpt>
      <trkpt lat="-49.22719116322696208953857421875" lon="-73.05209663696587085723876953125">
        <ele>721</ele>
        <time>2023-01-11T16:40:46.000Z</time>
      </trkpt>
      <trkpt lat="-49.22717154957354068756103515625" lon="-73.0520886741578578948974609375">
        <ele>720.20001220703125</ele>
        <time>2023-01-11T16:40:51.000Z</time>
      </trkpt>
      <trkpt lat="-49.2271679453551769256591796875" lon="-73.05209982208907604217529296875">
        <ele>720.20001220703125</ele>
        <time>2023-01-11T16:41:00.000Z</time>
      </trkpt>
      <trkpt lat="-49.227166436612606048583984375" lon="-73.05209496058523654937744140625">
        <ele>720.5999755859375</ele>
        <time>2023-01-11T16:41:15.000Z</time>
      </trkpt>
      <trkpt lat="-49.2271654307842254638671875" lon="-73.0520933680236339569091796875">
        <ele>720.5999755859375</ele>
        <time>2023-01-11T16:41:22.000Z</time>
      </trkpt>
      <trkpt lat="-49.2271466553211212158203125" lon="-73.05209076963365077972412109375">
        <ele>721.20001220703125</ele>
        <time>2023-01-11T16:41:29.000Z</time>
      </trkpt>
      <trkpt lat="-49.227138273417949676513671875" lon="-73.05208641104400157928466796875">
        <ele>721.20001220703125</ele>
        <time>2023-01-11T16:41:35.000Z</time>
      </trkpt>
      <trkpt lat="-49.227154366672039031982421875" lon="-73.052081130445003509521484375">
        <ele>721.20001220703125</ele>
        <time>2023-01-11T16:41:39.000Z</time>
      </trkpt>
      <trkpt lat="-49.2271278798580169677734375" lon="-73.0520856566727161407470703125">
        <ele>720</ele>
        <time>2023-01-11T16:41:57.000Z</time>
      </trkpt>
      <trkpt lat="-49.22712310217320919036865234375" lon="-73.05209496058523654937744140625">
        <ele>718.79998779296875</ele>
        <time>2023-01-11T16:42:03.000Z</time>
      </trkpt>
      <trkpt lat="-49.2271173186600208282470703125" lon="-73.05210367776453495025634765625">
        <ele>716.20001220703125</ele>
        <time>2023-01-11T16:42:07.000Z</time>
      </trkpt>
      <trkpt lat="-49.227105416357517242431640625" lon="-73.05211809463798999786376953125">
        <ele>714.79998779296875</ele>
        <time>2023-01-11T16:42:10.000Z</time>
      </trkpt>
      <trkpt lat="-49.22709292732179164886474609375" lon="-73.05212480016052722930908203125">
        <ele>715.4000244140625</ele>
        <time>2023-01-11T16:42:12.000Z</time>
      </trkpt>
      <trkpt lat="-49.227041713893413543701171875" lon="-73.05217609740793704986572265625">
        <ele>713.79998779296875</ele>
        <time>2023-01-11T16:42:19.000Z</time>
      </trkpt>
      <trkpt lat="-49.22703676857054233551025390625" lon="-73.052175678312778472900390625">
        <ele>713.20001220703125</ele>
        <time>2023-01-11T16:42:20.000Z</time>
      </trkpt>
      <trkpt lat="-49.227005504071712493896484375" lon="-73.052158243954181671142578125">
        <ele>711.20001220703125</ele>
        <time>2023-01-11T16:42:23.000Z</time>
      </trkpt>
      <trkpt lat="-49.2269966192543506622314453125" lon="-73.05215983651578426361083984375">
        <ele>710.5999755859375</ele>
        <time>2023-01-11T16:42:26.000Z</time>
      </trkpt>
      <trkpt lat="-49.226976335048675537109375" lon="-73.0521833896636962890625">
        <ele>710.20001220703125</ele>
        <time>2023-01-11T16:42:33.000Z</time>
      </trkpt>
      <trkpt lat="-49.226965941488742828369140625" lon="-73.05217039771378040313720703125">
        <ele>709</ele>
        <time>2023-01-11T16:42:35.000Z</time>
      </trkpt>
      <trkpt lat="-49.2269347608089447021484375" lon="-73.052151203155517578125">
        <ele>707.4000244140625</ele>
        <time>2023-01-11T16:42:38.000Z</time>
      </trkpt>
      <trkpt lat="-49.22688002698123455047607421875" lon="-73.05214290507137775421142578125">
        <ele>708.5999755859375</ele>
        <time>2023-01-11T16:42:42.000Z</time>
      </trkpt>
      <trkpt lat="-49.22687181271612644195556640625" lon="-73.052148185670375823974609375">
        <ele>708.5999755859375</ele>
        <time>2023-01-11T16:42:43.000Z</time>
      </trkpt>
      <trkpt lat="-49.2268631793558597564697265625" lon="-73.0521543882787227630615234375">
        <ele>708.5999755859375</ele>
        <time>2023-01-11T16:42:44.000Z</time>
      </trkpt>
      <trkpt lat="-49.2268470861017704010009765625" lon="-73.05214743129909038543701171875">
        <ele>709.4000244140625</ele>
        <time>2023-01-11T16:42:46.000Z</time>
      </trkpt>
      <trkpt lat="-49.22680660150945186614990234375" lon="-73.0521579086780548095703125">
        <ele>709.4000244140625</ele>
        <time>2023-01-11T16:42:49.000Z</time>
      </trkpt>
      <trkpt lat="-49.22674843110144138336181640625" lon="-73.05220057256519794464111328125">
        <ele>709</ele>
        <time>2023-01-11T16:42:57.000Z</time>
      </trkpt>
      <trkpt lat="-49.226745665073394775390625" lon="-73.0522271431982517242431640625">
        <ele>707.5999755859375</ele>
        <time>2023-01-11T16:43:02.000Z</time>
      </trkpt>
      <trkpt lat="-49.226755388081073760986328125" lon="-73.05223904550075531005859375">
        <ele>707.5999755859375</ele>
        <time>2023-01-11T16:43:03.000Z</time>
      </trkpt>
      <trkpt lat="-49.22682001255452632904052734375" lon="-73.05218699388206005096435546875">
        <ele>707.4000244140625</ele>
        <time>2023-01-11T16:43:09.000Z</time>
      </trkpt>
      <trkpt lat="-49.2268108762800693511962890625" lon="-73.05218699388206005096435546875">
        <ele>706.4000244140625</ele>
        <time>2023-01-11T16:43:20.000Z</time>
      </trkpt>
      <trkpt lat="-49.22679704613983631134033203125" lon="-73.05219017900526523590087890625">
        <ele>706</ele>
        <time>2023-01-11T16:43:23.000Z</time>
      </trkpt>
      <trkpt lat="-49.22679235227406024932861328125" lon="-73.0521912686526775360107421875">
        <ele>705.4000244140625</ele>
        <time>2023-01-11T16:43:25.000Z</time>
      </trkpt>
      <trkpt lat="-49.22677927650511264801025390625" lon="-73.052194118499755859375">
        <ele>704.4000244140625</ele>
        <time>2023-01-11T16:43:35.000Z</time>
      </trkpt>
      <trkpt lat="-49.22671523876488208770751953125" lon="-73.05216930806636810302734375">
        <ele>704</ele>
        <time>2023-01-11T16:43:40.000Z</time>
      </trkpt>
      <trkpt lat="-49.22661867924034595489501953125" lon="-73.0521379597485065460205078125">
        <ele>704</ele>
        <time>2023-01-11T16:43:49.000Z</time>
      </trkpt>
      <trkpt lat="-49.22658766619861125946044921875" lon="-73.05210552178323268890380859375">
        <ele>704.20001220703125</ele>
        <time>2023-01-11T16:43:56.000Z</time>
      </trkpt>
      <trkpt lat="-49.22655078582465648651123046875" lon="-73.05206428281962871551513671875">
        <ele>703.79998779296875</ele>
        <time>2023-01-11T16:44:04.000Z</time>
      </trkpt>
      <trkpt lat="-49.226524047553539276123046875" lon="-73.05201709270477294921875">
        <ele>704.5999755859375</ele>
        <time>2023-01-11T16:44:11.000Z</time>
      </trkpt>
      <trkpt lat="-49.2265165038406848907470703125" lon="-73.05196906439960002899169921875">
        <ele>704.5999755859375</ele>
        <time>2023-01-11T16:44:17.000Z</time>
      </trkpt>
      <trkpt lat="-49.22651155851781368255615234375" lon="-73.05196571163833141326904296875">
        <ele>704.5999755859375</ele>
        <time>2023-01-11T16:44:18.000Z</time>
      </trkpt>
      <trkpt lat="-49.226442910730838775634765625" lon="-73.05192531086504459381103515625">
        <ele>703.79998779296875</ele>
        <time>2023-01-11T16:44:27.000Z</time>
      </trkpt>
      <trkpt lat="-49.2264175973832607269287109375" lon="-73.0519025959074497222900390625">
        <ele>704.20001220703125</ele>
        <time>2023-01-11T16:44:30.000Z</time>
      </trkpt>
      <trkpt lat="-49.22641332261264324188232421875" lon="-73.05189966224133968353271484375">
        <ele>704</ele>
        <time>2023-01-11T16:44:31.000Z</time>
      </trkpt>
      <trkpt lat="-49.22641013748943805694580078125" lon="-73.05190670304000377655029296875">
        <ele>704.20001220703125</ele>
        <time>2023-01-11T16:44:32.000Z</time>
      </trkpt>
      <trkpt lat="-49.22639588825404644012451171875" lon="-73.05192388594150543212890625">
        <ele>704.4000244140625</ele>
        <time>2023-01-11T16:44:34.000Z</time>
      </trkpt>
      <trkpt lat="-49.226375520229339599609375" lon="-73.05191743187606334686279296875">
        <ele>704.79998779296875</ele>
        <time>2023-01-11T16:44:36.000Z</time>
      </trkpt>
      <trkpt lat="-49.226340316236019134521484375" lon="-73.0519304238259792327880859375">
        <ele>705</ele>
        <time>2023-01-11T16:44:39.000Z</time>
      </trkpt>
      <trkpt lat="-49.22629966400563716888427734375" lon="-73.05191843770444393157958984375">
        <ele>704.5999755859375</ele>
        <time>2023-01-11T16:44:44.000Z</time>
      </trkpt>
      <trkpt lat="-49.22629597596824169158935546875" lon="-73.051907122135162353515625">
        <ele>704.5999755859375</ele>
        <time>2023-01-11T16:44:45.000Z</time>
      </trkpt>
      <trkpt lat="-49.22625876031816005706787109375" lon="-73.05189698003232479095458984375">
        <ele>704.5999755859375</ele>
        <time>2023-01-11T16:44:49.000Z</time>
      </trkpt>
      <trkpt lat="-49.2262499593198299407958984375" lon="-73.05187560617923736572265625">
        <ele>705</ele>
        <time>2023-01-11T16:44:52.000Z</time>
      </trkpt>
      <trkpt lat="-49.2261892743408679962158203125" lon="-73.05179405026137828826904296875">
        <ele>705.20001220703125</ele>
        <time>2023-01-11T16:45:00.000Z</time>
      </trkpt>
      <trkpt lat="-49.22619371674954891204833984375" lon="-73.05178717710077762603759765625">
        <ele>705.79998779296875</ele>
        <time>2023-01-11T16:45:01.000Z</time>
      </trkpt>
      <trkpt lat="-49.22620117664337158203125" lon="-73.05179245769977569580078125">
        <ele>706.20001220703125</ele>
        <time>2023-01-11T16:45:05.000Z</time>
      </trkpt>
      <trkpt lat="-49.22618382610380649566650390625" lon="-73.05179438553750514984130859375">
        <ele>705.5999755859375</ele>
        <time>2023-01-11T16:45:12.000Z</time>
      </trkpt>
      <trkpt lat="-49.2261798866093158721923828125" lon="-73.05178575217723846435546875">
        <ele>705.5999755859375</ele>
        <time>2023-01-11T16:45:13.000Z</time>
      </trkpt>
      <trkpt lat="-49.22616588883101940155029296875" lon="-73.051765300333499908447265625">
        <ele>704.5999755859375</ele>
        <time>2023-01-11T16:45:16.000Z</time>
      </trkpt>
      <trkpt lat="-49.2261488735675811767578125" lon="-73.05175147019326686859130859375">
        <ele>704.20001220703125</ele>
        <time>2023-01-11T16:45:20.000Z</time>
      </trkpt>
      <trkpt lat="-49.22612247057259082794189453125" lon="-73.05173001252114772796630859375">
        <ele>703.20001220703125</ele>
        <time>2023-01-11T16:45:24.000Z</time>
      </trkpt>
      <trkpt lat="-49.2261000908911228179931640625" lon="-73.051721714437007904052734375">
        <ele>702.5999755859375</ele>
        <time>2023-01-11T16:45:27.000Z</time>
      </trkpt>
      <trkpt lat="-49.22608944587409496307373046875" lon="-73.05171358399093151092529296875">
        <ele>702.4000244140625</ele>
        <time>2023-01-11T16:45:28.000Z</time>
      </trkpt>
      <trkpt lat="-49.226078130304813385009765625" lon="-73.05170930922031402587890625">
        <ele>702.4000244140625</ele>
        <time>2023-01-11T16:45:29.000Z</time>
      </trkpt>
      <trkpt lat="-49.22605256550014019012451171875" lon="-73.05169614963233470916748046875">
        <ele>702.20001220703125</ele>
        <time>2023-01-11T16:45:32.000Z</time>
      </trkpt>
      <trkpt lat="-49.2260276712477207183837890625" lon="-73.05164250545203685760498046875">
        <ele>702.20001220703125</ele>
        <time>2023-01-11T16:45:37.000Z</time>
      </trkpt>
      <trkpt lat="-49.22602959908545017242431640625" lon="-73.05161233060061931610107421875">
        <ele>701.4000244140625</ele>
        <time>2023-01-11T16:45:40.000Z</time>
      </trkpt>
      <trkpt lat="-49.22601451165974140167236328125" lon="-73.05157612077891826629638671875">
        <ele>701.20001220703125</ele>
        <time>2023-01-11T16:45:44.000Z</time>
      </trkpt>
      <trkpt lat="-49.22600830905139446258544921875" lon="-73.05156840942800045013427734375">
        <ele>700.20001220703125</ele>
        <time>2023-01-11T16:45:45.000Z</time>
      </trkpt>
      <trkpt lat="-49.2259807325899600982666015625" lon="-73.0515589378774166107177734375">
        <ele>699.20001220703125</ele>
        <time>2023-01-11T16:45:53.000Z</time>
      </trkpt>
      <trkpt lat="-49.2259673215448856353759765625" lon="-73.05154561065137386322021484375">
        <ele>699</ele>
        <time>2023-01-11T16:45:57.000Z</time>
      </trkpt>
      <trkpt lat="-49.2259518988430500030517578125" lon="-73.05156740359961986541748046875">
        <ele>699</ele>
        <time>2023-01-11T16:46:00.000Z</time>
      </trkpt>
      <trkpt lat="-49.22594309784471988677978515625" lon="-73.05157159455120563507080078125">
        <ele>698.5999755859375</ele>
        <time>2023-01-11T16:46:01.000Z</time>
      </trkpt>
      <trkpt lat="-49.22590948641300201416015625" lon="-73.05154527537524700164794921875">
        <ele>698.20001220703125</ele>
        <time>2023-01-11T16:46:05.000Z</time>
      </trkpt>
      <trkpt lat="-49.225904457271099090576171875" lon="-73.0515485443174839019775390625">
        <ele>697.79998779296875</ele>
        <time>2023-01-11T16:46:06.000Z</time>
      </trkpt>
      <trkpt lat="-49.2258645594120025634765625" lon="-73.0515334568917751312255859375">
        <ele>698</ele>
        <time>2023-01-11T16:46:13.000Z</time>
      </trkpt>
      <trkpt lat="-49.22585743479430675506591796875" lon="-73.05153228342533111572265625">
        <ele>697.79998779296875</ele>
        <time>2023-01-11T16:46:15.000Z</time>
      </trkpt>
      <trkpt lat="-49.22582038678228855133056640625" lon="-73.05149967782199382781982421875">
        <ele>696.4000244140625</ele>
        <time>2023-01-11T16:46:20.000Z</time>
      </trkpt>
      <trkpt lat="-49.22581016086041927337646484375" lon="-73.05147285573184490203857421875">
        <ele>695</ele>
        <time>2023-01-11T16:46:22.000Z</time>
      </trkpt>
      <trkpt lat="-49.2258141003549098968505859375" lon="-73.05143446661531925201416015625">
        <ele>694</ele>
        <time>2023-01-11T16:46:25.000Z</time>
      </trkpt>
      <trkpt lat="-49.2258135974407196044921875" lon="-73.0514221452176570892333984375">
        <ele>694</ele>
        <time>2023-01-11T16:46:26.000Z</time>
      </trkpt>
      <trkpt lat="-49.225809909403324127197265625" lon="-73.0514122545719146728515625">
        <ele>694</ele>
        <time>2023-01-11T16:46:27.000Z</time>
      </trkpt>
      <trkpt lat="-49.22579473815858364105224609375" lon="-73.051386773586273193359375">
        <ele>694</ele>
        <time>2023-01-11T16:46:30.000Z</time>
      </trkpt>
      <trkpt lat="-49.22576037235558032989501953125" lon="-73.0513705126941204071044921875">
        <ele>694.5999755859375</ele>
        <time>2023-01-11T16:46:33.000Z</time>
      </trkpt>
      <trkpt lat="-49.225708656013011932373046875" lon="-73.0513487197458744049072265625">
        <ele>695</ele>
        <time>2023-01-11T16:46:40.000Z</time>
      </trkpt>
      <trkpt lat="-49.22570220194756984710693359375" lon="-73.05134092457592487335205078125">
        <ele>693.5999755859375</ele>
        <time>2023-01-11T16:46:41.000Z</time>
      </trkpt>
      <trkpt lat="-49.22564906068146228790283203125" lon="-73.051287867128849029541015625">
        <ele>693.20001220703125</ele>
        <time>2023-01-11T16:46:49.000Z</time>
      </trkpt>
      <trkpt lat="-49.22562626190483570098876953125" lon="-73.05130236782133579254150390625">
        <ele>693.5999755859375</ele>
        <time>2023-01-11T16:46:55.000Z</time>
      </trkpt>
      <trkpt lat="-49.22558234073221683502197265625" lon="-73.0512632243335247039794921875">
        <ele>693.5999755859375</ele>
        <time>2023-01-11T16:47:01.000Z</time>
      </trkpt>
      <trkpt lat="-49.2255294509232044219970703125" lon="-73.051192648708820343017578125">
        <ele>693.79998779296875</ele>
        <time>2023-01-11T16:47:09.000Z</time>
      </trkpt>
      <trkpt lat="-49.22553523443639278411865234375" lon="-73.05114562623202800750732421875">
        <ele>692.4000244140625</ele>
        <time>2023-01-11T16:47:13.000Z</time>
      </trkpt>
      <trkpt lat="-49.22553489916026592254638671875" lon="-73.05112869478762149810791015625">
        <ele>692.4000244140625</ele>
        <time>2023-01-11T16:47:15.000Z</time>
      </trkpt>
      <trkpt lat="-49.2255133576691150665283203125" lon="-73.05109835229814052581787109375">
        <ele>690</ele>
        <time>2023-01-11T16:47:20.000Z</time>
      </trkpt>
      <trkpt lat="-49.2255136929452419281005859375" lon="-73.05109684355556964874267578125">
        <ele>690</ele>
        <time>2023-01-11T16:47:25.000Z</time>
      </trkpt>
      <trkpt lat="-49.225488044321537017822265625" lon="-73.05106365121901035308837890625">
        <ele>689.79998779296875</ele>
        <time>2023-01-11T16:47:32.000Z</time>
      </trkpt>
      <trkpt lat="-49.2254634015262126922607421875" lon="-73.051051832735538482666015625">
        <ele>689.79998779296875</ele>
        <time>2023-01-11T16:47:36.000Z</time>
      </trkpt>
      <trkpt lat="-49.2254224978387355804443359375" lon="-73.0510761402547359466552734375">
        <ele>689</ele>
        <time>2023-01-11T16:47:39.000Z</time>
      </trkpt>
      <trkpt lat="-49.2254053987562656402587890625" lon="-73.0510975979268550872802734375">
        <ele>687.79998779296875</ele>
        <time>2023-01-11T16:47:42.000Z</time>
      </trkpt>
      <trkpt lat="-49.22537363134324550628662109375" lon="-73.051136992871761322021484375">
        <ele>687.5999755859375</ele>
        <time>2023-01-11T16:47:46.000Z</time>
      </trkpt>
      <trkpt lat="-49.2253576219081878662109375" lon="-73.0511535890400409698486328125">
        <ele>688.20001220703125</ele>
        <time>2023-01-11T16:47:50.000Z</time>
      </trkpt>
      <trkpt lat="-49.2253728769719600677490234375" lon="-73.051116876304149627685546875">
        <ele>688</ele>
        <time>2023-01-11T16:47:57.000Z</time>
      </trkpt>
      <trkpt lat="-49.2253772355616092681884765625" lon="-73.0511244200170040130615234375">
        <ele>688</ele>
        <time>2023-01-11T16:48:01.000Z</time>
      </trkpt>
      <trkpt lat="-49.225357286632061004638671875" lon="-73.05115945637226104736328125">
        <ele>688.79998779296875</ele>
        <time>2023-01-11T16:48:08.000Z</time>
      </trkpt>
      <trkpt lat="-49.225357286632061004638671875" lon="-73.05115945637226104736328125">
        <ele>689</ele>
        <time>2023-01-11T16:48:09.000Z</time>
      </trkpt>
      <trkpt lat="-49.225357286632061004638671875" lon="-73.05115945637226104736328125">
        <ele>690</ele>
        <time>2023-01-11T16:48:13.000Z</time>
      </trkpt>
      <trkpt lat="-49.2253561131656169891357421875" lon="-73.05115945637226104736328125">
        <ele>689.79998779296875</ele>
        <time>2023-01-11T16:48:20.000Z</time>
      </trkpt>
      <trkpt lat="-49.2253561131656169891357421875" lon="-73.051171861588954925537109375">
        <ele>689.20001220703125</ele>
        <time>2023-01-11T16:48:32.000Z</time>
      </trkpt>
      <trkpt lat="-49.22535636462271213531494140625" lon="-73.051171861588954925537109375">
        <ele>688.5999755859375</ele>
        <time>2023-01-11T16:48:34.000Z</time>
      </trkpt>
      <trkpt lat="-49.22536474652588367462158203125" lon="-73.05114026181399822235107421875">
        <ele>687.5999755859375</ele>
        <time>2023-01-11T16:48:51.000Z</time>
      </trkpt>
      <trkpt lat="-49.2253939993679523468017578125" lon="-73.0511338077485561370849609375">
        <ele>687.79998779296875</ele>
        <time>2023-01-11T16:49:09.000Z</time>
      </trkpt>
      <trkpt lat="-49.22539492137730121612548828125" lon="-73.05112726986408233642578125">
        <ele>687.79998779296875</ele>
        <time>2023-01-11T16:49:13.000Z</time>
      </trkpt>
      <trkpt lat="-49.22539508901536464691162109375" lon="-73.051125593483448028564453125">
        <ele>687.4000244140625</ele>
        <time>2023-01-11T16:49:14.000Z</time>
      </trkpt>
      <trkpt lat="-49.2253951728343963623046875" lon="-73.051124922931194305419921875">
        <ele>687.20001220703125</ele>
        <time>2023-01-11T16:49:15.000Z</time>
      </trkpt>
      <trkpt lat="-49.2253919877111911773681640625" lon="-73.05112064816057682037353515625">
        <ele>687</ele>
        <time>2023-01-11T16:49:17.000Z</time>
      </trkpt>
      <trkpt lat="-49.22537975013256072998046875" lon="-73.05111394263803958892822265625">
        <ele>686.4000244140625</ele>
        <time>2023-01-11T16:49:18.000Z</time>
      </trkpt>
      <trkpt lat="-49.2253527604043483734130859375" lon="-73.05110740475356578826904296875">
        <ele>686</ele>
        <time>2023-01-11T16:49:20.000Z</time>
      </trkpt>
      <trkpt lat="-49.225313365459442138671875" lon="-73.051091395318508148193359375">
        <ele>685.4000244140625</ele>
        <time>2023-01-11T16:49:23.000Z</time>
      </trkpt>
      <trkpt lat="-49.2252803407609462738037109375" lon="-73.05107018910348415374755859375">
        <ele>684.79998779296875</ele>
        <time>2023-01-11T16:49:26.000Z</time>
      </trkpt>
      <trkpt lat="-49.225280173122882843017578125" lon="-73.0510566942393779754638671875">
        <ele>684.79998779296875</ele>
        <time>2023-01-11T16:49:27.000Z</time>
      </trkpt>
      <trkpt lat="-49.2252692766487598419189453125" lon="-73.05102802813053131103515625">
        <ele>684.20001220703125</ele>
        <time>2023-01-11T16:49:30.000Z</time>
      </trkpt>
      <trkpt lat="-49.22525142319500446319580078125" lon="-73.05098888464272022247314453125">
        <ele>683.79998779296875</ele>
        <time>2023-01-11T16:49:35.000Z</time>
      </trkpt>
      <trkpt lat="-49.22524689696729183197021484375" lon="-73.05095669813454151153564453125">
        <ele>682.79998779296875</ele>
        <time>2023-01-11T16:49:39.000Z</time>
      </trkpt>
      <trkpt lat="-49.22522342763841152191162109375" lon="-73.05095921270549297332763671875">
        <ele>682.5999755859375</ele>
        <time>2023-01-11T16:49:42.000Z</time>
      </trkpt>
      <trkpt lat="-49.2252035625278949737548828125" lon="-73.050917722284793853759765625">
        <ele>682.79998779296875</ele>
        <time>2023-01-11T16:49:45.000Z</time>
      </trkpt>
      <trkpt lat="-49.22521152533590793609619140625" lon="-73.05087422020733356475830078125">
        <ele>682.5999755859375</ele>
        <time>2023-01-11T16:49:47.000Z</time>
      </trkpt>
      <trkpt lat="-49.22521554864943027496337890625" lon="-73.05085611529648303985595703125">
        <ele>681.4000244140625</ele>
        <time>2023-01-11T16:49:48.000Z</time>
      </trkpt>
      <trkpt lat="-49.22520398162305355072021484375" lon="-73.05080045945942401885986328125">
        <ele>682</ele>
        <time>2023-01-11T16:49:55.000Z</time>
      </trkpt>
      <trkpt lat="-49.2251774109899997711181640625" lon="-73.0507529340684413909912109375">
        <ele>681.20001220703125</ele>
        <time>2023-01-11T16:50:03.000Z</time>
      </trkpt>
      <trkpt lat="-49.2251710407435894012451171875" lon="-73.0507489107549190521240234375">
        <ele>680.4000244140625</ele>
        <time>2023-01-11T16:50:05.000Z</time>
      </trkpt>
      <trkpt lat="-49.2251603119075298309326171875" lon="-73.05073457770049571990966796875">
        <ele>680</ele>
        <time>2023-01-11T16:50:08.000Z</time>
      </trkpt>
      <trkpt lat="-49.22514715231955051422119140625" lon="-73.05072803981602191925048828125">
        <ele>679.20001220703125</ele>
        <time>2023-01-11T16:50:12.000Z</time>
      </trkpt>
      <trkpt lat="-49.2251287959516048431396484375" lon="-73.05069702677428722381591796875">
        <ele>678.20001220703125</ele>
        <time>2023-01-11T16:50:16.000Z</time>
      </trkpt>
      <trkpt lat="-49.22512359917163848876953125" lon="-73.05069141089916229248046875">
        <ele>678.20001220703125</ele>
        <time>2023-01-11T16:50:17.000Z</time>
      </trkpt>
      <trkpt lat="-49.22511815093457698822021484375" lon="-73.05068931542336940765380859375">
        <ele>678</ele>
        <time>2023-01-11T16:50:18.000Z</time>
      </trkpt>
      <trkpt lat="-49.22510239295661449432373046875" lon="-73.05070088244974613189697265625">
        <ele>678</ele>
        <time>2023-01-11T16:50:20.000Z</time>
      </trkpt>
      <trkpt lat="-49.2250888980925083160400390625" lon="-73.05069803260266780853271484375">
        <ele>676.79998779296875</ele>
        <time>2023-01-11T16:50:24.000Z</time>
      </trkpt>
      <trkpt lat="-49.22507959417998790740966796875" lon="-73.05068445391952991485595703125">
        <ele>675.5999755859375</ele>
        <time>2023-01-11T16:50:26.000Z</time>
      </trkpt>
      <trkpt lat="-49.225071966648101806640625" lon="-73.05063583888113498687744140625">
        <ele>675</ele>
        <time>2023-01-11T16:50:31.000Z</time>
      </trkpt>
      <trkpt lat="-49.22506718896329402923583984375" lon="-73.050615973770618438720703125">
        <ele>674.5999755859375</ele>
        <time>2023-01-11T16:50:34.000Z</time>
      </trkpt>
      <trkpt lat="-49.2250533588230609893798828125" lon="-73.05062611587345600128173828125">
        <ele>674.4000244140625</ele>
        <time>2023-01-11T16:50:38.000Z</time>
      </trkpt>
      <trkpt lat="-49.22499728389084339141845703125" lon="-73.05063181556761264801025390625">
        <ele>674.20001220703125</ele>
        <time>2023-01-11T16:50:45.000Z</time>
      </trkpt>
      <trkpt lat="-49.2249775864183902740478515625" lon="-73.05062041617929935455322265625">
        <ele>673.5999755859375</ele>
        <time>2023-01-11T16:50:47.000Z</time>
      </trkpt>
      <trkpt lat="-49.2249578051269054412841796875" lon="-73.0506171472370624542236328125">
        <ele>673.4000244140625</ele>
        <time>2023-01-11T16:50:49.000Z</time>
      </trkpt>
      <trkpt lat="-49.22490365803241729736328125" lon="-73.05063952691853046417236328125">
        <ele>672.5999755859375</ele>
        <time>2023-01-11T16:50:55.000Z</time>
      </trkpt>
      <trkpt lat="-49.22489653341472148895263671875" lon="-73.050642795860767364501953125">
        <ele>671.79998779296875</ele>
        <time>2023-01-11T16:50:56.000Z</time>
      </trkpt>
      <trkpt lat="-49.22486719675362110137939453125" lon="-73.0506503395736217498779296875">
        <ele>671.4000244140625</ele>
        <time>2023-01-11T16:51:00.000Z</time>
      </trkpt>
      <trkpt lat="-49.22485948540270328521728515625" lon="-73.05063483305275440216064453125">
        <ele>670.79998779296875</ele>
        <time>2023-01-11T16:51:02.000Z</time>
      </trkpt>
      <trkpt lat="-49.2248632572591304779052734375" lon="-73.05062594823539257049560546875">
        <ele>670.4000244140625</ele>
        <time>2023-01-11T16:51:03.000Z</time>
      </trkpt>
      <trkpt lat="-49.2248538695275783538818359375" lon="-73.05057817138731479644775390625">
        <ele>669.20001220703125</ele>
        <time>2023-01-11T16:51:09.000Z</time>
      </trkpt>
      <trkpt lat="-49.2248434759676456451416015625" lon="-73.050571382045745849609375">
        <ele>669.20001220703125</ele>
        <time>2023-01-11T16:51:11.000Z</time>
      </trkpt>
      <trkpt lat="-49.22482880763709545135498046875" lon="-73.0505591444671154022216796875">
        <ele>668.79998779296875</ele>
        <time>2023-01-11T16:51:13.000Z</time>
      </trkpt>
      <trkpt lat="-49.2248250357806682586669921875" lon="-73.05054414086043834686279296875">
        <ele>668.5999755859375</ele>
        <time>2023-01-11T16:51:14.000Z</time>
      </trkpt>
      <trkpt lat="-49.2248223535716533660888671875" lon="-73.0505289696156978607177734375">
        <ele>668.5999755859375</ele>
        <time>2023-01-11T16:51:15.000Z</time>
      </trkpt>
      <trkpt lat="-49.2248186655342578887939453125" lon="-73.05052016861736774444580078125">
        <ele>668.20001220703125</ele>
        <time>2023-01-11T16:51:16.000Z</time>
      </trkpt>
      <trkpt lat="-49.22480550594627857208251953125" lon="-73.0505038239061832427978515625">
        <ele>667.79998779296875</ele>
        <time>2023-01-11T16:51:18.000Z</time>
      </trkpt>
      <trkpt lat="-49.2247970402240753173828125" lon="-73.050508685410022735595703125">
        <ele>667.4000244140625</ele>
        <time>2023-01-11T16:51:20.000Z</time>
      </trkpt>
      <trkpt lat="-49.22477097250521183013916015625" lon="-73.050508685410022735595703125">
        <ele>667</ele>
        <time>2023-01-11T16:51:24.000Z</time>
      </trkpt>
      <trkpt lat="-49.2247613333165645599365234375" lon="-73.0505165643990039825439453125">
        <ele>667</ele>
        <time>2023-01-11T16:51:26.000Z</time>
      </trkpt>
      <trkpt lat="-49.22475739382207393646240234375" lon="-73.05052787996828556060791015625">
        <ele>666.20001220703125</ele>
        <time>2023-01-11T16:51:29.000Z</time>
      </trkpt>
      <trkpt lat="-49.22472721897065639495849609375" lon="-73.0505155585706233978271484375">
        <ele>666.20001220703125</ele>
        <time>2023-01-11T16:51:32.000Z</time>
      </trkpt>
      <trkpt lat="-49.22468346543610095977783203125" lon="-73.0504600703716278076171875">
        <ele>666</ele>
        <time>2023-01-11T16:51:38.000Z</time>
      </trkpt>
      <trkpt lat="-49.22467927448451519012451171875" lon="-73.0504474975168704986572265625">
        <ele>666</ele>
        <time>2023-01-11T16:51:39.000Z</time>
      </trkpt>
      <trkpt lat="-49.22466971911489963531494140625" lon="-73.05044020526111125946044921875">
        <ele>666</ele>
        <time>2023-01-11T16:51:40.000Z</time>
      </trkpt>
      <trkpt lat="-49.22465781681239604949951171875" lon="-73.050434924662113189697265625">
        <ele>665.5999755859375</ele>
        <time>2023-01-11T16:51:41.000Z</time>
      </trkpt>
      <trkpt lat="-49.22461875714361667633056640625" lon="-73.05041120387613773345947265625">
        <ele>664</ele>
        <time>2023-01-11T16:51:46.000Z</time>
      </trkpt>
      <trkpt lat="-49.22460383735597133636474609375" lon="-73.0503876507282257080078125">
        <ele>662.79998779296875</ele>
        <time>2023-01-11T16:51:48.000Z</time>
      </trkpt>
      <trkpt lat="-49.22459746710956096649169921875" lon="-73.0503737367689609527587890625">
        <ele>662.79998779296875</ele>
        <time>2023-01-11T16:51:49.000Z</time>
      </trkpt>
      <trkpt lat="-49.2245926894247531890869140625" lon="-73.05036342702805995941162109375">
        <ele>662.5999755859375</ele>
        <time>2023-01-11T16:51:50.000Z</time>
      </trkpt>
      <trkpt lat="-49.22456762753427028656005859375" lon="-73.0503170751035213470458984375">
        <ele>662.4000244140625</ele>
        <time>2023-01-11T16:51:54.000Z</time>
      </trkpt>
      <trkpt lat="-49.22452253289520740509033203125" lon="-73.05019025690853595733642578125">
        <ele>662</ele>
        <time>2023-01-11T16:52:03.000Z</time>
      </trkpt>
      <trkpt lat="-49.224522113800048828125" lon="-73.05017433129251003265380859375">
        <ele>660.5999755859375</ele>
        <time>2023-01-11T16:52:04.000Z</time>
      </trkpt>
      <trkpt lat="-49.2245142348110675811767578125" lon="-73.0501440726220607757568359375">
        <ele>660.5999755859375</ele>
        <time>2023-01-11T16:52:06.000Z</time>
      </trkpt>
      <trkpt lat="-49.22448389232158660888671875" lon="-73.0500558950006961822509765625">
        <ele>661</ele>
        <time>2023-01-11T16:52:12.000Z</time>
      </trkpt>
      <trkpt lat="-49.22441122122108936309814453125" lon="-73.049970902502536773681640625">
        <ele>660.5999755859375</ele>
        <time>2023-01-11T16:52:21.000Z</time>
      </trkpt>
      <trkpt lat="-49.2243985645473003387451171875" lon="-73.04993662051856517791748046875">
        <ele>660.4000244140625</ele>
        <time>2023-01-11T16:52:24.000Z</time>
      </trkpt>
      <trkpt lat="-49.2243767715990543365478515625" lon="-73.04992689751088619232177734375">
        <ele>660</ele>
        <time>2023-01-11T16:52:27.000Z</time>
      </trkpt>
      <trkpt lat="-49.224355481564998626708984375" lon="-73.0498996563255786895751953125">
        <ele>659.5999755859375</ele>
        <time>2023-01-11T16:52:31.000Z</time>
      </trkpt>
      <trkpt lat="-49.22433896921575069427490234375" lon="-73.04985883645713329315185546875">
        <ele>659.4000244140625</ele>
        <time>2023-01-11T16:52:35.000Z</time>
      </trkpt>
      <trkpt lat="-49.224303178489208221435546875" lon="-73.049784488976001739501953125">
        <ele>659</ele>
        <time>2023-01-11T16:52:42.000Z</time>
      </trkpt>
      <trkpt lat="-49.22427778132259845733642578125" lon="-73.049776442348957061767578125">
        <ele>658.79998779296875</ele>
        <time>2023-01-11T16:52:44.000Z</time>
      </trkpt>
      <trkpt lat="-49.224231429398059844970703125" lon="-73.04974970407783985137939453125">
        <ele>658.5999755859375</ele>
        <time>2023-01-11T16:52:48.000Z</time>
      </trkpt>
      <trkpt lat="-49.22422363422811031341552734375" lon="-73.049740232527256011962890625">
        <ele>658.5999755859375</ele>
        <time>2023-01-11T16:52:49.000Z</time>
      </trkpt>
      <trkpt lat="-49.2241910286247730255126953125" lon="-73.0496582575142383575439453125">
        <ele>657.5999755859375</ele>
        <time>2023-01-11T16:52:56.000Z</time>
      </trkpt>
      <trkpt lat="-49.22419899143278598785400390625" lon="-73.049643002450466156005859375">
        <ele>657.5999755859375</ele>
        <time>2023-01-11T16:52:57.000Z</time>
      </trkpt>
      <trkpt lat="-49.22419957816600799560546875" lon="-73.049618862569332122802734375">
        <ele>657.5999755859375</ele>
        <time>2023-01-11T16:52:59.000Z</time>
      </trkpt>
      <trkpt lat="-49.22419111244380474090576171875" lon="-73.04956362582743167877197265625">
        <ele>657.5999755859375</ele>
        <time>2023-01-11T16:53:03.000Z</time>
      </trkpt>
      <trkpt lat="-49.22417518682777881622314453125" lon="-73.04949740879237651824951171875">
        <ele>657.20001220703125</ele>
        <time>2023-01-11T16:53:09.000Z</time>
      </trkpt>
      <trkpt lat="-49.22414551489055156707763671875" lon="-73.0494379810988903045654296875">
        <ele>656.5999755859375</ele>
        <time>2023-01-11T16:53:14.000Z</time>
      </trkpt>
      <trkpt lat="-49.224122799932956695556640625" lon="-73.04942599497735500335693359375">
        <ele>656.5999755859375</ele>
        <time>2023-01-11T16:53:17.000Z</time>
      </trkpt>
      <trkpt lat="-49.224110729992389678955078125" lon="-73.04942071437835693359375">
        <ele>656.4000244140625</ele>
        <time>2023-01-11T16:53:18.000Z</time>
      </trkpt>
      <trkpt lat="-49.22410972416400909423828125" lon="-73.049408979713916778564453125">
        <ele>656.4000244140625</ele>
        <time>2023-01-11T16:53:20.000Z</time>
      </trkpt>
      <trkpt lat="-49.2241132445633411407470703125" lon="-73.04940151982009410858154296875">
        <ele>656.4000244140625</ele>
        <time>2023-01-11T16:53:22.000Z</time>
      </trkpt>
      <trkpt lat="-49.224089272320270538330078125" lon="-73.0493866838514804840087890625">
        <ele>655.79998779296875</ele>
        <time>2023-01-11T16:53:29.000Z</time>
      </trkpt>
      <trkpt lat="-49.22406253404915332794189453125" lon="-73.04937385953962802886962890625">
        <ele>655.79998779296875</ele>
        <time>2023-01-11T16:53:33.000Z</time>
      </trkpt>
      <trkpt lat="-49.2240364663302898406982421875" lon="-73.04936237633228302001953125">
        <ele>656</ele>
        <time>2023-01-11T16:53:36.000Z</time>
      </trkpt>
      <trkpt lat="-49.22401324845850467681884765625" lon="-73.0493447743356227874755859375">
        <ele>655.5999755859375</ele>
        <time>2023-01-11T16:53:39.000Z</time>
      </trkpt>
      <trkpt lat="-49.2239888571202754974365234375" lon="-73.0493149347603321075439453125">
        <ele>655.4000244140625</ele>
        <time>2023-01-11T16:53:43.000Z</time>
      </trkpt>
      <trkpt lat="-49.22395876608788967132568359375" lon="-73.04929959587752819061279296875">
        <ele>655.4000244140625</ele>
        <time>2023-01-11T16:53:46.000Z</time>
      </trkpt>
      <trkpt lat="-49.22392331063747406005859375" lon="-73.0492763780057430267333984375">
        <ele>654.5999755859375</ele>
        <time>2023-01-11T16:53:52.000Z</time>
      </trkpt>
      <trkpt lat="-49.22391585074365139007568359375" lon="-73.0492636375129222869873046875">
        <ele>654.5999755859375</ele>
        <time>2023-01-11T16:53:53.000Z</time>
      </trkpt>
      <trkpt lat="-49.22389556653797626495361328125" lon="-73.04924176074564456939697265625">
        <ele>655</ele>
        <time>2023-01-11T16:53:57.000Z</time>
      </trkpt>
      <trkpt lat="-49.22389154322445392608642578125" lon="-73.049247376620769500732421875">
        <ele>654.4000244140625</ele>
        <time>2023-01-11T16:53:58.000Z</time>
      </trkpt>
      <trkpt lat="-49.22388785518705844879150390625" lon="-73.0492478795349597930908203125">
        <ele>654.4000244140625</ele>
        <time>2023-01-11T16:53:59.000Z</time>
      </trkpt>
      <trkpt lat="-49.22387075610458850860595703125" lon="-73.04926003329455852508544921875">
        <ele>653.5999755859375</ele>
        <time>2023-01-11T16:54:02.000Z</time>
      </trkpt>
      <trkpt lat="-49.22386371530592441558837890625" lon="-73.04926841519773006439208984375">
        <ele>653.20001220703125</ele>
        <time>2023-01-11T16:54:04.000Z</time>
      </trkpt>
      <trkpt lat="-49.2238513939082622528076171875" lon="-73.04929926060140132904052734375">
        <ele>653.20001220703125</ele>
        <time>2023-01-11T16:54:07.000Z</time>
      </trkpt>
      <trkpt lat="-49.22385516576468944549560546875" lon="-73.0493799783289432525634765625">
        <ele>654.20001220703125</ele>
        <time>2023-01-11T16:54:13.000Z</time>
      </trkpt>
      <trkpt lat="-49.22385181300342082977294921875" lon="-73.0494071356952190399169921875">
        <ele>654.79998779296875</ele>
        <time>2023-01-11T16:54:15.000Z</time>
      </trkpt>
      <trkpt lat="-49.2238239012658596038818359375" lon="-73.04944208823144435882568359375">
        <ele>656.5999755859375</ele>
        <time>2023-01-11T16:54:19.000Z</time>
      </trkpt>
      <trkpt lat="-49.22380906529724597930908203125" lon="-73.049476034939289093017578125">
        <ele>655.5999755859375</ele>
        <time>2023-01-11T16:54:22.000Z</time>
      </trkpt>
      <trkpt lat="-49.22378190793097019195556640625" lon="-73.04947343654930591583251953125">
        <ele>653.5999755859375</ele>
        <time>2023-01-11T16:54:23.000Z</time>
      </trkpt>
      <trkpt lat="-49.223819039762020111083984375" lon="-73.04944527335464954376220703125">
        <ele>652.5999755859375</ele>
        <time>2023-01-11T16:54:25.000Z</time>
      </trkpt>
      <trkpt lat="-49.22382851131260395050048828125" lon="-73.04936983622610569000244140625">
        <ele>653.4000244140625</ele>
        <time>2023-01-11T16:54:28.000Z</time>
      </trkpt>
      <trkpt lat="-49.2238128371536731719970703125" lon="-73.0493622086942195892333984375">
        <ele>654.4000244140625</ele>
        <time>2023-01-11T16:54:30.000Z</time>
      </trkpt>
      <trkpt lat="-49.22379188239574432373046875" lon="-73.04932541213929653167724609375">
        <ele>654</ele>
        <time>2023-01-11T16:54:35.000Z</time>
      </trkpt>
      <trkpt lat="-49.223752319812774658203125" lon="-73.04931811988353729248046875">
        <ele>653.20001220703125</ele>
        <time>2023-01-11T16:54:38.000Z</time>
      </trkpt>
      <trkpt lat="-49.22372390516102313995361328125" lon="-73.04930160753428936004638671875">
        <ele>652.79998779296875</ele>
        <time>2023-01-11T16:54:41.000Z</time>
      </trkpt>
      <trkpt lat="-49.223715774714946746826171875" lon="-73.0492866039276123046875">
        <ele>652.79998779296875</ele>
        <time>2023-01-11T16:54:42.000Z</time>
      </trkpt>
      <trkpt lat="-49.22370328567922115325927734375" lon="-73.0492515675723552703857421875">
        <ele>652.79998779296875</ele>
        <time>2023-01-11T16:54:45.000Z</time>
      </trkpt>
      <trkpt lat="-49.2237089015543460845947265625" lon="-73.04923631250858306884765625">
        <ele>652.79998779296875</ele>
        <time>2023-01-11T16:54:46.000Z</time>
      </trkpt>
      <trkpt lat="-49.22370764426887035369873046875" lon="-73.0491922236979007720947265625">
        <ele>652</ele>
        <time>2023-01-11T16:54:49.000Z</time>
      </trkpt>
      <trkpt lat="-49.2236787267029285430908203125" lon="-73.0491171218454837799072265625">
        <ele>652</ele>
        <time>2023-01-11T16:54:56.000Z</time>
      </trkpt>
      <trkpt lat="-49.2236374877393245697021484375" lon="-73.0490681715309619903564453125">
        <ele>651.5999755859375</ele>
        <time>2023-01-11T16:55:02.000Z</time>
      </trkpt>
      <trkpt lat="-49.22361829318106174468994140625" lon="-73.0490286089479923248291015625">
        <ele>650.79998779296875</ele>
        <time>2023-01-11T16:55:06.000Z</time>
      </trkpt>
      <trkpt lat="-49.22359482385218143463134765625" lon="-73.0489863641560077667236328125">
        <ele>650.79998779296875</ele>
        <time>2023-01-11T16:55:10.000Z</time>
      </trkpt>
      <trkpt lat="-49.2235432751476764678955078125" lon="-73.04892827756702899932861328125">
        <ele>651</ele>
        <time>2023-01-11T16:55:15.000Z</time>
      </trkpt>
      <trkpt lat="-49.22352994792163372039794921875" lon="-73.04889441467821598052978515625">
        <ele>651</ele>
        <time>2023-01-11T16:55:18.000Z</time>
      </trkpt>
      <trkpt lat="-49.2234634794294834136962890625" lon="-73.04879433475434780120849609375">
        <ele>650.4000244140625</ele>
        <time>2023-01-11T16:55:27.000Z</time>
      </trkpt>
      <trkpt lat="-49.22342651523649692535400390625" lon="-73.04876248352229595184326171875">
        <ele>650.20001220703125</ele>
        <time>2023-01-11T16:55:31.000Z</time>
      </trkpt>
      <trkpt lat="-49.2233907245099544525146484375" lon="-73.048717640340328216552734375">
        <ele>649.5999755859375</ele>
        <time>2023-01-11T16:55:35.000Z</time>
      </trkpt>
      <trkpt lat="-49.22332090325653553009033203125" lon="-73.0486522614955902099609375">
        <ele>649.20001220703125</ele>
        <time>2023-01-11T16:55:43.000Z</time>
      </trkpt>
      <trkpt lat="-49.2233028821647167205810546875" lon="-73.04864195175468921661376953125">
        <ele>649.20001220703125</ele>
        <time>2023-01-11T16:55:45.000Z</time>
      </trkpt>
      <trkpt lat="-49.22326239757239818572998046875" lon="-73.04858227260410785675048828125">
        <ele>648.5999755859375</ele>
        <time>2023-01-11T16:55:51.000Z</time>
      </trkpt>
      <trkpt lat="-49.22320573590695858001708984375" lon="-73.04856534115970134735107421875">
        <ele>647.4000244140625</ele>
        <time>2023-01-11T16:55:56.000Z</time>
      </trkpt>
      <trkpt lat="-49.22319282777607440948486328125" lon="-73.04855444468557834625244140625">
        <ele>647.5999755859375</ele>
        <time>2023-01-11T16:55:58.000Z</time>
      </trkpt>
      <trkpt lat="-49.22317489050328731536865234375" lon="-73.04851337336003780364990234375">
        <ele>647.5999755859375</ele>
        <time>2023-01-11T16:56:01.000Z</time>
      </trkpt>
      <trkpt lat="-49.2231322266161441802978515625" lon="-73.04850650019943714141845703125">
        <ele>648</ele>
        <time>2023-01-11T16:56:05.000Z</time>
      </trkpt>
      <trkpt lat="-49.22306508757174015045166015625" lon="-73.04846291430294513702392578125">
        <ele>648.4000244140625</ele>
        <time>2023-01-11T16:56:12.000Z</time>
      </trkpt>
      <trkpt lat="-49.22305469401180744171142578125" lon="-73.048452772200107574462890625">
        <ele>648.5999755859375</ele>
        <time>2023-01-11T16:56:13.000Z</time>
      </trkpt>
      <trkpt lat="-49.222969114780426025390625" lon="-73.04840843193233013153076171875">
        <ele>648.4000244140625</ele>
        <time>2023-01-11T16:56:21.000Z</time>
      </trkpt>
      <trkpt lat="-49.2229572124779224395751953125" lon="-73.048400469124317169189453125">
        <ele>648.79998779296875</ele>
        <time>2023-01-11T16:56:22.000Z</time>
      </trkpt>
      <trkpt lat="-49.22294723801314830780029296875" lon="-73.04839183576405048370361328125">
        <ele>648.79998779296875</ele>
        <time>2023-01-11T16:56:23.000Z</time>
      </trkpt>
      <trkpt lat="-49.22286928631365299224853515625" lon="-73.04830198176205158233642578125">
        <ele>649.4000244140625</ele>
        <time>2023-01-11T16:56:32.000Z</time>
      </trkpt>
      <trkpt lat="-49.2228066734969615936279296875" lon="-73.04825990460813045501708984375">
        <ele>648.79998779296875</ele>
        <time>2023-01-11T16:56:38.000Z</time>
      </trkpt>
      <trkpt lat="-49.22277557663619518280029296875" lon="-73.0482477508485317230224609375">
        <ele>649</ele>
        <time>2023-01-11T16:56:41.000Z</time>
      </trkpt>
      <trkpt lat="-49.222756884992122650146484375" lon="-73.048230819404125213623046875">
        <ele>649</ele>
        <time>2023-01-11T16:56:43.000Z</time>
      </trkpt>
      <trkpt lat="-49.22272947616875171661376953125" lon="-73.04817994125187397003173828125">
        <ele>649.20001220703125</ele>
        <time>2023-01-11T16:56:52.000Z</time>
      </trkpt>
      <trkpt lat="-49.2227144725620746612548828125" lon="-73.0481823720037937164306640625">
        <ele>649.20001220703125</ele>
        <time>2023-01-11T16:56:55.000Z</time>
      </trkpt>
      <trkpt lat="-49.22271606512367725372314453125" lon="-73.04818094708025455474853515625">
        <ele>649.20001220703125</ele>
        <time>2023-01-11T16:56:57.000Z</time>
      </trkpt>
      <trkpt lat="-49.22271941788494586944580078125" lon="-73.0481760017573833465576171875">
        <ele>649.20001220703125</ele>
        <time>2023-01-11T16:56:59.000Z</time>
      </trkpt>
      <trkpt lat="-49.22271941788494586944580078125" lon="-73.0481760017573833465576171875">
        <ele>649.20001220703125</ele>
        <time>2023-01-11T16:57:06.000Z</time>
      </trkpt>
      <trkpt lat="-49.22268815338611602783203125" lon="-73.0481817014515399932861328125">
        <ele>649.20001220703125</ele>
        <time>2023-01-11T16:57:16.000Z</time>
      </trkpt>
      <trkpt lat="-49.22265755943953990936279296875" lon="-73.04818279109895229339599609375">
        <ele>649.20001220703125</ele>
        <time>2023-01-11T16:57:18.000Z</time>
      </trkpt>
      <trkpt lat="-49.222506769001483917236328125" lon="-73.04817013442516326904296875">
        <ele>649.20001220703125</ele>
        <time>2023-01-11T16:57:30.000Z</time>
      </trkpt>
      <trkpt lat="-49.2224179208278656005859375" lon="-73.048212714493274688720703125">
        <ele>649.20001220703125</ele>
        <time>2023-01-11T16:57:39.000Z</time>
      </trkpt>
      <trkpt lat="-49.222384057939052581787109375" lon="-73.04820961318910121917724609375">
        <ele>649.20001220703125</ele>
        <time>2023-01-11T16:57:47.000Z</time>
      </trkpt>
      <trkpt lat="-49.2223952896893024444580078125" lon="-73.04821514524519443511962890625">
        <ele>649.4000244140625</ele>
        <time>2023-01-11T16:57:53.000Z</time>
      </trkpt>
      <trkpt lat="-49.2223879136145114898681640625" lon="-73.0482045002281665802001953125">
        <ele>649.20001220703125</ele>
        <time>2023-01-11T16:57:57.000Z</time>
      </trkpt>
      <trkpt lat="-49.22238715924322605133056640625" lon="-73.04820458404719829559326171875">
        <ele>649.20001220703125</ele>
        <time>2023-01-11T16:58:00.000Z</time>
      </trkpt>
      <trkpt lat="-49.22238715924322605133056640625" lon="-73.04820458404719829559326171875">
        <ele>649.5999755859375</ele>
        <time>2023-01-11T16:58:05.000Z</time>
      </trkpt>
      <trkpt lat="-49.22238715924322605133056640625" lon="-73.04820458404719829559326171875">
        <ele>649.5999755859375</ele>
        <time>2023-01-11T16:58:06.000Z</time>
      </trkpt>
      <trkpt lat="-49.22236603684723377227783203125" lon="-73.04820500314235687255859375">
        <ele>649.4000244140625</ele>
        <time>2023-01-11T16:58:23.000Z</time>
      </trkpt>
      <trkpt lat="-49.2223691381514072418212890625" lon="-73.04820357821881771087646484375">
        <ele>649.20001220703125</ele>
        <time>2023-01-11T16:58:39.000Z</time>
      </trkpt>
      <trkpt lat="-49.222398810088634490966796875" lon="-73.04819821380078792572021484375">
        <ele>649.5999755859375</ele>
        <time>2023-01-11T16:58:51.000Z</time>
      </trkpt>
      <trkpt lat="-49.22240342013537883758544921875" lon="-73.04819754324853420257568359375">
        <ele>650.4000244140625</ele>
        <time>2023-01-11T16:58:59.000Z</time>
      </trkpt>
      <trkpt lat="-49.22240409068763256072998046875" lon="-73.04819754324853420257568359375">
        <ele>650.5999755859375</ele>
        <time>2023-01-11T16:59:01.000Z</time>
      </trkpt>
      <trkpt lat="-49.22240425832569599151611328125" lon="-73.04819754324853420257568359375">
        <ele>652.5999755859375</ele>
        <time>2023-01-11T16:59:02.000Z</time>
      </trkpt>
      <trkpt lat="-49.22240626998245716094970703125" lon="-73.04821765981614589691162109375">
        <ele>653.5999755859375</ele>
        <time>2023-01-11T16:59:10.000Z</time>
      </trkpt>
      <trkpt lat="-49.2224063538014888763427734375" lon="-73.0482269637286663055419921875">
        <ele>653.4000244140625</ele>
        <time>2023-01-11T16:59:12.000Z</time>
      </trkpt>
      <trkpt lat="-49.2224060185253620147705078125" lon="-73.048231489956378936767578125">
        <ele>652.20001220703125</ele>
        <time>2023-01-11T16:59:16.000Z</time>
      </trkpt>
      <trkpt lat="-49.2224053479731082916259765625" lon="-73.04823341779410839080810546875">
        <ele>650.79998779296875</ele>
        <time>2023-01-11T16:59:18.000Z</time>
      </trkpt>
      <trkpt lat="-49.2224071919918060302734375" lon="-73.0482346750795841217041015625">
        <ele>650.79998779296875</ele>
        <time>2023-01-11T16:59:22.000Z</time>
      </trkpt>
      <trkpt lat="-49.22240786254405975341796875" lon="-73.0482350103557109832763671875">
        <ele>653.5999755859375</ele>
        <time>2023-01-11T16:59:25.000Z</time>
      </trkpt>
      <trkpt lat="-49.22240777872502803802490234375" lon="-73.0482353456318378448486328125">
        <ele>654</ele>
        <time>2023-01-11T16:59:31.000Z</time>
      </trkpt>
      <trkpt lat="-49.2224046774208545684814453125" lon="-73.0482350103557109832763671875">
        <ele>654</ele>
        <time>2023-01-11T16:59:35.000Z</time>
      </trkpt>
      <trkpt lat="-49.22240308485925197601318359375" lon="-73.0482350103557109832763671875">
        <ele>656.20001220703125</ele>
        <time>2023-01-11T16:59:38.000Z</time>
      </trkpt>
      <trkpt lat="-49.2224033363163471221923828125" lon="-73.048238195478916168212890625">
        <ele>654.4000244140625</ele>
        <time>2023-01-11T16:59:44.000Z</time>
      </trkpt>
      <trkpt lat="-49.2224030010402202606201171875" lon="-73.0482403747737407684326171875">
        <ele>652.79998779296875</ele>
        <time>2023-01-11T16:59:46.000Z</time>
      </trkpt>
      <trkpt lat="-49.2223966307938098907470703125" lon="-73.048238195478916168212890625">
        <ele>651</ele>
        <time>2023-01-11T16:59:52.000Z</time>
      </trkpt>
      <trkpt lat="-49.2223936133086681365966796875" lon="-73.0482363514602184295654296875">
        <ele>650</ele>
        <time>2023-01-11T16:59:54.000Z</time>
      </trkpt>
      <trkpt lat="-49.22238900326192378997802734375" lon="-73.04823559708893299102783203125">
        <ele>651</ele>
        <time>2023-01-11T17:00:00.000Z</time>
      </trkpt>
      <trkpt lat="-49.2223895899951457977294921875" lon="-73.0482356809079647064208984375">
        <ele>651</ele>
        <time>2023-01-11T17:00:03.000Z</time>
      </trkpt>
      <trkpt lat="-49.22239084728062152862548828125" lon="-73.0482363514602184295654296875">
        <ele>650</ele>
        <time>2023-01-11T17:00:06.000Z</time>
      </trkpt>
      <trkpt lat="-49.22239101491868495941162109375" lon="-73.048236854374408721923828125">
        <ele>648.20001220703125</ele>
        <time>2023-01-11T17:00:07.000Z</time>
      </trkpt>
      <trkpt lat="-49.22238715924322605133056640625" lon="-73.0482380278408527374267578125">
        <ele>647.79998779296875</ele>
        <time>2023-01-11T17:00:13.000Z</time>
      </trkpt>
      <trkpt lat="-49.22238481231033802032470703125" lon="-73.04823811165988445281982421875">
        <ele>648.4000244140625</ele>
        <time>2023-01-11T17:00:16.000Z</time>
      </trkpt>
      <trkpt lat="-49.22238464467227458953857421875" lon="-73.04823844693601131439208984375">
        <ele>649.4000244140625</ele>
        <time>2023-01-11T17:00:17.000Z</time>
      </trkpt>
      <trkpt lat="-49.22238816507160663604736328125" lon="-73.0482390336692333221435546875">
        <ele>648.4000244140625</ele>
        <time>2023-01-11T17:00:24.000Z</time>
      </trkpt>
      <trkpt lat="-49.22238866798579692840576171875" lon="-73.04823861457407474517822265625">
        <ele>648.20001220703125</ele>
        <time>2023-01-11T17:00:26.000Z</time>
      </trkpt>
      <trkpt lat="-49.22238900326192378997802734375" lon="-73.0482380278408527374267578125">
        <ele>647.79998779296875</ele>
        <time>2023-01-11T17:00:29.000Z</time>
      </trkpt>
      <trkpt lat="-49.2223830521106719970703125" lon="-73.0482366867363452911376953125">
        <ele>649.79998779296875</ele>
        <time>2023-01-11T17:00:47.000Z</time>
      </trkpt>
      <trkpt lat="-49.22238162718713283538818359375" lon="-73.048230819404125213623046875">
        <ele>650.20001220703125</ele>
        <time>2023-01-11T17:00:53.000Z</time>
      </trkpt>
      <trkpt lat="-49.22238112427294254302978515625" lon="-73.0482272990047931671142578125">
        <ele>650.20001220703125</ele>
        <time>2023-01-11T17:00:57.000Z</time>
      </trkpt>
      <trkpt lat="-49.22238104045391082763671875" lon="-73.04822620935738086700439453125">
        <ele>650</ele>
        <time>2023-01-11T17:00:58.000Z</time>
      </trkpt>
      <trkpt lat="-49.2223808728158473968505859375" lon="-73.0482232756912708282470703125">
        <ele>650</ele>
        <time>2023-01-11T17:01:01.000Z</time>
      </trkpt>
      <trkpt lat="-49.2223808728158473968505859375" lon="-73.04822252131998538970947265625">
        <ele>650.20001220703125</ele>
        <time>2023-01-11T17:01:02.000Z</time>
      </trkpt>
      <trkpt lat="-49.22238078899681568145751953125" lon="-73.04822168312966823577880859375">
        <ele>651.4000244140625</ele>
        <time>2023-01-11T17:01:03.000Z</time>
      </trkpt>
      <trkpt lat="-49.22238078899681568145751953125" lon="-73.048220761120319366455078125">
        <ele>651.5999755859375</ele>
        <time>2023-01-11T17:01:04.000Z</time>
      </trkpt>
      <trkpt lat="-49.222380705177783966064453125" lon="-73.0482192523777484893798828125">
        <ele>653.20001220703125</ele>
        <time>2023-01-11T17:01:06.000Z</time>
      </trkpt>
      <trkpt lat="-49.222380705177783966064453125" lon="-73.04821866564452648162841796875">
        <ele>653.20001220703125</ele>
        <time>2023-01-11T17:01:07.000Z</time>
      </trkpt>
      <trkpt lat="-49.222380705177783966064453125" lon="-73.048218078911304473876953125">
        <ele>653.4000244140625</ele>
        <time>2023-01-11T17:01:08.000Z</time>
      </trkpt>
      <trkpt lat="-49.22238028608262538909912109375" lon="-73.0482162348926067352294921875">
        <ele>652.20001220703125</ele>
        <time>2023-01-11T17:01:13.000Z</time>
      </trkpt>
      <trkpt lat="-49.22237978316843509674072265625" lon="-73.04821548052132129669189453125">
        <ele>653.20001220703125</ele>
        <time>2023-01-11T17:01:20.000Z</time>
      </trkpt>
      <trkpt lat="-49.22237961553037166595458984375" lon="-73.048215396702289581298828125">
        <ele>652.4000244140625</ele>
        <time>2023-01-11T17:01:27.000Z</time>
      </trkpt>
      <trkpt lat="-49.22237961553037166595458984375" lon="-73.048215396702289581298828125">
        <ele>651.4000244140625</ele>
        <time>2023-01-11T17:01:28.000Z</time>
      </trkpt>
      <trkpt lat="-49.22236804850399494171142578125" lon="-73.04822302423417568206787109375">
        <ele>651.20001220703125</ele>
        <time>2023-01-11T17:01:33.000Z</time>
      </trkpt>
      <trkpt lat="-49.22236704267561435699462890625" lon="-73.04822855629026889801025390625">
        <ele>652.4000244140625</ele>
        <time>2023-01-11T17:01:37.000Z</time>
      </trkpt>
      <trkpt lat="-49.22236704267561435699462890625" lon="-73.04822855629026889801025390625">
        <ele>653.5999755859375</ele>
        <time>2023-01-11T17:01:39.000Z</time>
      </trkpt>
      <trkpt lat="-49.22236704267561435699462890625" lon="-73.04822436533868312835693359375">
        <ele>652.4000244140625</ele>
        <time>2023-01-11T17:01:44.000Z</time>
      </trkpt>
      <trkpt lat="-49.22236704267561435699462890625" lon="-73.04822017438709735870361328125">
        <ele>652.5999755859375</ele>
        <time>2023-01-11T17:01:51.000Z</time>
      </trkpt>
      <trkpt lat="-49.22236553393304347991943359375" lon="-73.04822017438709735870361328125">
        <ele>652.79998779296875</ele>
        <time>2023-01-11T17:01:54.000Z</time>
      </trkpt>
      <trkpt lat="-49.22236385755240917205810546875" lon="-73.04822017438709735870361328125">
        <ele>652.79998779296875</ele>
        <time>2023-01-11T17:01:56.000Z</time>
      </trkpt>
      <trkpt lat="-49.22236385755240917205810546875" lon="-73.04822101257741451263427734375">
        <ele>651.20001220703125</ele>
        <time>2023-01-11T17:01:59.000Z</time>
      </trkpt>
      <trkpt lat="-49.22236385755240917205810546875" lon="-73.04822118021547794342041015625">
        <ele>652.5999755859375</ele>
        <time>2023-01-11T17:02:01.000Z</time>
      </trkpt>
      <trkpt lat="-49.22236385755240917205810546875" lon="-73.04822319187223911285400390625">
        <ele>650.4000244140625</ele>
        <time>2023-01-11T17:02:03.000Z</time>
      </trkpt>
      <trkpt lat="-49.22236385755240917205810546875" lon="-73.04822335951030254364013671875">
        <ele>651.5999755859375</ele>
        <time>2023-01-11T17:02:05.000Z</time>
      </trkpt>
      <trkpt lat="-49.2223634384572505950927734375" lon="-73.04822335951030254364013671875">
        <ele>652.5999755859375</ele>
        <time>2023-01-11T17:02:06.000Z</time>
      </trkpt>
      <trkpt lat="-49.22235832549631595611572265625" lon="-73.048228807747364044189453125">
        <ele>651.4000244140625</ele>
        <time>2023-01-11T17:02:12.000Z</time>
      </trkpt>
      <trkpt lat="-49.22236419282853603363037109375" lon="-73.04824816994369029998779296875">
        <ele>650.4000244140625</ele>
        <time>2023-01-11T17:02:38.000Z</time>
      </trkpt>
      <trkpt lat="-49.22236452810466289520263671875" lon="-73.0482551269233226776123046875">
        <ele>650.4000244140625</ele>
        <time>2023-01-11T17:02:43.000Z</time>
      </trkpt>
      <trkpt lat="-49.2223647795617580413818359375" lon="-73.0482554621994495391845703125">
        <ele>650.20001220703125</ele>
        <time>2023-01-11T17:02:45.000Z</time>
      </trkpt>
      <trkpt lat="-49.22236368991434574127197265625" lon="-73.04824523627758026123046875">
        <ele>649.79998779296875</ele>
        <time>2023-01-11T17:02:53.000Z</time>
      </trkpt>
      <trkpt lat="-49.22231926582753658294677734375" lon="-73.04815093986690044403076171875">
        <ele>649.5999755859375</ele>
        <time>2023-01-11T17:02:57.000Z</time>
      </trkpt>
      <trkpt lat="-49.22224081121385097503662109375" lon="-73.048045746982097625732421875">
        <ele>648.4000244140625</ele>
        <time>2023-01-11T17:03:05.000Z</time>
      </trkpt>
      <trkpt lat="-49.22222991473972797393798828125" lon="-73.04803845472633838653564453125">
        <ele>647.79998779296875</ele>
        <time>2023-01-11T17:03:06.000Z</time>
      </trkpt>
      <trkpt lat="-49.22218046151101589202880859375" lon="-73.048002161085605621337890625">
        <ele>648.20001220703125</ele>
        <time>2023-01-11T17:03:12.000Z</time>
      </trkpt>
      <trkpt lat="-49.2221374623477458953857421875" lon="-73.04797542281448841094970703125">
        <ele>648.4000244140625</ele>
        <time>2023-01-11T17:03:17.000Z</time>
      </trkpt>
      <trkpt lat="-49.22208842821419239044189453125" lon="-73.04794709198176860809326171875">
        <ele>649</ele>
        <time>2023-01-11T17:03:22.000Z</time>
      </trkpt>
      <trkpt lat="-49.222065545618534088134765625" lon="-73.04793518967926502227783203125">
        <ele>649</ele>
        <time>2023-01-11T17:03:24.000Z</time>
      </trkpt>
      <trkpt lat="-49.22205372713506221771240234375" lon="-73.0479319207370281219482421875">
        <ele>649.5999755859375</ele>
        <time>2023-01-11T17:03:25.000Z</time>
      </trkpt>
      <trkpt lat="-49.22200578264892101287841796875" lon="-73.04793351329863071441650390625">
        <ele>650.79998779296875</ele>
        <time>2023-01-11T17:03:29.000Z</time>
      </trkpt>
      <trkpt lat="-49.22196219675242900848388671875" lon="-73.04794742725789546966552734375">
        <ele>650.79998779296875</ele>
        <time>2023-01-11T17:03:34.000Z</time>
      </trkpt>
      <trkpt lat="-49.22194786369800567626953125" lon="-73.04795949719846248626708984375">
        <ele>649.4000244140625</ele>
        <time>2023-01-11T17:03:36.000Z</time>
      </trkpt>
      <trkpt lat="-49.22192037105560302734375" lon="-73.04798715747892856597900390625">
        <ele>648.20001220703125</ele>
        <time>2023-01-11T17:03:39.000Z</time>
      </trkpt>
      <trkpt lat="-49.22191073186695575714111328125" lon="-73.04801381193101406097412109375">
        <ele>648.4000244140625</ele>
        <time>2023-01-11T17:03:42.000Z</time>
      </trkpt>
      <trkpt lat="-49.22189530916512012481689453125" lon="-73.0480197630822658538818359375">
        <ele>650.79998779296875</ele>
        <time>2023-01-11T17:03:46.000Z</time>
      </trkpt>
      <trkpt lat="-49.22188592143356800079345703125" lon="-73.04802387021481990814208984375">
        <ele>651.79998779296875</ele>
        <time>2023-01-11T17:03:47.000Z</time>
      </trkpt>
      <trkpt lat="-49.22186027280986309051513671875" lon="-73.0480378679931163787841796875">
        <ele>649.79998779296875</ele>
        <time>2023-01-11T17:03:51.000Z</time>
      </trkpt>
      <trkpt lat="-49.2218534834682941436767578125" lon="-73.0480434000492095947265625">
        <ele>649.79998779296875</ele>
        <time>2023-01-11T17:03:52.000Z</time>
      </trkpt>
      <trkpt lat="-49.22183847986161708831787109375" lon="-73.048064522445201873779296875">
        <ele>648.4000244140625</ele>
        <time>2023-01-11T17:03:56.000Z</time>
      </trkpt>
      <trkpt lat="-49.2218192853033542633056640625" lon="-73.0480844713747501373291015625">
        <ele>647</ele>
        <time>2023-01-11T17:03:59.000Z</time>
      </trkpt>
      <trkpt lat="-49.22181065194308757781982421875" lon="-73.04808991961181163787841796875">
        <ele>647</ele>
        <time>2023-01-11T17:04:02.000Z</time>
      </trkpt>
      <trkpt lat="-49.221802018582820892333984375" lon="-73.04812344722449779510498046875">
        <ele>645.4000244140625</ele>
        <time>2023-01-11T17:04:05.000Z</time>
      </trkpt>
      <trkpt lat="-49.22178014181554317474365234375" lon="-73.0481399595737457275390625">
        <ele>644.5999755859375</ele>
        <time>2023-01-11T17:04:08.000Z</time>
      </trkpt>
      <trkpt lat="-49.22174946404993534088134765625" lon="-73.048142306506633758544921875">
        <ele>643.4000244140625</ele>
        <time>2023-01-11T17:04:12.000Z</time>
      </trkpt>
      <trkpt lat="-49.2217233963310718536376953125" lon="-73.0481760017573833465576171875">
        <ele>641.4000244140625</ele>
        <time>2023-01-11T17:04:18.000Z</time>
      </trkpt>
      <trkpt lat="-49.2217096500098705291748046875" lon="-73.04818295873701572418212890625">
        <ele>640</ele>
        <time>2023-01-11T17:04:21.000Z</time>
      </trkpt>
      <trkpt lat="-49.22169766388833522796630859375" lon="-73.0482001416385173797607421875">
        <ele>639</ele>
        <time>2023-01-11T17:04:24.000Z</time>
      </trkpt>
      <trkpt lat="-49.22167520038783550262451171875" lon="-73.0482336692512035369873046875">
        <ele>638.5999755859375</ele>
        <time>2023-01-11T17:04:28.000Z</time>
      </trkpt>
      <trkpt lat="-49.22164251096546649932861328125" lon="-73.04824749939143657684326171875">
        <ele>638</ele>
        <time>2023-01-11T17:04:32.000Z</time>
      </trkpt>
      <trkpt lat="-49.2216159403324127197265625" lon="-73.048248589038848876953125">
        <ele>636.5999755859375</ele>
        <time>2023-01-11T17:04:35.000Z</time>
      </trkpt>
      <trkpt lat="-49.2216110788285732269287109375" lon="-73.04824448190629482269287109375">
        <ele>635.4000244140625</ele>
        <time>2023-01-11T17:04:36.000Z</time>
      </trkpt>
      <trkpt lat="-49.22158417291939258575439453125" lon="-73.0482427217066287994384765625">
        <ele>634.79998779296875</ele>
        <time>2023-01-11T17:04:39.000Z</time>
      </trkpt>
      <trkpt lat="-49.22156573273241519927978515625" lon="-73.048237860202789306640625">
        <ele>634.20001220703125</ele>
        <time>2023-01-11T17:04:41.000Z</time>
      </trkpt>
      <trkpt lat="-49.22156020067632198333740234375" lon="-73.048236183822154998779296875">
        <ele>635.79998779296875</ele>
        <time>2023-01-11T17:04:42.000Z</time>
      </trkpt>
      <trkpt lat="-49.221530444920063018798828125" lon="-73.048258982598781585693359375">
        <ele>634.5999755859375</ele>
        <time>2023-01-11T17:04:46.000Z</time>
      </trkpt>
      <trkpt lat="-49.22151200473308563232421875" lon="-73.0482564680278301239013671875">
        <ele>633.4000244140625</ele>
        <time>2023-01-11T17:04:48.000Z</time>
      </trkpt>
      <trkpt lat="-49.22149113379418849945068359375" lon="-73.04824632592499256134033203125">
        <ele>632</ele>
        <time>2023-01-11T17:04:51.000Z</time>
      </trkpt>
      <trkpt lat="-49.22148325480520725250244140625" lon="-73.048246242105960845947265625">
        <ele>631.4000244140625</ele>
        <time>2023-01-11T17:04:52.000Z</time>
      </trkpt>
      <trkpt lat="-49.22144201584160327911376953125" lon="-73.0482526123523712158203125">
        <ele>631.20001220703125</ele>
        <time>2023-01-11T17:04:56.000Z</time>
      </trkpt>
      <trkpt lat="-49.221419803798198699951171875" lon="-73.04826443083584308624267578125">
        <ele>631</ele>
        <time>2023-01-11T17:04:58.000Z</time>
      </trkpt>
      <trkpt lat="-49.221383593976497650146484375" lon="-73.048271723091602325439453125">
        <ele>630.79998779296875</ele>
        <time>2023-01-11T17:05:02.000Z</time>
      </trkpt>
      <trkpt lat="-49.221343696117401123046875" lon="-73.04830483160912990570068359375">
        <ele>632</ele>
        <time>2023-01-11T17:05:07.000Z</time>
      </trkpt>
      <trkpt lat="-49.22132148407399654388427734375" lon="-73.048316650092601776123046875">
        <ele>632.5999755859375</ele>
        <time>2023-01-11T17:05:11.000Z</time>
      </trkpt>
      <trkpt lat="-49.22130388207733631134033203125" lon="-73.04835210554301738739013671875">
        <ele>630.79998779296875</ele>
        <time>2023-01-11T17:05:16.000Z</time>
      </trkpt>
      <trkpt lat="-49.22129935584962368011474609375" lon="-73.04838546551764011383056640625">
        <ele>630.4000244140625</ele>
        <time>2023-01-11T17:05:19.000Z</time>
      </trkpt>
      <trkpt lat="-49.22128443606197834014892578125" lon="-73.04840960539877414703369140625">
        <ele>630.4000244140625</ele>
        <time>2023-01-11T17:05:21.000Z</time>
      </trkpt>
      <trkpt lat="-49.22125711105763912200927734375" lon="-73.04843567311763763427734375">
        <ele>630.4000244140625</ele>
        <time>2023-01-11T17:05:24.000Z</time>
      </trkpt>
      <trkpt lat="-49.22125442884862422943115234375" lon="-73.04845067672431468963623046875">
        <ele>628.5999755859375</ele>
        <time>2023-01-11T17:05:25.000Z</time>
      </trkpt>
      <trkpt lat="-49.22124646604061126708984375" lon="-73.04847967810928821563720703125">
        <ele>628</ele>
        <time>2023-01-11T17:05:28.000Z</time>
      </trkpt>
      <trkpt lat="-49.22123062424361705780029296875" lon="-73.04850851185619831085205078125">
        <ele>627.5999755859375</ele>
        <time>2023-01-11T17:05:31.000Z</time>
      </trkpt>
      <trkpt lat="-49.22122442163527011871337890625" lon="-73.0485149659216403961181640625">
        <ele>627.20001220703125</ele>
        <time>2023-01-11T17:05:32.000Z</time>
      </trkpt>
      <trkpt lat="-49.2212117649614810943603515625" lon="-73.048525862395763397216796875">
        <ele>627.5999755859375</ele>
        <time>2023-01-11T17:05:34.000Z</time>
      </trkpt>
      <trkpt lat="-49.22120078466832637786865234375" lon="-73.0485401116311550140380859375">
        <ele>626.79998779296875</ele>
        <time>2023-01-11T17:05:36.000Z</time>
      </trkpt>
      <trkpt lat="-49.22119223512709140777587890625" lon="-73.0485476553440093994140625">
        <ele>626.79998779296875</ele>
        <time>2023-01-11T17:05:37.000Z</time>
      </trkpt>
      <trkpt lat="-49.22116558067500591278076171875" lon="-73.048584200441837310791015625">
        <ele>625.79998779296875</ele>
        <time>2023-01-11T17:05:41.000Z</time>
      </trkpt>
      <trkpt lat="-49.22114898450672626495361328125" lon="-73.04860674776136875152587890625">
        <ele>624.5999755859375</ele>
        <time>2023-01-11T17:05:43.000Z</time>
      </trkpt>
      <trkpt lat="-49.2211385071277618408203125" lon="-73.04863625206053256988525390625">
        <ele>624.20001220703125</ele>
        <time>2023-01-11T17:05:45.000Z</time>
      </trkpt>
      <trkpt lat="-49.2211155407130718231201171875" lon="-73.04866324178874492645263671875">
        <ele>623.79998779296875</ele>
        <time>2023-01-11T17:05:49.000Z</time>
      </trkpt>
      <trkpt lat="-49.22110774554312229156494140625" lon="-73.04867262952029705047607421875">
        <ele>623.79998779296875</ele>
        <time>2023-01-11T17:05:50.000Z</time>
      </trkpt>
      <trkpt lat="-49.22109701670706272125244140625" lon="-73.04868268780410289764404296875">
        <ele>622.5999755859375</ele>
        <time>2023-01-11T17:05:51.000Z</time>
      </trkpt>
      <trkpt lat="-49.2210940830409526824951171875" lon="-73.04870179854333400726318359375">
        <ele>622.4000244140625</ele>
        <time>2023-01-11T17:05:52.000Z</time>
      </trkpt>
      <trkpt lat="-49.22108964063227176666259765625" lon="-73.04871839471161365509033203125">
        <ele>621.20001220703125</ele>
        <time>2023-01-11T17:05:53.000Z</time>
      </trkpt>
      <trkpt lat="-49.22106944024562835693359375" lon="-73.04874756373465061187744140625">
        <ele>621.20001220703125</ele>
        <time>2023-01-11T17:05:56.000Z</time>
      </trkpt>
      <trkpt lat="-49.22099928371608257293701171875" lon="-73.0487593822181224822998046875">
        <ele>620</ele>
        <time>2023-01-11T17:06:02.000Z</time>
      </trkpt>
      <trkpt lat="-49.22099056653678417205810546875" lon="-73.0487670935690402984619140625">
        <ele>619.79998779296875</ele>
        <time>2023-01-11T17:06:03.000Z</time>
      </trkpt>
      <trkpt lat="-49.22096776776015758514404296875" lon="-73.0487925745546817779541015625">
        <ele>618.79998779296875</ele>
        <time>2023-01-11T17:06:05.000Z</time>
      </trkpt>
      <trkpt lat="-49.22089769504964351654052734375" lon="-73.04878461174666881561279296875">
        <ele>618.20001220703125</ele>
        <time>2023-01-11T17:06:09.000Z</time>
      </trkpt>
      <trkpt lat="-49.22088126651942729949951171875" lon="-73.0487872101366519927978515625">
        <ele>616</ele>
        <time>2023-01-11T17:06:10.000Z</time>
      </trkpt>
      <trkpt lat="-49.2208127863705158233642578125" lon="-73.0487982742488384246826171875">
        <ele>615.20001220703125</ele>
        <time>2023-01-11T17:06:15.000Z</time>
      </trkpt>
      <trkpt lat="-49.220801889896392822265625" lon="-73.04879265837371349334716796875">
        <ele>615.20001220703125</ele>
        <time>2023-01-11T17:06:16.000Z</time>
      </trkpt>
      <trkpt lat="-49.220678508281707763671875" lon="-73.04879969917237758636474609375">
        <ele>614.5999755859375</ele>
        <time>2023-01-11T17:06:23.000Z</time>
      </trkpt>
      <trkpt lat="-49.22065998427569866180419921875" lon="-73.04878436028957366943359375">
        <ele>613.20001220703125</ele>
        <time>2023-01-11T17:06:24.000Z</time>
      </trkpt>
      <trkpt lat="-49.22064757905900478363037109375" lon="-73.04876835085451602935791015625">
        <ele>611</ele>
        <time>2023-01-11T17:06:25.000Z</time>
      </trkpt>
      <trkpt lat="-49.22063081525266170501708984375" lon="-73.04874144494533538818359375">
        <ele>609.5999755859375</ele>
        <time>2023-01-11T17:06:27.000Z</time>
      </trkpt>
      <trkpt lat="-49.22059024684131145477294921875" lon="-73.04869978688657283782958984375">
        <ele>609.20001220703125</ele>
        <time>2023-01-11T17:06:32.000Z</time>
      </trkpt>
      <trkpt lat="-49.2205811105668544769287109375" lon="-73.0486963503062725067138671875">
        <ele>609.5999755859375</ele>
        <time>2023-01-11T17:06:33.000Z</time>
      </trkpt>
      <trkpt lat="-49.22056845389306545257568359375" lon="-73.04869492538273334503173828125">
        <ele>611.4000244140625</ele>
        <time>2023-01-11T17:06:35.000Z</time>
      </trkpt>
      <trkpt lat="-49.22052956186234951019287109375" lon="-73.0486879684031009674072265625">
        <ele>612.5999755859375</ele>
        <time>2023-01-11T17:06:39.000Z</time>
      </trkpt>
      <trkpt lat="-49.22052034176886081695556640625" lon="-73.04868243634700775146484375">
        <ele>612.5999755859375</ele>
        <time>2023-01-11T17:06:40.000Z</time>
      </trkpt>
      <trkpt lat="-49.22048396430909633636474609375" lon="-73.0486876331269741058349609375">
        <ele>611.79998779296875</ele>
        <time>2023-01-11T17:06:44.000Z</time>
      </trkpt>
      <trkpt lat="-49.220470972359180450439453125" lon="-73.04869056679308414459228515625">
        <ele>611.5999755859375</ele>
        <time>2023-01-11T17:06:45.000Z</time>
      </trkpt>
      <trkpt lat="-49.22044984996318817138671875" lon="-73.04868687875568866729736328125">
        <ele>611.5999755859375</ele>
        <time>2023-01-11T17:06:47.000Z</time>
      </trkpt>
      <trkpt lat="-49.22040467150509357452392578125" lon="-73.048672378063201904296875">
        <ele>608.5999755859375</ele>
        <time>2023-01-11T17:06:52.000Z</time>
      </trkpt>
      <trkpt lat="-49.22039561904966831207275390625" lon="-73.0486655049026012420654296875">
        <ele>608.5999755859375</ele>
        <time>2023-01-11T17:06:53.000Z</time>
      </trkpt>
      <trkpt lat="-49.22038639895617961883544921875" lon="-73.04862652905285358428955078125">
        <ele>609</ele>
        <time>2023-01-11T17:06:56.000Z</time>
      </trkpt>
      <trkpt lat="-49.22038220800459384918212890625" lon="-73.0485682748258113861083984375">
        <ele>607.79998779296875</ele>
        <time>2023-01-11T17:07:04.000Z</time>
      </trkpt>
      <trkpt lat="-49.22038472257554531097412109375" lon="-73.0485411174595355987548828125">
        <ele>607.4000244140625</ele>
        <time>2023-01-11T17:07:06.000Z</time>
      </trkpt>
      <trkpt lat="-49.220383800566196441650390625" lon="-73.0485210008919239044189453125">
        <ele>607.4000244140625</ele>
        <time>2023-01-11T17:07:07.000Z</time>
      </trkpt>
      <trkpt lat="-49.22038556076586246490478515625" lon="-73.04848931729793548583984375">
        <ele>609</ele>
        <time>2023-01-11T17:07:09.000Z</time>
      </trkpt>
      <trkpt lat="-49.2203796096146106719970703125" lon="-73.0484589748084545135498046875">
        <ele>609.79998779296875</ele>
        <time>2023-01-11T17:07:12.000Z</time>
      </trkpt>
      <trkpt lat="-49.22037617303431034088134765625" lon="-73.04844816215336322784423828125">
        <ele>610.20001220703125</ele>
        <time>2023-01-11T17:07:13.000Z</time>
      </trkpt>
      <trkpt lat="-49.22037265263497829437255859375" lon="-73.0484244413673877716064453125">
        <ele>612.4000244140625</ele>
        <time>2023-01-11T17:07:15.000Z</time>
      </trkpt>
      <trkpt lat="-49.22036946751177310943603515625" lon="-73.04840214550495147705078125">
        <ele>611.79998779296875</ele>
        <time>2023-01-11T17:07:20.000Z</time>
      </trkpt>
      <trkpt lat="-49.22036678530275821685791015625" lon="-73.04839887656271457672119140625">
        <ele>611.20001220703125</ele>
        <time>2023-01-11T17:07:21.000Z</time>
      </trkpt>
      <trkpt lat="-49.2203645221889019012451171875" lon="-73.048391751945018768310546875">
        <ele>610.5999755859375</ele>
        <time>2023-01-11T17:07:25.000Z</time>
      </trkpt>
      <trkpt lat="-49.220360331237316131591796875" lon="-73.04837255738675594329833984375">
        <ele>610</ele>
        <time>2023-01-11T17:07:29.000Z</time>
      </trkpt>
      <trkpt lat="-49.2203450761735439300537109375" lon="-73.04836719296872615814208984375">
        <ele>610</ele>
        <time>2023-01-11T17:07:31.000Z</time>
      </trkpt>
      <trkpt lat="-49.2203338444232940673828125" lon="-73.04834841750562191009521484375">
        <ele>610.4000244140625</ele>
        <time>2023-01-11T17:07:34.000Z</time>
      </trkpt>
      <trkpt lat="-49.22032051719725131988525390625" lon="-73.04833148606121540069580078125">
        <ele>611.20001220703125</ele>
        <time>2023-01-11T17:07:37.000Z</time>
      </trkpt>
      <trkpt lat="-49.22032839618623256683349609375" lon="-73.0483087711036205291748046875">
        <ele>612.79998779296875</ele>
        <time>2023-01-11T17:07:41.000Z</time>
      </trkpt>
      <trkpt lat="-49.22032780945301055908203125" lon="-73.0482638441026210784912109375">
        <ele>613.4000244140625</ele>
        <time>2023-01-11T17:07:48.000Z</time>
      </trkpt>
      <trkpt lat="-49.2202887497842311859130859375" lon="-73.04824833758175373077392578125">
        <ele>614</ele>
        <time>2023-01-11T17:07:52.000Z</time>
      </trkpt>
      <trkpt lat="-49.22027894295752048492431640625" lon="-73.0482340045273303985595703125">
        <ele>614</ele>
        <time>2023-01-11T17:07:53.000Z</time>
      </trkpt>
      <trkpt lat="-49.22027475200593471527099609375" lon="-73.0482135526835918426513671875">
        <ele>614</ele>
        <time>2023-01-11T17:07:54.000Z</time>
      </trkpt>
      <trkpt lat="-49.2202820442616939544677734375" lon="-73.04815496318042278289794921875">
        <ele>614.4000244140625</ele>
        <time>2023-01-11T17:07:57.000Z</time>
      </trkpt>
      <trkpt lat="-49.22030157409608364105224609375" lon="-73.04812545888125896453857421875">
        <ele>614.5999755859375</ele>
        <time>2023-01-11T17:08:00.000Z</time>
      </trkpt>
      <trkpt lat="-49.2203112132847309112548828125" lon="-73.0480889976024627685546875">
        <ele>614.79998779296875</ele>
        <time>2023-01-11T17:08:06.000Z</time>
      </trkpt>
      <trkpt lat="-49.2203239537775516510009765625" lon="-73.04804231040179729461669921875">
        <ele>615</ele>
        <time>2023-01-11T17:08:11.000Z</time>
      </trkpt>
      <trkpt lat="-49.22033862210810184478759765625" lon="-73.048016913235187530517578125">
        <ele>615.5999755859375</ele>
        <time>2023-01-11T17:08:14.000Z</time>
      </trkpt>
      <trkpt lat="-49.22034063376486301422119140625" lon="-73.048004172742366790771484375">
        <ele>616</ele>
        <time>2023-01-11T17:08:15.000Z</time>
      </trkpt>
      <trkpt lat="-49.2203499376773834228515625" lon="-73.04796972312033176422119140625">
        <ele>617</ele>
        <time>2023-01-11T17:08:19.000Z</time>
      </trkpt>
      <trkpt lat="-49.2203561402857303619384765625" lon="-73.04795245639979839324951171875">
        <ele>617.20001220703125</ele>
        <time>2023-01-11T17:08:21.000Z</time>
      </trkpt>
      <trkpt lat="-49.22036175616085529327392578125" lon="-73.04789931513369083404541015625">
        <ele>618.5999755859375</ele>
        <time>2023-01-11T17:08:26.000Z</time>
      </trkpt>
      <trkpt lat="-49.220371060073375701904296875" lon="-73.04787131957709789276123046875">
        <ele>620.79998779296875</ele>
        <time>2023-01-11T17:08:29.000Z</time>
      </trkpt>
      <trkpt lat="-49.22037164680659770965576171875" lon="-73.04786344058811664581298828125">
        <ele>620.79998779296875</ele>
        <time>2023-01-11T17:08:30.000Z</time>
      </trkpt>
      <trkpt lat="-49.2203819565474987030029296875" lon="-73.0478403903543949127197265625">
        <ele>621.79998779296875</ele>
        <time>2023-01-11T17:08:33.000Z</time>
      </trkpt>
      <trkpt lat="-49.220424704253673553466796875" lon="-73.0477753467857837677001953125">
        <ele>622.20001220703125</ele>
        <time>2023-01-11T17:08:40.000Z</time>
      </trkpt>
      <trkpt lat="-49.220436103641986846923828125" lon="-73.047760762274265289306640625">
        <ele>622.20001220703125</ele>
        <time>2023-01-11T17:08:42.000Z</time>
      </trkpt>
      <trkpt lat="-49.2204798571765422821044921875" lon="-73.04770854301750659942626953125">
        <ele>621.79998779296875</ele>
        <time>2023-01-11T17:08:49.000Z</time>
      </trkpt>
      <trkpt lat="-49.22049276530742645263671875" lon="-73.0476824752986431121826171875">
        <ele>621.79998779296875</ele>
        <time>2023-01-11T17:08:51.000Z</time>
      </trkpt>
      <trkpt lat="-49.220503158867359161376953125" lon="-73.0475443415343761444091796875">
        <ele>622.4000244140625</ele>
        <time>2023-01-11T17:09:00.000Z</time>
      </trkpt>
      <trkpt lat="-49.22050458379089832305908203125" lon="-73.04753839038312435150146484375">
        <ele>623</ele>
        <time>2023-01-11T17:09:01.000Z</time>
      </trkpt>
      <trkpt lat="-49.220519252121448516845703125" lon="-73.04751290939748287200927734375">
        <ele>624.20001220703125</ele>
        <time>2023-01-11T17:09:06.000Z</time>
      </trkpt>
      <trkpt lat="-49.22052671201527118682861328125" lon="-73.047501929104328155517578125">
        <ele>625.4000244140625</ele>
        <time>2023-01-11T17:09:08.000Z</time>
      </trkpt>
      <trkpt lat="-49.22053635120391845703125" lon="-73.047464378178119659423828125">
        <ele>625.4000244140625</ele>
        <time>2023-01-11T17:09:11.000Z</time>
      </trkpt>
      <trkpt lat="-49.2205402068793773651123046875" lon="-73.0474414117634296417236328125">
        <ele>625.20001220703125</ele>
        <time>2023-01-11T17:09:13.000Z</time>
      </trkpt>
      <trkpt lat="-49.22054372727870941162109375" lon="-73.04740947671234607696533203125">
        <ele>624.20001220703125</ele>
        <time>2023-01-11T17:09:19.000Z</time>
      </trkpt>
      <trkpt lat="-49.22054967842996120452880859375" lon="-73.04739497601985931396484375">
        <ele>623.4000244140625</ele>
        <time>2023-01-11T17:09:21.000Z</time>
      </trkpt>
      <trkpt lat="-49.22055504284799098968505859375" lon="-73.047386594116687774658203125">
        <ele>622.5999755859375</ele>
        <time>2023-01-11T17:09:22.000Z</time>
      </trkpt>
      <trkpt lat="-49.22059074975550174713134765625" lon="-73.04731057025492191314697265625">
        <ele>622.4000244140625</ele>
        <time>2023-01-11T17:09:30.000Z</time>
      </trkpt>
      <trkpt lat="-49.22058924101293087005615234375" lon="-73.047309815883636474609375">
        <ele>622.4000244140625</ele>
        <time>2023-01-11T17:09:37.000Z</time>
      </trkpt>
      <trkpt lat="-49.2205871455371379852294921875" lon="-73.0473130010068416595458984375">
        <ele>622.79998779296875</ele>
        <time>2023-01-11T17:09:46.000Z</time>
      </trkpt>
      <trkpt lat="-49.2205871455371379852294921875" lon="-73.0473130010068416595458984375">
        <ele>622.79998779296875</ele>
        <time>2023-01-11T17:09:47.000Z</time>
      </trkpt>
      <trkpt lat="-49.2205871455371379852294921875" lon="-73.04730780422687530517578125">
        <ele>623.20001220703125</ele>
        <time>2023-01-11T17:09:55.000Z</time>
      </trkpt>
      <trkpt lat="-49.2205871455371379852294921875" lon="-73.04730604402720928192138671875">
        <ele>623.5999755859375</ele>
        <time>2023-01-11T17:09:57.000Z</time>
      </trkpt>
      <trkpt lat="-49.2205846309661865234375" lon="-73.04730554111301898956298828125">
        <ele>623.20001220703125</ele>
        <time>2023-01-11T17:10:01.000Z</time>
      </trkpt>
      <trkpt lat="-49.22058722935616970062255859375" lon="-73.04730000905692577362060546875">
        <ele>623</ele>
        <time>2023-01-11T17:10:15.000Z</time>
      </trkpt>
      <trkpt lat="-49.220614135265350341796875" lon="-73.04726547561585903167724609375">
        <ele>622.79998779296875</ele>
        <time>2023-01-11T17:10:17.000Z</time>
      </trkpt>
      <trkpt lat="-49.2206208407878875732421875" lon="-73.047251813113689422607421875">
        <ele>622.5999755859375</ele>
        <time>2023-01-11T17:10:18.000Z</time>
      </trkpt>
      <trkpt lat="-49.22062209807336330413818359375" lon="-73.0472080595791339874267578125">
        <ele>622.5999755859375</ele>
        <time>2023-01-11T17:10:21.000Z</time>
      </trkpt>
      <trkpt lat="-49.220615141093730926513671875" lon="-73.047178052365779876708984375">
        <ele>622.4000244140625</ele>
        <time>2023-01-11T17:10:23.000Z</time>
      </trkpt>
      <trkpt lat="-49.22061841003596782684326171875" lon="-73.047163970768451690673828125">
        <ele>622.4000244140625</ele>
        <time>2023-01-11T17:10:24.000Z</time>
      </trkpt>
      <trkpt lat="-49.2206183262169361114501953125" lon="-73.04714687168598175048828125">
        <ele>622.4000244140625</ele>
        <time>2023-01-11T17:10:26.000Z</time>
      </trkpt>
      <trkpt lat="-49.22060064040124416351318359375" lon="-73.04713555611670017242431640625">
        <ele>621.4000244140625</ele>
        <time>2023-01-11T17:10:28.000Z</time>
      </trkpt>
      <trkpt lat="-49.2205911688506603240966796875" lon="-73.0471128411591053009033203125">
        <ele>621.20001220703125</ele>
        <time>2023-01-11T17:10:30.000Z</time>
      </trkpt>
      <trkpt lat="-49.22058806754648685455322265625" lon="-73.04708786308765411376953125">
        <ele>621.20001220703125</ele>
        <time>2023-01-11T17:10:33.000Z</time>
      </trkpt>
      <trkpt lat="-49.22059427015483379364013671875" lon="-73.04708383977413177490234375">
        <ele>621.20001220703125</ele>
        <time>2023-01-11T17:10:34.000Z</time>
      </trkpt>
      <trkpt lat="-49.2205844633281230926513671875" lon="-73.04705173708498477935791015625">
        <ele>620.5999755859375</ele>
        <time>2023-01-11T17:10:40.000Z</time>
      </trkpt>
      <trkpt lat="-49.22058320604264736175537109375" lon="-73.04704620502889156341552734375">
        <ele>619.79998779296875</ele>
        <time>2023-01-11T17:10:41.000Z</time>
      </trkpt>
      <trkpt lat="-49.2205827869474887847900390625" lon="-73.0470374040305614471435546875">
        <ele>618.79998779296875</ele>
        <time>2023-01-11T17:10:46.000Z</time>
      </trkpt>
      <trkpt lat="-49.22057968564331531524658203125" lon="-73.04703547619283199310302734375">
        <ele>618.5999755859375</ele>
        <time>2023-01-11T17:10:47.000Z</time>
      </trkpt>
      <trkpt lat="-49.2205710522830486297607421875" lon="-73.047005049884319305419921875">
        <ele>618</ele>
        <time>2023-01-11T17:10:51.000Z</time>
      </trkpt>
      <trkpt lat="-49.220573566854000091552734375" lon="-73.04699172265827655792236328125">
        <ele>617.79998779296875</ele>
        <time>2023-01-11T17:10:53.000Z</time>
      </trkpt>
      <trkpt lat="-49.22057482413947582244873046875" lon="-73.04698552004992961883544921875">
        <ele>617.5999755859375</ele>
        <time>2023-01-11T17:10:55.000Z</time>
      </trkpt>
      <trkpt lat="-49.22057717107236385345458984375" lon="-73.04698669351637363433837890625">
        <ele>618</ele>
        <time>2023-01-11T17:11:05.000Z</time>
      </trkpt>
      <trkpt lat="-49.22057717107236385345458984375" lon="-73.04698669351637363433837890625">
        <ele>619</ele>
        <time>2023-01-11T17:11:07.000Z</time>
      </trkpt>
      <trkpt lat="-49.22058404423296451568603515625" lon="-73.0469804070889949798583984375">
        <ele>619.20001220703125</ele>
        <time>2023-01-11T17:11:11.000Z</time>
      </trkpt>
      <trkpt lat="-49.2206235229969024658203125" lon="-73.04692148230969905853271484375">
        <ele>618.5999755859375</ele>
        <time>2023-01-11T17:11:14.000Z</time>
      </trkpt>
      <trkpt lat="-49.220710359513759613037109375" lon="-73.04674076847732067108154296875">
        <ele>618.4000244140625</ele>
        <time>2023-01-11T17:11:24.000Z</time>
      </trkpt>
      <trkpt lat="-49.22072251327335834503173828125" lon="-73.04664538241922855377197265625">
        <ele>618.20001220703125</ele>
        <time>2023-01-11T17:11:30.000Z</time>
      </trkpt>
      <trkpt lat="-49.22075184993445873260498046875" lon="-73.046563155949115753173828125">
        <ele>618.4000244140625</ele>
        <time>2023-01-11T17:11:36.000Z</time>
      </trkpt>
      <trkpt lat="-49.22075989656150341033935546875" lon="-73.04654262028634548187255859375">
        <ele>618.5999755859375</ele>
        <time>2023-01-11T17:11:39.000Z</time>
      </trkpt>
      <trkpt lat="-49.2207598127424716949462890625" lon="-73.04652702994644641876220703125">
        <ele>618.5999755859375</ele>
        <time>2023-01-11T17:11:40.000Z</time>
      </trkpt>
      <trkpt lat="-49.22075402922928333282470703125" lon="-73.04649417288601398468017578125">
        <ele>617.79998779296875</ele>
        <time>2023-01-11T17:11:43.000Z</time>
      </trkpt>
      <trkpt lat="-49.220732152462005615234375" lon="-73.04645444266498088836669921875">
        <ele>617.79998779296875</ele>
        <time>2023-01-11T17:11:47.000Z</time>
      </trkpt>
      <trkpt lat="-49.220723100006580352783203125" lon="-73.046429045498371124267578125">
        <ele>617.79998779296875</ele>
        <time>2023-01-11T17:11:49.000Z</time>
      </trkpt>
      <trkpt lat="-49.22072050161659717559814453125" lon="-73.0464112758636474609375">
        <ele>619</ele>
        <time>2023-01-11T17:11:50.000Z</time>
      </trkpt>
      <trkpt lat="-49.2207205854356288909912109375" lon="-73.04639576934278011322021484375">
        <ele>621.79998779296875</ele>
        <time>2023-01-11T17:11:51.000Z</time>
      </trkpt>
      <trkpt lat="-49.22072050161659717559814453125" lon="-73.046371378004550933837890625">
        <ele>622.20001220703125</ele>
        <time>2023-01-11T17:11:54.000Z</time>
      </trkpt>
      <trkpt lat="-49.22072100453078746795654296875" lon="-73.04636006243526935577392578125">
        <ele>622.4000244140625</ele>
        <time>2023-01-11T17:11:55.000Z</time>
      </trkpt>
      <trkpt lat="-49.22072955407202243804931640625" lon="-73.04630138911306858062744140625">
        <ele>622.20001220703125</ele>
        <time>2023-01-11T17:12:00.000Z</time>
      </trkpt>
      <trkpt lat="-49.22073860652744770050048828125" lon="-73.0462780036032199859619140625">
        <ele>623</ele>
        <time>2023-01-11T17:12:03.000Z</time>
      </trkpt>
      <trkpt lat="-49.22074598260223865509033203125" lon="-73.04625662975013256072998046875">
        <ele>623.20001220703125</ele>
        <time>2023-01-11T17:12:08.000Z</time>
      </trkpt>
      <trkpt lat="-49.2207480780780315399169921875" lon="-73.04625931195914745330810546875">
        <ele>623.20001220703125</ele>
        <time>2023-01-11T17:12:13.000Z</time>
      </trkpt>
      <trkpt lat="-49.22075637616217136383056640625" lon="-73.046256043016910552978515625">
        <ele>624.20001220703125</ele>
        <time>2023-01-11T17:12:16.000Z</time>
      </trkpt>
      <trkpt lat="-49.220757968723773956298828125" lon="-73.04625646211206912994384765625">
        <ele>624.4000244140625</ele>
        <time>2023-01-11T17:12:18.000Z</time>
      </trkpt>
      <trkpt lat="-49.220757968723773956298828125" lon="-73.04625646211206912994384765625">
        <ele>622.5999755859375</ele>
        <time>2023-01-11T17:12:25.000Z</time>
      </trkpt>
      <trkpt lat="-49.220757968723773956298828125" lon="-73.04625646211206912994384765625">
        <ele>621.20001220703125</ele>
        <time>2023-01-11T17:12:30.000Z</time>
      </trkpt>
      <trkpt lat="-49.220757968723773956298828125" lon="-73.046250678598880767822265625">
        <ele>620</ele>
        <time>2023-01-11T17:12:36.000Z</time>
      </trkpt>
      <trkpt lat="-49.2207581363618373870849609375" lon="-73.0462481640279293060302734375">
        <ele>618.5999755859375</ele>
        <time>2023-01-11T17:12:38.000Z</time>
      </trkpt>
      <trkpt lat="-49.22076408751308917999267578125" lon="-73.0462181568145751953125">
        <ele>618</ele>
        <time>2023-01-11T17:12:43.000Z</time>
      </trkpt>
      <trkpt lat="-49.220768697559833526611328125" lon="-73.04621153511106967926025390625">
        <ele>617.4000244140625</ele>
        <time>2023-01-11T17:12:44.000Z</time>
      </trkpt>
      <trkpt lat="-49.22079074196517467498779296875" lon="-73.04614263586699962615966796875">
        <ele>616.4000244140625</ele>
        <time>2023-01-11T17:12:47.000Z</time>
      </trkpt>
      <trkpt lat="-49.2208000458776950836181640625" lon="-73.04611749015748500823974609375">
        <ele>614.79998779296875</ele>
        <time>2023-01-11T17:12:48.000Z</time>
      </trkpt>
      <trkpt lat="-49.22080733813345432281494140625" lon="-73.04609066806733608245849609375">
        <ele>614.79998779296875</ele>
        <time>2023-01-11T17:12:49.000Z</time>
      </trkpt>
      <trkpt lat="-49.22085377387702465057373046875" lon="-73.04591984488070011138916015625">
        <ele>613.79998779296875</ele>
        <time>2023-01-11T17:12:56.000Z</time>
      </trkpt>
      <trkpt lat="-49.22086182050406932830810546875" lon="-73.04588011465966701507568359375">
        <ele>613.79998779296875</ele>
        <time>2023-01-11T17:13:02.000Z</time>
      </trkpt>
      <trkpt lat="-49.22087037004530429840087890625" lon="-73.04585513658821582794189453125">
        <ele>613.4000244140625</ele>
        <time>2023-01-11T17:13:06.000Z</time>
      </trkpt>
      <trkpt lat="-49.2208751477301120758056640625" lon="-73.04584574885666370391845703125">
        <ele>613.20001220703125</ele>
        <time>2023-01-11T17:13:07.000Z</time>
      </trkpt>
      <trkpt lat="-49.2208761535584926605224609375" lon="-73.04583451710641384124755859375">
        <ele>613.20001220703125</ele>
        <time>2023-01-11T17:13:08.000Z</time>
      </trkpt>
      <trkpt lat="-49.2208863794803619384765625" lon="-73.045798726379871368408203125">
        <ele>612.5999755859375</ele>
        <time>2023-01-11T17:13:12.000Z</time>
      </trkpt>
      <trkpt lat="-49.2209023050963878631591796875" lon="-73.04578355513513088226318359375">
        <ele>612.20001220703125</ele>
        <time>2023-01-11T17:13:15.000Z</time>
      </trkpt>
      <trkpt lat="-49.22091395594179630279541015625" lon="-73.045738041400909423828125">
        <ele>611.5999755859375</ele>
        <time>2023-01-11T17:13:19.000Z</time>
      </trkpt>
      <trkpt lat="-49.22092200256884098052978515625" lon="-73.04573024623095989227294921875">
        <ele>611.4000244140625</ele>
        <time>2023-01-11T17:13:20.000Z</time>
      </trkpt>
      <trkpt lat="-49.22093675471842288970947265625" lon="-73.045714907348155975341796875">
        <ele>610.4000244140625</ele>
        <time>2023-01-11T17:13:22.000Z</time>
      </trkpt>
      <trkpt lat="-49.22095410525798797607421875" lon="-73.04568716324865818023681640625">
        <ele>609.4000244140625</ele>
        <time>2023-01-11T17:13:25.000Z</time>
      </trkpt>
      <trkpt lat="-49.22097019851207733154296875" lon="-73.04565397091209888458251953125">
        <ele>608</ele>
        <time>2023-01-11T17:13:28.000Z</time>
      </trkpt>
      <trkpt lat="-49.22098034061491489410400390625" lon="-73.0456423200666904449462890625">
        <ele>608</ele>
        <time>2023-01-11T17:13:29.000Z</time>
      </trkpt>
      <trkpt lat="-49.22101018019020557403564453125" lon="-73.0455947108566761016845703125">
        <ele>607.4000244140625</ele>
        <time>2023-01-11T17:13:33.000Z</time>
      </trkpt>
      <trkpt lat="-49.221014119684696197509765625" lon="-73.0455756001174449920654296875">
        <ele>607</ele>
        <time>2023-01-11T17:13:34.000Z</time>
      </trkpt>
      <trkpt lat="-49.22102191485464572906494140625" lon="-73.04553042165935039520263671875">
        <ele>605.79998779296875</ele>
        <time>2023-01-11T17:13:36.000Z</time>
      </trkpt>
      <trkpt lat="-49.2210384272038936614990234375" lon="-73.04546135477721691131591796875">
        <ele>604.79998779296875</ele>
        <time>2023-01-11T17:13:40.000Z</time>
      </trkpt>
      <trkpt lat="-49.2210424505174160003662109375" lon="-73.0453828163444995880126953125">
        <ele>604.4000244140625</ele>
        <time>2023-01-11T17:13:45.000Z</time>
      </trkpt>
      <trkpt lat="-49.221046976745128631591796875" lon="-73.045325316488742828369140625">
        <ele>604.4000244140625</ele>
        <time>2023-01-11T17:13:49.000Z</time>
      </trkpt>
      <trkpt lat="-49.221061728894710540771484375" lon="-73.04524292238056659698486328125">
        <ele>603.5999755859375</ele>
        <time>2023-01-11T17:13:55.000Z</time>
      </trkpt>
      <trkpt lat="-49.22106466256082057952880859375" lon="-73.04523537866771221160888671875">
        <ele>603.5999755859375</ele>
        <time>2023-01-11T17:13:56.000Z</time>
      </trkpt>
      <trkpt lat="-49.22109131701290607452392578125" lon="-73.0451836623251438140869140625">
        <ele>604</ele>
        <time>2023-01-11T17:14:01.000Z</time>
      </trkpt>
      <trkpt lat="-49.22112568281590938568115234375" lon="-73.04514451883733272552490234375">
        <ele>604.4000244140625</ele>
        <time>2023-01-11T17:14:05.000Z</time>
      </trkpt>
      <trkpt lat="-49.22113381326198577880859375" lon="-73.0451337061822414398193359375">
        <ele>605</ele>
        <time>2023-01-11T17:14:06.000Z</time>
      </trkpt>
      <trkpt lat="-49.22118502669036388397216796875" lon="-73.04506455548107624053955078125">
        <ele>605.20001220703125</ele>
        <time>2023-01-11T17:14:13.000Z</time>
      </trkpt>
      <trkpt lat="-49.22122232615947723388671875" lon="-73.0450324527919292449951171875">
        <ele>606.20001220703125</ele>
        <time>2023-01-11T17:14:19.000Z</time>
      </trkpt>
      <trkpt lat="-49.221235401928424835205078125" lon="-73.04504326544702053070068359375">
        <ele>606.4000244140625</ele>
        <time>2023-01-11T17:14:21.000Z</time>
      </trkpt>
      <trkpt lat="-49.221251495182514190673828125" lon="-73.04503873921930789947509765625">
        <ele>606.5999755859375</ele>
        <time>2023-01-11T17:14:24.000Z</time>
      </trkpt>
      <trkpt lat="-49.22126783989369869232177734375" lon="-73.04500957019627094268798828125">
        <ele>607</ele>
        <time>2023-01-11T17:14:27.000Z</time>
      </trkpt>
      <trkpt lat="-49.221277646720409393310546875" lon="-73.0449992604553699493408203125">
        <ele>607.20001220703125</ele>
        <time>2023-01-11T17:14:29.000Z</time>
      </trkpt>
      <trkpt lat="-49.22132584266364574432373046875" lon="-73.04499096237123012542724609375">
        <ele>608.20001220703125</ele>
        <time>2023-01-11T17:14:36.000Z</time>
      </trkpt>
      <trkpt lat="-49.221332967281341552734375" lon="-73.044984005391597747802734375">
        <ele>609.4000244140625</ele>
        <time>2023-01-11T17:14:37.000Z</time>
      </trkpt>
      <trkpt lat="-49.22138066031038761138916015625" lon="-73.0449427664279937744140625">
        <ele>609.79998779296875</ele>
        <time>2023-01-11T17:14:43.000Z</time>
      </trkpt>
      <trkpt lat="-49.2213877849280834197998046875" lon="-73.04492332041263580322265625">
        <ele>610</ele>
        <time>2023-01-11T17:14:45.000Z</time>
      </trkpt>
      <trkpt lat="-49.22139088623225688934326171875" lon="-73.04491267539560794830322265625">
        <ele>610</ele>
        <time>2023-01-11T17:14:46.000Z</time>
      </trkpt>
      <trkpt lat="-49.2214174568653106689453125" lon="-73.04485953412950038909912109375">
        <ele>610.20001220703125</ele>
        <time>2023-01-11T17:14:51.000Z</time>
      </trkpt>
      <trkpt lat="-49.22142122872173786163330078125" lon="-73.04479683749377727508544921875">
        <ele>610</ele>
        <time>2023-01-11T17:14:57.000Z</time>
      </trkpt>
      <trkpt lat="-49.2214256711304187774658203125" lon="-73.044771440327167510986328125">
        <ele>610.79998779296875</ele>
        <time>2023-01-11T17:14:59.000Z</time>
      </trkpt>
      <trkpt lat="-49.221429862082004547119140625" lon="-73.04467999376356601715087890625">
        <ele>611.5999755859375</ele>
        <time>2023-01-11T17:15:06.000Z</time>
      </trkpt>
      <trkpt lat="-49.22144335694611072540283203125" lon="-73.04463355801999568939208984375">
        <ele>611</ele>
        <time>2023-01-11T17:15:12.000Z</time>
      </trkpt>
      <trkpt lat="-49.2214461229741573333740234375" lon="-73.04463339038193225860595703125">
        <ele>611</ele>
        <time>2023-01-11T17:15:14.000Z</time>
      </trkpt>
      <trkpt lat="-49.22144570387899875640869140625" lon="-73.04462425410747528076171875">
        <ele>611</ele>
        <time>2023-01-11T17:15:15.000Z</time>
      </trkpt>
      <trkpt lat="-49.2214484699070453643798828125" lon="-73.044611848890781402587890625">
        <ele>612</ele>
        <time>2023-01-11T17:15:16.000Z</time>
      </trkpt>
      <trkpt lat="-49.2214414291083812713623046875" lon="-73.0445737950503826141357421875">
        <ele>612.20001220703125</ele>
        <time>2023-01-11T17:15:21.000Z</time>
      </trkpt>
      <trkpt lat="-49.22143061645328998565673828125" lon="-73.0445496551692485809326171875">
        <ele>613.4000244140625</ele>
        <time>2023-01-11T17:15:24.000Z</time>
      </trkpt>
      <trkpt lat="-49.22143078409135341644287109375" lon="-73.0445275269448757171630859375">
        <ele>615.4000244140625</ele>
        <time>2023-01-11T17:15:26.000Z</time>
      </trkpt>
      <trkpt lat="-49.2214323766529560089111328125" lon="-73.0445224978029727935791015625">
        <ele>615.5999755859375</ele>
        <time>2023-01-11T17:15:29.000Z</time>
      </trkpt>
      <trkpt lat="-49.22143145464360713958740234375" lon="-73.044515959918498992919921875">
        <ele>614.20001220703125</ele>
        <time>2023-01-11T17:15:37.000Z</time>
      </trkpt>
      <trkpt lat="-49.22141787596046924591064453125" lon="-73.04447899572551250457763671875">
        <ele>616</ele>
        <time>2023-01-11T17:15:41.000Z</time>
      </trkpt>
      <trkpt lat="-49.22142977826297283172607421875" lon="-73.04444496519863605499267578125">
        <ele>616.79998779296875</ele>
        <time>2023-01-11T17:15:44.000Z</time>
      </trkpt>
      <trkpt lat="-49.2214404232800006866455078125" lon="-73.04442920722067356109619140625">
        <ele>617.4000244140625</ele>
        <time>2023-01-11T17:15:46.000Z</time>
      </trkpt>
      <trkpt lat="-49.22146598808467388153076171875" lon="-73.044389896094799041748046875">
        <ele>617.4000244140625</ele>
        <time>2023-01-11T17:15:52.000Z</time>
      </trkpt>
      <trkpt lat="-49.22146615572273731231689453125" lon="-73.0443857051432132720947265625">
        <ele>617.79998779296875</ele>
        <time>2023-01-11T17:15:53.000Z</time>
      </trkpt>
      <trkpt lat="-49.22146850265562534332275390625" lon="-73.044353686273097991943359375">
        <ele>618.5999755859375</ele>
        <time>2023-01-11T17:15:57.000Z</time>
      </trkpt>
      <trkpt lat="-49.22147068195044994354248046875" lon="-73.04434396326541900634765625">
        <ele>619.79998779296875</ele>
        <time>2023-01-11T17:15:58.000Z</time>
      </trkpt>
      <trkpt lat="-49.221473447978496551513671875" lon="-73.0443350784480571746826171875">
        <ele>620</ele>
        <time>2023-01-11T17:15:59.000Z</time>
      </trkpt>
      <trkpt lat="-49.22149188816547393798828125" lon="-73.04430565796792507171630859375">
        <ele>620.4000244140625</ele>
        <time>2023-01-11T17:16:06.000Z</time>
      </trkpt>
      <trkpt lat="-49.2214954085648059844970703125" lon="-73.04429140873253345489501953125">
        <ele>621.4000244140625</ele>
        <time>2023-01-11T17:16:09.000Z</time>
      </trkpt>
      <trkpt lat="-49.22150035388767719268798828125" lon="-73.04426877759397029876708984375">
        <ele>622.5999755859375</ele>
        <time>2023-01-11T17:16:12.000Z</time>
      </trkpt>
      <trkpt lat="-49.2215172015130519866943359375" lon="-73.04425369016826152801513671875">
        <ele>624.20001220703125</ele>
        <time>2023-01-11T17:16:15.000Z</time>
      </trkpt>
      <trkpt lat="-49.22152717597782611846923828125" lon="-73.04423910565674304962158203125">
        <ele>625.4000244140625</ele>
        <time>2023-01-11T17:16:17.000Z</time>
      </trkpt>
      <trkpt lat="-49.22154058702290058135986328125" lon="-73.04420859552919864654541015625">
        <ele>626.4000244140625</ele>
        <time>2023-01-11T17:16:21.000Z</time>
      </trkpt>
      <trkpt lat="-49.22155089676380157470703125" lon="-73.04418244399130344390869140625">
        <ele>628</ele>
        <time>2023-01-11T17:16:24.000Z</time>
      </trkpt>
      <trkpt lat="-49.22156539745628833770751953125" lon="-73.04415863938629627227783203125">
        <ele>629</ele>
        <time>2023-01-11T17:16:27.000Z</time>
      </trkpt>
      <trkpt lat="-49.22158534638583660125732421875" lon="-73.04413072764873504638671875">
        <ele>630.5999755859375</ele>
        <time>2023-01-11T17:16:30.000Z</time>
      </trkpt>
      <trkpt lat="-49.22160026617348194122314453125" lon="-73.04411337710916996002197265625">
        <ele>630.5999755859375</ele>
        <time>2023-01-11T17:16:32.000Z</time>
      </trkpt>
      <trkpt lat="-49.22162340022623538970947265625" lon="-73.044100217521190643310546875">
        <ele>630.20001220703125</ele>
        <time>2023-01-11T17:16:34.000Z</time>
      </trkpt>
      <trkpt lat="-49.22164611518383026123046875" lon="-73.044100217521190643310546875">
        <ele>630</ele>
        <time>2023-01-11T17:16:36.000Z</time>
      </trkpt>
      <trkpt lat="-49.2216534912586212158203125" lon="-73.04409879259765148162841796875">
        <ele>628.5999755859375</ele>
        <time>2023-01-11T17:16:37.000Z</time>
      </trkpt>
      <trkpt lat="-49.22166178934276103973388671875" lon="-73.04408848285675048828125">
        <ele>627.79998779296875</ele>
        <time>2023-01-11T17:16:39.000Z</time>
      </trkpt>
      <trkpt lat="-49.22166715376079082489013671875" lon="-73.0440844595432281494140625">
        <ele>626.79998779296875</ele>
        <time>2023-01-11T17:16:40.000Z</time>
      </trkpt>
      <trkpt lat="-49.2216784693300724029541015625" lon="-73.0440725572407245635986328125">
        <ele>625.5999755859375</ele>
        <time>2023-01-11T17:16:42.000Z</time>
      </trkpt>
      <trkpt lat="-49.22170168720185756683349609375" lon="-73.0440142191946506500244140625">
        <ele>624</ele>
        <time>2023-01-11T17:16:49.000Z</time>
      </trkpt>
      <trkpt lat="-49.2216942273080348968505859375" lon="-73.04397373460233211517333984375">
        <ele>623</ele>
        <time>2023-01-11T17:16:52.000Z</time>
      </trkpt>
      <trkpt lat="-49.22169615514576435089111328125" lon="-73.04394858889281749725341796875">
        <ele>622.79998779296875</ele>
        <time>2023-01-11T17:16:54.000Z</time>
      </trkpt>
      <trkpt lat="-49.22170369885861873626708984375" lon="-73.04389628581702709197998046875">
        <ele>622.5999755859375</ele>
        <time>2023-01-11T17:16:58.000Z</time>
      </trkpt>
      <trkpt lat="-49.22170269303023815155029296875" lon="-73.0438844673335552215576171875">
        <ele>622.5999755859375</ele>
        <time>2023-01-11T17:16:59.000Z</time>
      </trkpt>
      <trkpt lat="-49.22170244157314300537109375" lon="-73.04385756142437458038330078125">
        <ele>623</ele>
        <time>2023-01-11T17:17:01.000Z</time>
      </trkpt>
      <trkpt lat="-49.22170621342957019805908203125" lon="-73.04382671602070331573486328125">
        <ele>623.20001220703125</ele>
        <time>2023-01-11T17:17:03.000Z</time>
      </trkpt>
      <trkpt lat="-49.2217408306896686553955078125" lon="-73.04368204437196254730224609375">
        <ele>623</ele>
        <time>2023-01-11T17:17:14.000Z</time>
      </trkpt>
      <trkpt lat="-49.2217539064586162567138671875" lon="-73.04367399774491786956787109375">
        <ele>623.5999755859375</ele>
        <time>2023-01-11T17:17:20.000Z</time>
      </trkpt>
      <trkpt lat="-49.22178131528198719024658203125" lon="-73.0435807071626186370849609375">
        <ele>623.4000244140625</ele>
        <time>2023-01-11T17:17:28.000Z</time>
      </trkpt>
      <trkpt lat="-49.22179623506963253021240234375" lon="-73.04351641796529293060302734375">
        <ele>623.4000244140625</ele>
        <time>2023-01-11T17:17:33.000Z</time>
      </trkpt>
      <trkpt lat="-49.22180570662021636962890625" lon="-73.04346981458365917205810546875">
        <ele>623.20001220703125</ele>
        <time>2023-01-11T17:17:36.000Z</time>
      </trkpt>
      <trkpt lat="-49.221810400485992431640625" lon="-73.04343394003808498382568359375">
        <ele>622.79998779296875</ele>
        <time>2023-01-11T17:17:39.000Z</time>
      </trkpt>
      <trkpt lat="-49.221812747418880462646484375" lon="-73.04336990229785442352294921875">
        <ele>624</ele>
        <time>2023-01-11T17:17:44.000Z</time>
      </trkpt>
      <trkpt lat="-49.22182188369333744049072265625" lon="-73.0432906933128833770751953125">
        <ele>624.5999755859375</ele>
        <time>2023-01-11T17:17:50.000Z</time>
      </trkpt>
      <trkpt lat="-49.22183923423290252685546875" lon="-73.04324534721672534942626953125">
        <ele>624.79998779296875</ele>
        <time>2023-01-11T17:17:54.000Z</time>
      </trkpt>
      <trkpt lat="-49.2218451015651226043701171875" lon="-73.0431978218257427215576171875">
        <ele>625.4000244140625</ele>
        <time>2023-01-11T17:17:58.000Z</time>
      </trkpt>
      <trkpt lat="-49.22184987924993038177490234375" lon="-73.04316018708050251007080078125">
        <ele>627.20001220703125</ele>
        <time>2023-01-11T17:18:01.000Z</time>
      </trkpt>
      <trkpt lat="-49.2218506336212158203125" lon="-73.0431351251900196075439453125">
        <ele>627.79998779296875</ele>
        <time>2023-01-11T17:18:03.000Z</time>
      </trkpt>
      <trkpt lat="-49.2218521423637866973876953125" lon="-73.0431227199733257293701171875">
        <ele>628.4000244140625</ele>
        <time>2023-01-11T17:18:04.000Z</time>
      </trkpt>
      <trkpt lat="-49.22189028002321720123291015625" lon="-73.04301719181239604949951171875">
        <ele>628.5999755859375</ele>
        <time>2023-01-11T17:18:13.000Z</time>
      </trkpt>
      <trkpt lat="-49.2219014279544353485107421875" lon="-73.04298785515129566192626953125">
        <ele>628.20001220703125</ele>
        <time>2023-01-11T17:18:15.000Z</time>
      </trkpt>
      <trkpt lat="-49.2219590954482555389404296875" lon="-73.04283731617033481597900390625">
        <ele>628.79998779296875</ele>
        <time>2023-01-11T17:18:26.000Z</time>
      </trkpt>
      <trkpt lat="-49.22197108156979084014892578125" lon="-73.04281233809888362884521484375">
        <ele>628.5999755859375</ele>
        <time>2023-01-11T17:18:28.000Z</time>
      </trkpt>
      <trkpt lat="-49.221972338855266571044921875" lon="-73.0427250824868679046630859375">
        <ele>629.4000244140625</ele>
        <time>2023-01-11T17:18:34.000Z</time>
      </trkpt>
      <trkpt lat="-49.2219674773514270782470703125" lon="-73.04271326400339603424072265625">
        <ele>629.5999755859375</ele>
        <time>2023-01-11T17:18:35.000Z</time>
      </trkpt>
      <trkpt lat="-49.2219795472919940948486328125" lon="-73.042605221271514892578125">
        <ele>630.20001220703125</ele>
        <time>2023-01-11T17:18:43.000Z</time>
      </trkpt>
      <trkpt lat="-49.2220033518970012664794921875" lon="-73.042587451636791229248046875">
        <ele>630.5999755859375</ele>
        <time>2023-01-11T17:18:46.000Z</time>
      </trkpt>
      <trkpt lat="-49.2220251448452472686767578125" lon="-73.04258351214230060577392578125">
        <ele>631</ele>
        <time>2023-01-11T17:18:49.000Z</time>
      </trkpt>
      <trkpt lat="-49.22203009016811847686767578125" lon="-73.0425708554685115814208984375">
        <ele>631</ele>
        <time>2023-01-11T17:18:50.000Z</time>
      </trkpt>
      <trkpt lat="-49.22207552008330821990966796875" lon="-73.0425265990197658538818359375">
        <ele>631.4000244140625</ele>
        <time>2023-01-11T17:18:56.000Z</time>
      </trkpt>
      <trkpt lat="-49.22207870520651340484619140625" lon="-73.04251913912594318389892578125">
        <ele>631.4000244140625</ele>
        <time>2023-01-11T17:18:57.000Z</time>
      </trkpt>
      <trkpt lat="-49.2220791243016719818115234375" lon="-73.04251092486083507537841796875">
        <ele>631.20001220703125</ele>
        <time>2023-01-11T17:18:58.000Z</time>
      </trkpt>
      <trkpt lat="-49.22207853756844997406005859375" lon="-73.0424987711012363433837890625">
        <ele>631.20001220703125</ele>
        <time>2023-01-11T17:18:59.000Z</time>
      </trkpt>
      <trkpt lat="-49.2220866680145263671875" lon="-73.04240070283412933349609375">
        <ele>631.79998779296875</ele>
        <time>2023-01-11T17:19:06.000Z</time>
      </trkpt>
      <trkpt lat="-49.222088344395160675048828125" lon="-73.042384944856166839599609375">
        <ele>631.79998779296875</ele>
        <time>2023-01-11T17:19:07.000Z</time>
      </trkpt>
      <trkpt lat="-49.2220918647944927215576171875" lon="-73.04237195290625095367431640625">
        <ele>631.79998779296875</ele>
        <time>2023-01-11T17:19:08.000Z</time>
      </trkpt>
      <trkpt lat="-49.2221200279891490936279296875" lon="-73.04229903034865856170654296875">
        <ele>631.20001220703125</ele>
        <time>2023-01-11T17:19:15.000Z</time>
      </trkpt>
      <trkpt lat="-49.222121872007846832275390625" lon="-73.0422942526638507843017578125">
        <ele>631.4000244140625</ele>
        <time>2023-01-11T17:19:16.000Z</time>
      </trkpt>
      <trkpt lat="-49.22213201411068439483642578125" lon="-73.042257539927959442138671875">
        <ele>632</ele>
        <time>2023-01-11T17:19:22.000Z</time>
      </trkpt>
      <trkpt lat="-49.22213536687195301055908203125" lon="-73.04222292266786098480224609375">
        <ele>632.20001220703125</ele>
        <time>2023-01-11T17:19:25.000Z</time>
      </trkpt>
      <trkpt lat="-49.22214257530868053436279296875" lon="-73.0421879701316356658935546875">
        <ele>632.20001220703125</ele>
        <time>2023-01-11T17:19:28.000Z</time>
      </trkpt>
      <trkpt lat="-49.22214978374540805816650390625" lon="-73.0421376787126064300537109375">
        <ele>632.79998779296875</ele>
        <time>2023-01-11T17:19:32.000Z</time>
      </trkpt>
      <trkpt lat="-49.2221510410308837890625" lon="-73.04212602786719799041748046875">
        <ele>632.79998779296875</ele>
        <time>2023-01-11T17:19:33.000Z</time>
      </trkpt>
      <trkpt lat="-49.2221652902662754058837890625" lon="-73.04207774810492992401123046875">
        <ele>633.5999755859375</ele>
        <time>2023-01-11T17:19:37.000Z</time>
      </trkpt>
      <trkpt lat="-49.22218733467161655426025390625" lon="-73.04204623214900493621826171875">
        <ele>633.79998779296875</ele>
        <time>2023-01-11T17:19:40.000Z</time>
      </trkpt>
      <trkpt lat="-49.2221964709460735321044921875" lon="-73.04202494211494922637939453125">
        <ele>633.79998779296875</ele>
        <time>2023-01-11T17:19:42.000Z</time>
      </trkpt>
      <trkpt lat="-49.22219999134540557861328125" lon="-73.04201203398406505584716796875">
        <ele>634</ele>
        <time>2023-01-11T17:19:43.000Z</time>
      </trkpt>
      <trkpt lat="-49.2222045175731182098388671875" lon="-73.0419539473950862884521484375">
        <ele>634</ele>
        <time>2023-01-11T17:19:47.000Z</time>
      </trkpt>
      <trkpt lat="-49.22220937907695770263671875" lon="-73.0419279634952545166015625">
        <ele>634</ele>
        <time>2023-01-11T17:19:49.000Z</time>
      </trkpt>
      <trkpt lat="-49.22223041765391826629638671875" lon="-73.04183769039809703826904296875">
        <ele>634.20001220703125</ele>
        <time>2023-01-11T17:19:56.000Z</time>
      </trkpt>
      <trkpt lat="-49.222286157310009002685546875" lon="-73.04171849973499774932861328125">
        <ele>634.5999755859375</ele>
        <time>2023-01-11T17:20:06.000Z</time>
      </trkpt>
      <trkpt lat="-49.22231306321918964385986328125" lon="-73.04166837595403194427490234375">
        <ele>634.79998779296875</ele>
        <time>2023-01-11T17:20:11.000Z</time>
      </trkpt>
      <trkpt lat="-49.2223159968852996826171875" lon="-73.0416552163660526275634765625">
        <ele>634.79998779296875</ele>
        <time>2023-01-11T17:20:12.000Z</time>
      </trkpt>
      <trkpt lat="-49.222323708236217498779296875" lon="-73.04163493216037750244140625">
        <ele>635.20001220703125</ele>
        <time>2023-01-11T17:20:14.000Z</time>
      </trkpt>
      <trkpt lat="-49.2223587445914745330810546875" lon="-73.04154600016772747039794921875">
        <ele>634.4000244140625</ele>
        <time>2023-01-11T17:20:22.000Z</time>
      </trkpt>
      <trkpt lat="-49.2223728261888027191162109375" lon="-73.04146838374435901641845703125">
        <ele>634.5999755859375</ele>
        <time>2023-01-11T17:20:29.000Z</time>
      </trkpt>
      <trkpt lat="-49.22238414175808429718017578125" lon="-73.04141205735504627227783203125">
        <ele>634.5999755859375</ele>
        <time>2023-01-11T17:20:34.000Z</time>
      </trkpt>
      <trkpt lat="-49.22238866798579692840576171875" lon="-73.0413888394832611083984375">
        <ele>636.20001220703125</ele>
        <time>2023-01-11T17:20:36.000Z</time>
      </trkpt>
      <trkpt lat="-49.22239403240382671356201171875" lon="-73.04137383587658405303955078125">
        <ele>636.20001220703125</ele>
        <time>2023-01-11T17:20:37.000Z</time>
      </trkpt>
      <trkpt lat="-49.2224197648465633392333984375" lon="-73.04129789583384990692138671875">
        <ele>635.20001220703125</ele>
        <time>2023-01-11T17:20:42.000Z</time>
      </trkpt>
      <trkpt lat="-49.22242655418813228607177734375" lon="-73.041276521980762481689453125">
        <ele>635</ele>
        <time>2023-01-11T17:20:44.000Z</time>
      </trkpt>
      <trkpt lat="-49.22243996523320674896240234375" lon="-73.04120737127959728240966796875">
        <ele>634</ele>
        <time>2023-01-11T17:20:48.000Z</time>
      </trkpt>
      <trkpt lat="-49.2224474251270294189453125" lon="-73.04111190140247344970703125">
        <ele>633.5999755859375</ele>
        <time>2023-01-11T17:20:53.000Z</time>
      </trkpt>
      <trkpt lat="-49.2224522866308689117431640625" lon="-73.04108499549329280853271484375">
        <ele>633.20001220703125</ele>
        <time>2023-01-11T17:20:54.000Z</time>
      </trkpt>
      <trkpt lat="-49.2224569804966449737548828125" lon="-73.041063956916332244873046875">
        <ele>633</ele>
        <time>2023-01-11T17:20:55.000Z</time>
      </trkpt>
      <trkpt lat="-49.22245622612535953521728515625" lon="-73.04104928858578205108642578125">
        <ele>633</ele>
        <time>2023-01-11T17:20:56.000Z</time>
      </trkpt>
      <trkpt lat="-49.222443737089633941650390625" lon="-73.0410254001617431640625">
        <ele>632.4000244140625</ele>
        <time>2023-01-11T17:20:58.000Z</time>
      </trkpt>
      <trkpt lat="-49.2224261350929737091064453125" lon="-73.04100863635540008544921875">
        <ele>631.79998779296875</ele>
        <time>2023-01-11T17:21:00.000Z</time>
      </trkpt>
      <trkpt lat="-49.2223926074802875518798828125" lon="-73.04095826111733913421630859375">
        <ele>631</ele>
        <time>2023-01-11T17:21:05.000Z</time>
      </trkpt>
      <trkpt lat="-49.22237374819815158843994140625" lon="-73.040938563644886016845703125">
        <ele>630.5999755859375</ele>
        <time>2023-01-11T17:21:07.000Z</time>
      </trkpt>
      <trkpt lat="-49.222309291362762451171875" lon="-73.0408874340355396270751953125">
        <ele>629.20001220703125</ele>
        <time>2023-01-11T17:21:15.000Z</time>
      </trkpt>
      <trkpt lat="-49.2222943715751171112060546875" lon="-73.04086790420114994049072265625">
        <ele>629.20001220703125</ele>
        <time>2023-01-11T17:21:17.000Z</time>
      </trkpt>
      <trkpt lat="-49.2222719080746173858642578125" lon="-73.040860109031200408935546875">
        <ele>629.20001220703125</ele>
        <time>2023-01-11T17:21:20.000Z</time>
      </trkpt>
      <trkpt lat="-49.222264699637889862060546875" lon="-73.040837980806827545166015625">
        <ele>629.79998779296875</ele>
        <time>2023-01-11T17:21:22.000Z</time>
      </trkpt>
      <trkpt lat="-49.22226645983755588531494140625" lon="-73.040783666074275970458984375">
        <ele>629.79998779296875</ele>
        <time>2023-01-11T17:21:28.000Z</time>
      </trkpt>
      <trkpt lat="-49.22223762609064579010009765625" lon="-73.040750138461589813232421875">
        <ele>629.79998779296875</ele>
        <time>2023-01-11T17:21:32.000Z</time>
      </trkpt>
      <trkpt lat="-49.22223259694874286651611328125" lon="-73.04074167273938655853271484375">
        <ele>629.79998779296875</ele>
        <time>2023-01-11T17:21:33.000Z</time>
      </trkpt>
      <trkpt lat="-49.22220963053405284881591796875" lon="-73.04070018231868743896484375">
        <ele>630.20001220703125</ele>
        <time>2023-01-11T17:21:37.000Z</time>
      </trkpt>
      <trkpt lat="-49.22219999134540557861328125" lon="-73.04068936966359615325927734375">
        <ele>630.20001220703125</ele>
        <time>2023-01-11T17:21:38.000Z</time>
      </trkpt>
      <trkpt lat="-49.22218632884323596954345703125" lon="-73.04066891781985759735107421875">
        <ele>631.5999755859375</ele>
        <time>2023-01-11T17:21:40.000Z</time>
      </trkpt>
      <trkpt lat="-49.222189597785472869873046875" lon="-73.04066422395408153533935546875">
        <ele>632</ele>
        <time>2023-01-11T17:21:43.000Z</time>
      </trkpt>
      <trkpt lat="-49.22216244041919708251953125" lon="-73.04061477072536945343017578125">
        <ele>631.5999755859375</ele>
        <time>2023-01-11T17:21:49.000Z</time>
      </trkpt>
      <trkpt lat="-49.22211776487529277801513671875" lon="-73.04054637439548969268798828125">
        <ele>632.20001220703125</ele>
        <time>2023-01-11T17:21:56.000Z</time>
      </trkpt>
      <trkpt lat="-49.22210116870701313018798828125" lon="-73.04048082791268825531005859375">
        <ele>632.4000244140625</ele>
        <time>2023-01-11T17:22:04.000Z</time>
      </trkpt>
      <trkpt lat="-49.2221022583544254302978515625" lon="-73.04046951234340667724609375">
        <ele>633.4000244140625</ele>
        <time>2023-01-11T17:22:06.000Z</time>
      </trkpt>
      <trkpt lat="-49.22209798358380794525146484375" lon="-73.04046708159148693084716796875">
        <ele>633.4000244140625</ele>
        <time>2023-01-11T17:22:07.000Z</time>
      </trkpt>
      <trkpt lat="-49.222091026604175567626953125" lon="-73.04046976380050182342529296875">
        <ele>633.4000244140625</ele>
        <time>2023-01-11T17:22:09.000Z</time>
      </trkpt>
      <trkpt lat="-49.2220660485327243804931640625" lon="-73.04043053649365901947021484375">
        <ele>635.79998779296875</ele>
        <time>2023-01-11T17:22:13.000Z</time>
      </trkpt>
      <trkpt lat="-49.22206009738147258758544921875" lon="-73.0404002778232097625732421875">
        <ele>636</ele>
        <time>2023-01-11T17:22:16.000Z</time>
      </trkpt>
      <trkpt lat="-49.222060181200504302978515625" lon="-73.04038829170167446136474609375">
        <ele>636</ele>
        <time>2023-01-11T17:22:17.000Z</time>
      </trkpt>
      <trkpt lat="-49.22206093557178974151611328125" lon="-73.0403768084943294525146484375">
        <ele>636</ele>
        <time>2023-01-11T17:22:18.000Z</time>
      </trkpt>
      <trkpt lat="-49.2220717482268810272216796875" lon="-73.040342442691326141357421875">
        <ele>638</ele>
        <time>2023-01-11T17:22:25.000Z</time>
      </trkpt>
      <trkpt lat="-49.222064204514026641845703125" lon="-73.04033900611102581024169921875">
        <ele>637.20001220703125</ele>
        <time>2023-01-11T17:22:26.000Z</time>
      </trkpt>
      <trkpt lat="-49.22203838825225830078125" lon="-73.04030681960284709930419921875">
        <ele>637.4000244140625</ele>
        <time>2023-01-11T17:22:31.000Z</time>
      </trkpt>
      <trkpt lat="-49.22202556394040584564208984375" lon="-73.04029961116611957550048828125">
        <ele>637.4000244140625</ele>
        <time>2023-01-11T17:22:33.000Z</time>
      </trkpt>
      <trkpt lat="-49.22197979874908924102783203125" lon="-73.0402644909918308258056640625">
        <ele>638</ele>
        <time>2023-01-11T17:22:40.000Z</time>
      </trkpt>
      <trkpt lat="-49.221931435167789459228515625" lon="-73.04025384597480297088623046875">
        <ele>639</ele>
        <time>2023-01-11T17:22:47.000Z</time>
      </trkpt>
      <trkpt lat="-49.22192246653139591217041015625" lon="-73.04025015793740749359130859375">
        <ele>639</ele>
        <time>2023-01-11T17:22:48.000Z</time>
      </trkpt>
      <trkpt lat="-49.2218814790248870849609375" lon="-73.04021243937313556671142578125">
        <ele>641.4000244140625</ele>
        <time>2023-01-11T17:22:55.000Z</time>
      </trkpt>
      <trkpt lat="-49.22187452204525470733642578125" lon="-73.040208332240581512451171875">
        <ele>644.4000244140625</ele>
        <time>2023-01-11T17:22:56.000Z</time>
      </trkpt>
      <trkpt lat="-49.221804030239582061767578125" lon="-73.04012996144592761993408203125">
        <ele>644.4000244140625</ele>
        <time>2023-01-11T17:23:06.000Z</time>
      </trkpt>
      <trkpt lat="-49.22179757617413997650146484375" lon="-73.04009936749935150146484375">
        <ele>638.20001220703125</ele>
        <time>2023-01-11T17:23:08.000Z</time>
      </trkpt>
      <trkpt lat="-49.22179807908833026885986328125" lon="-73.04007983766496181488037109375">
        <ele>639.5999755859375</ele>
        <time>2023-01-11T17:23:12.000Z</time>
      </trkpt>
      <trkpt lat="-49.2217847518622875213623046875" lon="-73.04005645215511322021484375">
        <ele>637.4000244140625</ele>
        <time>2023-01-11T17:23:16.000Z</time>
      </trkpt>
      <trkpt lat="-49.22175533138215541839599609375" lon="-73.0400609783828258514404296875">
        <ele>636.4000244140625</ele>
        <time>2023-01-11T17:23:20.000Z</time>
      </trkpt>
      <trkpt lat="-49.22173202969133853912353515625" lon="-73.04005251266062259674072265625">
        <ele>635.79998779296875</ele>
        <time>2023-01-11T17:23:22.000Z</time>
      </trkpt>
      <trkpt lat="-49.22172180376946926116943359375" lon="-73.04001999087631702423095703125">
        <ele>635.79998779296875</ele>
        <time>2023-01-11T17:23:26.000Z</time>
      </trkpt>
      <trkpt lat="-49.2217347957193851470947265625" lon="-73.04000683128833770751953125">
        <ele>636.4000244140625</ele>
        <time>2023-01-11T17:23:32.000Z</time>
      </trkpt>
      <trkpt lat="-49.2217394895851612091064453125" lon="-73.040008507668972015380859375">
        <ele>636.20001220703125</ele>
        <time>2023-01-11T17:23:37.000Z</time>
      </trkpt>
      <trkpt lat="-49.2217394895851612091064453125" lon="-73.040008507668972015380859375">
        <ele>636.20001220703125</ele>
        <time>2023-01-11T17:23:39.000Z</time>
      </trkpt>
      <trkpt lat="-49.2217394895851612091064453125" lon="-73.040008507668972015380859375">
        <ele>637</ele>
        <time>2023-01-11T17:23:50.000Z</time>
      </trkpt>
      <trkpt lat="-49.2217394895851612091064453125" lon="-73.040008507668972015380859375">
        <ele>635</ele>
        <time>2023-01-11T17:23:53.000Z</time>
      </trkpt>
      <trkpt lat="-49.2217394895851612091064453125" lon="-73.04000909440219402313232421875">
        <ele>636.5999755859375</ele>
        <time>2023-01-11T17:23:54.000Z</time>
      </trkpt>
      <trkpt lat="-49.221738986670970916748046875" lon="-73.04000909440219402313232421875">
        <ele>638.4000244140625</ele>
        <time>2023-01-11T17:23:55.000Z</time>
      </trkpt>
      <trkpt lat="-49.221738316118717193603515625" lon="-73.04000909440219402313232421875">
        <ele>634.5999755859375</ele>
        <time>2023-01-11T17:24:01.000Z</time>
      </trkpt>
      <trkpt lat="-49.221738316118717193603515625" lon="-73.04000909440219402313232421875">
        <ele>635.79998779296875</ele>
        <time>2023-01-11T17:24:02.000Z</time>
      </trkpt>
      <trkpt lat="-49.221738316118717193603515625" lon="-73.04000859148800373077392578125">
        <ele>634.5999755859375</ele>
        <time>2023-01-11T17:24:03.000Z</time>
      </trkpt>
      <trkpt lat="-49.221717528998851776123046875" lon="-73.03999300114810466766357421875">
        <ele>632.4000244140625</ele>
        <time>2023-01-11T17:24:07.000Z</time>
      </trkpt>
      <trkpt lat="-49.221708811819553375244140625" lon="-73.0399848707020282745361328125">
        <ele>630.5999755859375</ele>
        <time>2023-01-11T17:24:08.000Z</time>
      </trkpt>
      <trkpt lat="-49.2217005975544452667236328125" lon="-73.03998277522623538970947265625">
        <ele>631.79998779296875</ele>
        <time>2023-01-11T17:24:09.000Z</time>
      </trkpt>
      <trkpt lat="-49.22169439494609832763671875" lon="-73.03998160175979137420654296875">
        <ele>632.4000244140625</ele>
        <time>2023-01-11T17:24:10.000Z</time>
      </trkpt>
      <trkpt lat="-49.221686683595180511474609375" lon="-73.0399788357317447662353515625">
        <ele>632.4000244140625</ele>
        <time>2023-01-11T17:24:11.000Z</time>
      </trkpt>
      <trkpt lat="-49.22167696058750152587890625" lon="-73.03997606970369815826416015625">
        <ele>633.20001220703125</ele>
        <time>2023-01-11T17:24:12.000Z</time>
      </trkpt>
      <trkpt lat="-49.22165977768599987030029296875" lon="-73.03998537361621856689453125">
        <ele>634.4000244140625</ele>
        <time>2023-01-11T17:24:14.000Z</time>
      </trkpt>
      <trkpt lat="-49.2216452769935131072998046875" lon="-73.03999568335711956024169921875">
        <ele>634</ele>
        <time>2023-01-11T17:24:16.000Z</time>
      </trkpt>
      <trkpt lat="-49.2216402478516101837158203125" lon="-73.0399996228516101837158203125">
        <ele>633.20001220703125</ele>
        <time>2023-01-11T17:24:17.000Z</time>
      </trkpt>
      <trkpt lat="-49.22163848765194416046142578125" lon="-73.0400012992322444915771484375">
        <ele>634.4000244140625</ele>
        <time>2023-01-11T17:24:18.000Z</time>
      </trkpt>
      <trkpt lat="-49.2216412536799907684326171875" lon="-73.03999878466129302978515625">
        <ele>632.5999755859375</ele>
        <time>2023-01-11T17:24:21.000Z</time>
      </trkpt>
      <trkpt lat="-49.2216368950903415679931640625" lon="-73.0399798415601253509521484375">
        <ele>631</ele>
        <time>2023-01-11T17:24:24.000Z</time>
      </trkpt>
      <trkpt lat="-49.22159691341221332550048828125" lon="-73.0399147979915142059326171875">
        <ele>631</ele>
        <time>2023-01-11T17:24:31.000Z</time>
      </trkpt>
      <trkpt lat="-49.22158216126263141632080078125" lon="-73.0399020574986934661865234375">
        <ele>631</ele>
        <time>2023-01-11T17:24:33.000Z</time>
      </trkpt>
      <trkpt lat="-49.22154427506029605865478515625" lon="-73.03988252766430377960205078125">
        <ele>630.79998779296875</ele>
        <time>2023-01-11T17:24:42.000Z</time>
      </trkpt>
      <trkpt lat="-49.22151912935078144073486328125" lon="-73.03982988931238651275634765625">
        <ele>630.5999755859375</ele>
        <time>2023-01-11T17:24:47.000Z</time>
      </trkpt>
      <trkpt lat="-49.221507646143436431884765625" lon="-73.03980323486030101776123046875">
        <ele>629.79998779296875</ele>
        <time>2023-01-11T17:24:49.000Z</time>
      </trkpt>
      <trkpt lat="-49.22148576937615871429443359375" lon="-73.03979091346263885498046875">
        <ele>630</ele>
        <time>2023-01-11T17:24:52.000Z</time>
      </trkpt>
      <trkpt lat="-49.2214759625494480133056640625" lon="-73.03978764452040195465087890625">
        <ele>630.20001220703125</ele>
        <time>2023-01-11T17:24:53.000Z</time>
      </trkpt>
      <trkpt lat="-49.22146514989435672760009765625" lon="-73.03978286683559417724609375">
        <ele>630.20001220703125</ele>
        <time>2023-01-11T17:24:54.000Z</time>
      </trkpt>
      <trkpt lat="-49.22144436277449131011962890625" lon="-73.03977037779986858367919921875">
        <ele>630.20001220703125</ele>
        <time>2023-01-11T17:24:56.000Z</time>
      </trkpt>
      <trkpt lat="-49.2214367352426052093505859375" lon="-73.03976048715412616729736328125">
        <ele>630.4000244140625</ele>
        <time>2023-01-11T17:24:57.000Z</time>
      </trkpt>
      <trkpt lat="-49.2214048840105533599853515625" lon="-73.03975830785930156707763671875">
        <ele>631</ele>
        <time>2023-01-11T17:25:01.000Z</time>
      </trkpt>
      <trkpt lat="-49.22140329144895076751708984375" lon="-73.0397531948983669281005859375">
        <ele>632.4000244140625</ele>
        <time>2023-01-11T17:25:03.000Z</time>
      </trkpt>
      <trkpt lat="-49.2213986814022064208984375" lon="-73.039751015603542327880859375">
        <ele>633.5999755859375</ele>
        <time>2023-01-11T17:25:04.000Z</time>
      </trkpt>
      <trkpt lat="-49.22138686291873455047607421875" lon="-73.039746992290019989013671875">
        <ele>628.79998779296875</ele>
        <time>2023-01-11T17:25:06.000Z</time>
      </trkpt>
      <trkpt lat="-49.22137965448200702667236328125" lon="-73.0397481657564640045166015625">
        <ele>627.5999755859375</ele>
        <time>2023-01-11T17:25:07.000Z</time>
      </trkpt>
      <trkpt lat="-49.221384264528751373291015625" lon="-73.03975461982190608978271484375">
        <ele>635.20001220703125</ele>
        <time>2023-01-11T17:25:10.000Z</time>
      </trkpt>
      <trkpt lat="-49.22138652764260768890380859375" lon="-73.0397548712790012359619140625">
        <ele>635.20001220703125</ele>
        <time>2023-01-11T17:25:11.000Z</time>
      </trkpt>
      <trkpt lat="-49.221403039991855621337890625" lon="-73.03974841721355915069580078125">
        <ele>629</ele>
        <time>2023-01-11T17:25:18.000Z</time>
      </trkpt>
      <trkpt lat="-49.22140362672507762908935546875" lon="-73.03975059650838375091552734375">
        <ele>627.4000244140625</ele>
        <time>2023-01-11T17:25:19.000Z</time>
      </trkpt>
      <trkpt lat="-49.22140127979218959808349609375" lon="-73.03975109942257404327392578125">
        <ele>627.4000244140625</ele>
        <time>2023-01-11T17:25:20.000Z</time>
      </trkpt>
      <trkpt lat="-49.22138837166130542755126953125" lon="-73.03974154405295848846435546875">
        <ele>627.4000244140625</ele>
        <time>2023-01-11T17:25:22.000Z</time>
      </trkpt>
      <trkpt lat="-49.22138250432908535003662109375" lon="-73.0397337488830089569091796875">
        <ele>627.4000244140625</ele>
        <time>2023-01-11T17:25:23.000Z</time>
      </trkpt>
      <trkpt lat="-49.22137781046330928802490234375" lon="-73.03972461260855197906494140625">
        <ele>635</ele>
        <time>2023-01-11T17:25:27.000Z</time>
      </trkpt>
      <trkpt lat="-49.2213800735771656036376953125" lon="-73.039717487990856170654296875">
        <ele>635</ele>
        <time>2023-01-11T17:25:28.000Z</time>
      </trkpt>
      <trkpt lat="-49.2213800735771656036376953125" lon="-73.039717487990856170654296875">
        <ele>636</ele>
        <time>2023-01-11T17:25:29.000Z</time>
      </trkpt>
      <trkpt lat="-49.22137848101556301116943359375" lon="-73.039717487990856170654296875">
        <ele>626.4000244140625</ele>
        <time>2023-01-11T17:25:45.000Z</time>
      </trkpt>
      <trkpt lat="-49.221372865140438079833984375" lon="-73.0397109501063823699951171875">
        <ele>628.20001220703125</ele>
        <time>2023-01-11T17:25:52.000Z</time>
      </trkpt>
      <trkpt lat="-49.2213576100766658782958984375" lon="-73.0396821163594722747802734375">
        <ele>625</ele>
        <time>2023-01-11T17:25:56.000Z</time>
      </trkpt>
      <trkpt lat="-49.22135509550571441650390625" lon="-73.03966510109603404998779296875">
        <ele>623.20001220703125</ele>
        <time>2023-01-11T17:25:58.000Z</time>
      </trkpt>
      <trkpt lat="-49.22134813852608203887939453125" lon="-73.0396345071494579315185546875">
        <ele>624.5999755859375</ele>
        <time>2023-01-11T17:26:03.000Z</time>
      </trkpt>
      <trkpt lat="-49.2213450372219085693359375" lon="-73.0396197549998760223388671875">
        <ele>627</ele>
        <time>2023-01-11T17:26:06.000Z</time>
      </trkpt>
      <trkpt lat="-49.22130203805863857269287109375" lon="-73.0395872332155704498291015625">
        <ele>633</ele>
        <time>2023-01-11T17:26:14.000Z</time>
      </trkpt>
      <trkpt lat="-49.2212887108325958251953125" lon="-73.03957323543727397918701171875">
        <ele>630.79998779296875</ele>
        <time>2023-01-11T17:26:17.000Z</time>
      </trkpt>
      <trkpt lat="-49.22128644771873950958251953125" lon="-73.03956686519086360931396484375">
        <ele>629.5999755859375</ele>
        <time>2023-01-11T17:26:18.000Z</time>
      </trkpt>
      <trkpt lat="-49.221280999481678009033203125" lon="-73.039561249315738677978515625">
        <ele>627.79998779296875</ele>
        <time>2023-01-11T17:26:19.000Z</time>
      </trkpt>
      <trkpt lat="-49.22127337194979190826416015625" lon="-73.03953367285430431365966796875">
        <ele>626.5999755859375</ele>
        <time>2023-01-11T17:26:25.000Z</time>
      </trkpt>
      <trkpt lat="-49.22128158621490001678466796875" lon="-73.039499223232269287109375">
        <ele>625.20001220703125</ele>
        <time>2023-01-11T17:26:27.000Z</time>
      </trkpt>
      <trkpt lat="-49.221289046108722686767578125" lon="-73.039439208805561065673828125">
        <ele>625</ele>
        <time>2023-01-11T17:26:30.000Z</time>
      </trkpt>
      <trkpt lat="-49.22129147686064243316650390625" lon="-73.03937114775180816650390625">
        <ele>624</ele>
        <time>2023-01-11T17:26:33.000Z</time>
      </trkpt>
      <trkpt lat="-49.2212918959558010101318359375" lon="-73.03934742696583271026611328125">
        <ele>623.5999755859375</ele>
        <time>2023-01-11T17:26:34.000Z</time>
      </trkpt>
      <trkpt lat="-49.22129985876381397247314453125" lon="-73.03932127542793750762939453125">
        <ele>623.5999755859375</ele>
        <time>2023-01-11T17:26:36.000Z</time>
      </trkpt>
      <trkpt lat="-49.2213059775531291961669921875" lon="-73.03930987603962421417236328125">
        <ele>623.5999755859375</ele>
        <time>2023-01-11T17:26:37.000Z</time>
      </trkpt>
      <trkpt lat="-49.22133187763392925262451171875" lon="-73.03918850608170032501220703125">
        <ele>624.79998779296875</ele>
        <time>2023-01-11T17:26:48.000Z</time>
      </trkpt>
      <trkpt lat="-49.22132332809269428253173828125" lon="-73.0391614325344562530517578125">
        <ele>624.5999755859375</ele>
        <time>2023-01-11T17:26:50.000Z</time>
      </trkpt>
      <trkpt lat="-49.22132165171205997467041015625" lon="-73.03906244225800037384033203125">
        <ele>623.79998779296875</ele>
        <time>2023-01-11T17:26:56.000Z</time>
      </trkpt>
      <trkpt lat="-49.221326597034931182861328125" lon="-73.038956411182880401611328125">
        <ele>622.5999755859375</ele>
        <time>2023-01-11T17:27:03.000Z</time>
      </trkpt>
      <trkpt lat="-49.22131796367466449737548828125" lon="-73.038914501667022705078125">
        <ele>623</ele>
        <time>2023-01-11T17:27:07.000Z</time>
      </trkpt>
      <trkpt lat="-49.22132282517850399017333984375" lon="-73.0388938821852207183837890625">
        <ele>623.5999755859375</ele>
        <time>2023-01-11T17:27:12.000Z</time>
      </trkpt>
      <trkpt lat="-49.2213291116058826446533203125" lon="-73.03881953470408916473388671875">
        <ele>624.5999755859375</ele>
        <time>2023-01-11T17:27:17.000Z</time>
      </trkpt>
      <trkpt lat="-49.22133573330938816070556640625" lon="-73.03879438899457454681396484375">
        <ele>626</ele>
        <time>2023-01-11T17:27:19.000Z</time>
      </trkpt>
      <trkpt lat="-49.2213411815464496612548828125" lon="-73.03877075202763080596923828125">
        <ele>626.5999755859375</ele>
        <time>2023-01-11T17:27:21.000Z</time>
      </trkpt>
      <trkpt lat="-49.221358112990856170654296875" lon="-73.0387406609952449798583984375">
        <ele>627.20001220703125</ele>
        <time>2023-01-11T17:27:24.000Z</time>
      </trkpt>
      <trkpt lat="-49.22136909328401088714599609375" lon="-73.03869212977588176727294921875">
        <ele>628</ele>
        <time>2023-01-11T17:27:28.000Z</time>
      </trkpt>
      <trkpt lat="-49.2213706858456134796142578125" lon="-73.03868106566369533538818359375">
        <ele>630.4000244140625</ele>
        <time>2023-01-11T17:27:29.000Z</time>
      </trkpt>
      <trkpt lat="-49.22137864865362644195556640625" lon="-73.0385760404169559478759765625">
        <ele>631</ele>
        <time>2023-01-11T17:27:37.000Z</time>
      </trkpt>
      <trkpt lat="-49.22139264643192291259765625" lon="-73.0385458655655384063720703125">
        <ele>631.79998779296875</ele>
        <time>2023-01-11T17:27:39.000Z</time>
      </trkpt>
      <trkpt lat="-49.22140832059085369110107421875" lon="-73.03850621916353702545166015625">
        <ele>635</ele>
        <time>2023-01-11T17:27:42.000Z</time>
      </trkpt>
      <trkpt lat="-49.22142776660621166229248046875" lon="-73.03846162743866443634033203125">
        <ele>637.20001220703125</ele>
        <time>2023-01-11T17:27:45.000Z</time>
      </trkpt>
      <trkpt lat="-49.22143178991973400115966796875" lon="-73.0384491384029388427734375">
        <ele>637.4000244140625</ele>
        <time>2023-01-11T17:27:46.000Z</time>
      </trkpt>
      <trkpt lat="-49.22146514989435672760009765625" lon="-73.038336150348186492919921875">
        <ele>638.20001220703125</ele>
        <time>2023-01-11T17:27:54.000Z</time>
      </trkpt>
      <trkpt lat="-49.22146917320787906646728515625" lon="-73.0383202247321605682373046875">
        <ele>638.4000244140625</ele>
        <time>2023-01-11T17:27:55.000Z</time>
      </trkpt>
      <trkpt lat="-49.22148224897682666778564453125" lon="-73.03830354474484920501708984375">
        <ele>638</ele>
        <time>2023-01-11T17:28:00.000Z</time>
      </trkpt>
      <trkpt lat="-49.2214806564152240753173828125" lon="-73.03824688307940959930419921875">
        <ele>638</ele>
        <time>2023-01-11T17:28:06.000Z</time>
      </trkpt>
      <trkpt lat="-49.22152332030236721038818359375" lon="-73.038148395717144012451171875">
        <ele>635.5999755859375</ele>
        <time>2023-01-11T17:28:13.000Z</time>
      </trkpt>
      <trkpt lat="-49.221536479890346527099609375" lon="-73.0381351523101329803466796875">
        <ele>634.20001220703125</ele>
        <time>2023-01-11T17:28:16.000Z</time>
      </trkpt>
      <trkpt lat="-49.221549220383167266845703125" lon="-73.0381267704069614410400390625">
        <ele>633</ele>
        <time>2023-01-11T17:28:18.000Z</time>
      </trkpt>
      <trkpt lat="-49.2215550877153873443603515625" lon="-73.03812366910278797149658203125">
        <ele>631.5999755859375</ele>
        <time>2023-01-11T17:28:19.000Z</time>
      </trkpt>
      <trkpt lat="-49.22155969776213169097900390625" lon="-73.03811721503734588623046875">
        <ele>630.4000244140625</ele>
        <time>2023-01-11T17:28:20.000Z</time>
      </trkpt>
      <trkpt lat="-49.2215701751410961151123046875" lon="-73.03808905184268951416015625">
        <ele>629</ele>
        <time>2023-01-11T17:28:24.000Z</time>
      </trkpt>
      <trkpt lat="-49.2215674929320812225341796875" lon="-73.038053847849369049072265625">
        <ele>628</ele>
        <time>2023-01-11T17:28:27.000Z</time>
      </trkpt>
      <trkpt lat="-49.22156908549368381500244140625" lon="-73.03803331218659877777099609375">
        <ele>627.5999755859375</ele>
        <time>2023-01-11T17:28:28.000Z</time>
      </trkpt>
      <trkpt lat="-49.22158232890069484710693359375" lon="-73.03798754699528217315673828125">
        <ele>626.20001220703125</ele>
        <time>2023-01-11T17:28:31.000Z</time>
      </trkpt>
      <trkpt lat="-49.2215980030596256256103515625" lon="-73.03796022199094295501708984375">
        <ele>625.20001220703125</ele>
        <time>2023-01-11T17:28:34.000Z</time>
      </trkpt>
      <trkpt lat="-49.22160395421087741851806640625" lon="-73.03794689476490020751953125">
        <ele>624.79998779296875</ele>
        <time>2023-01-11T17:28:35.000Z</time>
      </trkpt>
      <trkpt lat="-49.2216164432466030120849609375" lon="-73.03788796998560428619384765625">
        <ele>623.20001220703125</ele>
        <time>2023-01-11T17:28:39.000Z</time>
      </trkpt>
      <trkpt lat="-49.22161669470369815826416015625" lon="-73.03786114789545536041259765625">
        <ele>623.20001220703125</ele>
        <time>2023-01-11T17:28:41.000Z</time>
      </trkpt>
      <trkpt lat="-49.22161334194242954254150390625" lon="-73.03784471936523914337158203125">
        <ele>623</ele>
        <time>2023-01-11T17:28:42.000Z</time>
      </trkpt>
      <trkpt lat="-49.221611581742763519287109375" lon="-73.03780280984938144683837890625">
        <ele>622</ele>
        <time>2023-01-11T17:28:45.000Z</time>
      </trkpt>
      <trkpt lat="-49.22161015681922435760498046875" lon="-73.03779224865138530731201171875">
        <ele>621.5999755859375</ele>
        <time>2023-01-11T17:28:46.000Z</time>
      </trkpt>
      <trkpt lat="-49.22160998918116092681884765625" lon="-73.03776542656123638153076171875">
        <ele>620.79998779296875</ele>
        <time>2023-01-11T17:28:49.000Z</time>
      </trkpt>
      <trkpt lat="-49.221621640026569366455078125" lon="-73.0377301387488842010498046875">
        <ele>620</ele>
        <time>2023-01-11T17:28:56.000Z</time>
      </trkpt>
      <trkpt lat="-49.2216258309781551361083984375" lon="-73.03770893253386020660400390625">
        <ele>619.5999755859375</ele>
        <time>2023-01-11T17:28:59.000Z</time>
      </trkpt>
      <trkpt lat="-49.22163806855678558349609375" lon="-73.03766031749546527862548828125">
        <ele>618.5999755859375</ele>
        <time>2023-01-11T17:29:04.000Z</time>
      </trkpt>
      <trkpt lat="-49.2216405831277370452880859375" lon="-73.037658222019672393798828125">
        <ele>618.20001220703125</ele>
        <time>2023-01-11T17:29:05.000Z</time>
      </trkpt>
      <trkpt lat="-49.22167436219751834869384765625" lon="-73.037655539810657501220703125">
        <ele>618.20001220703125</ele>
        <time>2023-01-11T17:29:11.000Z</time>
      </trkpt>
      <trkpt lat="-49.2216915450990200042724609375" lon="-73.0376319028437137603759765625">
        <ele>617.79998779296875</ele>
        <time>2023-01-11T17:29:14.000Z</time>
      </trkpt>
      <trkpt lat="-49.22169799916446208953857421875" lon="-73.0376124568283557891845703125">
        <ele>616.79998779296875</ele>
        <time>2023-01-11T17:29:16.000Z</time>
      </trkpt>
      <trkpt lat="-49.22170168720185756683349609375" lon="-73.03760466165840625762939453125">
        <ele>616.5999755859375</ele>
        <time>2023-01-11T17:29:18.000Z</time>
      </trkpt>
      <trkpt lat="-49.22170571051537990570068359375" lon="-73.03755755536258220672607421875">
        <ele>617.4000244140625</ele>
        <time>2023-01-11T17:29:29.000Z</time>
      </trkpt>
      <trkpt lat="-49.2217218875885009765625" lon="-73.03751195780932903289794921875">
        <ele>618.5999755859375</ele>
        <time>2023-01-11T17:29:34.000Z</time>
      </trkpt>
      <trkpt lat="-49.22172389924526214599609375" lon="-73.03749619983136653900146484375">
        <ele>618.20001220703125</ele>
        <time>2023-01-11T17:29:36.000Z</time>
      </trkpt>
      <trkpt lat="-49.2217173613607883453369140625" lon="-73.03746812045574188232421875">
        <ele>617.4000244140625</ele>
        <time>2023-01-11T17:29:40.000Z</time>
      </trkpt>
      <trkpt lat="-49.22170990146696567535400390625" lon="-73.03746837191283702850341796875">
        <ele>614.4000244140625</ele>
        <time>2023-01-11T17:29:41.000Z</time>
      </trkpt>
      <trkpt lat="-49.2216985858976840972900390625" lon="-73.037454374134540557861328125">
        <ele>614.20001220703125</ele>
        <time>2023-01-11T17:29:43.000Z</time>
      </trkpt>
      <trkpt lat="-49.22168433666229248046875" lon="-73.0374210141599178314208984375">
        <ele>614.79998779296875</ele>
        <time>2023-01-11T17:29:46.000Z</time>
      </trkpt>
      <trkpt lat="-49.2216789722442626953125" lon="-73.0374072678387165069580078125">
        <ele>615.5999755859375</ele>
        <time>2023-01-11T17:29:47.000Z</time>
      </trkpt>
      <trkpt lat="-49.22167159616947174072265625" lon="-73.037364184856414794921875">
        <ele>615.79998779296875</ele>
        <time>2023-01-11T17:29:51.000Z</time>
      </trkpt>
      <trkpt lat="-49.2216720990836620330810546875" lon="-73.03733426146209239959716796875">
        <ele>615.4000244140625</ele>
        <time>2023-01-11T17:29:57.000Z</time>
      </trkpt>
      <trkpt lat="-49.22166966833174228668212890625" lon="-73.037322945892810821533203125">
        <ele>614.5999755859375</ele>
        <time>2023-01-11T17:29:59.000Z</time>
      </trkpt>
      <trkpt lat="-49.22166111879050731658935546875" lon="-73.03730324842035770416259765625">
        <ele>613.20001220703125</ele>
        <time>2023-01-11T17:30:04.000Z</time>
      </trkpt>
      <trkpt lat="-49.22166111879050731658935546875" lon="-73.03730257786810398101806640625">
        <ele>613</ele>
        <time>2023-01-11T17:30:07.000Z</time>
      </trkpt>
      <trkpt lat="-49.22166111879050731658935546875" lon="-73.03730257786810398101806640625">
        <ele>613</ele>
        <time>2023-01-11T17:30:08.000Z</time>
      </trkpt>
      <trkpt lat="-49.22166111879050731658935546875" lon="-73.03730257786810398101806640625">
        <ele>611.4000244140625</ele>
        <time>2023-01-11T17:30:13.000Z</time>
      </trkpt>
      <trkpt lat="-49.22166061587631702423095703125" lon="-73.03729654289782047271728515625">
        <ele>610.79998779296875</ele>
        <time>2023-01-11T17:30:16.000Z</time>
      </trkpt>
      <trkpt lat="-49.2216771282255649566650390625" lon="-73.03725547157227993011474609375">
        <ele>610.5999755859375</ele>
        <time>2023-01-11T17:30:19.000Z</time>
      </trkpt>
      <trkpt lat="-49.221675954759120941162109375" lon="-73.03714734502136707305908203125">
        <ele>610.5999755859375</ele>
        <time>2023-01-11T17:30:25.000Z</time>
      </trkpt>
      <trkpt lat="-49.2216808162629604339599609375" lon="-73.03711901418864727020263671875">
        <ele>610.4000244140625</ele>
        <time>2023-01-11T17:30:27.000Z</time>
      </trkpt>
      <trkpt lat="-49.2216885276138782501220703125" lon="-73.03710241802036762237548828125">
        <ele>609.79998779296875</ele>
        <time>2023-01-11T17:30:29.000Z</time>
      </trkpt>
      <trkpt lat="-49.221692383289337158203125" lon="-73.0370823852717876434326171875">
        <ele>608.79998779296875</ele>
        <time>2023-01-11T17:30:31.000Z</time>
      </trkpt>
      <trkpt lat="-49.22170235775411128997802734375" lon="-73.03705732338130474090576171875">
        <ele>608.20001220703125</ele>
        <time>2023-01-11T17:30:34.000Z</time>
      </trkpt>
      <trkpt lat="-49.22171694226562976837158203125" lon="-73.03704299032688140869140625">
        <ele>607.4000244140625</ele>
        <time>2023-01-11T17:30:41.000Z</time>
      </trkpt>
      <trkpt lat="-49.2217693291604518890380859375" lon="-73.03701390512287616729736328125">
        <ele>606.4000244140625</ele>
        <time>2023-01-11T17:30:48.000Z</time>
      </trkpt>
      <trkpt lat="-49.2217713408172130584716796875" lon="-73.037005104124546051025390625">
        <ele>606.20001220703125</ele>
        <time>2023-01-11T17:30:50.000Z</time>
      </trkpt>
      <trkpt lat="-49.221804030239582061767578125" lon="-73.0369653739035129547119140625">
        <ele>605.79998779296875</ele>
        <time>2023-01-11T17:30:57.000Z</time>
      </trkpt>
      <trkpt lat="-49.22183596529066562652587890625" lon="-73.0369583331048488616943359375">
        <ele>605.79998779296875</ele>
        <time>2023-01-11T17:31:03.000Z</time>
      </trkpt>
      <trkpt lat="-49.2218417488038539886474609375" lon="-73.03694467060267925262451171875">
        <ele>605.20001220703125</ele>
        <time>2023-01-11T17:31:09.000Z</time>
      </trkpt>
      <trkpt lat="-49.22184451483190059661865234375" lon="-73.03694165311753749847412109375">
        <ele>605.20001220703125</ele>
        <time>2023-01-11T17:31:10.000Z</time>
      </trkpt>
      <trkpt lat="-49.2218627035617828369140625" lon="-73.03687761537730693817138671875">
        <ele>604.4000244140625</ele>
        <time>2023-01-11T17:31:17.000Z</time>
      </trkpt>
      <trkpt lat="-49.221852310001850128173828125" lon="-73.03683050908148288726806640625">
        <ele>604.79998779296875</ele>
        <time>2023-01-11T17:31:22.000Z</time>
      </trkpt>
      <trkpt lat="-49.22183923423290252685546875" lon="-73.0368091352283954620361328125">
        <ele>605.20001220703125</ele>
        <time>2023-01-11T17:31:25.000Z</time>
      </trkpt>
      <trkpt lat="-49.22182540409266948699951171875" lon="-73.03679731674492359161376953125">
        <ele>604</ele>
        <time>2023-01-11T17:31:29.000Z</time>
      </trkpt>
      <trkpt lat="-49.22182724811136722564697265625" lon="-73.0367682315409183502197265625">
        <ele>604</ele>
        <time>2023-01-11T17:31:31.000Z</time>
      </trkpt>
      <trkpt lat="-49.22184459865093231201171875" lon="-73.03671550936996936798095703125">
        <ele>602.4000244140625</ele>
        <time>2023-01-11T17:31:36.000Z</time>
      </trkpt>
      <trkpt lat="-49.2218481190502643585205078125" lon="-73.036700002849102020263671875">
        <ele>602.4000244140625</ele>
        <time>2023-01-11T17:31:37.000Z</time>
      </trkpt>
      <trkpt lat="-49.22185440547764301300048828125" lon="-73.0366780422627925872802734375">
        <ele>602.20001220703125</ele>
        <time>2023-01-11T17:31:39.000Z</time>
      </trkpt>
      <trkpt lat="-49.22185658477246761322021484375" lon="-73.0366706661880016326904296875">
        <ele>601.5999755859375</ele>
        <time>2023-01-11T17:31:40.000Z</time>
      </trkpt>
      <trkpt lat="-49.22185826115310192108154296875" lon="-73.03666287101805210113525390625">
        <ele>600.5999755859375</ele>
        <time>2023-01-11T17:31:41.000Z</time>
      </trkpt>
      <trkpt lat="-49.22187234275043010711669921875" lon="-73.036620207130908966064453125">
        <ele>600.4000244140625</ele>
        <time>2023-01-11T17:31:46.000Z</time>
      </trkpt>
      <trkpt lat="-49.22188843600451946258544921875" lon="-73.036590032279491424560546875">
        <ele>599.5999755859375</ele>
        <time>2023-01-11T17:31:49.000Z</time>
      </trkpt>
      <trkpt lat="-49.22191022895276546478271484375" lon="-73.03654938004910945892333984375">
        <ele>598.79998779296875</ele>
        <time>2023-01-11T17:31:53.000Z</time>
      </trkpt>
      <trkpt lat="-49.22191978432238101959228515625" lon="-73.03654518909752368927001953125">
        <ele>598.5999755859375</ele>
        <time>2023-01-11T17:31:54.000Z</time>
      </trkpt>
      <trkpt lat="-49.221964962780475616455078125" lon="-73.036488778889179229736328125">
        <ele>597.5999755859375</ele>
        <time>2023-01-11T17:32:01.000Z</time>
      </trkpt>
      <trkpt lat="-49.22196705825626850128173828125" lon="-73.03648240864276885986328125">
        <ele>597.5999755859375</ele>
        <time>2023-01-11T17:32:02.000Z</time>
      </trkpt>
      <trkpt lat="-49.22196856699883937835693359375" lon="-73.036439158022403717041015625">
        <ele>596.4000244140625</ele>
        <time>2023-01-11T17:32:08.000Z</time>
      </trkpt>
      <trkpt lat="-49.221981726586818695068359375" lon="-73.03640286438167095184326171875">
        <ele>595.79998779296875</ele>
        <time>2023-01-11T17:32:16.000Z</time>
      </trkpt>
      <trkpt lat="-49.2219872586429119110107421875" lon="-73.0363833345472812652587890625">
        <ele>594.79998779296875</ele>
        <time>2023-01-11T17:32:18.000Z</time>
      </trkpt>
      <trkpt lat="-49.22199404798448085784912109375" lon="-73.03635634481906890869140625">
        <ele>594.5999755859375</ele>
        <time>2023-01-11T17:32:21.000Z</time>
      </trkpt>
      <trkpt lat="-49.2220060341060161590576171875" lon="-73.03629825823009014129638671875">
        <ele>593.79998779296875</ele>
        <time>2023-01-11T17:32:28.000Z</time>
      </trkpt>
      <trkpt lat="-49.222011566162109375" lon="-73.03630144335329532623291015625">
        <ele>593.5999755859375</ele>
        <time>2023-01-11T17:32:29.000Z</time>
      </trkpt>
      <trkpt lat="-49.2220462672412395477294921875" lon="-73.03631099872291088104248046875">
        <ele>592.5999755859375</ele>
        <time>2023-01-11T17:32:33.000Z</time>
      </trkpt>
      <trkpt lat="-49.222067892551422119140625" lon="-73.0362985096871852874755859375">
        <ele>592.79998779296875</ele>
        <time>2023-01-11T17:32:37.000Z</time>
      </trkpt>
      <trkpt lat="-49.22209228388965129852294921875" lon="-73.0362683348357677459716796875">
        <ele>594</ele>
        <time>2023-01-11T17:32:41.000Z</time>
      </trkpt>
      <trkpt lat="-49.2221025936305522918701171875" lon="-73.03622852079570293426513671875">
        <ele>595</ele>
        <time>2023-01-11T17:32:44.000Z</time>
      </trkpt>
      <trkpt lat="-49.22210343182086944580078125" lon="-73.03620320744812488555908203125">
        <ele>594.5999755859375</ele>
        <time>2023-01-11T17:32:46.000Z</time>
      </trkpt>
      <trkpt lat="-49.222097061574459075927734375" lon="-73.03618594072759151458740234375">
        <ele>594</ele>
        <time>2023-01-11T17:32:48.000Z</time>
      </trkpt>
      <trkpt lat="-49.22209127806127071380615234375" lon="-73.03616867400705814361572265625">
        <ele>592.20001220703125</ele>
        <time>2023-01-11T17:32:50.000Z</time>
      </trkpt>
      <trkpt lat="-49.22208063304424285888671875" lon="-73.03616012446582317352294921875">
        <ele>592.20001220703125</ele>
        <time>2023-01-11T17:32:54.000Z</time>
      </trkpt>
      <trkpt lat="-49.2220640368759632110595703125" lon="-73.03613103926181793212890625">
        <ele>590.4000244140625</ele>
        <time>2023-01-11T17:33:00.000Z</time>
      </trkpt>
      <trkpt lat="-49.22206462360918521881103515625" lon="-73.03612927906215190887451171875">
        <ele>592</ele>
        <time>2023-01-11T17:33:02.000Z</time>
      </trkpt>
      <trkpt lat="-49.22206462360918521881103515625" lon="-73.03612927906215190887451171875">
        <ele>593</ele>
        <time>2023-01-11T17:33:03.000Z</time>
      </trkpt>
      <trkpt lat="-49.22206462360918521881103515625" lon="-73.03612927906215190887451171875">
        <ele>593</ele>
        <time>2023-01-11T17:33:04.000Z</time>
      </trkpt>
      <trkpt lat="-49.22206462360918521881103515625" lon="-73.03612927906215190887451171875">
        <ele>593.20001220703125</ele>
        <time>2023-01-11T17:33:05.000Z</time>
      </trkpt>
      <trkpt lat="-49.22206462360918521881103515625" lon="-73.03612927906215190887451171875">
        <ele>591.79998779296875</ele>
        <time>2023-01-11T17:33:18.000Z</time>
      </trkpt>
      <trkpt lat="-49.2220657132565975189208984375" lon="-73.036117963492870330810546875">
        <ele>591.79998779296875</ele>
        <time>2023-01-11T17:33:25.000Z</time>
      </trkpt>
      <trkpt lat="-49.22207367606461048126220703125" lon="-73.03610966540873050689697265625">
        <ele>590.79998779296875</ele>
        <time>2023-01-11T17:33:26.000Z</time>
      </trkpt>
      <trkpt lat="-49.22208759002387523651123046875" lon="-73.03608141839504241943359375">
        <ele>589.5999755859375</ele>
        <time>2023-01-11T17:33:28.000Z</time>
      </trkpt>
      <trkpt lat="-49.2220898531377315521240234375" lon="-73.036067001521587371826171875">
        <ele>589</ele>
        <time>2023-01-11T17:33:29.000Z</time>
      </trkpt>
      <trkpt lat="-49.2220922000706195831298828125" lon="-73.03602701984345912933349609375">
        <ele>588.4000244140625</ele>
        <time>2023-01-11T17:33:32.000Z</time>
      </trkpt>
      <trkpt lat="-49.2220915295183658599853515625" lon="-73.0360110104084014892578125">
        <ele>587.20001220703125</ele>
        <time>2023-01-11T17:33:33.000Z</time>
      </trkpt>
      <trkpt lat="-49.22208893112838268280029296875" lon="-73.0359652452170848846435546875">
        <ele>586.79998779296875</ele>
        <time>2023-01-11T17:33:36.000Z</time>
      </trkpt>
      <trkpt lat="-49.22210955061018466949462890625" lon="-73.03592660464346408843994140625">
        <ele>587.5999755859375</ele>
        <time>2023-01-11T17:33:41.000Z</time>
      </trkpt>
      <trkpt lat="-49.222136624157428741455078125" lon="-73.0358931608498096466064453125">
        <ele>587.5999755859375</ele>
        <time>2023-01-11T17:33:45.000Z</time>
      </trkpt>
      <trkpt lat="-49.22214257530868053436279296875" lon="-73.035863824188709259033203125">
        <ele>587.5999755859375</ele>
        <time>2023-01-11T17:33:47.000Z</time>
      </trkpt>
      <trkpt lat="-49.222147352993488311767578125" lon="-73.03585167042911052703857421875">
        <ele>587.5999755859375</ele>
        <time>2023-01-11T17:33:48.000Z</time>
      </trkpt>
      <trkpt lat="-49.22216889448463916778564453125" lon="-73.0358232557773590087890625">
        <ele>586.20001220703125</ele>
        <time>2023-01-11T17:33:51.000Z</time>
      </trkpt>
      <trkpt lat="-49.2222139053046703338623046875" lon="-73.03582099266350269317626953125">
        <ele>585.20001220703125</ele>
        <time>2023-01-11T17:33:57.000Z</time>
      </trkpt>
      <trkpt lat="-49.22225908376276493072509765625" lon="-73.0358391813933849334716796875">
        <ele>585.20001220703125</ele>
        <time>2023-01-11T17:34:04.000Z</time>
      </trkpt>
      <trkpt lat="-49.22227299772202968597412109375" lon="-73.03585602901875972747802734375">
        <ele>585</ele>
        <time>2023-01-11T17:34:07.000Z</time>
      </trkpt>
      <trkpt lat="-49.22228976152837276458740234375" lon="-73.03585636429488658905029296875">
        <ele>583.5999755859375</ele>
        <time>2023-01-11T17:34:10.000Z</time>
      </trkpt>
      <trkpt lat="-49.22229143790900707244873046875" lon="-73.0358596332371234893798828125">
        <ele>583.20001220703125</ele>
        <time>2023-01-11T17:34:12.000Z</time>
      </trkpt>
      <trkpt lat="-49.22229462303221225738525390625" lon="-73.035849072039127349853515625">
        <ele>582.4000244140625</ele>
        <time>2023-01-11T17:34:15.000Z</time>
      </trkpt>
      <trkpt lat="-49.22232043929398059844970703125" lon="-73.03582216612994670867919921875">
        <ele>581.5999755859375</ele>
        <time>2023-01-11T17:34:19.000Z</time>
      </trkpt>
      <trkpt lat="-49.22235815785825252532958984375" lon="-73.03581579588353633880615234375">
        <ele>581.20001220703125</ele>
        <time>2023-01-11T17:34:24.000Z</time>
      </trkpt>
      <trkpt lat="-49.2223785258829593658447265625" lon="-73.0358080007135868072509765625">
        <ele>580.4000244140625</ele>
        <time>2023-01-11T17:34:27.000Z</time>
      </trkpt>
      <trkpt lat="-49.2223859019577503204345703125" lon="-73.0358083359897136688232421875">
        <ele>580</ele>
        <time>2023-01-11T17:34:28.000Z</time>
      </trkpt>
      <trkpt lat="-49.22240040265023708343505859375" lon="-73.035814873874187469482421875">
        <ele>579.4000244140625</ele>
        <time>2023-01-11T17:34:32.000Z</time>
      </trkpt>
      <trkpt lat="-49.22240409068763256072998046875" lon="-73.03579978644847869873046875">
        <ele>579</ele>
        <time>2023-01-11T17:34:34.000Z</time>
      </trkpt>
      <trkpt lat="-49.222419597208499908447265625" lon="-73.03577757440507411956787109375">
        <ele>578.4000244140625</ele>
        <time>2023-01-11T17:34:38.000Z</time>
      </trkpt>
      <trkpt lat="-49.2224311642348766326904296875" lon="-73.03577321581542491912841796875">
        <ele>577.79998779296875</ele>
        <time>2023-01-11T17:34:40.000Z</time>
      </trkpt>
      <trkpt lat="-49.22247047536075115203857421875" lon="-73.0357748083770275115966796875">
        <ele>576.5999755859375</ele>
        <time>2023-01-11T17:34:45.000Z</time>
      </trkpt>
      <trkpt lat="-49.22248992137610912322998046875" lon="-73.03577237762510776519775390625">
        <ele>576.4000244140625</ele>
        <time>2023-01-11T17:34:47.000Z</time>
      </trkpt>
      <trkpt lat="-49.22249947674572467803955078125" lon="-73.03576835431158542633056640625">
        <ele>576.4000244140625</ele>
        <time>2023-01-11T17:34:48.000Z</time>
      </trkpt>
      <trkpt lat="-49.2225144803524017333984375" lon="-73.0356966890394687652587890625">
        <ele>576.4000244140625</ele>
        <time>2023-01-11T17:34:55.000Z</time>
      </trkpt>
      <trkpt lat="-49.22252244316041469573974609375" lon="-73.03567850030958652496337890625">
        <ele>575.79998779296875</ele>
        <time>2023-01-11T17:35:02.000Z</time>
      </trkpt>
      <trkpt lat="-49.22252529300749301910400390625" lon="-73.03565494716167449951171875">
        <ele>575.5999755859375</ele>
        <time>2023-01-11T17:35:05.000Z</time>
      </trkpt>
      <trkpt lat="-49.22252579592168331146240234375" lon="-73.0356420390307903289794921875">
        <ele>575.4000244140625</ele>
        <time>2023-01-11T17:35:06.000Z</time>
      </trkpt>
      <trkpt lat="-49.2225280590355396270751953125" lon="-73.03560675121843814849853515625">
        <ele>575</ele>
        <time>2023-01-11T17:35:09.000Z</time>
      </trkpt>
      <trkpt lat="-49.2225290648639202117919921875" lon="-73.0355920828878879547119140625">
        <ele>574.4000244140625</ele>
        <time>2023-01-11T17:35:10.000Z</time>
      </trkpt>
      <trkpt lat="-49.22252546064555644989013671875" lon="-73.03556643426418304443359375">
        <ele>574.4000244140625</ele>
        <time>2023-01-11T17:35:12.000Z</time>
      </trkpt>
      <trkpt lat="-49.22252319753170013427734375" lon="-73.035515137016773223876953125">
        <ele>574</ele>
        <time>2023-01-11T17:35:16.000Z</time>
      </trkpt>
      <trkpt lat="-49.2225290648639202117919921875" lon="-73.03547347895801067352294921875">
        <ele>573</ele>
        <time>2023-01-11T17:35:20.000Z</time>
      </trkpt>
      <trkpt lat="-49.22254239208996295928955078125" lon="-73.035454787313938140869140625">
        <ele>571.79998779296875</ele>
        <time>2023-01-11T17:35:23.000Z</time>
      </trkpt>
      <trkpt lat="-49.22254440374672412872314453125" lon="-73.0354519374668598175048828125">
        <ele>571.4000244140625</ele>
        <time>2023-01-11T17:35:24.000Z</time>
      </trkpt>
      <trkpt lat="-49.22254155389964580535888671875" lon="-73.0354150570929050445556640625">
        <ele>570.20001220703125</ele>
        <time>2023-01-11T17:35:28.000Z</time>
      </trkpt>
      <trkpt lat="-49.222548343241214752197265625" lon="-73.0353687889873981475830078125">
        <ele>569.79998779296875</ele>
        <time>2023-01-11T17:35:32.000Z</time>
      </trkpt>
      <trkpt lat="-49.22256921418011188507080078125" lon="-73.0353181622922420501708984375">
        <ele>569</ele>
        <time>2023-01-11T17:35:38.000Z</time>
      </trkpt>
      <trkpt lat="-49.222575835883617401123046875" lon="-73.03531589917838573455810546875">
        <ele>569</ele>
        <time>2023-01-11T17:35:39.000Z</time>
      </trkpt>
      <trkpt lat="-49.222606010735034942626953125" lon="-73.03533199243247509002685546875">
        <ele>569.20001220703125</ele>
        <time>2023-01-11T17:35:45.000Z</time>
      </trkpt>
      <trkpt lat="-49.2226061783730983734130859375" lon="-73.0353285558521747589111328125">
        <ele>569.20001220703125</ele>
        <time>2023-01-11T17:35:49.000Z</time>
      </trkpt>
      <trkpt lat="-49.22261246480047702789306640625" lon="-73.03532344289124011993408203125">
        <ele>568.5999755859375</ele>
        <time>2023-01-11T17:35:51.000Z</time>
      </trkpt>
      <trkpt lat="-49.22262721695005893707275390625" lon="-73.03527801297605037689208984375">
        <ele>567.79998779296875</ele>
        <time>2023-01-11T17:35:56.000Z</time>
      </trkpt>
      <trkpt lat="-49.22263258136808872222900390625" lon="-73.03523518145084381103515625">
        <ele>566.5999755859375</ele>
        <time>2023-01-11T17:35:59.000Z</time>
      </trkpt>
      <trkpt lat="-49.22265420667827129364013671875" lon="-73.03520509041845798492431640625">
        <ele>566.4000244140625</ele>
        <time>2023-01-11T17:36:03.000Z</time>
      </trkpt>
      <trkpt lat="-49.2227022349834442138671875" lon="-73.03518279455602169036865234375">
        <ele>566.20001220703125</ele>
        <time>2023-01-11T17:36:10.000Z</time>
      </trkpt>
      <trkpt lat="-49.2226832918822765350341796875" lon="-73.0351374484598636627197265625">
        <ele>566.5999755859375</ele>
        <time>2023-01-11T17:36:16.000Z</time>
      </trkpt>
      <trkpt lat="-49.22264532186090946197509765625" lon="-73.0350777693092823028564453125">
        <ele>565.5999755859375</ele>
        <time>2023-01-11T17:36:24.000Z</time>
      </trkpt>
      <trkpt lat="-49.2226403765380382537841796875" lon="-73.0349778570234775543212890625">
        <ele>566.79998779296875</ele>
        <time>2023-01-11T17:36:31.000Z</time>
      </trkpt>
      <trkpt lat="-49.22264431603252887725830078125" lon="-73.03496251814067363739013671875">
        <ele>566.5999755859375</ele>
        <time>2023-01-11T17:36:32.000Z</time>
      </trkpt>
      <trkpt lat="-49.222661666572093963623046875" lon="-73.03485405631363391876220703125">
        <ele>566.20001220703125</ele>
        <time>2023-01-11T17:36:40.000Z</time>
      </trkpt>
      <trkpt lat="-49.22266912646591663360595703125" lon="-73.0347803793847560882568359375">
        <ele>565</ele>
        <time>2023-01-11T17:36:45.000Z</time>
      </trkpt>
      <trkpt lat="-49.22267281450331211090087890625" lon="-73.03471625782549381256103515625">
        <ele>564</ele>
        <time>2023-01-11T17:36:49.000Z</time>
      </trkpt>
      <trkpt lat="-49.22267340123653411865234375" lon="-73.03460461087524890899658203125">
        <ele>565</ele>
        <time>2023-01-11T17:36:58.000Z</time>
      </trkpt>
      <trkpt lat="-49.22268153168261051177978515625" lon="-73.03450989536941051483154296875">
        <ele>565.4000244140625</ele>
        <time>2023-01-11T17:37:04.000Z</time>
      </trkpt>
      <trkpt lat="-49.22269175760447978973388671875" lon="-73.03445390425622463226318359375">
        <ele>563.79998779296875</ele>
        <time>2023-01-11T17:37:10.000Z</time>
      </trkpt>
      <trkpt lat="-49.2226997204124927520751953125" lon="-73.03443915210664272308349609375">
        <ele>563.79998779296875</ele>
        <time>2023-01-11T17:37:13.000Z</time>
      </trkpt>
      <trkpt lat="-49.2227158136665821075439453125" lon="-73.03440176881849765777587890625">
        <ele>564.5999755859375</ele>
        <time>2023-01-11T17:37:21.000Z</time>
      </trkpt>
      <trkpt lat="-49.22271070070564746856689453125" lon="-73.03438768722116947174072265625">
        <ele>564.79998779296875</ele>
        <time>2023-01-11T17:37:23.000Z</time>
      </trkpt>
      <trkpt lat="-49.22270818613469600677490234375" lon="-73.034399338066577911376953125">
        <ele>564.79998779296875</ele>
        <time>2023-01-11T17:37:26.000Z</time>
      </trkpt>
      <trkpt lat="-49.22270818613469600677490234375" lon="-73.034399338066577911376953125">
        <ele>564</ele>
        <time>2023-01-11T17:37:31.000Z</time>
      </trkpt>
      <trkpt lat="-49.22270818613469600677490234375" lon="-73.034399338066577911376953125">
        <ele>563.79998779296875</ele>
        <time>2023-01-11T17:37:33.000Z</time>
      </trkpt>
      <trkpt lat="-49.22270818613469600677490234375" lon="-73.0343981646001338958740234375">
        <ele>563.5999755859375</ele>
        <time>2023-01-11T17:37:36.000Z</time>
      </trkpt>
      <trkpt lat="-49.22270692884922027587890625" lon="-73.03438936360180377960205078125">
        <ele>563.20001220703125</ele>
        <time>2023-01-11T17:38:05.000Z</time>
      </trkpt>
      <trkpt lat="-49.2227070964872837066650390625" lon="-73.0343857593834400177001953125">
        <ele>563.20001220703125</ele>
        <time>2023-01-11T17:38:08.000Z</time>
      </trkpt>
      <trkpt lat="-49.22271992079913616180419921875" lon="-73.034347034990787506103515625">
        <ele>563</ele>
        <time>2023-01-11T17:38:33.000Z</time>
      </trkpt>
      <trkpt lat="-49.2227285541594028472900390625" lon="-73.0343042872846126556396484375">
        <ele>563.20001220703125</ele>
        <time>2023-01-11T17:38:35.000Z</time>
      </trkpt>
      <trkpt lat="-49.2227518558502197265625" lon="-73.03416724316775798797607421875">
        <ele>563.4000244140625</ele>
        <time>2023-01-11T17:38:43.000Z</time>
      </trkpt>
      <trkpt lat="-49.2227553762495517730712890625" lon="-73.03417428396642208099365234375">
        <ele>563.5999755859375</ele>
        <time>2023-01-11T17:38:46.000Z</time>
      </trkpt>
      <trkpt lat="-49.2227617464959621429443359375" lon="-73.03409297950565814971923828125">
        <ele>563.20001220703125</ele>
        <time>2023-01-11T17:38:56.000Z</time>
      </trkpt>
      <trkpt lat="-49.22276585362851619720458984375" lon="-73.0340665765106678009033203125">
        <ele>562.79998779296875</ele>
        <time>2023-01-11T17:38:58.000Z</time>
      </trkpt>
      <trkpt lat="-49.222777672111988067626953125" lon="-73.03400672972202301025390625">
        <ele>562.20001220703125</ele>
        <time>2023-01-11T17:39:02.000Z</time>
      </trkpt>
      <trkpt lat="-49.22278597019612789154052734375" lon="-73.03398099727928638458251953125">
        <ele>562</ele>
        <time>2023-01-11T17:39:04.000Z</time>
      </trkpt>
      <trkpt lat="-49.22278873622417449951171875" lon="-73.03396892733871936798095703125">
        <ele>561.79998779296875</ele>
        <time>2023-01-11T17:39:05.000Z</time>
      </trkpt>
      <trkpt lat="-49.22278580255806446075439453125" lon="-73.0339240841567516326904296875">
        <ele>561.79998779296875</ele>
        <time>2023-01-11T17:39:09.000Z</time>
      </trkpt>
      <trkpt lat="-49.22278244979679584503173828125" lon="-73.03390606306493282318115234375">
        <ele>561.79998779296875</ele>
        <time>2023-01-11T17:39:10.000Z</time>
      </trkpt>
      <trkpt lat="-49.22276861965656280517578125" lon="-73.033848814666271209716796875">
        <ele>561.4000244140625</ele>
        <time>2023-01-11T17:39:15.000Z</time>
      </trkpt>
      <trkpt lat="-49.222762249410152435302734375" lon="-73.033829368650913238525390625">
        <ele>561.4000244140625</ele>
        <time>2023-01-11T17:39:16.000Z</time>
      </trkpt>
      <trkpt lat="-49.22276191413402557373046875" lon="-73.03368352353572845458984375">
        <ele>561.4000244140625</ele>
        <time>2023-01-11T17:39:24.000Z</time>
      </trkpt>
      <trkpt lat="-49.2227627523243427276611328125" lon="-73.033662736415863037109375">
        <ele>561.4000244140625</ele>
        <time>2023-01-11T17:39:25.000Z</time>
      </trkpt>
      <trkpt lat="-49.22276652418076992034912109375" lon="-73.033624179661273956298828125">
        <ele>563.20001220703125</ele>
        <time>2023-01-11T17:39:27.000Z</time>
      </trkpt>
      <trkpt lat="-49.222779683768749237060546875" lon="-73.0334365926682949066162109375">
        <ele>562.5999755859375</ele>
        <time>2023-01-11T17:39:37.000Z</time>
      </trkpt>
      <trkpt lat="-49.22282268293201923370361328125" lon="-73.03326736204326152801513671875">
        <ele>562.20001220703125</ele>
        <time>2023-01-11T17:39:47.000Z</time>
      </trkpt>
      <trkpt lat="-49.2228309810161590576171875" lon="-73.03322109393775463104248046875">
        <ele>561.5999755859375</ele>
        <time>2023-01-11T17:39:50.000Z</time>
      </trkpt>
      <trkpt lat="-49.222845397889614105224609375" lon="-73.03308539092540740966796875">
        <ele>562</ele>
        <time>2023-01-11T17:39:58.000Z</time>
      </trkpt>
      <trkpt lat="-49.2228596471250057220458984375" lon="-73.0329692177474498748779296875">
        <ele>562</ele>
        <time>2023-01-11T17:40:05.000Z</time>
      </trkpt>
      <trkpt lat="-49.22286760993301868438720703125" lon="-73.032879866659641265869140625">
        <ele>562.5999755859375</ele>
        <time>2023-01-11T17:40:10.000Z</time>
      </trkpt>
      <trkpt lat="-49.22287146560847759246826171875" lon="-73.0327856540679931640625">
        <ele>562.20001220703125</ele>
        <time>2023-01-11T17:40:15.000Z</time>
      </trkpt>
      <trkpt lat="-49.22287456691265106201171875" lon="-73.0326636135578155517578125">
        <ele>562.5999755859375</ele>
        <time>2023-01-11T17:40:23.000Z</time>
      </trkpt>
      <trkpt lat="-49.22287833876907825469970703125" lon="-73.0326151661574840545654296875">
        <ele>562.5999755859375</ele>
        <time>2023-01-11T17:40:26.000Z</time>
      </trkpt>
      <trkpt lat="-49.22288068570196628570556640625" lon="-73.03246487863361835479736328125">
        <ele>563.79998779296875</ele>
        <time>2023-01-11T17:40:36.000Z</time>
      </trkpt>
      <trkpt lat="-49.22288068570196628570556640625" lon="-73.0324498750269412994384765625">
        <ele>564.4000244140625</ele>
        <time>2023-01-11T17:40:37.000Z</time>
      </trkpt>
      <trkpt lat="-49.22288286499679088592529296875" lon="-73.03242020308971405029296875">
        <ele>565</ele>
        <time>2023-01-11T17:40:39.000Z</time>
      </trkpt>
      <trkpt lat="-49.22289510257542133331298828125" lon="-73.03236748091876506805419921875">
        <ele>565</ele>
        <time>2023-01-11T17:40:42.000Z</time>
      </trkpt>
      <trkpt lat="-49.22290918417274951934814453125" lon="-73.03231132216751575469970703125">
        <ele>563.79998779296875</ele>
        <time>2023-01-11T17:40:45.000Z</time>
      </trkpt>
      <trkpt lat="-49.2229169793426990509033203125" lon="-73.03214988671243190765380859375">
        <ele>563.5999755859375</ele>
        <time>2023-01-11T17:40:55.000Z</time>
      </trkpt>
      <trkpt lat="-49.22291035763919353485107421875" lon="-73.03210814483463764190673828125">
        <ele>565</ele>
        <time>2023-01-11T17:40:58.000Z</time>
      </trkpt>
      <trkpt lat="-49.22288822941482067108154296875" lon="-73.0319744534790515899658203125">
        <ele>564.4000244140625</ele>
        <time>2023-01-11T17:41:06.000Z</time>
      </trkpt>
      <trkpt lat="-49.2228743992745876312255859375" lon="-73.03184193558990955352783203125">
        <ele>564.79998779296875</ele>
        <time>2023-01-11T17:41:14.000Z</time>
      </trkpt>
      <trkpt lat="-49.2228757403790950775146484375" lon="-73.03178250789642333984375">
        <ele>565</ele>
        <time>2023-01-11T17:41:17.000Z</time>
      </trkpt>
      <trkpt lat="-49.22290465794503688812255859375" lon="-73.0316269397735595703125">
        <ele>564</ele>
        <time>2023-01-11T17:41:26.000Z</time>
      </trkpt>
      <trkpt lat="-49.22291278839111328125" lon="-73.03159936331212520599365234375">
        <ele>566</ele>
        <time>2023-01-11T17:41:28.000Z</time>
      </trkpt>
      <trkpt lat="-49.2229350842535495758056640625" lon="-73.03155192174017429351806640625">
        <ele>563.5999755859375</ele>
        <time>2023-01-11T17:41:31.000Z</time>
      </trkpt>
      <trkpt lat="-49.2229632474482059478759765625" lon="-73.0315124429762363433837890625">
        <ele>563.20001220703125</ele>
        <time>2023-01-11T17:41:34.000Z</time>
      </trkpt>
      <trkpt lat="-49.22303910367190837860107421875" lon="-73.03143558092415332794189453125">
        <ele>563.79998779296875</ele>
        <time>2023-01-11T17:41:41.000Z</time>
      </trkpt>
      <trkpt lat="-49.22304832376539707183837890625" lon="-73.0314190685749053955078125">
        <ele>563.79998779296875</ele>
        <time>2023-01-11T17:41:42.000Z</time>
      </trkpt>
      <trkpt lat="-49.2230537720024585723876953125" lon="-73.03140792064368724822998046875">
        <ele>563.5999755859375</ele>
        <time>2023-01-11T17:41:43.000Z</time>
      </trkpt>
      <trkpt lat="-49.22307246364653110504150390625" lon="-73.0313689447939395904541015625">
        <ele>562.4000244140625</ele>
        <time>2023-01-11T17:41:46.000Z</time>
      </trkpt>
      <trkpt lat="-49.22310096211731433868408203125" lon="-73.0313142947852611541748046875">
        <ele>562.4000244140625</ele>
        <time>2023-01-11T17:41:50.000Z</time>
      </trkpt>
      <trkpt lat="-49.223106913268566131591796875" lon="-73.03130147047340869903564453125">
        <ele>563.5999755859375</ele>
        <time>2023-01-11T17:41:51.000Z</time>
      </trkpt>
      <trkpt lat="-49.2231416143476963043212890625" lon="-73.03120289929211139678955078125">
        <ele>563.5999755859375</ele>
        <time>2023-01-11T17:41:58.000Z</time>
      </trkpt>
      <trkpt lat="-49.2231447994709014892578125" lon="-73.03113567642867565155029296875">
        <ele>562.5999755859375</ele>
        <time>2023-01-11T17:42:02.000Z</time>
      </trkpt>
      <trkpt lat="-49.22314287163317203521728515625" lon="-73.0309443175792694091796875">
        <ele>564.4000244140625</ele>
        <time>2023-01-11T17:42:13.000Z</time>
      </trkpt>
      <trkpt lat="-49.22314035706222057342529296875" lon="-73.0308462493121623992919921875">
        <ele>562.5999755859375</ele>
        <time>2023-01-11T17:42:19.000Z</time>
      </trkpt>
      <trkpt lat="-49.2231419496238231658935546875" lon="-73.030819930136203765869140625">
        <ele>562.5999755859375</ele>
        <time>2023-01-11T17:42:21.000Z</time>
      </trkpt>
      <trkpt lat="-49.2231396026909351348876953125" lon="-73.030795119702816009521484375">
        <ele>562.4000244140625</ele>
        <time>2023-01-11T17:42:22.000Z</time>
      </trkpt>
      <trkpt lat="-49.22314085997641086578369140625" lon="-73.0307346023619174957275390625">
        <ele>561.79998779296875</ele>
        <time>2023-01-11T17:42:24.000Z</time>
      </trkpt>
      <trkpt lat="-49.22313130460679531097412109375" lon="-73.03066528402268886566162109375">
        <ele>561.79998779296875</ele>
        <time>2023-01-11T17:42:28.000Z</time>
      </trkpt>
      <trkpt lat="-49.22312577255070209503173828125" lon="-73.030653633177280426025390625">
        <ele>561.5999755859375</ele>
        <time>2023-01-11T17:42:29.000Z</time>
      </trkpt>
      <trkpt lat="-49.2231094278395175933837890625" lon="-73.03053838200867176055908203125">
        <ele>561.4000244140625</ele>
        <time>2023-01-11T17:42:37.000Z</time>
      </trkpt>
      <trkpt lat="-49.22310716472566127777099609375" lon="-73.03052128292620182037353515625">
        <ele>561.4000244140625</ele>
        <time>2023-01-11T17:42:38.000Z</time>
      </trkpt>
      <trkpt lat="-49.223105907440185546875" lon="-73.0303728394210338592529296875">
        <ele>560.5999755859375</ele>
        <time>2023-01-11T17:42:47.000Z</time>
      </trkpt>
      <trkpt lat="-49.223078079521656036376953125" lon="-73.03023680113255977630615234375">
        <ele>561.20001220703125</ele>
        <time>2023-01-11T17:42:55.000Z</time>
      </trkpt>
      <trkpt lat="-49.22306290827691555023193359375" lon="-73.03020444698631763458251953125">
        <ele>563.5999755859375</ele>
        <time>2023-01-11T17:42:57.000Z</time>
      </trkpt>
      <trkpt lat="-49.22305720858275890350341796875" lon="-73.03018751554191112518310546875">
        <ele>563.79998779296875</ele>
        <time>2023-01-11T17:42:58.000Z</time>
      </trkpt>
      <trkpt lat="-49.2230591364204883575439453125" lon="-73.03008777089416980743408203125">
        <ele>561.79998779296875</ele>
        <time>2023-01-11T17:43:04.000Z</time>
      </trkpt>
      <trkpt lat="-49.2230504192411899566650390625" lon="-73.03006212227046489715576171875">
        <ele>561.79998779296875</ele>
        <time>2023-01-11T17:43:06.000Z</time>
      </trkpt>
      <trkpt lat="-49.22301278449594974517822265625" lon="-73.0298722721636295318603515625">
        <ele>562.20001220703125</ele>
        <time>2023-01-11T17:43:17.000Z</time>
      </trkpt>
      <trkpt lat="-49.222991578280925750732421875" lon="-73.02969038486480712890625">
        <ele>563</ele>
        <time>2023-01-11T17:43:27.000Z</time>
      </trkpt>
      <trkpt lat="-49.222995936870574951171875" lon="-73.029660545289516448974609375">
        <ele>563.79998779296875</ele>
        <time>2023-01-11T17:43:29.000Z</time>
      </trkpt>
      <trkpt lat="-49.22301194630563259124755859375" lon="-73.02956474013626575469970703125">
        <ele>561.5999755859375</ele>
        <time>2023-01-11T17:43:35.000Z</time>
      </trkpt>
      <trkpt lat="-49.22302233986556529998779296875" lon="-73.02952718921005725860595703125">
        <ele>561.4000244140625</ele>
        <time>2023-01-11T17:43:37.000Z</time>
      </trkpt>
      <trkpt lat="-49.223041869699954986572265625" lon="-73.02936508320271968841552734375">
        <ele>562.20001220703125</ele>
        <time>2023-01-11T17:43:46.000Z</time>
      </trkpt>
      <trkpt lat="-49.22304161824285984039306640625" lon="-73.02935167215764522552490234375">
        <ele>562.79998779296875</ele>
        <time>2023-01-11T17:43:47.000Z</time>
      </trkpt>
      <trkpt lat="-49.2230403609573841094970703125" lon="-73.029339015483856201171875">
        <ele>563.79998779296875</ele>
        <time>2023-01-11T17:43:48.000Z</time>
      </trkpt>
      <trkpt lat="-49.22303893603384494781494140625" lon="-73.02931060083210468292236328125">
        <ele>564</ele>
        <time>2023-01-11T17:43:50.000Z</time>
      </trkpt>
      <trkpt lat="-49.22302368097007274627685546875" lon="-73.02920549176633358001708984375">
        <ele>563</ele>
        <time>2023-01-11T17:43:57.000Z</time>
      </trkpt>
      <trkpt lat="-49.223021082580089569091796875" lon="-73.02918721921741962432861328125">
        <ele>562.20001220703125</ele>
        <time>2023-01-11T17:43:58.000Z</time>
      </trkpt>
      <trkpt lat="-49.22300205565989017486572265625" lon="-73.02911438047885894775390625">
        <ele>562</ele>
        <time>2023-01-11T17:44:03.000Z</time>
      </trkpt>
      <trkpt lat="-49.2229987867176532745361328125" lon="-73.02910096943378448486328125">
        <ele>562</ele>
        <time>2023-01-11T17:44:04.000Z</time>
      </trkpt>
      <trkpt lat="-49.2229917459189891815185546875" lon="-73.0290491692721843719482421875">
        <ele>561.20001220703125</ele>
        <time>2023-01-11T17:44:07.000Z</time>
      </trkpt>
      <trkpt lat="-49.2229679413139820098876953125" lon="-73.028790168464183807373046875">
        <ele>561.4000244140625</ele>
        <time>2023-01-11T17:44:21.000Z</time>
      </trkpt>
      <trkpt lat="-49.222955368459224700927734375" lon="-73.0287514440715312957763671875">
        <ele>563.20001220703125</ele>
        <time>2023-01-11T17:44:24.000Z</time>
      </trkpt>
      <trkpt lat="-49.22293449752032756805419921875" lon="-73.02870023064315319061279296875">
        <ele>564.20001220703125</ele>
        <time>2023-01-11T17:44:27.000Z</time>
      </trkpt>
      <trkpt lat="-49.22292477451264858245849609375" lon="-73.028640635311603546142578125">
        <ele>564.20001220703125</ele>
        <time>2023-01-11T17:44:30.000Z</time>
      </trkpt>
      <trkpt lat="-49.22292393632233142852783203125" lon="-73.02850023843348026275634765625">
        <ele>562.79998779296875</ele>
        <time>2023-01-11T17:44:38.000Z</time>
      </trkpt>
      <trkpt lat="-49.2229337431490421295166015625" lon="-73.0283497832715511322021484375">
        <ele>562</ele>
        <time>2023-01-11T17:44:47.000Z</time>
      </trkpt>
      <trkpt lat="-49.2229407839477062225341796875" lon="-73.02831063978374004364013671875">
        <ele>561.79998779296875</ele>
        <time>2023-01-11T17:44:49.000Z</time>
      </trkpt>
      <trkpt lat="-49.22296584583818912506103515625" lon="-73.02819974720478057861328125">
        <ele>560.5999755859375</ele>
        <time>2023-01-11T17:44:56.000Z</time>
      </trkpt>
      <trkpt lat="-49.22298763878643512725830078125" lon="-73.02814207971096038818359375">
        <ele>561.20001220703125</ele>
        <time>2023-01-11T17:44:59.000Z</time>
      </trkpt>
      <trkpt lat="-49.22300809063017368316650390625" lon="-73.02806697785854339599609375">
        <ele>562</ele>
        <time>2023-01-11T17:45:04.000Z</time>
      </trkpt>
      <trkpt lat="-49.22301596961915493011474609375" lon="-73.02803269587457180023193359375">
        <ele>560.79998779296875</ele>
        <time>2023-01-11T17:45:06.000Z</time>
      </trkpt>
      <trkpt lat="-49.22304488718509674072265625" lon="-73.02795340307056903839111328125">
        <ele>560.79998779296875</ele>
        <time>2023-01-11T17:45:10.000Z</time>
      </trkpt>
      <trkpt lat="-49.22309048473834991455078125" lon="-73.0277650617063045501708984375">
        <ele>560.79998779296875</ele>
        <time>2023-01-11T17:45:20.000Z</time>
      </trkpt>
      <trkpt lat="-49.223131723701953887939453125" lon="-73.0276416800916194915771484375">
        <ele>560</ele>
        <time>2023-01-11T17:45:28.000Z</time>
      </trkpt>
      <trkpt lat="-49.2231394350528717041015625" lon="-73.027631454169750213623046875">
        <ele>559.5999755859375</ele>
        <time>2023-01-11T17:45:29.000Z</time>
      </trkpt>
      <trkpt lat="-49.223169945180416107177734375" lon="-73.02757437340915203094482421875">
        <ele>561</ele>
        <time>2023-01-11T17:45:34.000Z</time>
      </trkpt>
      <trkpt lat="-49.223179332911968231201171875" lon="-73.0275441147387027740478515625">
        <ele>561</ele>
        <time>2023-01-11T17:45:36.000Z</time>
      </trkpt>
      <trkpt lat="-49.223196767270565032958984375" lon="-73.027485273778438568115234375">
        <ele>559.79998779296875</ele>
        <time>2023-01-11T17:45:40.000Z</time>
      </trkpt>
      <trkpt lat="-49.2232079990208148956298828125" lon="-73.02746222354471683502197265625">
        <ele>560</ele>
        <time>2023-01-11T17:45:42.000Z</time>
      </trkpt>
      <trkpt lat="-49.22324764542281627655029296875" lon="-73.02742266096174716949462890625">
        <ele>560.20001220703125</ele>
        <time>2023-01-11T17:45:47.000Z</time>
      </trkpt>
      <trkpt lat="-49.22328167594969272613525390625" lon="-73.027288131415843963623046875">
        <ele>560.5999755859375</ele>
        <time>2023-01-11T17:45:56.000Z</time>
      </trkpt>
      <trkpt lat="-49.2232810892164707183837890625" lon="-73.02726767957210540771484375">
        <ele>561</ele>
        <time>2023-01-11T17:45:58.000Z</time>
      </trkpt>
      <trkpt lat="-49.22328435815870761871337890625" lon="-73.02721193991601467132568359375">
        <ele>562.20001220703125</ele>
        <time>2023-01-11T17:46:02.000Z</time>
      </trkpt>
      <trkpt lat="-49.2232864536345005035400390625" lon="-73.0272017978131771087646484375">
        <ele>562.5999755859375</ele>
        <time>2023-01-11T17:46:03.000Z</time>
      </trkpt>
      <trkpt lat="-49.2232948355376720428466796875" lon="-73.02717648446559906005859375">
        <ele>563.20001220703125</ele>
        <time>2023-01-11T17:46:05.000Z</time>
      </trkpt>
      <trkpt lat="-49.22330380417406558990478515625" lon="-73.02715259604156017303466796875">
        <ele>564.4000244140625</ele>
        <time>2023-01-11T17:46:07.000Z</time>
      </trkpt>
      <trkpt lat="-49.2233095876872539520263671875" lon="-73.02714169956743717193603515625">
        <ele>565.5999755859375</ele>
        <time>2023-01-11T17:46:08.000Z</time>
      </trkpt>
      <trkpt lat="-49.2233159579336643218994140625" lon="-73.02713180892169475555419921875">
        <ele>566.5999755859375</ele>
        <time>2023-01-11T17:46:09.000Z</time>
      </trkpt>
      <trkpt lat="-49.2233209870755672454833984375" lon="-73.02711135707795619964599609375">
        <ele>566.5999755859375</ele>
        <time>2023-01-11T17:46:11.000Z</time>
      </trkpt>
      <trkpt lat="-49.223317801952362060546875" lon="-73.02709274925291538238525390625">
        <ele>564.20001220703125</ele>
        <time>2023-01-11T17:46:13.000Z</time>
      </trkpt>
      <trkpt lat="-49.2233126051723957061767578125" lon="-73.0270804278552532196044921875">
        <ele>562.4000244140625</ele>
        <time>2023-01-11T17:46:14.000Z</time>
      </trkpt>
      <trkpt lat="-49.22330908477306365966796875" lon="-73.02706391550600528717041015625">
        <ele>562</ele>
        <time>2023-01-11T17:46:15.000Z</time>
      </trkpt>
      <trkpt lat="-49.2233095876872539520263671875" lon="-73.0270470678806304931640625">
        <ele>561.20001220703125</ele>
        <time>2023-01-11T17:46:16.000Z</time>
      </trkpt>
      <trkpt lat="-49.22331587411463260650634765625" lon="-73.02700708620250225067138671875">
        <ele>560.5999755859375</ele>
        <time>2023-01-11T17:46:19.000Z</time>
      </trkpt>
      <trkpt lat="-49.22331185080111026763916015625" lon="-73.02692913450300693511962890625">
        <ele>561</ele>
        <time>2023-01-11T17:46:24.000Z</time>
      </trkpt>
      <trkpt lat="-49.223308078944683074951171875" lon="-73.02690264768898487091064453125">
        <ele>561.4000244140625</ele>
        <time>2023-01-11T17:46:26.000Z</time>
      </trkpt>
      <trkpt lat="-49.22332408837974071502685546875" lon="-73.02682469598948955535888671875">
        <ele>560.20001220703125</ele>
        <time>2023-01-11T17:46:31.000Z</time>
      </trkpt>
      <trkpt lat="-49.22332375310361385345458984375" lon="-73.02679963409900665283203125">
        <ele>560.20001220703125</ele>
        <time>2023-01-11T17:46:34.000Z</time>
      </trkpt>
      <trkpt lat="-49.22332392074167728424072265625" lon="-73.02679183892905712127685546875">
        <ele>559.20001220703125</ele>
        <time>2023-01-11T17:46:35.000Z</time>
      </trkpt>
      <trkpt lat="-49.22331587411463260650634765625" lon="-73.02675680257380008697509765625">
        <ele>559.20001220703125</ele>
        <time>2023-01-11T17:46:38.000Z</time>
      </trkpt>
      <trkpt lat="-49.223289974033832550048828125" lon="-73.026713468134403228759765625">
        <ele>559</ele>
        <time>2023-01-11T17:46:41.000Z</time>
      </trkpt>
      <trkpt lat="-49.22327287495136260986328125" lon="-73.02661992609500885009765625">
        <ele>560.20001220703125</ele>
        <time>2023-01-11T17:46:47.000Z</time>
      </trkpt>
      <trkpt lat="-49.22327195294201374053955078125" lon="-73.02660006098449230194091796875">
        <ele>560.20001220703125</ele>
        <time>2023-01-11T17:46:48.000Z</time>
      </trkpt>
      <trkpt lat="-49.22328092157840728759765625" lon="-73.0264340154826641082763671875">
        <ele>560</ele>
        <time>2023-01-11T17:46:58.000Z</time>
      </trkpt>
      <trkpt lat="-49.223261810839176177978515625" lon="-73.02628372795879840850830078125">
        <ele>561.20001220703125</ele>
        <time>2023-01-11T17:47:07.000Z</time>
      </trkpt>
      <trkpt lat="-49.22328586690127849578857421875" lon="-73.0261356197297573089599609375">
        <ele>561</ele>
        <time>2023-01-11T17:47:16.000Z</time>
      </trkpt>
      <trkpt lat="-49.223308749496936798095703125" lon="-73.02607585676014423370361328125">
        <ele>560.5999755859375</ele>
        <time>2023-01-11T17:47:20.000Z</time>
      </trkpt>
      <trkpt lat="-49.2233139462769031524658203125" lon="-73.0260605178773403167724609375">
        <ele>560.20001220703125</ele>
        <time>2023-01-11T17:47:21.000Z</time>
      </trkpt>
      <trkpt lat="-49.2233213223516941070556640625" lon="-73.026031516492366790771484375">
        <ele>560.20001220703125</ele>
        <time>2023-01-11T17:47:23.000Z</time>
      </trkpt>
      <trkpt lat="-49.2233312129974365234375" lon="-73.0259849131107330322265625">
        <ele>559.5999755859375</ele>
        <time>2023-01-11T17:47:26.000Z</time>
      </trkpt>
      <trkpt lat="-49.22334261238574981689453125" lon="-73.02592481486499309539794921875">
        <ele>559.20001220703125</ele>
        <time>2023-01-11T17:47:29.000Z</time>
      </trkpt>
      <trkpt lat="-49.2233763076364994049072265625" lon="-73.0257976613938808441162109375">
        <ele>559.4000244140625</ele>
        <time>2023-01-11T17:47:38.000Z</time>
      </trkpt>
      <trkpt lat="-49.22338695265352725982666015625" lon="-73.0257306061685085296630859375">
        <ele>559.4000244140625</ele>
        <time>2023-01-11T17:47:43.000Z</time>
      </trkpt>
      <trkpt lat="-49.2234061472117900848388671875" lon="-73.02565156482160091400146484375">
        <ele>559.5999755859375</ele>
        <time>2023-01-11T17:47:48.000Z</time>
      </trkpt>
      <trkpt lat="-49.2234242521226406097412109375" lon="-73.02561015821993350982666015625">
        <ele>559.4000244140625</ele>
        <time>2023-01-11T17:47:51.000Z</time>
      </trkpt>
      <trkpt lat="-49.22343112528324127197265625" lon="-73.02545961923897266387939453125">
        <ele>558.79998779296875</ele>
        <time>2023-01-11T17:48:00.000Z</time>
      </trkpt>
      <trkpt lat="-49.22343037091195583343505859375" lon="-73.02541293203830718994140625">
        <ele>558.20001220703125</ele>
        <time>2023-01-11T17:48:03.000Z</time>
      </trkpt>
      <trkpt lat="-49.223425090312957763671875" lon="-73.0253249220550060272216796875">
        <ele>556.79998779296875</ele>
        <time>2023-01-11T17:48:08.000Z</time>
      </trkpt>
      <trkpt lat="-49.22341964207589626312255859375" lon="-73.025300614535808563232421875">
        <ele>556.5999755859375</ele>
        <time>2023-01-11T17:48:10.000Z</time>
      </trkpt>
      <trkpt lat="-49.22341947443783283233642578125" lon="-73.025220148265361785888671875">
        <ele>557.79998779296875</ele>
        <time>2023-01-11T17:48:15.000Z</time>
      </trkpt>
      <trkpt lat="-49.223441518843173980712890625" lon="-73.02516994066536426544189453125">
        <ele>558.20001220703125</ele>
        <time>2023-01-11T17:48:19.000Z</time>
      </trkpt>
      <trkpt lat="-49.2235278524458408355712890625" lon="-73.02505410276353359222412109375">
        <ele>558.20001220703125</ele>
        <time>2023-01-11T17:48:30.000Z</time>
      </trkpt>
      <trkpt lat="-49.22356246970593929290771484375" lon="-73.02501923404633998870849609375">
        <ele>557.4000244140625</ele>
        <time>2023-01-11T17:48:34.000Z</time>
      </trkpt>
      <trkpt lat="-49.2235821671783924102783203125" lon="-73.02500389516353607177734375">
        <ele>558</ele>
        <time>2023-01-11T17:48:36.000Z</time>
      </trkpt>
      <trkpt lat="-49.2235996015369892120361328125" lon="-73.02499006502330303192138671875">
        <ele>559</ele>
        <time>2023-01-11T17:48:38.000Z</time>
      </trkpt>
      <trkpt lat="-49.22362449578940868377685546875" lon="-73.02496307529509067535400390625">
        <ele>559.4000244140625</ele>
        <time>2023-01-11T17:48:41.000Z</time>
      </trkpt>
      <trkpt lat="-49.22370680607855319976806640625" lon="-73.0248763225972652435302734375">
        <ele>558.20001220703125</ele>
        <time>2023-01-11T17:48:50.000Z</time>
      </trkpt>
      <trkpt lat="-49.22371468506753444671630859375" lon="-73.02486752159893512725830078125">
        <ele>558</ele>
        <time>2023-01-11T17:48:51.000Z</time>
      </trkpt>
      <trkpt lat="-49.2237778007984161376953125" lon="-73.0247452296316623687744140625">
        <ele>558</ele>
        <time>2023-01-11T17:49:00.000Z</time>
      </trkpt>
      <trkpt lat="-49.22381157986819744110107421875" lon="-73.0245943553745746612548828125">
        <ele>558</ele>
        <time>2023-01-11T17:49:10.000Z</time>
      </trkpt>
      <trkpt lat="-49.22381660901010036468505859375" lon="-73.02457583136856555938720703125">
        <ele>557.4000244140625</ele>
        <time>2023-01-11T17:49:11.000Z</time>
      </trkpt>
      <trkpt lat="-49.22387427650392055511474609375" lon="-73.02439914084970951080322265625">
        <ele>557.5999755859375</ele>
        <time>2023-01-11T17:49:23.000Z</time>
      </trkpt>
      <trkpt lat="-49.2239333689212799072265625" lon="-73.02433929406106472015380859375">
        <ele>556.79998779296875</ele>
        <time>2023-01-11T17:49:29.000Z</time>
      </trkpt>
      <trkpt lat="-49.22393982298672199249267578125" lon="-73.024322278797626495361328125">
        <ele>555.79998779296875</ele>
        <time>2023-01-11T17:49:30.000Z</time>
      </trkpt>
      <trkpt lat="-49.22396044246852397918701171875" lon="-73.02428497932851314544677734375">
        <ele>555.5999755859375</ele>
        <time>2023-01-11T17:49:32.000Z</time>
      </trkpt>
      <trkpt lat="-49.22402297146618366241455078125" lon="-73.02417316474020481109619140625">
        <ele>554.79998779296875</ele>
        <time>2023-01-11T17:49:40.000Z</time>
      </trkpt>
      <trkpt lat="-49.22403453849256038665771484375" lon="-73.024162352085113525390625">
        <ele>554.20001220703125</ele>
        <time>2023-01-11T17:49:41.000Z</time>
      </trkpt>
      <trkpt lat="-49.22410427592694759368896484375" lon="-73.02407107315957546234130859375">
        <ele>555.5999755859375</ele>
        <time>2023-01-11T17:49:50.000Z</time>
      </trkpt>
      <trkpt lat="-49.224151633679866790771484375" lon="-73.02392967045307159423828125">
        <ele>556.79998779296875</ele>
        <time>2023-01-11T17:50:00.000Z</time>
      </trkpt>
      <trkpt lat="-49.2241559922695159912109375" lon="-73.02391600795090198516845703125">
        <ele>556.79998779296875</ele>
        <time>2023-01-11T17:50:01.000Z</time>
      </trkpt>
      <trkpt lat="-49.22417233698070049285888671875" lon="-73.02387460134923458099365234375">
        <ele>558</ele>
        <time>2023-01-11T17:50:04.000Z</time>
      </trkpt>
      <trkpt lat="-49.22419513575732707977294921875" lon="-73.02383084781467914581298828125">
        <ele>559.5999755859375</ele>
        <time>2023-01-11T17:50:08.000Z</time>
      </trkpt>
      <trkpt lat="-49.22421407885849475860595703125" lon="-73.02380117587745189666748046875">
        <ele>559.5999755859375</ele>
        <time>2023-01-11T17:50:11.000Z</time>
      </trkpt>
      <trkpt lat="-49.2242205329239368438720703125" lon="-73.023790530860424041748046875">
        <ele>559.5999755859375</ele>
        <time>2023-01-11T17:50:12.000Z</time>
      </trkpt>
      <trkpt lat="-49.22422614879906177520751953125" lon="-73.0237776227295398712158203125">
        <ele>559.4000244140625</ele>
        <time>2023-01-11T17:50:13.000Z</time>
      </trkpt>
      <trkpt lat="-49.22423503361642360687255859375" lon="-73.02375809289515018463134765625">
        <ele>558.4000244140625</ele>
        <time>2023-01-11T17:50:15.000Z</time>
      </trkpt>
      <trkpt lat="-49.2242631129920482635498046875" lon="-73.0237068794667720794677734375">
        <ele>558</ele>
        <time>2023-01-11T17:50:19.000Z</time>
      </trkpt>
      <trkpt lat="-49.2242691479623317718505859375" lon="-73.0236904509365558624267578125">
        <ele>558</ele>
        <time>2023-01-11T17:50:20.000Z</time>
      </trkpt>
      <trkpt lat="-49.2242745123803615570068359375" lon="-73.0236782133579254150390625">
        <ele>557.79998779296875</ele>
        <time>2023-01-11T17:50:21.000Z</time>
      </trkpt>
      <trkpt lat="-49.22428096644580364227294921875" lon="-73.02367142401635646820068359375">
        <ele>557.20001220703125</ele>
        <time>2023-01-11T17:50:22.000Z</time>
      </trkpt>
      <trkpt lat="-49.22430007718503475189208984375" lon="-73.023637644946575164794921875">
        <ele>556.4000244140625</ele>
        <time>2023-01-11T17:50:27.000Z</time>
      </trkpt>
      <trkpt lat="-49.2243184335529804229736328125" lon="-73.0235905386507511138916015625">
        <ele>556.20001220703125</ele>
        <time>2023-01-11T17:50:30.000Z</time>
      </trkpt>
      <trkpt lat="-49.2243301682174205780029296875" lon="-73.0235521495342254638671875">
        <ele>555.4000244140625</ele>
        <time>2023-01-11T17:50:34.000Z</time>
      </trkpt>
      <trkpt lat="-49.2243529669940471649169921875" lon="-73.02346120588481426239013671875">
        <ele>555.4000244140625</ele>
        <time>2023-01-11T17:50:41.000Z</time>
      </trkpt>
      <trkpt lat="-49.22435573302209377288818359375" lon="-73.0234530754387378692626953125">
        <ele>555.20001220703125</ele>
        <time>2023-01-11T17:50:45.000Z</time>
      </trkpt>
      <trkpt lat="-49.22435707412660121917724609375" lon="-73.0234497226774692535400390625">
        <ele>555.20001220703125</ele>
        <time>2023-01-11T17:50:46.000Z</time>
      </trkpt>
      <trkpt lat="-49.22436713241040706634521484375" lon="-73.02341963164508342742919921875">
        <ele>554.79998779296875</ele>
        <time>2023-01-11T17:50:54.000Z</time>
      </trkpt>
      <trkpt lat="-49.224364198744297027587890625" lon="-73.0234202183783054351806640625">
        <ele>554.4000244140625</ele>
        <time>2023-01-11T17:51:03.000Z</time>
      </trkpt>
      <trkpt lat="-49.22436109744012355804443359375" lon="-73.023419715464115142822265625">
        <ele>554.4000244140625</ele>
        <time>2023-01-11T17:51:16.000Z</time>
      </trkpt>
      <trkpt lat="-49.22436193563044071197509765625" lon="-73.0234155245125293731689453125">
        <ele>554.5999755859375</ele>
        <time>2023-01-11T17:51:24.000Z</time>
      </trkpt>
      <trkpt lat="-49.2243660427629947662353515625" lon="-73.02341024391353130340576171875">
        <ele>554.4000244140625</ele>
        <time>2023-01-11T17:51:37.000Z</time>
      </trkpt>
      <trkpt lat="-49.22436746768653392791748046875" lon="-73.0234099924564361572265625">
        <ele>554</ele>
        <time>2023-01-11T17:51:42.000Z</time>
      </trkpt>
      <trkpt lat="-49.2243680544197559356689453125" lon="-73.0234098248183727264404296875">
        <ele>554.5999755859375</ele>
        <time>2023-01-11T17:51:45.000Z</time>
      </trkpt>
      <trkpt lat="-49.22436998225748538970947265625" lon="-73.02341024391353130340576171875">
        <ele>554.4000244140625</ele>
        <time>2023-01-11T17:51:55.000Z</time>
      </trkpt>
      <trkpt lat="-49.22437048517167568206787109375" lon="-73.02341225557029247283935546875">
        <ele>554.20001220703125</ele>
        <time>2023-01-11T17:52:00.000Z</time>
      </trkpt>
      <trkpt lat="-49.22437065280973911285400390625" lon="-73.023412339389324188232421875">
        <ele>554.20001220703125</ele>
        <time>2023-01-11T17:52:02.000Z</time>
      </trkpt>
      <trkpt lat="-49.22439563088119029998779296875" lon="-73.02330580540001392364501953125">
        <ele>554.4000244140625</ele>
        <time>2023-01-11T17:52:23.000Z</time>
      </trkpt>
      <trkpt lat="-49.2244039289653301239013671875" lon="-73.02326238714158535003662109375">
        <ele>555.20001220703125</ele>
        <time>2023-01-11T17:52:25.000Z</time>
      </trkpt>
      <trkpt lat="-49.22443770803511142730712890625" lon="-73.023183345794677734375">
        <ele>556</ele>
        <time>2023-01-11T17:52:29.000Z</time>
      </trkpt>
      <trkpt lat="-49.2244465090334415435791015625" lon="-73.02316415123641490936279296875">
        <ele>556.20001220703125</ele>
        <time>2023-01-11T17:52:30.000Z</time>
      </trkpt>
      <trkpt lat="-49.22446737997233867645263671875" lon="-73.02312433719635009765625">
        <ele>556.79998779296875</ele>
        <time>2023-01-11T17:52:34.000Z</time>
      </trkpt>
      <trkpt lat="-49.224467463791370391845703125" lon="-73.02311503328382968902587890625">
        <ele>556.5999755859375</ele>
        <time>2023-01-11T17:52:36.000Z</time>
      </trkpt>
      <trkpt lat="-49.22447157092392444610595703125" lon="-73.0230852775275707244873046875">
        <ele>557.20001220703125</ele>
        <time>2023-01-11T17:52:43.000Z</time>
      </trkpt>
      <trkpt lat="-49.224473498761653900146484375" lon="-73.02308033220469951629638671875">
        <ele>557.20001220703125</ele>
        <time>2023-01-11T17:52:44.000Z</time>
      </trkpt>
      <trkpt lat="-49.2244778573513031005859375" lon="-73.02306599915027618408203125">
        <ele>557.4000244140625</ele>
        <time>2023-01-11T17:52:49.000Z</time>
      </trkpt>
      <trkpt lat="-49.22449956648051738739013671875" lon="-73.0230339802801609039306640625">
        <ele>557.20001220703125</ele>
        <time>2023-01-11T17:52:53.000Z</time>
      </trkpt>
      <trkpt lat="-49.22450761310756206512451171875" lon="-73.02301260642707347869873046875">
        <ele>555.20001220703125</ele>
        <time>2023-01-11T17:52:55.000Z</time>
      </trkpt>
      <trkpt lat="-49.2245289869606494903564453125" lon="-73.02294261753559112548828125">
        <ele>553.5999755859375</ele>
        <time>2023-01-11T17:53:00.000Z</time>
      </trkpt>
      <trkpt lat="-49.2245583236217498779296875" lon="-73.02291369996964931488037109375">
        <ele>552.20001220703125</ele>
        <time>2023-01-11T17:53:03.000Z</time>
      </trkpt>
      <trkpt lat="-49.22458757646381855010986328125" lon="-73.022861480712890625">
        <ele>551.5999755859375</ele>
        <time>2023-01-11T17:53:08.000Z</time>
      </trkpt>
      <trkpt lat="-49.22460182569921016693115234375" lon="-73.0228314734995365142822265625">
        <ele>551.20001220703125</ele>
        <time>2023-01-11T17:53:10.000Z</time>
      </trkpt>
      <trkpt lat="-49.22463384456932544708251953125" lon="-73.0227603949606418609619140625">
        <ele>550.20001220703125</ele>
        <time>2023-01-11T17:53:16.000Z</time>
      </trkpt>
      <trkpt lat="-49.2246557213366031646728515625" lon="-73.02271806634962558746337890625">
        <ele>550.79998779296875</ele>
        <time>2023-01-11T17:53:19.000Z</time>
      </trkpt>
      <trkpt lat="-49.22471213154494762420654296875" lon="-73.0225716345012187957763671875">
        <ele>551.20001220703125</ele>
        <time>2023-01-11T17:53:30.000Z</time>
      </trkpt>
      <trkpt lat="-49.22471716068685054779052734375" lon="-73.02255931310355663299560546875">
        <ele>551.20001220703125</ele>
        <time>2023-01-11T17:53:31.000Z</time>
      </trkpt>
      <trkpt lat="-49.224728979170322418212890625" lon="-73.02253869362175464630126953125">
        <ele>551.5999755859375</ele>
        <time>2023-01-11T17:53:33.000Z</time>
      </trkpt>
      <trkpt lat="-49.22476409934461116790771484375" lon="-73.02246795035898685455322265625">
        <ele>552.4000244140625</ele>
        <time>2023-01-11T17:53:39.000Z</time>
      </trkpt>
      <trkpt lat="-49.22477231360971927642822265625" lon="-73.02241732366383075714111328125">
        <ele>551.5999755859375</ele>
        <time>2023-01-11T17:53:42.000Z</time>
      </trkpt>
      <trkpt lat="-49.22479511238634586334228515625" lon="-73.0222578160464763641357421875">
        <ele>550.5999755859375</ele>
        <time>2023-01-11T17:53:52.000Z</time>
      </trkpt>
      <trkpt lat="-49.224796704947948455810546875" lon="-73.0222433991730213165283203125">
        <ele>550.4000244140625</ele>
        <time>2023-01-11T17:53:53.000Z</time>
      </trkpt>
      <trkpt lat="-49.22481221146881580352783203125" lon="-73.022196292877197265625">
        <ele>552.20001220703125</ele>
        <time>2023-01-11T17:53:56.000Z</time>
      </trkpt>
      <trkpt lat="-49.22483869828283786773681640625" lon="-73.0221278965473175048828125">
        <ele>552.5999755859375</ele>
        <time>2023-01-11T17:54:01.000Z</time>
      </trkpt>
      <trkpt lat="-49.224867112934589385986328125" lon="-73.02199956960976123809814453125">
        <ele>552</ele>
        <time>2023-01-11T17:54:09.000Z</time>
      </trkpt>
      <trkpt lat="-49.22487155534327030181884765625" lon="-73.02198632620275020599365234375">
        <ele>550.5999755859375</ele>
        <time>2023-01-11T17:54:11.000Z</time>
      </trkpt>
      <trkpt lat="-49.22487390227615833282470703125" lon="-73.02198599092662334442138671875">
        <ele>550.5999755859375</ele>
        <time>2023-01-11T17:54:12.000Z</time>
      </trkpt>
      <trkpt lat="-49.2248753271996974945068359375" lon="-73.02198532037436962127685546875">
        <ele>550.5999755859375</ele>
        <time>2023-01-11T17:54:13.000Z</time>
      </trkpt>
      <trkpt lat="-49.2248880676925182342529296875" lon="-73.0219768546521663665771484375">
        <ele>546.4000244140625</ele>
        <time>2023-01-11T17:54:19.000Z</time>
      </trkpt>
      <trkpt lat="-49.22488756477832794189453125" lon="-73.02197610028088092803955078125">
        <ele>546.4000244140625</ele>
        <time>2023-01-11T17:54:20.000Z</time>
      </trkpt>
      <trkpt lat="-49.22488479875028133392333984375" lon="-73.021976016461849212646484375">
        <ele>547.79998779296875</ele>
        <time>2023-01-11T17:54:30.000Z</time>
      </trkpt>
      <trkpt lat="-49.22488479875028133392333984375" lon="-73.021976016461849212646484375">
        <ele>546.20001220703125</ele>
        <time>2023-01-11T17:54:35.000Z</time>
      </trkpt>
      <trkpt lat="-49.22488479875028133392333984375" lon="-73.021976016461849212646484375">
        <ele>547.79998779296875</ele>
        <time>2023-01-11T17:54:36.000Z</time>
      </trkpt>
      <trkpt lat="-49.224884212017059326171875" lon="-73.02197559736669063568115234375">
        <ele>548.20001220703125</ele>
        <time>2023-01-11T17:54:39.000Z</time>
      </trkpt>
      <trkpt lat="-49.2248833738267421722412109375" lon="-73.021971993148326873779296875">
        <ele>548.20001220703125</ele>
        <time>2023-01-11T17:54:45.000Z</time>
      </trkpt>
      <trkpt lat="-49.22488379292190074920654296875" lon="-73.02197190932929515838623046875">
        <ele>548.20001220703125</ele>
        <time>2023-01-11T17:54:49.000Z</time>
      </trkpt>
      <trkpt lat="-49.22488379292190074920654296875" lon="-73.02197190932929515838623046875">
        <ele>546.79998779296875</ele>
        <time>2023-01-11T17:54:52.000Z</time>
      </trkpt>
      <trkpt lat="-49.22488379292190074920654296875" lon="-73.0219768546521663665771484375">
        <ele>549</ele>
        <time>2023-01-11T17:55:06.000Z</time>
      </trkpt>
      <trkpt lat="-49.22488379292190074920654296875" lon="-73.021978028118610382080078125">
        <ele>547.20001220703125</ele>
        <time>2023-01-11T17:55:07.000Z</time>
      </trkpt>
      <trkpt lat="-49.22488379292190074920654296875" lon="-73.02197844721376895904541015625">
        <ele>545.4000244140625</ele>
        <time>2023-01-11T17:55:08.000Z</time>
      </trkpt>
      <trkpt lat="-49.22488379292190074920654296875" lon="-73.021978698670864105224609375">
        <ele>546.5999755859375</ele>
        <time>2023-01-11T17:55:09.000Z</time>
      </trkpt>
      <trkpt lat="-49.22487474046647548675537109375" lon="-73.0219802074134349822998046875">
        <ele>548</ele>
        <time>2023-01-11T17:55:19.000Z</time>
      </trkpt>
      <trkpt lat="-49.22487390227615833282470703125" lon="-73.02198096178472042083740234375">
        <ele>549</ele>
        <time>2023-01-11T17:55:26.000Z</time>
      </trkpt>
      <trkpt lat="-49.22487390227615833282470703125" lon="-73.02198096178472042083740234375">
        <ele>550.79998779296875</ele>
        <time>2023-01-11T17:55:27.000Z</time>
      </trkpt>
      <trkpt lat="-49.22487557865679264068603515625" lon="-73.0219741724431514739990234375">
        <ele>552</ele>
        <time>2023-01-11T17:55:30.000Z</time>
      </trkpt>
      <trkpt lat="-49.22490357421338558197021484375" lon="-73.02188909612596035003662109375">
        <ele>551.79998779296875</ele>
        <time>2023-01-11T17:55:34.000Z</time>
      </trkpt>
      <trkpt lat="-49.22493676654994487762451171875" lon="-73.02176780998706817626953125">
        <ele>550.79998779296875</ele>
        <time>2023-01-11T17:55:39.000Z</time>
      </trkpt>
      <trkpt lat="-49.22497482039034366607666015625" lon="-73.021623976528644561767578125">
        <ele>550.79998779296875</ele>
        <time>2023-01-11T17:55:46.000Z</time>
      </trkpt>
      <trkpt lat="-49.2250144667923450469970703125" lon="-73.02146413363516330718994140625">
        <ele>550.79998779296875</ele>
        <time>2023-01-11T17:55:55.000Z</time>
      </trkpt>
      <trkpt lat="-49.22505243681371212005615234375" lon="-73.02128526382148265838623046875">
        <ele>550.20001220703125</ele>
        <time>2023-01-11T17:56:05.000Z</time>
      </trkpt>
      <trkpt lat="-49.22510624863207340240478515625" lon="-73.0210776440799236297607421875">
        <ele>550.20001220703125</ele>
        <time>2023-01-11T17:56:17.000Z</time>
      </trkpt>
      <trkpt lat="-49.225127957761287689208984375" lon="-73.02100715227425098419189453125">
        <ele>551.4000244140625</ele>
        <time>2023-01-11T17:56:21.000Z</time>
      </trkpt>
      <trkpt lat="-49.225152768194675445556640625" lon="-73.0209019593894481658935546875">
        <ele>550.5999755859375</ele>
        <time>2023-01-11T17:56:26.000Z</time>
      </trkpt>
      <trkpt lat="-49.22515846788883209228515625" lon="-73.02086113952100276947021484375">
        <ele>551</ele>
        <time>2023-01-11T17:56:28.000Z</time>
      </trkpt>
      <trkpt lat="-49.225205741822719573974609375" lon="-73.020667098462581634521484375">
        <ele>549.4000244140625</ele>
        <time>2023-01-11T17:56:39.000Z</time>
      </trkpt>
      <trkpt lat="-49.2252194881439208984375" lon="-73.02062795497477054595947265625">
        <ele>549.20001220703125</ele>
        <time>2023-01-11T17:56:41.000Z</time>
      </trkpt>
      <trkpt lat="-49.22528855502605438232421875" lon="-73.02044673822820186614990234375">
        <ele>549</ele>
        <time>2023-01-11T17:56:52.000Z</time>
      </trkpt>
      <trkpt lat="-49.2253172211349010467529296875" lon="-73.020362667739391326904296875">
        <ele>550.79998779296875</ele>
        <time>2023-01-11T17:56:58.000Z</time>
      </trkpt>
      <trkpt lat="-49.22533557750284671783447265625" lon="-73.0202863924205303192138671875">
        <ele>549.5999755859375</ele>
        <time>2023-01-11T17:57:02.000Z</time>
      </trkpt>
      <trkpt lat="-49.22534295357763767242431640625" lon="-73.0202649347484111785888671875">
        <ele>549.5999755859375</ele>
        <time>2023-01-11T17:57:03.000Z</time>
      </trkpt>
      <trkpt lat="-49.22538033686578273773193359375" lon="-73.02009838633239269256591796875">
        <ele>549.4000244140625</ele>
        <time>2023-01-11T17:57:12.000Z</time>
      </trkpt>
      <trkpt lat="-49.22541872598230838775634765625" lon="-73.020026050508022308349609375">
        <ele>548.4000244140625</ele>
        <time>2023-01-11T17:57:17.000Z</time>
      </trkpt>
      <trkpt lat="-49.22544839791953563690185546875" lon="-73.0199821293354034423828125">
        <ele>548.20001220703125</ele>
        <time>2023-01-11T17:57:20.000Z</time>
      </trkpt>
      <trkpt lat="-49.2254600487649440765380859375" lon="-73.0199499428272247314453125">
        <ele>549.4000244140625</ele>
        <time>2023-01-11T17:57:22.000Z</time>
      </trkpt>
      <trkpt lat="-49.22548569738864898681640625" lon="-73.0198330990970134735107421875">
        <ele>549.20001220703125</ele>
        <time>2023-01-11T17:57:29.000Z</time>
      </trkpt>
      <trkpt lat="-49.22549885697662830352783203125" lon="-73.0197908543050289154052734375">
        <ele>548</ele>
        <time>2023-01-11T17:57:31.000Z</time>
      </trkpt>
      <trkpt lat="-49.225526936352252960205078125" lon="-73.01966051571071147918701171875">
        <ele>549.20001220703125</ele>
        <time>2023-01-11T17:57:38.000Z</time>
      </trkpt>
      <trkpt lat="-49.22553255222737789154052734375" lon="-73.01963067613542079925537109375">
        <ele>550.4000244140625</ele>
        <time>2023-01-11T17:57:40.000Z</time>
      </trkpt>
      <trkpt lat="-49.2255364917218685150146484375" lon="-73.01961642690002918243408203125">
        <ele>549.79998779296875</ele>
        <time>2023-01-11T17:57:41.000Z</time>
      </trkpt>
      <trkpt lat="-49.22554395161569118499755859375" lon="-73.0195792950689792633056640625">
        <ele>549.79998779296875</ele>
        <time>2023-01-11T17:57:43.000Z</time>
      </trkpt>
      <trkpt lat="-49.225547723472118377685546875" lon="-73.0195583403110504150390625">
        <ele>549.4000244140625</ele>
        <time>2023-01-11T17:57:44.000Z</time>
      </trkpt>
      <trkpt lat="-49.225551746785640716552734375" lon="-73.0195363797247409820556640625">
        <ele>548.79998779296875</ele>
        <time>2023-01-11T17:57:45.000Z</time>
      </trkpt>
      <trkpt lat="-49.22558762133121490478515625" lon="-73.01939564757049083709716796875">
        <ele>548.20001220703125</ele>
        <time>2023-01-11T17:57:53.000Z</time>
      </trkpt>
      <trkpt lat="-49.22561368905007839202880859375" lon="-73.01931132562458515167236328125">
        <ele>547.5999755859375</ele>
        <time>2023-01-11T17:57:58.000Z</time>
      </trkpt>
      <trkpt lat="-49.22562676481902599334716796875" lon="-73.01922616548836231231689453125">
        <ele>547.79998779296875</ele>
        <time>2023-01-11T17:58:03.000Z</time>
      </trkpt>
      <trkpt lat="-49.22563590109348297119140625" lon="-73.01917486824095249176025390625">
        <ele>549</ele>
        <time>2023-01-11T17:58:06.000Z</time>
      </trkpt>
      <trkpt lat="-49.22566263936460018157958984375" lon="-73.01901443861424922943115234375">
        <ele>547.5999755859375</ele>
        <time>2023-01-11T17:58:14.000Z</time>
      </trkpt>
      <trkpt lat="-49.22566414810717105865478515625" lon="-73.01900102756917476654052734375">
        <ele>548.4000244140625</ele>
        <time>2023-01-11T17:58:15.000Z</time>
      </trkpt>
      <trkpt lat="-49.225667417049407958984375" lon="-73.01896565593779087066650390625">
        <ele>548.4000244140625</ele>
        <time>2023-01-11T17:58:17.000Z</time>
      </trkpt>
      <trkpt lat="-49.2256741225719451904296875" lon="-73.01887412555515766143798828125">
        <ele>549</ele>
        <time>2023-01-11T17:58:22.000Z</time>
      </trkpt>
      <trkpt lat="-49.2256722785532474517822265625" lon="-73.018853925168514251708984375">
        <ele>548</ele>
        <time>2023-01-11T17:58:23.000Z</time>
      </trkpt>
      <trkpt lat="-49.2256732843816280364990234375" lon="-73.018834479153156280517578125">
        <ele>548</ele>
        <time>2023-01-11T17:58:24.000Z</time>
      </trkpt>
      <trkpt lat="-49.22572039067745208740234375" lon="-73.01864647306501865386962890625">
        <ele>547</ele>
        <time>2023-01-11T17:58:34.000Z</time>
      </trkpt>
      <trkpt lat="-49.22573371790349483489990234375" lon="-73.01863339729607105255126953125">
        <ele>546.5999755859375</ele>
        <time>2023-01-11T17:58:35.000Z</time>
      </trkpt>
      <trkpt lat="-49.22578275203704833984375" lon="-73.01857589744031429290771484375">
        <ele>546.5999755859375</ele>
        <time>2023-01-11T17:58:39.000Z</time>
      </trkpt>
      <trkpt lat="-49.225801192224025726318359375" lon="-73.01853616721928119659423828125">
        <ele>546.5999755859375</ele>
        <time>2023-01-11T17:58:41.000Z</time>
      </trkpt>
      <trkpt lat="-49.225864224135875701904296875" lon="-73.0183236859738826751708984375">
        <ele>547.5999755859375</ele>
        <time>2023-01-11T17:58:53.000Z</time>
      </trkpt>
      <trkpt lat="-49.22586925327777862548828125" lon="-73.01830767653882503509521484375">
        <ele>548</ele>
        <time>2023-01-11T17:58:54.000Z</time>
      </trkpt>
      <trkpt lat="-49.22591376118361949920654296875" lon="-73.01814305596053600311279296875">
        <ele>546.5999755859375</ele>
        <time>2023-01-11T17:59:02.000Z</time>
      </trkpt>
      <trkpt lat="-49.22593002207577228546142578125" lon="-73.01808320917189121246337890625">
        <ele>546.5999755859375</ele>
        <time>2023-01-11T17:59:05.000Z</time>
      </trkpt>
      <trkpt lat="-49.22593655996024608612060546875" lon="-73.0180160701274871826171875">
        <ele>546.79998779296875</ele>
        <time>2023-01-11T17:59:09.000Z</time>
      </trkpt>
      <trkpt lat="-49.22593723051249980926513671875" lon="-73.0180018208920955657958984375">
        <ele>547</ele>
        <time>2023-01-11T17:59:10.000Z</time>
      </trkpt>
      <trkpt lat="-49.22595064155757427215576171875" lon="-73.0179287306964397430419921875">
        <ele>547.20001220703125</ele>
        <time>2023-01-11T17:59:14.000Z</time>
      </trkpt>
      <trkpt lat="-49.22598752193152904510498046875" lon="-73.017777688801288604736328125">
        <ele>548.20001220703125</ele>
        <time>2023-01-11T17:59:22.000Z</time>
      </trkpt>
      <trkpt lat="-49.2259974963963031768798828125" lon="-73.017746172845363616943359375">
        <ele>548.4000244140625</ele>
        <time>2023-01-11T17:59:24.000Z</time>
      </trkpt>
      <trkpt lat="-49.2260384000837802886962890625" lon="-73.0176702328026294708251953125">
        <ele>546.20001220703125</ele>
        <time>2023-01-11T17:59:29.000Z</time>
      </trkpt>
      <trkpt lat="-49.2260729335248470306396484375" lon="-73.01762505434453487396240234375">
        <ele>546.79998779296875</ele>
        <time>2023-01-11T17:59:33.000Z</time>
      </trkpt>
      <trkpt lat="-49.22612749971449375152587890625" lon="-73.01755883730947971343994140625">
        <ele>546.20001220703125</ele>
        <time>2023-01-11T17:59:40.000Z</time>
      </trkpt>
      <trkpt lat="-49.22614376060664653778076171875" lon="-73.01752866245806217193603515625">
        <ele>546</ele>
        <time>2023-01-11T17:59:43.000Z</time>
      </trkpt>
      <trkpt lat="-49.22614912502467632293701171875" lon="-73.017522878944873809814453125">
        <ele>546</ele>
        <time>2023-01-11T17:59:44.000Z</time>
      </trkpt>
      <trkpt lat="-49.22617712058126926422119140625" lon="-73.01752078346908092498779296875">
        <ele>546.4000244140625</ele>
        <time>2023-01-11T17:59:49.000Z</time>
      </trkpt>
      <trkpt lat="-49.22622506506741046905517578125" lon="-73.01746814511716365814208984375">
        <ele>545.4000244140625</ele>
        <time>2023-01-11T17:59:56.000Z</time>
      </trkpt>
      <trkpt lat="-49.22625012695789337158203125" lon="-73.0174606852233409881591796875">
        <ele>545.79998779296875</ele>
        <time>2023-01-11T18:00:03.000Z</time>
      </trkpt>
      <trkpt lat="-49.22627753578126430511474609375" lon="-73.0174227990210056304931640625">
        <ele>545.79998779296875</ele>
        <time>2023-01-11T18:00:09.000Z</time>
      </trkpt>
      <trkpt lat="-49.22628725878894329071044921875" lon="-73.0174060352146625518798828125">
        <ele>545.79998779296875</ele>
        <time>2023-01-11T18:00:10.000Z</time>
      </trkpt>
      <trkpt lat="-49.22632279805839061737060546875" lon="-73.017346858978271484375">
        <ele>545.4000244140625</ele>
        <time>2023-01-11T18:00:14.000Z</time>
      </trkpt>
      <trkpt lat="-49.2263441719114780426025390625" lon="-73.01729598082602024078369140625">
        <ele>545.5999755859375</ele>
        <time>2023-01-11T18:00:18.000Z</time>
      </trkpt>
      <trkpt lat="-49.22636470757424831390380859375" lon="-73.01718793809413909912109375">
        <ele>547.4000244140625</ele>
        <time>2023-01-11T18:00:25.000Z</time>
      </trkpt>
      <trkpt lat="-49.226370491087436676025390625" lon="-73.01715868525207042694091796875">
        <ele>547.5999755859375</ele>
        <time>2023-01-11T18:00:27.000Z</time>
      </trkpt>
      <trkpt lat="-49.22638180665671825408935546875" lon="-73.0171183682978153228759765625">
        <ele>548.79998779296875</ele>
        <time>2023-01-11T18:00:30.000Z</time>
      </trkpt>
      <trkpt lat="-49.22638867981731891632080078125" lon="-73.01707268692553043365478515625">
        <ele>550</ele>
        <time>2023-01-11T18:00:33.000Z</time>
      </trkpt>
      <trkpt lat="-49.2264028452336788177490234375" lon="-73.01702474243938922882080078125">
        <ele>549.5999755859375</ele>
        <time>2023-01-11T18:00:37.000Z</time>
      </trkpt>
      <trkpt lat="-49.2264159210026264190673828125" lon="-73.01698836497962474822998046875">
        <ele>548.79998779296875</ele>
        <time>2023-01-11T18:00:39.000Z</time>
      </trkpt>
      <trkpt lat="-49.226423799991607666015625" lon="-73.01697210408747196197509765625">
        <ele>547.79998779296875</ele>
        <time>2023-01-11T18:00:40.000Z</time>
      </trkpt>
      <trkpt lat="-49.22644458711147308349609375" lon="-73.0169115029275417327880859375">
        <ele>546.79998779296875</ele>
        <time>2023-01-11T18:00:44.000Z</time>
      </trkpt>
      <trkpt lat="-49.22645791433751583099365234375" lon="-73.01684327423572540283203125">
        <ele>547</ele>
        <time>2023-01-11T18:00:49.000Z</time>
      </trkpt>
      <trkpt lat="-49.22645992599427700042724609375" lon="-73.01682961173355579376220703125">
        <ele>548</ele>
        <time>2023-01-11T18:00:50.000Z</time>
      </trkpt>
      <trkpt lat="-49.22647945582866668701171875" lon="-73.016751073300838470458984375">
        <ele>549</ele>
        <time>2023-01-11T18:00:55.000Z</time>
      </trkpt>
      <trkpt lat="-49.22648540697991847991943359375" lon="-73.016679324209690093994140625">
        <ele>549</ele>
        <time>2023-01-11T18:01:00.000Z</time>
      </trkpt>
      <trkpt lat="-49.22648624517023563385009765625" lon="-73.0166084133088588714599609375">
        <ele>548.20001220703125</ele>
        <time>2023-01-11T18:01:05.000Z</time>
      </trkpt>
      <trkpt lat="-49.22648758627474308013916015625" lon="-73.0165970139205455780029296875">
        <ele>548.20001220703125</ele>
        <time>2023-01-11T18:01:06.000Z</time>
      </trkpt>
      <trkpt lat="-49.2264895141124725341796875" lon="-73.01656977273523807525634765625">
        <ele>548</ele>
        <time>2023-01-11T18:01:08.000Z</time>
      </trkpt>
      <trkpt lat="-49.2264883406460285186767578125" lon="-73.0165359936654567718505859375">
        <ele>548</ele>
        <time>2023-01-11T18:01:10.000Z</time>
      </trkpt>
      <trkpt lat="-49.2264895141124725341796875" lon="-73.01652048714458942413330078125">
        <ele>547</ele>
        <time>2023-01-11T18:01:11.000Z</time>
      </trkpt>
      <trkpt lat="-49.2265010811388492584228515625" lon="-73.01638738252222537994384765625">
        <ele>545.79998779296875</ele>
        <time>2023-01-11T18:01:20.000Z</time>
      </trkpt>
      <trkpt lat="-49.22649982385337352752685546875" lon="-73.016370199620723724365234375">
        <ele>545.79998779296875</ele>
        <time>2023-01-11T18:01:21.000Z</time>
      </trkpt>
      <trkpt lat="-49.22650082968175411224365234375" lon="-73.01631529815495014190673828125">
        <ele>544.5999755859375</ele>
        <time>2023-01-11T18:01:24.000Z</time>
      </trkpt>
      <trkpt lat="-49.22650133259594440460205078125" lon="-73.0162590555846691131591796875">
        <ele>544.20001220703125</ele>
        <time>2023-01-11T18:01:32.000Z</time>
      </trkpt>
      <trkpt lat="-49.22649848274886608123779296875" lon="-73.01626165397465229034423828125">
        <ele>543.5999755859375</ele>
        <time>2023-01-11T18:01:48.000Z</time>
      </trkpt>
      <trkpt lat="-49.22649848274886608123779296875" lon="-73.01626165397465229034423828125">
        <ele>543.79998779296875</ele>
        <time>2023-01-11T18:01:53.000Z</time>
      </trkpt>
      <trkpt lat="-49.226498566567897796630859375" lon="-73.01626165397465229034423828125">
        <ele>544</ele>
        <time>2023-01-11T18:01:55.000Z</time>
      </trkpt>
      <trkpt lat="-49.226498901844024658203125" lon="-73.01626165397465229034423828125">
        <ele>544.5999755859375</ele>
        <time>2023-01-11T18:01:56.000Z</time>
      </trkpt>
      <trkpt lat="-49.2265082895755767822265625" lon="-73.0161787569522857666015625">
        <ele>545.4000244140625</ele>
        <time>2023-01-11T18:02:00.000Z</time>
      </trkpt>
      <trkpt lat="-49.22651340253651142120361328125" lon="-73.01615721546113491058349609375">
        <ele>545.5999755859375</ele>
        <time>2023-01-11T18:02:01.000Z</time>
      </trkpt>
      <trkpt lat="-49.2265312559902667999267578125" lon="-73.0160553753376007080078125">
        <ele>545.79998779296875</ele>
        <time>2023-01-11T18:02:06.000Z</time>
      </trkpt>
      <trkpt lat="-49.22653955407440662384033203125" lon="-73.01603584550321102142333984375">
        <ele>545.20001220703125</ele>
        <time>2023-01-11T18:02:08.000Z</time>
      </trkpt>
      <trkpt lat="-49.226555563509464263916015625" lon="-73.01597164012491703033447265625">
        <ele>544.5999755859375</ele>
        <time>2023-01-11T18:02:13.000Z</time>
      </trkpt>
      <trkpt lat="-49.22655916772782802581787109375" lon="-73.01595487631857395172119140625">
        <ele>544.4000244140625</ele>
        <time>2023-01-11T18:02:14.000Z</time>
      </trkpt>
      <trkpt lat="-49.22657157294452190399169921875" lon="-73.01589083857834339141845703125">
        <ele>544.20001220703125</ele>
        <time>2023-01-11T18:02:18.000Z</time>
      </trkpt>
      <trkpt lat="-49.2265869118273258209228515625" lon="-73.0157112143933773040771484375">
        <ele>543.5999755859375</ele>
        <time>2023-01-11T18:02:28.000Z</time>
      </trkpt>
      <trkpt lat="-49.2265859059989452362060546875" lon="-73.0156605876982212066650390625">
        <ele>543.5999755859375</ele>
        <time>2023-01-11T18:02:31.000Z</time>
      </trkpt>
      <trkpt lat="-49.22659520991146564483642578125" lon="-73.015615157783031463623046875">
        <ele>543.79998779296875</ele>
        <time>2023-01-11T18:02:35.000Z</time>
      </trkpt>
      <trkpt lat="-49.22661867924034595489501953125" lon="-73.0155496113002300262451171875">
        <ele>544.4000244140625</ele>
        <time>2023-01-11T18:02:41.000Z</time>
      </trkpt>
      <trkpt lat="-49.22661197371780872344970703125" lon="-73.0155093781650066375732421875">
        <ele>544.79998779296875</ele>
        <time>2023-01-11T18:02:44.000Z</time>
      </trkpt>
      <trkpt lat="-49.22660660929977893829345703125" lon="-73.01541726104915142059326171875">
        <ele>545</ele>
        <time>2023-01-11T18:02:50.000Z</time>
      </trkpt>
      <trkpt lat="-49.226592443883419036865234375" lon="-73.01538289524614810943603515625">
        <ele>546.4000244140625</ele>
        <time>2023-01-11T18:02:53.000Z</time>
      </trkpt>
      <trkpt lat="-49.2265999875962734222412109375" lon="-73.015277199447154998779296875">
        <ele>546</ele>
        <time>2023-01-11T18:03:00.000Z</time>
      </trkpt>
      <trkpt lat="-49.22663502395153045654296875" lon="-73.01514904014766216278076171875">
        <ele>545.4000244140625</ele>
        <time>2023-01-11T18:03:08.000Z</time>
      </trkpt>
      <trkpt lat="-49.226639382541179656982421875" lon="-73.0151362158358097076416015625">
        <ele>545.20001220703125</ele>
        <time>2023-01-11T18:03:09.000Z</time>
      </trkpt>
      <trkpt lat="-49.226639382541179656982421875" lon="-73.0150242336094379425048828125">
        <ele>545</ele>
        <time>2023-01-11T18:03:16.000Z</time>
      </trkpt>
      <trkpt lat="-49.2266482673585414886474609375" lon="-73.0148985050618648529052734375">
        <ele>545.4000244140625</ele>
        <time>2023-01-11T18:03:25.000Z</time>
      </trkpt>
      <trkpt lat="-49.2266610078513622283935546875" lon="-73.01483572460711002349853515625">
        <ele>544.79998779296875</ele>
        <time>2023-01-11T18:03:29.000Z</time>
      </trkpt>
      <trkpt lat="-49.2266646958887577056884765625" lon="-73.014809824526309967041015625">
        <ele>544.79998779296875</ele>
        <time>2023-01-11T18:03:31.000Z</time>
      </trkpt>
      <trkpt lat="-49.2266824655234813690185546875" lon="-73.0147255025804042816162109375">
        <ele>546.20001220703125</ele>
        <time>2023-01-11T18:03:38.000Z</time>
      </trkpt>
      <trkpt lat="-49.2266734130680561065673828125" lon="-73.0147020332515239715576171875">
        <ele>546.4000244140625</ele>
        <time>2023-01-11T18:03:40.000Z</time>
      </trkpt>
      <trkpt lat="-49.22667064704000949859619140625" lon="-73.01465601660311222076416015625">
        <ele>547.79998779296875</ele>
        <time>2023-01-11T18:03:43.000Z</time>
      </trkpt>
      <trkpt lat="-49.2266744188964366912841796875" lon="-73.01464059390127658843994140625">
        <ele>548</ele>
        <time>2023-01-11T18:03:44.000Z</time>
      </trkpt>
      <trkpt lat="-49.2266968823969364166259765625" lon="-73.01458979956805706024169921875">
        <ele>548.79998779296875</ele>
        <time>2023-01-11T18:03:48.000Z</time>
      </trkpt>
      <trkpt lat="-49.2267354391515254974365234375" lon="-73.01449122838675975799560546875">
        <ele>548.20001220703125</ele>
        <time>2023-01-11T18:03:54.000Z</time>
      </trkpt>
      <trkpt lat="-49.22674231231212615966796875" lon="-73.0144767276942729949951171875">
        <ele>548</ele>
        <time>2023-01-11T18:03:55.000Z</time>
      </trkpt>
      <trkpt lat="-49.22675999812781810760498046875" lon="-73.01444529555737972259521484375">
        <ele>546.79998779296875</ele>
        <time>2023-01-11T18:03:59.000Z</time>
      </trkpt>
      <trkpt lat="-49.2267662845551967620849609375" lon="-73.0144160427153110504150390625">
        <ele>546.4000244140625</ele>
        <time>2023-01-11T18:04:01.000Z</time>
      </trkpt>
      <trkpt lat="-49.2267733253538608551025390625" lon="-73.01439969800412654876708984375">
        <ele>546.20001220703125</ele>
        <time>2023-01-11T18:04:02.000Z</time>
      </trkpt>
      <trkpt lat="-49.2267818748950958251953125" lon="-73.014387376606464385986328125">
        <ele>545.79998779296875</ele>
        <time>2023-01-11T18:04:03.000Z</time>
      </trkpt>
      <trkpt lat="-49.2267914302647113800048828125" lon="-73.01438276655972003936767578125">
        <ele>545.79998779296875</ele>
        <time>2023-01-11T18:04:04.000Z</time>
      </trkpt>
      <trkpt lat="-49.2268071882426738739013671875" lon="-73.01437187008559703826904296875">
        <ele>545.5999755859375</ele>
        <time>2023-01-11T18:04:06.000Z</time>
      </trkpt>
      <trkpt lat="-49.22684331424534320831298828125" lon="-73.01434320397675037384033203125">
        <ele>545.4000244140625</ele>
        <time>2023-01-11T18:04:12.000Z</time>
      </trkpt>
      <trkpt lat="-49.226882793009281158447265625" lon="-73.0142722092568874359130859375">
        <ele>545.5999755859375</ele>
        <time>2023-01-11T18:04:20.000Z</time>
      </trkpt>
      <trkpt lat="-49.22689519822597503662109375" lon="-73.0142467282712459564208984375">
        <ele>545.5999755859375</ele>
        <time>2023-01-11T18:04:22.000Z</time>
      </trkpt>
      <trkpt lat="-49.226906597614288330078125" lon="-73.01419995725154876708984375">
        <ele>545.79998779296875</ele>
        <time>2023-01-11T18:04:26.000Z</time>
      </trkpt>
      <trkpt lat="-49.22692210413515567779541015625" lon="-73.01417648792266845703125">
        <ele>545.20001220703125</ele>
        <time>2023-01-11T18:04:32.000Z</time>
      </trkpt>
      <trkpt lat="-49.2269355989992618560791015625" lon="-73.01408973522484302520751953125">
        <ele>545.4000244140625</ele>
        <time>2023-01-11T18:04:40.000Z</time>
      </trkpt>
      <trkpt lat="-49.22695931978523731231689453125" lon="-73.0140009708702564239501953125">
        <ele>544.79998779296875</ele>
        <time>2023-01-11T18:04:47.000Z</time>
      </trkpt>
      <trkpt lat="-49.22698077745735645294189453125" lon="-73.0139483325183391571044921875">
        <ele>543.79998779296875</ele>
        <time>2023-01-11T18:04:52.000Z</time>
      </trkpt>
      <trkpt lat="-49.22698748297989368438720703125" lon="-73.01393869332969188690185546875">
        <ele>543.5999755859375</ele>
        <time>2023-01-11T18:04:53.000Z</time>
      </trkpt>
      <trkpt lat="-49.22704028896987438201904296875" lon="-73.01389016211032867431640625">
        <ele>542.79998779296875</ele>
        <time>2023-01-11T18:05:00.000Z</time>
      </trkpt>
      <trkpt lat="-49.22708102501928806304931640625" lon="-73.01386325620114803314208984375">
        <ele>543.79998779296875</ele>
        <time>2023-01-11T18:05:05.000Z</time>
      </trkpt>
      <trkpt lat="-49.227102063596248626708984375" lon="-73.013861663639545440673828125">
        <ele>543.79998779296875</ele>
        <time>2023-01-11T18:05:08.000Z</time>
      </trkpt>
      <trkpt lat="-49.22717339359223842620849609375" lon="-73.0138236097991466522216796875">
        <ele>544</ele>
        <time>2023-01-11T18:05:17.000Z</time>
      </trkpt>
      <trkpt lat="-49.2272313125431537628173828125" lon="-73.01379955373704433441162109375">
        <ele>543.20001220703125</ele>
        <time>2023-01-11T18:05:25.000Z</time>
      </trkpt>
      <trkpt lat="-49.2272450588643550872802734375" lon="-73.013749010860919952392578125">
        <ele>543.79998779296875</ele>
        <time>2023-01-11T18:05:35.000Z</time>
      </trkpt>
      <trkpt lat="-49.227227456867694854736328125" lon="-73.0137387849390506744384765625">
        <ele>544.20001220703125</ele>
        <time>2023-01-11T18:05:38.000Z</time>
      </trkpt>
      <trkpt lat="-49.22721329145133495330810546875" lon="-73.0137347616255283355712890625">
        <ele>544.20001220703125</ele>
        <time>2023-01-11T18:05:43.000Z</time>
      </trkpt>
      <trkpt lat="-49.2272175662219524383544921875" lon="-73.013736270368099212646484375">
        <ele>544</ele>
        <time>2023-01-11T18:05:49.000Z</time>
      </trkpt>
      <trkpt lat="-49.2272175662219524383544921875" lon="-73.013736270368099212646484375">
        <ele>544</ele>
        <time>2023-01-11T18:05:56.000Z</time>
      </trkpt>
      <trkpt lat="-49.22720356844365596771240234375" lon="-73.0137501843273639678955078125">
        <ele>543.5999755859375</ele>
        <time>2023-01-11T18:06:25.000Z</time>
      </trkpt>
      <trkpt lat="-49.2272051610052585601806640625" lon="-73.0137501843273639678955078125">
        <ele>543.5999755859375</ele>
        <time>2023-01-11T18:06:32.000Z</time>
      </trkpt>
      <trkpt lat="-49.227250926196575164794921875" lon="-73.01370064727962017059326171875">
        <ele>543.5999755859375</ele>
        <time>2023-01-11T18:06:43.000Z</time>
      </trkpt>
      <trkpt lat="-49.22729484736919403076171875" lon="-73.0136586539447307586669921875">
        <ele>543.20001220703125</ele>
        <time>2023-01-11T18:06:50.000Z</time>
      </trkpt>
      <trkpt lat="-49.2273057438433170318603515625" lon="-73.013657815754413604736328125">
        <ele>543.20001220703125</ele>
        <time>2023-01-11T18:06:51.000Z</time>
      </trkpt>
      <trkpt lat="-49.22732979990541934967041015625" lon="-73.013663180172443389892578125">
        <ele>543.20001220703125</ele>
        <time>2023-01-11T18:06:53.000Z</time>
      </trkpt>
      <trkpt lat="-49.2273949272930622100830078125" lon="-73.01370433531701564788818359375">
        <ele>543</ele>
        <time>2023-01-11T18:07:02.000Z</time>
      </trkpt>
      <trkpt lat="-49.227401129901409149169921875" lon="-73.01371305249631404876708984375">
        <ele>542.79998779296875</ele>
        <time>2023-01-11T18:07:09.000Z</time>
      </trkpt>
      <trkpt lat="-49.22740775160491466522216796875" lon="-73.013704754412174224853515625">
        <ele>543.79998779296875</ele>
        <time>2023-01-11T18:07:12.000Z</time>
      </trkpt>
      <trkpt lat="-49.22740775160491466522216796875" lon="-73.013704754412174224853515625">
        <ele>544</ele>
        <time>2023-01-11T18:07:17.000Z</time>
      </trkpt>
      <trkpt lat="-49.22740775160491466522216796875" lon="-73.01370467059314250946044921875">
        <ele>544.20001220703125</ele>
        <time>2023-01-11T18:07:23.000Z</time>
      </trkpt>
      <trkpt lat="-49.2274081707000732421875" lon="-73.01369913853704929351806640625">
        <ele>544.20001220703125</ele>
        <time>2023-01-11T18:07:28.000Z</time>
      </trkpt>
      <trkpt lat="-49.22741579823195934295654296875" lon="-73.01369226537644863128662109375">
        <ele>544.20001220703125</ele>
        <time>2023-01-11T18:07:33.000Z</time>
      </trkpt>
      <trkpt lat="-49.22744848765432834625244140625" lon="-73.01364733837544918060302734375">
        <ele>544.4000244140625</ele>
        <time>2023-01-11T18:07:36.000Z</time>
      </trkpt>
      <trkpt lat="-49.22748587094247341156005859375" lon="-73.01360777579247951507568359375">
        <ele>544</ele>
        <time>2023-01-11T18:07:39.000Z</time>
      </trkpt>
      <trkpt lat="-49.22751319594681262969970703125" lon="-73.01357726566493511199951171875">
        <ele>543.79998779296875</ele>
        <time>2023-01-11T18:07:41.000Z</time>
      </trkpt>
      <trkpt lat="-49.227529205381870269775390625" lon="-73.01354415714740753173828125">
        <ele>544</ele>
        <time>2023-01-11T18:37:38.000Z</time>
      </trkpt>
      <trkpt lat="-49.2275377549231052398681640625" lon="-73.01351138390600681304931640625">
        <ele>544</ele>
        <time>2023-01-11T18:37:40.000Z</time>
      </trkpt>
      <trkpt lat="-49.2275370843708515167236328125" lon="-73.0134772695600986480712890625">
        <ele>544</ele>
        <time>2023-01-11T18:37:41.000Z</time>
      </trkpt>
      <trkpt lat="-49.227540604770183563232421875" lon="-73.01341583020985126495361328125">
        <ele>543.79998779296875</ele>
        <time>2023-01-11T18:37:43.000Z</time>
      </trkpt>
      <trkpt lat="-49.227547980844974517822265625" lon="-73.01339135505259037017822265625">
        <ele>543.79998779296875</ele>
        <time>2023-01-11T18:37:44.000Z</time>
      </trkpt>
      <trkpt lat="-49.2276098392903804779052734375" lon="-73.0132767744362354278564453125">
        <ele>543.79998779296875</ele>
        <time>2023-01-11T18:37:52.000Z</time>
      </trkpt>
      <trkpt lat="-49.22764814458787441253662109375" lon="-73.01316185854375362396240234375">
        <ele>543.20001220703125</ele>
        <time>2023-01-11T18:38:00.000Z</time>
      </trkpt>
      <trkpt lat="-49.227655269205570220947265625" lon="-73.0130759440362453460693359375">
        <ele>542.5999755859375</ele>
        <time>2023-01-11T18:38:05.000Z</time>
      </trkpt>
      <trkpt lat="-49.2276696860790252685546875" lon="-73.0129995010793209075927734375">
        <ele>542.5999755859375</ele>
        <time>2023-01-11T18:38:10.000Z</time>
      </trkpt>
      <trkpt lat="-49.22771687619388103485107421875" lon="-73.01290017552673816680908203125">
        <ele>541.79998779296875</ele>
        <time>2023-01-11T18:38:17.000Z</time>
      </trkpt>
      <trkpt lat="-49.227738082408905029296875" lon="-73.01284502260386943817138671875">
        <ele>541.79998779296875</ele>
        <time>2023-01-11T18:38:21.000Z</time>
      </trkpt>
      <trkpt lat="-49.2277474701404571533203125" lon="-73.01283278502523899078369140625">
        <ele>541.79998779296875</ele>
        <time>2023-01-11T18:38:22.000Z</time>
      </trkpt>
      <trkpt lat="-49.22778191976249217987060546875" lon="-73.0127748660743236541748046875">
        <ele>543.5999755859375</ele>
        <time>2023-01-11T18:38:27.000Z</time>
      </trkpt>
      <trkpt lat="-49.2277855239808559417724609375" lon="-73.01277377642691135406494140625">
        <ele>543.5999755859375</ele>
        <time>2023-01-11T18:38:29.000Z</time>
      </trkpt>
      <trkpt lat="-49.2277912236750125885009765625" lon="-73.012756593525409698486328125">
        <ele>543</ele>
        <time>2023-01-11T18:38:44.000Z</time>
      </trkpt>
      <trkpt lat="-49.2277949117124080657958984375" lon="-73.01275349222123622894287109375">
        <ele>543</ele>
        <time>2023-01-11T18:38:47.000Z</time>
      </trkpt>
      <trkpt lat="-49.2278599552810192108154296875" lon="-73.01270194351673126220703125">
        <ele>543</ele>
        <time>2023-01-11T18:38:51.000Z</time>
      </trkpt>
      <trkpt lat="-49.227897338569164276123046875" lon="-73.01266439259052276611328125">
        <ele>543.20001220703125</ele>
        <time>2023-01-11T18:38:54.000Z</time>
      </trkpt>
      <trkpt lat="-49.2279486358165740966796875" lon="-73.012596666812896728515625">
        <ele>542.5999755859375</ele>
        <time>2023-01-11T18:38:59.000Z</time>
      </trkpt>
      <trkpt lat="-49.22798174433410167694091796875" lon="-73.01252164877951145172119140625">
        <ele>542</ele>
        <time>2023-01-11T18:39:04.000Z</time>
      </trkpt>
      <trkpt lat="-49.22803203575313091278076171875" lon="-73.012407906353473663330078125">
        <ele>542</ele>
        <time>2023-01-11T18:39:12.000Z</time>
      </trkpt>
      <trkpt lat="-49.228075034916400909423828125" lon="-73.01233389414846897125244140625">
        <ele>541.5999755859375</ele>
        <time>2023-01-11T18:39:18.000Z</time>
      </trkpt>
      <trkpt lat="-49.228114597499370574951171875" lon="-73.0122930742800235748291015625">
        <ele>541.20001220703125</ele>
        <time>2023-01-11T18:39:22.000Z</time>
      </trkpt>
      <trkpt lat="-49.228207133710384368896484375" lon="-73.0121958442032337188720703125">
        <ele>541.5999755859375</ele>
        <time>2023-01-11T18:39:31.000Z</time>
      </trkpt>
      <trkpt lat="-49.22822833992540836334228515625" lon="-73.01214328967034816741943359375">
        <ele>541.4000244140625</ele>
        <time>2023-01-11T18:39:36.000Z</time>
      </trkpt>
      <trkpt lat="-49.22823496162891387939453125" lon="-73.012137003242969512939453125">
        <ele>541.4000244140625</ele>
        <time>2023-01-11T18:39:37.000Z</time>
      </trkpt>
      <trkpt lat="-49.2283045314252376556396484375" lon="-73.01208646036684513092041015625">
        <ele>541.79998779296875</ele>
        <time>2023-01-11T18:39:44.000Z</time>
      </trkpt>
      <trkpt lat="-49.22830847091972827911376953125" lon="-73.01207388751208782196044921875">
        <ele>542</ele>
        <time>2023-01-11T18:39:46.000Z</time>
      </trkpt>
      <trkpt lat="-49.22838692553341388702392578125" lon="-73.0119608156383037567138671875">
        <ele>541.5999755859375</ele>
        <time>2023-01-11T18:39:57.000Z</time>
      </trkpt>
      <trkpt lat="-49.22844409011304378509521484375" lon="-73.0118756555020809173583984375">
        <ele>541.79998779296875</ele>
        <time>2023-01-11T18:40:05.000Z</time>
      </trkpt>
      <trkpt lat="-49.22850075177848339080810546875" lon="-73.0117894895374774932861328125">
        <ele>541.79998779296875</ele>
        <time>2023-01-11T18:40:13.000Z</time>
      </trkpt>
      <trkpt lat="-49.22857115976512432098388671875" lon="-73.0116902478039264678955078125">
        <ele>541.79998779296875</ele>
        <time>2023-01-11T18:40:22.000Z</time>
      </trkpt>
      <trkpt lat="-49.2286411486566066741943359375" lon="-73.01165848039090633392333984375">
        <ele>541.4000244140625</ele>
        <time>2023-01-11T18:40:29.000Z</time>
      </trkpt>
      <trkpt lat="-49.2286773584783077239990234375" lon="-73.011604584753513336181640625">
        <ele>541.4000244140625</ele>
        <time>2023-01-11T18:40:35.000Z</time>
      </trkpt>
      <trkpt lat="-49.22871365211904048919677734375" lon="-73.0115853063762187957763671875">
        <ele>541.4000244140625</ele>
        <time>2023-01-11T18:40:39.000Z</time>
      </trkpt>
      <trkpt lat="-49.22871507704257965087890625" lon="-73.01156736910343170166015625">
        <ele>541.4000244140625</ele>
        <time>2023-01-11T18:40:40.000Z</time>
      </trkpt>
      <trkpt lat="-49.22871482558548450469970703125" lon="-73.011556304991245269775390625">
        <ele>541.5999755859375</ele>
        <time>2023-01-11T18:40:41.000Z</time>
      </trkpt>
      <trkpt lat="-49.22870510257780551910400390625" lon="-73.011541552841663360595703125">
        <ele>541.4000244140625</ele>
        <time>2023-01-11T18:40:42.000Z</time>
      </trkpt>
      <trkpt lat="-49.22870568931102752685546875" lon="-73.01152302883565425872802734375">
        <ele>541.4000244140625</ele>
        <time>2023-01-11T18:40:44.000Z</time>
      </trkpt>
      <trkpt lat="-49.22871935181319713592529296875" lon="-73.011493273079395294189453125">
        <ele>541.4000244140625</ele>
        <time>2023-01-11T18:40:46.000Z</time>
      </trkpt>
      <trkpt lat="-49.228736199438571929931640625" lon="-73.0114713124930858612060546875">
        <ele>541.20001220703125</ele>
        <time>2023-01-11T18:40:48.000Z</time>
      </trkpt>
      <trkpt lat="-49.22876830212771892547607421875" lon="-73.01144122146070003509521484375">
        <ele>541.20001220703125</ele>
        <time>2023-01-11T18:40:52.000Z</time>
      </trkpt>
      <trkpt lat="-49.2287863232195377349853515625" lon="-73.01140249706804752349853515625">
        <ele>541</ele>
        <time>2023-01-11T18:40:57.000Z</time>
      </trkpt>
      <trkpt lat="-49.22883284278213977813720703125" lon="-73.01140685565769672393798828125">
        <ele>541</ele>
        <time>2023-01-11T18:41:02.000Z</time>
      </trkpt>
      <trkpt lat="-49.2288527078926563262939453125" lon="-73.01142244599759578704833984375">
        <ele>541</ele>
        <time>2023-01-11T18:41:05.000Z</time>
      </trkpt>
      <trkpt lat="-49.2288460023701190948486328125" lon="-73.0113770999014377593994140625">
        <ele>540.79998779296875</ele>
        <time>2023-01-11T18:41:09.000Z</time>
      </trkpt>
      <trkpt lat="-49.2288632690906524658203125" lon="-73.011357486248016357421875">
        <ele>540.79998779296875</ele>
        <time>2023-01-11T18:41:10.000Z</time>
      </trkpt>
      <trkpt lat="-49.22890827991068363189697265625" lon="-73.0112798698246479034423828125">
        <ele>541.4000244140625</ele>
        <time>2023-01-11T18:41:15.000Z</time>
      </trkpt>
      <trkpt lat="-49.2289221100509166717529296875" lon="-73.01125531084835529327392578125">
        <ele>541.4000244140625</ele>
        <time>2023-01-11T18:41:17.000Z</time>
      </trkpt>
      <trkpt lat="-49.22893233597278594970703125" lon="-73.011252544820308685302734375">
        <ele>541.4000244140625</ele>
        <time>2023-01-11T18:41:18.000Z</time>
      </trkpt>
      <trkpt lat="-49.22893057577311992645263671875" lon="-73.01126587204635143280029296875">
        <ele>541.20001220703125</ele>
        <time>2023-01-11T18:41:22.000Z</time>
      </trkpt>
      <trkpt lat="-49.228956811130046844482421875" lon="-73.0112453363835811614990234375">
        <ele>541.4000244140625</ele>
        <time>2023-01-11T18:41:26.000Z</time>
      </trkpt>
      <trkpt lat="-49.22898623161017894744873046875" lon="-73.01123033277690410614013671875">
        <ele>541.5999755859375</ele>
        <time>2023-01-11T18:41:28.000Z</time>
      </trkpt>
      <trkpt lat="-49.22902562655508518218994140625" lon="-73.01121206022799015045166015625">
        <ele>541.79998779296875</ele>
        <time>2023-01-11T18:41:33.000Z</time>
      </trkpt>
      <trkpt lat="-49.229034595191478729248046875" lon="-73.01119722425937652587890625">
        <ele>541.79998779296875</ele>
        <time>2023-01-11T18:41:34.000Z</time>
      </trkpt>
      <trkpt lat="-49.22904641367495059967041015625" lon="-73.01117484457790851593017578125">
        <ele>541.79998779296875</ele>
        <time>2023-01-11T18:41:36.000Z</time>
      </trkpt>
      <trkpt lat="-49.22908849082887172698974609375" lon="-73.01110334694385528564453125">
        <ele>541.20001220703125</ele>
        <time>2023-01-11T18:41:42.000Z</time>
      </trkpt>
      <trkpt lat="-49.2291480861604213714599609375" lon="-73.0110039375722408294677734375">
        <ele>541.4000244140625</ele>
        <time>2023-01-11T18:41:50.000Z</time>
      </trkpt>
      <trkpt lat="-49.22919259406626224517822265625" lon="-73.0108778737485408782958984375">
        <ele>541.20001220703125</ele>
        <time>2023-01-11T18:41:58.000Z</time>
      </trkpt>
      <trkpt lat="-49.22919879667460918426513671875" lon="-73.0108688212931156158447265625">
        <ele>541.20001220703125</ele>
        <time>2023-01-11T18:41:59.000Z</time>
      </trkpt>
      <trkpt lat="-49.22925260849297046661376953125" lon="-73.0108124949038028717041015625">
        <ele>541.20001220703125</ele>
        <time>2023-01-11T18:42:06.000Z</time>
      </trkpt>
      <trkpt lat="-49.2292697913944721221923828125" lon="-73.01077737472951412200927734375">
        <ele>540</ele>
        <time>2023-01-11T18:42:10.000Z</time>
      </trkpt>
      <trkpt lat="-49.22928479500114917755126953125" lon="-73.01074116490781307220458984375">
        <ele>539.79998779296875</ele>
        <time>2023-01-11T18:42:13.000Z</time>
      </trkpt>
      <trkpt lat="-49.2292731441557407379150390625" lon="-73.01065784879028797149658203125">
        <ele>541</ele>
        <time>2023-01-11T18:42:20.000Z</time>
      </trkpt>
      <trkpt lat="-49.2292734794318675994873046875" lon="-73.0106455273926258087158203125">
        <ele>541</ele>
        <time>2023-01-11T18:42:21.000Z</time>
      </trkpt>
      <trkpt lat="-49.2292754910886287689208984375" lon="-73.01055089570581912994384765625">
        <ele>541</ele>
        <time>2023-01-11T18:42:27.000Z</time>
      </trkpt>
      <trkpt lat="-49.22927976585924625396728515625" lon="-73.01053681410849094390869140625">
        <ele>541</ele>
        <time>2023-01-11T18:42:28.000Z</time>
      </trkpt>
      <trkpt lat="-49.2292962782084941864013671875" lon="-73.01048853434622287750244140625">
        <ele>541.4000244140625</ele>
        <time>2023-01-11T18:42:32.000Z</time>
      </trkpt>
      <trkpt lat="-49.2292825318872928619384765625" lon="-73.0103555135428905487060546875">
        <ele>541.4000244140625</ele>
        <time>2023-01-11T18:42:40.000Z</time>
      </trkpt>
      <trkpt lat="-49.229277670383453369140625" lon="-73.01029759459197521209716796875">
        <ele>541</ele>
        <time>2023-01-11T18:42:43.000Z</time>
      </trkpt>
      <trkpt lat="-49.22927222214639186859130859375" lon="-73.01015384495258331298828125">
        <ele>540.20001220703125</ele>
        <time>2023-01-11T18:42:52.000Z</time>
      </trkpt>
      <trkpt lat="-49.22926962375640869140625" lon="-73.01002451218664646148681640625">
        <ele>541.4000244140625</ele>
        <time>2023-01-11T18:43:01.000Z</time>
      </trkpt>
      <trkpt lat="-49.22926970757544040679931640625" lon="-73.00999735482037067413330078125">
        <ele>541.4000244140625</ele>
        <time>2023-01-11T18:43:03.000Z</time>
      </trkpt>
      <trkpt lat="-49.22926819883286952972412109375" lon="-73.009961731731891632080078125">
        <ele>541.5999755859375</ele>
        <time>2023-01-11T18:43:05.000Z</time>
      </trkpt>
      <trkpt lat="-49.22926853410899639129638671875" lon="-73.00991822965443134307861328125">
        <ele>541.79998779296875</ele>
        <time>2023-01-11T18:43:08.000Z</time>
      </trkpt>
      <trkpt lat="-49.22926635481417179107666015625" lon="-73.0099050700664520263671875">
        <ele>542.20001220703125</ele>
        <time>2023-01-11T18:43:11.000Z</time>
      </trkpt>
      <trkpt lat="-49.22926316969096660614013671875" lon="-73.00988252274692058563232421875">
        <ele>542.4000244140625</ele>
        <time>2023-01-11T18:43:14.000Z</time>
      </trkpt>
      <trkpt lat="-49.2292516864836215972900390625" lon="-73.009860813617706298828125">
        <ele>542.4000244140625</ele>
        <time>2023-01-11T18:43:16.000Z</time>
      </trkpt>
      <trkpt lat="-49.2292500101029872894287109375" lon="-73.0098220892250537872314453125">
        <ele>542.4000244140625</ele>
        <time>2023-01-11T18:43:19.000Z</time>
      </trkpt>
      <trkpt lat="-49.22923617996275424957275390625" lon="-73.009698875248432159423828125">
        <ele>542.4000244140625</ele>
        <time>2023-01-11T18:43:28.000Z</time>
      </trkpt>
      <trkpt lat="-49.22919846139848232269287109375" lon="-73.00963173620402812957763671875">
        <ele>542.5999755859375</ele>
        <time>2023-01-11T18:43:35.000Z</time>
      </trkpt>
      <trkpt lat="-49.22917700372636318206787109375" lon="-73.00954909063875675201416015625">
        <ele>542.20001220703125</ele>
        <time>2023-01-11T18:43:42.000Z</time>
      </trkpt>
      <trkpt lat="-49.2291628383100032806396484375" lon="-73.0094812810420989990234375">
        <ele>541.4000244140625</ele>
        <time>2023-01-11T18:43:46.000Z</time>
      </trkpt>
      <trkpt lat="-49.2291403748095035552978515625" lon="-73.009427972137928009033203125">
        <ele>541.20001220703125</ele>
        <time>2023-01-11T18:43:49.000Z</time>
      </trkpt>
      <trkpt lat="-49.2291373573243618011474609375" lon="-73.0094169080257415771484375">
        <ele>541</ele>
        <time>2023-01-11T18:43:50.000Z</time>
      </trkpt>
      <trkpt lat="-49.22909989021718502044677734375" lon="-73.00933820195496082305908203125">
        <ele>540.79998779296875</ele>
        <time>2023-01-11T18:43:56.000Z</time>
      </trkpt>
      <trkpt lat="-49.22905513085424900054931640625" lon="-73.0092846415936946868896484375">
        <ele>540.79998779296875</ele>
        <time>2023-01-11T18:44:01.000Z</time>
      </trkpt>
      <trkpt lat="-49.22903903760015964508056640625" lon="-73.00926326774060726165771484375">
        <ele>540.79998779296875</ele>
        <time>2023-01-11T18:44:04.000Z</time>
      </trkpt>
      <trkpt lat="-49.22903199680149555206298828125" lon="-73.00924046896398067474365234375">
        <ele>541.5999755859375</ele>
        <time>2023-01-11T18:44:11.000Z</time>
      </trkpt>
      <trkpt lat="-49.22899813391268253326416015625" lon="-73.0091978050768375396728515625">
        <ele>542</ele>
        <time>2023-01-11T18:44:18.000Z</time>
      </trkpt>
      <trkpt lat="-49.22897391021251678466796875" lon="-73.00917810760438442230224609375">
        <ele>542.20001220703125</ele>
        <time>2023-01-11T18:44:20.000Z</time>
      </trkpt>
      <trkpt lat="-49.2289284802973270416259765625" lon="-73.00910778343677520751953125">
        <ele>542.79998779296875</ele>
        <time>2023-01-11T18:44:26.000Z</time>
      </trkpt>
      <trkpt lat="-49.2288847267627716064453125" lon="-73.0090167559683322906494140625">
        <ele>542</ele>
        <time>2023-01-11T18:44:34.000Z</time>
      </trkpt>
      <trkpt lat="-49.22883971594274044036865234375" lon="-73.00894710235297679901123046875">
        <ele>542.4000244140625</ele>
        <time>2023-01-11T18:44:40.000Z</time>
      </trkpt>
      <trkpt lat="-49.2288339324295520782470703125" lon="-73.00891910679638385772705078125">
        <ele>542.4000244140625</ele>
        <time>2023-01-11T18:44:42.000Z</time>
      </trkpt>
      <trkpt lat="-49.22878959216177463531494140625" lon="-73.00883176736533641815185546875">
        <ele>541.5999755859375</ele>
        <time>2023-01-11T18:44:50.000Z</time>
      </trkpt>
      <trkpt lat="-49.22878221608698368072509765625" lon="-73.0088214576244354248046875">
        <ele>541.5999755859375</ele>
        <time>2023-01-11T18:44:51.000Z</time>
      </trkpt>
      <trkpt lat="-49.22875463962554931640625" lon="-73.0087606050074100494384765625">
        <ele>541.5999755859375</ele>
        <time>2023-01-11T18:44:56.000Z</time>
      </trkpt>
      <trkpt lat="-49.228748939931392669677734375" lon="-73.00873554311692714691162109375">
        <ele>541.5999755859375</ele>
        <time>2023-01-11T18:44:58.000Z</time>
      </trkpt>
      <trkpt lat="-49.2287031747400760650634765625" lon="-73.0086258240044116973876953125">
        <ele>541.5999755859375</ele>
        <time>2023-01-11T18:45:05.000Z</time>
      </trkpt>
      <trkpt lat="-49.228665791451930999755859375" lon="-73.00847654230892658233642578125">
        <ele>541.5999755859375</ele>
        <time>2023-01-11T18:45:15.000Z</time>
      </trkpt>
      <trkpt lat="-49.22864173538982868194580078125" lon="-73.0083002708852291107177734375">
        <ele>541.5999755859375</ele>
        <time>2023-01-11T18:45:26.000Z</time>
      </trkpt>
      <trkpt lat="-49.22867752611637115478515625" lon="-73.008211590349674224853515625">
        <ele>541.5999755859375</ele>
        <time>2023-01-11T18:45:33.000Z</time>
      </trkpt>
      <trkpt lat="-49.228697977960109710693359375" lon="-73.008182086050510406494140625">
        <ele>541.5999755859375</ele>
        <time>2023-01-11T18:45:36.000Z</time>
      </trkpt>
      <trkpt lat="-49.22870744951069355010986328125" lon="-73.00812751986086368560791015625">
        <ele>541.5999755859375</ele>
        <time>2023-01-11T18:45:41.000Z</time>
      </trkpt>
      <trkpt lat="-49.2287048511207103729248046875" lon="-73.008044622838497161865234375">
        <ele>541.5999755859375</ele>
        <time>2023-01-11T18:45:49.000Z</time>
      </trkpt>
      <trkpt lat="-49.22871080227196216583251953125" lon="-73.0079666711390018463134765625">
        <ele>541.5999755859375</ele>
        <time>2023-01-11T18:45:56.000Z</time>
      </trkpt>
      <trkpt lat="-49.2287135683000087738037109375" lon="-73.00794512964785099029541015625">
        <ele>541.5999755859375</ele>
        <time>2023-01-11T18:45:58.000Z</time>
      </trkpt>
      <trkpt lat="-49.228733517229557037353515625" lon="-73.007918894290924072265625">
        <ele>541.5999755859375</ele>
        <time>2023-01-11T18:46:04.000Z</time>
      </trkpt>
      <trkpt lat="-49.2287578247487545013427734375" lon="-73.0078841932117938995361328125">
        <ele>541.5999755859375</ele>
        <time>2023-01-11T18:46:13.000Z</time>
      </trkpt>
      <trkpt lat="-49.22880987636744976043701171875" lon="-73.00784572027623653411865234375">
        <ele>541.5999755859375</ele>
        <time>2023-01-11T18:46:20.000Z</time>
      </trkpt>
      <trkpt lat="-49.2288922704756259918212890625" lon="-73.0078218318521976470947265625">
        <ele>541.5999755859375</ele>
        <time>2023-01-11T18:46:29.000Z</time>
      </trkpt>
      <trkpt lat="-49.22893158160150051116943359375" lon="-73.00769166089594364166259765625">
        <ele>541.5999755859375</ele>
        <time>2023-01-11T18:46:39.000Z</time>
      </trkpt>
      <trkpt lat="-49.22894448973238468170166015625" lon="-73.00765536725521087646484375">
        <ele>541.5999755859375</ele>
        <time>2023-01-11T18:46:44.000Z</time>
      </trkpt>
      <trkpt lat="-49.22894214279949665069580078125" lon="-73.0076374299824237823486328125">
        <ele>541.5999755859375</ele>
        <time>2023-01-11T18:46:45.000Z</time>
      </trkpt>
      <trkpt lat="-49.22894398681819438934326171875" lon="-73.00762854516506195068359375">
        <ele>541.5999755859375</ele>
        <time>2023-01-11T18:46:46.000Z</time>
      </trkpt>
      <trkpt lat="-49.2289425618946552276611328125" lon="-73.00752486102283000946044921875">
        <ele>541.5999755859375</ele>
        <time>2023-01-11T18:46:53.000Z</time>
      </trkpt>
      <trkpt lat="-49.22895404510200023651123046875" lon="-73.00748261623084545135498046875">
        <ele>541.5999755859375</ele>
        <time>2023-01-11T18:46:59.000Z</time>
      </trkpt>
      <trkpt lat="-49.228950776159763336181640625" lon="-73.00745688378810882568359375">
        <ele>541.5999755859375</ele>
        <time>2023-01-11T18:47:01.000Z</time>
      </trkpt>
      <trkpt lat="-49.228945076465606689453125" lon="-73.00735319964587688446044921875">
        <ele>541.5999755859375</ele>
        <time>2023-01-11T18:47:09.000Z</time>
      </trkpt>
      <trkpt lat="-49.2289556376636028289794921875" lon="-73.007284887135028839111328125">
        <ele>541.5999755859375</ele>
        <time>2023-01-11T18:47:14.000Z</time>
      </trkpt>
      <trkpt lat="-49.22898807562887668609619140625" lon="-73.0071901716291904449462890625">
        <ele>541.5999755859375</ele>
        <time>2023-01-11T18:47:21.000Z</time>
      </trkpt>
      <trkpt lat="-49.2289965413510799407958984375" lon="-73.00717432983219623565673828125">
        <ele>541.5999755859375</ele>
        <time>2023-01-11T18:47:22.000Z</time>
      </trkpt>
      <trkpt lat="-49.2290143109858036041259765625" lon="-73.00705396570265293121337890625">
        <ele>541.5999755859375</ele>
        <time>2023-01-11T18:47:29.000Z</time>
      </trkpt>
      <trkpt lat="-49.22900743782520294189453125" lon="-73.0069921910762786865234375">
        <ele>541.5999755859375</ele>
        <time>2023-01-11T18:47:32.000Z</time>
      </trkpt>
      <trkpt lat="-49.228993356227874755859375" lon="-73.006937205791473388671875">
        <ele>541.5999755859375</ele>
        <time>2023-01-11T18:47:35.000Z</time>
      </trkpt>
      <trkpt lat="-49.22901087440550327301025390625" lon="-73.0068419873714447021484375">
        <ele>541.5999755859375</ele>
        <time>2023-01-11T18:47:42.000Z</time>
      </trkpt>
      <trkpt lat="-49.22902428545057773590087890625" lon="-73.006834276020526885986328125">
        <ele>541.5999755859375</ele>
        <time>2023-01-11T18:47:43.000Z</time>
      </trkpt>
      <trkpt lat="-49.2290324158966541290283203125" lon="-73.006718270480632781982421875">
        <ele>544.79998779296875</ele>
        <time>2023-01-11T18:47:47.000Z</time>
      </trkpt>
      <trkpt lat="-49.2290364392101764678955078125" lon="-73.0066500417888164520263671875">
        <ele>545</ele>
        <time>2023-01-11T18:47:51.000Z</time>
      </trkpt>
      <trkpt lat="-49.22903669066727161407470703125" lon="-73.00663654692471027374267578125">
        <ele>545.4000244140625</ele>
        <time>2023-01-11T18:47:52.000Z</time>
      </trkpt>
      <trkpt lat="-49.22902797348797321319580078125" lon="-73.00655842758715152740478515625">
        <ele>546</ele>
        <time>2023-01-11T18:47:58.000Z</time>
      </trkpt>
      <trkpt lat="-49.22902478836476802825927734375" lon="-73.006529845297336578369140625">
        <ele>546</ele>
        <time>2023-01-11T18:48:00.000Z</time>
      </trkpt>
      <trkpt lat="-49.22900685109198093414306640625" lon="-73.00646941177546977996826171875">
        <ele>545.79998779296875</ele>
        <time>2023-01-11T18:48:06.000Z</time>
      </trkpt>
      <trkpt lat="-49.228996373713016510009765625" lon="-73.0063288472592830657958984375">
        <ele>545.5999755859375</ele>
        <time>2023-01-11T18:48:13.000Z</time>
      </trkpt>
      <trkpt lat="-49.2290156520903110504150390625" lon="-73.00625617615878582000732421875">
        <ele>545.5999755859375</ele>
        <time>2023-01-11T18:48:18.000Z</time>
      </trkpt>
      <trkpt lat="-49.22901489771902561187744140625" lon="-73.00621694885194301605224609375">
        <ele>545.5999755859375</ele>
        <time>2023-01-11T18:48:20.000Z</time>
      </trkpt>
      <trkpt lat="-49.22900785692036151885986328125" lon="-73.00617872737348079681396484375">
        <ele>545.4000244140625</ele>
        <time>2023-01-11T18:48:22.000Z</time>
      </trkpt>
      <trkpt lat="-49.22897365875542163848876953125" lon="-73.006073534488677978515625">
        <ele>545.4000244140625</ele>
        <time>2023-01-11T18:48:27.000Z</time>
      </trkpt>
      <trkpt lat="-49.22889017499983310699462890625" lon="-73.00600086338818073272705078125">
        <ele>545.4000244140625</ele>
        <time>2023-01-11T18:48:34.000Z</time>
      </trkpt>
      <trkpt lat="-49.22884893603622913360595703125" lon="-73.00590388476848602294921875">
        <ele>545.4000244140625</ele>
        <time>2023-01-11T18:48:41.000Z</time>
      </trkpt>
      <trkpt lat="-49.2288305796682834625244140625" lon="-73.00586993806064128875732421875">
        <ele>545</ele>
        <time>2023-01-11T18:48:43.000Z</time>
      </trkpt>
      <trkpt lat="-49.22880828380584716796875" lon="-73.00573431886732578277587890625">
        <ele>545</ele>
        <time>2023-01-11T18:48:49.000Z</time>
      </trkpt>
      <trkpt lat="-49.22876201570034027099609375" lon="-73.00557774491608142852783203125">
        <ele>545</ele>
        <time>2023-01-11T18:48:59.000Z</time>
      </trkpt>
      <trkpt lat="-49.22870560549199581146240234375" lon="-73.0054122023284435272216796875">
        <ele>545</ele>
        <time>2023-01-11T18:49:10.000Z</time>
      </trkpt>
      <trkpt lat="-49.2286884225904941558837890625" lon="-73.00537641160190105438232421875">
        <ele>545</ele>
        <time>2023-01-11T18:49:12.000Z</time>
      </trkpt>
      <trkpt lat="-49.22866621054708957672119140625" lon="-73.0053029023110866546630859375">
        <ele>545</ele>
        <time>2023-01-11T18:49:16.000Z</time>
      </trkpt>
      <trkpt lat="-49.22866889275610446929931640625" lon="-73.00518010742962360382080078125">
        <ele>545</ele>
        <time>2023-01-11T18:49:24.000Z</time>
      </trkpt>
      <trkpt lat="-49.22865849919617176055908203125" lon="-73.005068711936473846435546875">
        <ele>545</ele>
        <time>2023-01-11T18:49:31.000Z</time>
      </trkpt>
      <trkpt lat="-49.2286277376115322113037109375" lon="-73.005015067756175994873046875">
        <ele>545</ele>
        <time>2023-01-11T18:49:37.000Z</time>
      </trkpt>
      <trkpt lat="-49.22862228937447071075439453125" lon="-73.00500039942562580108642578125">
        <ele>545</ele>
        <time>2023-01-11T18:49:38.000Z</time>
      </trkpt>
      <trkpt lat="-49.22860912978649139404296875" lon="-73.004982881247997283935546875">
        <ele>545</ele>
        <time>2023-01-11T18:49:39.000Z</time>
      </trkpt>
      <trkpt lat="-49.22860200516879558563232421875" lon="-73.00496938638389110565185546875">
        <ele>545</ele>
        <time>2023-01-11T18:49:40.000Z</time>
      </trkpt>
      <trkpt lat="-49.22856043092906475067138671875" lon="-73.00483527593314647674560546875">
        <ele>540.5999755859375</ele>
        <time>2023-01-11T18:49:49.000Z</time>
      </trkpt>
      <trkpt lat="-49.22855724580585956573486328125" lon="-73.0048221163451671600341796875">
        <ele>540.5999755859375</ele>
        <time>2023-01-11T18:49:50.000Z</time>
      </trkpt>
      <trkpt lat="-49.2285536415874958038330078125" lon="-73.0047740042209625244140625">
        <ele>540.5999755859375</ele>
        <time>2023-01-11T18:49:53.000Z</time>
      </trkpt>
      <trkpt lat="-49.22854031436145305633544921875" lon="-73.0046854913234710693359375">
        <ele>540</ele>
        <time>2023-01-11T18:49:58.000Z</time>
      </trkpt>
      <trkpt lat="-49.22853629104793071746826171875" lon="-73.004618771374225616455078125">
        <ele>540</ele>
        <time>2023-01-11T18:50:02.000Z</time>
      </trkpt>
      <trkpt lat="-49.228548444807529449462890625" lon="-73.00456454046070575714111328125">
        <ele>540</ele>
        <time>2023-01-11T18:50:05.000Z</time>
      </trkpt>
      <trkpt lat="-49.228569567203521728515625" lon="-73.004510812461376190185546875">
        <ele>540.5999755859375</ele>
        <time>2023-01-11T18:50:09.000Z</time>
      </trkpt>
      <trkpt lat="-49.228581301867961883544921875" lon="-73.00446043722331523895263671875">
        <ele>541.4000244140625</ele>
        <time>2023-01-11T18:50:13.000Z</time>
      </trkpt>
      <trkpt lat="-49.228584654629230499267578125" lon="-73.004451133310794830322265625">
        <ele>541.5999755859375</ele>
        <time>2023-01-11T18:50:14.000Z</time>
      </trkpt>
      <trkpt lat="-49.228590019047260284423828125" lon="-73.00444610416889190673828125">
        <ele>541.79998779296875</ele>
        <time>2023-01-11T18:50:15.000Z</time>
      </trkpt>
      <trkpt lat="-49.22863184474408626556396484375" lon="-73.0044110678136348724365234375">
        <ele>542.79998779296875</ele>
        <time>2023-01-11T18:50:19.000Z</time>
      </trkpt>
      <trkpt lat="-49.2286461777985095977783203125" lon="-73.00439916551113128662109375">
        <ele>543</ele>
        <time>2023-01-11T18:50:21.000Z</time>
      </trkpt>
      <trkpt lat="-49.2286485247313976287841796875" lon="-73.004384748637676239013671875">
        <ele>543.20001220703125</ele>
        <time>2023-01-11T18:50:22.000Z</time>
      </trkpt>
      <trkpt lat="-49.2286621034145355224609375" lon="-73.004357926547527313232421875">
        <ele>543.5999755859375</ele>
        <time>2023-01-11T18:50:25.000Z</time>
      </trkpt>
      <trkpt lat="-49.22866738401353359222412109375" lon="-73.00435088574886322021484375">
        <ele>543.79998779296875</ele>
        <time>2023-01-11T18:50:26.000Z</time>
      </trkpt>
      <trkpt lat="-49.228680543601512908935546875" lon="-73.00428139977157115936279296875">
        <ele>544</ele>
        <time>2023-01-11T18:50:29.000Z</time>
      </trkpt>
      <trkpt lat="-49.228707365691661834716796875" lon="-73.00430939532816410064697265625">
        <ele>543.79998779296875</ele>
        <time>2023-01-11T18:50:35.000Z</time>
      </trkpt>
      <trkpt lat="-49.22870711423456668853759765625" lon="-73.00430939532816410064697265625">
        <ele>543.79998779296875</ele>
        <time>2023-01-11T18:50:36.000Z</time>
      </trkpt>
      <trkpt lat="-49.228736869990825653076171875" lon="-73.00435566343367099761962890625">
        <ele>543.5999755859375</ele>
        <time>2023-01-11T18:50:42.000Z</time>
      </trkpt>
      <trkpt lat="-49.22873645089566707611083984375" lon="-73.00435918383300304412841796875">
        <ele>543.79998779296875</ele>
        <time>2023-01-11T18:50:51.000Z</time>
      </trkpt>
      <trkpt lat="-49.22873108647763729095458984375" lon="-73.00434258766472339630126953125">
        <ele>543.79998779296875</ele>
        <time>2023-01-11T18:51:16.000Z</time>
      </trkpt>
      <trkpt lat="-49.22876511700451374053955078125" lon="-73.00437259487807750701904296875">
        <ele>543</ele>
        <time>2023-01-11T18:51:38.000Z</time>
      </trkpt>
      <trkpt lat="-49.22876981087028980255126953125" lon="-73.004378713667392730712890625">
        <ele>543.5999755859375</ele>
        <time>2023-01-11T18:51:45.000Z</time>
      </trkpt>
      <trkpt lat="-49.2287698946893215179443359375" lon="-73.0043792165815830230712890625">
        <ele>543.79998779296875</ele>
        <time>2023-01-11T18:51:48.000Z</time>
      </trkpt>
      <trkpt lat="-49.2287698946893215179443359375" lon="-73.00437997095286846160888671875">
        <ele>543.79998779296875</ele>
        <time>2023-01-11T18:51:50.000Z</time>
      </trkpt>
      <trkpt lat="-49.2287675477564334869384765625" lon="-73.0043822340667247772216796875">
        <ele>543.5999755859375</ele>
        <time>2023-01-11T18:51:58.000Z</time>
      </trkpt>
      <trkpt lat="-49.2287601716816425323486328125" lon="-73.00438181497156620025634765625">
        <ele>543.5999755859375</ele>
        <time>2023-01-11T18:52:01.000Z</time>
      </trkpt>
      <trkpt lat="-49.2287420667707920074462890625" lon="-73.00438215024769306182861328125">
        <ele>543.5999755859375</ele>
        <time>2023-01-11T18:52:07.000Z</time>
      </trkpt>
      <trkpt lat="-49.22876880504190921783447265625" lon="-73.00434828735888004302978515625">
        <ele>543.5999755859375</ele>
        <time>2023-01-11T18:52:29.000Z</time>
      </trkpt>
      <trkpt lat="-49.2287973873317241668701171875" lon="-73.004323057830333709716796875">
        <ele>543.5999755859375</ele>
        <time>2023-01-11T18:52:31.000Z</time>
      </trkpt>
      <trkpt lat="-49.22881272621452808380126953125" lon="-73.004310987889766693115234375">
        <ele>543.5999755859375</ele>
        <time>2023-01-11T18:52:32.000Z</time>
      </trkpt>
      <trkpt lat="-49.22884784638881683349609375" lon="-73.00420981831848621368408203125">
        <ele>543.5999755859375</ele>
        <time>2023-01-11T18:52:39.000Z</time>
      </trkpt>
      <trkpt lat="-49.2288513667881488800048828125" lon="-73.004188947379589080810546875">
        <ele>543.5999755859375</ele>
        <time>2023-01-11T18:52:40.000Z</time>
      </trkpt>
      <trkpt lat="-49.22884784638881683349609375" lon="-73.00414226017892360687255859375">
        <ele>543.5999755859375</ele>
        <time>2023-01-11T18:52:42.000Z</time>
      </trkpt>
      <trkpt lat="-49.22890023328363895416259765625" lon="-73.00403413362801074981689453125">
        <ele>543.5999755859375</ele>
        <time>2023-01-11T18:52:50.000Z</time>
      </trkpt>
      <trkpt lat="-49.2289013229310512542724609375" lon="-73.00393355078995227813720703125">
        <ele>543.5999755859375</ele>
        <time>2023-01-11T18:52:59.000Z</time>
      </trkpt>
      <trkpt lat="-49.22892889939248561859130859375" lon="-73.00389759242534637451171875">
        <ele>543.5999755859375</ele>
        <time>2023-01-11T18:53:03.000Z</time>
      </trkpt>
      <trkpt lat="-49.22893778420984745025634765625" lon="-73.003881163895130157470703125">
        <ele>543.5999755859375</ele>
        <time>2023-01-11T18:53:04.000Z</time>
      </trkpt>
      <trkpt lat="-49.22898656688630580902099609375" lon="-73.00386800430715084075927734375">
        <ele>543.5999755859375</ele>
        <time>2023-01-11T18:53:09.000Z</time>
      </trkpt>
      <trkpt lat="-49.2289945296943187713623046875" lon="-73.0038618855178356170654296875">
        <ele>543.5999755859375</ele>
        <time>2023-01-11T18:53:10.000Z</time>
      </trkpt>
      <trkpt lat="-49.2290555499494075775146484375" lon="-73.00380237400531768798828125">
        <ele>543.5999755859375</ele>
        <time>2023-01-11T18:53:18.000Z</time>
      </trkpt>
      <trkpt lat="-49.2290991358458995819091796875" lon="-73.00375635735690593719482421875">
        <ele>543.5999755859375</ele>
        <time>2023-01-11T18:53:26.000Z</time>
      </trkpt>
      <trkpt lat="-49.22914163209497928619384765625" lon="-73.0036798305809497833251953125">
        <ele>543.5999755859375</ele>
        <time>2023-01-11T18:53:34.000Z</time>
      </trkpt>
      <trkpt lat="-49.22914020717144012451171875" lon="-73.0036077462136745452880859375">
        <ele>543.5999755859375</ele>
        <time>2023-01-11T18:53:39.000Z</time>
      </trkpt>
      <trkpt lat="-49.22913241200149059295654296875" lon="-73.0035836063325405120849609375">
        <ele>543.5999755859375</ele>
        <time>2023-01-11T18:53:41.000Z</time>
      </trkpt>
      <trkpt lat="-49.229105673730373382568359375" lon="-73.0035292915999889373779296875">
        <ele>543.5999755859375</ele>
        <time>2023-01-11T18:53:48.000Z</time>
      </trkpt>
      <trkpt lat="-49.22908027656376361846923828125" lon="-73.00349350087344646453857421875">
        <ele>543.5999755859375</ele>
        <time>2023-01-11T18:53:51.000Z</time>
      </trkpt>
      <trkpt lat="-49.22906577587127685546875" lon="-73.00347380340099334716796875">
        <ele>547.20001220703125</ele>
        <time>2023-01-11T18:53:53.000Z</time>
      </trkpt>
      <trkpt lat="-49.229058735072612762451171875" lon="-73.00343667156994342803955078125">
        <ele>547.20001220703125</ele>
        <time>2023-01-11T18:53:56.000Z</time>
      </trkpt>
      <trkpt lat="-49.22905077226459980010986328125" lon="-73.003409095108509063720703125">
        <ele>547</ele>
        <time>2023-01-11T18:53:58.000Z</time>
      </trkpt>
      <trkpt lat="-49.22906736843287944793701171875" lon="-73.00332686863839626312255859375">
        <ele>546.5999755859375</ele>
        <time>2023-01-11T18:54:04.000Z</time>
      </trkpt>
      <trkpt lat="-49.22913140617311000823974609375" lon="-73.00322704017162322998046875">
        <ele>547</ele>
        <time>2023-01-11T18:54:12.000Z</time>
      </trkpt>
      <trkpt lat="-49.22913693822920322418212890625" lon="-73.0031185783445835113525390625">
        <ele>547.20001220703125</ele>
        <time>2023-01-11T18:54:19.000Z</time>
      </trkpt>
      <trkpt lat="-49.22916837036609649658203125" lon="-73.00300844013690948486328125">
        <ele>547.4000244140625</ele>
        <time>2023-01-11T18:54:26.000Z</time>
      </trkpt>
      <trkpt lat="-49.22916795127093791961669921875" lon="-73.0028617568314075469970703125">
        <ele>546.5999755859375</ele>
        <time>2023-01-11T18:54:35.000Z</time>
      </trkpt>
      <trkpt lat="-49.22915856353938579559326171875" lon="-73.00284792669117450714111328125">
        <ele>546.4000244140625</ele>
        <time>2023-01-11T18:54:36.000Z</time>
      </trkpt>
      <trkpt lat="-49.229186140000820159912109375" lon="-73.00279109738767147064208984375">
        <ele>546</ele>
        <time>2023-01-11T18:54:40.000Z</time>
      </trkpt>
      <trkpt lat="-49.22918907366693019866943359375" lon="-73.00273024477064609527587890625">
        <ele>545.79998779296875</ele>
        <time>2023-01-11T18:54:43.000Z</time>
      </trkpt>
      <trkpt lat="-49.22918580472469329833984375" lon="-73.002668134868144989013671875">
        <ele>545.79998779296875</ele>
        <time>2023-01-11T18:54:48.000Z</time>
      </trkpt>
      <trkpt lat="-49.22917918302118778228759765625" lon="-73.0026163347065448760986328125">
        <ele>545.79998779296875</ele>
        <time>2023-01-11T18:54:51.000Z</time>
      </trkpt>
      <trkpt lat="-49.2291725613176822662353515625" lon="-73.00250510685145854949951171875">
        <ele>544.5999755859375</ele>
        <time>2023-01-11T18:54:58.000Z</time>
      </trkpt>
      <trkpt lat="-49.2291524447500705718994140625" lon="-73.0024537257850170135498046875">
        <ele>544</ele>
        <time>2023-01-11T18:55:02.000Z</time>
      </trkpt>
      <trkpt lat="-49.229154624044895172119140625" lon="-73.00237200222909450531005859375">
        <ele>543.5999755859375</ele>
        <time>2023-01-11T18:55:06.000Z</time>
      </trkpt>
      <trkpt lat="-49.22915537841618061065673828125" lon="-73.00235171802341938018798828125">
        <ele>543.5999755859375</ele>
        <time>2023-01-11T18:55:07.000Z</time>
      </trkpt>
      <trkpt lat="-49.22915889881551265716552734375" lon="-73.00233009271323680877685546875">
        <ele>543.4000244140625</ele>
        <time>2023-01-11T18:55:08.000Z</time>
      </trkpt>
      <trkpt lat="-49.22916023992002010345458984375" lon="-73.00228181295096874237060546875">
        <ele>543.4000244140625</ele>
        <time>2023-01-11T18:55:11.000Z</time>
      </trkpt>
      <trkpt lat="-49.22920516692101955413818359375" lon="-73.00219665281474590301513671875">
        <ele>543</ele>
        <time>2023-01-11T18:55:18.000Z</time>
      </trkpt>
      <trkpt lat="-49.2292436398565769195556640625" lon="-73.002120293676853179931640625">
        <ele>542.79998779296875</ele>
        <time>2023-01-11T18:55:23.000Z</time>
      </trkpt>
      <trkpt lat="-49.2292691208422183990478515625" lon="-73.00207679159939289093017578125">
        <ele>542.79998779296875</ele>
        <time>2023-01-11T18:55:25.000Z</time>
      </trkpt>
      <trkpt lat="-49.2293589748442173004150390625" lon="-73.00194988958537578582763671875">
        <ele>542.5999755859375</ele>
        <time>2023-01-11T18:55:34.000Z</time>
      </trkpt>
      <trkpt lat="-49.229401051998138427734375" lon="-73.00190999172627925872802734375">
        <ele>542.5999755859375</ele>
        <time>2023-01-11T18:55:39.000Z</time>
      </trkpt>
      <trkpt lat="-49.22940633259713649749755859375" lon="-73.00189624540507793426513671875">
        <ele>542.4000244140625</ele>
        <time>2023-01-11T18:55:40.000Z</time>
      </trkpt>
      <trkpt lat="-49.22943298704922199249267578125" lon="-73.0018850974738597869873046875">
        <ele>542</ele>
        <time>2023-01-11T18:55:42.000Z</time>
      </trkpt>
      <trkpt lat="-49.22945025376975536346435546875" lon="-73.0018039606511592864990234375">
        <ele>541.4000244140625</ele>
        <time>2023-01-11T18:55:49.000Z</time>
      </trkpt>
      <trkpt lat="-49.22944472171366214752197265625" lon="-73.00179230980575084686279296875">
        <ele>541.4000244140625</ele>
        <time>2023-01-11T18:55:50.000Z</time>
      </trkpt>
      <trkpt lat="-49.22941739670932292938232421875" lon="-73.0016668327152729034423828125">
        <ele>540.79998779296875</ele>
        <time>2023-01-11T18:55:58.000Z</time>
      </trkpt>
      <trkpt lat="-49.22941111028194427490234375" lon="-73.001654930412769317626953125">
        <ele>540.4000244140625</ele>
        <time>2023-01-11T18:55:59.000Z</time>
      </trkpt>
      <trkpt lat="-49.22937632538378238677978515625" lon="-73.00158393569290637969970703125">
        <ele>540.4000244140625</ele>
        <time>2023-01-11T18:56:04.000Z</time>
      </trkpt>
      <trkpt lat="-49.22937221825122833251953125" lon="-73.00157655961811542510986328125">
        <ele>540</ele>
        <time>2023-01-11T18:56:05.000Z</time>
      </trkpt>
      <trkpt lat="-49.229351095855236053466796875" lon="-73.0014435388147830963134765625">
        <ele>539.5999755859375</ele>
        <time>2023-01-11T18:56:13.000Z</time>
      </trkpt>
      <trkpt lat="-49.2293378524482250213623046875" lon="-73.0014039762318134307861328125">
        <ele>539.4000244140625</ele>
        <time>2023-01-11T18:56:15.000Z</time>
      </trkpt>
      <trkpt lat="-49.22931589186191558837890625" lon="-73.00131336785852909088134765625">
        <ele>539.20001220703125</ele>
        <time>2023-01-11T18:56:20.000Z</time>
      </trkpt>
      <trkpt lat="-49.2292838729918003082275390625" lon="-73.0011867173016071319580078125">
        <ele>538.4000244140625</ele>
        <time>2023-01-11T18:56:28.000Z</time>
      </trkpt>
      <trkpt lat="-49.22926249913871288299560546875" lon="-73.00113349221646785736083984375">
        <ele>538.4000244140625</ele>
        <time>2023-01-11T18:56:31.000Z</time>
      </trkpt>
      <trkpt lat="-49.22925462014973163604736328125" lon="-73.001023940742015838623046875">
        <ele>538.5999755859375</ele>
        <time>2023-01-11T18:56:36.000Z</time>
      </trkpt>
      <trkpt lat="-49.22925746999680995941162109375" lon="-73.00097574479877948760986328125">
        <ele>538.5999755859375</ele>
        <time>2023-01-11T18:56:39.000Z</time>
      </trkpt>
      <trkpt lat="-49.2292667739093303680419921875" lon="-73.00081414170563220977783203125">
        <ele>537.79998779296875</ele>
        <time>2023-01-11T18:56:46.000Z</time>
      </trkpt>
      <trkpt lat="-49.22931647859513759613037109375" lon="-73.0007240362465381622314453125">
        <ele>538.20001220703125</ele>
        <time>2023-01-11T18:56:51.000Z</time>
      </trkpt>
      <trkpt lat="-49.22933089546859264373779296875" lon="-73.00071246922016143798828125">
        <ele>538.20001220703125</ele>
        <time>2023-01-11T18:56:53.000Z</time>
      </trkpt>
      <trkpt lat="-49.22934128902852535247802734375" lon="-73.0006916821002960205078125">
        <ele>538.20001220703125</ele>
        <time>2023-01-11T18:56:55.000Z</time>
      </trkpt>
      <trkpt lat="-49.2293063364923000335693359375" lon="-73.00064298324286937713623046875">
        <ele>537.4000244140625</ele>
        <time>2023-01-11T18:57:00.000Z</time>
      </trkpt>
      <trkpt lat="-49.22930289991199970245361328125" lon="-73.0006335116922855377197265625">
        <ele>537</ele>
        <time>2023-01-11T18:57:01.000Z</time>
      </trkpt>
      <trkpt lat="-49.229288399219512939453125" lon="-73.000584058463573455810546875">
        <ele>536.79998779296875</ele>
        <time>2023-01-11T18:57:04.000Z</time>
      </trkpt>
      <trkpt lat="-49.2292697913944721221923828125" lon="-73.00056369043886661529541015625">
        <ele>536.79998779296875</ele>
        <time>2023-01-11T18:57:07.000Z</time>
      </trkpt>
      <trkpt lat="-49.22921002842485904693603515625" lon="-73.00042815506458282470703125">
        <ele>536</ele>
        <time>2023-01-11T18:57:15.000Z</time>
      </trkpt>
      <trkpt lat="-49.22920315526425838470458984375" lon="-73.00041248090565204620361328125">
        <ele>536</ele>
        <time>2023-01-11T18:57:16.000Z</time>
      </trkpt>
      <trkpt lat="-49.22918957658112049102783203125" lon="-73.00039068795740604400634765625">
        <ele>536</ele>
        <time>2023-01-11T18:57:18.000Z</time>
      </trkpt>
      <trkpt lat="-49.2291668616235256195068359375" lon="-73.000342659652233123779296875">
        <ele>535.5999755859375</ele>
        <time>2023-01-11T18:57:23.000Z</time>
      </trkpt>
      <trkpt lat="-49.22915873117744922637939453125" lon="-73.000332601368427276611328125">
        <ele>535.4000244140625</ele>
        <time>2023-01-11T18:57:24.000Z</time>
      </trkpt>
      <trkpt lat="-49.22914934344589710235595703125" lon="-73.00023763440549373626708984375">
        <ele>535</ele>
        <time>2023-01-11T18:57:30.000Z</time>
      </trkpt>
      <trkpt lat="-49.229145906865596771240234375" lon="-73.0002714134752750396728515625">
        <ele>535.79998779296875</ele>
        <time>2023-01-11T18:57:40.000Z</time>
      </trkpt>
      <trkpt lat="-49.229145906865596771240234375" lon="-73.0002714134752750396728515625">
        <ele>535.4000244140625</ele>
        <time>2023-01-11T18:57:49.000Z</time>
      </trkpt>
      <trkpt lat="-49.22914498485624790191650390625" lon="-73.0002633668482303619384765625">
        <ele>535.20001220703125</ele>
        <time>2023-01-11T18:57:54.000Z</time>
      </trkpt>
      <trkpt lat="-49.22914682887494564056396484375" lon="-73.000215925276279449462890625">
        <ele>535.4000244140625</ele>
        <time>2023-01-11T18:57:56.000Z</time>
      </trkpt>
      <trkpt lat="-49.22915336675941944122314453125" lon="-73.00019170157611370086669921875">
        <ele>535.4000244140625</ele>
        <time>2023-01-11T18:57:57.000Z</time>
      </trkpt>
      <trkpt lat="-49.22915764153003692626953125" lon="-73.0000739358365535736083984375">
        <ele>535.5999755859375</ele>
        <time>2023-01-11T18:58:03.000Z</time>
      </trkpt>
      <trkpt lat="-49.229175746440887451171875" lon="-72.99999631941318511962890625">
        <ele>535.5999755859375</ele>
        <time>2023-01-11T18:58:08.000Z</time>
      </trkpt>
      <trkpt lat="-49.2291886545717716217041015625" lon="-72.9999659769237041473388671875">
        <ele>535.4000244140625</ele>
        <time>2023-01-11T18:58:10.000Z</time>
      </trkpt>
      <trkpt lat="-49.22923165373504161834716796875" lon="-72.99988500773906707763671875">
        <ele>535.4000244140625</ele>
        <time>2023-01-11T18:58:16.000Z</time>
      </trkpt>
      <trkpt lat="-49.22924540005624294281005859375" lon="-72.999851144850254058837890625">
        <ele>535.4000244140625</ele>
        <time>2023-01-11T18:58:18.000Z</time>
      </trkpt>
      <trkpt lat="-49.22929041087627410888671875" lon="-72.9997074790298938751220703125">
        <ele>535.79998779296875</ele>
        <time>2023-01-11T18:58:27.000Z</time>
      </trkpt>
      <trkpt lat="-49.2292996309697628021240234375" lon="-72.99968250095844268798828125">
        <ele>535.79998779296875</ele>
        <time>2023-01-11T18:58:28.000Z</time>
      </trkpt>
      <trkpt lat="-49.22937230207026004791259765625" lon="-72.99959407187998294830322265625">
        <ele>535.79998779296875</ele>
        <time>2023-01-11T18:58:37.000Z</time>
      </trkpt>
      <trkpt lat="-49.22937800176441669464111328125" lon="-72.9995773918926715850830078125">
        <ele>535.79998779296875</ele>
        <time>2023-01-11T18:58:38.000Z</time>
      </trkpt>
      <trkpt lat="-49.22939836978912353515625" lon="-72.9995535872876644134521484375">
        <ele>535.4000244140625</ele>
        <time>2023-01-11T18:58:40.000Z</time>
      </trkpt>
      <trkpt lat="-49.2294136248528957366943359375" lon="-72.999522574245929718017578125">
        <ele>535</ele>
        <time>2023-01-11T18:58:43.000Z</time>
      </trkpt>
      <trkpt lat="-49.22942795790731906890869140625" lon="-72.99947873689234256744384765625">
        <ele>535</ele>
        <time>2023-01-11T18:58:47.000Z</time>
      </trkpt>
      <trkpt lat="-49.22943147830665111541748046875" lon="-72.9994610510766506195068359375">
        <ele>534.79998779296875</ele>
        <time>2023-01-11T18:58:48.000Z</time>
      </trkpt>
      <trkpt lat="-49.22943516634404659271240234375" lon="-72.99942140467464923858642578125">
        <ele>535</ele>
        <time>2023-01-11T18:58:50.000Z</time>
      </trkpt>
      <trkpt lat="-49.22943449579179286956787109375" lon="-72.99939676187932491302490234375">
        <ele>535</ele>
        <time>2023-01-11T18:58:51.000Z</time>
      </trkpt>
      <trkpt lat="-49.22946265898644924163818359375" lon="-72.99931914545595645904541015625">
        <ele>535.5999755859375</ele>
        <time>2023-01-11T18:58:56.000Z</time>
      </trkpt>
      <trkpt lat="-49.2294749803841114044189453125" lon="-72.99929760396480560302734375">
        <ele>534.79998779296875</ele>
        <time>2023-01-11T18:58:58.000Z</time>
      </trkpt>
      <trkpt lat="-49.2294608987867832183837890625" lon="-72.99921051599085330963134765625">
        <ele>534.20001220703125</ele>
        <time>2023-01-11T18:59:04.000Z</time>
      </trkpt>
      <trkpt lat="-49.229464419186115264892578125" lon="-72.999185957014560699462890625">
        <ele>534.20001220703125</ele>
        <time>2023-01-11T18:59:05.000Z</time>
      </trkpt>
      <trkpt lat="-49.22946047969162464141845703125" lon="-72.999084033071994781494140625">
        <ele>533.4000244140625</ele>
        <time>2023-01-11T18:59:10.000Z</time>
      </trkpt>
      <trkpt lat="-49.22946073114871978759765625" lon="-72.99907305277884006500244140625">
        <ele>533.4000244140625</ele>
        <time>2023-01-11T18:59:11.000Z</time>
      </trkpt>
      <trkpt lat="-49.2294721305370330810546875" lon="-72.99906383268535137176513671875">
        <ele>533.20001220703125</ele>
        <time>2023-01-11T18:59:13.000Z</time>
      </trkpt>
      <trkpt lat="-49.2294773273169994354248046875" lon="-72.99905511550605297088623046875">
        <ele>533.20001220703125</ele>
        <time>2023-01-11T18:59:15.000Z</time>
      </trkpt>
      <trkpt lat="-49.2294635809957981109619140625" lon="-72.9990340769290924072265625">
        <ele>533</ele>
        <time>2023-01-11T18:59:17.000Z</time>
      </trkpt>
      <trkpt lat="-49.229467771947383880615234375" lon="-72.99900767393410205841064453125">
        <ele>532.5999755859375</ele>
        <time>2023-01-11T18:59:21.000Z</time>
      </trkpt>
      <trkpt lat="-49.229457378387451171875" lon="-72.99897699616849422454833984375">
        <ele>532.5999755859375</ele>
        <time>2023-01-11T18:59:24.000Z</time>
      </trkpt>
      <trkpt lat="-49.2294560372829437255859375" lon="-72.99895562231540679931640625">
        <ele>532.4000244140625</ele>
        <time>2023-01-11T18:59:26.000Z</time>
      </trkpt>
      <trkpt lat="-49.22943818382918834686279296875" lon="-72.99890960566699504852294921875">
        <ele>532.4000244140625</ele>
        <time>2023-01-11T18:59:29.000Z</time>
      </trkpt>
      <trkpt lat="-49.22943835146725177764892578125" lon="-72.99881673417985439300537109375">
        <ele>532.4000244140625</ele>
        <time>2023-01-11T18:59:33.000Z</time>
      </trkpt>
      <trkpt lat="-49.22944237478077411651611328125" lon="-72.9986754991114139556884765625">
        <ele>532.5999755859375</ele>
        <time>2023-01-11T18:59:41.000Z</time>
      </trkpt>
      <trkpt lat="-49.229448996484279632568359375" lon="-72.99861632287502288818359375">
        <ele>532.5999755859375</ele>
        <time>2023-01-11T18:59:44.000Z</time>
      </trkpt>
      <trkpt lat="-49.22945695929229259490966796875" lon="-72.99852923490107059478759765625">
        <ele>532.20001220703125</ele>
        <time>2023-01-11T18:59:49.000Z</time>
      </trkpt>
      <trkpt lat="-49.229485206305980682373046875" lon="-72.9983791150152683258056640625">
        <ele>531.79998779296875</ele>
        <time>2023-01-11T18:59:57.000Z</time>
      </trkpt>
      <trkpt lat="-49.2294788360595703125" lon="-72.99830853939056396484375">
        <ele>531.4000244140625</ele>
        <time>2023-01-11T19:00:01.000Z</time>
      </trkpt>
      <trkpt lat="-49.22948755323886871337890625" lon="-72.9982661269605159759521484375">
        <ele>531</ele>
        <time>2023-01-11T19:00:04.000Z</time>
      </trkpt>
      <trkpt lat="-49.229486547410488128662109375" lon="-72.99824626184999942779541015625">
        <ele>530.79998779296875</ele>
        <time>2023-01-11T19:00:05.000Z</time>
      </trkpt>
      <trkpt lat="-49.22948277555406093597412109375" lon="-72.998219691216945648193359375">
        <ele>530.79998779296875</ele>
        <time>2023-01-11T19:00:06.000Z</time>
      </trkpt>
      <trkpt lat="-49.22945662401616573333740234375" lon="-72.9980792105197906494140625">
        <ele>531</ele>
        <time>2023-01-11T19:00:15.000Z</time>
      </trkpt>
      <trkpt lat="-49.22944120131433010101318359375" lon="-72.99794518388807773590087890625">
        <ele>530.4000244140625</ele>
        <time>2023-01-11T19:00:25.000Z</time>
      </trkpt>
      <trkpt lat="-49.22944053076207637786865234375" lon="-72.99793378449976444244384765625">
        <ele>530.20001220703125</ele>
        <time>2023-01-11T19:00:26.000Z</time>
      </trkpt>
      <trkpt lat="-49.22944187186658382415771484375" lon="-72.99784409813582897186279296875">
        <ele>529.5999755859375</ele>
        <time>2023-01-11T19:00:32.000Z</time>
      </trkpt>
      <trkpt lat="-49.229438602924346923828125" lon="-72.99777469597756862640380859375">
        <ele>529.79998779296875</ele>
        <time>2023-01-11T19:00:36.000Z</time>
      </trkpt>
      <trkpt lat="-49.22943701036274433135986328125" lon="-72.9977105744183063507080078125">
        <ele>529.20001220703125</ele>
        <time>2023-01-11T19:00:40.000Z</time>
      </trkpt>
      <trkpt lat="-49.22944723628461360931396484375" lon="-72.997597418725490570068359375">
        <ele>529.5999755859375</ele>
        <time>2023-01-11T19:00:46.000Z</time>
      </trkpt>
      <trkpt lat="-49.22944606281816959381103515625" lon="-72.9975318722426891326904296875">
        <ele>529</ele>
        <time>2023-01-11T19:00:50.000Z</time>
      </trkpt>
      <trkpt lat="-49.22947070561349391937255859375" lon="-72.997385524213314056396484375">
        <ele>528.5999755859375</ele>
        <time>2023-01-11T19:00:58.000Z</time>
      </trkpt>
      <trkpt lat="-49.229487217962741851806640625" lon="-72.99733548425137996673583984375">
        <ele>528.5999755859375</ele>
        <time>2023-01-11T19:01:01.000Z</time>
      </trkpt>
      <trkpt lat="-49.22948076389729976654052734375" lon="-72.99723154865205287933349609375">
        <ele>528.20001220703125</ele>
        <time>2023-01-11T19:01:06.000Z</time>
      </trkpt>
      <trkpt lat="-49.2294836975634098052978515625" lon="-72.99718611873686313629150390625">
        <ele>528</ele>
        <time>2023-01-11T19:01:09.000Z</time>
      </trkpt>
      <trkpt lat="-49.22948461957275867462158203125" lon="-72.997168935835361480712890625">
        <ele>527.5999755859375</ele>
        <time>2023-01-11T19:01:10.000Z</time>
      </trkpt>
      <trkpt lat="-49.2294699512422084808349609375" lon="-72.99712928943336009979248046875">
        <ele>527</ele>
        <time>2023-01-11T19:01:12.000Z</time>
      </trkpt>
      <trkpt lat="-49.22946701757609844207763671875" lon="-72.9971171356737613677978515625">
        <ele>526.79998779296875</ele>
        <time>2023-01-11T19:01:13.000Z</time>
      </trkpt>
      <trkpt lat="-49.2294431291520595550537109375" lon="-72.996950335800647735595703125">
        <ele>526.4000244140625</ele>
        <time>2023-01-11T19:01:22.000Z</time>
      </trkpt>
      <trkpt lat="-49.229477830231189727783203125" lon="-72.996862828731536865234375">
        <ele>527</ele>
        <time>2023-01-11T19:01:28.000Z</time>
      </trkpt>
      <trkpt lat="-49.22951412387192249298095703125" lon="-72.996809184551239013671875">
        <ele>527.20001220703125</ele>
        <time>2023-01-11T19:01:31.000Z</time>
      </trkpt>
      <trkpt lat="-49.22954916022717952728271484375" lon="-72.99673047848045825958251953125">
        <ele>528</ele>
        <time>2023-01-11T19:01:37.000Z</time>
      </trkpt>
      <trkpt lat="-49.22955184243619441986083984375" lon="-72.99669577740132808685302734375">
        <ele>528.4000244140625</ele>
        <time>2023-01-11T19:01:39.000Z</time>
      </trkpt>
      <trkpt lat="-49.229570366442203521728515625" lon="-72.996651269495487213134765625">
        <ele>528.5999755859375</ele>
        <time>2023-01-11T19:01:45.000Z</time>
      </trkpt>
      <trkpt lat="-49.2295668460428714752197265625" lon="-72.9966252855956554412841796875">
        <ele>528.4000244140625</ele>
        <time>2023-01-11T19:01:47.000Z</time>
      </trkpt>
      <trkpt lat="-49.2295517586171627044677734375" lon="-72.99644767306745052337646484375">
        <ele>527</ele>
        <time>2023-01-11T19:01:56.000Z</time>
      </trkpt>
      <trkpt lat="-49.22954530455172061920166015625" lon="-72.9964237846434116363525390625">
        <ele>527</ele>
        <time>2023-01-11T19:01:58.000Z</time>
      </trkpt>
      <trkpt lat="-49.2295440472662448883056640625" lon="-72.99641012214124202728271484375">
        <ele>526.5999755859375</ele>
        <time>2023-01-11T19:01:59.000Z</time>
      </trkpt>
      <trkpt lat="-49.22954111360013484954833984375" lon="-72.9963922686874866485595703125">
        <ele>526.4000244140625</ele>
        <time>2023-01-11T19:02:00.000Z</time>
      </trkpt>
      <trkpt lat="-49.22952384687960147857666015625" lon="-72.99626008607447147369384765625">
        <ele>526</ele>
        <time>2023-01-11T19:02:06.000Z</time>
      </trkpt>
      <trkpt lat="-49.22952912747859954833984375" lon="-72.99615933559834957122802734375">
        <ele>527.4000244140625</ele>
        <time>2023-01-11T19:02:11.000Z</time>
      </trkpt>
      <trkpt lat="-49.229524768888950347900390625" lon="-72.9960885085165500640869140625">
        <ele>526.5999755859375</ele>
        <time>2023-01-11T19:02:14.000Z</time>
      </trkpt>
      <trkpt lat="-49.22952669672667980194091796875" lon="-72.996051125228404998779296875">
        <ele>526.4000244140625</ele>
        <time>2023-01-11T19:02:16.000Z</time>
      </trkpt>
      <trkpt lat="-49.22952200286090373992919921875" lon="-72.99600183963775634765625">
        <ele>525.79998779296875</ele>
        <time>2023-01-11T19:02:19.000Z</time>
      </trkpt>
      <trkpt lat="-49.22950725071132183074951171875" lon="-72.99588910304009914398193359375">
        <ele>525.79998779296875</ele>
        <time>2023-01-11T19:02:24.000Z</time>
      </trkpt>
      <trkpt lat="-49.229516722261905670166015625" lon="-72.99578248523175716400146484375">
        <ele>526</ele>
        <time>2023-01-11T19:02:32.000Z</time>
      </trkpt>
      <trkpt lat="-49.229567684233188629150390625" lon="-72.99556204117834568023681640625">
        <ele>525</ele>
        <time>2023-01-11T19:02:42.000Z</time>
      </trkpt>
      <trkpt lat="-49.22959006391465663909912109375" lon="-72.9954229854047298431396484375">
        <ele>524.5999755859375</ele>
        <time>2023-01-11T19:02:48.000Z</time>
      </trkpt>
      <trkpt lat="-49.2295815981924533843994140625" lon="-72.99538836814463138580322265625">
        <ele>524.4000244140625</ele>
        <time>2023-01-11T19:02:52.000Z</time>
      </trkpt>
      <trkpt lat="-49.22956961207091808319091796875" lon="-72.9953173734247684478759765625">
        <ele>524.79998779296875</ele>
        <time>2023-01-11T19:02:56.000Z</time>
      </trkpt>
      <trkpt lat="-49.22959425486624240875244140625" lon="-72.995221652090549468994140625">
        <ele>524.5999755859375</ele>
        <time>2023-01-11T19:03:01.000Z</time>
      </trkpt>
      <trkpt lat="-49.2296228371560573577880859375" lon="-72.99513959325850009918212890625">
        <ele>524.4000244140625</ele>
        <time>2023-01-11T19:03:06.000Z</time>
      </trkpt>
      <trkpt lat="-49.22963532619178295135498046875" lon="-72.9951011203229427337646484375">
        <ele>524.4000244140625</ele>
        <time>2023-01-11T19:03:08.000Z</time>
      </trkpt>
      <trkpt lat="-49.22966399230062961578369140625" lon="-72.995071448385715484619140625">
        <ele>524.4000244140625</ele>
        <time>2023-01-11T19:03:11.000Z</time>
      </trkpt>
      <trkpt lat="-49.22967472113668918609619140625" lon="-72.99504940398037433624267578125">
        <ele>524.5999755859375</ele>
        <time>2023-01-11T19:03:13.000Z</time>
      </trkpt>
      <trkpt lat="-49.22968209721148014068603515625" lon="-72.99504018388688564300537109375">
        <ele>524.79998779296875</ele>
        <time>2023-01-11T19:03:14.000Z</time>
      </trkpt>
      <trkpt lat="-49.22967958264052867889404296875" lon="-72.99497815780341625213623046875">
        <ele>525</ele>
        <time>2023-01-11T19:03:20.000Z</time>
      </trkpt>
      <trkpt lat="-49.2296556942164897918701171875" lon="-72.994911186397075653076171875">
        <ele>524.79998779296875</ele>
        <time>2023-01-11T19:03:26.000Z</time>
      </trkpt>
      <trkpt lat="-49.22963297925889492034912109375" lon="-72.99482024274766445159912109375">
        <ele>524.4000244140625</ele>
        <time>2023-01-11T19:03:31.000Z</time>
      </trkpt>
      <trkpt lat="-49.22964085824787616729736328125" lon="-72.99479174427688121795654296875">
        <ele>524.4000244140625</ele>
        <time>2023-01-11T19:03:33.000Z</time>
      </trkpt>
      <trkpt lat="-49.22960800118744373321533203125" lon="-72.99463684670627117156982421875">
        <ele>524.20001220703125</ele>
        <time>2023-01-11T19:03:43.000Z</time>
      </trkpt>
      <trkpt lat="-49.22961822710931301116943359375" lon="-72.9944677837193012237548828125">
        <ele>523.79998779296875</ele>
        <time>2023-01-11T19:03:52.000Z</time>
      </trkpt>
      <trkpt lat="-49.22964253462851047515869140625" lon="-72.9943051747977733612060546875">
        <ele>524.4000244140625</ele>
        <time>2023-01-11T19:04:01.000Z</time>
      </trkpt>
      <trkpt lat="-49.22961940057575702667236328125" lon="-72.9942478425800800323486328125">
        <ele>524.5999755859375</ele>
        <time>2023-01-11T19:04:08.000Z</time>
      </trkpt>
      <trkpt lat="-49.22961504198610782623291015625" lon="-72.99423267133533954620361328125">
        <ele>524.5999755859375</ele>
        <time>2023-01-11T19:04:09.000Z</time>
      </trkpt>
      <trkpt lat="-49.229598529636859893798828125" lon="-72.99414130859076976776123046875">
        <ele>524.5999755859375</ele>
        <time>2023-01-11T19:04:16.000Z</time>
      </trkpt>
      <trkpt lat="-49.22958687879145145416259765625" lon="-72.9940711520612239837646484375">
        <ele>524.5999755859375</ele>
        <time>2023-01-11T19:04:19.000Z</time>
      </trkpt>
      <trkpt lat="-49.2295909859240055084228515625" lon="-72.99403586424887180328369140625">
        <ele>524.5999755859375</ele>
        <time>2023-01-11T19:04:20.000Z</time>
      </trkpt>
      <trkpt lat="-49.22959157265722751617431640625" lon="-72.9939920268952846527099609375">
        <ele>524.5999755859375</ele>
        <time>2023-01-11T19:04:22.000Z</time>
      </trkpt>
      <trkpt lat="-49.2296020500361919403076171875" lon="-72.99394098110496997833251953125">
        <ele>524.5999755859375</ele>
        <time>2023-01-11T19:04:25.000Z</time>
      </trkpt>
      <trkpt lat="-49.22952719964087009429931640625" lon="-72.99376227892935276031494140625">
        <ele>524.5999755859375</ele>
        <time>2023-01-11T19:04:34.000Z</time>
      </trkpt>
      <trkpt lat="-49.229542873799800872802734375" lon="-72.99370746128261089324951171875">
        <ele>524.5999755859375</ele>
        <time>2023-01-11T19:04:40.000Z</time>
      </trkpt>
      <trkpt lat="-49.22952921129763126373291015625" lon="-72.99364225007593631744384765625">
        <ele>524.5999755859375</ele>
        <time>2023-01-11T19:04:44.000Z</time>
      </trkpt>
      <trkpt lat="-49.22952518798410892486572265625" lon="-72.99361676909029483795166015625">
        <ele>524.5999755859375</ele>
        <time>2023-01-11T19:04:46.000Z</time>
      </trkpt>
      <trkpt lat="-49.22952317632734775543212890625" lon="-72.9935119114816188812255859375">
        <ele>524.5999755859375</ele>
        <time>2023-01-11T19:04:51.000Z</time>
      </trkpt>
      <trkpt lat="-49.22952787019312381744384765625" lon="-72.993494980037212371826171875">
        <ele>524.5999755859375</ele>
        <time>2023-01-11T19:04:53.000Z</time>
      </trkpt>
      <trkpt lat="-49.22951831482350826263427734375" lon="-72.9934751987457275390625">
        <ele>524.5999755859375</ele>
        <time>2023-01-11T19:04:55.000Z</time>
      </trkpt>
      <trkpt lat="-49.2295115254819393157958984375" lon="-72.99343991093337535858154296875">
        <ele>524.5999755859375</ele>
        <time>2023-01-11T19:04:57.000Z</time>
      </trkpt>
      <trkpt lat="-49.22947623766958713531494140625" lon="-72.99332507885992527008056640625">
        <ele>524.5999755859375</ele>
        <time>2023-01-11T19:05:04.000Z</time>
      </trkpt>
      <trkpt lat="-49.229470789432525634765625" lon="-72.99331351183354854583740234375">
        <ele>524.5999755859375</ele>
        <time>2023-01-11T19:05:05.000Z</time>
      </trkpt>
      <trkpt lat="-49.22945612110197544097900390625" lon="-72.99323187209665775299072265625">
        <ele>524.5999755859375</ele>
        <time>2023-01-11T19:05:12.000Z</time>
      </trkpt>
      <trkpt lat="-49.2294079251587390899658203125" lon="-72.99315090291202068328857421875">
        <ele>524.5999755859375</ele>
        <time>2023-01-11T19:05:19.000Z</time>
      </trkpt>
      <trkpt lat="-49.229391328990459442138671875" lon="-72.99313564784824848175048828125">
        <ele>524.5999755859375</ele>
        <time>2023-01-11T19:05:20.000Z</time>
      </trkpt>
      <trkpt lat="-49.2293569631874561309814453125" lon="-72.9930485598742961883544921875">
        <ele>524.5999755859375</ele>
        <time>2023-01-11T19:05:26.000Z</time>
      </trkpt>
      <trkpt lat="-49.22933056019246578216552734375" lon="-72.99286927096545696258544921875">
        <ele>524.5999755859375</ele>
        <time>2023-01-11T19:05:36.000Z</time>
      </trkpt>
      <trkpt lat="-49.2293371818959712982177734375" lon="-72.9927518405020236968994140625">
        <ele>524.5999755859375</ele>
        <time>2023-01-11T19:05:43.000Z</time>
      </trkpt>
      <trkpt lat="-49.22933609224855899810791015625" lon="-72.9927354119718074798583984375">
        <ele>524.5999755859375</ele>
        <time>2023-01-11T19:05:44.000Z</time>
      </trkpt>
      <trkpt lat="-49.229336343705654144287109375" lon="-72.99269174225628376007080078125">
        <ele>524.5999755859375</ele>
        <time>2023-01-11T19:05:47.000Z</time>
      </trkpt>
      <trkpt lat="-49.2293408699333667755126953125" lon="-72.99264036118984222412109375">
        <ele>524.5999755859375</ele>
        <time>2023-01-11T19:05:49.000Z</time>
      </trkpt>
      <trkpt lat="-49.229363836348056793212890625" lon="-72.992546819150447845458984375">
        <ele>524.5999755859375</ele>
        <time>2023-01-11T19:05:53.000Z</time>
      </trkpt>
      <trkpt lat="-49.22940230928361415863037109375" lon="-72.99253575503826141357421875">
        <ele>524.5999755859375</ele>
        <time>2023-01-11T19:05:56.000Z</time>
      </trkpt>
      <trkpt lat="-49.22943097539246082305908203125" lon="-72.99249828793108463287353515625">
        <ele>524.5999755859375</ele>
        <time>2023-01-11T19:06:01.000Z</time>
      </trkpt>
      <trkpt lat="-49.22946299426257610321044921875" lon="-72.9924618266522884368896484375">
        <ele>524.5999755859375</ele>
        <time>2023-01-11T19:06:06.000Z</time>
      </trkpt>
      <trkpt lat="-49.22954362817108631134033203125" lon="-72.99242268316447734832763671875">
        <ele>524.5999755859375</ele>
        <time>2023-01-11T19:06:13.000Z</time>
      </trkpt>
      <trkpt lat="-49.22956106252968311309814453125" lon="-72.9923890717327594757080078125">
        <ele>524.5999755859375</ele>
        <time>2023-01-11T19:06:15.000Z</time>
      </trkpt>
      <trkpt lat="-49.22959542833268642425537109375" lon="-72.99231581389904022216796875">
        <ele>524.5999755859375</ele>
        <time>2023-01-11T19:06:20.000Z</time>
      </trkpt>
      <trkpt lat="-49.22961286269128322601318359375" lon="-72.9922140575945377349853515625">
        <ele>524.5999755859375</ele>
        <time>2023-01-11T19:06:27.000Z</time>
      </trkpt>
      <trkpt lat="-49.22962929122149944305419921875" lon="-72.9921662807464599609375">
        <ele>524.5999755859375</ele>
        <time>2023-01-11T19:06:29.000Z</time>
      </trkpt>
      <trkpt lat="-49.2296397686004638671875" lon="-72.9921225272119045257568359375">
        <ele>524.5999755859375</ele>
        <time>2023-01-11T19:06:31.000Z</time>
      </trkpt>
      <trkpt lat="-49.22970238141715526580810546875" lon="-72.99210635013878345489501953125">
        <ele>524.5999755859375</ele>
        <time>2023-01-11T19:06:35.000Z</time>
      </trkpt>
      <trkpt lat="-49.22975937835872173309326171875" lon="-72.99209377728402614593505859375">
        <ele>524.5999755859375</ele>
        <time>2023-01-11T19:06:40.000Z</time>
      </trkpt>
      <trkpt lat="-49.22978435643017292022705078125" lon="-72.9920832999050617218017578125">
        <ele>524.5999755859375</ele>
        <time>2023-01-11T19:06:43.000Z</time>
      </trkpt>
      <trkpt lat="-49.229871444404125213623046875" lon="-72.9920742474496364593505859375">
        <ele>524.5999755859375</ele>
        <time>2023-01-11T19:06:51.000Z</time>
      </trkpt>
      <trkpt lat="-49.2299101687967777252197265625" lon="-72.99206226132810115814208984375">
        <ele>524.5999755859375</ele>
        <time>2023-01-11T19:06:57.000Z</time>
      </trkpt>
      <trkpt lat="-49.22994109801948070526123046875" lon="-72.99199151806533336639404296875">
        <ele>524.5999755859375</ele>
        <time>2023-01-11T19:07:02.000Z</time>
      </trkpt>
      <trkpt lat="-49.22994889318943023681640625" lon="-72.9919897578656673431396484375">
        <ele>524.5999755859375</ele>
        <time>2023-01-11T19:07:03.000Z</time>
      </trkpt>
      <trkpt lat="-49.230012595653533935546875" lon="-72.9919334314763545989990234375">
        <ele>524.5999755859375</ele>
        <time>2023-01-11T19:07:09.000Z</time>
      </trkpt>
      <trkpt lat="-49.23003044910728931427001953125" lon="-72.99192178063094615936279296875">
        <ele>524.5999755859375</ele>
        <time>2023-01-11T19:07:10.000Z</time>
      </trkpt>
      <trkpt lat="-49.23003581352531909942626953125" lon="-72.99186930991709232330322265625">
        <ele>524.5999755859375</ele>
        <time>2023-01-11T19:07:12.000Z</time>
      </trkpt>
      <trkpt lat="-49.23005525954067707061767578125" lon="-72.99183527939021587371826171875">
        <ele>524.5999755859375</ele>
        <time>2023-01-11T19:07:15.000Z</time>
      </trkpt>
      <trkpt lat="-49.230076968669891357421875" lon="-72.9918278194963932037353515625">
        <ele>524.5999755859375</ele>
        <time>2023-01-11T19:07:16.000Z</time>
      </trkpt>
      <trkpt lat="-49.23011116683483123779296875" lon="-72.99171776510775089263916015625">
        <ele>524.5999755859375</ele>
        <time>2023-01-11T19:07:21.000Z</time>
      </trkpt>
      <trkpt lat="-49.23012516461312770843505859375" lon="-72.9916434176266193389892578125">
        <ele>524.5999755859375</ele>
        <time>2023-01-11T19:07:27.000Z</time>
      </trkpt>
      <trkpt lat="-49.2301391623914241790771484375" lon="-72.99150151200592517852783203125">
        <ele>524.5999755859375</ele>
        <time>2023-01-11T19:07:33.000Z</time>
      </trkpt>
      <trkpt lat="-49.2302124202251434326171875" lon="-72.9914409108459949493408203125">
        <ele>524.5999755859375</ele>
        <time>2023-01-11T19:07:43.000Z</time>
      </trkpt>
      <trkpt lat="-49.2302001826465129852294921875" lon="-72.99142439849674701690673828125">
        <ele>524.5999755859375</ele>
        <time>2023-01-11T19:07:45.000Z</time>
      </trkpt>
      <trkpt lat="-49.23019029200077056884765625" lon="-72.9913683235645294189453125">
        <ele>524.5999755859375</ele>
        <time>2023-01-11T19:07:49.000Z</time>
      </trkpt>
      <trkpt lat="-49.23016958869993686676025390625" lon="-72.9912910424172878265380859375">
        <ele>524.5999755859375</ele>
        <time>2023-01-11T19:07:54.000Z</time>
      </trkpt>
      <trkpt lat="-49.2301807366311550140380859375" lon="-72.99124770797789096832275390625">
        <ele>524.5999755859375</ele>
        <time>2023-01-11T19:07:56.000Z</time>
      </trkpt>
      <trkpt lat="-49.23013187013566493988037109375" lon="-72.99122272990643978118896484375">
        <ele>524.5999755859375</ele>
        <time>2023-01-11T19:08:01.000Z</time>
      </trkpt>
      <trkpt lat="-49.23009105026721954345703125" lon="-72.9911549203097820281982421875">
        <ele>520.5999755859375</ele>
        <time>2023-01-11T19:08:07.000Z</time>
      </trkpt>
      <trkpt lat="-49.230083338916301727294921875" lon="-72.99114100635051727294921875">
        <ele>520.5999755859375</ele>
        <time>2023-01-11T19:08:08.000Z</time>
      </trkpt>
      <trkpt lat="-49.23003011383116245269775390625" lon="-72.99103732220828533172607421875">
        <ele>520.4000244140625</ele>
        <time>2023-01-11T19:08:14.000Z</time>
      </trkpt>
      <trkpt lat="-49.2300100810825824737548828125" lon="-72.991004548966884613037109375">
        <ele>520.20001220703125</ele>
        <time>2023-01-11T19:08:16.000Z</time>
      </trkpt>
      <trkpt lat="-49.23003740608692169189453125" lon="-72.99077077768743038177490234375">
        <ele>520.20001220703125</ele>
        <time>2023-01-11T19:08:24.000Z</time>
      </trkpt>
      <trkpt lat="-49.2300583608448505401611328125" lon="-72.9907180555164813995361328125">
        <ele>520</ele>
        <time>2023-01-11T19:08:28.000Z</time>
      </trkpt>
      <trkpt lat="-49.23006682656705379486083984375" lon="-72.99069701693952083587646484375">
        <ele>520</ele>
        <time>2023-01-11T19:08:31.000Z</time>
      </trkpt>
      <trkpt lat="-49.23006012104451656341552734375" lon="-72.99064873717725276947021484375">
        <ele>520</ele>
        <time>2023-01-11T19:08:33.000Z</time>
      </trkpt>
      <trkpt lat="-49.23004989512264728546142578125" lon="-72.990505993366241455078125">
        <ele>520</ele>
        <time>2023-01-11T19:08:40.000Z</time>
      </trkpt>
      <trkpt lat="-49.23010722734034061431884765625" lon="-72.99028144218027591705322265625">
        <ele>520.20001220703125</ele>
        <time>2023-01-11T19:08:48.000Z</time>
      </trkpt>
      <trkpt lat="-49.23010052181780338287353515625" lon="-72.9902805201709270477294921875">
        <ele>519.79998779296875</ele>
        <time>2023-01-11T19:08:55.000Z</time>
      </trkpt>
      <trkpt lat="-49.2301116697490215301513671875" lon="-72.9901769198477268218994140625">
        <ele>519.79998779296875</ele>
        <time>2023-01-11T19:09:05.000Z</time>
      </trkpt>
      <trkpt lat="-49.230130612850189208984375" lon="-72.99010156653821468353271484375">
        <ele>519.5999755859375</ele>
        <time>2023-01-11T19:09:10.000Z</time>
      </trkpt>
      <trkpt lat="-49.2301294393837451934814453125" lon="-72.99008983187377452850341796875">
        <ele>519.5999755859375</ele>
        <time>2023-01-11T19:09:11.000Z</time>
      </trkpt>
      <trkpt lat="-49.230124242603778839111328125" lon="-72.99005982466042041778564453125">
        <ele>519.5999755859375</ele>
        <time>2023-01-11T19:09:12.000Z</time>
      </trkpt>
      <trkpt lat="-49.23013371415436267852783203125" lon="-72.9900364391505718231201171875">
        <ele>519.5999755859375</ele>
        <time>2023-01-11T19:09:14.000Z</time>
      </trkpt>
      <trkpt lat="-49.2301757074892520904541015625" lon="-72.99000903032720088958740234375">
        <ele>520</ele>
        <time>2023-01-11T19:09:21.000Z</time>
      </trkpt>
      <trkpt lat="-49.23019641079008579254150390625" lon="-72.98995505087077617645263671875">
        <ele>520.5999755859375</ele>
        <time>2023-01-11T19:09:26.000Z</time>
      </trkpt>
      <trkpt lat="-49.2301988415420055389404296875" lon="-72.9899137280881404876708984375">
        <ele>520.5999755859375</ele>
        <time>2023-01-11T19:09:28.000Z</time>
      </trkpt>
      <trkpt lat="-49.23024234361946582794189453125" lon="-72.98978690989315509796142578125">
        <ele>520.79998779296875</ele>
        <time>2023-01-11T19:09:36.000Z</time>
      </trkpt>
      <trkpt lat="-49.23017176799476146697998046875" lon="-72.98965263180434703826904296875">
        <ele>519.79998779296875</ele>
        <time>2023-01-11T19:09:43.000Z</time>
      </trkpt>
      <trkpt lat="-49.2301995120942592620849609375" lon="-72.9894993267953395843505859375">
        <ele>519.79998779296875</ele>
        <time>2023-01-11T19:09:51.000Z</time>
      </trkpt>
      <trkpt lat="-49.23021770082414150238037109375" lon="-72.98949890770018100738525390625">
        <ele>519.5999755859375</ele>
        <time>2023-01-11T19:09:54.000Z</time>
      </trkpt>
      <trkpt lat="-49.2302410863339900970458984375" lon="-72.98944341950118541717529296875">
        <ele>519.5999755859375</ele>
        <time>2023-01-11T19:09:57.000Z</time>
      </trkpt>
      <trkpt lat="-49.23026405274868011474609375" lon="-72.98926287330687046051025390625">
        <ele>519.20001220703125</ele>
        <time>2023-01-11T19:10:06.000Z</time>
      </trkpt>
      <trkpt lat="-49.230291210114955902099609375" lon="-72.9891731031239032745361328125">
        <ele>519.20001220703125</ele>
        <time>2023-01-11T19:10:11.000Z</time>
      </trkpt>
      <trkpt lat="-49.230315349996089935302734375" lon="-72.9891608655452728271484375">
        <ele>519.20001220703125</ele>
        <time>2023-01-11T19:10:13.000Z</time>
      </trkpt>
      <trkpt lat="-49.23039925284683704376220703125" lon="-72.989051230251789093017578125">
        <ele>519.4000244140625</ele>
        <time>2023-01-11T19:10:21.000Z</time>
      </trkpt>
      <trkpt lat="-49.2304269969463348388671875" lon="-72.98893011175096035003662109375">
        <ele>519.4000244140625</ele>
        <time>2023-01-11T19:10:29.000Z</time>
      </trkpt>
      <trkpt lat="-49.23048843629658222198486328125" lon="-72.9888509027659893035888671875">
        <ele>519.79998779296875</ele>
        <time>2023-01-11T19:10:37.000Z</time>
      </trkpt>
      <trkpt lat="-49.23057979904115200042724609375" lon="-72.9887721128761768341064453125">
        <ele>520.20001220703125</ele>
        <time>2023-01-11T19:10:47.000Z</time>
      </trkpt>
      <trkpt lat="-49.23061366192996501922607421875" lon="-72.988693155348300933837890625">
        <ele>520</ele>
        <time>2023-01-11T19:10:52.000Z</time>
      </trkpt>
      <trkpt lat="-49.2306206189095973968505859375" lon="-72.9886608012020587921142578125">
        <ele>520.20001220703125</ele>
        <time>2023-01-11T19:10:54.000Z</time>
      </trkpt>
      <trkpt lat="-49.2306923680007457733154296875" lon="-72.98855979926884174346923828125">
        <ele>520.4000244140625</ele>
        <time>2023-01-11T19:11:01.000Z</time>
      </trkpt>
      <trkpt lat="-49.23073251731693744659423828125" lon="-72.98854974098503589630126953125">
        <ele>520.5999755859375</ele>
        <time>2023-01-11T19:11:03.000Z</time>
      </trkpt>
      <trkpt lat="-49.2307483591139316558837890625" lon="-72.9884817637503147125244140625">
        <ele>520.20001220703125</ele>
        <time>2023-01-11T19:11:10.000Z</time>
      </trkpt>
      <trkpt lat="-49.23072732053697109222412109375" lon="-72.988362573087215423583984375">
        <ele>519.4000244140625</ele>
        <time>2023-01-11T19:11:18.000Z</time>
      </trkpt>
      <trkpt lat="-49.23073503188788890838623046875" lon="-72.98830331303179264068603515625">
        <ele>519.4000244140625</ele>
        <time>2023-01-11T19:11:21.000Z</time>
      </trkpt>
      <trkpt lat="-49.23076973296701908111572265625" lon="-72.9881528578698635101318359375">
        <ele>518.79998779296875</ele>
        <time>2023-01-11T19:11:28.000Z</time>
      </trkpt>
      <trkpt lat="-49.230816252529621124267578125" lon="-72.98807884566485881805419921875">
        <ele>518.4000244140625</ele>
        <time>2023-01-11T19:11:34.000Z</time>
      </trkpt>
      <trkpt lat="-49.23082061111927032470703125" lon="-72.98806317150592803955078125">
        <ele>518.4000244140625</ele>
        <time>2023-01-11T19:11:35.000Z</time>
      </trkpt>
      <trkpt lat="-49.23082505352795124053955078125" lon="-72.9880495928227901458740234375">
        <ele>518.4000244140625</ele>
        <time>2023-01-11T19:11:36.000Z</time>
      </trkpt>
      <trkpt lat="-49.23091826029121875762939453125" lon="-72.9879245348274707794189453125">
        <ele>518.20001220703125</ele>
        <time>2023-01-11T19:11:44.000Z</time>
      </trkpt>
      <trkpt lat="-49.23098464496433734893798828125" lon="-72.9878205992281436920166015625">
        <ele>518.20001220703125</ele>
        <time>2023-01-11T19:11:52.000Z</time>
      </trkpt>
      <trkpt lat="-49.23099587671458721160888671875" lon="-72.987767793238162994384765625">
        <ele>518.20001220703125</ele>
        <time>2023-01-11T19:11:54.000Z</time>
      </trkpt>
      <trkpt lat="-49.2310236208140850067138671875" lon="-72.98766762949526309967041015625">
        <ele>518.20001220703125</ele>
        <time>2023-01-11T19:12:00.000Z</time>
      </trkpt>
      <trkpt lat="-49.23105572350323200225830078125" lon="-72.98765757121145725250244140625">
        <ele>518.4000244140625</ele>
        <time>2023-01-11T19:12:02.000Z</time>
      </trkpt>
      <trkpt lat="-49.231122024357318878173828125" lon="-72.98755547963082790374755859375">
        <ele>518.79998779296875</ele>
        <time>2023-01-11T19:12:10.000Z</time>
      </trkpt>
      <trkpt lat="-49.23114390112459659576416015625" lon="-72.98753838054835796356201171875">
        <ele>518.79998779296875</ele>
        <time>2023-01-11T19:12:12.000Z</time>
      </trkpt>
      <trkpt lat="-49.23116401769220829010009765625" lon="-72.987530417740345001220703125">
        <ele>519.4000244140625</ele>
        <time>2023-01-11T19:12:14.000Z</time>
      </trkpt>
      <trkpt lat="-49.2311805300414562225341796875" lon="-72.98752999864518642425537109375">
        <ele>519.4000244140625</ele>
        <time>2023-01-11T19:12:15.000Z</time>
      </trkpt>
      <trkpt lat="-49.231230653822422027587890625" lon="-72.987494878470897674560546875">
        <ele>519.20001220703125</ele>
        <time>2023-01-11T19:12:22.000Z</time>
      </trkpt>
      <trkpt lat="-49.231299050152301788330078125" lon="-72.9875741712749004364013671875">
        <ele>519</ele>
        <time>2023-01-11T19:12:31.000Z</time>
      </trkpt>
      <trkpt lat="-49.23130634240806102752685546875" lon="-72.98755045048892498016357421875">
        <ele>518.79998779296875</ele>
        <time>2023-01-11T19:12:35.000Z</time>
      </trkpt>
      <trkpt lat="-49.23131757415831089019775390625" lon="-72.9875181801617145538330078125">
        <ele>518.5999755859375</ele>
        <time>2023-01-11T19:12:38.000Z</time>
      </trkpt>
      <trkpt lat="-49.23132629133760929107666015625" lon="-72.98750937916338443756103515625">
        <ele>518.4000244140625</ele>
        <time>2023-01-11T19:12:39.000Z</time>
      </trkpt>
      <trkpt lat="-49.23135814256966114044189453125" lon="-72.98739840276539325714111328125">
        <ele>517.79998779296875</ele>
        <time>2023-01-11T19:12:46.000Z</time>
      </trkpt>
      <trkpt lat="-49.2313689552247524261474609375" lon="-72.98732849769294261932373046875">
        <ele>518</ele>
        <time>2023-01-11T19:12:51.000Z</time>
      </trkpt>
      <trkpt lat="-49.23135646618902683258056640625" lon="-72.98732263036072254180908203125">
        <ele>518</ele>
        <time>2023-01-11T19:12:55.000Z</time>
      </trkpt>
      <trkpt lat="-49.23137591220438480377197265625" lon="-72.98731341026723384857177734375">
        <ele>517.20001220703125</ele>
        <time>2023-01-11T19:12:59.000Z</time>
      </trkpt>
      <trkpt lat="-49.2313873954117298126220703125" lon="-72.987314164638519287109375">
        <ele>517.20001220703125</ele>
        <time>2023-01-11T19:13:01.000Z</time>
      </trkpt>
      <trkpt lat="-49.23139686696231365203857421875" lon="-72.98732263036072254180908203125">
        <ele>517.5999755859375</ele>
        <time>2023-01-11T19:13:16.000Z</time>
      </trkpt>
      <trkpt lat="-49.231396950781345367431640625" lon="-72.98731751739978790283203125">
        <ele>517.79998779296875</ele>
        <time>2023-01-11T19:13:17.000Z</time>
      </trkpt>
      <trkpt lat="-49.23138462938368320465087890625" lon="-72.987258844077587127685546875">
        <ele>518</ele>
        <time>2023-01-11T19:13:20.000Z</time>
      </trkpt>
      <trkpt lat="-49.2313696257770061492919921875" lon="-72.98712632618844509124755859375">
        <ele>517</ele>
        <time>2023-01-11T19:13:27.000Z</time>
      </trkpt>
      <trkpt lat="-49.2313615791499614715576171875" lon="-72.98711291514337062835693359375">
        <ele>517</ele>
        <time>2023-01-11T19:13:28.000Z</time>
      </trkpt>
      <trkpt lat="-49.23132595606148242950439453125" lon="-72.987066395580768585205078125">
        <ele>516.20001220703125</ele>
        <time>2023-01-11T19:13:33.000Z</time>
      </trkpt>
      <trkpt lat="-49.23132243566215038299560546875" lon="-72.98705357126891613006591796875">
        <ele>516.20001220703125</ele>
        <time>2023-01-11T19:13:34.000Z</time>
      </trkpt>
      <trkpt lat="-49.23130609095096588134765625" lon="-72.9869911260902881622314453125">
        <ele>515.20001220703125</ele>
        <time>2023-01-11T19:13:37.000Z</time>
      </trkpt>
      <trkpt lat="-49.23132813535630702972412109375" lon="-72.98691962845623493194580078125">
        <ele>515.4000244140625</ele>
        <time>2023-01-11T19:13:41.000Z</time>
      </trkpt>
      <trkpt lat="-49.231335259974002838134765625" lon="-72.9867996834218502044677734375">
        <ele>515</ele>
        <time>2023-01-11T19:13:46.000Z</time>
      </trkpt>
      <trkpt lat="-49.23135646618902683258056640625" lon="-72.9867638088762760162353515625">
        <ele>514.79998779296875</ele>
        <time>2023-01-11T19:13:49.000Z</time>
      </trkpt>
      <trkpt lat="-49.23138094134628772735595703125" lon="-72.98665526323020458221435546875">
        <ele>514.4000244140625</ele>
        <time>2023-01-11T19:13:56.000Z</time>
      </trkpt>
      <trkpt lat="-49.23140340484678745269775390625" lon="-72.986510507762432098388671875">
        <ele>514.20001220703125</ele>
        <time>2023-01-11T19:14:03.000Z</time>
      </trkpt>
      <trkpt lat="-49.23142586834728717803955078125" lon="-72.98649919219315052032470703125">
        <ele>514</ele>
        <time>2023-01-11T19:14:06.000Z</time>
      </trkpt>
      <trkpt lat="-49.2314229346811771392822265625" lon="-72.9864786565303802490234375">
        <ele>514</ele>
        <time>2023-01-11T19:14:07.000Z</time>
      </trkpt>
      <trkpt lat="-49.231413714587688446044921875" lon="-72.986458204686641693115234375">
        <ele>513.79998779296875</ele>
        <time>2023-01-11T19:14:08.000Z</time>
      </trkpt>
      <trkpt lat="-49.23140533268451690673828125" lon="-72.9863054864108562469482421875">
        <ele>513.4000244140625</ele>
        <time>2023-01-11T19:14:16.000Z</time>
      </trkpt>
      <trkpt lat="-49.23139619641005992889404296875" lon="-72.986297272145748138427734375">
        <ele>513</ele>
        <time>2023-01-11T19:14:19.000Z</time>
      </trkpt>
      <trkpt lat="-49.23136300407350063323974609375" lon="-72.9862330667674541473388671875">
        <ele>513</ele>
        <time>2023-01-11T19:14:23.000Z</time>
      </trkpt>
      <trkpt lat="-49.231354035437107086181640625" lon="-72.98620532266795635223388671875">
        <ele>512.79998779296875</ele>
        <time>2023-01-11T19:14:25.000Z</time>
      </trkpt>
      <trkpt lat="-49.23128773458302021026611328125" lon="-72.98607137985527515411376953125">
        <ele>512</ele>
        <time>2023-01-11T19:14:32.000Z</time>
      </trkpt>
      <trkpt lat="-49.231287650763988494873046875" lon="-72.98598471097648143768310546875">
        <ele>511.79998779296875</ele>
        <time>2023-01-11T19:14:36.000Z</time>
      </trkpt>
      <trkpt lat="-49.2313381098210811614990234375" lon="-72.98594213090837001800537109375">
        <ele>511.79998779296875</ele>
        <time>2023-01-11T19:14:39.000Z</time>
      </trkpt>
      <trkpt lat="-49.23135478980839252471923828125" lon="-72.98590667545795440673828125">
        <ele>511.79998779296875</ele>
        <time>2023-01-11T19:14:40.000Z</time>
      </trkpt>
      <trkpt lat="-49.23133182339370250701904296875" lon="-72.985756807029247283935546875">
        <ele>511.20001220703125</ele>
        <time>2023-01-11T19:14:47.000Z</time>
      </trkpt>
      <trkpt lat="-49.23134154640138149261474609375" lon="-72.98569687642157077789306640625">
        <ele>511</ele>
        <time>2023-01-11T19:14:51.000Z</time>
      </trkpt>
      <trkpt lat="-49.231343977153301239013671875" lon="-72.98566770739853382110595703125">
        <ele>511</ele>
        <time>2023-01-11T19:14:53.000Z</time>
      </trkpt>
      <trkpt lat="-49.23129410482943058013916015625" lon="-72.98557517118752002716064453125">
        <ele>511</ele>
        <time>2023-01-11T19:14:58.000Z</time>
      </trkpt>
      <trkpt lat="-49.23130768351256847381591796875" lon="-72.98552638851106166839599609375">
        <ele>511</ele>
        <time>2023-01-11T19:15:01.000Z</time>
      </trkpt>
      <trkpt lat="-49.231329895555973052978515625" lon="-72.985510714352130889892578125">
        <ele>511</ele>
        <time>2023-01-11T19:15:02.000Z</time>
      </trkpt>
      <trkpt lat="-49.23132059164345264434814453125" lon="-72.9855041764676570892333984375">
        <ele>510.79998779296875</ele>
        <time>2023-01-11T19:15:03.000Z</time>
      </trkpt>
      <trkpt lat="-49.23132360912859439849853515625" lon="-72.985490262508392333984375">
        <ele>510.79998779296875</ele>
        <time>2023-01-11T19:15:05.000Z</time>
      </trkpt>
      <trkpt lat="-49.231325872242450714111328125" lon="-72.98548146151006221771240234375">
        <ele>510.79998779296875</ele>
        <time>2023-01-11T19:15:06.000Z</time>
      </trkpt>
      <trkpt lat="-49.23131975345313549041748046875" lon="-72.9854652844369411468505859375">
        <ele>510.600006103515625</ele>
        <time>2023-01-11T19:15:07.000Z</time>
      </trkpt>
      <trkpt lat="-49.2313250340521335601806640625" lon="-72.98541490919888019561767578125">
        <ele>510.600006103515625</ele>
        <time>2023-01-11T19:15:10.000Z</time>
      </trkpt>
      <trkpt lat="-49.23132545314729213714599609375" lon="-72.98536646179854869842529296875">
        <ele>510.600006103515625</ele>
        <time>2023-01-11T19:15:12.000Z</time>
      </trkpt>
      <trkpt lat="-49.231346659362316131591796875" lon="-72.98523587174713611602783203125">
        <ele>510.79998779296875</ele>
        <time>2023-01-11T19:15:20.000Z</time>
      </trkpt>
      <trkpt lat="-49.231349341571331024169921875" lon="-72.98512288369238376617431640625">
        <ele>510.79998779296875</ele>
        <time>2023-01-11T19:15:27.000Z</time>
      </trkpt>
      <trkpt lat="-49.2313806898891925811767578125" lon="-72.98506043851375579833984375">
        <ele>511</ele>
        <time>2023-01-11T19:15:31.000Z</time>
      </trkpt>
      <trkpt lat="-49.2314018122851848602294921875" lon="-72.9850264079868793487548828125">
        <ele>511</ele>
        <time>2023-01-11T19:15:33.000Z</time>
      </trkpt>
      <trkpt lat="-49.2314179055392742156982421875" lon="-72.98490981571376323699951171875">
        <ele>511.20001220703125</ele>
        <time>2023-01-11T19:15:40.000Z</time>
      </trkpt>
      <trkpt lat="-49.23140910454094409942626953125" lon="-72.984892465174198150634765625">
        <ele>511.20001220703125</ele>
        <time>2023-01-11T19:15:41.000Z</time>
      </trkpt>
      <trkpt lat="-49.23141203820705413818359375" lon="-72.98483253456652164459228515625">
        <ele>511</ele>
        <time>2023-01-11T19:15:44.000Z</time>
      </trkpt>
      <trkpt lat="-49.2313979566097259521484375" lon="-72.9847648926079273223876953125">
        <ele>510.79998779296875</ele>
        <time>2023-01-11T19:15:47.000Z</time>
      </trkpt>
      <trkpt lat="-49.23141463659703731536865234375" lon="-72.98474838025867938995361328125">
        <ele>510.79998779296875</ele>
        <time>2023-01-11T19:15:48.000Z</time>
      </trkpt>
      <trkpt lat="-49.23142855055630207061767578125" lon="-72.98468149267137050628662109375">
        <ele>510.79998779296875</ele>
        <time>2023-01-11T19:15:52.000Z</time>
      </trkpt>
      <trkpt lat="-49.23142938874661922454833984375" lon="-72.9846628010272979736328125">
        <ele>510.600006103515625</ele>
        <time>2023-01-11T19:15:54.000Z</time>
      </trkpt>
      <trkpt lat="-49.231419079005718231201171875" lon="-72.98465249128639698028564453125">
        <ele>510.600006103515625</ele>
        <time>2023-01-11T19:15:55.000Z</time>
      </trkpt>
      <trkpt lat="-49.2314346693456172943115234375" lon="-72.9846421815454959869384765625">
        <ele>510.399993896484375</ele>
        <time>2023-01-11T19:15:57.000Z</time>
      </trkpt>
      <trkpt lat="-49.23141933046281337738037109375" lon="-72.9846279323101043701171875">
        <ele>510</ele>
        <time>2023-01-11T19:15:59.000Z</time>
      </trkpt>
      <trkpt lat="-49.2314259521663188934326171875" lon="-72.9846118390560150146484375">
        <ele>509.79998779296875</ele>
        <time>2023-01-11T19:16:00.000Z</time>
      </trkpt>
      <trkpt lat="-49.23142201267182826995849609375" lon="-72.9845818318426609039306640625">
        <ele>509.600006103515625</ele>
        <time>2023-01-11T19:16:02.000Z</time>
      </trkpt>
      <trkpt lat="-49.231424443423748016357421875" lon="-72.9845603741705417633056640625">
        <ele>509.399993896484375</ele>
        <time>2023-01-11T19:16:03.000Z</time>
      </trkpt>
      <trkpt lat="-49.2314313165843486785888671875" lon="-72.98452592454850673675537109375">
        <ele>509.20001220703125</ele>
        <time>2023-01-11T19:16:05.000Z</time>
      </trkpt>
      <trkpt lat="-49.2315000481903553009033203125" lon="-72.98436029814183712005615234375">
        <ele>509.20001220703125</ele>
        <time>2023-01-11T19:16:15.000Z</time>
      </trkpt>
      <trkpt lat="-49.2314909957349300384521484375" lon="-72.984240688383579254150390625">
        <ele>509.600006103515625</ele>
        <time>2023-01-11T19:16:22.000Z</time>
      </trkpt>
      <trkpt lat="-49.23150801099836826324462890625" lon="-72.98411521129310131072998046875">
        <ele>509.399993896484375</ele>
        <time>2023-01-11T19:16:29.000Z</time>
      </trkpt>
      <trkpt lat="-49.231519997119903564453125" lon="-72.984018735587596893310546875">
        <ele>509.600006103515625</ele>
        <time>2023-01-11T19:16:34.000Z</time>
      </trkpt>
      <trkpt lat="-49.23152226023375988006591796875" lon="-72.98393483273684978485107421875">
        <ele>510</ele>
        <time>2023-01-11T19:16:37.000Z</time>
      </trkpt>
      <trkpt lat="-49.23154153861105442047119140625" lon="-72.98390750773251056671142578125">
        <ele>510.79998779296875</ele>
        <time>2023-01-11T19:16:40.000Z</time>
      </trkpt>
      <trkpt lat="-49.2315704561769962310791015625" lon="-72.9838623292744159698486328125">
        <ele>511.20001220703125</ele>
        <time>2023-01-11T19:16:43.000Z</time>
      </trkpt>
      <trkpt lat="-49.23159166239202022552490234375" lon="-72.98375629819929599761962890625">
        <ele>511.20001220703125</ele>
        <time>2023-01-11T19:16:49.000Z</time>
      </trkpt>
      <trkpt lat="-49.2316338233649730682373046875" lon="-72.9836343415081501007080078125">
        <ele>511.79998779296875</ele>
        <time>2023-01-11T19:16:55.000Z</time>
      </trkpt>
      <trkpt lat="-49.23163742758333683013916015625" lon="-72.98361145891249179840087890625">
        <ele>511.79998779296875</ele>
        <time>2023-01-11T19:16:57.000Z</time>
      </trkpt>
      <trkpt lat="-49.2316401936113834381103515625" lon="-72.98359620384871959686279296875">
        <ele>512.20001220703125</ele>
        <time>2023-01-11T19:16:58.000Z</time>
      </trkpt>
      <trkpt lat="-49.2316448874771595001220703125" lon="-72.98356401734054088592529296875">
        <ele>512.20001220703125</ele>
        <time>2023-01-11T19:17:00.000Z</time>
      </trkpt>
      <trkpt lat="-49.23164329491555690765380859375" lon="-72.98353300429880619049072265625">
        <ele>512.79998779296875</ele>
        <time>2023-01-11T19:17:02.000Z</time>
      </trkpt>
      <trkpt lat="-49.23164748586714267730712890625" lon="-72.983523197472095489501953125">
        <ele>512.79998779296875</ele>
        <time>2023-01-11T19:17:03.000Z</time>
      </trkpt>
      <trkpt lat="-49.23165343701839447021484375" lon="-72.98348598182201385498046875">
        <ele>513</ele>
        <time>2023-01-11T19:17:05.000Z</time>
      </trkpt>
      <trkpt lat="-49.23166089691221714019775390625" lon="-72.98345924355089664459228515625">
        <ele>513</ele>
        <time>2023-01-11T19:17:07.000Z</time>
      </trkpt>
      <trkpt lat="-49.2316666804254055023193359375" lon="-72.9833875782787799835205078125">
        <ele>512.79998779296875</ele>
        <time>2023-01-11T19:17:11.000Z</time>
      </trkpt>
      <trkpt lat="-49.23167355358600616455078125" lon="-72.9833351075649261474609375">
        <ele>512.79998779296875</ele>
        <time>2023-01-11T19:17:14.000Z</time>
      </trkpt>
      <trkpt lat="-49.23170708119869232177734375" lon="-72.9831968061625957489013671875">
        <ele>513</ele>
        <time>2023-01-11T19:17:23.000Z</time>
      </trkpt>
      <trkpt lat="-49.231724180281162261962890625" lon="-72.98313721083104610443115234375">
        <ele>512.79998779296875</ele>
        <time>2023-01-11T19:17:27.000Z</time>
      </trkpt>
      <trkpt lat="-49.23174069263041019439697265625" lon="-72.9830740951001644134521484375">
        <ele>512.5999755859375</ele>
        <time>2023-01-11T19:17:31.000Z</time>
      </trkpt>
      <trkpt lat="-49.2317585460841655731201171875" lon="-72.98302690498530864715576171875">
        <ele>512.5999755859375</ele>
        <time>2023-01-11T19:17:37.000Z</time>
      </trkpt>
      <trkpt lat="-49.23175510950386524200439453125" lon="-72.98293001018464565277099609375">
        <ele>513</ele>
        <time>2023-01-11T19:17:45.000Z</time>
      </trkpt>
      <trkpt lat="-49.23175779171288013458251953125" lon="-72.9829161800444126129150390625">
        <ele>513</ele>
        <time>2023-01-11T19:17:46.000Z</time>
      </trkpt>
      <trkpt lat="-49.23177153803408145904541015625" lon="-72.9829349555075168609619140625">
        <ele>513</ele>
        <time>2023-01-11T19:17:49.000Z</time>
      </trkpt>
      <trkpt lat="-49.2317981086671352386474609375" lon="-72.98301718197762966156005859375">
        <ele>512.4000244140625</ele>
        <time>2023-01-11T19:17:58.000Z</time>
      </trkpt>
      <trkpt lat="-49.23180188052356243133544921875" lon="-72.98302254639565944671630859375">
        <ele>512.5999755859375</ele>
        <time>2023-01-11T19:18:10.000Z</time>
      </trkpt>
      <trkpt lat="-49.231799952685832977294921875" lon="-72.983020953834056854248046875">
        <ele>512.4000244140625</ele>
        <time>2023-01-11T19:18:17.000Z</time>
      </trkpt>
      <trkpt lat="-49.23179919831454753875732421875" lon="-72.9830211214721202850341796875">
        <ele>512.4000244140625</ele>
        <time>2023-01-11T19:18:25.000Z</time>
      </trkpt>
      <trkpt lat="-49.2317997850477695465087890625" lon="-72.98302464187145233154296875">
        <ele>512.4000244140625</ele>
        <time>2023-01-11T19:18:32.000Z</time>
      </trkpt>
      <trkpt lat="-49.2318359948694705963134765625" lon="-72.98304735682904720306396484375">
        <ele>512.4000244140625</ele>
        <time>2023-01-11T19:19:02.000Z</time>
      </trkpt>
      <trkpt lat="-49.23184144310653209686279296875" lon="-72.98304752446711063385009765625">
        <ele>512.4000244140625</ele>
        <time>2023-01-11T19:19:12.000Z</time>
      </trkpt>
      <trkpt lat="-49.2318393476307392120361328125" lon="-72.98301517032086849212646484375">
        <ele>512.4000244140625</ele>
        <time>2023-01-11T19:19:25.000Z</time>
      </trkpt>
      <trkpt lat="-49.23183892853558063507080078125" lon="-72.9829416610300540924072265625">
        <ele>512.4000244140625</ele>
        <time>2023-01-11T19:19:29.000Z</time>
      </trkpt>
      <trkpt lat="-49.23184663988649845123291015625" lon="-72.98288139514625072479248046875">
        <ele>512.4000244140625</ele>
        <time>2023-01-11T19:19:32.000Z</time>
      </trkpt>
      <trkpt lat="-49.23186440952122211456298828125" lon="-72.98285423777997493743896484375">
        <ele>512.4000244140625</ele>
        <time>2023-01-11T19:19:35.000Z</time>
      </trkpt>
      <trkpt lat="-49.23190330155193805694580078125" lon="-72.9828093945980072021484375">
        <ele>512.4000244140625</ele>
        <time>2023-01-11T19:19:41.000Z</time>
      </trkpt>
      <trkpt lat="-49.23191805370151996612548828125" lon="-72.9827785491943359375">
        <ele>512.4000244140625</ele>
        <time>2023-01-11T19:19:44.000Z</time>
      </trkpt>
      <trkpt lat="-49.231968931853771209716796875" lon="-72.982674948871135711669921875">
        <ele>512.4000244140625</ele>
        <time>2023-01-11T19:19:51.000Z</time>
      </trkpt>
      <trkpt lat="-49.23200271092355251312255859375" lon="-72.9825718514621257781982421875">
        <ele>512.4000244140625</ele>
        <time>2023-01-11T19:19:56.000Z</time>
      </trkpt>
      <trkpt lat="-49.23201343975961208343505859375" lon="-72.98256506212055683135986328125">
        <ele>512.4000244140625</ele>
        <time>2023-01-11T19:19:57.000Z</time>
      </trkpt>
      <trkpt lat="-49.23202550970017910003662109375" lon="-72.9825369827449321746826171875">
        <ele>512.4000244140625</ele>
        <time>2023-01-11T19:19:59.000Z</time>
      </trkpt>
      <trkpt lat="-49.2320193909108638763427734375" lon="-72.98248643986880779266357421875">
        <ele>512.4000244140625</ele>
        <time>2023-01-11T19:20:03.000Z</time>
      </trkpt>
      <trkpt lat="-49.23204193823039531707763671875" lon="-72.9824052192270755767822265625">
        <ele>512.4000244140625</ele>
        <time>2023-01-11T19:20:08.000Z</time>
      </trkpt>
      <trkpt lat="-49.23206071369349956512451171875" lon="-72.9823988489806652069091796875">
        <ele>512.4000244140625</ele>
        <time>2023-01-11T19:20:09.000Z</time>
      </trkpt>
      <trkpt lat="-49.232110418379306793212890625" lon="-72.9822821728885173797607421875">
        <ele>512.4000244140625</ele>
        <time>2023-01-11T19:20:16.000Z</time>
      </trkpt>
      <trkpt lat="-49.23214495182037353515625" lon="-72.9822112619876861572265625">
        <ele>512.4000244140625</ele>
        <time>2023-01-11T19:20:21.000Z</time>
      </trkpt>
      <trkpt lat="-49.23215928487479686737060546875" lon="-72.9821889661252498626708984375">
        <ele>512.4000244140625</ele>
        <time>2023-01-11T19:20:23.000Z</time>
      </trkpt>
      <trkpt lat="-49.23218459822237491607666015625" lon="-72.9821473918855190277099609375">
        <ele>512.4000244140625</ele>
        <time>2023-01-11T19:20:26.000Z</time>
      </trkpt>
      <trkpt lat="-49.23220270313322544097900390625" lon="-72.982114367187023162841796875">
        <ele>512.4000244140625</ele>
        <time>2023-01-11T19:20:28.000Z</time>
      </trkpt>
      <trkpt lat="-49.232243187725543975830078125" lon="-72.98206432722508907318115234375">
        <ele>512.4000244140625</ele>
        <time>2023-01-11T19:20:33.000Z</time>
      </trkpt>
      <trkpt lat="-49.23226254992187023162841796875" lon="-72.98203800804913043975830078125">
        <ele>512.4000244140625</ele>
        <time>2023-01-11T19:20:36.000Z</time>
      </trkpt>
      <trkpt lat="-49.23227579332888126373291015625" lon="-72.98200028948485851287841796875">
        <ele>512.4000244140625</ele>
        <time>2023-01-11T19:20:40.000Z</time>
      </trkpt>
      <trkpt lat="-49.232276380062103271484375" lon="-72.98196374438703060150146484375">
        <ele>512.4000244140625</ele>
        <time>2023-01-11T19:20:42.000Z</time>
      </trkpt>
      <trkpt lat="-49.23228853382170200347900390625" lon="-72.9819009639322757720947265625">
        <ele>512.4000244140625</ele>
        <time>2023-01-11T19:20:45.000Z</time>
      </trkpt>
      <trkpt lat="-49.2322980053722858428955078125" lon="-72.98186986707150936126708984375">
        <ele>512.4000244140625</ele>
        <time>2023-01-11T19:20:46.000Z</time>
      </trkpt>
      <trkpt lat="-49.23231921158730983734130859375" lon="-72.981814630329608917236328125">
        <ele>512.4000244140625</ele>
        <time>2023-01-11T19:20:49.000Z</time>
      </trkpt>
      <trkpt lat="-49.23236045055091381072998046875" lon="-72.981707341969013214111328125">
        <ele>512.4000244140625</ele>
        <time>2023-01-11T19:20:55.000Z</time>
      </trkpt>
      <trkpt lat="-49.2323794774711132049560546875" lon="-72.9816806875169277191162109375">
        <ele>512.4000244140625</ele>
        <time>2023-01-11T19:20:58.000Z</time>
      </trkpt>
      <trkpt lat="-49.232378639280796051025390625" lon="-72.9816260375082492828369140625">
        <ele>512.4000244140625</ele>
        <time>2023-01-11T19:21:02.000Z</time>
      </trkpt>
      <trkpt lat="-49.23236246220767498016357421875" lon="-72.9815033264458179473876953125">
        <ele>512.4000244140625</ele>
        <time>2023-01-11T19:21:09.000Z</time>
      </trkpt>
      <trkpt lat="-49.23236564733088016510009765625" lon="-72.98144322820007801055908203125">
        <ele>512.4000244140625</ele>
        <time>2023-01-11T19:21:13.000Z</time>
      </trkpt>
      <trkpt lat="-49.23235977999866008758544921875" lon="-72.9814074374735355377197265625">
        <ele>512.4000244140625</ele>
        <time>2023-01-11T19:21:16.000Z</time>
      </trkpt>
      <trkpt lat="-49.23231284134089946746826171875" lon="-72.98127911053597927093505859375">
        <ele>512.4000244140625</ele>
        <time>2023-01-11T19:21:23.000Z</time>
      </trkpt>
      <trkpt lat="-49.23230613581836223602294921875" lon="-72.981142736971378326416015625">
        <ele>512.4000244140625</ele>
        <time>2023-01-11T19:21:30.000Z</time>
      </trkpt>
      <trkpt lat="-49.2323704250156879425048828125" lon="-72.98095204867422580718994140625">
        <ele>512.4000244140625</ele>
        <time>2023-01-11T19:21:40.000Z</time>
      </trkpt>
      <trkpt lat="-49.23237184993922710418701171875" lon="-72.98094651661813259124755859375">
        <ele>512.4000244140625</ele>
        <time>2023-01-11T19:21:41.000Z</time>
      </trkpt>
      <trkpt lat="-49.23236128874123096466064453125" lon="-72.98079715110361576080322265625">
        <ele>512.4000244140625</ele>
        <time>2023-01-11T19:21:49.000Z</time>
      </trkpt>
      <trkpt lat="-49.232352487742900848388671875" lon="-72.98072271980345249176025390625">
        <ele>512.4000244140625</ele>
        <time>2023-01-11T19:21:54.000Z</time>
      </trkpt>
      <trkpt lat="-49.2323715984821319580078125" lon="-72.9806648008525371551513671875">
        <ele>512.4000244140625</ele>
        <time>2023-01-11T19:21:57.000Z</time>
      </trkpt>
      <trkpt lat="-49.23237704671919345855712890625" lon="-72.9805786348879337310791015625">
        <ele>512.4000244140625</ele>
        <time>2023-01-11T19:22:02.000Z</time>
      </trkpt>
      <trkpt lat="-49.23240470699965953826904296875" lon="-72.9805330373346805572509765625">
        <ele>512.4000244140625</ele>
        <time>2023-01-11T19:22:05.000Z</time>
      </trkpt>
      <trkpt lat="-49.2324381507933139801025390625" lon="-72.98048534430563449859619140625">
        <ele>512.4000244140625</ele>
        <time>2023-01-11T19:22:09.000Z</time>
      </trkpt>
      <trkpt lat="-49.23243152908980846405029296875" lon="-72.98040906898677349090576171875">
        <ele>512.4000244140625</ele>
        <time>2023-01-11T19:22:13.000Z</time>
      </trkpt>
      <trkpt lat="-49.23246220685541629791259765625" lon="-72.98024226911365985870361328125">
        <ele>512.4000244140625</ele>
        <time>2023-01-11T19:22:19.000Z</time>
      </trkpt>
      <trkpt lat="-49.23246891237795352935791015625" lon="-72.98020698130130767822265625">
        <ele>512.4000244140625</ele>
        <time>2023-01-11T19:22:21.000Z</time>
      </trkpt>
      <trkpt lat="-49.232442341744899749755859375" lon="-72.98010732047259807586669921875">
        <ele>512.4000244140625</ele>
        <time>2023-01-11T19:22:29.000Z</time>
      </trkpt>
      <trkpt lat="-49.23243395984172821044921875" lon="-72.97996482811868190765380859375">
        <ele>512.4000244140625</ele>
        <time>2023-01-11T19:22:36.000Z</time>
      </trkpt>
      <trkpt lat="-49.23244678415358066558837890625" lon="-72.97995795495808124542236328125">
        <ele>512.4000244140625</ele>
        <time>2023-01-11T19:22:38.000Z</time>
      </trkpt>
      <trkpt lat="-49.23245281912386417388916015625" lon="-72.9798970185220241546630859375">
        <ele>512.4000244140625</ele>
        <time>2023-01-11T19:22:47.000Z</time>
      </trkpt>
      <trkpt lat="-49.232431948184967041015625" lon="-72.9798712022602558135986328125">
        <ele>512.4000244140625</ele>
        <time>2023-01-11T19:22:56.000Z</time>
      </trkpt>
      <trkpt lat="-49.23243856988847255706787109375" lon="-72.97982216812670230865478515625">
        <ele>512.4000244140625</ele>
        <time>2023-01-11T19:23:03.000Z</time>
      </trkpt>
      <trkpt lat="-49.23246690072119235992431640625" lon="-72.97968688420951366424560546875">
        <ele>512.4000244140625</ele>
        <time>2023-01-11T19:23:13.000Z</time>
      </trkpt>
      <trkpt lat="-49.23246748745441436767578125" lon="-72.979515977203845977783203125">
        <ele>512.4000244140625</ele>
        <time>2023-01-11T19:23:21.000Z</time>
      </trkpt>
      <trkpt lat="-49.232478551566600799560546875" lon="-72.97941380180418491363525390625">
        <ele>512.4000244140625</ele>
        <time>2023-01-11T19:23:27.000Z</time>
      </trkpt>
      <trkpt lat="-49.23250327818095684051513671875" lon="-72.97932595945894718170166015625">
        <ele>512.4000244140625</ele>
        <time>2023-01-11T19:23:32.000Z</time>
      </trkpt>
      <trkpt lat="-49.23253412358462810516357421875" lon="-72.97925747931003570556640625">
        <ele>512.4000244140625</ele>
        <time>2023-01-11T19:23:36.000Z</time>
      </trkpt>
      <trkpt lat="-49.2325373925268650054931640625" lon="-72.97923744656145572662353515625">
        <ele>512.4000244140625</ele>
        <time>2023-01-11T19:23:37.000Z</time>
      </trkpt>
      <trkpt lat="-49.23254049383103847503662109375" lon="-72.97912546433508396148681640625">
        <ele>512.4000244140625</ele>
        <time>2023-01-11T19:23:42.000Z</time>
      </trkpt>
      <trkpt lat="-49.23253563232719898223876953125" lon="-72.97906511463224887847900390625">
        <ele>512.4000244140625</ele>
        <time>2023-01-11T19:23:45.000Z</time>
      </trkpt>
      <trkpt lat="-49.2325749434530735015869140625" lon="-72.97887794673442840576171875">
        <ele>512.4000244140625</ele>
        <time>2023-01-11T19:23:53.000Z</time>
      </trkpt>
      <trkpt lat="-49.232583157718181610107421875" lon="-72.9788325168192386627197265625">
        <ele>512.4000244140625</ele>
        <time>2023-01-11T19:23:56.000Z</time>
      </trkpt>
      <trkpt lat="-49.2325870133936405181884765625" lon="-72.978777028620243072509765625">
        <ele>512.4000244140625</ele>
        <time>2023-01-11T19:23:59.000Z</time>
      </trkpt>
      <trkpt lat="-49.23257536254823207855224609375" lon="-72.97875816933810710906982421875">
        <ele>512.4000244140625</ele>
        <time>2023-01-11T19:24:01.000Z</time>
      </trkpt>
      <trkpt lat="-49.2325861752033233642578125" lon="-72.97858156263828277587890625">
        <ele>512.4000244140625</ele>
        <time>2023-01-11T19:24:07.000Z</time>
      </trkpt>
      <trkpt lat="-49.23258726485073566436767578125" lon="-72.97854795120656490325927734375">
        <ele>512.4000244140625</ele>
        <time>2023-01-11T19:24:08.000Z</time>
      </trkpt>
      <trkpt lat="-49.2325967364013195037841796875" lon="-72.9784110747277736663818359375">
        <ele>512.4000244140625</ele>
        <time>2023-01-11T19:24:16.000Z</time>
      </trkpt>
      <trkpt lat="-49.2325752787292003631591796875" lon="-72.97834284603595733642578125">
        <ele>508.600006103515625</ele>
        <time>2023-01-11T19:24:23.000Z</time>
      </trkpt>
      <trkpt lat="-49.23257117159664630889892578125" lon="-72.97833186574280261993408203125">
        <ele>508.600006103515625</ele>
        <time>2023-01-11T19:24:24.000Z</time>
      </trkpt>
      <trkpt lat="-49.232553653419017791748046875" lon="-72.9782876931130886077880859375">
        <ele>508.600006103515625</ele>
        <time>2023-01-11T19:24:27.000Z</time>
      </trkpt>
      <trkpt lat="-49.2325223051011562347412109375" lon="-72.9782387427985668182373046875">
        <ele>507.79998779296875</ele>
        <time>2023-01-11T19:24:30.000Z</time>
      </trkpt>
      <trkpt lat="-49.23248349688947200775146484375" lon="-72.97812961041927337646484375">
        <ele>507.79998779296875</ele>
        <time>2023-01-11T19:24:36.000Z</time>
      </trkpt>
      <trkpt lat="-49.23248316161334514617919921875" lon="-72.97806716524064540863037109375">
        <ele>508</ele>
        <time>2023-01-11T19:24:39.000Z</time>
      </trkpt>
      <trkpt lat="-49.23249028623104095458984375" lon="-72.97803933732211589813232421875">
        <ele>507.79998779296875</ele>
        <time>2023-01-11T19:24:41.000Z</time>
      </trkpt>
      <trkpt lat="-49.232499338686466217041015625" lon="-72.97792232595384120941162109375">
        <ele>507.79998779296875</ele>
        <time>2023-01-11T19:24:46.000Z</time>
      </trkpt>
      <trkpt lat="-49.23250579275190830230712890625" lon="-72.977869100868701934814453125">
        <ele>507.600006103515625</ele>
        <time>2023-01-11T19:24:49.000Z</time>
      </trkpt>
      <trkpt lat="-49.2325011827051639556884765625" lon="-72.97779173590242862701416015625">
        <ele>507.600006103515625</ele>
        <time>2023-01-11T19:24:53.000Z</time>
      </trkpt>
      <trkpt lat="-49.2324964888393878936767578125" lon="-72.97774580307304859161376953125">
        <ele>507.600006103515625</ele>
        <time>2023-01-11T19:24:56.000Z</time>
      </trkpt>
      <trkpt lat="-49.2325182817876338958740234375" lon="-72.977696098387241363525390625">
        <ele>507.600006103515625</ele>
        <time>2023-01-11T19:24:59.000Z</time>
      </trkpt>
      <trkpt lat="-49.23251098953187465667724609375" lon="-72.97765796072781085968017578125">
        <ele>507.600006103515625</ele>
        <time>2023-01-11T19:25:01.000Z</time>
      </trkpt>
      <trkpt lat="-49.23252959735691547393798828125" lon="-72.97745780088007450103759765625">
        <ele>506.79998779296875</ele>
        <time>2023-01-11T19:25:10.000Z</time>
      </trkpt>
      <trkpt lat="-49.2325337044894695281982421875" lon="-72.97744120471179485321044921875">
        <ele>507</ele>
        <time>2023-01-11T19:25:11.000Z</time>
      </trkpt>
      <trkpt lat="-49.23254585824906826019287109375" lon="-72.9773824475705623626708984375">
        <ele>507.399993896484375</ele>
        <time>2023-01-11T19:25:14.000Z</time>
      </trkpt>
      <trkpt lat="-49.23256262205541133880615234375" lon="-72.97732788138091564178466796875">
        <ele>507.399993896484375</ele>
        <time>2023-01-11T19:25:17.000Z</time>
      </trkpt>
      <trkpt lat="-49.232632108032703399658203125" lon="-72.97717231325805187225341796875">
        <ele>507.399993896484375</ele>
        <time>2023-01-11T19:25:25.000Z</time>
      </trkpt>
      <trkpt lat="-49.23266085796058177947998046875" lon="-72.97709436155855655670166015625">
        <ele>507.399993896484375</ele>
        <time>2023-01-11T19:25:31.000Z</time>
      </trkpt>
      <trkpt lat="-49.23264509998261928558349609375" lon="-72.9770290665328502655029296875">
        <ele>507.20001220703125</ele>
        <time>2023-01-11T19:25:34.000Z</time>
      </trkpt>
      <trkpt lat="-49.2326344549655914306640625" lon="-72.9769563116133213043212890625">
        <ele>507.20001220703125</ele>
        <time>2023-01-11T19:25:37.000Z</time>
      </trkpt>
      <trkpt lat="-49.23263403587043285369873046875" lon="-72.976933680474758148193359375">
        <ele>507.20001220703125</ele>
        <time>2023-01-11T19:25:38.000Z</time>
      </trkpt>
      <trkpt lat="-49.23266069032251834869384765625" lon="-72.97687240876257419586181640625">
        <ele>507.399993896484375</ele>
        <time>2023-01-11T19:25:41.000Z</time>
      </trkpt>
      <trkpt lat="-49.23271785490214824676513671875" lon="-72.9768540523946285247802734375">
        <ele>507.20001220703125</ele>
        <time>2023-01-11T19:25:44.000Z</time>
      </trkpt>
      <trkpt lat="-49.232748448848724365234375" lon="-72.97673913650214672088623046875">
        <ele>506.399993896484375</ele>
        <time>2023-01-11T19:25:51.000Z</time>
      </trkpt>
      <trkpt lat="-49.23274098895490169525146484375" lon="-72.97664710320532321929931640625">
        <ele>506</ele>
        <time>2023-01-11T19:25:55.000Z</time>
      </trkpt>
      <trkpt lat="-49.23274107277393341064453125" lon="-72.97657049261033535003662109375">
        <ele>506</ele>
        <time>2023-01-11T19:25:58.000Z</time>
      </trkpt>
      <trkpt lat="-49.232746101915836334228515625" lon="-72.9765033535659313201904296875">
        <ele>505.79998779296875</ele>
        <time>2023-01-11T19:26:01.000Z</time>
      </trkpt>
      <trkpt lat="-49.23275523819029331207275390625" lon="-72.97647829167544841766357421875">
        <ele>505.79998779296875</ele>
        <time>2023-01-11T19:26:03.000Z</time>
      </trkpt>
      <trkpt lat="-49.2327623628079891204833984375" lon="-72.97646253369748592376708984375">
        <ele>505.79998779296875</ele>
        <time>2023-01-11T19:26:04.000Z</time>
      </trkpt>
      <trkpt lat="-49.23284836113452911376953125" lon="-72.97638692893087863922119140625">
        <ele>506.20001220703125</ele>
        <time>2023-01-11T19:26:10.000Z</time>
      </trkpt>
      <trkpt lat="-49.23286847770214080810546875" lon="-72.97631434164941310882568359375">
        <ele>506.600006103515625</ele>
        <time>2023-01-11T19:26:13.000Z</time>
      </trkpt>
      <trkpt lat="-49.23292790539562702178955078125" lon="-72.97619012184441089630126953125">
        <ele>506.600006103515625</ele>
        <time>2023-01-11T19:26:21.000Z</time>
      </trkpt>
      <trkpt lat="-49.23294148407876491546630859375" lon="-72.97618911601603031158447265625">
        <ele>506.600006103515625</ele>
        <time>2023-01-11T19:26:22.000Z</time>
      </trkpt>
      <trkpt lat="-49.23294064588844776153564453125" lon="-72.97614687122404575347900390625">
        <ele>507</ele>
        <time>2023-01-11T19:26:26.000Z</time>
      </trkpt>
      <trkpt lat="-49.23296998254954814910888671875" lon="-72.9760892875492572784423828125">
        <ele>507.20001220703125</ele>
        <time>2023-01-11T19:26:30.000Z</time>
      </trkpt>
      <trkpt lat="-49.2329792864620685577392578125" lon="-72.97605282627046108245849609375">
        <ele>507.399993896484375</ele>
        <time>2023-01-11T19:26:33.000Z</time>
      </trkpt>
      <trkpt lat="-49.23295690678060054779052734375" lon="-72.9759885370731353759765625">
        <ele>507.20001220703125</ele>
        <time>2023-01-11T19:26:37.000Z</time>
      </trkpt>
      <trkpt lat="-49.23293821513652801513671875" lon="-72.97596615739166736602783203125">
        <ele>507.20001220703125</ele>
        <time>2023-01-11T19:26:39.000Z</time>
      </trkpt>
      <trkpt lat="-49.23291734419763088226318359375" lon="-72.975844703614711761474609375">
        <ele>507</ele>
        <time>2023-01-11T19:26:45.000Z</time>
      </trkpt>
      <trkpt lat="-49.2329563200473785400390625" lon="-72.975706569850444793701171875">
        <ele>507.399993896484375</ele>
        <time>2023-01-11T19:26:52.000Z</time>
      </trkpt>
      <trkpt lat="-49.232963360846042633056640625" lon="-72.97567094676196575164794921875">
        <ele>507.399993896484375</ele>
        <time>2023-01-11T19:26:54.000Z</time>
      </trkpt>
      <trkpt lat="-49.23297844827175140380859375" lon="-72.97552543692290782928466796875">
        <ele>507.79998779296875</ele>
        <time>2023-01-11T19:27:00.000Z</time>
      </trkpt>
      <trkpt lat="-49.23300920985639095306396484375" lon="-72.9753945954144001007080078125">
        <ele>507.20001220703125</ele>
        <time>2023-01-11T19:27:06.000Z</time>
      </trkpt>
      <trkpt lat="-49.23301407136023044586181640625" lon="-72.97537959180772304534912109375">
        <ele>507.20001220703125</ele>
        <time>2023-01-11T19:27:07.000Z</time>
      </trkpt>
      <trkpt lat="-49.23297316767275333404541015625" lon="-72.97522821463644504547119140625">
        <ele>506.600006103515625</ele>
        <time>2023-01-11T19:27:16.000Z</time>
      </trkpt>
      <trkpt lat="-49.2329749278724193572998046875" lon="-72.975205667316913604736328125">
        <ele>506.600006103515625</ele>
        <time>2023-01-11T19:27:17.000Z</time>
      </trkpt>
      <trkpt lat="-49.23297551460564136505126953125" lon="-72.975151352584362030029296875">
        <ele>506.399993896484375</ele>
        <time>2023-01-11T19:27:20.000Z</time>
      </trkpt>
      <trkpt lat="-49.232976436614990234375" lon="-72.9751002229750156402587890625">
        <ele>506.399993896484375</ele>
        <time>2023-01-11T19:27:23.000Z</time>
      </trkpt>
      <trkpt lat="-49.23297551460564136505126953125" lon="-72.97507985495030879974365234375">
        <ele>506.20001220703125</ele>
        <time>2023-01-11T19:27:25.000Z</time>
      </trkpt>
      <trkpt lat="-49.23296428285539150238037109375" lon="-72.97499972395598888397216796875">
        <ele>505.79998779296875</ele>
        <time>2023-01-11T19:27:29.000Z</time>
      </trkpt>
      <trkpt lat="-49.2329320125281810760498046875" lon="-72.97491095960140228271484375">
        <ele>505.399993896484375</ele>
        <time>2023-01-11T19:27:36.000Z</time>
      </trkpt>
      <trkpt lat="-49.23292706720530986785888671875" lon="-72.9748946987092494964599609375">
        <ele>505</ele>
        <time>2023-01-11T19:27:37.000Z</time>
      </trkpt>
      <trkpt lat="-49.2329256422817707061767578125" lon="-72.9748454131186008453369140625">
        <ele>504.79998779296875</ele>
        <time>2023-01-11T19:27:40.000Z</time>
      </trkpt>
      <trkpt lat="-49.2329420708119869232177734375" lon="-72.97474508173763751983642578125">
        <ele>504.79998779296875</ele>
        <time>2023-01-11T19:27:45.000Z</time>
      </trkpt>
      <trkpt lat="-49.232918433845043182373046875" lon="-72.9745879210531711578369140625">
        <ele>504.399993896484375</ele>
        <time>2023-01-11T19:27:52.000Z</time>
      </trkpt>
      <trkpt lat="-49.2329092137515544891357421875" lon="-72.9745610989630222320556640625">
        <ele>504</ele>
        <time>2023-01-11T19:27:53.000Z</time>
      </trkpt>
      <trkpt lat="-49.23293360508978366851806640625" lon="-72.97440343536436557769775390625">
        <ele>504.20001220703125</ele>
        <time>2023-01-11T19:28:00.000Z</time>
      </trkpt>
      <trkpt lat="-49.23294802196323871612548828125" lon="-72.97439170069992542266845703125">
        <ele>504.20001220703125</ele>
        <time>2023-01-11T19:28:01.000Z</time>
      </trkpt>
      <trkpt lat="-49.2329564876854419708251953125" lon="-72.97436974011361598968505859375">
        <ele>504.20001220703125</ele>
        <time>2023-01-11T19:28:02.000Z</time>
      </trkpt>
      <trkpt lat="-49.23301574774086475372314453125" lon="-72.97431156970560550689697265625">
        <ele>503.79998779296875</ele>
        <time>2023-01-11T19:28:07.000Z</time>
      </trkpt>
      <trkpt lat="-49.2330770194530487060546875" lon="-72.97416823916137218475341796875">
        <ele>503.79998779296875</ele>
        <time>2023-01-11T19:28:13.000Z</time>
      </trkpt>
      <trkpt lat="-49.2331750877201557159423828125" lon="-72.97413756139576435089111328125">
        <ele>504.20001220703125</ele>
        <time>2023-01-11T19:28:19.000Z</time>
      </trkpt>
      <trkpt lat="-49.2331905104219913482666015625" lon="-72.9741181991994380950927734375">
        <ele>504.600006103515625</ele>
        <time>2023-01-11T19:28:21.000Z</time>
      </trkpt>
      <trkpt lat="-49.23328480683267116546630859375" lon="-72.97409900464117527008056640625">
        <ele>504.79998779296875</ele>
        <time>2023-01-11T19:28:29.000Z</time>
      </trkpt>
      <trkpt lat="-49.23334951512515544891357421875" lon="-72.97405323944985866546630859375">
        <ele>504.79998779296875</ele>
        <time>2023-01-11T19:28:36.000Z</time>
      </trkpt>
      <trkpt lat="-49.23334783874452114105224609375" lon="-72.97398551367223262786865234375">
        <ele>504.20001220703125</ele>
        <time>2023-01-11T19:28:41.000Z</time>
      </trkpt>
      <trkpt lat="-49.2333527840673923492431640625" lon="-72.9739468730986118316650390625">
        <ele>504.20001220703125</ele>
        <time>2023-01-11T19:28:43.000Z</time>
      </trkpt>
      <trkpt lat="-49.23340986482799053192138671875" lon="-72.97383564524352550506591796875">
        <ele>503.79998779296875</ele>
        <time>2023-01-11T19:28:48.000Z</time>
      </trkpt>
      <trkpt lat="-49.23343769274652004241943359375" lon="-72.97381686978042125701904296875">
        <ele>503.79998779296875</ele>
        <time>2023-01-11T19:28:50.000Z</time>
      </trkpt>
      <trkpt lat="-49.233452193439006805419921875" lon="-72.9737554304301738739013671875">
        <ele>503.600006103515625</ele>
        <time>2023-01-11T19:28:54.000Z</time>
      </trkpt>
      <trkpt lat="-49.23345428891479969024658203125" lon="-72.97373841516673564910888671875">
        <ele>503.600006103515625</ele>
        <time>2023-01-11T19:28:56.000Z</time>
      </trkpt>
      <trkpt lat="-49.23345319926738739013671875" lon="-72.97373103909194469451904296875">
        <ele>503.600006103515625</ele>
        <time>2023-01-11T19:28:57.000Z</time>
      </trkpt>
      <trkpt lat="-49.23344456590712070465087890625" lon="-72.973666749894618988037109375">
        <ele>503.20001220703125</ele>
        <time>2023-01-11T19:29:00.000Z</time>
      </trkpt>
      <trkpt lat="-49.23343819566071033477783203125" lon="-72.97363665886223316192626953125">
        <ele>503.20001220703125</ele>
        <time>2023-01-11T19:29:01.000Z</time>
      </trkpt>
      <trkpt lat="-49.23349955119192600250244140625" lon="-72.97348980791866779327392578125">
        <ele>502.79998779296875</ele>
        <time>2023-01-11T19:29:09.000Z</time>
      </trkpt>
      <trkpt lat="-49.23352620564401149749755859375" lon="-72.9733624868094921112060546875">
        <ele>503.20001220703125</ele>
        <time>2023-01-11T19:29:18.000Z</time>
      </trkpt>
      <trkpt lat="-49.233554787933826446533203125" lon="-72.973279170691967010498046875">
        <ele>503</ele>
        <time>2023-01-11T19:29:24.000Z</time>
      </trkpt>
      <trkpt lat="-49.23357800580561161041259765625" lon="-72.9732526838779449462890625">
        <ele>502.79998779296875</ele>
        <time>2023-01-11T19:29:26.000Z</time>
      </trkpt>
      <trkpt lat="-49.2336360923945903778076171875" lon="-72.97318504191935062408447265625">
        <ele>502.600006103515625</ele>
        <time>2023-01-11T19:29:31.000Z</time>
      </trkpt>
      <trkpt lat="-49.23365838825702667236328125" lon="-72.97315889038145542144775390625">
        <ele>502.399993896484375</ele>
        <time>2023-01-11T19:29:34.000Z</time>
      </trkpt>
      <trkpt lat="-49.23367179930210113525390625" lon="-72.97308705747127532958984375">
        <ele>502.399993896484375</ele>
        <time>2023-01-11T19:29:38.000Z</time>
      </trkpt>
      <trkpt lat="-49.23368546180427074432373046875" lon="-72.973050177097320556640625">
        <ele>502.20001220703125</ele>
        <time>2023-01-11T19:29:40.000Z</time>
      </trkpt>
      <trkpt lat="-49.23371178098022937774658203125" lon="-72.9729831218719482421875">
        <ele>502</ele>
        <time>2023-01-11T19:29:43.000Z</time>
      </trkpt>
      <trkpt lat="-49.23377632163465023040771484375" lon="-72.97295889817178249359130859375">
        <ele>502</ele>
        <time>2023-01-11T19:29:46.000Z</time>
      </trkpt>
      <trkpt lat="-49.23383868299424648284912109375" lon="-72.97282830812036991119384765625">
        <ele>501.600006103515625</ele>
        <time>2023-01-11T19:29:54.000Z</time>
      </trkpt>
      <trkpt lat="-49.23390246927738189697265625" lon="-72.972749769687652587890625">
        <ele>501.600006103515625</ele>
        <time>2023-01-11T19:30:00.000Z</time>
      </trkpt>
      <trkpt lat="-49.23392501659691333770751953125" lon="-72.97272537834942340850830078125">
        <ele>501.399993896484375</ele>
        <time>2023-01-11T19:30:03.000Z</time>
      </trkpt>
      <trkpt lat="-49.2339304648339748382568359375" lon="-72.972715236246585845947265625">
        <ele>501.20001220703125</ele>
        <time>2023-01-11T19:30:04.000Z</time>
      </trkpt>
      <trkpt lat="-49.23398368991911411285400390625" lon="-72.97263619489967823028564453125">
        <ele>500.399993896484375</ele>
        <time>2023-01-11T19:30:12.000Z</time>
      </trkpt>
      <trkpt lat="-49.2340313829481601715087890625" lon="-72.97256411053240299224853515625">
        <ele>500.600006103515625</ele>
        <time>2023-01-11T19:30:15.000Z</time>
      </trkpt>
      <trkpt lat="-49.234066419303417205810546875" lon="-72.9724813811480998992919921875">
        <ele>500.600006103515625</ele>
        <time>2023-01-11T19:30:19.000Z</time>
      </trkpt>
      <trkpt lat="-49.234116710722446441650390625" lon="-72.97234081663191318511962890625">
        <ele>500.20001220703125</ele>
        <time>2023-01-11T19:30:26.000Z</time>
      </trkpt>
      <trkpt lat="-49.2341235838830471038818359375" lon="-72.9723170958459377288818359375">
        <ele>500.20001220703125</ele>
        <time>2023-01-11T19:30:27.000Z</time>
      </trkpt>
      <trkpt lat="-49.23413313925266265869140625" lon="-72.97230360098183155059814453125">
        <ele>500</ele>
        <time>2023-01-11T19:30:28.000Z</time>
      </trkpt>
      <trkpt lat="-49.2342223227024078369140625" lon="-72.97219178639352321624755859375">
        <ele>499.399993896484375</ele>
        <time>2023-01-11T19:30:36.000Z</time>
      </trkpt>
      <trkpt lat="-49.2343036271631717681884765625" lon="-72.97210109420120716094970703125">
        <ele>500</ele>
        <time>2023-01-11T19:30:44.000Z</time>
      </trkpt>
      <trkpt lat="-49.23432265408337116241455078125" lon="-72.972031272947788238525390625">
        <ele>500</ele>
        <time>2023-01-11T19:30:49.000Z</time>
      </trkpt>
      <trkpt lat="-49.2343683354556560516357421875" lon="-72.9719224758446216583251953125">
        <ele>500.20001220703125</ele>
        <time>2023-01-11T19:30:56.000Z</time>
      </trkpt>
      <trkpt lat="-49.23437428660690784454345703125" lon="-72.971908561885356903076171875">
        <ele>500</ele>
        <time>2023-01-11T19:30:57.000Z</time>
      </trkpt>
      <trkpt lat="-49.234412424266338348388671875" lon="-72.971837818622589111328125">
        <ele>500</ele>
        <time>2023-01-11T19:31:03.000Z</time>
      </trkpt>
      <trkpt lat="-49.2344702593982219696044921875" lon="-72.9717008583247661590576171875">
        <ele>500.20001220703125</ele>
        <time>2023-01-11T19:31:12.000Z</time>
      </trkpt>
      <trkpt lat="-49.234475456178188323974609375" lon="-72.9716874472796916961669921875">
        <ele>500.20001220703125</ele>
        <time>2023-01-11T19:31:13.000Z</time>
      </trkpt>
      <trkpt lat="-49.23453052528202533721923828125" lon="-72.9715466313064098358154296875">
        <ele>500.20001220703125</ele>
        <time>2023-01-11T19:31:21.000Z</time>
      </trkpt>
      <trkpt lat="-49.23459422774612903594970703125" lon="-72.97142048366367816925048828125">
        <ele>501.20001220703125</ele>
        <time>2023-01-11T19:31:30.000Z</time>
      </trkpt>
      <trkpt lat="-49.2346026934683322906494140625" lon="-72.97138695605099201202392578125">
        <ele>502.20001220703125</ele>
        <time>2023-01-11T19:31:32.000Z</time>
      </trkpt>
      <trkpt lat="-49.2346124164760112762451171875" lon="-72.97137471847236156463623046875">
        <ele>502.20001220703125</ele>
        <time>2023-01-11T19:31:33.000Z</time>
      </trkpt>
      <trkpt lat="-49.23465482890605926513671875" lon="-72.97132962383329868316650390625">
        <ele>502.79998779296875</ele>
        <time>2023-01-11T19:31:38.000Z</time>
      </trkpt>
      <trkpt lat="-49.2347364686429500579833984375" lon="-72.97125108540058135986328125">
        <ele>502.20001220703125</ele>
        <time>2023-01-11T19:31:46.000Z</time>
      </trkpt>
      <trkpt lat="-49.2347827367484569549560546875" lon="-72.97122015617787837982177734375">
        <ele>502.600006103515625</ele>
        <time>2023-01-11T19:31:50.000Z</time>
      </trkpt>
      <trkpt lat="-49.234828837215900421142578125" lon="-72.9711453057825565338134765625">
        <ele>503</ele>
        <time>2023-01-11T19:31:55.000Z</time>
      </trkpt>
      <trkpt lat="-49.23484032042324542999267578125" lon="-72.9711364209651947021484375">
        <ele>503</ele>
        <time>2023-01-11T19:31:56.000Z</time>
      </trkpt>
      <trkpt lat="-49.23486295156180858612060546875" lon="-72.971113622188568115234375">
        <ele>502.600006103515625</ele>
        <time>2023-01-11T19:32:02.000Z</time>
      </trkpt>
      <trkpt lat="-49.23490419052541255950927734375" lon="-72.9711630754172801971435546875">
        <ele>502</ele>
        <time>2023-01-11T19:32:10.000Z</time>
      </trkpt>
      <trkpt lat="-49.2349111475050449371337890625" lon="-72.97114002518355846405029296875">
        <ele>502.600006103515625</ele>
        <time>2023-01-11T19:32:16.000Z</time>
      </trkpt>
      <trkpt lat="-49.23492196016013622283935546875" lon="-72.9711215011775493621826171875">
        <ele>502.399993896484375</ele>
        <time>2023-01-11T19:32:18.000Z</time>
      </trkpt>
      <trkpt lat="-49.234953224658966064453125" lon="-72.971086464822292327880859375">
        <ele>501.20001220703125</ele>
        <time>2023-01-11T19:32:21.000Z</time>
      </trkpt>
      <trkpt lat="-49.23496252857148647308349609375" lon="-72.97107598744332790374755859375">
        <ele>501.20001220703125</ele>
        <time>2023-01-11T19:32:22.000Z</time>
      </trkpt>
      <trkpt lat="-49.234964959323406219482421875" lon="-72.9709417931735515594482421875">
        <ele>500.399993896484375</ele>
        <time>2023-01-11T19:32:30.000Z</time>
      </trkpt>
      <trkpt lat="-49.23495984636247158050537109375" lon="-72.97088622115552425384521484375">
        <ele>500.399993896484375</ele>
        <time>2023-01-11T19:32:34.000Z</time>
      </trkpt>
      <trkpt lat="-49.23497132956981658935546875" lon="-72.970851100981235504150390625">
        <ele>500.20001220703125</ele>
        <time>2023-01-11T19:32:36.000Z</time>
      </trkpt>
      <trkpt lat="-49.23497325740754604339599609375" lon="-72.9708214290440082550048828125">
        <ele>500.20001220703125</ele>
        <time>2023-01-11T19:32:38.000Z</time>
      </trkpt>
      <trkpt lat="-49.235046766698360443115234375" lon="-72.97069578431546688079833984375">
        <ele>501</ele>
        <time>2023-01-11T19:32:48.000Z</time>
      </trkpt>
      <trkpt lat="-49.2350422404706478118896484375" lon="-72.97062722034752368927001953125">
        <ele>501</ele>
        <time>2023-01-11T19:32:52.000Z</time>
      </trkpt>
      <trkpt lat="-49.2350388877093791961669921875" lon="-72.97058648429811000823974609375">
        <ele>500</ele>
        <time>2023-01-11T19:32:54.000Z</time>
      </trkpt>
      <trkpt lat="-49.23505690880119800567626953125" lon="-72.97056050039827823638916015625">
        <ele>500</ele>
        <time>2023-01-11T19:32:57.000Z</time>
      </trkpt>
      <trkpt lat="-49.23511759378015995025634765625" lon="-72.97036235220730304718017578125">
        <ele>500.20001220703125</ele>
        <time>2023-01-11T19:33:07.000Z</time>
      </trkpt>
      <trkpt lat="-49.23516671173274517059326171875" lon="-72.97023117542266845703125">
        <ele>500.399993896484375</ele>
        <time>2023-01-11T19:33:15.000Z</time>
      </trkpt>
      <trkpt lat="-49.235189259052276611328125" lon="-72.9702018387615680694580078125">
        <ele>500.600006103515625</ele>
        <time>2023-01-11T19:33:17.000Z</time>
      </trkpt>
      <trkpt lat="-49.2352206073701381683349609375" lon="-72.97012765891849994659423828125">
        <ele>500.600006103515625</ele>
        <time>2023-01-11T19:33:22.000Z</time>
      </trkpt>
      <trkpt lat="-49.23524248413741588592529296875" lon="-72.9700295068323612213134765625">
        <ele>501</ele>
        <time>2023-01-11T19:33:29.000Z</time>
      </trkpt>
      <trkpt lat="-49.2352487705647945404052734375" lon="-72.96994057483971118927001953125">
        <ele>501</ele>
        <time>2023-01-11T19:33:33.000Z</time>
      </trkpt>
      <trkpt lat="-49.23524885438382625579833984375" lon="-72.9698685742914676666259765625">
        <ele>500.79998779296875</ele>
        <time>2023-01-11T19:33:38.000Z</time>
      </trkpt>
      <trkpt lat="-49.23526377417147159576416015625" lon="-72.9697659797966480255126953125">
        <ele>500.20001220703125</ele>
        <time>2023-01-11T19:33:45.000Z</time>
      </trkpt>
      <trkpt lat="-49.2352817952632904052734375" lon="-72.9697344638407230377197265625">
        <ele>500.20001220703125</ele>
        <time>2023-01-11T19:33:48.000Z</time>
      </trkpt>
      <trkpt lat="-49.235280789434909820556640625" lon="-72.96967537142336368560791015625">
        <ele>500.20001220703125</ele>
        <time>2023-01-11T19:33:53.000Z</time>
      </trkpt>
      <trkpt lat="-49.2352836392819881439208984375" lon="-72.96964972279965877532958984375">
        <ele>500</ele>
        <time>2023-01-11T19:33:55.000Z</time>
      </trkpt>
      <trkpt lat="-49.23529495485126972198486328125" lon="-72.969562299549579620361328125">
        <ele>499.79998779296875</ele>
        <time>2023-01-11T19:34:03.000Z</time>
      </trkpt>
      <trkpt lat="-49.23532404005527496337890625" lon="-72.969461381435394287109375">
        <ele>499.399993896484375</ele>
        <time>2023-01-11T19:34:09.000Z</time>
      </trkpt>
      <trkpt lat="-49.2353711463510990142822265625" lon="-72.9693820886313915252685546875">
        <ele>499</ele>
        <time>2023-01-11T19:34:17.000Z</time>
      </trkpt>
      <trkpt lat="-49.23536804504692554473876953125" lon="-72.96935635618865489959716796875">
        <ele>498.79998779296875</ele>
        <time>2023-01-11T19:34:18.000Z</time>
      </trkpt>
      <trkpt lat="-49.235378019511699676513671875" lon="-72.969282008707523345947265625">
        <ele>498.79998779296875</ele>
        <time>2023-01-11T19:34:22.000Z</time>
      </trkpt>
      <trkpt lat="-49.2353751696646213531494140625" lon="-72.9692508280277252197265625">
        <ele>498.79998779296875</ele>
        <time>2023-01-11T19:34:24.000Z</time>
      </trkpt>
      <trkpt lat="-49.2353810369968414306640625" lon="-72.96924068592488765716552734375">
        <ele>498.79998779296875</ele>
        <time>2023-01-11T19:34:25.000Z</time>
      </trkpt>
      <trkpt lat="-49.23539252020418643951416015625" lon="-72.9691882990300655364990234375">
        <ele>498.399993896484375</ele>
        <time>2023-01-11T19:34:28.000Z</time>
      </trkpt>
      <trkpt lat="-49.23540341667830944061279296875" lon="-72.96910607255995273590087890625">
        <ele>498.399993896484375</ele>
        <time>2023-01-11T19:34:33.000Z</time>
      </trkpt>
      <trkpt lat="-49.23546125181019306182861328125" lon="-72.968975566327571868896484375">
        <ele>498.399993896484375</ele>
        <time>2023-01-11T19:34:41.000Z</time>
      </trkpt>
      <trkpt lat="-49.2354871518909931182861328125" lon="-72.968953438103199005126953125">
        <ele>498.399993896484375</ele>
        <time>2023-01-11T19:34:43.000Z</time>
      </trkpt>
      <trkpt lat="-49.2355243675410747528076171875" lon="-72.968911863863468170166015625">
        <ele>499</ele>
        <time>2023-01-11T19:34:47.000Z</time>
      </trkpt>
      <trkpt lat="-49.2356031574308872222900390625" lon="-72.96882024966180324554443359375">
        <ele>499.399993896484375</ele>
        <time>2023-01-11T19:34:53.000Z</time>
      </trkpt>
      <trkpt lat="-49.23566794954240322113037109375" lon="-72.968763671815395355224609375">
        <ele>499.79998779296875</ele>
        <time>2023-01-11T19:34:57.000Z</time>
      </trkpt>
      <trkpt lat="-49.2357251979410648345947265625" lon="-72.968729473650455474853515625">
        <ele>500.399993896484375</ele>
        <time>2023-01-11T19:35:02.000Z</time>
      </trkpt>
      <trkpt lat="-49.23576056957244873046875" lon="-72.96871094964444637298583984375">
        <ele>500.399993896484375</ele>
        <time>2023-01-11T19:35:05.000Z</time>
      </trkpt>
      <trkpt lat="-49.2357731424272060394287109375" lon="-72.9686029069125652313232421875">
        <ele>499.79998779296875</ele>
        <time>2023-01-11T19:35:12.000Z</time>
      </trkpt>
      <trkpt lat="-49.23577104695141315460205078125" lon="-72.96848849393427371978759765625">
        <ele>499</ele>
        <time>2023-01-11T19:35:19.000Z</time>
      </trkpt>
      <trkpt lat="-49.23577624373137950897216796875" lon="-72.968476004898548126220703125">
        <ele>498.79998779296875</ele>
        <time>2023-01-11T19:35:20.000Z</time>
      </trkpt>
      <trkpt lat="-49.2357940971851348876953125" lon="-72.96841087751090526580810546875">
        <ele>498.79998779296875</ele>
        <time>2023-01-11T19:35:24.000Z</time>
      </trkpt>
      <trkpt lat="-49.23587917350232601165771484375" lon="-72.96834365464746952056884765625">
        <ele>497.79998779296875</ele>
        <time>2023-01-11T19:35:31.000Z</time>
      </trkpt>
      <trkpt lat="-49.23589828424155712127685546875" lon="-72.96833527274429798126220703125">
        <ele>497.79998779296875</ele>
        <time>2023-01-11T19:35:33.000Z</time>
      </trkpt>
      <trkpt lat="-49.235985539853572845458984375" lon="-72.96831029467284679412841796875">
        <ele>498.600006103515625</ele>
        <time>2023-01-11T19:35:40.000Z</time>
      </trkpt>
      <trkpt lat="-49.23600808717310428619384765625" lon="-72.96828716062009334564208984375">
        <ele>498.600006103515625</ele>
        <time>2023-01-11T19:35:42.000Z</time>
      </trkpt>
      <trkpt lat="-49.236067347228527069091796875" lon="-72.96819881536066532135009765625">
        <ele>498.600006103515625</ele>
        <time>2023-01-11T19:35:48.000Z</time>
      </trkpt>
      <trkpt lat="-49.23609559424221515655517578125" lon="-72.96818129718303680419921875">
        <ele>498.600006103515625</ele>
        <time>2023-01-11T19:35:50.000Z</time>
      </trkpt>
      <trkpt lat="-49.23610053956508636474609375" lon="-72.96815807931125164031982421875">
        <ele>498.600006103515625</ele>
        <time>2023-01-11T19:35:51.000Z</time>
      </trkpt>
      <trkpt lat="-49.236111603677272796630859375" lon="-72.96813310123980045318603515625">
        <ele>498.600006103515625</ele>
        <time>2023-01-11T19:35:53.000Z</time>
      </trkpt>
      <trkpt lat="-49.2361198179423809051513671875" lon="-72.96812404878437519073486328125">
        <ele>498.600006103515625</ele>
        <time>2023-01-11T19:35:54.000Z</time>
      </trkpt>
      <trkpt lat="-49.23614001832902431488037109375" lon="-72.96810896135866641998291015625">
        <ele>498.600006103515625</ele>
        <time>2023-01-11T19:35:57.000Z</time>
      </trkpt>
      <trkpt lat="-49.23619014210999011993408203125" lon="-72.968033440411090850830078125">
        <ele>498.600006103515625</ele>
        <time>2023-01-11T19:36:04.000Z</time>
      </trkpt>
      <trkpt lat="-49.23619969747960567474365234375" lon="-72.967954315245151519775390625">
        <ele>498.600006103515625</ele>
        <time>2023-01-11T19:36:09.000Z</time>
      </trkpt>
      <trkpt lat="-49.2362133599817752838134765625" lon="-72.96790310181677341461181640625">
        <ele>498.600006103515625</ele>
        <time>2023-01-11T19:36:12.000Z</time>
      </trkpt>
      <trkpt lat="-49.2362152040004730224609375" lon="-72.96782724559307098388671875">
        <ele>498.600006103515625</ele>
        <time>2023-01-11T19:36:16.000Z</time>
      </trkpt>
      <trkpt lat="-49.23624403774738311767578125" lon="-72.96778541989624500274658203125">
        <ele>498.600006103515625</ele>
        <time>2023-01-11T19:36:19.000Z</time>
      </trkpt>
      <trkpt lat="-49.2362532578408718109130859375" lon="-72.9677730984985828399658203125">
        <ele>498.600006103515625</ele>
        <time>2023-01-11T19:36:21.000Z</time>
      </trkpt>
      <trkpt lat="-49.23630044795572757720947265625" lon="-72.96769573353230953216552734375">
        <ele>498.600006103515625</ele>
        <time>2023-01-11T19:36:26.000Z</time>
      </trkpt>
      <trkpt lat="-49.23635174520313739776611328125" lon="-72.96759062446653842926025390625">
        <ele>498.600006103515625</ele>
        <time>2023-01-11T19:36:33.000Z</time>
      </trkpt>
      <trkpt lat="-49.2363766394555568695068359375" lon="-72.9675052128732204437255859375">
        <ele>498.600006103515625</ele>
        <time>2023-01-11T19:36:40.000Z</time>
      </trkpt>
      <trkpt lat="-49.23638678155839443206787109375" lon="-72.96735626645386219024658203125">
        <ele>498.600006103515625</ele>
        <time>2023-01-11T19:36:48.000Z</time>
      </trkpt>
      <trkpt lat="-49.23639700748026371002197265625" lon="-72.96724042855203151702880859375">
        <ele>498.600006103515625</ele>
        <time>2023-01-11T19:36:55.000Z</time>
      </trkpt>
      <trkpt lat="-49.23641578294336795806884765625" lon="-72.96710816211998462677001953125">
        <ele>498.600006103515625</ele>
        <time>2023-01-11T19:37:03.000Z</time>
      </trkpt>
      <trkpt lat="-49.23641779460012912750244140625" lon="-72.96704395674169063568115234375">
        <ele>498.600006103515625</ele>
        <time>2023-01-11T19:37:07.000Z</time>
      </trkpt>
      <trkpt lat="-49.236398600041866302490234375" lon="-72.96700439415872097015380859375">
        <ele>498.600006103515625</ele>
        <time>2023-01-11T19:37:10.000Z</time>
      </trkpt>
      <trkpt lat="-49.23638158477842807769775390625" lon="-72.9669178090989589691162109375">
        <ele>498.600006103515625</ele>
        <time>2023-01-11T19:37:14.000Z</time>
      </trkpt>
      <trkpt lat="-49.2364175431430339813232421875" lon="-72.96682267449796199798583984375">
        <ele>498.600006103515625</ele>
        <time>2023-01-11T19:37:19.000Z</time>
      </trkpt>
      <trkpt lat="-49.23642885871231555938720703125" lon="-72.96677623875439167022705078125">
        <ele>498.600006103515625</ele>
        <time>2023-01-11T19:37:22.000Z</time>
      </trkpt>
      <trkpt lat="-49.2364493943750858306884765625" lon="-72.9666499234735965728759765625">
        <ele>498.600006103515625</ele>
        <time>2023-01-11T19:37:28.000Z</time>
      </trkpt>
      <trkpt lat="-49.236514270305633544921875" lon="-72.9665590636432170867919921875">
        <ele>493.399993896484375</ele>
        <time>2023-01-11T19:37:36.000Z</time>
      </trkpt>
      <trkpt lat="-49.2365184612572193145751953125" lon="-72.9665506817400455474853515625">
        <ele>493.399993896484375</ele>
        <time>2023-01-11T19:37:37.000Z</time>
      </trkpt>
      <trkpt lat="-49.23654184676706790924072265625" lon="-72.96648086048662662506103515625">
        <ele>493.20001220703125</ele>
        <time>2023-01-11T19:37:40.000Z</time>
      </trkpt>
      <trkpt lat="-49.2365650646388530731201171875" lon="-72.96645018272101879119873046875">
        <ele>493.20001220703125</ele>
        <time>2023-01-11T19:37:43.000Z</time>
      </trkpt>
      <trkpt lat="-49.23663488589227199554443359375" lon="-72.9663515277206897735595703125">
        <ele>492.79998779296875</ele>
        <time>2023-01-11T19:37:50.000Z</time>
      </trkpt>
      <trkpt lat="-49.23666556365787982940673828125" lon="-72.96623879112303256988525390625">
        <ele>492</ele>
        <time>2023-01-11T19:37:57.000Z</time>
      </trkpt>
      <trkpt lat="-49.23666874878108501434326171875" lon="-72.966204173862934112548828125">
        <ele>491.600006103515625</ele>
        <time>2023-01-11T19:38:00.000Z</time>
      </trkpt>
      <trkpt lat="-49.2366746999323368072509765625" lon="-72.9661460034549236297607421875">
        <ele>491.600006103515625</ele>
        <time>2023-01-11T19:38:04.000Z</time>
      </trkpt>
      <trkpt lat="-49.236685931682586669921875" lon="-72.9660402238368988037109375">
        <ele>490.79998779296875</ele>
        <time>2023-01-11T19:38:11.000Z</time>
      </trkpt>
      <trkpt lat="-49.23669540323317050933837890625" lon="-72.96602555550634860992431640625">
        <ele>490.20001220703125</ele>
        <time>2023-01-11T19:38:12.000Z</time>
      </trkpt>
      <trkpt lat="-49.23676396720111370086669921875" lon="-72.96591206453740596771240234375">
        <ele>491.399993896484375</ele>
        <time>2023-01-11T19:38:20.000Z</time>
      </trkpt>
      <trkpt lat="-49.236823059618473052978515625" lon="-72.9657658003270626068115234375">
        <ele>491</ele>
        <time>2023-01-11T19:38:26.000Z</time>
      </trkpt>
      <trkpt lat="-49.23685960471630096435546875" lon="-72.9656967334449291229248046875">
        <ele>490.20001220703125</ele>
        <time>2023-01-11T19:38:31.000Z</time>
      </trkpt>
      <trkpt lat="-49.2368735186755657196044921875" lon="-72.965595312416553497314453125">
        <ele>489.79998779296875</ele>
        <time>2023-01-11T19:38:39.000Z</time>
      </trkpt>
      <trkpt lat="-49.2368909530341625213623046875" lon="-72.9655440151691436767578125">
        <ele>489.79998779296875</ele>
        <time>2023-01-11T19:38:43.000Z</time>
      </trkpt>
      <trkpt lat="-49.23689472489058971405029296875" lon="-72.96552867628633975982666015625">
        <ele>489.600006103515625</ele>
        <time>2023-01-11T19:38:44.000Z</time>
      </trkpt>
      <trkpt lat="-49.23690210096538066864013671875" lon="-72.9655037820339202880859375">
        <ele>489.20001220703125</ele>
        <time>2023-01-11T19:38:46.000Z</time>
      </trkpt>
      <trkpt lat="-49.23691031523048877716064453125" lon="-72.9654533229768276214599609375">
        <ele>489.20001220703125</ele>
        <time>2023-01-11T19:38:50.000Z</time>
      </trkpt>
      <trkpt lat="-49.23692129552364349365234375" lon="-72.965395152568817138671875">
        <ele>489.20001220703125</ele>
        <time>2023-01-11T19:38:54.000Z</time>
      </trkpt>
      <trkpt lat="-49.2369742691516876220703125" lon="-72.96528409235179424285888671875">
        <ele>488.600006103515625</ele>
        <time>2023-01-11T19:39:02.000Z</time>
      </trkpt>
      <trkpt lat="-49.23698432743549346923828125" lon="-72.9652692563831806182861328125">
        <ele>488.600006103515625</ele>
        <time>2023-01-11T19:39:03.000Z</time>
      </trkpt>
      <trkpt lat="-49.236995391547679901123046875" lon="-72.9652221500873565673828125">
        <ele>488.79998779296875</ele>
        <time>2023-01-11T19:39:06.000Z</time>
      </trkpt>
      <trkpt lat="-49.23702724277973175048828125" lon="-72.9651408456265926361083984375">
        <ele>488.79998779296875</ele>
        <time>2023-01-11T19:39:11.000Z</time>
      </trkpt>
      <trkpt lat="-49.23703956417739391326904296875" lon="-72.96511326916515827178955078125">
        <ele>488.79998779296875</ele>
        <time>2023-01-11T19:39:13.000Z</time>
      </trkpt>
      <trkpt lat="-49.237053059041500091552734375" lon="-72.96508736908435821533203125">
        <ele>488.79998779296875</ele>
        <time>2023-01-11T19:39:15.000Z</time>
      </trkpt>
      <trkpt lat="-49.2370575852692127227783203125" lon="-72.96505359001457691192626953125">
        <ele>489</ele>
        <time>2023-01-11T19:39:17.000Z</time>
      </trkpt>
      <trkpt lat="-49.2370844073593616485595703125" lon="-72.96492216177284717559814453125">
        <ele>489.20001220703125</ele>
        <time>2023-01-11T19:39:24.000Z</time>
      </trkpt>
      <trkpt lat="-49.2371075414121150970458984375" lon="-72.964863069355487823486328125">
        <ele>489.20001220703125</ele>
        <time>2023-01-11T19:39:29.000Z</time>
      </trkpt>
      <trkpt lat="-49.23711986280977725982666015625" lon="-72.96485125087201595306396484375">
        <ele>489.20001220703125</ele>
        <time>2023-01-11T19:39:30.000Z</time>
      </trkpt>
      <trkpt lat="-49.23716948367655277252197265625" lon="-72.9647988639771938323974609375">
        <ele>489.600006103515625</ele>
        <time>2023-01-11T19:39:34.000Z</time>
      </trkpt>
      <trkpt lat="-49.2371990717947483062744140625" lon="-72.964767180383205413818359375">
        <ele>489.600006103515625</ele>
        <time>2023-01-11T19:39:37.000Z</time>
      </trkpt>
      <trkpt lat="-49.23723184503614902496337890625" lon="-72.96471362002193927764892578125">
        <ele>489.600006103515625</ele>
        <time>2023-01-11T19:39:41.000Z</time>
      </trkpt>
      <trkpt lat="-49.237261600792407989501953125" lon="-72.96465687453746795654296875">
        <ele>489.399993896484375</ele>
        <time>2023-01-11T19:39:45.000Z</time>
      </trkpt>
      <trkpt lat="-49.23729219473898410797119140625" lon="-72.9646268673241138458251953125">
        <ele>489.399993896484375</ele>
        <time>2023-01-11T19:39:48.000Z</time>
      </trkpt>
      <trkpt lat="-49.2373060248792171478271484375" lon="-72.964602224528789520263671875">
        <ele>489.399993896484375</ele>
        <time>2023-01-11T19:39:50.000Z</time>
      </trkpt>
      <trkpt lat="-49.2373395524919033050537109375" lon="-72.964577414095401763916015625">
        <ele>489.399993896484375</ele>
        <time>2023-01-11T19:39:52.000Z</time>
      </trkpt>
      <trkpt lat="-49.2373291589319705963134765625" lon="-72.964563667774200439453125">
        <ele>488.600006103515625</ele>
        <time>2023-01-11T19:39:58.000Z</time>
      </trkpt>
      <trkpt lat="-49.23737802542746067047119140625" lon="-72.9645041562616825103759765625">
        <ele>488.600006103515625</ele>
        <time>2023-01-11T19:40:03.000Z</time>
      </trkpt>
      <trkpt lat="-49.237400405108928680419921875" lon="-72.96448177658021450042724609375">
        <ele>488.79998779296875</ele>
        <time>2023-01-11T19:40:05.000Z</time>
      </trkpt>
      <trkpt lat="-49.23743200488388538360595703125" lon="-72.96444824896752834320068359375">
        <ele>488.79998779296875</ele>
        <time>2023-01-11T19:40:11.000Z</time>
      </trkpt>
      <trkpt lat="-49.23750869929790496826171875" lon="-72.96436677686870098114013671875">
        <ele>489</ele>
        <time>2023-01-11T19:40:19.000Z</time>
      </trkpt>
      <trkpt lat="-49.2375765927135944366455078125" lon="-72.96431464143097400665283203125">
        <ele>489.399993896484375</ele>
        <time>2023-01-11T19:40:25.000Z</time>
      </trkpt>
      <trkpt lat="-49.23758204095065593719482421875" lon="-72.96430944465100765228271484375">
        <ele>489.399993896484375</ele>
        <time>2023-01-11T19:40:26.000Z</time>
      </trkpt>
      <trkpt lat="-49.237590841948986053466796875" lon="-72.96430441550910472869873046875">
        <ele>489.399993896484375</ele>
        <time>2023-01-11T19:40:27.000Z</time>
      </trkpt>
      <trkpt lat="-49.2376114614307880401611328125" lon="-72.96427524648606777191162109375">
        <ele>489.600006103515625</ele>
        <time>2023-01-11T19:40:30.000Z</time>
      </trkpt>
      <trkpt lat="-49.23762881197035312652587890625" lon="-72.964260913431644439697265625">
        <ele>489.600006103515625</ele>
        <time>2023-01-11T19:40:31.000Z</time>
      </trkpt>
      <trkpt lat="-49.237645156681537628173828125" lon="-72.964257895946502685546875">
        <ele>489.600006103515625</ele>
        <time>2023-01-11T19:40:32.000Z</time>
      </trkpt>
      <trkpt lat="-49.23772721551358699798583984375" lon="-72.9642064310610294342041015625">
        <ele>490.20001220703125</ele>
        <time>2023-01-11T19:40:39.000Z</time>
      </trkpt>
      <trkpt lat="-49.23773693852126598358154296875" lon="-72.9641953669488430023193359375">
        <ele>490.20001220703125</ele>
        <time>2023-01-11T19:40:40.000Z</time>
      </trkpt>
      <trkpt lat="-49.2378143034875392913818359375" lon="-72.96409470029175281524658203125">
        <ele>490.20001220703125</ele>
        <time>2023-01-11T19:40:48.000Z</time>
      </trkpt>
      <trkpt lat="-49.23787674866616725921630859375" lon="-72.96400367282330989837646484375">
        <ele>490</ele>
        <time>2023-01-11T19:40:57.000Z</time>
      </trkpt>
      <trkpt lat="-49.2379457317292690277099609375" lon="-72.96388045884668827056884765625">
        <ele>490.600006103515625</ele>
        <time>2023-01-11T19:41:07.000Z</time>
      </trkpt>
      <trkpt lat="-49.23793911002576351165771484375" lon="-72.9638735018670558929443359375">
        <ele>490.600006103515625</ele>
        <time>2023-01-11T19:41:08.000Z</time>
      </trkpt>
      <trkpt lat="-49.2379795946180820465087890625" lon="-72.96380518935620784759521484375">
        <ele>491</ele>
        <time>2023-01-11T19:41:13.000Z</time>
      </trkpt>
      <trkpt lat="-49.2380540259182453155517578125" lon="-72.96370334923267364501953125">
        <ele>490.20001220703125</ele>
        <time>2023-01-11T19:41:24.000Z</time>
      </trkpt>
      <trkpt lat="-49.2381214164197444915771484375" lon="-72.96359279192984104156494140625">
        <ele>490.20001220703125</ele>
        <time>2023-01-11T19:41:31.000Z</time>
      </trkpt>
      <trkpt lat="-49.2381955124437808990478515625" lon="-72.9635606892406940460205078125">
        <ele>491.20001220703125</ele>
        <time>2023-01-11T19:41:38.000Z</time>
      </trkpt>
      <trkpt lat="-49.23821269534528255462646484375" lon="-72.9635496251285076141357421875">
        <ele>491.600006103515625</ele>
        <time>2023-01-11T19:41:40.000Z</time>
      </trkpt>
      <trkpt lat="-49.23821873031556606292724609375" lon="-72.9635442607104778289794921875">
        <ele>491.79998779296875</ele>
        <time>2023-01-11T19:41:41.000Z</time>
      </trkpt>
      <trkpt lat="-49.23825192265212535858154296875" lon="-72.963521294295787811279296875">
        <ele>492.20001220703125</ele>
        <time>2023-01-11T19:41:46.000Z</time>
      </trkpt>
      <trkpt lat="-49.2382900603115558624267578125" lon="-72.963496483862400054931640625">
        <ele>492.79998779296875</ele>
        <time>2023-01-11T19:41:50.000Z</time>
      </trkpt>
      <trkpt lat="-49.238296933472156524658203125" lon="-72.96344258822500705718994140625">
        <ele>492.79998779296875</ele>
        <time>2023-01-11T19:41:53.000Z</time>
      </trkpt>
      <trkpt lat="-49.23829483799636363983154296875" lon="-72.96342163346707820892333984375">
        <ele>492.79998779296875</ele>
        <time>2023-01-11T19:41:54.000Z</time>
      </trkpt>
      <trkpt lat="-49.23832501284778118133544921875" lon="-72.9633390717208385467529296875">
        <ele>492.600006103515625</ele>
        <time>2023-01-11T19:41:59.000Z</time>
      </trkpt>
      <trkpt lat="-49.2384012043476104736328125" lon="-72.9631992615759372711181640625">
        <ele>492.399993896484375</ele>
        <time>2023-01-11T19:42:08.000Z</time>
      </trkpt>
      <trkpt lat="-49.23842291347682476043701171875" lon="-72.96318107284605503082275390625">
        <ele>492.20001220703125</ele>
        <time>2023-01-11T19:42:10.000Z</time>
      </trkpt>
      <trkpt lat="-49.23846079967916011810302734375" lon="-72.963131703436374664306640625">
        <ele>491.79998779296875</ele>
        <time>2023-01-11T19:42:14.000Z</time>
      </trkpt>
      <trkpt lat="-49.238472282886505126953125" lon="-72.9631234891712665557861328125">
        <ele>491.79998779296875</ele>
        <time>2023-01-11T19:42:15.000Z</time>
      </trkpt>
      <trkpt lat="-49.23853062093257904052734375" lon="-72.96304796822369098663330078125">
        <ele>491.79998779296875</ele>
        <time>2023-01-11T19:42:22.000Z</time>
      </trkpt>
      <trkpt lat="-49.23855878412723541259765625" lon="-72.96302382834255695343017578125">
        <ele>492.20001220703125</ele>
        <time>2023-01-11T19:42:24.000Z</time>
      </trkpt>
      <trkpt lat="-49.2385763861238956451416015625" lon="-72.96299985609948635101318359375">
        <ele>492.20001220703125</ele>
        <time>2023-01-11T19:42:26.000Z</time>
      </trkpt>
      <trkpt lat="-49.2385924793779850006103515625" lon="-72.96299348585307598114013671875">
        <ele>492.20001220703125</ele>
        <time>2023-01-11T19:42:27.000Z</time>
      </trkpt>
      <trkpt lat="-49.2386149428784847259521484375" lon="-72.9629672504961490631103515625">
        <ele>492.20001220703125</ele>
        <time>2023-01-11T19:42:29.000Z</time>
      </trkpt>
      <trkpt lat="-49.23872147686779499053955078125" lon="-72.96289005316793918609619140625">
        <ele>492.79998779296875</ele>
        <time>2023-01-11T19:42:36.000Z</time>
      </trkpt>
      <trkpt lat="-49.23873639665544033050537109375" lon="-72.96287965960800647735595703125">
        <ele>493.600006103515625</ele>
        <time>2023-01-11T19:42:38.000Z</time>
      </trkpt>
      <trkpt lat="-49.238830022513866424560546875" lon="-72.9628415219485759735107421875">
        <ele>493.79998779296875</ele>
        <time>2023-01-11T19:42:45.000Z</time>
      </trkpt>
      <trkpt lat="-49.2388399131596088409423828125" lon="-72.96283029019832611083984375">
        <ele>494.20001220703125</ele>
        <time>2023-01-11T19:42:46.000Z</time>
      </trkpt>
      <trkpt lat="-49.23889297060668468475341796875" lon="-72.9627385921776294708251953125">
        <ele>494.20001220703125</ele>
        <time>2023-01-11T19:42:53.000Z</time>
      </trkpt>
      <trkpt lat="-49.23895306885242462158203125" lon="-72.96254639513790607452392578125">
        <ele>494.399993896484375</ele>
        <time>2023-01-11T19:43:04.000Z</time>
      </trkpt>
      <trkpt lat="-49.2389629594981670379638671875" lon="-72.96250029467046260833740234375">
        <ele>494.600006103515625</ele>
        <time>2023-01-11T19:43:07.000Z</time>
      </trkpt>
      <trkpt lat="-49.238955415785312652587890625" lon="-72.9624247737228870391845703125">
        <ele>494.399993896484375</ele>
        <time>2023-01-11T19:43:12.000Z</time>
      </trkpt>
      <trkpt lat="-49.23891996033489704132080078125" lon="-72.96228303574025630950927734375">
        <ele>493.79998779296875</ele>
        <time>2023-01-11T19:43:21.000Z</time>
      </trkpt>
      <trkpt lat="-49.238921888172626495361328125" lon="-72.9622668586671352386474609375">
        <ele>493.600006103515625</ele>
        <time>2023-01-11T19:43:22.000Z</time>
      </trkpt>
      <trkpt lat="-49.23893588595092296600341796875" lon="-72.96220608986914157867431640625">
        <ele>493.600006103515625</ele>
        <time>2023-01-11T19:43:25.000Z</time>
      </trkpt>
      <trkpt lat="-49.2389683239161968231201171875" lon="-72.9621176607906818389892578125">
        <ele>494</ele>
        <time>2023-01-11T19:43:31.000Z</time>
      </trkpt>
      <trkpt lat="-49.23899539746344089508056640625" lon="-72.962031327188014984130859375">
        <ele>494.79998779296875</ele>
        <time>2023-01-11T19:43:37.000Z</time>
      </trkpt>
      <trkpt lat="-49.2390052042901515960693359375" lon="-72.9620036669075489044189453125">
        <ele>494.79998779296875</ele>
        <time>2023-01-11T19:43:39.000Z</time>
      </trkpt>
      <trkpt lat="-49.23907603137195110321044921875" lon="-72.961938790977001190185546875">
        <ele>495.20001220703125</ele>
        <time>2023-01-11T19:43:45.000Z</time>
      </trkpt>
      <trkpt lat="-49.23910000361502170562744140625" lon="-72.96190937049686908721923828125">
        <ele>495.399993896484375</ele>
        <time>2023-01-11T19:43:48.000Z</time>
      </trkpt>
      <trkpt lat="-49.23910452984273433685302734375" lon="-72.96188523061573505401611328125">
        <ele>496</ele>
        <time>2023-01-11T19:43:50.000Z</time>
      </trkpt>
      <trkpt lat="-49.23907988704741001129150390625" lon="-72.961804009974002838134765625">
        <ele>495</ele>
        <time>2023-01-11T19:43:55.000Z</time>
      </trkpt>
      <trkpt lat="-49.23907234333455562591552734375" lon="-72.96169160865247249603271484375">
        <ele>495</ele>
        <time>2023-01-11T19:44:03.000Z</time>
      </trkpt>
      <trkpt lat="-49.2391242273151874542236328125" lon="-72.9615470208227634429931640625">
        <ele>495.600006103515625</ele>
        <time>2023-01-11T19:44:11.000Z</time>
      </trkpt>
      <trkpt lat="-49.23915364779531955718994140625" lon="-72.96146077103912830352783203125">
        <ele>495.600006103515625</ele>
        <time>2023-01-11T19:44:17.000Z</time>
      </trkpt>
      <trkpt lat="-49.239180050790309906005859375" lon="-72.96143746934831142425537109375">
        <ele>496</ele>
        <time>2023-01-11T19:44:20.000Z</time>
      </trkpt>
      <trkpt lat="-49.239184074103832244873046875" lon="-72.96142489649355411529541015625">
        <ele>496.399993896484375</ele>
        <time>2023-01-11T19:44:21.000Z</time>
      </trkpt>
      <trkpt lat="-49.239187426865100860595703125" lon="-72.96137896366417407989501953125">
        <ele>497</ele>
        <time>2023-01-11T19:44:26.000Z</time>
      </trkpt>
      <trkpt lat="-49.23921433277428150177001953125" lon="-72.96138432808220386505126953125">
        <ele>497</ele>
        <time>2023-01-11T19:44:31.000Z</time>
      </trkpt>
      <trkpt lat="-49.2392214573919773101806640625" lon="-72.9614702425897121429443359375">
        <ele>495.79998779296875</ele>
        <time>2023-01-11T19:44:41.000Z</time>
      </trkpt>
      <trkpt lat="-49.23923193477094173431396484375" lon="-72.96143579296767711639404296875">
        <ele>495.600006103515625</ele>
        <time>2023-01-11T19:44:47.000Z</time>
      </trkpt>
      <trkpt lat="-49.23923780210316181182861328125" lon="-72.96136689372360706329345703125">
        <ele>495.600006103515625</ele>
        <time>2023-01-11T19:45:36.000Z</time>
      </trkpt>
      <trkpt lat="-49.23923780210316181182861328125" lon="-72.961376868188381195068359375">
        <ele>495.600006103515625</ele>
        <time>2023-01-11T19:45:41.000Z</time>
      </trkpt>
      <trkpt lat="-49.2392647080123424530029296875" lon="-72.9612566716969013214111328125">
        <ele>495.600006103515625</ele>
        <time>2023-01-11T19:45:53.000Z</time>
      </trkpt>
      <trkpt lat="-49.239303767681121826171875" lon="-72.96108325012028217315673828125">
        <ele>495.600006103515625</ele>
        <time>2023-01-11T19:46:02.000Z</time>
      </trkpt>
      <trkpt lat="-49.2393170110881328582763671875" lon="-72.961061038076877593994140625">
        <ele>495.600006103515625</ele>
        <time>2023-01-11T19:46:04.000Z</time>
      </trkpt>
      <trkpt lat="-49.23937174491584300994873046875" lon="-72.9609133489429950714111328125">
        <ele>495.600006103515625</ele>
        <time>2023-01-11T19:46:13.000Z</time>
      </trkpt>
      <trkpt lat="-49.239381887018680572509765625" lon="-72.96089247800409793853759765625">
        <ele>495.600006103515625</ele>
        <time>2023-01-11T19:46:14.000Z</time>
      </trkpt>
      <trkpt lat="-49.2394202761352062225341796875" lon="-72.96079172752797603607177734375">
        <ele>495.600006103515625</ele>
        <time>2023-01-11T19:46:21.000Z</time>
      </trkpt>
      <trkpt lat="-49.2394767701625823974609375" lon="-72.96065392903983592987060546875">
        <ele>495.600006103515625</ele>
        <time>2023-01-11T19:46:29.000Z</time>
      </trkpt>
      <trkpt lat="-49.2395701445639133453369140625" lon="-72.96057044528424739837646484375">
        <ele>495.600006103515625</ele>
        <time>2023-01-11T19:46:37.000Z</time>
      </trkpt>
      <trkpt lat="-49.23961649648845195770263671875" lon="-72.9605328105390071868896484375">
        <ele>495.600006103515625</ele>
        <time>2023-01-11T19:46:43.000Z</time>
      </trkpt>
      <trkpt lat="-49.23963141627609729766845703125" lon="-72.96052769757807254791259765625">
        <ele>498.600006103515625</ele>
        <time>2023-01-11T19:46:45.000Z</time>
      </trkpt>
      <trkpt lat="-49.239717833697795867919921875" lon="-72.960577569901943206787109375">
        <ele>499.399993896484375</ele>
        <time>2023-01-11T19:46:52.000Z</time>
      </trkpt>
      <trkpt lat="-49.2397237010300159454345703125" lon="-72.9605304636061191558837890625">
        <ele>499.79998779296875</ele>
        <time>2023-01-11T19:46:55.000Z</time>
      </trkpt>
      <trkpt lat="-49.23974574543535709381103515625" lon="-72.9604506678879261016845703125">
        <ele>500.600006103515625</ele>
        <time>2023-01-11T19:47:00.000Z</time>
      </trkpt>
      <trkpt lat="-49.23976183868944644927978515625" lon="-72.960362993180751800537109375">
        <ele>500.600006103515625</ele>
        <time>2023-01-11T19:47:08.000Z</time>
      </trkpt>
      <trkpt lat="-49.2397770099341869354248046875" lon="-72.96030205674469470977783203125">
        <ele>500.79998779296875</ele>
        <time>2023-01-11T19:47:13.000Z</time>
      </trkpt>
      <trkpt lat="-49.23979419283568859100341796875" lon="-72.960220165550708770751953125">
        <ele>500.600006103515625</ele>
        <time>2023-01-11T19:47:18.000Z</time>
      </trkpt>
      <trkpt lat="-49.239766784012317657470703125" lon="-72.96013425104320049285888671875">
        <ele>500.399993896484375</ele>
        <time>2023-01-11T19:47:24.000Z</time>
      </trkpt>
      <trkpt lat="-49.2397468350827693939208984375" lon="-72.960052192211151123046875">
        <ele>500.20001220703125</ele>
        <time>2023-01-11T19:47:31.000Z</time>
      </trkpt>
      <trkpt lat="-49.23970802687108516693115234375" lon="-72.96004238538444042205810546875">
        <ele>500.79998779296875</ele>
        <time>2023-01-11T19:47:35.000Z</time>
      </trkpt>
      <trkpt lat="-49.2396938614547252655029296875" lon="-72.96003802679479122161865234375">
        <ele>500.600006103515625</ele>
        <time>2023-01-11T19:47:37.000Z</time>
      </trkpt>
      <trkpt lat="-49.2396395467221736907958984375" lon="-72.95995890162885189056396484375">
        <ele>500</ele>
        <time>2023-01-11T19:47:43.000Z</time>
      </trkpt>
      <trkpt lat="-49.23962496221065521240234375" lon="-72.95992738567292690277099609375">
        <ele>500</ele>
        <time>2023-01-11T19:47:46.000Z</time>
      </trkpt>
      <trkpt lat="-49.239613898098468780517578125" lon="-72.9598604142665863037109375">
        <ele>500.20001220703125</ele>
        <time>2023-01-11T19:47:50.000Z</time>
      </trkpt>
      <trkpt lat="-49.23958313651382923126220703125" lon="-72.9598012380301952362060546875">
        <ele>501</ele>
        <time>2023-01-11T19:47:54.000Z</time>
      </trkpt>
      <trkpt lat="-49.239509291946887969970703125" lon="-72.9596833884716033935546875">
        <ele>500.20001220703125</ele>
        <time>2023-01-11T19:48:02.000Z</time>
      </trkpt>
      <trkpt lat="-49.23949613235890865325927734375" lon="-72.95966486446559429168701171875">
        <ele>500.20001220703125</ele>
        <time>2023-01-11T19:48:04.000Z</time>
      </trkpt>
      <trkpt lat="-49.23947115428745746612548828125" lon="-72.95964223332703113555908203125">
        <ele>499.79998779296875</ele>
        <time>2023-01-11T19:48:07.000Z</time>
      </trkpt>
      <trkpt lat="-49.23945204354822635650634765625" lon="-72.95961440540850162506103515625">
        <ele>499.20001220703125</ele>
        <time>2023-01-11T19:48:10.000Z</time>
      </trkpt>
      <trkpt lat="-49.2394491098821163177490234375" lon="-72.95959286391735076904296875">
        <ele>499</ele>
        <time>2023-01-11T19:48:11.000Z</time>
      </trkpt>
      <trkpt lat="-49.23944282345473766326904296875" lon="-72.95951130799949169158935546875">
        <ele>498.600006103515625</ele>
        <time>2023-01-11T19:48:14.000Z</time>
      </trkpt>
      <trkpt lat="-49.23943997360765933990478515625" lon="-72.9594753496348857879638671875">
        <ele>498.600006103515625</ele>
        <time>2023-01-11T19:48:16.000Z</time>
      </trkpt>
      <trkpt lat="-49.2394256405532360076904296875" lon="-72.95941223390400409698486328125">
        <ele>498.600006103515625</ele>
        <time>2023-01-11T19:48:19.000Z</time>
      </trkpt>
      <trkpt lat="-49.23942756839096546173095703125" lon="-72.959370911121368408203125">
        <ele>498.79998779296875</ele>
        <time>2023-01-11T19:48:23.000Z</time>
      </trkpt>
      <trkpt lat="-49.2394142411649227142333984375" lon="-72.95931550674140453338623046875">
        <ele>498.20001220703125</ele>
        <time>2023-01-11T19:48:29.000Z</time>
      </trkpt>
      <trkpt lat="-49.23940091393887996673583984375" lon="-72.95926672406494617462158203125">
        <ele>497.600006103515625</ele>
        <time>2023-01-11T19:48:32.000Z</time>
      </trkpt>
      <trkpt lat="-49.2393709905445575714111328125" lon="-72.95918055810034275054931640625">
        <ele>497.20001220703125</ele>
        <time>2023-01-11T19:48:38.000Z</time>
      </trkpt>
      <trkpt lat="-49.2393346130847930908203125" lon="-72.9590790532529354095458984375">
        <ele>497.600006103515625</ele>
        <time>2023-01-11T19:48:45.000Z</time>
      </trkpt>
      <trkpt lat="-49.23929278738796710968017578125" lon="-72.9589727707207202911376953125">
        <ele>498.20001220703125</ele>
        <time>2023-01-11T19:48:52.000Z</time>
      </trkpt>
      <trkpt lat="-49.23929044045507907867431640625" lon="-72.9589657299220561981201171875">
        <ele>498.399993896484375</ele>
        <time>2023-01-11T19:48:53.000Z</time>
      </trkpt>
      <trkpt lat="-49.23927225172519683837890625" lon="-72.9588980041444301605224609375">
        <ele>498.79998779296875</ele>
        <time>2023-01-11T19:48:58.000Z</time>
      </trkpt>
      <trkpt lat="-49.2392496205866336822509765625" lon="-72.9588507302105426788330078125">
        <ele>499.399993896484375</ele>
        <time>2023-01-11T19:49:02.000Z</time>
      </trkpt>
      <trkpt lat="-49.23922657035291194915771484375" lon="-72.95883824117481708526611328125">
        <ele>500</ele>
        <time>2023-01-11T19:49:05.000Z</time>
      </trkpt>
      <trkpt lat="-49.2392204515635967254638671875" lon="-72.95881728641688823699951171875">
        <ele>500.20001220703125</ele>
        <time>2023-01-11T19:49:07.000Z</time>
      </trkpt>
      <trkpt lat="-49.239224307239055633544921875" lon="-72.958777807652950286865234375">
        <ele>500.20001220703125</ele>
        <time>2023-01-11T19:49:09.000Z</time>
      </trkpt>
      <trkpt lat="-49.2391795478761196136474609375" lon="-72.95869289897382259368896484375">
        <ele>499</ele>
        <time>2023-01-11T19:49:16.000Z</time>
      </trkpt>
      <trkpt lat="-49.2391701601445674896240234375" lon="-72.95868217013776302337646484375">
        <ele>499</ele>
        <time>2023-01-11T19:49:17.000Z</time>
      </trkpt>
      <trkpt lat="-49.2391255684196949005126953125" lon="-72.9586445353925228118896484375">
        <ele>497.79998779296875</ele>
        <time>2023-01-11T19:49:21.000Z</time>
      </trkpt>
      <trkpt lat="-49.23903160728514194488525390625" lon="-72.95856230892241001129150390625">
        <ele>498.600006103515625</ele>
        <time>2023-01-11T19:49:28.000Z</time>
      </trkpt>
      <trkpt lat="-49.23899305053055286407470703125" lon="-72.958524338901042938232421875">
        <ele>498.20001220703125</ele>
        <time>2023-01-11T19:49:35.000Z</time>
      </trkpt>
      <trkpt lat="-49.238992966711521148681640625" lon="-72.95849793590605258941650390625">
        <ele>498.79998779296875</ele>
        <time>2023-01-11T19:49:40.000Z</time>
      </trkpt>
      <trkpt lat="-49.2389938049018383026123046875" lon="-72.958466000854969024658203125">
        <ele>499.399993896484375</ele>
        <time>2023-01-11T19:49:42.000Z</time>
      </trkpt>
      <trkpt lat="-49.2389679886400699615478515625" lon="-72.95843414962291717529296875">
        <ele>499.79998779296875</ele>
        <time>2023-01-11T19:49:45.000Z</time>
      </trkpt>
      <trkpt lat="-49.23894728533923625946044921875" lon="-72.9583789967000484466552734375">
        <ele>500.600006103515625</ele>
        <time>2023-01-11T19:49:50.000Z</time>
      </trkpt>
      <trkpt lat="-49.23893337137997150421142578125" lon="-72.9583422839641571044921875">
        <ele>501</ele>
        <time>2023-01-11T19:49:53.000Z</time>
      </trkpt>
      <trkpt lat="-49.23890219070017337799072265625" lon="-72.9582603089511394500732421875">
        <ele>501.600006103515625</ele>
        <time>2023-01-11T19:50:00.000Z</time>
      </trkpt>
      <trkpt lat="-49.2388278432190418243408203125" lon="-72.9581567086279392242431640625">
        <ele>502</ele>
        <time>2023-01-11T19:50:09.000Z</time>
      </trkpt>
      <trkpt lat="-49.23881552182137966156005859375" lon="-72.95814991928637027740478515625">
        <ele>501.79998779296875</ele>
        <time>2023-01-11T19:50:10.000Z</time>
      </trkpt>
      <trkpt lat="-49.23878400586545467376708984375" lon="-72.9581384360790252685546875">
        <ele>502</ele>
        <time>2023-01-11T19:50:13.000Z</time>
      </trkpt>
      <trkpt lat="-49.23872147686779499053955078125" lon="-72.95810197480022907257080078125">
        <ele>502.399993896484375</ele>
        <time>2023-01-11T19:50:18.000Z</time>
      </trkpt>
      <trkpt lat="-49.238642938435077667236328125" lon="-72.95803408138453960418701171875">
        <ele>502.399993896484375</ele>
        <time>2023-01-11T19:50:26.000Z</time>
      </trkpt>
      <trkpt lat="-49.23863883130252361297607421875" lon="-72.958020083606243133544921875">
        <ele>502.399993896484375</ele>
        <time>2023-01-11T19:50:27.000Z</time>
      </trkpt>
      <trkpt lat="-49.23860815353691577911376953125" lon="-72.95787499286234378814697265625">
        <ele>503.399993896484375</ele>
        <time>2023-01-11T19:50:36.000Z</time>
      </trkpt>
      <trkpt lat="-49.2385944910347461700439453125" lon="-72.95784632675349712371826171875">
        <ele>503.600006103515625</ele>
        <time>2023-01-11T19:50:38.000Z</time>
      </trkpt>
      <trkpt lat="-49.23855702392756938934326171875" lon="-72.957692854106426239013671875">
        <ele>503.79998779296875</ele>
        <time>2023-01-11T19:50:49.000Z</time>
      </trkpt>
      <trkpt lat="-49.23854629509150981903076171875" lon="-72.95755438506603240966796875">
        <ele>503.20001220703125</ele>
        <time>2023-01-11T19:50:57.000Z</time>
      </trkpt>
      <trkpt lat="-49.238510839641094207763671875" lon="-72.95747115276753902435302734375">
        <ele>502.79998779296875</ele>
        <time>2023-01-11T19:51:01.000Z</time>
      </trkpt>
      <trkpt lat="-49.23850254155695438385009765625" lon="-72.9574358649551868438720703125">
        <ele>502.399993896484375</ele>
        <time>2023-01-11T19:51:05.000Z</time>
      </trkpt>
      <trkpt lat="-49.23850715160369873046875" lon="-72.95741759240627288818359375">
        <ele>502.399993896484375</ele>
        <time>2023-01-11T19:51:06.000Z</time>
      </trkpt>
      <trkpt lat="-49.23851829953491687774658203125" lon="-72.95740862376987934112548828125">
        <ele>502.399993896484375</ele>
        <time>2023-01-11T19:51:07.000Z</time>
      </trkpt>
      <trkpt lat="-49.23854000866413116455078125" lon="-72.95735514722764492034912109375">
        <ele>502.20001220703125</ele>
        <time>2023-01-11T19:51:10.000Z</time>
      </trkpt>
      <trkpt lat="-49.23853422515094280242919921875" lon="-72.957311980426311492919921875">
        <ele>502.399993896484375</ele>
        <time>2023-01-11T19:51:12.000Z</time>
      </trkpt>
      <trkpt lat="-49.23853405751287937164306640625" lon="-72.95729731209576129913330078125">
        <ele>502.399993896484375</ele>
        <time>2023-01-11T19:51:13.000Z</time>
      </trkpt>
      <trkpt lat="-49.23853372223675251007080078125" lon="-72.95726831071078777313232421875">
        <ele>502</ele>
        <time>2023-01-11T19:51:15.000Z</time>
      </trkpt>
      <trkpt lat="-49.23853908665478229522705078125" lon="-72.9572068713605403900146484375">
        <ele>501.79998779296875</ele>
        <time>2023-01-11T19:51:19.000Z</time>
      </trkpt>
      <trkpt lat="-49.23850019462406635284423828125" lon="-72.95715716667473316192626953125">
        <ele>501.20001220703125</ele>
        <time>2023-01-11T19:51:23.000Z</time>
      </trkpt>
      <trkpt lat="-49.2384895496070384979248046875" lon="-72.9571448452770709991455078125">
        <ele>501.20001220703125</ele>
        <time>2023-01-11T19:51:25.000Z</time>
      </trkpt>
      <trkpt lat="-49.23847253434360027313232421875" lon="-72.95711894519627094268798828125">
        <ele>501</ele>
        <time>2023-01-11T19:51:27.000Z</time>
      </trkpt>
      <trkpt lat="-49.238443784415721893310546875" lon="-72.9570144228637218475341796875">
        <ele>501</ele>
        <time>2023-01-11T19:51:32.000Z</time>
      </trkpt>
      <trkpt lat="-49.23842442221939563751220703125" lon="-72.9568907059729099273681640625">
        <ele>501.20001220703125</ele>
        <time>2023-01-11T19:51:38.000Z</time>
      </trkpt>
      <trkpt lat="-49.2384496517479419708251953125" lon="-72.95679925940930843353271484375">
        <ele>501.79998779296875</ele>
        <time>2023-01-11T19:51:44.000Z</time>
      </trkpt>
      <trkpt lat="-49.2384573630988597869873046875" lon="-72.9567130096256732940673828125">
        <ele>502</ele>
        <time>2023-01-11T19:51:52.000Z</time>
      </trkpt>
      <trkpt lat="-49.23845627345144748687744140625" lon="-72.9566315375268459320068359375">
        <ele>500.79998779296875</ele>
        <time>2023-01-11T19:52:00.000Z</time>
      </trkpt>
      <trkpt lat="-49.23844638280570507049560546875" lon="-72.95660597272217273712158203125">
        <ele>500</ele>
        <time>2023-01-11T19:52:02.000Z</time>
      </trkpt>
      <trkpt lat="-49.2384281940758228302001953125" lon="-72.95658719725906848907470703125">
        <ele>499.600006103515625</ele>
        <time>2023-01-11T19:52:04.000Z</time>
      </trkpt>
      <trkpt lat="-49.23840053379535675048828125" lon="-72.95658702962100505828857421875">
        <ele>499.399993896484375</ele>
        <time>2023-01-11T19:52:06.000Z</time>
      </trkpt>
      <trkpt lat="-49.2383701913058757781982421875" lon="-72.9565881192684173583984375">
        <ele>498.79998779296875</ele>
        <time>2023-01-11T19:52:09.000Z</time>
      </trkpt>
      <trkpt lat="-49.2383341491222381591796875" lon="-72.95656288973987102508544921875">
        <ele>498.20001220703125</ele>
        <time>2023-01-11T19:52:12.000Z</time>
      </trkpt>
      <trkpt lat="-49.2382880486547946929931640625" lon="-72.95652852393686771392822265625">
        <ele>497.79998779296875</ele>
        <time>2023-01-11T19:52:16.000Z</time>
      </trkpt>
      <trkpt lat="-49.23824454657733440399169921875" lon="-72.95646540820598602294921875">
        <ele>496.79998779296875</ele>
        <time>2023-01-11T19:52:21.000Z</time>
      </trkpt>
      <trkpt lat="-49.23823314718902111053466796875" lon="-72.9564307071268558502197265625">
        <ele>496.600006103515625</ele>
        <time>2023-01-11T19:52:23.000Z</time>
      </trkpt>
      <trkpt lat="-49.23817791044712066650390625" lon="-72.95630724169313907623291015625">
        <ele>495.399993896484375</ele>
        <time>2023-01-11T19:52:30.000Z</time>
      </trkpt>
      <trkpt lat="-49.2381753958761692047119140625" lon="-72.95628913678228855133056640625">
        <ele>495.399993896484375</ele>
        <time>2023-01-11T19:52:31.000Z</time>
      </trkpt>
      <trkpt lat="-49.23811680637300014495849609375" lon="-72.956238090991973876953125">
        <ele>494.79998779296875</ele>
        <time>2023-01-11T19:52:38.000Z</time>
      </trkpt>
      <trkpt lat="-49.238097779452800750732421875" lon="-72.9562308825552463531494140625">
        <ele>494.399993896484375</ele>
        <time>2023-01-11T19:52:40.000Z</time>
      </trkpt>
      <trkpt lat="-49.238053523004055023193359375" lon="-72.95615821145474910736083984375">
        <ele>493.79998779296875</ele>
        <time>2023-01-11T19:52:46.000Z</time>
      </trkpt>
      <trkpt lat="-49.23800348304212093353271484375" lon="-72.95603097416460514068603515625">
        <ele>493.399993896484375</ele>
        <time>2023-01-11T19:52:53.000Z</time>
      </trkpt>
      <trkpt lat="-49.23798286356031894683837890625" lon="-72.955944724380970001220703125">
        <ele>493.79998779296875</ele>
        <time>2023-01-11T19:52:58.000Z</time>
      </trkpt>
      <trkpt lat="-49.23797531984746456146240234375" lon="-72.95591890811920166015625">
        <ele>493.79998779296875</ele>
        <time>2023-01-11T19:53:00.000Z</time>
      </trkpt>
      <trkpt lat="-49.23795319162309169769287109375" lon="-72.9558278806507587432861328125">
        <ele>494.399993896484375</ele>
        <time>2023-01-11T19:53:09.000Z</time>
      </trkpt>
      <trkpt lat="-49.23793961293995380401611328125" lon="-72.9557289741933345794677734375">
        <ele>495.399993896484375</ele>
        <time>2023-01-11T19:53:16.000Z</time>
      </trkpt>
      <trkpt lat="-49.23793592490255832672119140625" lon="-72.95571975409984588623046875">
        <ele>495.399993896484375</ele>
        <time>2023-01-11T19:53:17.000Z</time>
      </trkpt>
      <trkpt lat="-49.237926788628101348876953125" lon="-72.955706678330898284912109375">
        <ele>495.399993896484375</ele>
        <time>2023-01-11T19:53:18.000Z</time>
      </trkpt>
      <trkpt lat="-49.2379199154675006866455078125" lon="-72.955671809613704681396484375">
        <ele>495.399993896484375</ele>
        <time>2023-01-11T19:53:20.000Z</time>
      </trkpt>
      <trkpt lat="-49.2378954403102397918701171875" lon="-72.95560886152088642120361328125">
        <ele>495.399993896484375</ele>
        <time>2023-01-11T19:53:25.000Z</time>
      </trkpt>
      <trkpt lat="-49.23785336315631866455078125" lon="-72.9555527865886688232421875">
        <ele>495.600006103515625</ele>
        <time>2023-01-11T19:53:31.000Z</time>
      </trkpt>
      <trkpt lat="-49.2378272116184234619140625" lon="-72.9555103741586208343505859375">
        <ele>495.600006103515625</ele>
        <time>2023-01-11T19:53:35.000Z</time>
      </trkpt>
      <trkpt lat="-49.23781757242977619171142578125" lon="-72.95549771748483180999755859375">
        <ele>496</ele>
        <time>2023-01-11T19:53:36.000Z</time>
      </trkpt>
      <trkpt lat="-49.237806089222431182861328125" lon="-72.95549000613391399383544921875">
        <ele>496.399993896484375</ele>
        <time>2023-01-11T19:53:37.000Z</time>
      </trkpt>
      <trkpt lat="-49.23779594711959362030029296875" lon="-72.95548162423074245452880859375">
        <ele>496.399993896484375</ele>
        <time>2023-01-11T19:53:38.000Z</time>
      </trkpt>
      <trkpt lat="-49.2377475835382938385009765625" lon="-72.95546737499535083770751953125">
        <ele>496.600006103515625</ele>
        <time>2023-01-11T19:53:43.000Z</time>
      </trkpt>
      <trkpt lat="-49.23766803927719593048095703125" lon="-72.9554292373359203338623046875">
        <ele>496.600006103515625</ele>
        <time>2023-01-11T19:53:51.000Z</time>
      </trkpt>
      <trkpt lat="-49.23762730322778224945068359375" lon="-72.95540400780737400054931640625">
        <ele>496.20001220703125</ele>
        <time>2023-01-11T19:53:56.000Z</time>
      </trkpt>
      <trkpt lat="-49.23761908896267414093017578125" lon="-72.95539964921772480010986328125">
        <ele>496.20001220703125</ele>
        <time>2023-01-11T19:53:57.000Z</time>
      </trkpt>
      <trkpt lat="-49.23757114447653293609619140625" lon="-72.95538690872490406036376953125">
        <ele>495.20001220703125</ele>
        <time>2023-01-11T19:54:01.000Z</time>
      </trkpt>
      <trkpt lat="-49.23752420581877231597900390625" lon="-72.955402247607707977294921875">
        <ele>495</ele>
        <time>2023-01-11T19:54:05.000Z</time>
      </trkpt>
      <trkpt lat="-49.23748984001576900482177734375" lon="-72.95538892038166522979736328125">
        <ele>494.79998779296875</ele>
        <time>2023-01-11T19:54:08.000Z</time>
      </trkpt>
      <trkpt lat="-49.23746620304882526397705078125" lon="-72.955392189323902130126953125">
        <ele>494.600006103515625</ele>
        <time>2023-01-11T19:54:10.000Z</time>
      </trkpt>
      <trkpt lat="-49.23744306899607181549072265625" lon="-72.95538506470620632171630859375">
        <ele>494.399993896484375</ele>
        <time>2023-01-11T19:54:12.000Z</time>
      </trkpt>
      <trkpt lat="-49.23741708509624004364013671875" lon="-72.9553702287375926971435546875">
        <ele>494</ele>
        <time>2023-01-11T19:54:14.000Z</time>
      </trkpt>
      <trkpt lat="-49.23734701238572597503662109375" lon="-72.955321781337261199951171875">
        <ele>493.399993896484375</ele>
        <time>2023-01-11T19:54:21.000Z</time>
      </trkpt>
      <trkpt lat="-49.2372942902147769927978515625" lon="-72.9552310891449451446533203125">
        <ele>493</ele>
        <time>2023-01-11T19:54:28.000Z</time>
      </trkpt>
      <trkpt lat="-49.23728867433965206146240234375" lon="-72.9552160017192363739013671875">
        <ele>492.600006103515625</ele>
        <time>2023-01-11T19:54:29.000Z</time>
      </trkpt>
      <trkpt lat="-49.23726000823080539703369140625" lon="-72.95513528399169445037841796875">
        <ele>492.20001220703125</ele>
        <time>2023-01-11T19:54:34.000Z</time>
      </trkpt>
      <trkpt lat="-49.23725749365985393524169921875" lon="-72.95508943498134613037109375">
        <ele>492.20001220703125</ele>
        <time>2023-01-11T19:54:37.000Z</time>
      </trkpt>
      <trkpt lat="-49.23723352141678333282470703125" lon="-72.9550061188638210296630859375">
        <ele>492.20001220703125</ele>
        <time>2023-01-11T19:54:43.000Z</time>
      </trkpt>
      <trkpt lat="-49.23715305514633655548095703125" lon="-72.95499446801841259002685546875">
        <ele>492.20001220703125</ele>
        <time>2023-01-11T19:54:50.000Z</time>
      </trkpt>
      <trkpt lat="-49.23712371848523616790771484375" lon="-72.95501776970922946929931640625">
        <ele>491.399993896484375</ele>
        <time>2023-01-11T19:54:53.000Z</time>
      </trkpt>
      <trkpt lat="-49.237104021012783050537109375" lon="-72.9550324380397796630859375">
        <ele>491.20001220703125</ele>
        <time>2023-01-11T19:54:55.000Z</time>
      </trkpt>
      <trkpt lat="-49.237022213637828826904296875" lon="-72.95509052462875843048095703125">
        <ele>491</ele>
        <time>2023-01-11T19:55:02.000Z</time>
      </trkpt>
      <trkpt lat="-49.23688734881579875946044921875" lon="-72.95508281327784061431884765625">
        <ele>490.20001220703125</ele>
        <time>2023-01-11T19:55:13.000Z</time>
      </trkpt>
      <trkpt lat="-49.23675768077373504638671875" lon="-72.9550191946327686309814453125">
        <ele>489.399993896484375</ele>
        <time>2023-01-11T19:55:24.000Z</time>
      </trkpt>
      <trkpt lat="-49.23664259724318981170654296875" lon="-72.95498943887650966644287109375">
        <ele>489.20001220703125</ele>
        <time>2023-01-11T19:55:34.000Z</time>
      </trkpt>
      <trkpt lat="-49.23660353757441043853759765625" lon="-72.95493177138268947601318359375">
        <ele>488.79998779296875</ele>
        <time>2023-01-11T19:55:38.000Z</time>
      </trkpt>
      <trkpt lat="-49.2365848459303379058837890625" lon="-72.95487863011658191680908203125">
        <ele>489</ele>
        <time>2023-01-11T19:55:41.000Z</time>
      </trkpt>
      <trkpt lat="-49.2365369014441967010498046875" lon="-72.95481383800506591796875">
        <ele>489</ele>
        <time>2023-01-11T19:55:47.000Z</time>
      </trkpt>
      <trkpt lat="-49.2365362308919429779052734375" lon="-72.95479841530323028564453125">
        <ele>489</ele>
        <time>2023-01-11T19:55:48.000Z</time>
      </trkpt>
      <trkpt lat="-49.23646842129528522491455078125" lon="-72.95465801842510700225830078125">
        <ele>488.600006103515625</ele>
        <time>2023-01-11T19:55:58.000Z</time>
      </trkpt>
      <trkpt lat="-49.23644796945154666900634765625" lon="-72.9546275921165943145751953125">
        <ele>488.79998779296875</ele>
        <time>2023-01-11T19:56:01.000Z</time>
      </trkpt>
      <trkpt lat="-49.23640354536473751068115234375" lon="-72.95456833206117153167724609375">
        <ele>488.79998779296875</ele>
        <time>2023-01-11T19:56:06.000Z</time>
      </trkpt>
      <trkpt lat="-49.236390553414821624755859375" lon="-72.95454628765583038330078125">
        <ele>489</ele>
        <time>2023-01-11T19:56:08.000Z</time>
      </trkpt>
      <trkpt lat="-49.2363752983510494232177734375" lon="-72.95452407561242580413818359375">
        <ele>489.20001220703125</ele>
        <time>2023-01-11T19:56:10.000Z</time>
      </trkpt>
      <trkpt lat="-49.2363679222762584686279296875" lon="-72.954517118632793426513671875">
        <ele>489.399993896484375</ele>
        <time>2023-01-11T19:56:11.000Z</time>
      </trkpt>
      <trkpt lat="-49.2363548465073108673095703125" lon="-72.95444360934197902679443359375">
        <ele>490.399993896484375</ele>
        <time>2023-01-11T19:56:17.000Z</time>
      </trkpt>
      <trkpt lat="-49.23635040409862995147705078125" lon="-72.95442366041243076324462890625">
        <ele>490.399993896484375</ele>
        <time>2023-01-11T19:56:18.000Z</time>
      </trkpt>
      <trkpt lat="-49.23636985011398792266845703125" lon="-72.95434780418872833251953125">
        <ele>489.399993896484375</ele>
        <time>2023-01-11T19:56:24.000Z</time>
      </trkpt>
      <trkpt lat="-49.23636733554303646087646484375" lon="-72.9543221555650234222412109375">
        <ele>489.20001220703125</ele>
        <time>2023-01-11T19:56:25.000Z</time>
      </trkpt>
      <trkpt lat="-49.236337244510650634765625" lon="-72.95415929518640041351318359375">
        <ele>489.600006103515625</ele>
        <time>2023-01-11T19:56:35.000Z</time>
      </trkpt>
      <trkpt lat="-49.23633330501616001129150390625" lon="-72.954097688198089599609375">
        <ele>490.20001220703125</ele>
        <time>2023-01-11T19:56:38.000Z</time>
      </trkpt>
      <trkpt lat="-49.2363090813159942626953125" lon="-72.9540633223950862884521484375">
        <ele>490.399993896484375</ele>
        <time>2023-01-11T19:56:41.000Z</time>
      </trkpt>
      <trkpt lat="-49.23630497418344020843505859375" lon="-72.9540468938648700714111328125">
        <ele>490.79998779296875</ele>
        <time>2023-01-11T19:56:42.000Z</time>
      </trkpt>
      <trkpt lat="-49.23628485761582851409912109375" lon="-72.9539855383336544036865234375">
        <ele>490.79998779296875</ele>
        <time>2023-01-11T19:56:47.000Z</time>
      </trkpt>
      <trkpt lat="-49.23624412156641483306884765625" lon="-72.9539255239069461822509765625">
        <ele>491</ele>
        <time>2023-01-11T19:56:53.000Z</time>
      </trkpt>
      <trkpt lat="-49.23623473383486270904541015625" lon="-72.953925691545009613037109375">
        <ele>491</ele>
        <time>2023-01-11T19:56:54.000Z</time>
      </trkpt>
      <trkpt lat="-49.23621830530464649200439453125" lon="-72.953918315470218658447265625">
        <ele>491.600006103515625</ele>
        <time>2023-01-11T19:56:57.000Z</time>
      </trkpt>
      <trkpt lat="-49.2361949197947978973388671875" lon="-72.9538856260478496551513671875">
        <ele>491.600006103515625</ele>
        <time>2023-01-11T19:57:00.000Z</time>
      </trkpt>
      <trkpt lat="-49.2361469753086566925048828125" lon="-72.95381982810795307159423828125">
        <ele>491.20001220703125</ele>
        <time>2023-01-11T19:57:06.000Z</time>
      </trkpt>
      <trkpt lat="-49.2360950075089931488037109375" lon="-72.95370331965386867523193359375">
        <ele>490.600006103515625</ele>
        <time>2023-01-11T19:57:14.000Z</time>
      </trkpt>
      <trkpt lat="-49.23608855344355106353759765625" lon="-72.953684628009796142578125">
        <ele>490.600006103515625</ele>
        <time>2023-01-11T19:57:15.000Z</time>
      </trkpt>
      <trkpt lat="-49.2360577918589115142822265625" lon="-72.95363743789494037628173828125">
        <ele>490</ele>
        <time>2023-01-11T19:57:18.000Z</time>
      </trkpt>
      <trkpt lat="-49.23603482544422149658203125" lon="-72.95360089279711246490478515625">
        <ele>490</ele>
        <time>2023-01-11T19:57:21.000Z</time>
      </trkpt>
      <trkpt lat="-49.2359977774322032928466796875" lon="-72.953572310507297515869140625">
        <ele>490</ele>
        <time>2023-01-11T19:57:27.000Z</time>
      </trkpt>
      <trkpt lat="-49.2359863780438899993896484375" lon="-72.953564263880252838134765625">
        <ele>489.79998779296875</ele>
        <time>2023-01-11T19:57:28.000Z</time>
      </trkpt>
      <trkpt lat="-49.2359595559537410736083984375" lon="-72.9535423032939434051513671875">
        <ele>489.600006103515625</ele>
        <time>2023-01-11T19:57:31.000Z</time>
      </trkpt>
      <trkpt lat="-49.2359290458261966705322265625" lon="-72.95354305766522884368896484375">
        <ele>488.79998779296875</ele>
        <time>2023-01-11T19:57:34.000Z</time>
      </trkpt>
      <trkpt lat="-49.235916472971439361572265625" lon="-72.95354858972132205963134765625">
        <ele>488.20001220703125</ele>
        <time>2023-01-11T19:57:35.000Z</time>
      </trkpt>
      <trkpt lat="-49.2358504235744476318359375" lon="-72.953552193939685821533203125">
        <ele>487.79998779296875</ele>
        <time>2023-01-11T19:57:41.000Z</time>
      </trkpt>
      <trkpt lat="-49.2358039878308773040771484375" lon="-72.9535292275249958038330078125">
        <ele>487</ele>
        <time>2023-01-11T19:57:46.000Z</time>
      </trkpt>
      <trkpt lat="-49.23578999005258083343505859375" lon="-72.9535376094281673431396484375">
        <ele>487</ele>
        <time>2023-01-11T19:57:47.000Z</time>
      </trkpt>
      <trkpt lat="-49.23576115630567073822021484375" lon="-72.95353216119110584259033203125">
        <ele>487</ele>
        <time>2023-01-11T19:57:49.000Z</time>
      </trkpt>
      <trkpt lat="-49.235749505460262298583984375" lon="-72.95352059416472911834716796875">
        <ele>487</ele>
        <time>2023-01-11T19:57:50.000Z</time>
      </trkpt>
      <trkpt lat="-49.235727377235889434814453125" lon="-72.95350148342549800872802734375">
        <ele>487</ele>
        <time>2023-01-11T19:57:52.000Z</time>
      </trkpt>
      <trkpt lat="-49.23571673221886157989501953125" lon="-72.953491508960723876953125">
        <ele>486.79998779296875</ele>
        <time>2023-01-11T19:57:53.000Z</time>
      </trkpt>
      <trkpt lat="-49.23570533283054828643798828125" lon="-72.95344549231231212615966796875">
        <ele>486.399993896484375</ele>
        <time>2023-01-11T19:57:58.000Z</time>
      </trkpt>
      <trkpt lat="-49.235669039189815521240234375" lon="-72.9534162394702434539794921875">
        <ele>486.20001220703125</ele>
        <time>2023-01-11T19:58:06.000Z</time>
      </trkpt>
      <trkpt lat="-49.2356626689434051513671875" lon="-72.953410707414150238037109375">
        <ele>486</ele>
        <time>2023-01-11T19:58:07.000Z</time>
      </trkpt>
      <trkpt lat="-49.2355894111096858978271484375" lon="-72.95341280288994312286376953125">
        <ele>485.600006103515625</ele>
        <time>2023-01-11T19:58:14.000Z</time>
      </trkpt>
      <trkpt lat="-49.23554590903222560882568359375" lon="-72.95340760610997676849365234375">
        <ele>485</ele>
        <time>2023-01-11T19:58:21.000Z</time>
      </trkpt>
      <trkpt lat="-49.2354588210582733154296875" lon="-72.95337282121181488037109375">
        <ele>484.79998779296875</ele>
        <time>2023-01-11T19:58:28.000Z</time>
      </trkpt>
      <trkpt lat="-49.23537123017013072967529296875" lon="-72.95337407849729061126708984375">
        <ele>484.399993896484375</ele>
        <time>2023-01-11T19:58:35.000Z</time>
      </trkpt>
      <trkpt lat="-49.23529210500419139862060546875" lon="-72.95336519367992877960205078125">
        <ele>484.600006103515625</ele>
        <time>2023-01-11T19:58:41.000Z</time>
      </trkpt>
      <trkpt lat="-49.2352377064526081085205078125" lon="-72.95333434827625751495361328125">
        <ele>484.20001220703125</ele>
        <time>2023-01-11T19:58:46.000Z</time>
      </trkpt>
      <trkpt lat="-49.235224463045597076416015625" lon="-72.95330710709095001220703125">
        <ele>484.399993896484375</ele>
        <time>2023-01-11T19:58:48.000Z</time>
      </trkpt>
      <trkpt lat="-49.23516771756112575531005859375" lon="-72.953273244202136993408203125">
        <ele>484</ele>
        <time>2023-01-11T19:58:53.000Z</time>
      </trkpt>
      <trkpt lat="-49.2351557314395904541015625" lon="-72.95327081345021724700927734375">
        <ele>483.600006103515625</ele>
        <time>2023-01-11T19:58:54.000Z</time>
      </trkpt>
      <trkpt lat="-49.2351354472339153289794921875" lon="-72.95326511375606060028076171875">
        <ele>483.600006103515625</ele>
        <time>2023-01-11T19:58:56.000Z</time>
      </trkpt>
      <trkpt lat="-49.2350888438522815704345703125" lon="-72.9532559774816036224365234375">
        <ele>482.600006103515625</ele>
        <time>2023-01-11T19:59:00.000Z</time>
      </trkpt>
      <trkpt lat="-49.2350502870976924896240234375" lon="-72.953196801245212554931640625">
        <ele>482.399993896484375</ele>
        <time>2023-01-11T19:59:05.000Z</time>
      </trkpt>
      <trkpt lat="-49.23504450358450412750244140625" lon="-72.95318179763853549957275390625">
        <ele>482.20001220703125</ele>
        <time>2023-01-11T19:59:06.000Z</time>
      </trkpt>
      <trkpt lat="-49.23503813333809375762939453125" lon="-72.95315564610064029693603515625">
        <ele>482.20001220703125</ele>
        <time>2023-01-11T19:59:08.000Z</time>
      </trkpt>
      <trkpt lat="-49.23503578640520572662353515625" lon="-72.9531262256205081939697265625">
        <ele>482.20001220703125</ele>
        <time>2023-01-11T19:59:10.000Z</time>
      </trkpt>
      <trkpt lat="-49.23499588854610919952392578125" lon="-72.95303578488528728485107421875">
        <ele>481.600006103515625</ele>
        <time>2023-01-11T19:59:17.000Z</time>
      </trkpt>
      <trkpt lat="-49.2349885962903499603271484375" lon="-72.9530274868011474609375">
        <ele>481.600006103515625</ele>
        <time>2023-01-11T19:59:18.000Z</time>
      </trkpt>
      <trkpt lat="-49.23497828654944896697998046875" lon="-72.95301767997443675994873046875">
        <ele>481.399993896484375</ele>
        <time>2023-01-11T19:59:19.000Z</time>
      </trkpt>
      <trkpt lat="-49.23491072840988636016845703125" lon="-72.9529408179223537445068359375">
        <ele>481</ele>
        <time>2023-01-11T19:59:26.000Z</time>
      </trkpt>
      <trkpt lat="-49.234842918813228607177734375" lon="-72.95283780433237552642822265625">
        <ele>480.79998779296875</ele>
        <time>2023-01-11T19:59:34.000Z</time>
      </trkpt>
      <trkpt lat="-49.23482892103493213653564453125" lon="-72.9527225531637668609619140625">
        <ele>480.600006103515625</ele>
        <time>2023-01-11T19:59:41.000Z</time>
      </trkpt>
      <trkpt lat="-49.234853647649288177490234375" lon="-72.95264803804457187652587890625">
        <ele>480.399993896484375</ele>
        <time>2023-01-11T19:59:45.000Z</time>
      </trkpt>
      <trkpt lat="-49.234879128634929656982421875" lon="-72.95255147852003574371337890625">
        <ele>481</ele>
        <time>2023-01-11T19:59:51.000Z</time>
      </trkpt>
      <trkpt lat="-49.23487669788300991058349609375" lon="-72.95244720764458179473876953125">
        <ele>480.600006103515625</ele>
        <time>2023-01-11T19:59:58.000Z</time>
      </trkpt>
      <trkpt lat="-49.2348702438175678253173828125" lon="-72.95243346132338047027587890625">
        <ele>480.600006103515625</ele>
        <time>2023-01-11T19:59:59.000Z</time>
      </trkpt>
      <trkpt lat="-49.234808720648288726806640625" lon="-72.95231561176478862762451171875">
        <ele>480.600006103515625</ele>
        <time>2023-01-11T20:00:07.000Z</time>
      </trkpt>
      <trkpt lat="-49.234727919101715087890625" lon="-72.95226037502288818359375">
        <ele>479.600006103515625</ele>
        <time>2023-01-11T20:00:15.000Z</time>
      </trkpt>
      <trkpt lat="-49.23469732515513896942138671875" lon="-72.95224118046462535858154296875">
        <ele>479.399993896484375</ele>
        <time>2023-01-11T20:00:18.000Z</time>
      </trkpt>
      <trkpt lat="-49.234639741480350494384765625" lon="-72.95217194594442844390869140625">
        <ele>478.399993896484375</ele>
        <time>2023-01-11T20:00:25.000Z</time>
      </trkpt>
      <trkpt lat="-49.23463203012943267822265625" lon="-72.95216574333608150482177734375">
        <ele>478</ele>
        <time>2023-01-11T20:00:26.000Z</time>
      </trkpt>
      <trkpt lat="-49.23458199016749858856201171875" lon="-72.95209877192974090576171875">
        <ele>477.79998779296875</ele>
        <time>2023-01-11T20:00:31.000Z</time>
      </trkpt>
      <trkpt lat="-49.2345755361020565032958984375" lon="-72.952089048922061920166015625">
        <ele>477.79998779296875</ele>
        <time>2023-01-11T20:00:32.000Z</time>
      </trkpt>
      <trkpt lat="-49.23453949391841888427734375" lon="-72.95199953019618988037109375">
        <ele>477.79998779296875</ele>
        <time>2023-01-11T20:00:38.000Z</time>
      </trkpt>
      <trkpt lat="-49.2345093190670013427734375" lon="-72.95189282856881618499755859375">
        <ele>478.600006103515625</ele>
        <time>2023-01-11T20:00:45.000Z</time>
      </trkpt>
      <trkpt lat="-49.23448861576616764068603515625" lon="-72.95187958516180515289306640625">
        <ele>479</ele>
        <time>2023-01-11T20:00:47.000Z</time>
      </trkpt>
      <trkpt lat="-49.23439599573612213134765625" lon="-72.951868437230587005615234375">
        <ele>477.399993896484375</ele>
        <time>2023-01-11T20:00:55.000Z</time>
      </trkpt>
      <trkpt lat="-49.23438660800457000732421875" lon="-72.95185469090938568115234375">
        <ele>477.399993896484375</ele>
        <time>2023-01-11T20:00:56.000Z</time>
      </trkpt>
      <trkpt lat="-49.2343683354556560516357421875" lon="-72.95181185938417911529541015625">
        <ele>476.600006103515625</ele>
        <time>2023-01-11T20:00:59.000Z</time>
      </trkpt>
      <trkpt lat="-49.23435752280056476593017578125" lon="-72.95175989158451557159423828125">
        <ele>475.600006103515625</ele>
        <time>2023-01-11T20:01:02.000Z</time>
      </trkpt>
      <trkpt lat="-49.2343592830002307891845703125" lon="-72.951723597943782806396484375">
        <ele>475.600006103515625</ele>
        <time>2023-01-11T20:01:04.000Z</time>
      </trkpt>
      <trkpt lat="-49.2343666590750217437744140625" lon="-72.95166249386966228485107421875">
        <ele>475.399993896484375</ele>
        <time>2023-01-11T20:01:08.000Z</time>
      </trkpt>
      <trkpt lat="-49.23436724580824375152587890625" lon="-72.95165394432842731475830078125">
        <ele>475.399993896484375</ele>
        <time>2023-01-11T20:01:10.000Z</time>
      </trkpt>
      <trkpt lat="-49.2343753762543201446533203125" lon="-72.9516406171023845672607421875">
        <ele>475.399993896484375</ele>
        <time>2023-01-11T20:01:16.000Z</time>
      </trkpt>
      <trkpt lat="-49.23437294550240039825439453125" lon="-72.9516117833554744720458984375">
        <ele>475</ele>
        <time>2023-01-11T20:01:23.000Z</time>
      </trkpt>
      <trkpt lat="-49.23437311314046382904052734375" lon="-72.9516137950122356414794921875">
        <ele>475.399993896484375</ele>
        <time>2023-01-11T20:01:35.000Z</time>
      </trkpt>
      <trkpt lat="-49.23437311314046382904052734375" lon="-72.9516137950122356414794921875">
        <ele>475</ele>
        <time>2023-01-11T20:01:41.000Z</time>
      </trkpt>
      <trkpt lat="-49.23437210731208324432373046875" lon="-72.95161069370806217193603515625">
        <ele>474.600006103515625</ele>
        <time>2023-01-11T20:01:50.000Z</time>
      </trkpt>
      <trkpt lat="-49.23435249365866184234619140625" lon="-72.951572053134441375732421875">
        <ele>474.20001220703125</ele>
        <time>2023-01-11T20:02:01.000Z</time>
      </trkpt>
      <trkpt lat="-49.23433774150907993316650390625" lon="-72.95156375505030155181884765625">
        <ele>474.399993896484375</ele>
        <time>2023-01-11T20:02:18.000Z</time>
      </trkpt>
      <trkpt lat="-49.2343389987945556640625" lon="-72.951511703431606292724609375">
        <ele>474</ele>
        <time>2023-01-11T20:02:22.000Z</time>
      </trkpt>
      <trkpt lat="-49.23432986252009868621826171875" lon="-72.95144774951040744781494140625">
        <ele>474.20001220703125</ele>
        <time>2023-01-11T20:02:26.000Z</time>
      </trkpt>
      <trkpt lat="-49.23430974595248699188232421875" lon="-72.95140097849071025848388671875">
        <ele>474.20001220703125</ele>
        <time>2023-01-11T20:02:29.000Z</time>
      </trkpt>
      <trkpt lat="-49.2343001067638397216796875" lon="-72.9513767547905445098876953125">
        <ele>474.20001220703125</ele>
        <time>2023-01-11T20:02:31.000Z</time>
      </trkpt>
      <trkpt lat="-49.2342848517000675201416015625" lon="-72.9513524472713470458984375">
        <ele>474.399993896484375</ele>
        <time>2023-01-11T20:02:33.000Z</time>
      </trkpt>
      <trkpt lat="-49.2342791520059108734130859375" lon="-72.951298467814922332763671875">
        <ele>474.399993896484375</ele>
        <time>2023-01-11T20:02:36.000Z</time>
      </trkpt>
      <trkpt lat="-49.234289713203907012939453125" lon="-72.9512639343738555908203125">
        <ele>474.399993896484375</ele>
        <time>2023-01-11T20:02:38.000Z</time>
      </trkpt>
      <trkpt lat="-49.234293736517429351806640625" lon="-72.95112437568604946136474609375">
        <ele>474.399993896484375</ele>
        <time>2023-01-11T20:02:45.000Z</time>
      </trkpt>
      <trkpt lat="-49.2342801578342914581298828125" lon="-72.95103720389306545257568359375">
        <ele>474.399993896484375</ele>
        <time>2023-01-11T20:02:52.000Z</time>
      </trkpt>
      <trkpt lat="-49.2342224903404712677001953125" lon="-72.95092991553246974945068359375">
        <ele>474.399993896484375</ele>
        <time>2023-01-11T20:03:00.000Z</time>
      </trkpt>
      <trkpt lat="-49.23418384976685047149658203125" lon="-72.9508160054683685302734375">
        <ele>475</ele>
        <time>2023-01-11T20:03:07.000Z</time>
      </trkpt>
      <trkpt lat="-49.23413875512778759002685546875" lon="-72.95069220475852489471435546875">
        <ele>474.600006103515625</ele>
        <time>2023-01-11T20:03:15.000Z</time>
      </trkpt>
      <trkpt lat="-49.23412081785500049591064453125" lon="-72.9505472816526889801025390625">
        <ele>474.20001220703125</ele>
        <time>2023-01-11T20:03:23.000Z</time>
      </trkpt>
      <trkpt lat="-49.234125427901744842529296875" lon="-72.95037419535219669342041015625">
        <ele>474.399993896484375</ele>
        <time>2023-01-11T20:03:32.000Z</time>
      </trkpt>
      <trkpt lat="-49.23418804071843624114990234375" lon="-72.95025215484201908111572265625">
        <ele>474.399993896484375</ele>
        <time>2023-01-11T20:03:40.000Z</time>
      </trkpt>
      <trkpt lat="-49.2342476360499858856201171875" lon="-72.9501908831298351287841796875">
        <ele>474.600006103515625</ele>
        <time>2023-01-11T20:03:46.000Z</time>
      </trkpt>
      <trkpt lat="-49.23427688889205455780029296875" lon="-72.95014134608209133148193359375">
        <ele>474.79998779296875</ele>
        <time>2023-01-11T20:03:49.000Z</time>
      </trkpt>
      <trkpt lat="-49.23435685224831104278564453125" lon="-72.95004780404269695281982421875">
        <ele>475</ele>
        <time>2023-01-11T20:03:58.000Z</time>
      </trkpt>
      <trkpt lat="-49.23443497158586978912353515625" lon="-72.949961721897125244140625">
        <ele>475</ele>
        <time>2023-01-11T20:04:07.000Z</time>
      </trkpt>
      <trkpt lat="-49.23445961438119411468505859375" lon="-72.94989131391048431396484375">
        <ele>475</ele>
        <time>2023-01-11T20:04:12.000Z</time>
      </trkpt>
      <trkpt lat="-49.2344863526523113250732421875" lon="-72.949804477393627166748046875">
        <ele>475</ele>
        <time>2023-01-11T20:04:18.000Z</time>
      </trkpt>
      <trkpt lat="-49.23456304706633090972900390625" lon="-72.94971453957259654998779296875">
        <ele>475</ele>
        <time>2023-01-11T20:04:27.000Z</time>
      </trkpt>
      <trkpt lat="-49.23463110812008380889892578125" lon="-72.9495417885482311248779296875">
        <ele>475</ele>
        <time>2023-01-11T20:04:38.000Z</time>
      </trkpt>
      <trkpt lat="-49.2346915416419506072998046875" lon="-72.94941228814423084259033203125">
        <ele>475</ele>
        <time>2023-01-11T20:04:47.000Z</time>
      </trkpt>
      <trkpt lat="-49.23470579087734222412109375" lon="-72.94931489042937755584716796875">
        <ele>475</ele>
        <time>2023-01-11T20:04:54.000Z</time>
      </trkpt>
      <trkpt lat="-49.234698079526424407958984375" lon="-72.9492997191846370697021484375">
        <ele>475</ele>
        <time>2023-01-11T20:04:55.000Z</time>
      </trkpt>
      <trkpt lat="-49.2346898652613162994384765625" lon="-72.949288152158260345458984375">
        <ele>475</ele>
        <time>2023-01-11T20:04:56.000Z</time>
      </trkpt>
      <trkpt lat="-49.23461987636983394622802734375" lon="-72.9492549598217010498046875">
        <ele>475</ele>
        <time>2023-01-11T20:05:02.000Z</time>
      </trkpt>
      <trkpt lat="-49.2345215566456317901611328125" lon="-72.94921497814357280731201171875">
        <ele>475</ele>
        <time>2023-01-11T20:05:10.000Z</time>
      </trkpt>
      <trkpt lat="-49.2344125919044017791748046875" lon="-72.949115820229053497314453125">
        <ele>475</ele>
        <time>2023-01-11T20:05:20.000Z</time>
      </trkpt>
      <trkpt lat="-49.234289713203907012939453125" lon="-72.94903744943439960479736328125">
        <ele>475</ele>
        <time>2023-01-11T20:05:31.000Z</time>
      </trkpt>
      <trkpt lat="-49.23425761051476001739501953125" lon="-72.94894675724208354949951171875">
        <ele>475</ele>
        <time>2023-01-11T20:05:39.000Z</time>
      </trkpt>
      <trkpt lat="-49.23424855805933475494384765625" lon="-72.94895245693624019622802734375">
        <ele>475</ele>
        <time>2023-01-11T20:05:46.000Z</time>
      </trkpt>
      <trkpt lat="-49.23422508873045444488525390625" lon="-72.948939464986324310302734375">
        <ele>475</ele>
        <time>2023-01-11T20:05:52.000Z</time>
      </trkpt>
      <trkpt lat="-49.2342295311391353607177734375" lon="-72.94892529956996440887451171875">
        <ele>475</ele>
        <time>2023-01-11T20:06:02.000Z</time>
      </trkpt>
      <trkpt lat="-49.23422995023429393768310546875" lon="-72.94889219105243682861328125">
        <ele>475</ele>
        <time>2023-01-11T20:06:03.000Z</time>
      </trkpt>
      <trkpt lat="-49.2342318780720233917236328125" lon="-72.94875782914459705352783203125">
        <ele>475</ele>
        <time>2023-01-11T20:06:08.000Z</time>
      </trkpt>
      <trkpt lat="-49.23421360552310943603515625" lon="-72.94871927239000797271728515625">
        <ele>475</ele>
        <time>2023-01-11T20:06:10.000Z</time>
      </trkpt>
      <trkpt lat="-49.234067760407924652099609375" lon="-72.94866495765745639801025390625">
        <ele>475</ele>
        <time>2023-01-11T20:06:22.000Z</time>
      </trkpt>
      <trkpt lat="-49.2339623160660266876220703125" lon="-72.94867836870253086090087890625">
        <ele>475</ele>
        <time>2023-01-11T20:06:30.000Z</time>
      </trkpt>
      <trkpt lat="-49.23385041765868663787841796875" lon="-72.94871860183775424957275390625">
        <ele>475</ele>
        <time>2023-01-11T20:06:40.000Z</time>
      </trkpt>
      <trkpt lat="-49.23372670076787471771240234375" lon="-72.9486720822751522064208984375">
        <ele>475</ele>
        <time>2023-01-11T20:06:51.000Z</time>
      </trkpt>
      <trkpt lat="-49.23361589200794696807861328125" lon="-72.94870971702039241790771484375">
        <ele>475</ele>
        <time>2023-01-11T20:07:00.000Z</time>
      </trkpt>
      <trkpt lat="-49.233514554798603057861328125" lon="-72.948778532445430755615234375">
        <ele>475</ele>
        <time>2023-01-11T20:07:10.000Z</time>
      </trkpt>
      <trkpt lat="-49.2334798537194728851318359375" lon="-72.94878833927214145660400390625">
        <ele>475</ele>
        <time>2023-01-11T20:07:13.000Z</time>
      </trkpt>
      <trkpt lat="-49.23342277295887470245361328125" lon="-72.9487981460988521575927734375">
        <ele>475</ele>
        <time>2023-01-11T20:07:17.000Z</time>
      </trkpt>
      <trkpt lat="-49.23339528031647205352783203125" lon="-72.94879822991788387298583984375">
        <ele>475</ele>
        <time>2023-01-11T20:07:19.000Z</time>
      </trkpt>
      <trkpt lat="-49.23337231390178203582763671875" lon="-72.94879605062305927276611328125">
        <ele>475</ele>
        <time>2023-01-11T20:07:21.000Z</time>
      </trkpt>
      <trkpt lat="-49.23329972662031650543212890625" lon="-72.9487780295312404632568359375">
        <ele>475</ele>
        <time>2023-01-11T20:07:27.000Z</time>
      </trkpt>
      <trkpt lat="-49.23328648321330547332763671875" lon="-72.9487713240087032318115234375">
        <ele>475</ele>
        <time>2023-01-11T20:07:28.000Z</time>
      </trkpt>
      <trkpt lat="-49.2332522012293338775634765625" lon="-72.9487480223178863525390625">
        <ele>475</ele>
        <time>2023-01-11T20:07:31.000Z</time>
      </trkpt>
      <trkpt lat="-49.23311146907508373260498046875" lon="-72.9487051069736480712890625">
        <ele>475</ele>
        <time>2023-01-11T20:07:42.000Z</time>
      </trkpt>
      <trkpt lat="-49.23303988762199878692626953125" lon="-72.9487046040594577789306640625">
        <ele>475</ele>
        <time>2023-01-11T20:07:49.000Z</time>
      </trkpt>
      <trkpt lat="-49.23303016461431980133056640625" lon="-72.9487015865743160247802734375">
        <ele>475</ele>
        <time>2023-01-11T20:07:50.000Z</time>
      </trkpt>
      <trkpt lat="-49.23301943577826023101806640625" lon="-72.9486989043653011322021484375">
        <ele>475</ele>
        <time>2023-01-11T20:07:51.000Z</time>
      </trkpt>
      <trkpt lat="-49.23299848102033138275146484375" lon="-72.9486955516040325164794921875">
        <ele>475</ele>
        <time>2023-01-11T20:07:53.000Z</time>
      </trkpt>
      <trkpt lat="-49.23290778882801532745361328125" lon="-72.9487399756908416748046875">
        <ele>475</ele>
        <time>2023-01-11T20:08:00.000Z</time>
      </trkpt>
      <trkpt lat="-49.2328300885856151580810546875" lon="-72.94874357990920543670654296875">
        <ele>470.79998779296875</ele>
        <time>2023-01-11T20:08:06.000Z</time>
      </trkpt>
      <trkpt lat="-49.2327700741589069366455078125" lon="-72.94872111640870571136474609375">
        <ele>471</ele>
        <time>2023-01-11T20:08:11.000Z</time>
      </trkpt>
      <trkpt lat="-49.23266856931149959564208984375" lon="-72.9486244730651378631591796875">
        <ele>470.79998779296875</ele>
        <time>2023-01-11T20:08:21.000Z</time>
      </trkpt>
      <trkpt lat="-49.2326051183044910430908203125" lon="-72.94856001622974872589111328125">
        <ele>470.79998779296875</ele>
        <time>2023-01-11T20:08:28.000Z</time>
      </trkpt>
      <trkpt lat="-49.232581816613674163818359375" lon="-72.9485373012721538543701171875">
        <ele>470.79998779296875</ele>
        <time>2023-01-11T20:08:30.000Z</time>
      </trkpt>
      <trkpt lat="-49.23253311775624752044677734375" lon="-72.94848592020571231842041015625">
        <ele>470.600006103515625</ele>
        <time>2023-01-11T20:08:34.000Z</time>
      </trkpt>
      <trkpt lat="-49.232487939298152923583984375" lon="-72.94845071621239185333251953125">
        <ele>470.79998779296875</ele>
        <time>2023-01-11T20:08:38.000Z</time>
      </trkpt>
      <trkpt lat="-49.23238911665976047515869140625" lon="-72.94841182418167591094970703125">
        <ele>470.399993896484375</ele>
        <time>2023-01-11T20:08:46.000Z</time>
      </trkpt>
      <trkpt lat="-49.2323167808353900909423828125" lon="-72.94836086221039295196533203125">
        <ele>470.399993896484375</ele>
        <time>2023-01-11T20:08:52.000Z</time>
      </trkpt>
      <trkpt lat="-49.23229540698230266571044921875" lon="-72.94834476895630359649658203125">
        <ele>470.399993896484375</ele>
        <time>2023-01-11T20:08:54.000Z</time>
      </trkpt>
      <trkpt lat="-49.23223690129816532135009765625" lon="-72.948232702910900115966796875">
        <ele>470.20001220703125</ele>
        <time>2023-01-11T20:09:01.000Z</time>
      </trkpt>
      <trkpt lat="-49.23221125267446041107177734375" lon="-72.94813991524279117584228515625">
        <ele>470.399993896484375</ele>
        <time>2023-01-11T20:09:06.000Z</time>
      </trkpt>
      <trkpt lat="-49.23221829347312450408935546875" lon="-72.94809079729020595550537109375">
        <ele>469.79998779296875</ele>
        <time>2023-01-11T20:09:09.000Z</time>
      </trkpt>
      <trkpt lat="-49.23222349025309085845947265625" lon="-72.9480464570224285125732421875">
        <ele>469.79998779296875</ele>
        <time>2023-01-11T20:09:11.000Z</time>
      </trkpt>
      <trkpt lat="-49.23223019577562808990478515625" lon="-72.94792047701776027679443359375">
        <ele>469.600006103515625</ele>
        <time>2023-01-11T20:09:18.000Z</time>
      </trkpt>
      <trkpt lat="-49.23219147138297557830810546875" lon="-72.94777429662644863128662109375">
        <ele>469.79998779296875</ele>
        <time>2023-01-11T20:09:27.000Z</time>
      </trkpt>
      <trkpt lat="-49.232181496918201446533203125" lon="-72.94777278788387775421142578125">
        <ele>469.79998779296875</ele>
        <time>2023-01-11T20:09:28.000Z</time>
      </trkpt>
      <trkpt lat="-49.2321087419986724853515625" lon="-72.947741858661174774169921875">
        <ele>469.20001220703125</ele>
        <time>2023-01-11T20:09:34.000Z</time>
      </trkpt>
      <trkpt lat="-49.23201327212154865264892578125" lon="-72.94770925305783748626708984375">
        <ele>469</ele>
        <time>2023-01-11T20:09:43.000Z</time>
      </trkpt>
      <trkpt lat="-49.2318856157362461090087890625" lon="-72.94770003296434879302978515625">
        <ele>468.600006103515625</ele>
        <time>2023-01-11T20:09:54.000Z</time>
      </trkpt>
      <trkpt lat="-49.2317582108080387115478515625" lon="-72.9476491548120975494384765625">
        <ele>468.600006103515625</ele>
        <time>2023-01-11T20:10:05.000Z</time>
      </trkpt>
      <trkpt lat="-49.23168654553592205047607421875" lon="-72.94763733632862567901611328125">
        <ele>469</ele>
        <time>2023-01-11T20:10:11.000Z</time>
      </trkpt>
      <trkpt lat="-49.2316596396267414093017578125" lon="-72.94763750396668910980224609375">
        <ele>468.79998779296875</ele>
        <time>2023-01-11T20:10:13.000Z</time>
      </trkpt>
      <trkpt lat="-49.23159845173358917236328125" lon="-72.9476313851773738861083984375">
        <ele>468.79998779296875</ele>
        <time>2023-01-11T20:10:17.000Z</time>
      </trkpt>
      <trkpt lat="-49.23155562020838260650634765625" lon="-72.9476146213710308074951171875">
        <ele>468.79998779296875</ele>
        <time>2023-01-11T20:10:21.000Z</time>
      </trkpt>
      <trkpt lat="-49.23140466213226318359375" lon="-72.9475723765790462493896484375">
        <ele>468.399993896484375</ele>
        <time>2023-01-11T20:10:33.000Z</time>
      </trkpt>
      <trkpt lat="-49.23129695467650890350341796875" lon="-72.947514541447162628173828125">
        <ele>468.399993896484375</ele>
        <time>2023-01-11T20:10:42.000Z</time>
      </trkpt>
      <trkpt lat="-49.23125621862709522247314453125" lon="-72.9475019685924053192138671875">
        <ele>467.399993896484375</ele>
        <time>2023-01-11T20:10:46.000Z</time>
      </trkpt>
      <trkpt lat="-49.23118597827851772308349609375" lon="-72.94742762111127376556396484375">
        <ele>467.20001220703125</ele>
        <time>2023-01-11T20:10:53.000Z</time>
      </trkpt>
      <trkpt lat="-49.23118530772626399993896484375" lon="-72.94742141850292682647705078125">
        <ele>467.20001220703125</ele>
        <time>2023-01-11T20:10:58.000Z</time>
      </trkpt>
      <trkpt lat="-49.23119352199137210845947265625" lon="-72.94741027057170867919921875">
        <ele>467.79998779296875</ele>
        <time>2023-01-11T20:11:02.000Z</time>
      </trkpt>
      <trkpt lat="-49.23119000159204006195068359375" lon="-72.94740817509591579437255859375">
        <ele>467.79998779296875</ele>
        <time>2023-01-11T20:11:03.000Z</time>
      </trkpt>
      <trkpt lat="-49.2311828769743442535400390625" lon="-72.94740021228790283203125">
        <ele>467.79998779296875</ele>
        <time>2023-01-11T20:11:04.000Z</time>
      </trkpt>
      <trkpt lat="-49.23111573792994022369384765625" lon="-72.9473336599767208099365234375">
        <ele>467.600006103515625</ele>
        <time>2023-01-11T20:11:11.000Z</time>
      </trkpt>
      <trkpt lat="-49.23108556307852268218994140625" lon="-72.94730574823915958404541015625">
        <ele>467</ele>
        <time>2023-01-11T20:11:14.000Z</time>
      </trkpt>
      <trkpt lat="-49.2310755886137485504150390625" lon="-72.9473001323640346527099609375">
        <ele>467</ele>
        <time>2023-01-11T20:11:15.000Z</time>
      </trkpt>
      <trkpt lat="-49.2310251295566558837890625" lon="-72.94728462584316730499267578125">
        <ele>468</ele>
        <time>2023-01-11T20:11:20.000Z</time>
      </trkpt>
      <trkpt lat="-49.23090266995131969451904296875" lon="-72.9473011381924152374267578125">
        <ele>466.600006103515625</ele>
        <time>2023-01-11T20:11:30.000Z</time>
      </trkpt>
      <trkpt lat="-49.23088959418237209320068359375" lon="-72.94729988090693950653076171875">
        <ele>466.399993896484375</ele>
        <time>2023-01-11T20:11:31.000Z</time>
      </trkpt>
      <trkpt lat="-49.23086545430123805999755859375" lon="-72.947297953069210052490234375">
        <ele>465.20001220703125</ele>
        <time>2023-01-11T20:11:33.000Z</time>
      </trkpt>
      <trkpt lat="-49.230798147618770599365234375" lon="-72.94722042046487331390380859375">
        <ele>465.79998779296875</ele>
        <time>2023-01-11T20:11:39.000Z</time>
      </trkpt>
      <trkpt lat="-49.23079035244882106781005859375" lon="-72.9472092725336551666259765625">
        <ele>466</ele>
        <time>2023-01-11T20:11:40.000Z</time>
      </trkpt>
      <trkpt lat="-49.23075892031192779541015625" lon="-72.94717951677739620208740234375">
        <ele>466.399993896484375</ele>
        <time>2023-01-11T20:11:43.000Z</time>
      </trkpt>
      <trkpt lat="-49.2307218722999095916748046875" lon="-72.9471717216074466705322265625">
        <ele>466</ele>
        <time>2023-01-11T20:11:46.000Z</time>
      </trkpt>
      <trkpt lat="-49.23063176684081554412841796875" lon="-72.94715235941112041473388671875">
        <ele>466</ele>
        <time>2023-01-11T20:11:54.000Z</time>
      </trkpt>
      <trkpt lat="-49.23058885149657726287841796875" lon="-72.9471708834171295166015625">
        <ele>465.600006103515625</ele>
        <time>2023-01-11T20:11:58.000Z</time>
      </trkpt>
      <trkpt lat="-49.23057493753731250762939453125" lon="-72.9471697099506855010986328125">
        <ele>465.20001220703125</ele>
        <time>2023-01-11T20:11:59.000Z</time>
      </trkpt>
      <trkpt lat="-49.2305626161396503448486328125" lon="-72.9471710510551929473876953125">
        <ele>465</ele>
        <time>2023-01-11T20:12:00.000Z</time>
      </trkpt>
      <trkpt lat="-49.23048139549791812896728515625" lon="-72.94717398472130298614501953125">
        <ele>464.600006103515625</ele>
        <time>2023-01-11T20:12:06.000Z</time>
      </trkpt>
      <trkpt lat="-49.2304573394358158111572265625" lon="-72.94716912321746349334716796875">
        <ele>464.79998779296875</ele>
        <time>2023-01-11T20:12:08.000Z</time>
      </trkpt>
      <trkpt lat="-49.230373017489910125732421875" lon="-72.94712319038808345794677734375">
        <ele>464.399993896484375</ele>
        <time>2023-01-11T20:12:16.000Z</time>
      </trkpt>
      <trkpt lat="-49.23036220483481884002685546875" lon="-72.94712486676871776580810546875">
        <ele>464.399993896484375</ele>
        <time>2023-01-11T20:12:17.000Z</time>
      </trkpt>
      <trkpt lat="-49.230259358882904052734375" lon="-72.94713475741446018218994140625">
        <ele>464.399993896484375</ele>
        <time>2023-01-11T20:12:26.000Z</time>
      </trkpt>
      <trkpt lat="-49.23023547045886516571044921875" lon="-72.9471187479794025421142578125">
        <ele>464.399993896484375</ele>
        <time>2023-01-11T20:12:33.000Z</time>
      </trkpt>
      <trkpt lat="-49.230248965322971343994140625" lon="-72.9471143893897533416748046875">
        <ele>465</ele>
        <time>2023-01-11T20:12:34.000Z</time>
      </trkpt>
      <trkpt lat="-49.23030537553131580352783203125" lon="-72.94708379544317722320556640625">
        <ele>465.20001220703125</ele>
        <time>2023-01-11T20:12:40.000Z</time>
      </trkpt>
      <trkpt lat="-49.23030822537839412689208984375" lon="-72.94704305939376354217529296875">
        <ele>465.600006103515625</ele>
        <time>2023-01-11T20:12:43.000Z</time>
      </trkpt>
      <trkpt lat="-49.23029531724750995635986328125" lon="-72.9470077715814113616943359375">
        <ele>466</ele>
        <time>2023-01-11T20:12:46.000Z</time>
      </trkpt>
      <trkpt lat="-49.23028995282948017120361328125" lon="-72.9469923488795757293701171875">
        <ele>466.399993896484375</ele>
        <time>2023-01-11T20:12:47.000Z</time>
      </trkpt>
      <trkpt lat="-49.230286516249179840087890625" lon="-72.946973741054534912109375">
        <ele>466.399993896484375</ele>
        <time>2023-01-11T20:12:48.000Z</time>
      </trkpt>
      <trkpt lat="-49.23024871386587619781494140625" lon="-72.94697348959743976593017578125">
        <ele>466</ele>
        <time>2023-01-11T20:12:53.000Z</time>
      </trkpt>
      <trkpt lat="-49.23023077659308910369873046875" lon="-72.94696234166622161865234375">
        <ele>466</ele>
        <time>2023-01-11T20:12:55.000Z</time>
      </trkpt>
      <trkpt lat="-49.23018216155469417572021484375" lon="-72.94694197364151477813720703125">
        <ele>466</ele>
        <time>2023-01-11T20:13:00.000Z</time>
      </trkpt>
      <trkpt lat="-49.2301217280328273773193359375" lon="-72.9468870721757411956787109375">
        <ele>466</ele>
        <time>2023-01-11T20:13:06.000Z</time>
      </trkpt>
      <trkpt lat="-49.230110831558704376220703125" lon="-72.94684289954602718353271484375">
        <ele>465.79998779296875</ele>
        <time>2023-01-11T20:13:08.000Z</time>
      </trkpt>
      <trkpt lat="-49.23006162978708744049072265625" lon="-72.946692444384098052978515625">
        <ele>465.600006103515625</ele>
        <time>2023-01-11T20:13:16.000Z</time>
      </trkpt>
      <trkpt lat="-49.23002374358475208282470703125" lon="-72.94662530533969402313232421875">
        <ele>465.600006103515625</ele>
        <time>2023-01-11T20:13:21.000Z</time>
      </trkpt>
      <trkpt lat="-49.22998778522014617919921875" lon="-72.9465692304074764251708984375">
        <ele>465.600006103515625</ele>
        <time>2023-01-11T20:13:25.000Z</time>
      </trkpt>
      <trkpt lat="-49.2299601249396800994873046875" lon="-72.94655707664787769317626953125">
        <ele>465.20001220703125</ele>
        <time>2023-01-11T20:13:27.000Z</time>
      </trkpt>
      <trkpt lat="-49.22990061342716217041015625" lon="-72.946496643126010894775390625">
        <ele>465</ele>
        <time>2023-01-11T20:13:33.000Z</time>
      </trkpt>
      <trkpt lat="-49.22988049685955047607421875" lon="-72.94636378996074199676513671875">
        <ele>466</ele>
        <time>2023-01-11T20:13:40.000Z</time>
      </trkpt>
      <trkpt lat="-49.22987638972699642181396484375" lon="-72.94634635560214519500732421875">
        <ele>466</ele>
        <time>2023-01-11T20:13:41.000Z</time>
      </trkpt>
      <trkpt lat="-49.229847304522991180419921875" lon="-72.9462750256061553955078125">
        <ele>465.600006103515625</ele>
        <time>2023-01-11T20:13:46.000Z</time>
      </trkpt>
      <trkpt lat="-49.229788966476917266845703125" lon="-72.9462084732949733734130859375">
        <ele>465.600006103515625</ele>
        <time>2023-01-11T20:13:52.000Z</time>
      </trkpt>
      <trkpt lat="-49.2297153733670711517333984375" lon="-72.9461568407714366912841796875">
        <ele>464.79998779296875</ele>
        <time>2023-01-11T20:13:59.000Z</time>
      </trkpt>
      <trkpt lat="-49.22967664897441864013671875" lon="-72.94613345526158809661865234375">
        <ele>465</ele>
        <time>2023-01-11T20:14:02.000Z</time>
      </trkpt>
      <trkpt lat="-49.22957313247025012969970703125" lon="-72.9460321180522441864013671875">
        <ele>466</ele>
        <time>2023-01-11T20:14:12.000Z</time>
      </trkpt>
      <trkpt lat="-49.2294260300695896148681640625" lon="-72.9459067247807979583740234375">
        <ele>465</ele>
        <time>2023-01-11T20:14:26.000Z</time>
      </trkpt>
      <trkpt lat="-49.2293495871126651763916015625" lon="-72.9458393342792987823486328125">
        <ele>464.600006103515625</ele>
        <time>2023-01-11T20:14:33.000Z</time>
      </trkpt>
      <trkpt lat="-49.22923467122018337249755859375" lon="-72.94574000872671604156494140625">
        <ele>465</ele>
        <time>2023-01-11T20:14:44.000Z</time>
      </trkpt>
      <trkpt lat="-49.2291960306465625762939453125" lon="-72.9457102529704570770263671875">
        <ele>464.399993896484375</ele>
        <time>2023-01-11T20:14:49.000Z</time>
      </trkpt>
      <trkpt lat="-49.2291950248181819915771484375" lon="-72.94571586884558200836181640625">
        <ele>463.79998779296875</ele>
        <time>2023-01-11T20:14:51.000Z</time>
      </trkpt>
      <trkpt lat="-49.2291940189898014068603515625" lon="-72.94571368955075740814208984375">
        <ele>465.399993896484375</ele>
        <time>2023-01-11T20:14:57.000Z</time>
      </trkpt>
      <trkpt lat="-49.22919125296175479888916015625" lon="-72.94572374783456325531005859375">
        <ele>465.399993896484375</ele>
        <time>2023-01-11T20:15:00.000Z</time>
      </trkpt>
      <trkpt lat="-49.2291985452175140380859375" lon="-72.945723831653594970703125">
        <ele>465</ele>
        <time>2023-01-11T20:15:06.000Z</time>
      </trkpt>
      <trkpt lat="-49.2291985452175140380859375" lon="-72.945723831653594970703125">
        <ele>464.399993896484375</ele>
        <time>2023-01-11T20:15:10.000Z</time>
      </trkpt>
      <trkpt lat="-49.2291544564068317413330078125" lon="-72.94569022022187709808349609375">
        <ele>464.399993896484375</ele>
        <time>2023-01-11T20:15:14.000Z</time>
      </trkpt>
      <trkpt lat="-49.228993356227874755859375" lon="-72.94553398154675960540771484375">
        <ele>464.20001220703125</ele>
        <time>2023-01-11T20:15:28.000Z</time>
      </trkpt>
      <trkpt lat="-49.22891163267195224761962890625" lon="-72.945398278534412384033203125">
        <ele>464.20001220703125</ele>
        <time>2023-01-11T20:15:38.000Z</time>
      </trkpt>
      <trkpt lat="-49.22885212115943431854248046875" lon="-72.945296354591846466064453125">
        <ele>463.79998779296875</ele>
        <time>2023-01-11T20:15:46.000Z</time>
      </trkpt>
      <trkpt lat="-49.22881557606160640716552734375" lon="-72.94522485695779323577880859375">
        <ele>463.79998779296875</ele>
        <time>2023-01-11T20:15:51.000Z</time>
      </trkpt>
      <trkpt lat="-49.22873360104858875274658203125" lon="-72.9450852982699871063232421875">
        <ele>464.20001220703125</ele>
        <time>2023-01-11T20:16:02.000Z</time>
      </trkpt>
      <trkpt lat="-49.2286468483507633209228515625" lon="-72.944893352687358856201171875">
        <ele>464.399993896484375</ele>
        <time>2023-01-11T20:16:14.000Z</time>
      </trkpt>
      <trkpt lat="-49.22857199795544147491455078125" lon="-72.94472697190940380096435546875">
        <ele>464</ele>
        <time>2023-01-11T20:16:24.000Z</time>
      </trkpt>
      <trkpt lat="-49.2285640351474285125732421875" lon="-72.94470970518887042999267578125">
        <ele>464</ele>
        <time>2023-01-11T20:16:25.000Z</time>
      </trkpt>
      <trkpt lat="-49.2284850776195526123046875" lon="-72.9445974715054035186767578125">
        <ele>463.399993896484375</ele>
        <time>2023-01-11T20:16:34.000Z</time>
      </trkpt>
      <trkpt lat="-49.22845532186329364776611328125" lon="-72.94457383453845977783203125">
        <ele>463.20001220703125</ele>
        <time>2023-01-11T20:16:37.000Z</time>
      </trkpt>
      <trkpt lat="-49.22838876955211162567138671875" lon="-72.94453452341258525848388671875">
        <ele>463.399993896484375</ele>
        <time>2023-01-11T20:16:43.000Z</time>
      </trkpt>
      <trkpt lat="-49.2283792980015277862548828125" lon="-72.9445270635187625885009765625">
        <ele>463.399993896484375</ele>
        <time>2023-01-11T20:16:44.000Z</time>
      </trkpt>
      <trkpt lat="-49.228293634951114654541015625" lon="-72.944386415183544158935546875">
        <ele>463.399993896484375</ele>
        <time>2023-01-11T20:16:55.000Z</time>
      </trkpt>
      <trkpt lat="-49.228244014084339141845703125" lon="-72.94420008547604084014892578125">
        <ele>463.399993896484375</ele>
        <time>2023-01-11T20:17:06.000Z</time>
      </trkpt>
      <trkpt lat="-49.2282329499721527099609375" lon="-72.94399489648640155792236328125">
        <ele>463.20001220703125</ele>
        <time>2023-01-11T20:17:16.000Z</time>
      </trkpt>
      <trkpt lat="-49.2282371409237384796142578125" lon="-72.9439577646553516387939453125">
        <ele>463.20001220703125</ele>
        <time>2023-01-11T20:17:18.000Z</time>
      </trkpt>
      <trkpt lat="-49.22823856584727764129638671875" lon="-72.94387771748006343841552734375">
        <ele>463.20001220703125</ele>
        <time>2023-01-11T20:17:23.000Z</time>
      </trkpt>
      <trkpt lat="-49.22823764383792877197265625" lon="-72.9438578523695468902587890625">
        <ele>463.20001220703125</ele>
        <time>2023-01-11T20:17:24.000Z</time>
      </trkpt>
      <trkpt lat="-49.22822934575378894805908203125" lon="-72.94376942329108715057373046875">
        <ele>463</ele>
        <time>2023-01-11T20:17:28.000Z</time>
      </trkpt>
      <trkpt lat="-49.22822423279285430908203125" lon="-72.94361586682498455047607421875">
        <ele>463.20001220703125</ele>
        <time>2023-01-11T20:17:37.000Z</time>
      </trkpt>
      <trkpt lat="-49.22822096385061740875244140625" lon="-72.94343146495521068572998046875">
        <ele>463.20001220703125</ele>
        <time>2023-01-11T20:17:47.000Z</time>
      </trkpt>
      <trkpt lat="-49.228198416531085968017578125" lon="-72.9432808421552181243896484375">
        <ele>462.79998779296875</ele>
        <time>2023-01-11T20:17:55.000Z</time>
      </trkpt>
      <trkpt lat="-49.228134043514728546142578125" lon="-72.9430300556123256683349609375">
        <ele>462.79998779296875</ele>
        <time>2023-01-11T20:18:09.000Z</time>
      </trkpt>
      <trkpt lat="-49.228073693811893463134765625" lon="-72.94284649193286895751953125">
        <ele>462.20001220703125</ele>
        <time>2023-01-11T20:18:19.000Z</time>
      </trkpt>
      <trkpt lat="-49.2280612885951995849609375" lon="-72.94279024936258792877197265625">
        <ele>462.20001220703125</ele>
        <time>2023-01-11T20:18:22.000Z</time>
      </trkpt>
      <trkpt lat="-49.22801367938518524169921875" lon="-72.94258355163037776947021484375">
        <ele>462.399993896484375</ele>
        <time>2023-01-11T20:18:33.000Z</time>
      </trkpt>
      <trkpt lat="-49.2279766313731670379638671875" lon="-72.942376770079135894775390625">
        <ele>462.600006103515625</ele>
        <time>2023-01-11T20:18:44.000Z</time>
      </trkpt>
      <trkpt lat="-49.22793463803827762603759765625" lon="-72.94222748838365077972412109375">
        <ele>462.20001220703125</ele>
        <time>2023-01-11T20:18:53.000Z</time>
      </trkpt>
      <trkpt lat="-49.22791443765163421630859375" lon="-72.94211014173924922943115234375">
        <ele>462</ele>
        <time>2023-01-11T20:19:01.000Z</time>
      </trkpt>
      <trkpt lat="-49.22790312208235263824462890625" lon="-72.942038476467132568359375">
        <ele>462.20001220703125</ele>
        <time>2023-01-11T20:19:05.000Z</time>
      </trkpt>
      <trkpt lat="-49.22789566218852996826171875" lon="-72.94200302101671695709228515625">
        <ele>461.79998779296875</ele>
        <time>2023-01-11T20:19:07.000Z</time>
      </trkpt>
      <trkpt lat="-49.22788870520889759063720703125" lon="-72.94196396134793758392333984375">
        <ele>461.600006103515625</ele>
        <time>2023-01-11T20:19:09.000Z</time>
      </trkpt>
      <trkpt lat="-49.2278864420950412750244140625" lon="-72.941946275532245635986328125">
        <ele>461.20001220703125</ele>
        <time>2023-01-11T20:19:10.000Z</time>
      </trkpt>
      <trkpt lat="-49.2278770543634891510009765625" lon="-72.9418002627789974212646484375">
        <ele>460.79998779296875</ele>
        <time>2023-01-11T20:19:19.000Z</time>
      </trkpt>
      <trkpt lat="-49.22783271409571170806884765625" lon="-72.94165198691189289093017578125">
        <ele>460.600006103515625</ele>
        <time>2023-01-11T20:19:29.000Z</time>
      </trkpt>
      <trkpt lat="-49.227808155119419097900390625" lon="-72.94158585369586944580078125">
        <ele>460.600006103515625</ele>
        <time>2023-01-11T20:19:33.000Z</time>
      </trkpt>
      <trkpt lat="-49.2277905531227588653564453125" lon="-72.94156716205179691314697265625">
        <ele>460.79998779296875</ele>
        <time>2023-01-11T20:19:35.000Z</time>
      </trkpt>
      <trkpt lat="-49.22777471132576465606689453125" lon="-72.94155769050121307373046875">
        <ele>460.600006103515625</ele>
        <time>2023-01-11T20:19:37.000Z</time>
      </trkpt>
      <trkpt lat="-49.22772559337317943572998046875" lon="-72.94149273075163364410400390625">
        <ele>460</ele>
        <time>2023-01-11T20:19:44.000Z</time>
      </trkpt>
      <trkpt lat="-49.2277174629271030426025390625" lon="-72.9414861090481281280517578125">
        <ele>460</ele>
        <time>2023-01-11T20:19:45.000Z</time>
      </trkpt>
      <trkpt lat="-49.22769508324563503265380859375" lon="-72.9414753802120685577392578125">
        <ele>459.79998779296875</ele>
        <time>2023-01-11T20:19:48.000Z</time>
      </trkpt>
      <trkpt lat="-49.2276705242693424224853515625" lon="-72.941474206745624542236328125">
        <ele>459.399993896484375</ele>
        <time>2023-01-11T20:19:51.000Z</time>
      </trkpt>
      <trkpt lat="-49.22763347625732421875" lon="-72.9414586164057254791259765625">
        <ele>459.20001220703125</ele>
        <time>2023-01-11T20:19:58.000Z</time>
      </trkpt>
      <trkpt lat="-49.22762475907802581787109375" lon="-72.9414505697786808013916015625">
        <ele>459.399993896484375</ele>
        <time>2023-01-11T20:19:59.000Z</time>
      </trkpt>
      <trkpt lat="-49.22756918705999851226806640625" lon="-72.941335737705230712890625">
        <ele>459</ele>
        <time>2023-01-11T20:20:06.000Z</time>
      </trkpt>
      <trkpt lat="-49.22756348736584186553955078125" lon="-72.941325008869171142578125">
        <ele>459</ele>
        <time>2023-01-11T20:20:07.000Z</time>
      </trkpt>
      <trkpt lat="-49.22754295170307159423828125" lon="-72.94128502719104290008544921875">
        <ele>459</ele>
        <time>2023-01-11T20:20:10.000Z</time>
      </trkpt>
      <trkpt lat="-49.22749190591275691986083984375" lon="-72.94120439328253269195556640625">
        <ele>459.600006103515625</ele>
        <time>2023-01-11T20:20:15.000Z</time>
      </trkpt>
      <trkpt lat="-49.22746726311743259429931640625" lon="-72.94117069803178310394287109375">
        <ele>459.600006103515625</ele>
        <time>2023-01-11T20:20:18.000Z</time>
      </trkpt>
      <trkpt lat="-49.22737623564898967742919921875" lon="-72.94110096059739589691162109375">
        <ele>459.399993896484375</ele>
        <time>2023-01-11T20:20:26.000Z</time>
      </trkpt>
      <trkpt lat="-49.2273550294339656829833984375" lon="-72.941106073558330535888671875">
        <ele>459</ele>
        <time>2023-01-11T20:20:28.000Z</time>
      </trkpt>
      <trkpt lat="-49.22729258425533771514892578125" lon="-72.94104966334998607635498046875">
        <ele>458.79998779296875</ele>
        <time>2023-01-11T20:20:34.000Z</time>
      </trkpt>
      <trkpt lat="-49.22724531032145023345947265625" lon="-72.94086190871894359588623046875">
        <ele>458.79998779296875</ele>
        <time>2023-01-11T20:20:45.000Z</time>
      </trkpt>
      <trkpt lat="-49.22718395479023456573486328125" lon="-72.9406700469553470611572265625">
        <ele>458.600006103515625</ele>
        <time>2023-01-11T20:20:57.000Z</time>
      </trkpt>
      <trkpt lat="-49.2271669395267963409423828125" lon="-72.94057340361177921295166015625">
        <ele>459.20001220703125</ele>
        <time>2023-01-11T20:21:03.000Z</time>
      </trkpt>
      <trkpt lat="-49.227161072194576263427734375" lon="-72.94055429287254810333251953125">
        <ele>459.20001220703125</ele>
        <time>2023-01-11T20:21:05.000Z</time>
      </trkpt>
      <trkpt lat="-49.2271619103848934173583984375" lon="-72.9405466653406620025634765625">
        <ele>458</ele>
        <time>2023-01-11T20:21:08.000Z</time>
      </trkpt>
      <trkpt lat="-49.22716869972646236419677734375" lon="-72.9405704699456691741943359375">
        <ele>458.20001220703125</ele>
        <time>2023-01-11T20:21:17.000Z</time>
      </trkpt>
      <trkpt lat="-49.2271686159074306488037109375" lon="-72.94056401588022708892822265625">
        <ele>459</ele>
        <time>2023-01-11T20:21:22.000Z</time>
      </trkpt>
      <trkpt lat="-49.2271297238767147064208984375" lon="-72.9405392892658710479736328125">
        <ele>459</ele>
        <time>2023-01-11T20:21:25.000Z</time>
      </trkpt>
      <trkpt lat="-49.22706895507872104644775390625" lon="-72.94046762399375438690185546875">
        <ele>460</ele>
        <time>2023-01-11T20:21:30.000Z</time>
      </trkpt>
      <trkpt lat="-49.22703123651444911956787109375" lon="-72.94040006585419178009033203125">
        <ele>461</ele>
        <time>2023-01-11T20:21:34.000Z</time>
      </trkpt>
      <trkpt lat="-49.22702419571578502655029296875" lon="-72.94038883410394191741943359375">
        <ele>461</ele>
        <time>2023-01-11T20:21:35.000Z</time>
      </trkpt>
      <trkpt lat="-49.22696870751678943634033203125" lon="-72.94030333869159221649169921875">
        <ele>461.600006103515625</ele>
        <time>2023-01-11T20:21:42.000Z</time>
      </trkpt>
      <trkpt lat="-49.226958565413951873779296875" lon="-72.94029311276972293853759765625">
        <ele>461.399993896484375</ele>
        <time>2023-01-11T20:21:43.000Z</time>
      </trkpt>
      <trkpt lat="-49.22688321210443973541259765625" lon="-72.94023209251463413238525390625">
        <ele>461.20001220703125</ele>
        <time>2023-01-11T20:21:50.000Z</time>
      </trkpt>
      <trkpt lat="-49.226840548217296600341796875" lon="-72.94019755907356739044189453125">
        <ele>461.600006103515625</ele>
        <time>2023-01-11T20:21:54.000Z</time>
      </trkpt>
      <trkpt lat="-49.22679956071078777313232421875" lon="-72.94015162624418735504150390625">
        <ele>462</ele>
        <time>2023-01-11T20:21:58.000Z</time>
      </trkpt>
      <trkpt lat="-49.226740300655364990234375" lon="-72.94010820798575878143310546875">
        <ele>462</ele>
        <time>2023-01-11T20:22:03.000Z</time>
      </trkpt>
      <trkpt lat="-49.22672647051513195037841796875" lon="-72.94008515775203704833984375">
        <ele>462.20001220703125</ele>
        <time>2023-01-11T20:22:05.000Z</time>
      </trkpt>
      <trkpt lat="-49.22665790654718875885009765625" lon="-72.94003042392432689666748046875">
        <ele>463.20001220703125</ele>
        <time>2023-01-11T20:22:11.000Z</time>
      </trkpt>
      <trkpt lat="-49.22664768062531948089599609375" lon="-72.940014414489269256591796875">
        <ele>463.399993896484375</ele>
        <time>2023-01-11T20:22:12.000Z</time>
      </trkpt>
      <trkpt lat="-49.2265755124390125274658203125" lon="-72.93988005258142948150634765625">
        <ele>464.399993896484375</ele>
        <time>2023-01-11T20:22:20.000Z</time>
      </trkpt>
      <trkpt lat="-49.22656402923166751861572265625" lon="-72.939840070903301239013671875">
        <ele>464.399993896484375</ele>
        <time>2023-01-11T20:22:22.000Z</time>
      </trkpt>
      <trkpt lat="-49.22655447386205196380615234375" lon="-72.93974543921649456024169921875">
        <ele>463.79998779296875</ele>
        <time>2023-01-11T20:22:29.000Z</time>
      </trkpt>
      <trkpt lat="-49.22655330039560794830322265625" lon="-72.93965994380414485931396484375">
        <ele>464.600006103515625</ele>
        <time>2023-01-11T20:22:35.000Z</time>
      </trkpt>
      <trkpt lat="-49.22655916772782802581787109375" lon="-72.93963077478110790252685546875">
        <ele>465</ele>
        <time>2023-01-11T20:22:38.000Z</time>
      </trkpt>
      <trkpt lat="-49.2265855707228183746337890625" lon="-72.93964284472167491912841796875">
        <ele>464</ele>
        <time>2023-01-11T20:22:44.000Z</time>
      </trkpt>
      <trkpt lat="-49.226591102778911590576171875" lon="-72.93965625576674938201904296875">
        <ele>464</ele>
        <time>2023-01-11T20:22:49.000Z</time>
      </trkpt>
      <trkpt lat="-49.226595796644687652587890625" lon="-72.93966162018477916717529296875">
        <ele>464.600006103515625</ele>
        <time>2023-01-11T20:22:57.000Z</time>
      </trkpt>
      <trkpt lat="-49.226591102778911590576171875" lon="-72.93966162018477916717529296875">
        <ele>465.399993896484375</ele>
        <time>2023-01-11T20:23:08.000Z</time>
      </trkpt>
      <trkpt lat="-49.22658674418926239013671875" lon="-72.93966346420347690582275390625">
        <ele>465.600006103515625</ele>
        <time>2023-01-11T20:23:12.000Z</time>
      </trkpt>
      <trkpt lat="-49.2265862412750720977783203125" lon="-72.939667403697967529296875">
        <ele>464.20001220703125</ele>
        <time>2023-01-11T20:23:14.000Z</time>
      </trkpt>
      <trkpt lat="-49.226584397256374359130859375" lon="-72.93960646726191043853759765625">
        <ele>464.20001220703125</ele>
        <time>2023-01-11T20:23:30.000Z</time>
      </trkpt>
      <trkpt lat="-49.2265968024730682373046875" lon="-72.93938870541751384735107421875">
        <ele>464.20001220703125</ele>
        <time>2023-01-11T20:23:40.000Z</time>
      </trkpt>
      <trkpt lat="-49.2265885882079601287841796875" lon="-72.93921670876443386077880859375">
        <ele>464.20001220703125</ele>
        <time>2023-01-11T20:23:49.000Z</time>
      </trkpt>
      <trkpt lat="-49.22658934257924556732177734375" lon="-72.93918251059949398040771484375">
        <ele>464.20001220703125</ele>
        <time>2023-01-11T20:23:51.000Z</time>
      </trkpt>
      <trkpt lat="-49.2265942879021167755126953125" lon="-72.93912568129599094390869140625">
        <ele>464.20001220703125</ele>
        <time>2023-01-11T20:23:54.000Z</time>
      </trkpt>
      <trkpt lat="-49.22660417854785919189453125" lon="-72.93905946426093578338623046875">
        <ele>464.20001220703125</ele>
        <time>2023-01-11T20:23:58.000Z</time>
      </trkpt>
      <trkpt lat="-49.22660510055720806121826171875" lon="-72.9389928281307220458984375">
        <ele>464.20001220703125</ele>
        <time>2023-01-11T20:24:02.000Z</time>
      </trkpt>
      <trkpt lat="-49.22662572003901004791259765625" lon="-72.93880884535610675811767578125">
        <ele>464.20001220703125</ele>
        <time>2023-01-11T20:24:12.000Z</time>
      </trkpt>
      <trkpt lat="-49.22658883966505527496337890625" lon="-72.93864254839718341827392578125">
        <ele>461.600006103515625</ele>
        <time>2023-01-11T20:24:22.000Z</time>
      </trkpt>
      <trkpt lat="-49.22657375223934650421142578125" lon="-72.93862058781087398529052734375">
        <ele>461.600006103515625</ele>
        <time>2023-01-11T20:24:24.000Z</time>
      </trkpt>
      <trkpt lat="-49.226560927927494049072265625" lon="-72.93859594501554965972900390625">
        <ele>461.600006103515625</ele>
        <time>2023-01-11T20:24:26.000Z</time>
      </trkpt>
      <trkpt lat="-49.22655522823333740234375" lon="-72.9385648481547832489013671875">
        <ele>462</ele>
        <time>2023-01-11T20:24:28.000Z</time>
      </trkpt>
      <trkpt lat="-49.22656252048909664154052734375" lon="-72.93855093419551849365234375">
        <ele>462.399993896484375</ele>
        <time>2023-01-11T20:24:31.000Z</time>
      </trkpt>
      <trkpt lat="-49.22655464150011539459228515625" lon="-72.938568703830242156982421875">
        <ele>462.79998779296875</ele>
        <time>2023-01-11T20:24:37.000Z</time>
      </trkpt>
      <trkpt lat="-49.22656252048909664154052734375" lon="-72.93855671770870685577392578125">
        <ele>462.600006103515625</ele>
        <time>2023-01-11T20:24:42.000Z</time>
      </trkpt>
      <trkpt lat="-49.22656252048909664154052734375" lon="-72.93855956755578517913818359375">
        <ele>463</ele>
        <time>2023-01-11T20:24:51.000Z</time>
      </trkpt>
      <trkpt lat="-49.2265614308416843414306640625" lon="-72.93857348151504993438720703125">
        <ele>462.399993896484375</ele>
        <time>2023-01-11T20:25:10.000Z</time>
      </trkpt>
      <trkpt lat="-49.2265614308416843414306640625" lon="-72.938574068248271942138671875">
        <ele>461.399993896484375</ele>
        <time>2023-01-11T20:25:11.000Z</time>
      </trkpt>
      <trkpt lat="-49.2265614308416843414306640625" lon="-72.93857616372406482696533203125">
        <ele>461.600006103515625</ele>
        <time>2023-01-11T20:25:22.000Z</time>
      </trkpt>
      <trkpt lat="-49.2265621013939380645751953125" lon="-72.93857733719050884246826171875">
        <ele>461.20001220703125</ele>
        <time>2023-01-11T20:25:24.000Z</time>
      </trkpt>
      <trkpt lat="-49.2265651188790798187255859375" lon="-72.93858312070369720458984375">
        <ele>461.20001220703125</ele>
        <time>2023-01-11T20:25:25.000Z</time>
      </trkpt>
      <trkpt lat="-49.2266102135181427001953125" lon="-72.93863969855010509490966796875">
        <ele>461.20001220703125</ele>
        <time>2023-01-11T20:25:28.000Z</time>
      </trkpt>
      <trkpt lat="-49.22673015855252742767333984375" lon="-72.93861924670636653900146484375">
        <ele>461.20001220703125</ele>
        <time>2023-01-11T20:25:34.000Z</time>
      </trkpt>
      <trkpt lat="-49.22679327428340911865234375" lon="-72.93844607658684253692626953125">
        <ele>461.20001220703125</ele>
        <time>2023-01-11T20:25:37.000Z</time>
      </trkpt>
      <trkpt lat="-49.22681682743132114410400390625" lon="-72.938379943370819091796875">
        <ele>461.20001220703125</ele>
        <time>2023-01-11T20:25:38.000Z</time>
      </trkpt>
      <trkpt lat="-49.22697524540126323699951171875" lon="-72.9378936253488063812255859375">
        <ele>461.20001220703125</ele>
        <time>2023-01-11T20:25:45.000Z</time>
      </trkpt>
      <trkpt lat="-49.22707465477287769317626953125" lon="-72.93757368810474872589111328125">
        <ele>461.20001220703125</ele>
        <time>2023-01-11T20:25:49.000Z</time>
      </trkpt>
      <trkpt lat="-49.22713718377053737640380859375" lon="-72.93742440640926361083984375">
        <ele>461.20001220703125</ele>
        <time>2023-01-11T20:25:51.000Z</time>
      </trkpt>
      <trkpt lat="-49.22744848765432834625244140625" lon="-72.9368063248693943023681640625">
        <ele>461.20001220703125</ele>
        <time>2023-01-11T20:25:58.000Z</time>
      </trkpt>
      <trkpt lat="-49.22758528031408786773681640625" lon="-72.936557047069072723388671875">
        <ele>461.20001220703125</ele>
        <time>2023-01-11T20:26:01.000Z</time>
      </trkpt>
      <trkpt lat="-49.22766859643161296844482421875" lon="-72.9363858886063098907470703125">
        <ele>461.20001220703125</ele>
        <time>2023-01-11T20:26:03.000Z</time>
      </trkpt>
      <trkpt lat="-49.2266013287007808685302734375" lon="-72.93864891864359378814697265625">
        <ele>449.20001220703125</ele>
        <time>2023-01-11T11:35:24.000Z</time>
      </trkpt>
      <trkpt lat="-49.2266050167381763458251953125" lon="-72.93867431581020355224609375">
        <ele>449.20001220703125</ele>
        <time>2023-01-11T11:35:25.000Z</time>
      </trkpt>
      <trkpt lat="-49.22661130316555500030517578125" lon="-72.93869518674910068511962890625">
        <ele>449.20001220703125</ele>
        <time>2023-01-11T11:35:26.000Z</time>
      </trkpt>
      <trkpt lat="-49.22661767341196537017822265625" lon="-72.9387127049267292022705078125">
        <ele>449.399993896484375</ele>
        <time>2023-01-11T11:35:27.000Z</time>
      </trkpt>
      <trkpt lat="-49.22662856988608837127685546875" lon="-72.9387318156659603118896484375">
        <ele>449.399993896484375</ele>
        <time>2023-01-11T11:35:28.000Z</time>
      </trkpt>
      <trkpt lat="-49.2266532965004444122314453125" lon="-72.9387948475778102874755859375">
        <ele>449.600006103515625</ele>
        <time>2023-01-11T11:35:32.000Z</time>
      </trkpt>
      <trkpt lat="-49.22666796483099460601806640625" lon="-72.93892510235309600830078125">
        <ele>449.79998779296875</ele>
        <time>2023-01-11T11:35:39.000Z</time>
      </trkpt>
      <trkpt lat="-49.226666875183582305908203125" lon="-72.93896491639316082000732421875">
        <ele>449.79998779296875</ele>
        <time>2023-01-11T11:35:41.000Z</time>
      </trkpt>
      <trkpt lat="-49.226662181317806243896484375" lon="-72.93902434408664703369140625">
        <ele>450.20001220703125</ele>
        <time>2023-01-11T11:35:44.000Z</time>
      </trkpt>
      <trkpt lat="-49.22665790654718875885009765625" lon="-72.9390781559050083160400390625">
        <ele>450.399993896484375</ele>
        <time>2023-01-11T11:35:47.000Z</time>
      </trkpt>
      <trkpt lat="-49.22664575278759002685546875" lon="-72.9392032139003276824951171875">
        <ele>450.399993896484375</ele>
        <time>2023-01-11T11:35:54.000Z</time>
      </trkpt>
      <trkpt lat="-49.2266083694994449615478515625" lon="-72.93936188332736492156982421875">
        <ele>450.399993896484375</ele>
        <time>2023-01-11T11:36:03.000Z</time>
      </trkpt>
      <trkpt lat="-49.22660275362432003021240234375" lon="-72.93938535265624523162841796875">
        <ele>450.399993896484375</ele>
        <time>2023-01-11T11:36:04.000Z</time>
      </trkpt>
      <trkpt lat="-49.22659621573984622955322265625" lon="-72.93944100849330425262451171875">
        <ele>450.600006103515625</ele>
        <time>2023-01-11T11:36:07.000Z</time>
      </trkpt>
      <trkpt lat="-49.22658448107540607452392578125" lon="-72.9395686648786067962646484375">
        <ele>450.399993896484375</ele>
        <time>2023-01-11T11:36:14.000Z</time>
      </trkpt>
      <trkpt lat="-49.22658481635153293609619140625" lon="-72.93971425853669643402099609375">
        <ele>450.79998779296875</ele>
        <time>2023-01-11T11:36:23.000Z</time>
      </trkpt>
      <trkpt lat="-49.22659269534051418304443359375" lon="-72.93973236344754695892333984375">
        <ele>450.79998779296875</ele>
        <time>2023-01-11T11:36:25.000Z</time>
      </trkpt>
      <trkpt lat="-49.226603843271732330322265625" lon="-72.939852811396121978759765625">
        <ele>450.600006103515625</ele>
        <time>2023-01-11T11:36:34.000Z</time>
      </trkpt>
      <trkpt lat="-49.22665354795753955841064453125" lon="-72.93996169231832027435302734375">
        <ele>450.600006103515625</ele>
        <time>2023-01-11T11:36:41.000Z</time>
      </trkpt>
      <trkpt lat="-49.2266646958887577056884765625" lon="-72.93997661210596561431884765625">
        <ele>450.600006103515625</ele>
        <time>2023-01-11T11:36:42.000Z</time>
      </trkpt>
      <trkpt lat="-49.22677340917289257049560546875" lon="-72.94007753022015094757080078125">
        <ele>451</ele>
        <time>2023-01-11T11:36:52.000Z</time>
      </trkpt>
      <trkpt lat="-49.22682143747806549072265625" lon="-72.94011390767991542816162109375">
        <ele>451.20001220703125</ele>
        <time>2023-01-11T11:36:56.000Z</time>
      </trkpt>
      <trkpt lat="-49.22683426178991794586181640625" lon="-72.940125726163387298583984375">
        <ele>451.20001220703125</ele>
        <time>2023-01-11T11:36:57.000Z</time>
      </trkpt>
      <trkpt lat="-49.22689327038824558258056640625" lon="-72.94017501175403594970703125">
        <ele>451.399993896484375</ele>
        <time>2023-01-11T11:37:02.000Z</time>
      </trkpt>
      <trkpt lat="-49.22699972055852413177490234375" lon="-72.94023812748491764068603515625">
        <ele>451.399993896484375</ele>
        <time>2023-01-11T11:37:11.000Z</time>
      </trkpt>
      <trkpt lat="-49.227025620639324188232421875" lon="-72.9402695596218109130859375">
        <ele>451.600006103515625</ele>
        <time>2023-01-11T11:37:13.000Z</time>
      </trkpt>
      <trkpt lat="-49.22706258483231067657470703125" lon="-72.940313816070556640625">
        <ele>451.399993896484375</ele>
        <time>2023-01-11T11:37:16.000Z</time>
      </trkpt>
      <trkpt lat="-49.2270931787788867950439453125" lon="-72.94036620296537876129150390625">
        <ele>451.20001220703125</ele>
        <time>2023-01-11T11:37:19.000Z</time>
      </trkpt>
      <trkpt lat="-49.22713114880025386810302734375" lon="-72.9404038377106189727783203125">
        <ele>451</ele>
        <time>2023-01-11T11:37:22.000Z</time>
      </trkpt>
      <trkpt lat="-49.22720038332045078277587890625" lon="-72.94051087461411952972412109375">
        <ele>450.20001220703125</ele>
        <time>2023-01-11T11:37:29.000Z</time>
      </trkpt>
      <trkpt lat="-49.22720541246235370635986328125" lon="-72.94054389931261539459228515625">
        <ele>450.20001220703125</ele>
        <time>2023-01-11T11:37:31.000Z</time>
      </trkpt>
      <trkpt lat="-49.227205328643321990966796875" lon="-72.940595783293247222900390625">
        <ele>450.20001220703125</ele>
        <time>2023-01-11T11:37:36.000Z</time>
      </trkpt>
      <trkpt lat="-49.2272008024156093597412109375" lon="-72.94063107110559940338134765625">
        <ele>450.20001220703125</ele>
        <time>2023-01-11T11:37:45.000Z</time>
      </trkpt>
      <trkpt lat="-49.22723307274281978607177734375" lon="-72.94068002142012119293212890625">
        <ele>450.20001220703125</ele>
        <time>2023-01-11T11:37:49.000Z</time>
      </trkpt>
      <trkpt lat="-49.227271713316440582275390625" lon="-72.94079837389290332794189453125">
        <ele>450.399993896484375</ele>
        <time>2023-01-11T11:37:56.000Z</time>
      </trkpt>
      <trkpt lat="-49.22731789760291576385498046875" lon="-72.94098143465816974639892578125">
        <ele>450.600006103515625</ele>
        <time>2023-01-11T11:38:06.000Z</time>
      </trkpt>
      <trkpt lat="-49.2273342423141002655029296875" lon="-72.94100758619606494903564453125">
        <ele>450.600006103515625</ele>
        <time>2023-01-11T11:38:08.000Z</time>
      </trkpt>
      <trkpt lat="-49.22742602415382862091064453125" lon="-72.94109542854130268096923828125">
        <ele>450.600006103515625</ele>
        <time>2023-01-11T11:38:16.000Z</time>
      </trkpt>
      <trkpt lat="-49.22747195698320865631103515625" lon="-72.9411880485713481903076171875">
        <ele>450.600006103515625</ele>
        <time>2023-01-11T11:38:22.000Z</time>
      </trkpt>
      <trkpt lat="-49.22746977768838405609130859375" lon="-72.941238172352313995361328125">
        <ele>450.600006103515625</ele>
        <time>2023-01-11T11:38:24.000Z</time>
      </trkpt>
      <trkpt lat="-49.22747564502060413360595703125" lon="-72.9412551037967205047607421875">
        <ele>450.79998779296875</ele>
        <time>2023-01-11T11:38:25.000Z</time>
      </trkpt>
      <trkpt lat="-49.22748033888638019561767578125" lon="-72.94127278961241245269775390625">
        <ele>450.79998779296875</ele>
        <time>2023-01-11T11:38:26.000Z</time>
      </trkpt>
      <trkpt lat="-49.22752962447702884674072265625" lon="-72.94135392643511295318603515625">
        <ele>450.79998779296875</ele>
        <time>2023-01-11T11:38:32.000Z</time>
      </trkpt>
      <trkpt lat="-49.22754001803696155548095703125" lon="-72.94136524200439453125">
        <ele>450.79998779296875</ele>
        <time>2023-01-11T11:38:33.000Z</time>
      </trkpt>
      <trkpt lat="-49.227642528712749481201171875" lon="-72.94138745404779911041259765625">
        <ele>451</ele>
        <time>2023-01-11T11:38:42.000Z</time>
      </trkpt>
      <trkpt lat="-49.22766901552677154541015625" lon="-72.94141092337667942047119140625">
        <ele>450.79998779296875</ele>
        <time>2023-01-11T11:38:45.000Z</time>
      </trkpt>
      <trkpt lat="-49.22767429612576961517333984375" lon="-72.941410839557647705078125">
        <ele>450.79998779296875</ele>
        <time>2023-01-11T11:38:46.000Z</time>
      </trkpt>
      <trkpt lat="-49.22769256867468357086181640625" lon="-72.941415198147296905517578125">
        <ele>450.79998779296875</ele>
        <time>2023-01-11T11:38:48.000Z</time>
      </trkpt>
      <trkpt lat="-49.22775350511074066162109375" lon="-72.94143707491457462310791015625">
        <ele>451.20001220703125</ele>
        <time>2023-01-11T11:38:54.000Z</time>
      </trkpt>
      <trkpt lat="-49.227760545909404754638671875" lon="-72.94144830666482448577880859375">
        <ele>451.399993896484375</ele>
        <time>2023-01-11T11:38:55.000Z</time>
      </trkpt>
      <trkpt lat="-49.2277684248983860015869140625" lon="-72.9414626397192478179931640625">
        <ele>451.399993896484375</ele>
        <time>2023-01-11T11:38:56.000Z</time>
      </trkpt>
      <trkpt lat="-49.227845035493373870849609375" lon="-72.941556684672832489013671875">
        <ele>451.79998779296875</ele>
        <time>2023-01-11T11:39:05.000Z</time>
      </trkpt>
      <trkpt lat="-49.22787747345864772796630859375" lon="-72.94162902049720287322998046875">
        <ele>452</ele>
        <time>2023-01-11T11:39:10.000Z</time>
      </trkpt>
      <trkpt lat="-49.22789960168302059173583984375" lon="-72.941711582243442535400390625">
        <ele>452</ele>
        <time>2023-01-11T11:39:15.000Z</time>
      </trkpt>
      <trkpt lat="-49.22790639102458953857421875" lon="-72.941748462617397308349609375">
        <ele>452</ele>
        <time>2023-01-11T11:39:17.000Z</time>
      </trkpt>
      <trkpt lat="-49.2279122583568096160888671875" lon="-72.94178567826747894287109375">
        <ele>452</ele>
        <time>2023-01-11T11:39:19.000Z</time>
      </trkpt>
      <trkpt lat="-49.2279142700135707855224609375" lon="-72.94189833104610443115234375">
        <ele>452.20001220703125</ele>
        <time>2023-01-11T11:39:25.000Z</time>
      </trkpt>
      <trkpt lat="-49.2279244959354400634765625" lon="-72.941950969398021697998046875">
        <ele>452.20001220703125</ele>
        <time>2023-01-11T11:39:28.000Z</time>
      </trkpt>
      <trkpt lat="-49.22793053090572357177734375" lon="-72.94198106043040752410888671875">
        <ele>452.399993896484375</ele>
        <time>2023-01-11T11:39:30.000Z</time>
      </trkpt>
      <trkpt lat="-49.227941595017910003662109375" lon="-72.94200939126312732696533203125">
        <ele>452.399993896484375</ele>
        <time>2023-01-11T11:39:32.000Z</time>
      </trkpt>
      <trkpt lat="-49.22795735299587249755859375" lon="-72.94207711704075336456298828125">
        <ele>452.399993896484375</ele>
        <time>2023-01-11T11:39:36.000Z</time>
      </trkpt>
      <trkpt lat="-49.22796271741390228271484375" lon="-72.942125983536243438720703125">
        <ele>452.600006103515625</ele>
        <time>2023-01-11T11:39:39.000Z</time>
      </trkpt>
      <trkpt lat="-49.22799364663660526275634765625" lon="-72.94225104153156280517578125">
        <ele>452.79998779296875</ele>
        <time>2023-01-11T11:39:46.000Z</time>
      </trkpt>
      <trkpt lat="-49.22800705768167972564697265625" lon="-72.942306697368621826171875">
        <ele>452.79998779296875</ele>
        <time>2023-01-11T11:39:49.000Z</time>
      </trkpt>
      <trkpt lat="-49.22806757502257823944091796875" lon="-72.94252504594624042510986328125">
        <ele>452.79998779296875</ele>
        <time>2023-01-11T11:40:01.000Z</time>
      </trkpt>
      <trkpt lat="-49.228113256394863128662109375" lon="-72.9427484236657619476318359375">
        <ele>453</ele>
        <time>2023-01-11T11:40:13.000Z</time>
      </trkpt>
      <trkpt lat="-49.22815424390137195587158203125" lon="-72.9428925924003124237060546875">
        <ele>453</ele>
        <time>2023-01-11T11:40:21.000Z</time>
      </trkpt>
      <trkpt lat="-49.22817972488701343536376953125" lon="-72.94295302592217922210693359375">
        <ele>453</ele>
        <time>2023-01-11T11:40:25.000Z</time>
      </trkpt>
      <trkpt lat="-49.22824040986597537994384765625" lon="-72.9431958496570587158203125">
        <ele>453</ele>
        <time>2023-01-11T11:40:39.000Z</time>
      </trkpt>
      <trkpt lat="-49.228242002427577972412109375" lon="-72.94326759874820709228515625">
        <ele>453</ele>
        <time>2023-01-11T11:40:43.000Z</time>
      </trkpt>
      <trkpt lat="-49.2282572574913501739501953125" lon="-72.94341822154819965362548828125">
        <ele>453</ele>
        <time>2023-01-11T11:40:51.000Z</time>
      </trkpt>
      <trkpt lat="-49.22826454974710941314697265625" lon="-72.943513356149196624755859375">
        <ele>453.20001220703125</ele>
        <time>2023-01-11T11:40:56.000Z</time>
      </trkpt>
      <trkpt lat="-49.22826723195612430572509765625" lon="-72.943551242351531982421875">
        <ele>453.399993896484375</ele>
        <time>2023-01-11T11:40:58.000Z</time>
      </trkpt>
      <trkpt lat="-49.22826438210904598236083984375" lon="-72.94372935779392719268798828125">
        <ele>453.399993896484375</ele>
        <time>2023-01-11T11:41:07.000Z</time>
      </trkpt>
      <trkpt lat="-49.228266142308712005615234375" lon="-72.94375031255185604095458984375">
        <ele>453.399993896484375</ele>
        <time>2023-01-11T11:41:08.000Z</time>
      </trkpt>
      <trkpt lat="-49.22826706431806087493896484375" lon="-72.94378953985869884490966796875">
        <ele>453.600006103515625</ele>
        <time>2023-01-11T11:41:10.000Z</time>
      </trkpt>
      <trkpt lat="-49.228264801204204559326171875" lon="-72.9438075609505176544189453125">
        <ele>453.600006103515625</ele>
        <time>2023-01-11T11:41:11.000Z</time>
      </trkpt>
      <trkpt lat="-49.22825935296714305877685546875" lon="-72.943913005292415618896484375">
        <ele>453.20001220703125</ele>
        <time>2023-01-11T11:41:17.000Z</time>
      </trkpt>
      <trkpt lat="-49.22825776040554046630859375" lon="-72.9439849220216274261474609375">
        <ele>453.399993896484375</ele>
        <time>2023-01-11T11:41:21.000Z</time>
      </trkpt>
      <trkpt lat="-49.228256084024906158447265625" lon="-72.9441502131521701812744140625">
        <ele>453.600006103515625</ele>
        <time>2023-01-11T11:41:30.000Z</time>
      </trkpt>
      <trkpt lat="-49.22825935296714305877685546875" lon="-72.944226153194904327392578125">
        <ele>453.399993896484375</ele>
        <time>2023-01-11T11:41:34.000Z</time>
      </trkpt>
      <trkpt lat="-49.22826178371906280517578125" lon="-72.94423830695450305938720703125">
        <ele>453.399993896484375</ele>
        <time>2023-01-11T11:41:35.000Z</time>
      </trkpt>
      <trkpt lat="-49.22827645204961299896240234375" lon="-72.944276444613933563232421875">
        <ele>453.399993896484375</ele>
        <time>2023-01-11T11:41:38.000Z</time>
      </trkpt>
      <trkpt lat="-49.228280223906040191650390625" lon="-72.944294549524784088134765625">
        <ele>453.20001220703125</ele>
        <time>2023-01-11T11:41:39.000Z</time>
      </trkpt>
      <trkpt lat="-49.2283394001424312591552734375" lon="-72.9444227926433086395263671875">
        <ele>452.79998779296875</ele>
        <time>2023-01-11T11:41:48.000Z</time>
      </trkpt>
      <trkpt lat="-49.22839346341788768768310546875" lon="-72.94450183399021625518798828125">
        <ele>453</ele>
        <time>2023-01-11T11:41:54.000Z</time>
      </trkpt>
      <trkpt lat="-49.22843185253441333770751953125" lon="-72.9445315897464752197265625">
        <ele>453.20001220703125</ele>
        <time>2023-01-11T11:41:58.000Z</time>
      </trkpt>
      <trkpt lat="-49.228441826999187469482421875" lon="-72.94454005546867847442626953125">
        <ele>453.399993896484375</ele>
        <time>2023-01-11T11:41:59.000Z</time>
      </trkpt>
      <trkpt lat="-49.22855691052973270416259765625" lon="-72.9446739144623279571533203125">
        <ele>453.79998779296875</ele>
        <time>2023-01-11T11:42:11.000Z</time>
      </trkpt>
      <trkpt lat="-49.22865866683423519134521484375" lon="-72.94485010206699371337890625">
        <ele>454</ele>
        <time>2023-01-11T11:42:24.000Z</time>
      </trkpt>
      <trkpt lat="-49.22869085334241390228271484375" lon="-72.9449079371988773345947265625">
        <ele>454.20001220703125</ele>
        <time>2023-01-11T11:42:28.000Z</time>
      </trkpt>
      <trkpt lat="-49.22871239483356475830078125" lon="-72.9449542053043842315673828125">
        <ele>454.399993896484375</ele>
        <time>2023-01-11T11:42:31.000Z</time>
      </trkpt>
      <trkpt lat="-49.2287420667707920074462890625" lon="-72.94501245953142642974853515625">
        <ele>454.20001220703125</ele>
        <time>2023-01-11T11:42:35.000Z</time>
      </trkpt>
      <trkpt lat="-49.2287702299654483795166015625" lon="-72.9450822807848453521728515625">
        <ele>454.20001220703125</ele>
        <time>2023-01-11T11:42:40.000Z</time>
      </trkpt>
      <trkpt lat="-49.22878213226795196533203125" lon="-72.94511790387332439422607421875">
        <ele>454.399993896484375</ele>
        <time>2023-01-11T11:42:42.000Z</time>
      </trkpt>
      <trkpt lat="-49.22882261686027050018310546875" lon="-72.9452026449143886566162109375">
        <ele>454.20001220703125</ele>
        <time>2023-01-11T11:42:48.000Z</time>
      </trkpt>
      <trkpt lat="-49.22886301763355731964111328125" lon="-72.94527431018650531768798828125">
        <ele>454.399993896484375</ele>
        <time>2023-01-11T11:42:53.000Z</time>
      </trkpt>
      <trkpt lat="-49.22893962822854518890380859375" lon="-72.945376150310039520263671875">
        <ele>454.600006103515625</ele>
        <time>2023-01-11T11:43:02.000Z</time>
      </trkpt>
      <trkpt lat="-49.22904389910399913787841796875" lon="-72.94552199542522430419921875">
        <ele>454.79998779296875</ele>
        <time>2023-01-11T11:43:14.000Z</time>
      </trkpt>
      <trkpt lat="-49.229056052863597869873046875" lon="-72.94553331099450588226318359375">
        <ele>454.79998779296875</ele>
        <time>2023-01-11T11:43:15.000Z</time>
      </trkpt>
      <trkpt lat="-49.229087568819522857666015625" lon="-72.94556348584592342376708984375">
        <ele>454.79998779296875</ele>
        <time>2023-01-11T11:43:18.000Z</time>
      </trkpt>
      <trkpt lat="-49.22917264513671398162841796875" lon="-72.9456361569464206695556640625">
        <ele>455</ele>
        <time>2023-01-11T11:43:26.000Z</time>
      </trkpt>
      <trkpt lat="-49.22921933233737945556640625" lon="-72.94568418525159358978271484375">
        <ele>455</ele>
        <time>2023-01-11T11:43:31.000Z</time>
      </trkpt>
      <trkpt lat="-49.2292795144021511077880859375" lon="-72.945730872452259063720703125">
        <ele>455</ele>
        <time>2023-01-11T11:43:37.000Z</time>
      </trkpt>
      <trkpt lat="-49.229385964572429656982421875" lon="-72.94581477530300617218017578125">
        <ele>455</ele>
        <time>2023-01-11T11:43:47.000Z</time>
      </trkpt>
      <trkpt lat="-49.22948093153536319732666015625" lon="-72.9458919726312160491943359375">
        <ele>455</ele>
        <time>2023-01-11T11:43:56.000Z</time>
      </trkpt>
      <trkpt lat="-49.22949886880815029144287109375" lon="-72.9459120891988277435302734375">
        <ele>455</ele>
        <time>2023-01-11T11:43:58.000Z</time>
      </trkpt>
      <trkpt lat="-49.22963767312467098236083984375" lon="-72.94602080248296260833740234375">
        <ele>455.20001220703125</ele>
        <time>2023-01-11T11:44:11.000Z</time>
      </trkpt>
      <trkpt lat="-49.22976474277675151824951171875" lon="-72.9461140930652618408203125">
        <ele>455.20001220703125</ele>
        <time>2023-01-11T11:44:22.000Z</time>
      </trkpt>
      <trkpt lat="-49.229872785508632659912109375" lon="-72.94619522988796234130859375">
        <ele>455</ele>
        <time>2023-01-11T11:44:32.000Z</time>
      </trkpt>
      <trkpt lat="-49.2298944108188152313232421875" lon="-72.94621207751333713531494140625">
        <ele>455.20001220703125</ele>
        <time>2023-01-11T11:44:34.000Z</time>
      </trkpt>
      <trkpt lat="-49.22992332838475704193115234375" lon="-72.9463372193276882171630859375">
        <ele>455.399993896484375</ele>
        <time>2023-01-11T11:44:40.000Z</time>
      </trkpt>
      <trkpt lat="-49.22993791289627552032470703125" lon="-72.94644509442150592803955078125">
        <ele>455.20001220703125</ele>
        <time>2023-01-11T11:44:46.000Z</time>
      </trkpt>
      <trkpt lat="-49.22995266504585742950439453125" lon="-72.94646923430263996124267578125">
        <ele>455.20001220703125</ele>
        <time>2023-01-11T11:44:48.000Z</time>
      </trkpt>
      <trkpt lat="-49.2300308682024478912353515625" lon="-72.94653478078544139862060546875">
        <ele>455.20001220703125</ele>
        <time>2023-01-11T11:44:56.000Z</time>
      </trkpt>
      <trkpt lat="-49.2300409264862537384033203125" lon="-72.9465742595493793487548828125">
        <ele>455.20001220703125</ele>
        <time>2023-01-11T11:44:58.000Z</time>
      </trkpt>
      <trkpt lat="-49.2300352267920970916748046875" lon="-72.9466899298131465911865234375">
        <ele>455.20001220703125</ele>
        <time>2023-01-11T11:45:03.000Z</time>
      </trkpt>
      <trkpt lat="-49.23002860508859157562255859375" lon="-72.9467543028295040130615234375">
        <ele>455.20001220703125</ele>
        <time>2023-01-11T11:45:07.000Z</time>
      </trkpt>
      <trkpt lat="-49.23003740608692169189453125" lon="-72.9467898420989513397216796875">
        <ele>455.20001220703125</ele>
        <time>2023-01-11T11:45:09.000Z</time>
      </trkpt>
      <trkpt lat="-49.23005886375904083251953125" lon="-72.94687961228191852569580078125">
        <ele>455</ele>
        <time>2023-01-11T11:45:14.000Z</time>
      </trkpt>
      <trkpt lat="-49.230074621737003326416015625" lon="-72.94695253483951091766357421875">
        <ele>455</ele>
        <time>2023-01-11T11:45:18.000Z</time>
      </trkpt>
      <trkpt lat="-49.23012700863182544708251953125" lon="-72.94706694781780242919921875">
        <ele>455</ele>
        <time>2023-01-11T11:45:26.000Z</time>
      </trkpt>
      <trkpt lat="-49.23016615211963653564453125" lon="-72.94706904329359531402587890625">
        <ele>455</ele>
        <time>2023-01-11T11:45:29.000Z</time>
      </trkpt>
      <trkpt lat="-49.230212755501270294189453125" lon="-72.94707273133099079132080078125">
        <ele>455</ele>
        <time>2023-01-11T11:45:33.000Z</time>
      </trkpt>
      <trkpt lat="-49.23024854622781276702880859375" lon="-72.94708312489092350006103515625">
        <ele>455</ele>
        <time>2023-01-11T11:45:36.000Z</time>
      </trkpt>
      <trkpt lat="-49.230302609503269195556640625" lon="-72.94709301553666591644287109375">
        <ele>455</ele>
        <time>2023-01-11T11:45:41.000Z</time>
      </trkpt>
      <trkpt lat="-49.2303731851279735565185546875" lon="-72.94709167443215847015380859375">
        <ele>455</ele>
        <time>2023-01-11T11:45:47.000Z</time>
      </trkpt>
      <trkpt lat="-49.23043546266853809356689453125" lon="-72.94710676185786724090576171875">
        <ele>455</ele>
        <time>2023-01-11T11:45:53.000Z</time>
      </trkpt>
      <trkpt lat="-49.2304618656635284423828125" lon="-72.94711053371429443359375">
        <ele>455</ele>
        <time>2023-01-11T11:45:56.000Z</time>
      </trkpt>
      <trkpt lat="-49.23046521842479705810546875" lon="-72.9471103660762310028076171875">
        <ele>455</ele>
        <time>2023-01-11T11:46:02.000Z</time>
      </trkpt>
      <trkpt lat="-49.2305088043212890625" lon="-72.94711179099977016448974609375">
        <ele>455</ele>
        <time>2023-01-11T11:46:09.000Z</time>
      </trkpt>
      <trkpt lat="-49.2305582575500011444091796875" lon="-72.94711480848491191864013671875">
        <ele>455</ele>
        <time>2023-01-11T11:46:13.000Z</time>
      </trkpt>
      <trkpt lat="-49.23059304244816303253173828125" lon="-72.94711112044751644134521484375">
        <ele>455</ele>
        <time>2023-01-11T11:46:16.000Z</time>
      </trkpt>
      <trkpt lat="-49.23068457283079624176025390625" lon="-72.94708278961479663848876953125">
        <ele>455</ele>
        <time>2023-01-11T11:46:23.000Z</time>
      </trkpt>
      <trkpt lat="-49.23080879263579845428466796875" lon="-72.94713408686220645904541015625">
        <ele>455</ele>
        <time>2023-01-11T11:46:32.000Z</time>
      </trkpt>
      <trkpt lat="-49.2308492772281169891357421875" lon="-72.94719929806888103485107421875">
        <ele>455</ele>
        <time>2023-01-11T11:46:37.000Z</time>
      </trkpt>
      <trkpt lat="-49.2308670468628406524658203125" lon="-72.9472137987613677978515625">
        <ele>455</ele>
        <time>2023-01-11T11:46:39.000Z</time>
      </trkpt>
      <trkpt lat="-49.23095011152327060699462890625" lon="-72.94722997583448886871337890625">
        <ele>455</ele>
        <time>2023-01-11T11:46:46.000Z</time>
      </trkpt>
      <trkpt lat="-49.2309607565402984619140625" lon="-72.94722712598741054534912109375">
        <ele>455</ele>
        <time>2023-01-11T11:46:47.000Z</time>
      </trkpt>
      <trkpt lat="-49.2310387082397937774658203125" lon="-72.94721991755068302154541015625">
        <ele>455</ele>
        <time>2023-01-11T11:46:53.000Z</time>
      </trkpt>
      <trkpt lat="-49.23112110234797000885009765625" lon="-72.9472585581243038177490234375">
        <ele>455</ele>
        <time>2023-01-11T11:47:00.000Z</time>
      </trkpt>
      <trkpt lat="-49.231256805360317230224609375" lon="-72.947382442653179168701171875">
        <ele>455</ele>
        <time>2023-01-11T11:47:12.000Z</time>
      </trkpt>
      <trkpt lat="-49.23139519058167934417724609375" lon="-72.94744723476469516754150390625">
        <ele>455</ele>
        <time>2023-01-11T11:47:25.000Z</time>
      </trkpt>
      <trkpt lat="-49.231415726244449615478515625" lon="-72.947456203401088714599609375">
        <ele>455</ele>
        <time>2023-01-11T11:47:27.000Z</time>
      </trkpt>
      <trkpt lat="-49.23155427910387516021728515625" lon="-72.94752820394933223724365234375">
        <ele>455</ele>
        <time>2023-01-11T11:47:38.000Z</time>
      </trkpt>
      <trkpt lat="-49.2316267825663089752197265625" lon="-72.9475437104701995849609375">
        <ele>455</ele>
        <time>2023-01-11T11:47:43.000Z</time>
      </trkpt>
      <trkpt lat="-49.231638349592685699462890625" lon="-72.947547398507595062255859375">
        <ele>455</ele>
        <time>2023-01-11T11:47:44.000Z</time>
      </trkpt>
      <trkpt lat="-49.231659136712551116943359375" lon="-72.9475509189069271087646484375">
        <ele>455</ele>
        <time>2023-01-11T11:47:46.000Z</time>
      </trkpt>
      <trkpt lat="-49.23182216472923755645751953125" lon="-72.94757346622645854949951171875">
        <ele>455</ele>
        <time>2023-01-11T11:47:59.000Z</time>
      </trkpt>
      <trkpt lat="-49.23194579780101776123046875" lon="-72.94759894721210002899169921875">
        <ele>455</ele>
        <time>2023-01-11T11:48:10.000Z</time>
      </trkpt>
      <trkpt lat="-49.231985025107860565185546875" lon="-72.9476132802665233612060546875">
        <ele>458</ele>
        <time>2023-01-11T11:48:14.000Z</time>
      </trkpt>
      <trkpt lat="-49.23205048777163028717041015625" lon="-72.94763825833797454833984375">
        <ele>457.79998779296875</ele>
        <time>2023-01-11T11:48:20.000Z</time>
      </trkpt>
      <trkpt lat="-49.23214252106845378875732421875" lon="-72.9476759769022464752197265625">
        <ele>457.79998779296875</ele>
        <time>2023-01-11T11:48:29.000Z</time>
      </trkpt>
      <trkpt lat="-49.23223706893622875213623046875" lon="-72.9477296210825443267822265625">
        <ele>458</ele>
        <time>2023-01-11T11:48:38.000Z</time>
      </trkpt>
      <trkpt lat="-49.2322607897222042083740234375" lon="-72.9477601312100887298583984375">
        <ele>458.20001220703125</ele>
        <time>2023-01-11T11:48:41.000Z</time>
      </trkpt>
      <trkpt lat="-49.23227059654891490936279296875" lon="-72.947832383215427398681640625">
        <ele>458.600006103515625</ele>
        <time>2023-01-11T11:48:45.000Z</time>
      </trkpt>
      <trkpt lat="-49.23226791433990001678466796875" lon="-72.9479514062404632568359375">
        <ele>458.399993896484375</ele>
        <time>2023-01-11T11:48:51.000Z</time>
      </trkpt>
      <trkpt lat="-49.2322587780654430389404296875" lon="-72.9479961656033992767333984375">
        <ele>458.399993896484375</ele>
        <time>2023-01-11T11:48:54.000Z</time>
      </trkpt>
      <trkpt lat="-49.2322410084307193756103515625" lon="-72.9480989277362823486328125">
        <ele>458.600006103515625</ele>
        <time>2023-01-11T11:49:01.000Z</time>
      </trkpt>
      <trkpt lat="-49.2322400026023387908935546875" lon="-72.94811309315264225006103515625">
        <ele>458.79998779296875</ele>
        <time>2023-01-11T11:49:02.000Z</time>
      </trkpt>
      <trkpt lat="-49.2322483845055103302001953125" lon="-72.94814611785113811492919921875">
        <ele>458.79998779296875</ele>
        <time>2023-01-11T11:49:04.000Z</time>
      </trkpt>
      <trkpt lat="-49.23228643834590911865234375" lon="-72.94822205789387226104736328125">
        <ele>458.79998779296875</ele>
        <time>2023-01-11T11:49:10.000Z</time>
      </trkpt>
      <trkpt lat="-49.2322949878871440887451171875" lon="-72.9482372291386127471923828125">
        <ele>459</ele>
        <time>2023-01-11T11:49:11.000Z</time>
      </trkpt>
      <trkpt lat="-49.23231803812086582183837890625" lon="-72.94827972538769245147705078125">
        <ele>458.79998779296875</ele>
        <time>2023-01-11T11:49:14.000Z</time>
      </trkpt>
      <trkpt lat="-49.23233429901301860809326171875" lon="-72.94830118305981159210205078125">
        <ele>459</ele>
        <time>2023-01-11T11:49:16.000Z</time>
      </trkpt>
      <trkpt lat="-49.2323662340641021728515625" lon="-72.9483282566070556640625">
        <ele>459</ele>
        <time>2023-01-11T11:49:20.000Z</time>
      </trkpt>
      <trkpt lat="-49.23243488185107707977294921875" lon="-72.948363125324249267578125">
        <ele>459.20001220703125</ele>
        <time>2023-01-11T11:49:26.000Z</time>
      </trkpt>
      <trkpt lat="-49.23254099674522876739501953125" lon="-72.9484712518751621246337890625">
        <ele>459.399993896484375</ele>
        <time>2023-01-11T11:49:37.000Z</time>
      </trkpt>
      <trkpt lat="-49.23264828510582447052001953125" lon="-72.94855163432657718658447265625">
        <ele>460</ele>
        <time>2023-01-11T11:49:48.000Z</time>
      </trkpt>
      <trkpt lat="-49.2326564155519008636474609375" lon="-72.9485634528100490570068359375">
        <ele>460</ele>
        <time>2023-01-11T11:49:49.000Z</time>
      </trkpt>
      <trkpt lat="-49.2327224649488925933837890625" lon="-72.948658503592014312744140625">
        <ele>460.20001220703125</ele>
        <time>2023-01-11T11:49:56.000Z</time>
      </trkpt>
      <trkpt lat="-49.2328086309134960174560546875" lon="-72.94866948388516902923583984375">
        <ele>460.600006103515625</ele>
        <time>2023-01-11T11:50:03.000Z</time>
      </trkpt>
      <trkpt lat="-49.23282128758728504180908203125" lon="-72.94867266900837421417236328125">
        <ele>460.600006103515625</ele>
        <time>2023-01-11T11:50:04.000Z</time>
      </trkpt>
      <trkpt lat="-49.23288046382367610931396484375" lon="-72.94867116026580333709716796875">
        <ele>460.399993896484375</ele>
        <time>2023-01-11T11:50:09.000Z</time>
      </trkpt>
      <trkpt lat="-49.2329256422817707061767578125" lon="-72.94866110198199748992919921875">
        <ele>460.399993896484375</ele>
        <time>2023-01-11T11:50:13.000Z</time>
      </trkpt>
      <trkpt lat="-49.23293494619429111480712890625" lon="-72.94865883886814117431640625">
        <ele>460.399993896484375</ele>
        <time>2023-01-11T11:50:14.000Z</time>
      </trkpt>
      <trkpt lat="-49.23295497894287109375" lon="-72.94865875504910945892333984375">
        <ele>460.399993896484375</ele>
        <time>2023-01-11T11:50:16.000Z</time>
      </trkpt>
      <trkpt lat="-49.23300527036190032958984375" lon="-72.948662526905536651611328125">
        <ele>460.600006103515625</ele>
        <time>2023-01-11T11:50:20.000Z</time>
      </trkpt>
      <trkpt lat="-49.23307408578693866729736328125" lon="-72.94865104369819164276123046875">
        <ele>461</ele>
        <time>2023-01-11T11:50:26.000Z</time>
      </trkpt>
      <trkpt lat="-49.23310719430446624755859375" lon="-72.94863662682473659515380859375">
        <ele>461.20001220703125</ele>
        <time>2023-01-11T11:50:29.000Z</time>
      </trkpt>
      <trkpt lat="-49.23320517875254154205322265625" lon="-72.94862656854093074798583984375">
        <ele>461.20001220703125</ele>
        <time>2023-01-11T11:50:36.000Z</time>
      </trkpt>
      <trkpt lat="-49.23331883735954761505126953125" lon="-72.9486989043653011322021484375">
        <ele>461.399993896484375</ele>
        <time>2023-01-11T11:50:45.000Z</time>
      </trkpt>
      <trkpt lat="-49.23347943462431430816650390625" lon="-72.94871776364743709564208984375">
        <ele>461.600006103515625</ele>
        <time>2023-01-11T11:50:57.000Z</time>
      </trkpt>
      <trkpt lat="-49.2335958592593669891357421875" lon="-72.948639728128910064697265625">
        <ele>461.79998779296875</ele>
        <time>2023-01-11T11:51:07.000Z</time>
      </trkpt>
      <trkpt lat="-49.23371865414083003997802734375" lon="-72.9485942982137203216552734375">
        <ele>462</ele>
        <time>2023-01-11T11:51:16.000Z</time>
      </trkpt>
      <trkpt lat="-49.23386491835117340087890625" lon="-72.948651798069477081298828125">
        <ele>462</ele>
        <time>2023-01-11T11:51:27.000Z</time>
      </trkpt>
      <trkpt lat="-49.2338922433555126190185546875" lon="-72.9486563242971897125244140625">
        <ele>462</ele>
        <time>2023-01-11T11:51:30.000Z</time>
      </trkpt>
      <trkpt lat="-49.2339353263378143310546875" lon="-72.94863201677799224853515625">
        <ele>462.20001220703125</ele>
        <time>2023-01-11T11:51:34.000Z</time>
      </trkpt>
      <trkpt lat="-49.23406742513179779052734375" lon="-72.94859807007014751434326171875">
        <ele>462.600006103515625</ele>
        <time>2023-01-11T11:51:45.000Z</time>
      </trkpt>
      <trkpt lat="-49.23418217338621616363525390625" lon="-72.9486432485282421112060546875">
        <ele>463</ele>
        <time>2023-01-11T11:51:54.000Z</time>
      </trkpt>
      <trkpt lat="-49.2342486418783664703369140625" lon="-72.9487532190978527069091796875">
        <ele>462.600006103515625</ele>
        <time>2023-01-11T11:52:02.000Z</time>
      </trkpt>
      <trkpt lat="-49.2342590354382991790771484375" lon="-72.948831506073474884033203125">
        <ele>462.399993896484375</ele>
        <time>2023-01-11T11:52:07.000Z</time>
      </trkpt>
      <trkpt lat="-49.2342650704085826873779296875" lon="-72.94886712916195392608642578125">
        <ele>462.600006103515625</ele>
        <time>2023-01-11T11:52:09.000Z</time>
      </trkpt>
      <trkpt lat="-49.2343224026262760162353515625" lon="-72.94901800341904163360595703125">
        <ele>462.600006103515625</ele>
        <time>2023-01-11T11:52:18.000Z</time>
      </trkpt>
      <trkpt lat="-49.2344843409955501556396484375" lon="-72.94913669116795063018798828125">
        <ele>462.600006103515625</ele>
        <time>2023-01-11T11:52:32.000Z</time>
      </trkpt>
      <trkpt lat="-49.2346273362636566162109375" lon="-72.94923274777829647064208984375">
        <ele>462.600006103515625</ele>
        <time>2023-01-11T11:52:45.000Z</time>
      </trkpt>
      <trkpt lat="-49.23472733236849308013916015625" lon="-72.94932343997061252593994140625">
        <ele>462.600006103515625</ele>
        <time>2023-01-11T11:52:55.000Z</time>
      </trkpt>
      <trkpt lat="-49.23470319248735904693603515625" lon="-72.94941681437194347381591796875">
        <ele>462.600006103515625</ele>
        <time>2023-01-11T11:53:00.000Z</time>
      </trkpt>
      <trkpt lat="-49.2346908710896968841552734375" lon="-72.94943190179765224456787109375">
        <ele>462.600006103515625</ele>
        <time>2023-01-11T11:53:01.000Z</time>
      </trkpt>
      <trkpt lat="-49.2346808128058910369873046875" lon="-72.9494462348520755767822265625">
        <ele>462.600006103515625</ele>
        <time>2023-01-11T11:53:02.000Z</time>
      </trkpt>
      <trkpt lat="-49.23462398350238800048828125" lon="-72.9496051557362079620361328125">
        <ele>462.600006103515625</ele>
        <time>2023-01-11T11:53:11.000Z</time>
      </trkpt>
      <trkpt lat="-49.23461048863828182220458984375" lon="-72.9496732167899608612060546875">
        <ele>462.600006103515625</ele>
        <time>2023-01-11T11:53:15.000Z</time>
      </trkpt>
      <trkpt lat="-49.23457277007400989532470703125" lon="-72.9497261904180049896240234375">
        <ele>462.600006103515625</ele>
        <time>2023-01-11T11:53:19.000Z</time>
      </trkpt>
      <trkpt lat="-49.23450152389705181121826171875" lon="-72.9497994482517242431640625">
        <ele>462.600006103515625</ele>
        <time>2023-01-11T11:53:26.000Z</time>
      </trkpt>
      <trkpt lat="-49.2344990931451320648193359375" lon="-72.94981244020164012908935546875">
        <ele>462.600006103515625</ele>
        <time>2023-01-11T11:53:27.000Z</time>
      </trkpt>
      <trkpt lat="-49.23447621054947376251220703125" lon="-72.9498857818543910980224609375">
        <ele>462.600006103515625</ele>
        <time>2023-01-11T11:53:31.000Z</time>
      </trkpt>
      <trkpt lat="-49.234468750655651092529296875" lon="-72.94993632473051548004150390625">
        <ele>462.600006103515625</ele>
        <time>2023-01-11T11:53:34.000Z</time>
      </trkpt>
      <trkpt lat="-49.2343907989561557769775390625" lon="-72.95006205327808856964111328125">
        <ele>462.600006103515625</ele>
        <time>2023-01-11T11:53:42.000Z</time>
      </trkpt>
      <trkpt lat="-49.23437512479722499847412109375" lon="-72.95006725005805492401123046875">
        <ele>462.600006103515625</ele>
        <time>2023-01-11T11:53:43.000Z</time>
      </trkpt>
      <trkpt lat="-49.234336651861667633056640625" lon="-72.95007680542767047882080078125">
        <ele>462.600006103515625</ele>
        <time>2023-01-11T11:53:46.000Z</time>
      </trkpt>
      <trkpt lat="-49.23432533629238605499267578125" lon="-72.9500837624073028564453125">
        <ele>462.600006103515625</ele>
        <time>2023-01-11T11:53:47.000Z</time>
      </trkpt>
      <trkpt lat="-49.2342939041554927825927734375" lon="-72.950135730206966400146484375">
        <ele>462.600006103515625</ele>
        <time>2023-01-11T11:53:51.000Z</time>
      </trkpt>
      <trkpt lat="-49.2341956682503223419189453125" lon="-72.95024679042398929595947265625">
        <ele>462.600006103515625</ele>
        <time>2023-01-11T11:54:00.000Z</time>
      </trkpt>
      <trkpt lat="-49.2341245897114276885986328125" lon="-72.95035039074718952178955078125">
        <ele>462.600006103515625</ele>
        <time>2023-01-11T11:54:09.000Z</time>
      </trkpt>
      <trkpt lat="-49.2341269366443157196044921875" lon="-72.95036950148642063140869140625">
        <ele>462.600006103515625</ele>
        <time>2023-01-11T11:54:10.000Z</time>
      </trkpt>
      <trkpt lat="-49.234132133424282073974609375" lon="-72.95038911513984203338623046875">
        <ele>462.600006103515625</ele>
        <time>2023-01-11T11:54:11.000Z</time>
      </trkpt>
      <trkpt lat="-49.23413791693747043609619140625" lon="-72.9504705034196376800537109375">
        <ele>462.600006103515625</ele>
        <time>2023-01-11T11:54:16.000Z</time>
      </trkpt>
      <trkpt lat="-49.2341453768312931060791015625" lon="-72.95056580565869808197021484375">
        <ele>462.600006103515625</ele>
        <time>2023-01-11T11:54:22.000Z</time>
      </trkpt>
      <trkpt lat="-49.23414797522127628326416015625" lon="-72.95059246011078357696533203125">
        <ele>462.600006103515625</ele>
        <time>2023-01-11T11:54:24.000Z</time>
      </trkpt>
      <trkpt lat="-49.23414847813546657562255859375" lon="-72.950604446232318878173828125">
        <ele>462.600006103515625</ele>
        <time>2023-01-11T11:54:25.000Z</time>
      </trkpt>
      <trkpt lat="-49.234146215021610260009765625" lon="-72.9506736807525157928466796875">
        <ele>462.600006103515625</ele>
        <time>2023-01-11T11:54:29.000Z</time>
      </trkpt>
      <trkpt lat="-49.2341794073581695556640625" lon="-72.95073294080793857574462890625">
        <ele>462.600006103515625</ele>
        <time>2023-01-11T11:54:33.000Z</time>
      </trkpt>
      <trkpt lat="-49.2341856099665164947509765625" lon="-72.9507454298436641693115234375">
        <ele>462.600006103515625</ele>
        <time>2023-01-11T11:54:34.000Z</time>
      </trkpt>
      <trkpt lat="-49.234223999083042144775390625" lon="-72.95081441290676593780517578125">
        <ele>462.600006103515625</ele>
        <time>2023-01-11T11:54:39.000Z</time>
      </trkpt>
      <trkpt lat="-49.23426029272377490997314453125" lon="-72.95085900463163852691650390625">
        <ele>462.600006103515625</ele>
        <time>2023-01-11T11:54:43.000Z</time>
      </trkpt>
      <trkpt lat="-49.23429566435515880584716796875" lon="-72.9509318433701992034912109375">
        <ele>462.600006103515625</ele>
        <time>2023-01-11T11:54:47.000Z</time>
      </trkpt>
      <trkpt lat="-49.23430086113512516021728515625" lon="-72.95095221139490604400634765625">
        <ele>462.600006103515625</ele>
        <time>2023-01-11T11:54:48.000Z</time>
      </trkpt>
      <trkpt lat="-49.23433028161525726318359375" lon="-72.95110241509974002838134765625">
        <ele>462.600006103515625</ele>
        <time>2023-01-11T11:54:57.000Z</time>
      </trkpt>
      <trkpt lat="-49.234319888055324554443359375" lon="-72.9511578194797039031982421875">
        <ele>462.600006103515625</ele>
        <time>2023-01-11T11:55:00.000Z</time>
      </trkpt>
      <trkpt lat="-49.234307818114757537841796875" lon="-72.95118640176951885223388671875">
        <ele>462.600006103515625</ele>
        <time>2023-01-11T11:55:02.000Z</time>
      </trkpt>
      <trkpt lat="-49.23430421389639377593994140625" lon="-72.951216995716094970703125">
        <ele>462.600006103515625</ele>
        <time>2023-01-11T11:55:04.000Z</time>
      </trkpt>
      <trkpt lat="-49.23433338291943073272705078125" lon="-72.95131548307836055755615234375">
        <ele>462.600006103515625</ele>
        <time>2023-01-11T11:55:10.000Z</time>
      </trkpt>
      <trkpt lat="-49.23434142954647541046142578125" lon="-72.95132185332477092742919921875">
        <ele>462.600006103515625</ele>
        <time>2023-01-11T11:55:11.000Z</time>
      </trkpt>
      <trkpt lat="-49.23434847034513950347900390625" lon="-72.9513314925134181976318359375">
        <ele>462.600006103515625</ele>
        <time>2023-01-11T11:55:12.000Z</time>
      </trkpt>
      <trkpt lat="-49.234375543892383575439453125" lon="-72.95139226131141185760498046875">
        <ele>462.600006103515625</ele>
        <time>2023-01-11T11:55:16.000Z</time>
      </trkpt>
      <trkpt lat="-49.23437663353979587554931640625" lon="-72.95141036622226238250732421875">
        <ele>462.600006103515625</ele>
        <time>2023-01-11T11:55:17.000Z</time>
      </trkpt>
      <trkpt lat="-49.2343832552433013916015625" lon="-72.9514733143150806427001953125">
        <ele>462.600006103515625</ele>
        <time>2023-01-11T11:55:21.000Z</time>
      </trkpt>
      <trkpt lat="-49.23438266851007938385009765625" lon="-72.9515589773654937744140625">
        <ele>462.600006103515625</ele>
        <time>2023-01-11T11:55:26.000Z</time>
      </trkpt>
      <trkpt lat="-49.23438367433845996856689453125" lon="-72.95172770507633686065673828125">
        <ele>462.600006103515625</ele>
        <time>2023-01-11T11:55:34.000Z</time>
      </trkpt>
      <trkpt lat="-49.23440043814480304718017578125" lon="-72.95178101398050785064697265625">
        <ele>462.600006103515625</ele>
        <time>2023-01-11T11:55:37.000Z</time>
      </trkpt>
      <trkpt lat="-49.23440781421959400177001953125" lon="-72.95179844833910465240478515625">
        <ele>462.600006103515625</ele>
        <time>2023-01-11T11:55:38.000Z</time>
      </trkpt>
      <trkpt lat="-49.23441745340824127197265625" lon="-72.95181269757449626922607421875">
        <ele>462.600006103515625</ele>
        <time>2023-01-11T11:55:39.000Z</time>
      </trkpt>
      <trkpt lat="-49.2344451136887073516845703125" lon="-72.95182979665696620941162109375">
        <ele>462.600006103515625</ele>
        <time>2023-01-11T11:55:42.000Z</time>
      </trkpt>
      <trkpt lat="-49.23449230380356311798095703125" lon="-72.95181982219219207763671875">
        <ele>462.600006103515625</ele>
        <time>2023-01-11T11:55:46.000Z</time>
      </trkpt>
      <trkpt lat="-49.23452298156917095184326171875" lon="-72.95183180831372737884521484375">
        <ele>462.600006103515625</ele>
        <time>2023-01-11T11:55:49.000Z</time>
      </trkpt>
      <trkpt lat="-49.23456757329404354095458984375" lon="-72.95193674974143505096435546875">
        <ele>462.600006103515625</ele>
        <time>2023-01-11T11:55:56.000Z</time>
      </trkpt>
      <trkpt lat="-49.23458718694746494293212890625" lon="-72.95199726708233356475830078125">
        <ele>462.600006103515625</ele>
        <time>2023-01-11T11:56:00.000Z</time>
      </trkpt>
      <trkpt lat="-49.2346140928566455841064453125" lon="-72.95203833840787410736083984375">
        <ele>462.600006103515625</ele>
        <time>2023-01-11T11:56:03.000Z</time>
      </trkpt>
      <trkpt lat="-49.23463605344295501708984375" lon="-72.95207270421087741851806640625">
        <ele>462.600006103515625</ele>
        <time>2023-01-11T11:56:06.000Z</time>
      </trkpt>
      <trkpt lat="-49.23466631211340427398681640625" lon="-72.95210815966129302978515625">
        <ele>462.600006103515625</ele>
        <time>2023-01-11T11:56:09.000Z</time>
      </trkpt>
      <trkpt lat="-49.2346848361194133758544921875" lon="-72.95213087461888790130615234375">
        <ele>462.600006103515625</ele>
        <time>2023-01-11T11:56:11.000Z</time>
      </trkpt>
      <trkpt lat="-49.2347748577594757080078125" lon="-72.95222274027764797210693359375">
        <ele>462.600006103515625</ele>
        <time>2023-01-11T11:56:21.000Z</time>
      </trkpt>
      <trkpt lat="-49.23478617332875728607177734375" lon="-72.95222911052405834197998046875">
        <ele>467</ele>
        <time>2023-01-11T11:56:22.000Z</time>
      </trkpt>
      <trkpt lat="-49.23485188744962215423583984375" lon="-72.95228342525660991668701171875">
        <ele>467</ele>
        <time>2023-01-11T11:56:29.000Z</time>
      </trkpt>
      <trkpt lat="-49.2348615266382694244384765625" lon="-72.952300608158111572265625">
        <ele>467</ele>
        <time>2023-01-11T11:56:30.000Z</time>
      </trkpt>
      <trkpt lat="-49.2349054478108882904052734375" lon="-72.95245877467095851898193359375">
        <ele>467.600006103515625</ele>
        <time>2023-01-11T11:56:39.000Z</time>
      </trkpt>
      <trkpt lat="-49.234907291829586029052734375" lon="-72.9524736106395721435546875">
        <ele>467.600006103515625</ele>
        <time>2023-01-11T11:56:40.000Z</time>
      </trkpt>
      <trkpt lat="-49.23489195294678211212158203125" lon="-72.95252650044858455657958984375">
        <ele>467.79998779296875</ele>
        <time>2023-01-11T11:56:43.000Z</time>
      </trkpt>
      <trkpt lat="-49.23487183637917041778564453125" lon="-72.95257645659148693084716796875">
        <ele>467.79998779296875</ele>
        <time>2023-01-11T11:56:46.000Z</time>
      </trkpt>
      <trkpt lat="-49.2348561622202396392822265625" lon="-72.95270520262420177459716796875">
        <ele>467.399993896484375</ele>
        <time>2023-01-11T11:56:54.000Z</time>
      </trkpt>
      <trkpt lat="-49.23490502871572971343994140625" lon="-72.95285046100616455078125">
        <ele>467.399993896484375</ele>
        <time>2023-01-11T11:57:03.000Z</time>
      </trkpt>
      <trkpt lat="-49.23499404452741146087646484375" lon="-72.95293251983821392059326171875">
        <ele>468</ele>
        <time>2023-01-11T11:57:14.000Z</time>
      </trkpt>
      <trkpt lat="-49.23504081554710865020751953125" lon="-72.9530145786702632904052734375">
        <ele>468.79998779296875</ele>
        <time>2023-01-11T11:57:21.000Z</time>
      </trkpt>
      <trkpt lat="-49.235050790011882781982421875" lon="-72.95304383151233196258544921875">
        <ele>469</ele>
        <time>2023-01-11T11:57:23.000Z</time>
      </trkpt>
      <trkpt lat="-49.23505322076380252838134765625" lon="-72.95305523090064525604248046875">
        <ele>469.20001220703125</ele>
        <time>2023-01-11T11:57:24.000Z</time>
      </trkpt>
      <trkpt lat="-49.2350630275905132293701171875" lon="-72.95306746847927570343017578125">
        <ele>469.399993896484375</ele>
        <time>2023-01-11T11:57:28.000Z</time>
      </trkpt>
      <trkpt lat="-49.23508398234844207763671875" lon="-72.95312480069696903228759765625">
        <ele>469.399993896484375</ele>
        <time>2023-01-11T11:57:32.000Z</time>
      </trkpt>
      <trkpt lat="-49.23509781248867511749267578125" lon="-72.953166961669921875">
        <ele>469.399993896484375</ele>
        <time>2023-01-11T11:57:35.000Z</time>
      </trkpt>
      <trkpt lat="-49.2351149953901767730712890625" lon="-72.95318774878978729248046875">
        <ele>469.600006103515625</ele>
        <time>2023-01-11T11:57:38.000Z</time>
      </trkpt>
      <trkpt lat="-49.23514902591705322265625" lon="-72.9531848989427089691162109375">
        <ele>470</ele>
        <time>2023-01-11T11:57:42.000Z</time>
      </trkpt>
      <trkpt lat="-49.2351592518389225006103515625" lon="-72.95318280346691608428955078125">
        <ele>470.20001220703125</ele>
        <time>2023-01-11T11:57:43.000Z</time>
      </trkpt>
      <trkpt lat="-49.23516981303691864013671875" lon="-72.95318548567593097686767578125">
        <ele>470.399993896484375</ele>
        <time>2023-01-11T11:57:44.000Z</time>
      </trkpt>
      <trkpt lat="-49.23523678444325923919677734375" lon="-72.95322538353502750396728515625">
        <ele>471</ele>
        <time>2023-01-11T11:57:50.000Z</time>
      </trkpt>
      <trkpt lat="-49.23531255684792995452880859375" lon="-72.9533149860799312591552734375">
        <ele>471.20001220703125</ele>
        <time>2023-01-11T11:57:59.000Z</time>
      </trkpt>
      <trkpt lat="-49.2353386245667934417724609375" lon="-72.9533304087817668914794921875">
        <ele>471.20001220703125</ele>
        <time>2023-01-11T11:58:02.000Z</time>
      </trkpt>
      <trkpt lat="-49.23535731621086597442626953125" lon="-72.9533347673714160919189453125">
        <ele>471.20001220703125</ele>
        <time>2023-01-11T11:58:04.000Z</time>
      </trkpt>
      <trkpt lat="-49.23537894152104854583740234375" lon="-72.953337617218494415283203125">
        <ele>471.20001220703125</ele>
        <time>2023-01-11T11:58:06.000Z</time>
      </trkpt>
      <trkpt lat="-49.2354328371584415435791015625" lon="-72.95335245318710803985595703125">
        <ele>471.399993896484375</ele>
        <time>2023-01-11T11:58:11.000Z</time>
      </trkpt>
      <trkpt lat="-49.235478602349758148193359375" lon="-72.95339654199779033660888671875">
        <ele>471.600006103515625</ele>
        <time>2023-01-11T11:58:16.000Z</time>
      </trkpt>
      <trkpt lat="-49.23548606224358081817626953125" lon="-72.95340626500546932220458984375">
        <ele>471.600006103515625</ele>
        <time>2023-01-11T11:58:17.000Z</time>
      </trkpt>
      <trkpt lat="-49.23551405780017375946044921875" lon="-72.95341012068092823028564453125">
        <ele>471.600006103515625</ele>
        <time>2023-01-11T11:58:20.000Z</time>
      </trkpt>
      <trkpt lat="-49.23555596731603145599365234375" lon="-72.953385896980762481689453125">
        <ele>471.79998779296875</ele>
        <time>2023-01-11T11:58:25.000Z</time>
      </trkpt>
      <trkpt lat="-49.2356095276772975921630859375" lon="-72.95338262803852558135986328125">
        <ele>472</ele>
        <time>2023-01-11T11:58:30.000Z</time>
      </trkpt>
      <trkpt lat="-49.23562050797045230865478515625" lon="-72.953382544219493865966796875">
        <ele>472</ele>
        <time>2023-01-11T11:58:31.000Z</time>
      </trkpt>
      <trkpt lat="-49.2356645129621028900146484375" lon="-72.95339922420680522918701171875">
        <ele>472.20001220703125</ele>
        <time>2023-01-11T11:58:35.000Z</time>
      </trkpt>
      <trkpt lat="-49.23568672500550746917724609375" lon="-72.95340995304286479949951171875">
        <ele>472.399993896484375</ele>
        <time>2023-01-11T11:58:37.000Z</time>
      </trkpt>
      <trkpt lat="-49.23569862730801105499267578125" lon="-72.95341330580413341522216796875">
        <ele>472.399993896484375</ele>
        <time>2023-01-11T11:58:38.000Z</time>
      </trkpt>
      <trkpt lat="-49.235749505460262298583984375" lon="-72.95344985090196132659912109375">
        <ele>472.79998779296875</ele>
        <time>2023-01-11T11:58:43.000Z</time>
      </trkpt>
      <trkpt lat="-49.23578781075775623321533203125" lon="-72.9534561373293399810791015625">
        <ele>473.399993896484375</ele>
        <time>2023-01-11T11:58:47.000Z</time>
      </trkpt>
      <trkpt lat="-49.2358163930475711822509765625" lon="-72.9534635134041309356689453125">
        <ele>473.600006103515625</ele>
        <time>2023-01-11T11:58:50.000Z</time>
      </trkpt>
      <trkpt lat="-49.23583634197711944580078125" lon="-72.9534767568111419677734375">
        <ele>473.79998779296875</ele>
        <time>2023-01-11T11:58:52.000Z</time>
      </trkpt>
      <trkpt lat="-49.23584497533738613128662109375" lon="-72.95348203741014003753662109375">
        <ele>473.79998779296875</ele>
        <time>2023-01-11T11:58:53.000Z</time>
      </trkpt>
      <trkpt lat="-49.23588453792035579681396484375" lon="-72.95349419116973876953125">
        <ele>474.20001220703125</ele>
        <time>2023-01-11T11:58:57.000Z</time>
      </trkpt>
      <trkpt lat="-49.235914461314678192138671875" lon="-72.95349980704486370086669921875">
        <ele>474.399993896484375</ele>
        <time>2023-01-11T11:59:00.000Z</time>
      </trkpt>
      <trkpt lat="-49.2359323985874652862548828125" lon="-72.953503914177417755126953125">
        <ele>474.600006103515625</ele>
        <time>2023-01-11T11:59:03.000Z</time>
      </trkpt>
      <trkpt lat="-49.2359458096325397491455078125" lon="-72.95350315980613231658935546875">
        <ele>474.79998779296875</ele>
        <time>2023-01-11T11:59:05.000Z</time>
      </trkpt>
      <trkpt lat="-49.2359979450702667236328125" lon="-72.95350181870162487030029296875">
        <ele>475.20001220703125</ele>
        <time>2023-01-11T11:59:11.000Z</time>
      </trkpt>
      <trkpt lat="-49.23601764254271984100341796875" lon="-72.95350064523518085479736328125">
        <ele>475.399993896484375</ele>
        <time>2023-01-11T11:59:13.000Z</time>
      </trkpt>
      <trkpt lat="-49.23608302138745784759521484375" lon="-72.9534806124866008758544921875">
        <ele>476.600006103515625</ele>
        <time>2023-01-11T11:59:20.000Z</time>
      </trkpt>
      <trkpt lat="-49.23609140329062938690185546875" lon="-72.95348145067691802978515625">
        <ele>476.79998779296875</ele>
        <time>2023-01-11T11:59:21.000Z</time>
      </trkpt>
      <trkpt lat="-49.23614270053803920745849609375" lon="-72.95351556502282619476318359375">
        <ele>477.20001220703125</ele>
        <time>2023-01-11T11:59:27.000Z</time>
      </trkpt>
      <trkpt lat="-49.23615175299346446990966796875" lon="-72.95353635214269161224365234375">
        <ele>477.399993896484375</ele>
        <time>2023-01-11T11:59:29.000Z</time>
      </trkpt>
      <trkpt lat="-49.2361868731677532196044921875" lon="-72.95365084894001483917236328125">
        <ele>477.20001220703125</ele>
        <time>2023-01-11T11:59:37.000Z</time>
      </trkpt>
      <trkpt lat="-49.2362150363624095916748046875" lon="-72.95373248867690563201904296875">
        <ele>477.399993896484375</ele>
        <time>2023-01-11T11:59:43.000Z</time>
      </trkpt>
      <trkpt lat="-49.23622719012200832366943359375" lon="-72.95376174151897430419921875">
        <ele>477.399993896484375</ele>
        <time>2023-01-11T11:59:45.000Z</time>
      </trkpt>
      <trkpt lat="-49.23623993061482906341552734375" lon="-72.95380759052932262420654296875">
        <ele>477</ele>
        <time>2023-01-11T11:59:49.000Z</time>
      </trkpt>
      <trkpt lat="-49.23625635914504528045654296875" lon="-72.95383122749626636505126953125">
        <ele>476.79998779296875</ele>
        <time>2023-01-11T11:59:51.000Z</time>
      </trkpt>
      <trkpt lat="-49.2362636514008045196533203125" lon="-72.9538430459797382354736328125">
        <ele>476.79998779296875</ele>
        <time>2023-01-11T11:59:52.000Z</time>
      </trkpt>
      <trkpt lat="-49.23631067387759685516357421875" lon="-72.95392041094601154327392578125">
        <ele>476.79998779296875</ele>
        <time>2023-01-11T11:59:58.000Z</time>
      </trkpt>
      <trkpt lat="-49.23634705133736133575439453125" lon="-72.95401998795568943023681640625">
        <ele>476.600006103515625</ele>
        <time>2023-01-11T12:00:05.000Z</time>
      </trkpt>
      <trkpt lat="-49.23638007603585720062255859375" lon="-72.95411554165184497833251953125">
        <ele>475.79998779296875</ele>
        <time>2023-01-11T12:00:11.000Z</time>
      </trkpt>
      <trkpt lat="-49.23638694919645786285400390625" lon="-72.954130209982395172119140625">
        <ele>475.79998779296875</ele>
        <time>2023-01-11T12:00:12.000Z</time>
      </trkpt>
      <trkpt lat="-49.23640354536473751068115234375" lon="-72.9541689343750476837158203125">
        <ele>475.600006103515625</ele>
        <time>2023-01-11T12:00:14.000Z</time>
      </trkpt>
      <trkpt lat="-49.23640631139278411865234375" lon="-72.954235486686229705810546875">
        <ele>475.399993896484375</ele>
        <time>2023-01-11T12:00:19.000Z</time>
      </trkpt>
      <trkpt lat="-49.23640371300280094146728515625" lon="-72.95432609505951404571533203125">
        <ele>476.20001220703125</ele>
        <time>2023-01-11T12:00:26.000Z</time>
      </trkpt>
      <trkpt lat="-49.23641343601047992706298828125" lon="-72.95440287329256534576416015625">
        <ele>476.20001220703125</ele>
        <time>2023-01-11T12:00:32.000Z</time>
      </trkpt>
      <trkpt lat="-49.23643070273101329803466796875" lon="-72.95442583970725536346435546875">
        <ele>475.79998779296875</ele>
        <time>2023-01-11T12:00:34.000Z</time>
      </trkpt>
      <trkpt lat="-49.23643422313034534454345703125" lon="-72.95444277115166187286376953125">
        <ele>475.600006103515625</ele>
        <time>2023-01-11T12:00:35.000Z</time>
      </trkpt>
      <trkpt lat="-49.23644679598510265350341796875" lon="-72.95447026379406452178955078125">
        <ele>475.20001220703125</ele>
        <time>2023-01-11T12:00:37.000Z</time>
      </trkpt>
      <trkpt lat="-49.2364644818007946014404296875" lon="-72.954504378139972686767578125">
        <ele>475</ele>
        <time>2023-01-11T12:00:40.000Z</time>
      </trkpt>
      <trkpt lat="-49.23653773963451385498046875" lon="-72.9545920528471469879150390625">
        <ele>474.79998779296875</ele>
        <time>2023-01-11T12:00:49.000Z</time>
      </trkpt>
      <trkpt lat="-49.2365456186234951019287109375" lon="-72.95460722409188747406005859375">
        <ele>474.600006103515625</ele>
        <time>2023-01-11T12:00:50.000Z</time>
      </trkpt>
      <trkpt lat="-49.23655190505087375640869140625" lon="-72.95462767593562602996826171875">
        <ele>474.600006103515625</ele>
        <time>2023-01-11T12:00:51.000Z</time>
      </trkpt>
      <trkpt lat="-49.2365791462361812591552734375" lon="-72.954698167741298675537109375">
        <ele>475.20001220703125</ele>
        <time>2023-01-11T12:00:55.000Z</time>
      </trkpt>
      <trkpt lat="-49.2366096563637256622314453125" lon="-72.95473580248653888702392578125">
        <ele>475.399993896484375</ele>
        <time>2023-01-11T12:00:58.000Z</time>
      </trkpt>
      <trkpt lat="-49.236632287502288818359375" lon="-72.9548124969005584716796875">
        <ele>475.600006103515625</ele>
        <time>2023-01-11T12:01:02.000Z</time>
      </trkpt>
      <trkpt lat="-49.23665131442248821258544921875" lon="-72.954870499670505523681640625">
        <ele>475.20001220703125</ele>
        <time>2023-01-11T12:01:05.000Z</time>
      </trkpt>
      <trkpt lat="-49.2366616241633892059326171875" lon="-72.9548854194581508636474609375">
        <ele>475.20001220703125</ele>
        <time>2023-01-11T12:01:06.000Z</time>
      </trkpt>
      <trkpt lat="-49.2366733588278293609619140625" lon="-72.95489857904613018035888671875">
        <ele>475</ele>
        <time>2023-01-11T12:01:07.000Z</time>
      </trkpt>
      <trkpt lat="-49.23669875599443912506103515625" lon="-72.9549333639442920684814453125">
        <ele>475.20001220703125</ele>
        <time>2023-01-11T12:01:11.000Z</time>
      </trkpt>
      <trkpt lat="-49.2367637157440185546875" lon="-72.9549548216164112091064453125">
        <ele>475.600006103515625</ele>
        <time>2023-01-11T12:01:17.000Z</time>
      </trkpt>
      <trkpt lat="-49.236798584461212158203125" lon="-72.95496881939470767974853515625">
        <ele>475.79998779296875</ele>
        <time>2023-01-11T12:01:20.000Z</time>
      </trkpt>
      <trkpt lat="-49.23686387948691844940185546875" lon="-72.955002598464488983154296875">
        <ele>476.20001220703125</ele>
        <time>2023-01-11T12:01:26.000Z</time>
      </trkpt>
      <trkpt lat="-49.23690545372664928436279296875" lon="-72.9550262354314327239990234375">
        <ele>476.399993896484375</ele>
        <time>2023-01-11T12:01:30.000Z</time>
      </trkpt>
      <trkpt lat="-49.23696077428758144378662109375" lon="-72.955034784972667694091796875">
        <ele>476.399993896484375</ele>
        <time>2023-01-11T12:01:35.000Z</time>
      </trkpt>
      <trkpt lat="-49.2369734309613704681396484375" lon="-72.95503755100071430206298828125">
        <ele>476.399993896484375</ele>
        <time>2023-01-11T12:01:36.000Z</time>
      </trkpt>
      <trkpt lat="-49.23698139376938343048095703125" lon="-72.95503520406782627105712890625">
        <ele>476.399993896484375</ele>
        <time>2023-01-11T12:01:37.000Z</time>
      </trkpt>
      <trkpt lat="-49.2369975708425045013427734375" lon="-72.95503067784011363983154296875">
        <ele>476.399993896484375</ele>
        <time>2023-01-11T12:01:39.000Z</time>
      </trkpt>
      <trkpt lat="-49.23700704239308834075927734375" lon="-72.95502749271690845489501953125">
        <ele>476.399993896484375</ele>
        <time>2023-01-11T12:01:40.000Z</time>
      </trkpt>
      <trkpt lat="-49.23703855834901332855224609375" lon="-72.95502397231757640838623046875">
        <ele>476.399993896484375</ele>
        <time>2023-01-11T12:01:43.000Z</time>
      </trkpt>
      <trkpt lat="-49.23705817200243473052978515625" lon="-72.9550155065953731536865234375">
        <ele>476.399993896484375</ele>
        <time>2023-01-11T12:01:45.000Z</time>
      </trkpt>
      <trkpt lat="-49.23709890805184841156005859375" lon="-72.9549974016845226287841796875">
        <ele>476.399993896484375</ele>
        <time>2023-01-11T12:01:49.000Z</time>
      </trkpt>
      <trkpt lat="-49.23711441457271575927734375" lon="-72.954989187419414520263671875">
        <ele>476.399993896484375</ele>
        <time>2023-01-11T12:01:51.000Z</time>
      </trkpt>
      <trkpt lat="-49.23714048229157924652099609375" lon="-72.9549621976912021636962890625">
        <ele>476.399993896484375</ele>
        <time>2023-01-11T12:01:54.000Z</time>
      </trkpt>
      <trkpt lat="-49.23717149533331394195556640625" lon="-72.95494535006582736968994140625">
        <ele>476.399993896484375</ele>
        <time>2023-01-11T12:01:58.000Z</time>
      </trkpt>
      <trkpt lat="-49.23717753030359745025634765625" lon="-72.954942248761653900146484375">
        <ele>476.399993896484375</ele>
        <time>2023-01-11T12:01:59.000Z</time>
      </trkpt>
      <trkpt lat="-49.237217009067535400390625" lon="-72.9549541510641574859619140625">
        <ele>476.399993896484375</ele>
        <time>2023-01-11T12:02:04.000Z</time>
      </trkpt>
      <trkpt lat="-49.2372500337660312652587890625" lon="-72.95500284992158412933349609375">
        <ele>476.399993896484375</ele>
        <time>2023-01-11T12:02:08.000Z</time>
      </trkpt>
      <trkpt lat="-49.23725397326052188873291015625" lon="-72.9550372995436191558837890625">
        <ele>476.399993896484375</ele>
        <time>2023-01-11T12:02:10.000Z</time>
      </trkpt>
      <trkpt lat="-49.2372973076999187469482421875" lon="-72.95515422709286212921142578125">
        <ele>476.399993896484375</ele>
        <time>2023-01-11T12:02:18.000Z</time>
      </trkpt>
      <trkpt lat="-49.23731549642980098724365234375" lon="-72.9551864974200725555419921875">
        <ele>476.399993896484375</ele>
        <time>2023-01-11T12:02:21.000Z</time>
      </trkpt>
      <trkpt lat="-49.2373395524919033050537109375" lon="-72.9552336037158966064453125">
        <ele>476.399993896484375</ele>
        <time>2023-01-11T12:02:25.000Z</time>
      </trkpt>
      <trkpt lat="-49.23735774122178554534912109375" lon="-72.95526109635829925537109375">
        <ele>479.20001220703125</ele>
        <time>2023-01-11T12:02:28.000Z</time>
      </trkpt>
      <trkpt lat="-49.237364865839481353759765625" lon="-72.9552649520337581634521484375">
        <ele>479.20001220703125</ele>
        <time>2023-01-11T12:02:29.000Z</time>
      </trkpt>
      <trkpt lat="-49.2373980581760406494140625" lon="-72.95529470779001712799072265625">
        <ele>479.399993896484375</ele>
        <time>2023-01-11T12:02:33.000Z</time>
      </trkpt>
      <trkpt lat="-49.23751850612461566925048828125" lon="-72.95533007942140102386474609375">
        <ele>480</ele>
        <time>2023-01-11T12:02:46.000Z</time>
      </trkpt>
      <trkpt lat="-49.2375457473099231719970703125" lon="-72.95532421208918094635009765625">
        <ele>480.20001220703125</ele>
        <time>2023-01-11T12:02:49.000Z</time>
      </trkpt>
      <trkpt lat="-49.2376292310655117034912109375" lon="-72.9553591646254062652587890625">
        <ele>481.20001220703125</ele>
        <time>2023-01-11T12:02:58.000Z</time>
      </trkpt>
      <trkpt lat="-49.23763744533061981201171875" lon="-72.95536008663475513458251953125">
        <ele>481.399993896484375</ele>
        <time>2023-01-11T12:02:59.000Z</time>
      </trkpt>
      <trkpt lat="-49.2377110384404659271240234375" lon="-72.95538523234426975250244140625">
        <ele>482</ele>
        <time>2023-01-11T12:03:06.000Z</time>
      </trkpt>
      <trkpt lat="-49.23772855661809444427490234375" lon="-72.95539160259068012237548828125">
        <ele>481.79998779296875</ele>
        <time>2023-01-11T12:03:08.000Z</time>
      </trkpt>
      <trkpt lat="-49.237812794744968414306640625" lon="-72.95543418265879154205322265625">
        <ele>481.600006103515625</ele>
        <time>2023-01-11T12:03:17.000Z</time>
      </trkpt>
      <trkpt lat="-49.23786099068820476531982421875" lon="-72.9554744996130466461181640625">
        <ele>481.399993896484375</ele>
        <time>2023-01-11T12:03:22.000Z</time>
      </trkpt>
      <trkpt lat="-49.2378887347877025604248046875" lon="-72.95549369417130947113037109375">
        <ele>481.20001220703125</ele>
        <time>2023-01-11T12:03:25.000Z</time>
      </trkpt>
      <trkpt lat="-49.23792234621942043304443359375" lon="-72.95553878881037235260009765625">
        <ele>481</ele>
        <time>2023-01-11T12:03:29.000Z</time>
      </trkpt>
      <trkpt lat="-49.23794548027217388153076171875" lon="-72.95560316182672977447509765625">
        <ele>480.600006103515625</ele>
        <time>2023-01-11T12:03:33.000Z</time>
      </trkpt>
      <trkpt lat="-49.23797498457133769989013671875" lon="-72.9556434787809848785400390625">
        <ele>480.399993896484375</ele>
        <time>2023-01-11T12:03:37.000Z</time>
      </trkpt>
      <trkpt lat="-49.237998537719249725341796875" lon="-72.95569695532321929931640625">
        <ele>480.20001220703125</ele>
        <time>2023-01-11T12:03:41.000Z</time>
      </trkpt>
      <trkpt lat="-49.23799845390021800994873046875" lon="-72.95572754926979541778564453125">
        <ele>480.20001220703125</ele>
        <time>2023-01-11T12:03:43.000Z</time>
      </trkpt>
      <trkpt lat="-49.238024018704891204833984375" lon="-72.9558523558080196380615234375">
        <ele>479.20001220703125</ele>
        <time>2023-01-11T12:03:52.000Z</time>
      </trkpt>
      <trkpt lat="-49.23804287798702716827392578125" lon="-72.95590189285576343536376953125">
        <ele>478.600006103515625</ele>
        <time>2023-01-11T12:03:59.000Z</time>
      </trkpt>
      <trkpt lat="-49.238051511347293853759765625" lon="-72.95592905022203922271728515625">
        <ele>478.399993896484375</ele>
        <time>2023-01-11T12:04:01.000Z</time>
      </trkpt>
      <trkpt lat="-49.23805813305079936981201171875" lon="-72.955965511500835418701171875">
        <ele>478.399993896484375</ele>
        <time>2023-01-11T12:04:03.000Z</time>
      </trkpt>
      <trkpt lat="-49.2380726337432861328125" lon="-72.95601270161569118499755859375">
        <ele>478.20001220703125</ele>
        <time>2023-01-11T12:04:06.000Z</time>
      </trkpt>
      <trkpt lat="-49.23810155130922794342041015625" lon="-72.956108339130878448486328125">
        <ele>478.20001220703125</ele>
        <time>2023-01-11T12:04:12.000Z</time>
      </trkpt>
      <trkpt lat="-49.23811261542141437530517578125" lon="-72.95612736605107784271240234375">
        <ele>478.399993896484375</ele>
        <time>2023-01-11T12:04:14.000Z</time>
      </trkpt>
      <trkpt lat="-49.2381616495549678802490234375" lon="-72.95615636743605136871337890625">
        <ele>479.20001220703125</ele>
        <time>2023-01-11T12:04:21.000Z</time>
      </trkpt>
      <trkpt lat="-49.238165505230426788330078125" lon="-72.95615854673087596893310546875">
        <ele>479.20001220703125</ele>
        <time>2023-01-11T12:04:22.000Z</time>
      </trkpt>
      <trkpt lat="-49.23817799426615238189697265625" lon="-72.9561725445091724395751953125">
        <ele>479.399993896484375</ele>
        <time>2023-01-11T12:04:24.000Z</time>
      </trkpt>
      <trkpt lat="-49.238209091126918792724609375" lon="-72.95620582066476345062255859375">
        <ele>479.79998779296875</ele>
        <time>2023-01-11T12:04:28.000Z</time>
      </trkpt>
      <trkpt lat="-49.23822493292391300201416015625" lon="-72.9562137834727764129638671875">
        <ele>480.20001220703125</ele>
        <time>2023-01-11T12:04:30.000Z</time>
      </trkpt>
      <trkpt lat="-49.238243959844112396240234375" lon="-72.95627723447978496551513671875">
        <ele>480.20001220703125</ele>
        <time>2023-01-11T12:04:34.000Z</time>
      </trkpt>
      <trkpt lat="-49.23824337311089038848876953125" lon="-72.95630841515958309173583984375">
        <ele>480.20001220703125</ele>
        <time>2023-01-11T12:04:36.000Z</time>
      </trkpt>
      <trkpt lat="-49.238247983157634735107421875" lon="-72.9563234187662601470947265625">
        <ele>480.20001220703125</ele>
        <time>2023-01-11T12:04:37.000Z</time>
      </trkpt>
      <trkpt lat="-49.23825829289853572845458984375" lon="-72.95636021532118320465087890625">
        <ele>480.20001220703125</ele>
        <time>2023-01-11T12:04:40.000Z</time>
      </trkpt>
      <trkpt lat="-49.2382751405239105224609375" lon="-72.95639097690582275390625">
        <ele>480.20001220703125</ele>
        <time>2023-01-11T12:04:44.000Z</time>
      </trkpt>
      <trkpt lat="-49.2383028008043766021728515625" lon="-72.956405393779277801513671875">
        <ele>480.20001220703125</ele>
        <time>2023-01-11T12:04:49.000Z</time>
      </trkpt>
      <trkpt lat="-49.23831495456397533416748046875" lon="-72.95641067437827587127685546875">
        <ele>480.20001220703125</ele>
        <time>2023-01-11T12:04:51.000Z</time>
      </trkpt>
      <trkpt lat="-49.2383690178394317626953125" lon="-72.95642173849046230316162109375">
        <ele>480.20001220703125</ele>
        <time>2023-01-11T12:04:58.000Z</time>
      </trkpt>
      <trkpt lat="-49.23841805197298526763916015625" lon="-72.95645928941667079925537109375">
        <ele>480.20001220703125</ele>
        <time>2023-01-11T12:05:06.000Z</time>
      </trkpt>
      <trkpt lat="-49.23844085074961185455322265625" lon="-72.9564893804490566253662109375">
        <ele>480.20001220703125</ele>
        <time>2023-01-11T12:05:09.000Z</time>
      </trkpt>
      <trkpt lat="-49.238459877669811248779296875" lon="-72.95663313008844852447509765625">
        <ele>480.20001220703125</ele>
        <time>2023-01-11T12:05:18.000Z</time>
      </trkpt>
      <trkpt lat="-49.23848770558834075927734375" lon="-72.95671619474887847900390625">
        <ele>480.20001220703125</ele>
        <time>2023-01-11T12:05:24.000Z</time>
      </trkpt>
      <trkpt lat="-49.238486699759960174560546875" lon="-72.9567892849445343017578125">
        <ele>480.20001220703125</ele>
        <time>2023-01-11T12:05:29.000Z</time>
      </trkpt>
      <trkpt lat="-49.2384754680097103118896484375" lon="-72.95681476593017578125">
        <ele>486.20001220703125</ele>
        <time>2023-01-11T12:05:31.000Z</time>
      </trkpt>
      <trkpt lat="-49.23847102560102939605712890625" lon="-72.95683496631681919097900390625">
        <ele>486.20001220703125</ele>
        <time>2023-01-11T12:05:32.000Z</time>
      </trkpt>
      <trkpt lat="-49.23847940750420093536376953125" lon="-72.95699422247707843780517578125">
        <ele>485.79998779296875</ele>
        <time>2023-01-11T12:05:41.000Z</time>
      </trkpt>
      <trkpt lat="-49.238497428596019744873046875" lon="-72.9570452682673931121826171875">
        <ele>485.79998779296875</ele>
        <time>2023-01-11T12:05:45.000Z</time>
      </trkpt>
      <trkpt lat="-49.238505475223064422607421875" lon="-72.957090698182582855224609375">
        <ele>485.600006103515625</ele>
        <time>2023-01-11T12:05:48.000Z</time>
      </trkpt>
      <trkpt lat="-49.23854076303541660308837890625" lon="-72.95718097127974033355712890625">
        <ele>486</ele>
        <time>2023-01-11T12:05:56.000Z</time>
      </trkpt>
      <trkpt lat="-49.23854805529117584228515625" lon="-72.9572078771889209747314453125">
        <ele>486</ele>
        <time>2023-01-11T12:05:59.000Z</time>
      </trkpt>
      <trkpt lat="-49.23854310996830463409423828125" lon="-72.957251965999603271484375">
        <ele>486.20001220703125</ele>
        <time>2023-01-11T12:06:02.000Z</time>
      </trkpt>
      <trkpt lat="-49.23855341970920562744140625" lon="-72.95731340534985065460205078125">
        <ele>486.600006103515625</ele>
        <time>2023-01-11T12:06:06.000Z</time>
      </trkpt>
      <trkpt lat="-49.2385609634220600128173828125" lon="-72.95739906840026378631591796875">
        <ele>486.600006103515625</ele>
        <time>2023-01-11T12:06:10.000Z</time>
      </trkpt>
      <trkpt lat="-49.23855819739401340484619140625" lon="-72.9574598371982574462890625">
        <ele>486.79998779296875</ele>
        <time>2023-01-11T12:06:16.000Z</time>
      </trkpt>
      <trkpt lat="-49.23856414854526519775390625" lon="-72.957558073103427886962890625">
        <ele>487.399993896484375</ele>
        <time>2023-01-11T12:06:22.000Z</time>
      </trkpt>
      <trkpt lat="-49.23857797868549823760986328125" lon="-72.9575900919735431671142578125">
        <ele>487.600006103515625</ele>
        <time>2023-01-11T12:06:24.000Z</time>
      </trkpt>
      <trkpt lat="-49.2386055551469326019287109375" lon="-72.9577253758907318115234375">
        <ele>488</ele>
        <time>2023-01-11T12:06:32.000Z</time>
      </trkpt>
      <trkpt lat="-49.2386265099048614501953125" lon="-72.9578076861798763275146484375">
        <ele>488</ele>
        <time>2023-01-11T12:06:39.000Z</time>
      </trkpt>
      <trkpt lat="-49.238671101629734039306640625" lon="-72.957953698933124542236328125">
        <ele>487.20001220703125</ele>
        <time>2023-01-11T12:06:48.000Z</time>
      </trkpt>
      <trkpt lat="-49.23873740248382091522216796875" lon="-72.95806257985532283782958984375">
        <ele>486.600006103515625</ele>
        <time>2023-01-11T12:06:57.000Z</time>
      </trkpt>
      <trkpt lat="-49.238752238452434539794921875" lon="-72.95807314105331897735595703125">
        <ele>486.600006103515625</ele>
        <time>2023-01-11T12:06:59.000Z</time>
      </trkpt>
      <trkpt lat="-49.2388472892343997955322265625" lon="-72.95811706222593784332275390625">
        <ele>486.600006103515625</ele>
        <time>2023-01-11T12:07:09.000Z</time>
      </trkpt>
      <trkpt lat="-49.2388553358614444732666015625" lon="-72.9581228457391262054443359375">
        <ele>486.399993896484375</ele>
        <time>2023-01-11T12:07:10.000Z</time>
      </trkpt>
      <trkpt lat="-49.23886581324040889739990234375" lon="-72.95813106000423431396484375">
        <ele>486.399993896484375</ele>
        <time>2023-01-11T12:07:11.000Z</time>
      </trkpt>
      <trkpt lat="-49.238907806575298309326171875" lon="-72.95817908830940723419189453125">
        <ele>486.20001220703125</ele>
        <time>2023-01-11T12:07:16.000Z</time>
      </trkpt>
      <trkpt lat="-49.23892130143940448760986328125" lon="-72.95819811522960662841796875">
        <ele>486</ele>
        <time>2023-01-11T12:07:18.000Z</time>
      </trkpt>
      <trkpt lat="-49.23895566724240779876708984375" lon="-72.95826642774045467376708984375">
        <ele>485.79998779296875</ele>
        <time>2023-01-11T12:07:24.000Z</time>
      </trkpt>
      <trkpt lat="-49.238992631435394287109375" lon="-72.95834152959287166595458984375">
        <ele>485.399993896484375</ele>
        <time>2023-01-11T12:07:30.000Z</time>
      </trkpt>
      <trkpt lat="-49.2389988340437412261962890625" lon="-72.95838159509003162384033203125">
        <ele>485.20001220703125</ele>
        <time>2023-01-11T12:07:32.000Z</time>
      </trkpt>
      <trkpt lat="-49.238999672234058380126953125" lon="-72.95839986763894557952880859375">
        <ele>485.20001220703125</ele>
        <time>2023-01-11T12:07:33.000Z</time>
      </trkpt>
      <trkpt lat="-49.23904099501669406890869140625" lon="-72.9584681801497936248779296875">
        <ele>484.600006103515625</ele>
        <time>2023-01-11T12:07:38.000Z</time>
      </trkpt>
      <trkpt lat="-49.23906614072620868682861328125" lon="-72.958492152392864227294921875">
        <ele>484.20001220703125</ele>
        <time>2023-01-11T12:07:40.000Z</time>
      </trkpt>
      <trkpt lat="-49.239084161818027496337890625" lon="-72.9585171304643154144287109375">
        <ele>483.79998779296875</ele>
        <time>2023-01-11T12:07:42.000Z</time>
      </trkpt>
      <trkpt lat="-49.23910805024206638336181640625" lon="-72.9585568606853485107421875">
        <ele>483.20001220703125</ele>
        <time>2023-01-11T12:07:47.000Z</time>
      </trkpt>
      <trkpt lat="-49.2391108162701129913330078125" lon="-72.95856549404561519622802734375">
        <ele>483</ele>
        <time>2023-01-11T12:07:48.000Z</time>
      </trkpt>
      <trkpt lat="-49.239153563976287841796875" lon="-72.95861612074077129364013671875">
        <ele>482.79998779296875</ele>
        <time>2023-01-11T12:07:53.000Z</time>
      </trkpt>
      <trkpt lat="-49.2391671426594257354736328125" lon="-72.9586301185190677642822265625">
        <ele>482.79998779296875</ele>
        <time>2023-01-11T12:07:55.000Z</time>
      </trkpt>
      <trkpt lat="-49.2392087168991565704345703125" lon="-72.95868786983191967010498046875">
        <ele>483.600006103515625</ele>
        <time>2023-01-11T12:08:01.000Z</time>
      </trkpt>
      <trkpt lat="-49.23923067748546600341796875" lon="-72.95874050818383693695068359375">
        <ele>484.20001220703125</ele>
        <time>2023-01-11T12:08:07.000Z</time>
      </trkpt>
      <trkpt lat="-49.23926345072686672210693359375" lon="-72.95879297889769077301025390625">
        <ele>484.600006103515625</ele>
        <time>2023-01-11T12:08:11.000Z</time>
      </trkpt>
      <trkpt lat="-49.239299409091472625732421875" lon="-72.958829104900360107421875">
        <ele>484.399993896484375</ele>
        <time>2023-01-11T12:08:15.000Z</time>
      </trkpt>
      <trkpt lat="-49.23933905549347400665283203125" lon="-72.95891317538917064666748046875">
        <ele>483.600006103515625</ele>
        <time>2023-01-11T12:08:22.000Z</time>
      </trkpt>
      <trkpt lat="-49.23934022895991802215576171875" lon="-72.95892608352005481719970703125">
        <ele>483.600006103515625</ele>
        <time>2023-01-11T12:08:23.000Z</time>
      </trkpt>
      <trkpt lat="-49.239361099898815155029296875" lon="-72.95899196527898311614990234375">
        <ele>483.20001220703125</ele>
        <time>2023-01-11T12:08:28.000Z</time>
      </trkpt>
      <trkpt lat="-49.2393683083355426788330078125" lon="-72.9590173624455928802490234375">
        <ele>483</ele>
        <time>2023-01-11T12:08:30.000Z</time>
      </trkpt>
      <trkpt lat="-49.23939236439764499664306640625" lon="-72.9591836594045162200927734375">
        <ele>482.399993896484375</ele>
        <time>2023-01-11T12:08:39.000Z</time>
      </trkpt>
      <trkpt lat="-49.23939974047243595123291015625" lon="-72.959202937781810760498046875">
        <ele>482</ele>
        <time>2023-01-11T12:08:41.000Z</time>
      </trkpt>
      <trkpt lat="-49.23939571715891361236572265625" lon="-72.95924794860184192657470703125">
        <ele>481.79998779296875</ele>
        <time>2023-01-11T12:08:45.000Z</time>
      </trkpt>
      <trkpt lat="-49.23939756117761135101318359375" lon="-72.95923210680484771728515625">
        <ele>481.79998779296875</ele>
        <time>2023-01-11T12:08:50.000Z</time>
      </trkpt>
      <trkpt lat="-49.23939135856926441192626953125" lon="-72.9592473618686199188232421875">
        <ele>481.399993896484375</ele>
        <time>2023-01-11T12:08:58.000Z</time>
      </trkpt>
      <trkpt lat="-49.23941281624138355255126953125" lon="-72.9593177698552608489990234375">
        <ele>481.600006103515625</ele>
        <time>2023-01-11T12:09:05.000Z</time>
      </trkpt>
      <trkpt lat="-49.23944114707410335540771484375" lon="-72.9594213701784610748291015625">
        <ele>482.399993896484375</ele>
        <time>2023-01-11T12:09:12.000Z</time>
      </trkpt>
      <trkpt lat="-49.2394303344190120697021484375" lon="-72.95951248146593570709228515625">
        <ele>482.600006103515625</ele>
        <time>2023-01-11T12:09:17.000Z</time>
      </trkpt>
      <trkpt lat="-49.23944349400699138641357421875" lon="-72.95954416505992412567138671875">
        <ele>482.79998779296875</ele>
        <time>2023-01-11T12:09:19.000Z</time>
      </trkpt>
      <trkpt lat="-49.23947182483971118927001953125" lon="-72.95961038209497928619384765625">
        <ele>483.20001220703125</ele>
        <time>2023-01-11T12:09:23.000Z</time>
      </trkpt>
      <trkpt lat="-49.239481799304485321044921875" lon="-72.95962379314005374908447265625">
        <ele>483.20001220703125</ele>
        <time>2023-01-11T12:09:24.000Z</time>
      </trkpt>
      <trkpt lat="-49.23954424448311328887939453125" lon="-72.95972471125423908233642578125">
        <ele>483.79998779296875</ele>
        <time>2023-01-11T12:09:31.000Z</time>
      </trkpt>
      <trkpt lat="-49.23960752785205841064453125" lon="-72.95979796908795833587646484375">
        <ele>484</ele>
        <time>2023-01-11T12:09:36.000Z</time>
      </trkpt>
      <trkpt lat="-49.239629991352558135986328125" lon="-72.95984205789864063262939453125">
        <ele>484.20001220703125</ele>
        <time>2023-01-11T12:09:38.000Z</time>
      </trkpt>
      <trkpt lat="-49.2396462522447109222412109375" lon="-72.95986904762685298919677734375">
        <ele>484.20001220703125</ele>
        <time>2023-01-11T12:09:39.000Z</time>
      </trkpt>
      <trkpt lat="-49.2396603338420391082763671875" lon="-72.9599051736295223236083984375">
        <ele>484.20001220703125</ele>
        <time>2023-01-11T12:09:41.000Z</time>
      </trkpt>
      <trkpt lat="-49.23968304879963397979736328125" lon="-72.95993995852768421173095703125">
        <ele>484.20001220703125</ele>
        <time>2023-01-11T12:09:43.000Z</time>
      </trkpt>
      <trkpt lat="-49.23973225057125091552734375" lon="-72.9599876515567302703857421875">
        <ele>484.20001220703125</ele>
        <time>2023-01-11T12:09:47.000Z</time>
      </trkpt>
      <trkpt lat="-49.239780195057392120361328125" lon="-72.96001221053302288055419921875">
        <ele>484.600006103515625</ele>
        <time>2023-01-11T12:09:51.000Z</time>
      </trkpt>
      <trkpt lat="-49.23980223946273326873779296875" lon="-72.96004439704120159149169921875">
        <ele>484.600006103515625</ele>
        <time>2023-01-11T12:09:53.000Z</time>
      </trkpt>
      <trkpt lat="-49.23983543179929256439208984375" lon="-72.9601234383881092071533203125">
        <ele>484</ele>
        <time>2023-01-11T12:09:57.000Z</time>
      </trkpt>
      <trkpt lat="-49.23984297551214694976806640625" lon="-72.9602236859500408172607421875">
        <ele>483.79998779296875</ele>
        <time>2023-01-11T12:10:02.000Z</time>
      </trkpt>
      <trkpt lat="-49.23984180204570293426513671875" lon="-72.960240952670574188232421875">
        <ele>483.600006103515625</ele>
        <time>2023-01-11T12:10:03.000Z</time>
      </trkpt>
      <trkpt lat="-49.2398361861705780029296875" lon="-72.960283197462558746337890625">
        <ele>483.399993896484375</ele>
        <time>2023-01-11T12:10:08.000Z</time>
      </trkpt>
      <trkpt lat="-49.23981799744069576263427734375" lon="-72.9602733068168163299560546875">
        <ele>483.20001220703125</ele>
        <time>2023-01-11T12:10:15.000Z</time>
      </trkpt>
      <trkpt lat="-49.239807687699794769287109375" lon="-72.96029635705053806304931640625">
        <ele>483.399993896484375</ele>
        <time>2023-01-11T12:10:22.000Z</time>
      </trkpt>
      <trkpt lat="-49.2398112080991268157958984375" lon="-72.96029870398342609405517578125">
        <ele>483.20001220703125</ele>
        <time>2023-01-11T12:10:26.000Z</time>
      </trkpt>
      <trkpt lat="-49.2398112080991268157958984375" lon="-72.96029870398342609405517578125">
        <ele>483.20001220703125</ele>
        <time>2023-01-11T12:10:37.000Z</time>
      </trkpt>
      <trkpt lat="-49.23981112428009510040283203125" lon="-72.960328795015811920166015625">
        <ele>483.20001220703125</ele>
        <time>2023-01-11T12:10:48.000Z</time>
      </trkpt>
      <trkpt lat="-49.23981263302266597747802734375" lon="-72.96033005230128765106201171875">
        <ele>483.20001220703125</ele>
        <time>2023-01-11T12:10:49.000Z</time>
      </trkpt>
      <trkpt lat="-49.239813722670078277587890625" lon="-72.96033340506255626678466796875">
        <ele>483.20001220703125</ele>
        <time>2023-01-11T12:10:50.000Z</time>
      </trkpt>
      <trkpt lat="-49.23980441875755786895751953125" lon="-72.9603497497737407684326171875">
        <ele>483</ele>
        <time>2023-01-11T12:11:04.000Z</time>
      </trkpt>
      <trkpt lat="-49.2398038320243358612060546875" lon="-72.9603517614305019378662109375">
        <ele>483.20001220703125</ele>
        <time>2023-01-11T12:11:08.000Z</time>
      </trkpt>
      <trkpt lat="-49.2398028261959552764892578125" lon="-72.96035134233534336090087890625">
        <ele>483</ele>
        <time>2023-01-11T12:11:18.000Z</time>
      </trkpt>
      <trkpt lat="-49.23980307765305042266845703125" lon="-72.9603514261543750762939453125">
        <ele>483</ele>
        <time>2023-01-11T12:11:30.000Z</time>
      </trkpt>
      <trkpt lat="-49.2398028261959552764892578125" lon="-72.960352264344692230224609375">
        <ele>483</ele>
        <time>2023-01-11T12:11:33.000Z</time>
      </trkpt>
      <trkpt lat="-49.23980291001498699188232421875" lon="-72.960352264344692230224609375">
        <ele>483</ele>
        <time>2023-01-11T12:11:34.000Z</time>
      </trkpt>
      <trkpt lat="-49.23980324529111385345458984375" lon="-72.960352264344692230224609375">
        <ele>483</ele>
        <time>2023-01-11T12:11:35.000Z</time>
      </trkpt>
      <trkpt lat="-49.239803664386272430419921875" lon="-72.960352264344692230224609375">
        <ele>482.79998779296875</ele>
        <time>2023-01-11T12:11:37.000Z</time>
      </trkpt>
      <trkpt lat="-49.23980341292917728424072265625" lon="-72.96035586856305599212646484375">
        <ele>482.79998779296875</ele>
        <time>2023-01-11T12:11:46.000Z</time>
      </trkpt>
      <trkpt lat="-49.23980609513819217681884765625" lon="-72.960385791957378387451171875">
        <ele>482.79998779296875</ele>
        <time>2023-01-11T12:12:09.000Z</time>
      </trkpt>
      <trkpt lat="-49.23980601131916046142578125" lon="-72.96039459295570850372314453125">
        <ele>482.79998779296875</ele>
        <time>2023-01-11T12:12:13.000Z</time>
      </trkpt>
      <trkpt lat="-49.23980911262333393096923828125" lon="-72.96039509586989879608154296875">
        <ele>482.79998779296875</ele>
        <time>2023-01-11T12:12:39.000Z</time>
      </trkpt>
      <trkpt lat="-49.23980928026139736175537109375" lon="-72.96039207838475704193115234375">
        <ele>482.79998779296875</ele>
        <time>2023-01-11T12:12:48.000Z</time>
      </trkpt>
      <trkpt lat="-49.23978664912283420562744140625" lon="-72.9604238457977771759033203125">
        <ele>482.79998779296875</ele>
        <time>2023-01-11T12:12:58.000Z</time>
      </trkpt>
      <trkpt lat="-49.23976100049912929534912109375" lon="-72.96048830263316631317138671875">
        <ele>482.79998779296875</ele>
        <time>2023-01-11T12:13:01.000Z</time>
      </trkpt>
      <trkpt lat="-49.2397247068583965301513671875" lon="-72.96053566038608551025390625">
        <ele>482.79998779296875</ele>
        <time>2023-01-11T12:13:04.000Z</time>
      </trkpt>
      <trkpt lat="-49.2396591603755950927734375" lon="-72.96058016829192638397216796875">
        <ele>482.79998779296875</ele>
        <time>2023-01-11T12:13:08.000Z</time>
      </trkpt>
      <trkpt lat="-49.23963728360831737518310546875" lon="-72.96061034314334392547607421875">
        <ele>482.79998779296875</ele>
        <time>2023-01-11T12:13:11.000Z</time>
      </trkpt>
      <trkpt lat="-49.23958783037960529327392578125" lon="-72.9606451280415058135986328125">
        <ele>482.79998779296875</ele>
        <time>2023-01-11T12:13:14.000Z</time>
      </trkpt>
      <trkpt lat="-49.2395201884210109710693359375" lon="-72.96070975251495838165283203125">
        <ele>482.79998779296875</ele>
        <time>2023-01-11T12:13:21.000Z</time>
      </trkpt>
      <trkpt lat="-49.2394916899502277374267578125" lon="-72.9607866145670413970947265625">
        <ele>482.79998779296875</ele>
        <time>2023-01-11T12:13:26.000Z</time>
      </trkpt>
      <trkpt lat="-49.2394839785993099212646484375" lon="-72.9608228243887424468994140625">
        <ele>482.79998779296875</ele>
        <time>2023-01-11T12:13:29.000Z</time>
      </trkpt>
      <trkpt lat="-49.239444248378276824951171875" lon="-72.96092013828456401824951171875">
        <ele>482.79998779296875</ele>
        <time>2023-01-11T12:13:37.000Z</time>
      </trkpt>
      <trkpt lat="-49.23943930305540561676025390625" lon="-72.9609428532421588897705078125">
        <ele>479.20001220703125</ele>
        <time>2023-01-11T12:13:39.000Z</time>
      </trkpt>
      <trkpt lat="-49.23941734246909618377685546875" lon="-72.9610169492661952972412109375">
        <ele>479.20001220703125</ele>
        <time>2023-01-11T12:13:45.000Z</time>
      </trkpt>
      <trkpt lat="-49.23936721868813037872314453125" lon="-72.961061038076877593994140625">
        <ele>479.20001220703125</ele>
        <time>2023-01-11T12:13:52.000Z</time>
      </trkpt>
      <trkpt lat="-49.23934693448245525360107421875" lon="-72.961071431636810302734375">
        <ele>479</ele>
        <time>2023-01-11T12:14:00.000Z</time>
      </trkpt>
      <trkpt lat="-49.23934106715023517608642578125" lon="-72.96107335947453975677490234375">
        <ele>479</ele>
        <time>2023-01-11T12:14:12.000Z</time>
      </trkpt>
      <trkpt lat="-49.239347018301486968994140625" lon="-72.96113974414765834808349609375">
        <ele>478.600006103515625</ele>
        <time>2023-01-11T12:14:16.000Z</time>
      </trkpt>
      <trkpt lat="-49.23929748125374317169189453125" lon="-72.9612137563526630401611328125">
        <ele>478.600006103515625</ele>
        <time>2023-01-11T12:14:21.000Z</time>
      </trkpt>
      <trkpt lat="-49.23924400471150875091552734375" lon="-72.9612623713910579681396484375">
        <ele>478.20001220703125</ele>
        <time>2023-01-11T12:14:27.000Z</time>
      </trkpt>
      <trkpt lat="-49.23924216069281101226806640625" lon="-72.9612694121897220611572265625">
        <ele>478.20001220703125</ele>
        <time>2023-01-11T12:14:28.000Z</time>
      </trkpt>
      <trkpt lat="-49.23924031667411327362060546875" lon="-72.9612855054438114166259765625">
        <ele>478</ele>
        <time>2023-01-11T12:14:35.000Z</time>
      </trkpt>
      <trkpt lat="-49.2392606846988201141357421875" lon="-72.96127988956868648529052734375">
        <ele>478.399993896484375</ele>
        <time>2023-01-11T12:14:44.000Z</time>
      </trkpt>
      <trkpt lat="-49.23925389535725116729736328125" lon="-72.96133822761476039886474609375">
        <ele>478.20001220703125</ele>
        <time>2023-01-11T12:15:16.000Z</time>
      </trkpt>
      <trkpt lat="-49.239244759082794189453125" lon="-72.96139539219439029693603515625">
        <ele>478.20001220703125</ele>
        <time>2023-01-11T12:15:26.000Z</time>
      </trkpt>
      <trkpt lat="-49.23921768553555011749267578125" lon="-72.96139975078403949737548828125">
        <ele>478.399993896484375</ele>
        <time>2023-01-11T12:15:33.000Z</time>
      </trkpt>
      <trkpt lat="-49.23919740132987499237060546875" lon="-72.9613961465656757354736328125">
        <ele>479</ele>
        <time>2023-01-11T12:15:48.000Z</time>
      </trkpt>
      <trkpt lat="-49.2391570843756198883056640625" lon="-72.96149681322276592254638671875">
        <ele>479</ele>
        <time>2023-01-11T12:15:56.000Z</time>
      </trkpt>
      <trkpt lat="-49.2391012609004974365234375" lon="-72.961602509021759033203125">
        <ele>479</ele>
        <time>2023-01-11T12:16:01.000Z</time>
      </trkpt>
      <trkpt lat="-49.23910486511886119842529296875" lon="-72.9616459272801876068115234375">
        <ele>479</ele>
        <time>2023-01-11T12:16:03.000Z</time>
      </trkpt>
      <trkpt lat="-49.2391280829906463623046875" lon="-72.96177207492291927337646484375">
        <ele>479</ele>
        <time>2023-01-11T12:16:09.000Z</time>
      </trkpt>
      <trkpt lat="-49.2391319386661052703857421875" lon="-72.96183125115931034088134765625">
        <ele>479</ele>
        <time>2023-01-11T12:16:12.000Z</time>
      </trkpt>
      <trkpt lat="-49.2391155101358890533447265625" lon="-72.96185798943042755126953125">
        <ele>479</ele>
        <time>2023-01-11T12:16:14.000Z</time>
      </trkpt>
      <trkpt lat="-49.239110648632049560546875" lon="-72.96186695806682109832763671875">
        <ele>479</ele>
        <time>2023-01-11T12:16:15.000Z</time>
      </trkpt>
      <trkpt lat="-49.23908491618931293487548828125" lon="-72.9619255475699901580810546875">
        <ele>479</ele>
        <time>2023-01-11T12:16:18.000Z</time>
      </trkpt>
      <trkpt lat="-49.2390556633472442626953125" lon="-72.96201162971556186676025390625">
        <ele>479</ele>
        <time>2023-01-11T12:16:22.000Z</time>
      </trkpt>
      <trkpt lat="-49.23901341855525970458984375" lon="-72.96213626861572265625">
        <ele>479</ele>
        <time>2023-01-11T12:16:28.000Z</time>
      </trkpt>
      <trkpt lat="-49.2390052042901515960693359375" lon="-72.9621458239853382110595703125">
        <ele>479</ele>
        <time>2023-01-11T12:16:29.000Z</time>
      </trkpt>
      <trkpt lat="-49.23900193534791469573974609375" lon="-72.96216267161071300506591796875">
        <ele>479</ele>
        <time>2023-01-11T12:16:30.000Z</time>
      </trkpt>
      <trkpt lat="-49.23897963948547840118408203125" lon="-72.96225118450820446014404296875">
        <ele>479</ele>
        <time>2023-01-11T12:16:35.000Z</time>
      </trkpt>
      <trkpt lat="-49.2389803938567638397216796875" lon="-72.96228052116930484771728515625">
        <ele>479</ele>
        <time>2023-01-11T12:16:37.000Z</time>
      </trkpt>
      <trkpt lat="-49.23900813795626163482666015625" lon="-72.9623305611312389373779296875">
        <ele>479</ele>
        <time>2023-01-11T12:16:41.000Z</time>
      </trkpt>
      <trkpt lat="-49.2390139214694499969482421875" lon="-72.96234690584242343902587890625">
        <ele>479</ele>
        <time>2023-01-11T12:16:42.000Z</time>
      </trkpt>
      <trkpt lat="-49.23901936970651149749755859375" lon="-72.9623862169682979583740234375">
        <ele>479</ele>
        <time>2023-01-11T12:16:44.000Z</time>
      </trkpt>
      <trkpt lat="-49.23900478519499301910400390625" lon="-72.9624636657536029815673828125">
        <ele>479</ele>
        <time>2023-01-11T12:16:48.000Z</time>
      </trkpt>
      <trkpt lat="-49.2389803938567638397216796875" lon="-72.96257338486611843109130859375">
        <ele>479</ele>
        <time>2023-01-11T12:16:54.000Z</time>
      </trkpt>
      <trkpt lat="-49.23896689899265766143798828125" lon="-72.96260540373623371124267578125">
        <ele>479</ele>
        <time>2023-01-11T12:16:56.000Z</time>
      </trkpt>
      <trkpt lat="-49.2389609478414058685302734375" lon="-72.96263180673122406005859375">
        <ele>479</ele>
        <time>2023-01-11T12:16:58.000Z</time>
      </trkpt>
      <trkpt lat="-49.238846115767955780029296875" lon="-72.96280120499432086944580078125">
        <ele>479</ele>
        <time>2023-01-11T12:17:09.000Z</time>
      </trkpt>
      <trkpt lat="-49.23879356123507022857666015625" lon="-72.96284697018563747406005859375">
        <ele>479</ele>
        <time>2023-01-11T12:17:14.000Z</time>
      </trkpt>
      <trkpt lat="-49.23874117434024810791015625" lon="-72.9628830961883068084716796875">
        <ele>479</ele>
        <time>2023-01-11T12:17:18.000Z</time>
      </trkpt>
      <trkpt lat="-49.23873723484575748443603515625" lon="-72.96289139427244663238525390625">
        <ele>479</ele>
        <time>2023-01-11T12:17:19.000Z</time>
      </trkpt>
      <trkpt lat="-49.238732121884822845458984375" lon="-72.9628988541662693023681640625">
        <ele>479</ele>
        <time>2023-01-11T12:17:20.000Z</time>
      </trkpt>
      <trkpt lat="-49.2386828362941741943359375" lon="-72.962950654327869415283203125">
        <ele>479</ele>
        <time>2023-01-11T12:17:25.000Z</time>
      </trkpt>
      <trkpt lat="-49.23860111273825168609619140625" lon="-72.963026426732540130615234375">
        <ele>479</ele>
        <time>2023-01-11T12:17:33.000Z</time>
      </trkpt>
      <trkpt lat="-49.23858518712222576141357421875" lon="-72.9630544222891330718994140625">
        <ele>479</ele>
        <time>2023-01-11T12:17:35.000Z</time>
      </trkpt>
      <trkpt lat="-49.238559119403362274169921875" lon="-72.96310513280332088470458984375">
        <ele>479</ele>
        <time>2023-01-11T12:17:39.000Z</time>
      </trkpt>
      <trkpt lat="-49.23852701671421527862548828125" lon="-72.9631402529776096343994140625">
        <ele>479</ele>
        <time>2023-01-11T12:17:42.000Z</time>
      </trkpt>
      <trkpt lat="-49.23851645551621913909912109375" lon="-72.9631550051271915435791015625">
        <ele>475.20001220703125</ele>
        <time>2023-01-11T12:17:43.000Z</time>
      </trkpt>
      <trkpt lat="-49.2384682595729827880859375" lon="-72.96319833956658840179443359375">
        <ele>475.20001220703125</ele>
        <time>2023-01-11T12:17:48.000Z</time>
      </trkpt>
      <trkpt lat="-49.23843272030353546142578125" lon="-72.963288612663745880126953125">
        <ele>475.399993896484375</ele>
        <time>2023-01-11T12:17:55.000Z</time>
      </trkpt>
      <trkpt lat="-49.23841520212590694427490234375" lon="-72.9633176140487194061279296875">
        <ele>475.399993896484375</ele>
        <time>2023-01-11T12:17:57.000Z</time>
      </trkpt>
      <trkpt lat="-49.2383869551122188568115234375" lon="-72.96337603591382503509521484375">
        <ele>475.600006103515625</ele>
        <time>2023-01-11T12:18:02.000Z</time>
      </trkpt>
      <trkpt lat="-49.23838586546480655670166015625" lon="-72.96340839006006717681884765625">
        <ele>475.79998779296875</ele>
        <time>2023-01-11T12:18:04.000Z</time>
      </trkpt>
      <trkpt lat="-49.23837781883776187896728515625" lon="-72.96348282136023044586181640625">
        <ele>476</ele>
        <time>2023-01-11T12:18:09.000Z</time>
      </trkpt>
      <trkpt lat="-49.23836273141205310821533203125" lon="-72.9634912870824337005615234375">
        <ele>476</ele>
        <time>2023-01-11T12:18:11.000Z</time>
      </trkpt>
      <trkpt lat="-49.238343536853790283203125" lon="-72.9635144211351871490478515625">
        <ele>475.79998779296875</ele>
        <time>2023-01-11T12:18:15.000Z</time>
      </trkpt>
      <trkpt lat="-49.23830154351890087127685546875" lon="-72.9635506309568881988525390625">
        <ele>475.399993896484375</ele>
        <time>2023-01-11T12:18:20.000Z</time>
      </trkpt>
      <trkpt lat="-49.238277487456798553466796875" lon="-72.9635627008974552154541015625">
        <ele>475</ele>
        <time>2023-01-11T12:18:22.000Z</time>
      </trkpt>
      <trkpt lat="-49.23822191543877124786376953125" lon="-72.9636143334209918975830078125">
        <ele>474.399993896484375</ele>
        <time>2023-01-11T12:18:29.000Z</time>
      </trkpt>
      <trkpt lat="-49.2381670139729976654052734375" lon="-72.96368448995053768157958984375">
        <ele>474.20001220703125</ele>
        <time>2023-01-11T12:18:33.000Z</time>
      </trkpt>
      <trkpt lat="-49.238145053386688232421875" lon="-72.96369471587240695953369140625">
        <ele>474.20001220703125</ele>
        <time>2023-01-11T12:18:34.000Z</time>
      </trkpt>
      <trkpt lat="-49.2381331510841846466064453125" lon="-72.963706366717815399169921875">
        <ele>474</ele>
        <time>2023-01-11T12:18:35.000Z</time>
      </trkpt>
      <trkpt lat="-49.23811932094395160675048828125" lon="-72.96373276971280574798583984375">
        <ele>474</ele>
        <time>2023-01-11T12:18:37.000Z</time>
      </trkpt>
      <trkpt lat="-49.23811093904078006744384765625" lon="-72.963737212121486663818359375">
        <ele>473.79998779296875</ele>
        <time>2023-01-11T12:18:38.000Z</time>
      </trkpt>
      <trkpt lat="-49.238103143870830535888671875" lon="-72.96373955905437469482421875">
        <ele>473.79998779296875</ele>
        <time>2023-01-11T12:18:39.000Z</time>
      </trkpt>
      <trkpt lat="-49.2380417883396148681640625" lon="-72.96378104947507381439208984375">
        <ele>474</ele>
        <time>2023-01-11T12:18:44.000Z</time>
      </trkpt>
      <trkpt lat="-49.23803231678903102874755859375" lon="-72.96379731036722660064697265625">
        <ele>474</ele>
        <time>2023-01-11T12:18:45.000Z</time>
      </trkpt>
      <trkpt lat="-49.23801991157233715057373046875" lon="-72.96381742693483829498291015625">
        <ele>474</ele>
        <time>2023-01-11T12:18:46.000Z</time>
      </trkpt>
      <trkpt lat="-49.23797397874295711517333984375" lon="-72.96394332312047481536865234375">
        <ele>474.20001220703125</ele>
        <time>2023-01-11T12:18:55.000Z</time>
      </trkpt>
      <trkpt lat="-49.23796735703945159912109375" lon="-72.9639583267271518707275390625">
        <ele>474.20001220703125</ele>
        <time>2023-01-11T12:18:56.000Z</time>
      </trkpt>
      <trkpt lat="-49.2379618249833583831787109375" lon="-72.96397986821830272674560546875">
        <ele>474.399993896484375</ele>
        <time>2023-01-11T12:18:57.000Z</time>
      </trkpt>
      <trkpt lat="-49.23795369453728199005126953125" lon="-72.963997386395931243896484375">
        <ele>474.399993896484375</ele>
        <time>2023-01-11T12:18:58.000Z</time>
      </trkpt>
      <trkpt lat="-49.23790290020406246185302734375" lon="-72.9640555568039417266845703125">
        <ele>474.600006103515625</ele>
        <time>2023-01-11T12:19:03.000Z</time>
      </trkpt>
      <trkpt lat="-49.237887226045131683349609375" lon="-72.96411448158323764801025390625">
        <ele>474.20001220703125</ele>
        <time>2023-01-11T12:19:11.000Z</time>
      </trkpt>
      <trkpt lat="-49.23785327933728694915771484375" lon="-72.96413158066570758819580078125">
        <ele>474.20001220703125</ele>
        <time>2023-01-11T12:19:18.000Z</time>
      </trkpt>
      <trkpt lat="-49.23779795877635478973388671875" lon="-72.964217998087406158447265625">
        <ele>474.20001220703125</ele>
        <time>2023-01-11T12:19:26.000Z</time>
      </trkpt>
      <trkpt lat="-49.2377107031643390655517578125" lon="-72.9642734862864017486572265625">
        <ele>473.79998779296875</ele>
        <time>2023-01-11T12:19:35.000Z</time>
      </trkpt>
      <trkpt lat="-49.23769888468086719512939453125" lon="-72.9642818681895732879638671875">
        <ele>473.79998779296875</ele>
        <time>2023-01-11T12:19:36.000Z</time>
      </trkpt>
      <trkpt lat="-49.23762026242911815643310546875" lon="-72.96431682072579860687255859375">
        <ele>474</ele>
        <time>2023-01-11T12:19:42.000Z</time>
      </trkpt>
      <trkpt lat="-49.23751674592494964599609375" lon="-72.964338026940822601318359375">
        <ele>473.20001220703125</ele>
        <time>2023-01-11T12:19:51.000Z</time>
      </trkpt>
      <trkpt lat="-49.23748858273029327392578125" lon="-72.96440399251878261566162109375">
        <ele>473.399993896484375</ele>
        <time>2023-01-11T12:19:56.000Z</time>
      </trkpt>
      <trkpt lat="-49.2374810390174388885498046875" lon="-72.964425869286060333251953125">
        <ele>473.399993896484375</ele>
        <time>2023-01-11T12:19:57.000Z</time>
      </trkpt>
      <trkpt lat="-49.237437285482883453369140625" lon="-72.96450457535684108734130859375">
        <ele>473.399993896484375</ele>
        <time>2023-01-11T12:20:02.000Z</time>
      </trkpt>
      <trkpt lat="-49.2374012432992458343505859375" lon="-72.96454531140625476837158203125">
        <ele>473.399993896484375</ele>
        <time>2023-01-11T12:20:06.000Z</time>
      </trkpt>
      <trkpt lat="-49.237393029034137725830078125" lon="-72.96455436386168003082275390625">
        <ele>473.399993896484375</ele>
        <time>2023-01-11T12:20:07.000Z</time>
      </trkpt>
      <trkpt lat="-49.23733611591160297393798828125" lon="-72.9646027274429798126220703125">
        <ele>473.399993896484375</ele>
        <time>2023-01-11T12:20:13.000Z</time>
      </trkpt>
      <trkpt lat="-49.23732270486652851104736328125" lon="-72.9646261967718601226806640625">
        <ele>473.399993896484375</ele>
        <time>2023-01-11T12:20:15.000Z</time>
      </trkpt>
      <trkpt lat="-49.23730459995567798614501953125" lon="-72.9646912403404712677001953125">
        <ele>473.399993896484375</ele>
        <time>2023-01-11T12:20:20.000Z</time>
      </trkpt>
      <trkpt lat="-49.23725791275501251220703125" lon="-72.96475988812744617462158203125">
        <ele>473.399993896484375</ele>
        <time>2023-01-11T12:20:25.000Z</time>
      </trkpt>
      <trkpt lat="-49.23723788000643253326416015625" lon="-72.9647901467978954315185546875">
        <ele>473.399993896484375</ele>
        <time>2023-01-11T12:20:27.000Z</time>
      </trkpt>
      <trkpt lat="-49.237163364887237548828125" lon="-72.96488896943628787994384765625">
        <ele>473.600006103515625</ele>
        <time>2023-01-11T12:20:35.000Z</time>
      </trkpt>
      <trkpt lat="-49.23713880591094493865966796875" lon="-72.9649326391518115997314453125">
        <ele>473.600006103515625</ele>
        <time>2023-01-11T12:20:38.000Z</time>
      </trkpt>
      <trkpt lat="-49.23713461495935916900634765625" lon="-72.96497111208736896514892578125">
        <ele>473.600006103515625</ele>
        <time>2023-01-11T12:20:41.000Z</time>
      </trkpt>
      <trkpt lat="-49.23708499409258365631103515625" lon="-72.965137660503387451171875">
        <ele>473.79998779296875</ele>
        <time>2023-01-11T12:20:51.000Z</time>
      </trkpt>
      <trkpt lat="-49.23703101463615894317626953125" lon="-72.96523530967533588409423828125">
        <ele>473.79998779296875</ele>
        <time>2023-01-11T12:20:58.000Z</time>
      </trkpt>
      <trkpt lat="-49.23702883534133434295654296875" lon="-72.9652474634349346160888671875">
        <ele>473.79998779296875</ele>
        <time>2023-01-11T12:20:59.000Z</time>
      </trkpt>
      <trkpt lat="-49.2370042763650417327880859375" lon="-72.965290881693363189697265625">
        <ele>474</ele>
        <time>2023-01-11T12:21:02.000Z</time>
      </trkpt>
      <trkpt lat="-49.23698902130126953125" lon="-72.96532533131539821624755859375">
        <ele>474</ele>
        <time>2023-01-11T12:21:04.000Z</time>
      </trkpt>
      <trkpt lat="-49.23695708625018596649169921875" lon="-72.9654828272759914398193359375">
        <ele>474</ele>
        <time>2023-01-11T12:21:14.000Z</time>
      </trkpt>
      <trkpt lat="-49.23691484145820140838623046875" lon="-72.96555667184293270111083984375">
        <ele>474.20001220703125</ele>
        <time>2023-01-11T12:21:20.000Z</time>
      </trkpt>
      <trkpt lat="-49.23689941875636577606201171875" lon="-72.96557678841054439544677734375">
        <ele>474.20001220703125</ele>
        <time>2023-01-11T12:21:22.000Z</time>
      </trkpt>
      <trkpt lat="-49.23686488531529903411865234375" lon="-72.96572380699217319488525390625">
        <ele>474.600006103515625</ele>
        <time>2023-01-11T12:21:32.000Z</time>
      </trkpt>
      <trkpt lat="-49.2368564195930957794189453125" lon="-72.96573520638048648834228515625">
        <ele>474.600006103515625</ele>
        <time>2023-01-11T12:21:38.000Z</time>
      </trkpt>
      <trkpt lat="-49.23680461943149566650390625" lon="-72.96582170762121677398681640625">
        <ele>474.79998779296875</ele>
        <time>2023-01-11T12:21:45.000Z</time>
      </trkpt>
      <trkpt lat="-49.23676438629627227783203125" lon="-72.9659686423838138580322265625">
        <ele>475</ele>
        <time>2023-01-11T12:21:54.000Z</time>
      </trkpt>
      <trkpt lat="-49.23675491474568843841552734375" lon="-72.96601952053606510162353515625">
        <ele>475.20001220703125</ele>
        <time>2023-01-11T12:21:57.000Z</time>
      </trkpt>
      <trkpt lat="-49.23673764802515506744384765625" lon="-72.96608523465692996978759765625">
        <ele>475.399993896484375</ele>
        <time>2023-01-11T12:22:01.000Z</time>
      </trkpt>
      <trkpt lat="-49.23672406934201717376708984375" lon="-72.96615178696811199188232421875">
        <ele>475.399993896484375</ele>
        <time>2023-01-11T12:22:05.000Z</time>
      </trkpt>
      <trkpt lat="-49.2367286793887615203857421875" lon="-72.96621331013739109039306640625">
        <ele>475.399993896484375</ele>
        <time>2023-01-11T12:22:09.000Z</time>
      </trkpt>
      <trkpt lat="-49.236739911139011383056640625" lon="-72.96627533622086048126220703125">
        <ele>475.600006103515625</ele>
        <time>2023-01-11T12:22:12.000Z</time>
      </trkpt>
      <trkpt lat="-49.2367290146648883819580078125" lon="-72.96630375087261199951171875">
        <ele>475.600006103515625</ele>
        <time>2023-01-11T12:22:14.000Z</time>
      </trkpt>
      <trkpt lat="-49.23673194833099842071533203125" lon="-72.9663263820111751556396484375">
        <ele>475.600006103515625</ele>
        <time>2023-01-11T12:22:15.000Z</time>
      </trkpt>
      <trkpt lat="-49.236715771257877349853515625" lon="-72.96637491323053836822509765625">
        <ele>475.79998779296875</ele>
        <time>2023-01-11T12:22:18.000Z</time>
      </trkpt>
      <trkpt lat="-49.2366850934922695159912109375" lon="-72.96642000786960124969482421875">
        <ele>476</ele>
        <time>2023-01-11T12:22:21.000Z</time>
      </trkpt>
      <trkpt lat="-49.23665885813534259796142578125" lon="-72.96646124683320522308349609375">
        <ele>476.20001220703125</ele>
        <time>2023-01-11T12:22:25.000Z</time>
      </trkpt>
      <trkpt lat="-49.2366341315209865570068359375" lon="-72.96650759875774383544921875">
        <ele>476.600006103515625</ele>
        <time>2023-01-11T12:22:29.000Z</time>
      </trkpt>
      <trkpt lat="-49.23663052730262279510498046875" lon="-72.96653785742819309234619140625">
        <ele>476.79998779296875</ele>
        <time>2023-01-11T12:22:31.000Z</time>
      </trkpt>
      <trkpt lat="-49.23658601939678192138671875" lon="-72.96658311970531940460205078125">
        <ele>477.20001220703125</ele>
        <time>2023-01-11T12:22:35.000Z</time>
      </trkpt>
      <trkpt lat="-49.23655693419277667999267578125" lon="-72.966597788035869598388671875">
        <ele>477.20001220703125</ele>
        <time>2023-01-11T12:22:37.000Z</time>
      </trkpt>
      <trkpt lat="-49.2365442775189876556396484375" lon="-72.96661086380481719970703125">
        <ele>477.399993896484375</ele>
        <time>2023-01-11T12:22:38.000Z</time>
      </trkpt>
      <trkpt lat="-49.236524999141693115234375" lon="-72.96667364425957202911376953125">
        <ele>477.399993896484375</ele>
        <time>2023-01-11T12:22:41.000Z</time>
      </trkpt>
      <trkpt lat="-49.23650278709828853607177734375" lon="-72.9667310602962970733642578125">
        <ele>477.79998779296875</ele>
        <time>2023-01-11T12:22:45.000Z</time>
      </trkpt>
      <trkpt lat="-49.23648568801581859588623046875" lon="-72.9668349958956241607666015625">
        <ele>478</ele>
        <time>2023-01-11T12:22:52.000Z</time>
      </trkpt>
      <trkpt lat="-49.23648769967257976531982421875" lon="-72.96686776913702487945556640625">
        <ele>478.20001220703125</ele>
        <time>2023-01-11T12:22:55.000Z</time>
      </trkpt>
      <trkpt lat="-49.23648669384419918060302734375" lon="-72.9668762348592281341552734375">
        <ele>478.399993896484375</ele>
        <time>2023-01-11T12:22:56.000Z</time>
      </trkpt>
      <trkpt lat="-49.23648451454937458038330078125" lon="-72.96692929230630397796630859375">
        <ele>478.600006103515625</ele>
        <time>2023-01-11T12:23:00.000Z</time>
      </trkpt>
      <trkpt lat="-49.23650647513568401336669921875" lon="-72.96704445965588092803955078125">
        <ele>479.399993896484375</ele>
        <time>2023-01-11T12:23:08.000Z</time>
      </trkpt>
      <trkpt lat="-49.23650697804987430572509765625" lon="-72.967057786881923675537109375">
        <ele>479.600006103515625</ele>
        <time>2023-01-11T12:23:09.000Z</time>
      </trkpt>
      <trkpt lat="-49.236496500670909881591796875" lon="-72.96716381795704364776611328125">
        <ele>480.399993896484375</ele>
        <time>2023-01-11T12:23:17.000Z</time>
      </trkpt>
      <trkpt lat="-49.23650094307959079742431640625" lon="-72.9671729542315006256103515625">
        <ele>480.600006103515625</ele>
        <time>2023-01-11T12:23:18.000Z</time>
      </trkpt>
      <trkpt lat="-49.2364896275103092193603515625" lon="-72.96725870110094547271728515625">
        <ele>481.20001220703125</ele>
        <time>2023-01-11T12:23:25.000Z</time>
      </trkpt>
      <trkpt lat="-49.23648518510162830352783203125" lon="-72.9673472978174686431884765625">
        <ele>481.399993896484375</ele>
        <time>2023-01-11T12:23:32.000Z</time>
      </trkpt>
      <trkpt lat="-49.23647697083652019500732421875" lon="-72.9673633910715579986572265625">
        <ele>481.600006103515625</ele>
        <time>2023-01-11T12:23:33.000Z</time>
      </trkpt>
      <trkpt lat="-49.23647613264620304107666015625" lon="-72.96740488149225711822509765625">
        <ele>481.79998779296875</ele>
        <time>2023-01-11T12:23:35.000Z</time>
      </trkpt>
      <trkpt lat="-49.23647562973201274871826171875" lon="-72.9674297757446765899658203125">
        <ele>481.79998779296875</ele>
        <time>2023-01-11T12:23:37.000Z</time>
      </trkpt>
      <trkpt lat="-49.23644092865288257598876953125" lon="-72.9676235653460025787353515625">
        <ele>482.399993896484375</ele>
        <time>2023-01-11T12:23:47.000Z</time>
      </trkpt>
      <trkpt lat="-49.23637948930263519287109375" lon="-72.9677801392972469329833984375">
        <ele>482.399993896484375</ele>
        <time>2023-01-11T12:23:54.000Z</time>
      </trkpt>
      <trkpt lat="-49.2363518290221691131591796875" lon="-72.96781442128121852874755859375">
        <ele>482.399993896484375</ele>
        <time>2023-01-11T12:23:56.000Z</time>
      </trkpt>
      <trkpt lat="-49.23630899749696254730224609375" lon="-72.96787259168922901153564453125">
        <ele>482.399993896484375</ele>
        <time>2023-01-11T12:24:02.000Z</time>
      </trkpt>
      <trkpt lat="-49.23629944212734699249267578125" lon="-72.96790511347353458404541015625">
        <ele>482.399993896484375</ele>
        <time>2023-01-11T12:24:04.000Z</time>
      </trkpt>
      <trkpt lat="-49.2362918145954608917236328125" lon="-72.9679192788898944854736328125">
        <ele>482.399993896484375</ele>
        <time>2023-01-11T12:24:05.000Z</time>
      </trkpt>
      <trkpt lat="-49.23631100915372371673583984375" lon="-72.96801055781543254852294921875">
        <ele>482.600006103515625</ele>
        <time>2023-01-11T12:24:10.000Z</time>
      </trkpt>
      <trkpt lat="-49.2363032139837741851806640625" lon="-72.96807442791759967803955078125">
        <ele>482.399993896484375</ele>
        <time>2023-01-11T12:24:13.000Z</time>
      </trkpt>
      <trkpt lat="-49.23628963530063629150390625" lon="-72.9680956341326236724853515625">
        <ele>482.399993896484375</ele>
        <time>2023-01-11T12:24:15.000Z</time>
      </trkpt>
      <trkpt lat="-49.2362029664218425750732421875" lon="-72.968132011592388153076171875">
        <ele>482.399993896484375</ele>
        <time>2023-01-11T12:24:21.000Z</time>
      </trkpt>
      <trkpt lat="-49.236152172088623046875" lon="-72.96818406321108341217041015625">
        <ele>482.20001220703125</ele>
        <time>2023-01-11T12:24:27.000Z</time>
      </trkpt>
      <trkpt lat="-49.236117303371429443359375" lon="-72.96822823584079742431640625">
        <ele>482.20001220703125</ele>
        <time>2023-01-11T12:24:30.000Z</time>
      </trkpt>
      <trkpt lat="-49.23610062338411808013916015625" lon="-72.9682478494942188262939453125">
        <ele>482.20001220703125</ele>
        <time>2023-01-11T12:24:32.000Z</time>
      </trkpt>
      <trkpt lat="-49.23610833473503589630126953125" lon="-72.9682538844645023345947265625">
        <ele>482.20001220703125</ele>
        <time>2023-01-11T12:24:33.000Z</time>
      </trkpt>
      <trkpt lat="-49.2360515892505645751953125" lon="-72.9683038406074047088623046875">
        <ele>482</ele>
        <time>2023-01-11T12:24:37.000Z</time>
      </trkpt>
      <trkpt lat="-49.2359496653079986572265625" lon="-72.9683873243629932403564453125">
        <ele>481.79998779296875</ele>
        <time>2023-01-11T12:24:45.000Z</time>
      </trkpt>
      <trkpt lat="-49.235920496284961700439453125" lon="-72.9683844745159149169921875">
        <ele>481.79998779296875</ele>
        <time>2023-01-11T12:24:47.000Z</time>
      </trkpt>
      <trkpt lat="-49.235898368060588836669921875" lon="-72.96838321723043918609619140625">
        <ele>482.79998779296875</ele>
        <time>2023-01-11T12:24:50.000Z</time>
      </trkpt>
      <trkpt lat="-49.23589526675641536712646484375" lon="-72.96838782727718353271484375">
        <ele>482.79998779296875</ele>
        <time>2023-01-11T12:24:51.000Z</time>
      </trkpt>
      <trkpt lat="-49.23587783239781856536865234375" lon="-72.9684295691549777984619140625">
        <ele>482.79998779296875</ele>
        <time>2023-01-11T12:24:54.000Z</time>
      </trkpt>
      <trkpt lat="-49.23583759926259517669677734375" lon="-72.96848430298268795013427734375">
        <ele>482.79998779296875</ele>
        <time>2023-01-11T12:24:59.000Z</time>
      </trkpt>
      <trkpt lat="-49.23584212549030780792236328125" lon="-72.9685281403362751007080078125">
        <ele>482.79998779296875</ele>
        <time>2023-01-11T12:25:02.000Z</time>
      </trkpt>
      <trkpt lat="-49.2358415387570858001708984375" lon="-72.96863484196364879608154296875">
        <ele>482.79998779296875</ele>
        <time>2023-01-11T12:25:09.000Z</time>
      </trkpt>
      <trkpt lat="-49.23584028147161006927490234375" lon="-72.96865311451256275177001953125">
        <ele>482.79998779296875</ele>
        <time>2023-01-11T12:25:10.000Z</time>
      </trkpt>
      <trkpt lat="-49.23583810217678546905517578125" lon="-72.968667447566986083984375">
        <ele>482.79998779296875</ele>
        <time>2023-01-11T12:25:11.000Z</time>
      </trkpt>
      <trkpt lat="-49.23582972027361392974853515625" lon="-72.9687098599970340728759765625">
        <ele>482.79998779296875</ele>
        <time>2023-01-11T12:25:14.000Z</time>
      </trkpt>
      <trkpt lat="-49.2358080111443996429443359375" lon="-72.968756966292858123779296875">
        <ele>482.79998779296875</ele>
        <time>2023-01-11T12:25:17.000Z</time>
      </trkpt>
      <trkpt lat="-49.23577624373137950897216796875" lon="-72.96878420747816562652587890625">
        <ele>482.79998779296875</ele>
        <time>2023-01-11T12:25:20.000Z</time>
      </trkpt>
      <trkpt lat="-49.23574003390967845916748046875" lon="-72.96878320164978504180908203125">
        <ele>482.79998779296875</ele>
        <time>2023-01-11T12:25:23.000Z</time>
      </trkpt>
      <trkpt lat="-49.2356358468532562255859375" lon="-72.96884992159903049468994140625">
        <ele>482.79998779296875</ele>
        <time>2023-01-11T12:25:32.000Z</time>
      </trkpt>
      <trkpt lat="-49.23555479384958744049072265625" lon="-72.96894966624677181243896484375">
        <ele>482.79998779296875</ele>
        <time>2023-01-11T12:25:40.000Z</time>
      </trkpt>
      <trkpt lat="-49.2355270497500896453857421875" lon="-72.968997694551944732666015625">
        <ele>482.79998779296875</ele>
        <time>2023-01-11T12:25:45.000Z</time>
      </trkpt>
      <trkpt lat="-49.235499389469623565673828125" lon="-72.96907673589885234832763671875">
        <ele>482.79998779296875</ele>
        <time>2023-01-11T12:25:52.000Z</time>
      </trkpt>
      <trkpt lat="-49.235489331185817718505859375" lon="-72.96913993544876575469970703125">
        <ele>482.79998779296875</ele>
        <time>2023-01-11T12:25:57.000Z</time>
      </trkpt>
      <trkpt lat="-49.2355092801153659820556640625" lon="-72.9692731238901615142822265625">
        <ele>482.79998779296875</ele>
        <time>2023-01-11T12:26:04.000Z</time>
      </trkpt>
      <trkpt lat="-49.23551422543823719024658203125" lon="-72.96928728930652141571044921875">
        <ele>482.79998779296875</ele>
        <time>2023-01-11T12:26:05.000Z</time>
      </trkpt>
      <trkpt lat="-49.2355231940746307373046875" lon="-72.96932450495660305023193359375">
        <ele>482.79998779296875</ele>
        <time>2023-01-11T12:26:07.000Z</time>
      </trkpt>
      <trkpt lat="-49.2355124652385711669921875" lon="-72.96936406753957271575927734375">
        <ele>482.79998779296875</ele>
        <time>2023-01-11T12:26:09.000Z</time>
      </trkpt>
      <trkpt lat="-49.2355049215257167816162109375" lon="-72.96938359737396240234375">
        <ele>482.79998779296875</ele>
        <time>2023-01-11T12:26:10.000Z</time>
      </trkpt>
      <trkpt lat="-49.235450439155101776123046875" lon="-72.96952801756560802459716796875">
        <ele>482.79998779296875</ele>
        <time>2023-01-11T12:26:18.000Z</time>
      </trkpt>
      <trkpt lat="-49.23542604781687259674072265625" lon="-72.969576381146907806396484375">
        <ele>482.79998779296875</ele>
        <time>2023-01-11T12:26:26.000Z</time>
      </trkpt>
      <trkpt lat="-49.2353986389935016632080078125" lon="-72.96963698230683803558349609375">
        <ele>482.79998779296875</ele>
        <time>2023-01-11T12:26:30.000Z</time>
      </trkpt>
      <trkpt lat="-49.2353976331651210784912109375" lon="-72.969703115522861480712890625">
        <ele>482.79998779296875</ele>
        <time>2023-01-11T12:26:34.000Z</time>
      </trkpt>
      <trkpt lat="-49.23535597510635852813720703125" lon="-72.969748713076114654541015625">
        <ele>482.79998779296875</ele>
        <time>2023-01-11T12:26:39.000Z</time>
      </trkpt>
      <trkpt lat="-49.23533937893807888031005859375" lon="-72.969785593450069427490234375">
        <ele>482.79998779296875</ele>
        <time>2023-01-11T12:26:42.000Z</time>
      </trkpt>
      <trkpt lat="-49.2352377064526081085205078125" lon="-72.9697979986667633056640625">
        <ele>482.79998779296875</ele>
        <time>2023-01-11T12:26:49.000Z</time>
      </trkpt>
      <trkpt lat="-49.235196299850940704345703125" lon="-72.96981316991150379180908203125">
        <ele>482.79998779296875</ele>
        <time>2023-01-11T12:26:52.000Z</time>
      </trkpt>
      <trkpt lat="-49.23512178473174571990966796875" lon="-72.96981015242636203765869140625">
        <ele>482.79998779296875</ele>
        <time>2023-01-11T12:26:58.000Z</time>
      </trkpt>
      <trkpt lat="-49.2351109720766544342041015625" lon="-72.969804704189300537109375">
        <ele>482.79998779296875</ele>
        <time>2023-01-11T12:27:03.000Z</time>
      </trkpt>
      <trkpt lat="-49.23511910252273082733154296875" lon="-72.9698655568063259124755859375">
        <ele>482.79998779296875</ele>
        <time>2023-01-11T12:27:23.000Z</time>
      </trkpt>
      <trkpt lat="-49.23511960543692111968994140625" lon="-72.9698813147842884063720703125">
        <ele>482.79998779296875</ele>
        <time>2023-01-11T12:27:24.000Z</time>
      </trkpt>
      <trkpt lat="-49.2351656220853328704833984375" lon="-72.96998902224004268646240234375">
        <ele>482.79998779296875</ele>
        <time>2023-01-11T12:27:30.000Z</time>
      </trkpt>
      <trkpt lat="-49.235184900462627410888671875" lon="-72.97011307440698146820068359375">
        <ele>482.79998779296875</ele>
        <time>2023-01-11T12:27:37.000Z</time>
      </trkpt>
      <trkpt lat="-49.2351699806749820709228515625" lon="-72.97028473578393459320068359375">
        <ele>482.79998779296875</ele>
        <time>2023-01-11T12:27:46.000Z</time>
      </trkpt>
      <trkpt lat="-49.2351786978542804718017578125" lon="-72.97034307383000850677490234375">
        <ele>482.79998779296875</ele>
        <time>2023-01-11T12:27:49.000Z</time>
      </trkpt>
      <trkpt lat="-49.2351676337420940399169921875" lon="-72.97037442214787006378173828125">
        <ele>482.79998779296875</ele>
        <time>2023-01-11T12:27:51.000Z</time>
      </trkpt>
      <trkpt lat="-49.23516042530536651611328125" lon="-72.97039009630680084228515625">
        <ele>482.79998779296875</ele>
        <time>2023-01-11T12:27:52.000Z</time>
      </trkpt>
      <trkpt lat="-49.23512346111238002777099609375" lon="-72.97049545682966709136962890625">
        <ele>482.79998779296875</ele>
        <time>2023-01-11T12:27:57.000Z</time>
      </trkpt>
      <trkpt lat="-49.23512756824493408203125" lon="-72.97057676129043102264404296875">
        <ele>482.79998779296875</ele>
        <time>2023-01-11T12:28:02.000Z</time>
      </trkpt>
      <trkpt lat="-49.2351109720766544342041015625" lon="-72.97069041989743709564208984375">
        <ele>482.79998779296875</ele>
        <time>2023-01-11T12:28:10.000Z</time>
      </trkpt>
      <trkpt lat="-49.23508289270102977752685546875" lon="-72.9707835428416728973388671875">
        <ele>482.79998779296875</ele>
        <time>2023-01-11T12:28:16.000Z</time>
      </trkpt>
      <trkpt lat="-49.23507593572139739990234375" lon="-72.97079779207706451416015625">
        <ele>482.79998779296875</ele>
        <time>2023-01-11T12:28:17.000Z</time>
      </trkpt>
      <trkpt lat="-49.23505942337214946746826171875" lon="-72.97082327306270599365234375">
        <ele>482.79998779296875</ele>
        <time>2023-01-11T12:28:19.000Z</time>
      </trkpt>
      <trkpt lat="-49.23501717858016490936279296875" lon="-72.97088320367038249969482421875">
        <ele>482.79998779296875</ele>
        <time>2023-01-11T12:28:24.000Z</time>
      </trkpt>
      <trkpt lat="-49.235023297369480133056640625" lon="-72.97090248204767704010009765625">
        <ele>482.79998779296875</ele>
        <time>2023-01-11T12:28:25.000Z</time>
      </trkpt>
      <trkpt lat="-49.23500125296413898468017578125" lon="-72.9710262827575206756591796875">
        <ele>482.79998779296875</ele>
        <time>2023-01-11T12:28:34.000Z</time>
      </trkpt>
      <trkpt lat="-49.2349641211330890655517578125" lon="-72.97112057916820049285888671875">
        <ele>482.79998779296875</ele>
        <time>2023-01-11T12:28:41.000Z</time>
      </trkpt>
      <trkpt lat="-49.23494710586965084075927734375" lon="-72.97112644650042057037353515625">
        <ele>482.79998779296875</ele>
        <time>2023-01-11T12:28:42.000Z</time>
      </trkpt>
      <trkpt lat="-49.2348970659077167510986328125" lon="-72.97119517810642719268798828125">
        <ele>482.79998779296875</ele>
        <time>2023-01-11T12:28:48.000Z</time>
      </trkpt>
      <trkpt lat="-49.23483110032975673675537109375" lon="-72.971274890005588531494140625">
        <ele>482.79998779296875</ele>
        <time>2023-01-11T12:28:54.000Z</time>
      </trkpt>
      <trkpt lat="-49.23480746336281299591064453125" lon="-72.97129525803029537200927734375">
        <ele>482.79998779296875</ele>
        <time>2023-01-11T12:28:56.000Z</time>
      </trkpt>
      <trkpt lat="-49.23477577976882457733154296875" lon="-72.97134253196418285369873046875">
        <ele>482.79998779296875</ele>
        <time>2023-01-11T12:29:02.000Z</time>
      </trkpt>
      <trkpt lat="-49.2347710020840167999267578125" lon="-72.97135896049439907073974609375">
        <ele>482.79998779296875</ele>
        <time>2023-01-11T12:29:03.000Z</time>
      </trkpt>
      <trkpt lat="-49.2347418330609798431396484375" lon="-72.97140472568571567535400390625">
        <ele>482.79998779296875</ele>
        <time>2023-01-11T12:29:09.000Z</time>
      </trkpt>
      <trkpt lat="-49.2347319424152374267578125" lon="-72.97144814394414424896240234375">
        <ele>482.79998779296875</ele>
        <time>2023-01-11T12:29:15.000Z</time>
      </trkpt>
      <trkpt lat="-49.23471291549503803253173828125" lon="-72.97149642370641231536865234375">
        <ele>482.79998779296875</ele>
        <time>2023-01-11T12:29:20.000Z</time>
      </trkpt>
      <trkpt lat="-49.2347078025341033935546875" lon="-72.97150229103863239288330078125">
        <ele>482.79998779296875</ele>
        <time>2023-01-11T12:29:21.000Z</time>
      </trkpt>
      <trkpt lat="-49.2346630431711673736572265625" lon="-72.97157001681625843048095703125">
        <ele>482.79998779296875</ele>
        <time>2023-01-11T12:29:29.000Z</time>
      </trkpt>
      <trkpt lat="-49.2346301861107349395751953125" lon="-72.97167495824396610260009765625">
        <ele>482.79998779296875</ele>
        <time>2023-01-11T12:29:37.000Z</time>
      </trkpt>
      <trkpt lat="-49.23461258411407470703125" lon="-72.97168803401291370391845703125">
        <ele>482.79998779296875</ele>
        <time>2023-01-11T12:29:39.000Z</time>
      </trkpt>
      <trkpt lat="-49.23459288664162158966064453125" lon="-72.971728853881359100341796875">
        <ele>482.79998779296875</ele>
        <time>2023-01-11T12:29:43.000Z</time>
      </trkpt>
      <trkpt lat="-49.2345929704606533050537109375" lon="-72.9717491380870342254638671875">
        <ele>482.79998779296875</ele>
        <time>2023-01-11T12:29:44.000Z</time>
      </trkpt>
      <trkpt lat="-49.23455600626766681671142578125" lon="-72.97179750166833400726318359375">
        <ele>482.79998779296875</ele>
        <time>2023-01-11T12:29:48.000Z</time>
      </trkpt>
      <trkpt lat="-49.23454795964062213897705078125" lon="-72.9718057997524738311767578125">
        <ele>482.79998779296875</ele>
        <time>2023-01-11T12:29:49.000Z</time>
      </trkpt>
      <trkpt lat="-49.23445609398186206817626953125" lon="-72.971929013729095458984375">
        <ele>482.79998779296875</ele>
        <time>2023-01-11T12:29:58.000Z</time>
      </trkpt>
      <trkpt lat="-49.23438769765198230743408203125" lon="-72.97202733345329761505126953125">
        <ele>482.79998779296875</ele>
        <time>2023-01-11T12:30:05.000Z</time>
      </trkpt>
      <trkpt lat="-49.23435936681926250457763671875" lon="-72.97219455242156982421875">
        <ele>482.79998779296875</ele>
        <time>2023-01-11T12:30:15.000Z</time>
      </trkpt>
      <trkpt lat="-49.23430857248604297637939453125" lon="-72.9722413234412670135498046875">
        <ele>482.79998779296875</ele>
        <time>2023-01-11T12:30:18.000Z</time>
      </trkpt>
      <trkpt lat="-49.2342814989387989044189453125" lon="-72.972250543534755706787109375">
        <ele>482.79998779296875</ele>
        <time>2023-01-11T12:30:20.000Z</time>
      </trkpt>
      <trkpt lat="-49.23425191082060337066650390625" lon="-72.9722627811133861541748046875">
        <ele>482.79998779296875</ele>
        <time>2023-01-11T12:30:23.000Z</time>
      </trkpt>
      <trkpt lat="-49.2341970093548297882080078125" lon="-72.972379960119724273681640625">
        <ele>482.79998779296875</ele>
        <time>2023-01-11T12:30:31.000Z</time>
      </trkpt>
      <trkpt lat="-49.2341829277575016021728515625" lon="-72.9724213667213916778564453125">
        <ele>482.79998779296875</ele>
        <time>2023-01-11T12:30:34.000Z</time>
      </trkpt>
      <trkpt lat="-49.23416775651276111602783203125" lon="-72.97245598398149013519287109375">
        <ele>482.79998779296875</ele>
        <time>2023-01-11T12:30:38.000Z</time>
      </trkpt>
      <trkpt lat="-49.23416264355182647705078125" lon="-72.9725011624395847320556640625">
        <ele>482.79998779296875</ele>
        <time>2023-01-11T12:30:41.000Z</time>
      </trkpt>
      <trkpt lat="-49.234139509499073028564453125" lon="-72.97254793345928192138671875">
        <ele>482.79998779296875</ele>
        <time>2023-01-11T12:30:44.000Z</time>
      </trkpt>
      <trkpt lat="-49.2341373302042484283447265625" lon="-72.972561009228229522705078125">
        <ele>482.79998779296875</ele>
        <time>2023-01-11T12:30:45.000Z</time>
      </trkpt>
      <trkpt lat="-49.23413087613880634307861328125" lon="-72.97257685102522373199462890625">
        <ele>482.79998779296875</ele>
        <time>2023-01-11T12:30:46.000Z</time>
      </trkpt>
      <trkpt lat="-49.2340592108666896820068359375" lon="-72.97266838140785694122314453125">
        <ele>482.79998779296875</ele>
        <time>2023-01-11T12:30:53.000Z</time>
      </trkpt>
      <trkpt lat="-49.23403901048004627227783203125" lon="-72.9727107100188732147216796875">
        <ele>482.79998779296875</ele>
        <time>2023-01-11T12:30:56.000Z</time>
      </trkpt>
      <trkpt lat="-49.23403498716652393341064453125" lon="-72.972734011709690093994140625">
        <ele>482.79998779296875</ele>
        <time>2023-01-11T12:30:58.000Z</time>
      </trkpt>
      <trkpt lat="-49.2340166307985782623291015625" lon="-72.9727556370198726654052734375">
        <ele>482.79998779296875</ele>
        <time>2023-01-11T12:31:00.000Z</time>
      </trkpt>
      <trkpt lat="-49.233928956091403961181640625" lon="-72.97286988236010074615478515625">
        <ele>482.79998779296875</ele>
        <time>2023-01-11T12:31:09.000Z</time>
      </trkpt>
      <trkpt lat="-49.2339147068560123443603515625" lon="-72.97290324233472347259521484375">
        <ele>482.79998779296875</ele>
        <time>2023-01-11T12:31:11.000Z</time>
      </trkpt>
      <trkpt lat="-49.233903475105762481689453125" lon="-72.9729603230953216552734375">
        <ele>482.79998779296875</ele>
        <time>2023-01-11T12:31:15.000Z</time>
      </trkpt>
      <trkpt lat="-49.23383063636720180511474609375" lon="-72.973044477403163909912109375">
        <ele>482.79998779296875</ele>
        <time>2023-01-11T12:31:21.000Z</time>
      </trkpt>
      <trkpt lat="-49.23381890170276165008544921875" lon="-72.9730707965791225433349609375">
        <ele>482.79998779296875</ele>
        <time>2023-01-11T12:31:23.000Z</time>
      </trkpt>
      <trkpt lat="-49.2338003776967525482177734375" lon="-72.973106168210506439208984375">
        <ele>482.79998779296875</ele>
        <time>2023-01-11T12:31:25.000Z</time>
      </trkpt>
      <trkpt lat="-49.23373240046203136444091796875" lon="-72.9731673561036586761474609375">
        <ele>482.79998779296875</ele>
        <time>2023-01-11T12:31:30.000Z</time>
      </trkpt>
      <trkpt lat="-49.23371127806603908538818359375" lon="-72.97317766584455966949462890625">
        <ele>482.79998779296875</ele>
        <time>2023-01-11T12:31:31.000Z</time>
      </trkpt>
      <trkpt lat="-49.233692921698093414306640625" lon="-72.97320918180048465728759765625">
        <ele>482.79998779296875</ele>
        <time>2023-01-11T12:31:33.000Z</time>
      </trkpt>
      <trkpt lat="-49.233684875071048736572265625" lon="-72.97325930558145046234130859375">
        <ele>482.79998779296875</ele>
        <time>2023-01-11T12:31:36.000Z</time>
      </trkpt>
      <trkpt lat="-49.233672805130481719970703125" lon="-72.97328059561550617218017578125">
        <ele>482.79998779296875</ele>
        <time>2023-01-11T12:31:38.000Z</time>
      </trkpt>
      <trkpt lat="-49.233647324144840240478515625" lon="-72.973325438797473907470703125">
        <ele>482.79998779296875</ele>
        <time>2023-01-11T12:31:42.000Z</time>
      </trkpt>
      <trkpt lat="-49.233626537024974822998046875" lon="-72.97337044961750507354736328125">
        <ele>482.79998779296875</ele>
        <time>2023-01-11T12:31:48.000Z</time>
      </trkpt>
      <trkpt lat="-49.23362846486270427703857421875" lon="-72.97339509241282939910888671875">
        <ele>482.79998779296875</ele>
        <time>2023-01-11T12:31:55.000Z</time>
      </trkpt>
      <trkpt lat="-49.23363014124333858489990234375" lon="-72.97343306243419647216796875">
        <ele>482.79998779296875</ele>
        <time>2023-01-11T12:32:02.000Z</time>
      </trkpt>
      <trkpt lat="-49.23362628556787967681884765625" lon="-72.973436079919338226318359375">
        <ele>482.79998779296875</ele>
        <time>2023-01-11T12:32:09.000Z</time>
      </trkpt>
      <trkpt lat="-49.2335881479084491729736328125" lon="-72.97353230416774749755859375">
        <ele>482.79998779296875</ele>
        <time>2023-01-11T12:32:18.000Z</time>
      </trkpt>
      <trkpt lat="-49.23358169384300708770751953125" lon="-72.9735519178211688995361328125">
        <ele>482.79998779296875</ele>
        <time>2023-01-11T12:32:19.000Z</time>
      </trkpt>
      <trkpt lat="-49.23358655534684658050537109375" lon="-72.973592989146709442138671875">
        <ele>482.79998779296875</ele>
        <time>2023-01-11T12:32:21.000Z</time>
      </trkpt>
      <trkpt lat="-49.23358873464167118072509765625" lon="-72.97366901300847530364990234375">
        <ele>482.79998779296875</ele>
        <time>2023-01-11T12:32:25.000Z</time>
      </trkpt>
      <trkpt lat="-49.233576916158199310302734375" lon="-72.97370354644954204559326171875">
        <ele>482.79998779296875</ele>
        <time>2023-01-11T12:32:28.000Z</time>
      </trkpt>
      <trkpt lat="-49.23357046209275722503662109375" lon="-72.97373506240546703338623046875">
        <ele>482.79998779296875</ele>
        <time>2023-01-11T12:32:31.000Z</time>
      </trkpt>
      <trkpt lat="-49.23355403356254100799560546875" lon="-72.9737698473036289215087890625">
        <ele>482.79998779296875</ele>
        <time>2023-01-11T12:32:36.000Z</time>
      </trkpt>
      <trkpt lat="-49.2335298098623752593994140625" lon="-72.97381871379911899566650390625">
        <ele>482.79998779296875</ele>
        <time>2023-01-11T12:32:41.000Z</time>
      </trkpt>
      <trkpt lat="-49.23352553509175777435302734375" lon="-72.9738271795213222503662109375">
        <ele>482.79998779296875</ele>
        <time>2023-01-11T12:32:42.000Z</time>
      </trkpt>
      <trkpt lat="-49.2334704659879207611083984375" lon="-72.973904125392436981201171875">
        <ele>482.79998779296875</ele>
        <time>2023-01-11T12:32:50.000Z</time>
      </trkpt>
      <trkpt lat="-49.23346485011279582977294921875" lon="-72.9739277623593807220458984375">
        <ele>482.79998779296875</ele>
        <time>2023-01-11T12:32:53.000Z</time>
      </trkpt>
      <trkpt lat="-49.23346468247473239898681640625" lon="-72.97396690584719181060791015625">
        <ele>482.79998779296875</ele>
        <time>2023-01-11T12:32:56.000Z</time>
      </trkpt>
      <trkpt lat="-49.23346065916121006011962890625" lon="-72.9739991761744022369384765625">
        <ele>486.600006103515625</ele>
        <time>2023-01-11T12:32:58.000Z</time>
      </trkpt>
      <trkpt lat="-49.233409278094768524169921875" lon="-72.97409833408892154693603515625">
        <ele>486.79998779296875</ele>
        <time>2023-01-11T12:33:05.000Z</time>
      </trkpt>
      <trkpt lat="-49.233394525945186614990234375" lon="-72.97415046952664852142333984375">
        <ele>486.79998779296875</ele>
        <time>2023-01-11T12:33:07.000Z</time>
      </trkpt>
      <trkpt lat="-49.23334934748709201812744140625" lon="-72.9742382280528545379638671875">
        <ele>486.600006103515625</ele>
        <time>2023-01-11T12:33:13.000Z</time>
      </trkpt>
      <trkpt lat="-49.23324130475521087646484375" lon="-72.9742858372628688812255859375">
        <ele>486.399993896484375</ele>
        <time>2023-01-11T12:33:22.000Z</time>
      </trkpt>
      <trkpt lat="-49.23321238718926906585693359375" lon="-72.97427351586520671844482421875">
        <ele>486.399993896484375</ele>
        <time>2023-01-11T12:33:24.000Z</time>
      </trkpt>
      <trkpt lat="-49.2331827990710735321044921875" lon="-72.97432296909391880035400390625">
        <ele>486.20001220703125</ele>
        <time>2023-01-11T12:33:28.000Z</time>
      </trkpt>
      <trkpt lat="-49.233097136020660400390625" lon="-72.9743887670338153839111328125">
        <ele>485.79998779296875</ele>
        <time>2023-01-11T12:33:38.000Z</time>
      </trkpt>
      <trkpt lat="-49.2330781929194927215576171875" lon="-72.97441299073398113250732421875">
        <ele>485.79998779296875</ele>
        <time>2023-01-11T12:33:40.000Z</time>
      </trkpt>
      <trkpt lat="-49.23304391093552112579345703125" lon="-72.97446479089558124542236328125">
        <ele>486</ele>
        <time>2023-01-11T12:33:45.000Z</time>
      </trkpt>
      <trkpt lat="-49.2330312542617321014404296875" lon="-72.97446780838072299957275390625">
        <ele>486.20001220703125</ele>
        <time>2023-01-11T12:33:46.000Z</time>
      </trkpt>
      <trkpt lat="-49.23302429728209972381591796875" lon="-72.9744786210358142852783203125">
        <ele>486.20001220703125</ele>
        <time>2023-01-11T12:33:47.000Z</time>
      </trkpt>
      <trkpt lat="-49.2330195195972919464111328125" lon="-72.974512986838817596435546875">
        <ele>486.399993896484375</ele>
        <time>2023-01-11T12:33:49.000Z</time>
      </trkpt>
      <trkpt lat="-49.23301859758794307708740234375" lon="-72.97453201375901699066162109375">
        <ele>486.399993896484375</ele>
        <time>2023-01-11T12:33:50.000Z</time>
      </trkpt>
      <trkpt lat="-49.233025722205638885498046875" lon="-72.97455280087888240814208984375">
        <ele>486.399993896484375</ele>
        <time>2023-01-11T12:33:51.000Z</time>
      </trkpt>
      <trkpt lat="-49.233025722205638885498046875" lon="-72.97456386499106884002685546875">
        <ele>486.399993896484375</ele>
        <time>2023-01-11T12:33:52.000Z</time>
      </trkpt>
      <trkpt lat="-49.23304089345037937164306640625" lon="-72.9746554791927337646484375">
        <ele>486.600006103515625</ele>
        <time>2023-01-11T12:33:58.000Z</time>
      </trkpt>
      <trkpt lat="-49.23306486569344997406005859375" lon="-72.97473468817770481109619140625">
        <ele>487</ele>
        <time>2023-01-11T12:34:04.000Z</time>
      </trkpt>
      <trkpt lat="-49.2330684699118137359619140625" lon="-72.97475011087954044342041015625">
        <ele>487.20001220703125</ele>
        <time>2023-01-11T12:34:05.000Z</time>
      </trkpt>
      <trkpt lat="-49.2331011593341827392578125" lon="-72.9748360253870487213134765625">
        <ele>487.600006103515625</ele>
        <time>2023-01-11T12:34:12.000Z</time>
      </trkpt>
      <trkpt lat="-49.23311884514987468719482421875" lon="-72.97486938536167144775390625">
        <ele>487.600006103515625</ele>
        <time>2023-01-11T12:34:14.000Z</time>
      </trkpt>
      <trkpt lat="-49.2331455834209918975830078125" lon="-72.975002825260162353515625">
        <ele>488.20001220703125</ele>
        <time>2023-01-11T12:34:21.000Z</time>
      </trkpt>
      <trkpt lat="-49.23314985819160938262939453125" lon="-72.97502688132226467132568359375">
        <ele>488.20001220703125</ele>
        <time>2023-01-11T12:34:22.000Z</time>
      </trkpt>
      <trkpt lat="-49.23314700834453105926513671875" lon="-72.9750623367726802825927734375">
        <ele>488.20001220703125</ele>
        <time>2023-01-11T12:34:24.000Z</time>
      </trkpt>
      <trkpt lat="-49.23314080573618412017822265625" lon="-72.97508538700640201568603515625">
        <ele>488.600006103515625</ele>
        <time>2023-01-11T12:34:26.000Z</time>
      </trkpt>
      <trkpt lat="-49.2331341840326786041259765625" lon="-72.97510231845080852508544921875">
        <ele>488.600006103515625</ele>
        <time>2023-01-11T12:34:27.000Z</time>
      </trkpt>
      <trkpt lat="-49.233140051364898681640625" lon="-72.975200973451137542724609375">
        <ele>489</ele>
        <time>2023-01-11T12:34:33.000Z</time>
      </trkpt>
      <trkpt lat="-49.2331539653241634368896484375" lon="-72.97528370283544063568115234375">
        <ele>489.20001220703125</ele>
        <time>2023-01-11T12:34:38.000Z</time>
      </trkpt>
      <trkpt lat="-49.233152456581592559814453125" lon="-72.97531387768685817718505859375">
        <ele>489.20001220703125</ele>
        <time>2023-01-11T12:34:40.000Z</time>
      </trkpt>
      <trkpt lat="-49.2331467568874359130859375" lon="-72.975323684513568878173828125">
        <ele>489.399993896484375</ele>
        <time>2023-01-11T12:34:41.000Z</time>
      </trkpt>
      <trkpt lat="-49.23312353901565074920654296875" lon="-72.97539467923343181610107421875">
        <ele>489.600006103515625</ele>
        <time>2023-01-11T12:34:46.000Z</time>
      </trkpt>
      <trkpt lat="-49.2330926097929477691650390625" lon="-72.97550297342240810394287109375">
        <ele>490</ele>
        <time>2023-01-11T12:34:52.000Z</time>
      </trkpt>
      <trkpt lat="-49.2330798693001270294189453125" lon="-72.9755618982017040252685546875">
        <ele>490</ele>
        <time>2023-01-11T12:34:55.000Z</time>
      </trkpt>
      <trkpt lat="-49.23305916599929332733154296875" lon="-72.9756017960608005523681640625">
        <ele>490</ele>
        <time>2023-01-11T12:34:58.000Z</time>
      </trkpt>
      <trkpt lat="-49.23302999697625637054443359375" lon="-72.97568921931087970733642578125">
        <ele>489.79998779296875</ele>
        <time>2023-01-11T12:35:03.000Z</time>
      </trkpt>
      <trkpt lat="-49.23302630893886089324951171875" lon="-72.97570564784109592437744140625">
        <ele>489.79998779296875</ele>
        <time>2023-01-11T12:35:04.000Z</time>
      </trkpt>
      <trkpt lat="-49.23303485848009586334228515625" lon="-72.975821234285831451416015625">
        <ele>489.399993896484375</ele>
        <time>2023-01-11T12:35:11.000Z</time>
      </trkpt>
      <trkpt lat="-49.2330413125455379486083984375" lon="-72.97583137638866901397705078125">
        <ele>489.399993896484375</ele>
        <time>2023-01-11T12:35:12.000Z</time>
      </trkpt>
      <trkpt lat="-49.2331023328006267547607421875" lon="-72.9759159497916698455810546875">
        <ele>489.79998779296875</ele>
        <time>2023-01-11T12:35:20.000Z</time>
      </trkpt>
      <trkpt lat="-49.23313158564269542694091796875" lon="-72.9760296083986759185791015625">
        <ele>489.79998779296875</ele>
        <time>2023-01-11T12:35:26.000Z</time>
      </trkpt>
      <trkpt lat="-49.2331194318830966949462890625" lon="-72.97605098225176334381103515625">
        <ele>489.79998779296875</ele>
        <time>2023-01-11T12:35:27.000Z</time>
      </trkpt>
      <trkpt lat="-49.23306151293218135833740234375" lon="-72.976134717464447021484375">
        <ele>489.399993896484375</ele>
        <time>2023-01-11T12:35:32.000Z</time>
      </trkpt>
      <trkpt lat="-49.2329965531826019287109375" lon="-72.97618408687412738800048828125">
        <ele>489.20001220703125</ele>
        <time>2023-01-11T12:35:38.000Z</time>
      </trkpt>
      <trkpt lat="-49.23298791982233524322509765625" lon="-72.9762233980000019073486328125">
        <ele>489</ele>
        <time>2023-01-11T12:35:40.000Z</time>
      </trkpt>
      <trkpt lat="-49.23292807303369045257568359375" lon="-72.9763648845255374908447265625">
        <ele>488.79998779296875</ele>
        <time>2023-01-11T12:35:48.000Z</time>
      </trkpt>
      <trkpt lat="-49.23291030339896678924560546875" lon="-72.9763793013989925384521484375">
        <ele>488.600006103515625</ele>
        <time>2023-01-11T12:35:49.000Z</time>
      </trkpt>
      <trkpt lat="-49.232868142426013946533203125" lon="-72.97644174657762050628662109375">
        <ele>488.600006103515625</ele>
        <time>2023-01-11T12:35:54.000Z</time>
      </trkpt>
      <trkpt lat="-49.2328570783138275146484375" lon="-72.97645448707044124603271484375">
        <ele>488.600006103515625</ele>
        <time>2023-01-11T12:35:55.000Z</time>
      </trkpt>
      <trkpt lat="-49.23282899893820285797119140625" lon="-72.97653813846409320831298828125">
        <ele>488.600006103515625</ele>
        <time>2023-01-11T12:36:00.000Z</time>
      </trkpt>
      <trkpt lat="-49.2328280769288539886474609375" lon="-72.97664391808211803436279296875">
        <ele>488.600006103515625</ele>
        <time>2023-01-11T12:36:07.000Z</time>
      </trkpt>
      <trkpt lat="-49.232830591499805450439453125" lon="-72.97666101716458797454833984375">
        <ele>488.600006103515625</ele>
        <time>2023-01-11T12:36:08.000Z</time>
      </trkpt>
      <trkpt lat="-49.23281625844538211822509765625" lon="-72.9767685569822788238525390625">
        <ele>488.79998779296875</ele>
        <time>2023-01-11T12:36:15.000Z</time>
      </trkpt>
      <trkpt lat="-49.2327616922557353973388671875" lon="-72.97685229219496250152587890625">
        <ele>488.79998779296875</ele>
        <time>2023-01-11T12:36:22.000Z</time>
      </trkpt>
      <trkpt lat="-49.232725985348224639892578125" lon="-72.9768486879765987396240234375">
        <ele>489</ele>
        <time>2023-01-11T12:36:23.000Z</time>
      </trkpt>
      <trkpt lat="-49.23270427621901035308837890625" lon="-72.97687643207609653472900390625">
        <ele>489</ele>
        <time>2023-01-11T12:36:25.000Z</time>
      </trkpt>
      <trkpt lat="-49.232716597616672515869140625" lon="-72.97694952227175235748291015625">
        <ele>489</ele>
        <time>2023-01-11T12:36:29.000Z</time>
      </trkpt>
      <trkpt lat="-49.23273009248077869415283203125" lon="-72.9769968800246715545654296875">
        <ele>489</ele>
        <time>2023-01-11T12:36:33.000Z</time>
      </trkpt>
      <trkpt lat="-49.2327288351953029632568359375" lon="-72.9770099557936191558837890625">
        <ele>489.20001220703125</ele>
        <time>2023-01-11T12:36:34.000Z</time>
      </trkpt>
      <trkpt lat="-49.23272573389112949371337890625" lon="-72.9770213551819324493408203125">
        <ele>489.20001220703125</ele>
        <time>2023-01-11T12:36:35.000Z</time>
      </trkpt>
      <trkpt lat="-49.2327229678630828857421875" lon="-72.97707818448543548583984375">
        <ele>489.399993896484375</ele>
        <time>2023-01-11T12:36:41.000Z</time>
      </trkpt>
      <trkpt lat="-49.2326906137168407440185546875" lon="-72.97712738625705242156982421875">
        <ele>489.399993896484375</ele>
        <time>2023-01-11T12:36:43.000Z</time>
      </trkpt>
      <trkpt lat="-49.2326852492988109588623046875" lon="-72.9771899990737438201904296875">
        <ele>489.399993896484375</ele>
        <time>2023-01-11T12:36:45.000Z</time>
      </trkpt>
      <trkpt lat="-49.232651889324188232421875" lon="-72.9772436432540416717529296875">
        <ele>489.399993896484375</ele>
        <time>2023-01-11T12:36:48.000Z</time>
      </trkpt>
      <trkpt lat="-49.23265230841934680938720703125" lon="-72.97730994410812854766845703125">
        <ele>489.399993896484375</ele>
        <time>2023-01-11T12:36:51.000Z</time>
      </trkpt>
      <trkpt lat="-49.2326644621789455413818359375" lon="-72.97739510424435138702392578125">
        <ele>489.399993896484375</ele>
        <time>2023-01-11T12:36:55.000Z</time>
      </trkpt>
      <trkpt lat="-49.2326668091118335723876953125" lon="-72.9775254428386688232421875">
        <ele>489.600006103515625</ele>
        <time>2023-01-11T12:37:04.000Z</time>
      </trkpt>
      <trkpt lat="-49.23266387544572353363037109375" lon="-72.97753952443599700927734375">
        <ele>489.600006103515625</ele>
        <time>2023-01-11T12:37:05.000Z</time>
      </trkpt>
      <trkpt lat="-49.232657253742218017578125" lon="-72.9775725491344928741455078125">
        <ele>489.79998779296875</ele>
        <time>2023-01-11T12:37:07.000Z</time>
      </trkpt>
      <trkpt lat="-49.232667647302150726318359375" lon="-72.97760264016687870025634765625">
        <ele>489.79998779296875</ele>
        <time>2023-01-11T12:37:09.000Z</time>
      </trkpt>
      <trkpt lat="-49.23267175443470478057861328125" lon="-72.977689392864704132080078125">
        <ele>490</ele>
        <time>2023-01-11T12:37:13.000Z</time>
      </trkpt>
      <trkpt lat="-49.2326839081943035125732421875" lon="-72.97775535844266414642333984375">
        <ele>490</ele>
        <time>2023-01-11T12:37:18.000Z</time>
      </trkpt>
      <trkpt lat="-49.2326882667839527130126953125" lon="-72.97779458574950695037841796875">
        <ele>490.20001220703125</ele>
        <time>2023-01-11T12:37:20.000Z</time>
      </trkpt>
      <trkpt lat="-49.23269555903971195220947265625" lon="-72.977874465286731719970703125">
        <ele>490.20001220703125</ele>
        <time>2023-01-11T12:37:26.000Z</time>
      </trkpt>
      <trkpt lat="-49.23269086517393589019775390625" lon="-72.97788913361728191375732421875">
        <ele>490.20001220703125</ele>
        <time>2023-01-11T12:37:27.000Z</time>
      </trkpt>
      <trkpt lat="-49.2326612770557403564453125" lon="-72.977948896586894989013671875">
        <ele>490.20001220703125</ele>
        <time>2023-01-11T12:37:31.000Z</time>
      </trkpt>
      <trkpt lat="-49.23265297897160053253173828125" lon="-72.97798418439924716949462890625">
        <ele>490.20001220703125</ele>
        <time>2023-01-11T12:37:33.000Z</time>
      </trkpt>
      <trkpt lat="-49.2326450161635875701904296875" lon="-72.97801561653614044189453125">
        <ele>490.20001220703125</ele>
        <time>2023-01-11T12:37:35.000Z</time>
      </trkpt>
      <trkpt lat="-49.23263923265039920806884765625" lon="-72.97802626155316829681396484375">
        <ele>490.20001220703125</ele>
        <time>2023-01-11T12:37:36.000Z</time>
      </trkpt>
      <trkpt lat="-49.2326295934617519378662109375" lon="-72.9780563525855541229248046875">
        <ele>490.399993896484375</ele>
        <time>2023-01-11T12:37:39.000Z</time>
      </trkpt>
      <trkpt lat="-49.2326208762824535369873046875" lon="-72.97808962874114513397216796875">
        <ele>490.399993896484375</ele>
        <time>2023-01-11T12:37:41.000Z</time>
      </trkpt>
      <trkpt lat="-49.232621379196643829345703125" lon="-72.97820647247135639190673828125">
        <ele>490.399993896484375</ele>
        <time>2023-01-11T12:37:49.000Z</time>
      </trkpt>
      <trkpt lat="-49.23264090903103351593017578125" lon="-72.978202365338802337646484375">
        <ele>490.600006103515625</ele>
        <time>2023-01-11T12:37:55.000Z</time>
      </trkpt>
      <trkpt lat="-49.2326631210744380950927734375" lon="-72.97823748551309108734130859375">
        <ele>490.600006103515625</ele>
        <time>2023-01-11T12:37:57.000Z</time>
      </trkpt>
      <trkpt lat="-49.23266873694956302642822265625" lon="-72.97826112248003482818603515625">
        <ele>490.600006103515625</ele>
        <time>2023-01-11T12:37:59.000Z</time>
      </trkpt>
      <trkpt lat="-49.23266991041600704193115234375" lon="-72.97828651964664459228515625">
        <ele>490.79998779296875</ele>
        <time>2023-01-11T12:38:03.000Z</time>
      </trkpt>
      <trkpt lat="-49.2326416634023189544677734375" lon="-72.97831862233579158782958984375">
        <ele>490.79998779296875</ele>
        <time>2023-01-11T12:38:10.000Z</time>
      </trkpt>
      <trkpt lat="-49.2326450161635875701904296875" lon="-72.978361286222934722900390625">
        <ele>491</ele>
        <time>2023-01-11T12:38:17.000Z</time>
      </trkpt>
      <trkpt lat="-49.23265281133353710174560546875" lon="-72.97845407389104366302490234375">
        <ele>491.399993896484375</ele>
        <time>2023-01-11T12:38:25.000Z</time>
      </trkpt>
      <trkpt lat="-49.23267133533954620361328125" lon="-72.97856387682259082794189453125">
        <ele>491.600006103515625</ele>
        <time>2023-01-11T12:38:31.000Z</time>
      </trkpt>
      <trkpt lat="-49.23268181271851062774658203125" lon="-72.97865708358585834503173828125">
        <ele>491.600006103515625</ele>
        <time>2023-01-11T12:38:37.000Z</time>
      </trkpt>
      <trkpt lat="-49.232679717242717742919921875" lon="-72.97868549823760986328125">
        <ele>491.79998779296875</ele>
        <time>2023-01-11T12:38:39.000Z</time>
      </trkpt>
      <trkpt lat="-49.2326748557388782501220703125" lon="-72.9787292517721652984619140625">
        <ele>491.79998779296875</ele>
        <time>2023-01-11T12:38:42.000Z</time>
      </trkpt>
      <trkpt lat="-49.2326694913208484649658203125" lon="-72.97875112853944301605224609375">
        <ele>492</ele>
        <time>2023-01-11T12:38:44.000Z</time>
      </trkpt>
      <trkpt lat="-49.23264862038195133209228515625" lon="-72.97886051237583160400390625">
        <ele>492</ele>
        <time>2023-01-11T12:38:52.000Z</time>
      </trkpt>
      <trkpt lat="-49.23264543525874614715576171875" lon="-72.97892153263092041015625">
        <ele>492.20001220703125</ele>
        <time>2023-01-11T12:38:57.000Z</time>
      </trkpt>
      <trkpt lat="-49.2326359637081623077392578125" lon="-72.97894902527332305908203125">
        <ele>492.399993896484375</ele>
        <time>2023-01-11T12:39:00.000Z</time>
      </trkpt>
      <trkpt lat="-49.23263118602335453033447265625" lon="-72.97900157980620861053466796875">
        <ele>492.399993896484375</ele>
        <time>2023-01-11T12:39:04.000Z</time>
      </trkpt>
      <trkpt lat="-49.2326362989842891693115234375" lon="-72.9791339300572872161865234375">
        <ele>492.600006103515625</ele>
        <time>2023-01-11T12:39:10.000Z</time>
      </trkpt>
      <trkpt lat="-49.232617355883121490478515625" lon="-72.97921590507030487060546875">
        <ele>492.79998779296875</ele>
        <time>2023-01-11T12:39:15.000Z</time>
      </trkpt>
      <trkpt lat="-49.232616685330867767333984375" lon="-72.97925521619617938995361328125">
        <ele>492.79998779296875</ele>
        <time>2023-01-11T12:39:17.000Z</time>
      </trkpt>
      <trkpt lat="-49.2325995862483978271484375" lon="-72.9794112034142017364501953125">
        <ele>493</ele>
        <time>2023-01-11T12:39:25.000Z</time>
      </trkpt>
      <trkpt lat="-49.23258441500365734100341796875" lon="-72.9795692861080169677734375">
        <ele>492.79998779296875</ele>
        <time>2023-01-11T12:39:34.000Z</time>
      </trkpt>
      <trkpt lat="-49.23259355127811431884765625" lon="-72.97964815981686115264892578125">
        <ele>493</ele>
        <time>2023-01-11T12:39:39.000Z</time>
      </trkpt>
      <trkpt lat="-49.232609309256076812744140625" lon="-72.97971722669899463653564453125">
        <ele>493</ele>
        <time>2023-01-11T12:39:42.000Z</time>
      </trkpt>
      <trkpt lat="-49.2325608618557453155517578125" lon="-72.979800291359424591064453125">
        <ele>493.20001220703125</ele>
        <time>2023-01-11T12:39:48.000Z</time>
      </trkpt>
      <trkpt lat="-49.23255591653287410736083984375" lon="-72.97981244511902332305908203125">
        <ele>493.20001220703125</ele>
        <time>2023-01-11T12:39:49.000Z</time>
      </trkpt>
      <trkpt lat="-49.23255734145641326904296875" lon="-72.979846894741058349609375">
        <ele>493.20001220703125</ele>
        <time>2023-01-11T12:39:51.000Z</time>
      </trkpt>
      <trkpt lat="-49.2325501330196857452392578125" lon="-72.97986458055675029754638671875">
        <ele>493.20001220703125</ele>
        <time>2023-01-11T12:39:53.000Z</time>
      </trkpt>
      <trkpt lat="-49.23254384659230709075927734375" lon="-72.97988243401050567626953125">
        <ele>493.20001220703125</ele>
        <time>2023-01-11T12:39:54.000Z</time>
      </trkpt>
      <trkpt lat="-49.2325337044894695281982421875" lon="-72.97992895357310771942138671875">
        <ele>493.20001220703125</ele>
        <time>2023-01-11T12:39:56.000Z</time>
      </trkpt>
      <trkpt lat="-49.2325447686016559600830078125" lon="-72.9799704439938068389892578125">
        <ele>493.20001220703125</ele>
        <time>2023-01-11T12:39:58.000Z</time>
      </trkpt>
      <trkpt lat="-49.23255407251417636871337890625" lon="-72.980023920536041259765625">
        <ele>493.20001220703125</ele>
        <time>2023-01-11T12:40:01.000Z</time>
      </trkpt>
      <trkpt lat="-49.2325581796467304229736328125" lon="-72.9800386726856231689453125">
        <ele>493.20001220703125</ele>
        <time>2023-01-11T12:40:02.000Z</time>
      </trkpt>
      <trkpt lat="-49.23257268033921718597412109375" lon="-72.98007630743086338043212890625">
        <ele>493.20001220703125</ele>
        <time>2023-01-11T12:40:05.000Z</time>
      </trkpt>
      <trkpt lat="-49.23255407251417636871337890625" lon="-72.9800720326602458953857421875">
        <ele>493.20001220703125</ele>
        <time>2023-01-11T12:40:08.000Z</time>
      </trkpt>
      <trkpt lat="-49.23255507834255695343017578125" lon="-72.98011486418545246124267578125">
        <ele>493</ele>
        <time>2023-01-11T12:40:18.000Z</time>
      </trkpt>
      <trkpt lat="-49.23255507834255695343017578125" lon="-72.98011486418545246124267578125">
        <ele>493.20001220703125</ele>
        <time>2023-01-11T12:40:21.000Z</time>
      </trkpt>
      <trkpt lat="-49.23255507834255695343017578125" lon="-72.98011486418545246124267578125">
        <ele>493.20001220703125</ele>
        <time>2023-01-11T12:40:23.000Z</time>
      </trkpt>
      <trkpt lat="-49.2325347103178501129150390625" lon="-72.9801900498569011688232421875">
        <ele>493.399993896484375</ele>
        <time>2023-01-11T12:40:41.000Z</time>
      </trkpt>
      <trkpt lat="-49.23251308500766754150390625" lon="-72.980363555252552032470703125">
        <ele>493.79998779296875</ele>
        <time>2023-01-11T12:40:49.000Z</time>
      </trkpt>
      <trkpt lat="-49.2325152643024921417236328125" lon="-72.9803801514208316802978515625">
        <ele>493.79998779296875</ele>
        <time>2023-01-11T12:40:50.000Z</time>
      </trkpt>
      <trkpt lat="-49.23251417465507984161376953125" lon="-72.98047679476439952850341796875">
        <ele>493.79998779296875</ele>
        <time>2023-01-11T12:40:55.000Z</time>
      </trkpt>
      <trkpt lat="-49.232479222118854522705078125" lon="-72.98063303343951702117919921875">
        <ele>493.600006103515625</ele>
        <time>2023-01-11T12:41:03.000Z</time>
      </trkpt>
      <trkpt lat="-49.23248215578496456146240234375" lon="-72.98069489188492298126220703125">
        <ele>493.399993896484375</ele>
        <time>2023-01-11T12:41:06.000Z</time>
      </trkpt>
      <trkpt lat="-49.232475869357585906982421875" lon="-72.98086320050060749053955078125">
        <ele>493.399993896484375</ele>
        <time>2023-01-11T12:41:16.000Z</time>
      </trkpt>
      <trkpt lat="-49.23242993652820587158203125" lon="-72.98108783550560474395751953125">
        <ele>493.399993896484375</ele>
        <time>2023-01-11T12:41:26.000Z</time>
      </trkpt>
      <trkpt lat="-49.23243991099298000335693359375" lon="-72.98111817799508571624755859375">
        <ele>493.399993896484375</ele>
        <time>2023-01-11T12:41:27.000Z</time>
      </trkpt>
      <trkpt lat="-49.23244334757328033447265625" lon="-72.98115556128323078155517578125">
        <ele>493.399993896484375</ele>
        <time>2023-01-11T12:41:29.000Z</time>
      </trkpt>
      <trkpt lat="-49.23244292847812175750732421875" lon="-72.98119939863681793212890625">
        <ele>493.399993896484375</ele>
        <time>2023-01-11T12:41:32.000Z</time>
      </trkpt>
      <trkpt lat="-49.2324413359165191650390625" lon="-72.98121188767254352569580078125">
        <ele>493.399993896484375</ele>
        <time>2023-01-11T12:41:33.000Z</time>
      </trkpt>
      <trkpt lat="-49.23244477249681949615478515625" lon="-72.9812900908291339874267578125">
        <ele>493.399993896484375</ele>
        <time>2023-01-11T12:41:39.000Z</time>
      </trkpt>
      <trkpt lat="-49.23248047940433025360107421875" lon="-72.98143954016268253326416015625">
        <ele>493.399993896484375</ele>
        <time>2023-01-11T12:41:48.000Z</time>
      </trkpt>
      <trkpt lat="-49.232459105551242828369140625" lon="-72.9815107025206089019775390625">
        <ele>493.399993896484375</ele>
        <time>2023-01-11T12:41:54.000Z</time>
      </trkpt>
      <trkpt lat="-49.23247125931084156036376953125" lon="-72.98162779770791530609130859375">
        <ele>493.399993896484375</ele>
        <time>2023-01-11T12:42:00.000Z</time>
      </trkpt>
      <trkpt lat="-49.2324627935886383056640625" lon="-72.9817353375256061553955078125">
        <ele>493.399993896484375</ele>
        <time>2023-01-11T12:42:06.000Z</time>
      </trkpt>
      <trkpt lat="-49.232451058924198150634765625" lon="-72.981744892895221710205078125">
        <ele>496</ele>
        <time>2023-01-11T12:42:07.000Z</time>
      </trkpt>
      <trkpt lat="-49.232427589595317840576171875" lon="-72.981785796582698822021484375">
        <ele>496</ele>
        <time>2023-01-11T12:42:10.000Z</time>
      </trkpt>
      <trkpt lat="-49.23234812915325164794921875" lon="-72.98184757120907306671142578125">
        <ele>495.79998779296875</ele>
        <time>2023-01-11T12:42:17.000Z</time>
      </trkpt>
      <trkpt lat="-49.232340417802333831787109375" lon="-72.98193725757300853729248046875">
        <ele>496</ele>
        <time>2023-01-11T12:42:24.000Z</time>
      </trkpt>
      <trkpt lat="-49.23231854103505611419677734375" lon="-72.982006408274173736572265625">
        <ele>496</ele>
        <time>2023-01-11T12:42:31.000Z</time>
      </trkpt>
      <trkpt lat="-49.232296161353588104248046875" lon="-72.982037924230098724365234375">
        <ele>495.79998779296875</ele>
        <time>2023-01-11T12:42:34.000Z</time>
      </trkpt>
      <trkpt lat="-49.23227177001535892486572265625" lon="-72.982064746320247650146484375">
        <ele>495.79998779296875</ele>
        <time>2023-01-11T12:42:38.000Z</time>
      </trkpt>
      <trkpt lat="-49.2322604544460773468017578125" lon="-72.9820699431002140045166015625">
        <ele>495.79998779296875</ele>
        <time>2023-01-11T12:42:39.000Z</time>
      </trkpt>
      <trkpt lat="-49.23220865428447723388671875" lon="-72.9821638204157352447509765625">
        <ele>496.20001220703125</ele>
        <time>2023-01-11T12:42:48.000Z</time>
      </trkpt>
      <trkpt lat="-49.23219314776360988616943359375" lon="-72.982271946966648101806640625">
        <ele>496</ele>
        <time>2023-01-11T12:42:55.000Z</time>
      </trkpt>
      <trkpt lat="-49.232184849679470062255859375" lon="-72.98230580985546112060546875">
        <ele>496.20001220703125</ele>
        <time>2023-01-11T12:42:57.000Z</time>
      </trkpt>
      <trkpt lat="-49.2321570217609405517578125" lon="-72.9823612980544567108154296875">
        <ele>496.399993896484375</ele>
        <time>2023-01-11T12:43:02.000Z</time>
      </trkpt>
      <trkpt lat="-49.23211880028247833251953125" lon="-72.98248074017465114593505859375">
        <ele>496.79998779296875</ele>
        <time>2023-01-11T12:43:11.000Z</time>
      </trkpt>
      <trkpt lat="-49.23212709836661815643310546875" lon="-72.9825302772223949432373046875">
        <ele>497.20001220703125</ele>
        <time>2023-01-11T12:43:14.000Z</time>
      </trkpt>
      <trkpt lat="-49.232128523290157318115234375" lon="-72.98259456641972064971923828125">
        <ele>497.600006103515625</ele>
        <time>2023-01-11T12:43:17.000Z</time>
      </trkpt>
      <trkpt lat="-49.232128523290157318115234375" lon="-72.98262524418532848358154296875">
        <ele>497.600006103515625</ele>
        <time>2023-01-11T12:43:19.000Z</time>
      </trkpt>
      <trkpt lat="-49.23211620189249515533447265625" lon="-72.98263697884976863861083984375">
        <ele>497.600006103515625</ele>
        <time>2023-01-11T12:43:20.000Z</time>
      </trkpt>
      <trkpt lat="-49.2320861108601093292236328125" lon="-72.9826633818447589874267578125">
        <ele>497.600006103515625</ele>
        <time>2023-01-11T12:43:23.000Z</time>
      </trkpt>
      <trkpt lat="-49.23206993378698825836181640625" lon="-72.9826670698821544647216796875">
        <ele>497.600006103515625</ele>
        <time>2023-01-11T12:43:24.000Z</time>
      </trkpt>
      <trkpt lat="-49.23204160295426845550537109375" lon="-72.98273588530719280242919921875">
        <ele>497.600006103515625</ele>
        <time>2023-01-11T12:43:29.000Z</time>
      </trkpt>
      <trkpt lat="-49.23203288577497005462646484375" lon="-72.9827678203582763671875">
        <ele>497.600006103515625</ele>
        <time>2023-01-11T12:43:31.000Z</time>
      </trkpt>
      <trkpt lat="-49.23201411031186580657958984375" lon="-72.9828011803328990936279296875">
        <ele>497.600006103515625</ele>
        <time>2023-01-11T12:43:34.000Z</time>
      </trkpt>
      <trkpt lat="-49.23198334872722625732421875" lon="-72.98282758332788944244384765625">
        <ele>497.600006103515625</ele>
        <time>2023-01-11T12:43:36.000Z</time>
      </trkpt>
      <trkpt lat="-49.23188008368015289306640625" lon="-72.98291291110217571258544921875">
        <ele>497.399993896484375</ele>
        <time>2023-01-11T12:43:42.000Z</time>
      </trkpt>
      <trkpt lat="-49.23184060491621494293212890625" lon="-72.98292716033756732940673828125">
        <ele>497</ele>
        <time>2023-01-11T12:43:44.000Z</time>
      </trkpt>
      <trkpt lat="-49.23183758743107318878173828125" lon="-72.9829772002995014190673828125">
        <ele>496.79998779296875</ele>
        <time>2023-01-11T12:43:48.000Z</time>
      </trkpt>
      <trkpt lat="-49.23184462822973728179931640625" lon="-72.98301148228347301483154296875">
        <ele>496.600006103515625</ele>
        <time>2023-01-11T12:43:50.000Z</time>
      </trkpt>
      <trkpt lat="-49.23185435123741626739501953125" lon="-72.98307484947144985198974609375">
        <ele>496.600006103515625</ele>
        <time>2023-01-11T12:43:54.000Z</time>
      </trkpt>
      <trkpt lat="-49.2318527586758136749267578125" lon="-72.983140982687473297119140625">
        <ele>496.79998779296875</ele>
        <time>2023-01-11T12:43:58.000Z</time>
      </trkpt>
      <trkpt lat="-49.23184228129684925079345703125" lon="-72.9832544736564159393310546875">
        <ele>497.20001220703125</ele>
        <time>2023-01-11T12:44:05.000Z</time>
      </trkpt>
      <trkpt lat="-49.2318271100521087646484375" lon="-72.9833413101732730865478515625">
        <ele>497.20001220703125</ele>
        <time>2023-01-11T12:44:10.000Z</time>
      </trkpt>
      <trkpt lat="-49.23180389218032360076904296875" lon="-72.98336838372051715850830078125">
        <ele>497.20001220703125</ele>
        <time>2023-01-11T12:44:12.000Z</time>
      </trkpt>
      <trkpt lat="-49.23172610811889171600341796875" lon="-72.98349210061132907867431640625">
        <ele>497.20001220703125</ele>
        <time>2023-01-11T12:44:22.000Z</time>
      </trkpt>
      <trkpt lat="-49.2317226715385913848876953125" lon="-72.98359754495322704315185546875">
        <ele>497.20001220703125</ele>
        <time>2023-01-11T12:44:30.000Z</time>
      </trkpt>
      <trkpt lat="-49.2317209951579570770263671875" lon="-72.98365856520831584930419921875">
        <ele>497.20001220703125</ele>
        <time>2023-01-11T12:44:33.000Z</time>
      </trkpt>
      <trkpt lat="-49.23170439898967742919921875" lon="-72.98371220938861370086669921875">
        <ele>497.20001220703125</ele>
        <time>2023-01-11T12:44:36.000Z</time>
      </trkpt>
      <trkpt lat="-49.231655783951282501220703125" lon="-72.98391454853117465972900390625">
        <ele>497.20001220703125</ele>
        <time>2023-01-11T12:44:46.000Z</time>
      </trkpt>
      <trkpt lat="-49.23162116669118404388427734375" lon="-72.98402267508208751678466796875">
        <ele>497.20001220703125</ele>
        <time>2023-01-11T12:44:53.000Z</time>
      </trkpt>
      <trkpt lat="-49.23162653110921382904052734375" lon="-72.9841349087655544281005859375">
        <ele>497.20001220703125</ele>
        <time>2023-01-11T12:45:00.000Z</time>
      </trkpt>
      <trkpt lat="-49.23161211423575878143310546875" lon="-72.9841540195047855377197265625">
        <ele>497.20001220703125</ele>
        <time>2023-01-11T12:45:02.000Z</time>
      </trkpt>
      <trkpt lat="-49.23160423524677753448486328125" lon="-72.9841788299381732940673828125">
        <ele>497.20001220703125</ele>
        <time>2023-01-11T12:45:04.000Z</time>
      </trkpt>
      <trkpt lat="-49.231611192226409912109375" lon="-72.98421445302665233612060546875">
        <ele>497.20001220703125</ele>
        <time>2023-01-11T12:45:06.000Z</time>
      </trkpt>
      <trkpt lat="-49.23160842619836330413818359375" lon="-72.9842314682900905609130859375">
        <ele>497.20001220703125</ele>
        <time>2023-01-11T12:45:07.000Z</time>
      </trkpt>
      <trkpt lat="-49.23159434460103511810302734375" lon="-72.9842663370072841644287109375">
        <ele>497.20001220703125</ele>
        <time>2023-01-11T12:45:09.000Z</time>
      </trkpt>
      <trkpt lat="-49.23159685917198657989501953125" lon="-72.98429944552481174468994140625">
        <ele>493</ele>
        <time>2023-01-11T12:45:10.000Z</time>
      </trkpt>
      <trkpt lat="-49.2316006310284137725830078125" lon="-72.9843367449939250946044921875">
        <ele>493</ele>
        <time>2023-01-11T12:45:11.000Z</time>
      </trkpt>
      <trkpt lat="-49.2316006310284137725830078125" lon="-72.98439449630677700042724609375">
        <ele>493.20001220703125</ele>
        <time>2023-01-11T12:45:14.000Z</time>
      </trkpt>
      <trkpt lat="-49.231595434248447418212890625" lon="-72.9844187200069427490234375">
        <ele>493.20001220703125</ele>
        <time>2023-01-11T12:45:16.000Z</time>
      </trkpt>
      <trkpt lat="-49.23158696852624416351318359375" lon="-72.98443288542330265045166015625">
        <ele>493.20001220703125</ele>
        <time>2023-01-11T12:45:17.000Z</time>
      </trkpt>
      <trkpt lat="-49.2315728031098842620849609375" lon="-72.9844695143401622772216796875">
        <ele>493.20001220703125</ele>
        <time>2023-01-11T12:45:19.000Z</time>
      </trkpt>
      <trkpt lat="-49.23156266100704669952392578125" lon="-72.98452894203364849090576171875">
        <ele>493.20001220703125</ele>
        <time>2023-01-11T12:45:22.000Z</time>
      </trkpt>
      <trkpt lat="-49.23155964352190494537353515625" lon="-72.98456632532179355621337890625">
        <ele>493.20001220703125</ele>
        <time>2023-01-11T12:45:24.000Z</time>
      </trkpt>
      <trkpt lat="-49.23156031407415866851806640625" lon="-72.98461577855050563812255859375">
        <ele>493.600006103515625</ele>
        <time>2023-01-11T12:45:27.000Z</time>
      </trkpt>
      <trkpt lat="-49.23155981115996837615966796875" lon="-72.98463405109941959381103515625">
        <ele>493.600006103515625</ele>
        <time>2023-01-11T12:45:28.000Z</time>
      </trkpt>
      <trkpt lat="-49.2315657623112201690673828125" lon="-72.984668500721454620361328125">
        <ele>494.20001220703125</ele>
        <time>2023-01-11T12:45:31.000Z</time>
      </trkpt>
      <trkpt lat="-49.23157992772758007049560546875" lon="-72.98468627035617828369140625">
        <ele>494.399993896484375</ele>
        <time>2023-01-11T12:45:33.000Z</time>
      </trkpt>
      <trkpt lat="-49.2315922491252422332763671875" lon="-72.984741590917110443115234375">
        <ele>495.20001220703125</ele>
        <time>2023-01-11T12:45:38.000Z</time>
      </trkpt>
      <trkpt lat="-49.2315691150724887847900390625" lon="-72.9847620427608489990234375">
        <ele>495.20001220703125</ele>
        <time>2023-01-11T12:45:40.000Z</time>
      </trkpt>
      <trkpt lat="-49.2315416224300861358642578125" lon="-72.9847886972129344940185546875">
        <ele>495</ele>
        <time>2023-01-11T12:45:42.000Z</time>
      </trkpt>
      <trkpt lat="-49.2315446399152278900146484375" lon="-72.98487058840692043304443359375">
        <ele>495.20001220703125</ele>
        <time>2023-01-11T12:45:47.000Z</time>
      </trkpt>
      <trkpt lat="-49.231574647128582000732421875" lon="-72.9850364662706851959228515625">
        <ele>496</ele>
        <time>2023-01-11T12:45:55.000Z</time>
      </trkpt>
      <trkpt lat="-49.231547154486179351806640625" lon="-72.9850418306887149810791015625">
        <ele>496</ele>
        <time>2023-01-11T12:45:56.000Z</time>
      </trkpt>
      <trkpt lat="-49.2314792610704898834228515625" lon="-72.9851776175200939178466796875">
        <ele>495.600006103515625</ele>
        <time>2023-01-11T12:46:04.000Z</time>
      </trkpt>
      <trkpt lat="-49.23148043453693389892578125" lon="-72.98526227474212646484375">
        <ele>495.399993896484375</ele>
        <time>2023-01-11T12:46:09.000Z</time>
      </trkpt>
      <trkpt lat="-49.2314450629055500030517578125" lon="-72.9853177629411220550537109375">
        <ele>495.20001220703125</ele>
        <time>2023-01-11T12:46:12.000Z</time>
      </trkpt>
      <trkpt lat="-49.23145830631256103515625" lon="-72.98540376126766204833984375">
        <ele>495</ele>
        <time>2023-01-11T12:46:16.000Z</time>
      </trkpt>
      <trkpt lat="-49.23146702349185943603515625" lon="-72.98543720506131649017333984375">
        <ele>494.79998779296875</ele>
        <time>2023-01-11T12:46:18.000Z</time>
      </trkpt>
      <trkpt lat="-49.2314732261002063751220703125" lon="-72.98554583452641963958740234375">
        <ele>495.20001220703125</ele>
        <time>2023-01-11T12:46:24.000Z</time>
      </trkpt>
      <trkpt lat="-49.23146777786314487457275390625" lon="-72.98558606766164302825927734375">
        <ele>495.399993896484375</ele>
        <time>2023-01-11T12:46:27.000Z</time>
      </trkpt>
      <trkpt lat="-49.23147766850888729095458984375" lon="-72.985651195049285888671875">
        <ele>495.399993896484375</ele>
        <time>2023-01-11T12:46:32.000Z</time>
      </trkpt>
      <trkpt lat="-49.23148957081139087677001953125" lon="-72.98567977733910083770751953125">
        <ele>495.399993896484375</ele>
        <time>2023-01-11T12:46:35.000Z</time>
      </trkpt>
      <trkpt lat="-49.231488816440105438232421875" lon="-72.98568447120487689971923828125">
        <ele>495.600006103515625</ele>
        <time>2023-01-11T12:46:36.000Z</time>
      </trkpt>
      <trkpt lat="-49.23143777064979076385498046875" lon="-72.985716573894023895263671875">
        <ele>495.79998779296875</ele>
        <time>2023-01-11T12:46:41.000Z</time>
      </trkpt>
      <trkpt lat="-49.23145403154194355010986328125" lon="-72.98583232797682285308837890625">
        <ele>496</ele>
        <time>2023-01-11T12:46:47.000Z</time>
      </trkpt>
      <trkpt lat="-49.2314601503312587738037109375" lon="-72.98587381839752197265625">
        <ele>496.20001220703125</ele>
        <time>2023-01-11T12:46:49.000Z</time>
      </trkpt>
      <trkpt lat="-49.231477417051792144775390625" lon="-72.98593207262456417083740234375">
        <ele>496.399993896484375</ele>
        <time>2023-01-11T12:46:53.000Z</time>
      </trkpt>
      <trkpt lat="-49.231451265513896942138671875" lon="-72.98596912063658237457275390625">
        <ele>496.399993896484375</ele>
        <time>2023-01-11T12:46:57.000Z</time>
      </trkpt>
      <trkpt lat="-49.23145830631256103515625" lon="-72.9859789274632930755615234375">
        <ele>496.399993896484375</ele>
        <time>2023-01-11T12:46:58.000Z</time>
      </trkpt>
      <trkpt lat="-49.23147649504244327545166015625" lon="-72.98601287417113780975341796875">
        <ele>496.600006103515625</ele>
        <time>2023-01-11T12:47:00.000Z</time>
      </trkpt>
      <trkpt lat="-49.23150700516998767852783203125" lon="-72.9860664345324039459228515625">
        <ele>496.79998779296875</ele>
        <time>2023-01-11T12:47:04.000Z</time>
      </trkpt>
      <trkpt lat="-49.2315097711980342864990234375" lon="-72.98608101904392242431640625">
        <ele>496.79998779296875</ele>
        <time>2023-01-11T12:47:05.000Z</time>
      </trkpt>
      <trkpt lat="-49.23152879811823368072509765625" lon="-72.98611194826662540435791015625">
        <ele>497.20001220703125</ele>
        <time>2023-01-11T12:47:08.000Z</time>
      </trkpt>
      <trkpt lat="-49.23152343370020389556884765625" lon="-72.9861177317798137664794921875">
        <ele>497.600006103515625</ele>
        <time>2023-01-11T12:47:11.000Z</time>
      </trkpt>
      <trkpt lat="-49.2315258644521236419677734375" lon="-72.98612418584525585174560546875">
        <ele>497.79998779296875</ele>
        <time>2023-01-11T12:47:14.000Z</time>
      </trkpt>
      <trkpt lat="-49.2315503396093845367431640625" lon="-72.9861836135387420654296875">
        <ele>498.20001220703125</ele>
        <time>2023-01-11T12:47:21.000Z</time>
      </trkpt>
      <trkpt lat="-49.2315409518778324127197265625" lon="-72.98623792827129364013671875">
        <ele>498.399993896484375</ele>
        <time>2023-01-11T12:47:26.000Z</time>
      </trkpt>
      <trkpt lat="-49.2315454781055450439453125" lon="-72.98627740703523159027099609375">
        <ele>498.399993896484375</ele>
        <time>2023-01-11T12:47:28.000Z</time>
      </trkpt>
      <trkpt lat="-49.23158713616430759429931640625" lon="-72.98641185276210308074951171875">
        <ele>498.600006103515625</ele>
        <time>2023-01-11T12:47:35.000Z</time>
      </trkpt>
      <trkpt lat="-49.231560230255126953125" lon="-72.98651092685759067535400390625">
        <ele>498.600006103515625</ele>
        <time>2023-01-11T12:47:40.000Z</time>
      </trkpt>
      <trkpt lat="-49.23153684474527835845947265625" lon="-72.98653028905391693115234375">
        <ele>498.79998779296875</ele>
        <time>2023-01-11T12:47:42.000Z</time>
      </trkpt>
      <trkpt lat="-49.23151924274861812591552734375" lon="-72.98656457103788852691650390625">
        <ele>498.79998779296875</ele>
        <time>2023-01-11T12:47:45.000Z</time>
      </trkpt>
      <trkpt lat="-49.23152066767215728759765625" lon="-72.98660807311534881591796875">
        <ele>498.79998779296875</ele>
        <time>2023-01-11T12:47:47.000Z</time>
      </trkpt>
      <trkpt lat="-49.23149610869586467742919921875" lon="-72.9866457916796207427978515625">
        <ele>498.79998779296875</ele>
        <time>2023-01-11T12:47:54.000Z</time>
      </trkpt>
      <trkpt lat="-49.2314883135259151458740234375" lon="-72.986656688153743743896484375">
        <ele>499</ele>
        <time>2023-01-11T12:47:58.000Z</time>
      </trkpt>
      <trkpt lat="-49.23149828799068927764892578125" lon="-72.9866917245090007781982421875">
        <ele>499</ele>
        <time>2023-01-11T12:48:00.000Z</time>
      </trkpt>
      <trkpt lat="-49.2314936779439449310302734375" lon="-72.9867522418498992919921875">
        <ele>499</ele>
        <time>2023-01-11T12:48:08.000Z</time>
      </trkpt>
      <trkpt lat="-49.2314631678164005279541015625" lon="-72.98676003701984882354736328125">
        <ele>499.20001220703125</ele>
        <time>2023-01-11T12:48:14.000Z</time>
      </trkpt>
      <trkpt lat="-49.23145352862775325775146484375" lon="-72.98675266094505786895751953125">
        <ele>499.20001220703125</ele>
        <time>2023-01-11T12:48:16.000Z</time>
      </trkpt>
      <trkpt lat="-49.23140323720872402191162109375" lon="-72.986722402274608612060546875">
        <ele>499.399993896484375</ele>
        <time>2023-01-11T12:48:45.000Z</time>
      </trkpt>
      <trkpt lat="-49.2314088530838489532470703125" lon="-72.9867517389357089996337890625">
        <ele>499.399993896484375</ele>
        <time>2023-01-11T12:48:47.000Z</time>
      </trkpt>
      <trkpt lat="-49.23141312785446643829345703125" lon="-72.98679641447961330413818359375">
        <ele>499.399993896484375</ele>
        <time>2023-01-11T12:48:49.000Z</time>
      </trkpt>
      <trkpt lat="-49.231408350169658660888671875" lon="-72.98691359348595142364501953125">
        <ele>499.79998779296875</ele>
        <time>2023-01-11T12:48:55.000Z</time>
      </trkpt>
      <trkpt lat="-49.23142611980438232421875" lon="-72.98695600591599941253662109375">
        <ele>499.79998779296875</ele>
        <time>2023-01-11T12:48:59.000Z</time>
      </trkpt>
      <trkpt lat="-49.2314477451145648956298828125" lon="-72.98699607141315937042236328125">
        <ele>499.79998779296875</ele>
        <time>2023-01-11T12:49:03.000Z</time>
      </trkpt>
      <trkpt lat="-49.23146442510187625885009765625" lon="-72.987058348953723907470703125">
        <ele>500.399993896484375</ele>
        <time>2023-01-11T12:49:07.000Z</time>
      </trkpt>
      <trkpt lat="-49.231460653245449066162109375" lon="-72.98707653768360614776611328125">
        <ele>500.600006103515625</ele>
        <time>2023-01-11T12:49:09.000Z</time>
      </trkpt>
      <trkpt lat="-49.23151102848351001739501953125" lon="-72.98721953295171260833740234375">
        <ele>501.399993896484375</ele>
        <time>2023-01-11T12:49:17.000Z</time>
      </trkpt>
      <trkpt lat="-49.2315114475786685943603515625" lon="-72.987233698368072509765625">
        <ele>501.399993896484375</ele>
        <time>2023-01-11T12:49:18.000Z</time>
      </trkpt>
      <trkpt lat="-49.23151119612157344818115234375" lon="-72.9873022623360157012939453125">
        <ele>501.79998779296875</ele>
        <time>2023-01-11T12:49:23.000Z</time>
      </trkpt>
      <trkpt lat="-49.23147247172892093658447265625" lon="-72.9873388074338436126708984375">
        <ele>502</ele>
        <time>2023-01-11T12:49:26.000Z</time>
      </trkpt>
      <trkpt lat="-49.23144648782908916473388671875" lon="-72.98737124539911746978759765625">
        <ele>502.20001220703125</ele>
        <time>2023-01-11T12:49:28.000Z</time>
      </trkpt>
      <trkpt lat="-49.231398962438106536865234375" lon="-72.98742949962615966796875">
        <ele>502.399993896484375</ele>
        <time>2023-01-11T12:49:33.000Z</time>
      </trkpt>
      <trkpt lat="-49.2313575558364391326904296875" lon="-72.9874886758625507354736328125">
        <ele>502.399993896484375</ele>
        <time>2023-01-11T12:49:37.000Z</time>
      </trkpt>
      <trkpt lat="-49.23134724609553813934326171875" lon="-72.987504266202449798583984375">
        <ele>502.600006103515625</ele>
        <time>2023-01-11T12:49:38.000Z</time>
      </trkpt>
      <trkpt lat="-49.23128404654562473297119140625" lon="-72.98752714879810810089111328125">
        <ele>503</ele>
        <time>2023-01-11T12:49:44.000Z</time>
      </trkpt>
      <trkpt lat="-49.2312804423272609710693359375" lon="-72.9875828884541988372802734375">
        <ele>503.399993896484375</ele>
        <time>2023-01-11T12:49:48.000Z</time>
      </trkpt>
      <trkpt lat="-49.23127935267984867095947265625" lon="-72.98761465586721897125244140625">
        <ele>503.600006103515625</ele>
        <time>2023-01-11T12:49:49.000Z</time>
      </trkpt>
      <trkpt lat="-49.23127390444278717041015625" lon="-72.9876589961349964141845703125">
        <ele>503.600006103515625</ele>
        <time>2023-01-11T12:49:50.000Z</time>
      </trkpt>
      <trkpt lat="-49.231267869472503662109375" lon="-72.98767852596938610076904296875">
        <ele>503.600006103515625</ele>
        <time>2023-01-11T12:49:51.000Z</time>
      </trkpt>
      <trkpt lat="-49.23119117505848407745361328125" lon="-72.98776687122881412506103515625">
        <ele>503.399993896484375</ele>
        <time>2023-01-11T12:49:59.000Z</time>
      </trkpt>
      <trkpt lat="-49.231118671596050262451171875" lon="-72.98784398473799228668212890625">
        <ele>503.20001220703125</ele>
        <time>2023-01-11T12:50:06.000Z</time>
      </trkpt>
      <trkpt lat="-49.23104616813361644744873046875" lon="-72.98792160116136074066162109375">
        <ele>503.20001220703125</ele>
        <time>2023-01-11T12:50:13.000Z</time>
      </trkpt>
      <trkpt lat="-49.23100057058036327362060546875" lon="-72.98791891895234584808349609375">
        <ele>503.20001220703125</ele>
        <time>2023-01-11T12:50:16.000Z</time>
      </trkpt>
      <trkpt lat="-49.23096905462443828582763671875" lon="-72.98794222064316272735595703125">
        <ele>503.20001220703125</ele>
        <time>2023-01-11T12:50:18.000Z</time>
      </trkpt>
      <trkpt lat="-49.23094206489622592926025390625" lon="-72.98806711100041866302490234375">
        <ele>502.79998779296875</ele>
        <time>2023-01-11T12:50:25.000Z</time>
      </trkpt>
      <trkpt lat="-49.230946339666843414306640625" lon="-72.98808437772095203399658203125">
        <ele>502.79998779296875</ele>
        <time>2023-01-11T12:50:26.000Z</time>
      </trkpt>
      <trkpt lat="-49.2309330962598323822021484375" lon="-72.98812888562679290771484375">
        <ele>503.20001220703125</ele>
        <time>2023-01-11T12:50:33.000Z</time>
      </trkpt>
      <trkpt lat="-49.2308703996241092681884765625" lon="-72.9882168956100940704345703125">
        <ele>503.600006103515625</ele>
        <time>2023-01-11T12:50:40.000Z</time>
      </trkpt>
      <trkpt lat="-49.2308413982391357421875" lon="-72.9882836155593395233154296875">
        <ele>504.20001220703125</ele>
        <time>2023-01-11T12:50:46.000Z</time>
      </trkpt>
      <trkpt lat="-49.2308402247726917266845703125" lon="-72.98830884508788585662841796875">
        <ele>504.399993896484375</ele>
        <time>2023-01-11T12:50:47.000Z</time>
      </trkpt>
      <trkpt lat="-49.23084667883813381195068359375" lon="-72.98834723420441150665283203125">
        <ele>504.600006103515625</ele>
        <time>2023-01-11T12:50:49.000Z</time>
      </trkpt>
      <trkpt lat="-49.23085522837936878204345703125" lon="-72.98837020061910152435302734375">
        <ele>504.79998779296875</ele>
        <time>2023-01-11T12:50:51.000Z</time>
      </trkpt>
      <trkpt lat="-49.2308821342885494232177734375" lon="-72.9884683527052402496337890625">
        <ele>505.399993896484375</ele>
        <time>2023-01-11T12:50:58.000Z</time>
      </trkpt>
      <trkpt lat="-49.23080543987452983856201171875" lon="-72.9884834401309490203857421875">
        <ele>505.399993896484375</ele>
        <time>2023-01-11T12:51:01.000Z</time>
      </trkpt>
      <trkpt lat="-49.230779372155666351318359375" lon="-72.9885162971913814544677734375">
        <ele>505.399993896484375</ele>
        <time>2023-01-11T12:51:03.000Z</time>
      </trkpt>
      <trkpt lat="-49.2307703197002410888671875" lon="-72.98857186920940876007080078125">
        <ele>505.399993896484375</ele>
        <time>2023-01-11T12:51:07.000Z</time>
      </trkpt>
      <trkpt lat="-49.23076436854898929595947265625" lon="-72.98859986476600170135498046875">
        <ele>505.600006103515625</ele>
        <time>2023-01-11T12:51:09.000Z</time>
      </trkpt>
      <trkpt lat="-49.23075313679873943328857421875" lon="-72.9886091686785221099853515625">
        <ele>505.600006103515625</ele>
        <time>2023-01-11T12:51:10.000Z</time>
      </trkpt>
      <trkpt lat="-49.2307299189269542694091796875" lon="-72.98869759775698184967041015625">
        <ele>505.79998779296875</ele>
        <time>2023-01-11T12:51:15.000Z</time>
      </trkpt>
      <trkpt lat="-49.2307285778224468231201171875" lon="-72.9887114278972148895263671875">
        <ele>505.79998779296875</ele>
        <time>2023-01-11T12:51:16.000Z</time>
      </trkpt>
      <trkpt lat="-49.2306900210678577423095703125" lon="-72.9888120107352733612060546875">
        <ele>505.600006103515625</ele>
        <time>2023-01-11T12:51:22.000Z</time>
      </trkpt>
      <trkpt lat="-49.2306702397763729095458984375" lon="-72.9888202250003814697265625">
        <ele>505.600006103515625</ele>
        <time>2023-01-11T12:51:24.000Z</time>
      </trkpt>
      <trkpt lat="-49.23062925226986408233642578125" lon="-72.98886456526815891265869140625">
        <ele>505.79998779296875</ele>
        <time>2023-01-11T12:51:30.000Z</time>
      </trkpt>
      <trkpt lat="-49.23059890978038311004638671875" lon="-72.98889960162341594696044921875">
        <ele>505.399993896484375</ele>
        <time>2023-01-11T12:51:34.000Z</time>
      </trkpt>
      <trkpt lat="-49.23058264888823032379150390625" lon="-72.98891636542975902557373046875">
        <ele>505.399993896484375</ele>
        <time>2023-01-11T12:51:36.000Z</time>
      </trkpt>
      <trkpt lat="-49.2305606044828891754150390625" lon="-72.98903522081673145294189453125">
        <ele>505.20001220703125</ele>
        <time>2023-01-11T12:51:41.000Z</time>
      </trkpt>
      <trkpt lat="-49.2305471934378147125244140625" lon="-72.98904460854828357696533203125">
        <ele>505</ele>
        <time>2023-01-11T12:51:42.000Z</time>
      </trkpt>
      <trkpt lat="-49.23049128614366054534912109375" lon="-72.98911820165812969207763671875">
        <ele>505</ele>
        <time>2023-01-11T12:51:47.000Z</time>
      </trkpt>
      <trkpt lat="-49.230403192341327667236328125" lon="-72.98923387192189693450927734375">
        <ele>504.79998779296875</ele>
        <time>2023-01-11T12:51:55.000Z</time>
      </trkpt>
      <trkpt lat="-49.23033957369625568389892578125" lon="-72.98930947668850421905517578125">
        <ele>504.600006103515625</ele>
        <time>2023-01-11T12:52:01.000Z</time>
      </trkpt>
      <trkpt lat="-49.230333454906940460205078125" lon="-72.98933177255094051361083984375">
        <ele>504.600006103515625</ele>
        <time>2023-01-11T12:52:02.000Z</time>
      </trkpt>
      <trkpt lat="-49.230319373309612274169921875" lon="-72.9893735982477664947509765625">
        <ele>504.600006103515625</ele>
        <time>2023-01-11T12:52:04.000Z</time>
      </trkpt>
      <trkpt lat="-49.23029934056103229522705078125" lon="-72.98947778530418872833251953125">
        <ele>504.79998779296875</ele>
        <time>2023-01-11T12:52:12.000Z</time>
      </trkpt>
      <trkpt lat="-49.23029900528490543365478515625" lon="-72.9894949682056903839111328125">
        <ele>504.79998779296875</ele>
        <time>2023-01-11T12:52:13.000Z</time>
      </trkpt>
      <trkpt lat="-49.23034326173365116119384765625" lon="-72.9895536415278911590576171875">
        <ele>505</ele>
        <time>2023-01-11T12:52:17.000Z</time>
      </trkpt>
      <trkpt lat="-49.230342172086238861083984375" lon="-72.98957434482872486114501953125">
        <ele>505</ele>
        <time>2023-01-11T12:52:19.000Z</time>
      </trkpt>
      <trkpt lat="-49.23033890314400196075439453125" lon="-72.9896141588687896728515625">
        <ele>505.20001220703125</ele>
        <time>2023-01-11T12:52:22.000Z</time>
      </trkpt>
      <trkpt lat="-49.23034342937171459197998046875" lon="-72.98967828042805194854736328125">
        <ele>505.600006103515625</ele>
        <time>2023-01-11T12:52:27.000Z</time>
      </trkpt>
      <trkpt lat="-49.23033856786787509918212890625" lon="-72.98969035036861896514892578125">
        <ele>505.600006103515625</ele>
        <time>2023-01-11T12:52:28.000Z</time>
      </trkpt>
      <trkpt lat="-49.23033705912530422210693359375" lon="-72.98979847691953182220458984375">
        <ele>506</ele>
        <time>2023-01-11T12:52:35.000Z</time>
      </trkpt>
      <trkpt lat="-49.2303306050598621368408203125" lon="-72.9898272268474102020263671875">
        <ele>506.20001220703125</ele>
        <time>2023-01-11T12:52:37.000Z</time>
      </trkpt>
      <trkpt lat="-49.2302974127233028411865234375" lon="-72.989927642047405242919921875">
        <ele>506.399993896484375</ele>
        <time>2023-01-11T12:52:44.000Z</time>
      </trkpt>
      <trkpt lat="-49.23022507689893245697021484375" lon="-72.9900609143078327178955078125">
        <ele>505.600006103515625</ele>
        <time>2023-01-11T12:52:52.000Z</time>
      </trkpt>
      <trkpt lat="-49.23018869943916797637939453125" lon="-72.99019376747310161590576171875">
        <ele>505.600006103515625</ele>
        <time>2023-01-11T12:53:01.000Z</time>
      </trkpt>
      <trkpt lat="-49.23019741661846637725830078125" lon="-72.99028680659830570220947265625">
        <ele>505.600006103515625</ele>
        <time>2023-01-11T12:53:07.000Z</time>
      </trkpt>
      <trkpt lat="-49.2301961593329906463623046875" lon="-72.990382947027683258056640625">
        <ele>505.399993896484375</ele>
        <time>2023-01-11T12:53:12.000Z</time>
      </trkpt>
      <trkpt lat="-49.23018383793532848358154296875" lon="-72.99046534113585948944091796875">
        <ele>505.600006103515625</ele>
        <time>2023-01-11T12:53:17.000Z</time>
      </trkpt>
      <trkpt lat="-49.230180568993091583251953125" lon="-72.9904786683619022369384765625">
        <ele>505.79998779296875</ele>
        <time>2023-01-11T12:53:18.000Z</time>
      </trkpt>
      <trkpt lat="-49.230179898440837860107421875" lon="-72.9904966056346893310546875">
        <ele>505.79998779296875</ele>
        <time>2023-01-11T12:53:19.000Z</time>
      </trkpt>
      <trkpt lat="-49.23016070388257503509521484375" lon="-72.99062065780162811279296875">
        <ele>505.600006103515625</ele>
        <time>2023-01-11T12:53:27.000Z</time>
      </trkpt>
      <trkpt lat="-49.2301586084067821502685546875" lon="-72.99072937108576297760009765625">
        <ele>505.600006103515625</ele>
        <time>2023-01-11T12:53:32.000Z</time>
      </trkpt>
      <trkpt lat="-49.2301587760448455810546875" lon="-72.99079366028308868408203125">
        <ele>505.600006103515625</ele>
        <time>2023-01-11T12:53:36.000Z</time>
      </trkpt>
      <trkpt lat="-49.2301287688314914703369140625" lon="-72.99091595225036144256591796875">
        <ele>505.79998779296875</ele>
        <time>2023-01-11T12:53:44.000Z</time>
      </trkpt>
      <trkpt lat="-49.230128936469554901123046875" lon="-72.9909326322376728057861328125">
        <ele>505.79998779296875</ele>
        <time>2023-01-11T12:53:50.000Z</time>
      </trkpt>
      <trkpt lat="-49.230153076350688934326171875" lon="-72.99095769412815570831298828125">
        <ele>506</ele>
        <time>2023-01-11T12:53:53.000Z</time>
      </trkpt>
      <trkpt lat="-49.23019607551395893096923828125" lon="-72.99100630916655063629150390625">
        <ele>506.399993896484375</ele>
        <time>2023-01-11T12:53:58.000Z</time>
      </trkpt>
      <trkpt lat="-49.23024452291429042816162109375" lon="-72.99106850288808345794677734375">
        <ele>506.600006103515625</ele>
        <time>2023-01-11T12:54:04.000Z</time>
      </trkpt>
      <trkpt lat="-49.23026145435869693756103515625" lon="-72.99109272658824920654296875">
        <ele>506.79998779296875</ele>
        <time>2023-01-11T12:54:07.000Z</time>
      </trkpt>
      <trkpt lat="-49.2302955687046051025390625" lon="-72.99116338603198528289794921875">
        <ele>507.399993896484375</ele>
        <time>2023-01-11T12:54:11.000Z</time>
      </trkpt>
      <trkpt lat="-49.23030160367488861083984375" lon="-72.99119330942630767822265625">
        <ele>507.600006103515625</ele>
        <time>2023-01-11T12:54:13.000Z</time>
      </trkpt>
      <trkpt lat="-49.2303037829697132110595703125" lon="-72.9912102408707141876220703125">
        <ele>507.600006103515625</ele>
        <time>2023-01-11T12:54:14.000Z</time>
      </trkpt>
      <trkpt lat="-49.23030772246420383453369140625" lon="-72.99122440628707408905029296875">
        <ele>507.79998779296875</ele>
        <time>2023-01-11T12:54:15.000Z</time>
      </trkpt>
      <trkpt lat="-49.23032029531896114349365234375" lon="-72.99131023697555065155029296875">
        <ele>508.399993896484375</ele>
        <time>2023-01-11T12:54:20.000Z</time>
      </trkpt>
      <trkpt lat="-49.23037444241344928741455078125" lon="-72.9914445988833904266357421875">
        <ele>508.79998779296875</ele>
        <time>2023-01-11T12:54:25.000Z</time>
      </trkpt>
      <trkpt lat="-49.23036756925284862518310546875" lon="-72.9914955608546733856201171875">
        <ele>509</ele>
        <time>2023-01-11T12:54:27.000Z</time>
      </trkpt>
      <trkpt lat="-49.23031560145318508148193359375" lon="-72.991532944142818450927734375">
        <ele>509.20001220703125</ele>
        <time>2023-01-11T12:54:30.000Z</time>
      </trkpt>
      <trkpt lat="-49.23029313795268535614013671875" lon="-72.99159505404531955718994140625">
        <ele>509.399993896484375</ele>
        <time>2023-01-11T12:54:34.000Z</time>
      </trkpt>
      <trkpt lat="-49.23023865558207035064697265625" lon="-72.9916870035231113433837890625">
        <ele>509.399993896484375</ele>
        <time>2023-01-11T12:54:41.000Z</time>
      </trkpt>
      <trkpt lat="-49.230236895382404327392578125" lon="-72.99171692691743373870849609375">
        <ele>509.399993896484375</ele>
        <time>2023-01-11T12:54:43.000Z</time>
      </trkpt>
      <trkpt lat="-49.2302005179226398468017578125" lon="-72.99181197769939899444580078125">
        <ele>509.79998779296875</ele>
        <time>2023-01-11T12:54:49.000Z</time>
      </trkpt>
      <trkpt lat="-49.23016120679676532745361328125" lon="-72.99196100793778896331787109375">
        <ele>510</ele>
        <time>2023-01-11T12:54:57.000Z</time>
      </trkpt>
      <trkpt lat="-49.23009281046688556671142578125" lon="-72.9920849762856960296630859375">
        <ele>510.20001220703125</ele>
        <time>2023-01-11T12:55:05.000Z</time>
      </trkpt>
      <trkpt lat="-49.23008191399276256561279296875" lon="-72.99209478311240673065185546875">
        <ele>510.20001220703125</ele>
        <time>2023-01-11T12:55:06.000Z</time>
      </trkpt>
      <trkpt lat="-49.230074621737003326416015625" lon="-72.99210450612008571624755859375">
        <ele>510.399993896484375</ele>
        <time>2023-01-11T12:55:07.000Z</time>
      </trkpt>
      <trkpt lat="-49.23004838638007640838623046875" lon="-72.99214683473110198974609375">
        <ele>510.399993896484375</ele>
        <time>2023-01-11T12:55:11.000Z</time>
      </trkpt>
      <trkpt lat="-49.22994461841881275177001953125" lon="-72.9922100342810153961181640625">
        <ele>510.600006103515625</ele>
        <time>2023-01-11T12:55:18.000Z</time>
      </trkpt>
      <trkpt lat="-49.22985409386456012725830078125" lon="-72.99225144088268280029296875">
        <ele>510.600006103515625</ele>
        <time>2023-01-11T12:55:25.000Z</time>
      </trkpt>
      <trkpt lat="-49.2297566123306751251220703125" lon="-72.992264516651630401611328125">
        <ele>510.20001220703125</ele>
        <time>2023-01-11T12:55:30.000Z</time>
      </trkpt>
      <trkpt lat="-49.22968042083084583282470703125" lon="-72.992287985980510711669921875">
        <ele>510</ele>
        <time>2023-01-11T12:55:34.000Z</time>
      </trkpt>
      <trkpt lat="-49.22964974306523799896240234375" lon="-72.99229678697884082794189453125">
        <ele>509.79998779296875</ele>
        <time>2023-01-11T12:55:40.000Z</time>
      </trkpt>
      <trkpt lat="-49.22963934950530529022216796875" lon="-72.99230030737817287445068359375">
        <ele>509.79998779296875</ele>
        <time>2023-01-11T12:55:41.000Z</time>
      </trkpt>
      <trkpt lat="-49.22964421100914478302001953125" lon="-72.99232930876314640045166015625">
        <ele>509.79998779296875</ele>
        <time>2023-01-11T12:55:43.000Z</time>
      </trkpt>
      <trkpt lat="-49.22965208999812602996826171875" lon="-72.9923783428966999053955078125">
        <ele>509.79998779296875</ele>
        <time>2023-01-11T12:55:47.000Z</time>
      </trkpt>
      <trkpt lat="-49.2296396009624004364013671875" lon="-72.9924063384532928466796875">
        <ele>509.79998779296875</ele>
        <time>2023-01-11T12:55:49.000Z</time>
      </trkpt>
      <trkpt lat="-49.2296278662979602813720703125" lon="-72.99244045279920101165771484375">
        <ele>510</ele>
        <time>2023-01-11T12:55:51.000Z</time>
      </trkpt>
      <trkpt lat="-49.22963733784854412078857421875" lon="-72.9924822784960269927978515625">
        <ele>510</ele>
        <time>2023-01-11T12:55:53.000Z</time>
      </trkpt>
      <trkpt lat="-49.22957346774637699127197265625" lon="-72.99256551079452037811279296875">
        <ele>510.600006103515625</ele>
        <time>2023-01-11T12:56:01.000Z</time>
      </trkpt>
      <trkpt lat="-49.22949400730431079864501953125" lon="-72.99260281026363372802734375">
        <ele>510.600006103515625</ele>
        <time>2023-01-11T12:56:07.000Z</time>
      </trkpt>
      <trkpt lat="-49.22947389073669910430908203125" lon="-72.992627285420894622802734375">
        <ele>510.399993896484375</ele>
        <time>2023-01-11T12:56:10.000Z</time>
      </trkpt>
      <trkpt lat="-49.22946207225322723388671875" lon="-72.992707081139087677001953125">
        <ele>510.600006103515625</ele>
        <time>2023-01-11T12:56:17.000Z</time>
      </trkpt>
      <trkpt lat="-49.2294696159660816192626953125" lon="-72.99274153076112270355224609375">
        <ele>510.600006103515625</ele>
        <time>2023-01-11T12:56:19.000Z</time>
      </trkpt>
      <trkpt lat="-49.22945000231266021728515625" lon="-72.9927657544612884521484375">
        <ele>510.79998779296875</ele>
        <time>2023-01-11T12:56:22.000Z</time>
      </trkpt>
      <trkpt lat="-49.22944463789463043212890625" lon="-72.99286927096545696258544921875">
        <ele>510.79998779296875</ele>
        <time>2023-01-11T12:56:27.000Z</time>
      </trkpt>
      <trkpt lat="-49.22943952493369579315185546875" lon="-72.992882095277309417724609375">
        <ele>510.79998779296875</ele>
        <time>2023-01-11T12:56:29.000Z</time>
      </trkpt>
      <trkpt lat="-49.229451678693294525146484375" lon="-72.9929080791771411895751953125">
        <ele>510.79998779296875</ele>
        <time>2023-01-11T12:56:30.000Z</time>
      </trkpt>
      <trkpt lat="-49.22946131788194179534912109375" lon="-72.99291788600385189056396484375">
        <ele>510.79998779296875</ele>
        <time>2023-01-11T12:56:31.000Z</time>
      </trkpt>
      <trkpt lat="-49.22949685715138912200927734375" lon="-72.993002124130725860595703125">
        <ele>510.79998779296875</ele>
        <time>2023-01-11T12:56:35.000Z</time>
      </trkpt>
      <trkpt lat="-49.2295098491013050079345703125" lon="-72.99303908832371234893798828125">
        <ele>510.79998779296875</ele>
        <time>2023-01-11T12:56:38.000Z</time>
      </trkpt>
      <trkpt lat="-49.22955804504454135894775390625" lon="-72.99317839555442333221435546875">
        <ele>511.20001220703125</ele>
        <time>2023-01-11T12:56:49.000Z</time>
      </trkpt>
      <trkpt lat="-49.22957061789929866790771484375" lon="-72.99320161342620849609375">
        <ele>511.399993896484375</ele>
        <time>2023-01-11T12:56:51.000Z</time>
      </trkpt>
      <trkpt lat="-49.22960129566490650177001953125" lon="-72.99327797256410121917724609375">
        <ele>511.399993896484375</ele>
        <time>2023-01-11T12:56:56.000Z</time>
      </trkpt>
      <trkpt lat="-49.22961856238543987274169921875" lon="-72.99335089512169361114501953125">
        <ele>512</ele>
        <time>2023-01-11T12:57:00.000Z</time>
      </trkpt>
      <trkpt lat="-49.2296397686004638671875" lon="-72.99341149628162384033203125">
        <ele>512.4000244140625</ele>
        <time>2023-01-11T12:57:05.000Z</time>
      </trkpt>
      <trkpt lat="-49.22964236699044704437255859375" lon="-72.99342348240315914154052734375">
        <ele>512.4000244140625</ele>
        <time>2023-01-11T12:57:06.000Z</time>
      </trkpt>
      <trkpt lat="-49.22965929843485355377197265625" lon="-72.99349187873303890228271484375">
        <ele>512.4000244140625</ele>
        <time>2023-01-11T12:57:10.000Z</time>
      </trkpt>
      <trkpt lat="-49.22966315411031246185302734375" lon="-72.99354954622685909271240234375">
        <ele>512.4000244140625</ele>
        <time>2023-01-11T12:57:13.000Z</time>
      </trkpt>
      <trkpt lat="-49.22965963371098041534423828125" lon="-72.99364753067493438720703125">
        <ele>512.79998779296875</ele>
        <time>2023-01-11T12:57:20.000Z</time>
      </trkpt>
      <trkpt lat="-49.2296664230525493621826171875" lon="-72.99366655759513378143310546875">
        <ele>512.79998779296875</ele>
        <time>2023-01-11T12:57:21.000Z</time>
      </trkpt>
      <trkpt lat="-49.22968360595405101776123046875" lon="-72.9937610216438770294189453125">
        <ele>512.4000244140625</ele>
        <time>2023-01-11T12:57:26.000Z</time>
      </trkpt>
      <trkpt lat="-49.22968192957341670989990234375" lon="-72.99379781819880008697509765625">
        <ele>512.20001220703125</ele>
        <time>2023-01-11T12:57:29.000Z</time>
      </trkpt>
      <trkpt lat="-49.22969316132366657257080078125" lon="-72.99386269412934780120849609375">
        <ele>511.79998779296875</ele>
        <time>2023-01-11T12:57:32.000Z</time>
      </trkpt>
      <trkpt lat="-49.2297019623219966888427734375" lon="-72.9940451681613922119140625">
        <ele>511.399993896484375</ele>
        <time>2023-01-11T12:57:40.000Z</time>
      </trkpt>
      <trkpt lat="-49.2297056503593921661376953125" lon="-72.99407140351831912994384765625">
        <ele>511.399993896484375</ele>
        <time>2023-01-11T12:57:41.000Z</time>
      </trkpt>
      <trkpt lat="-49.22971545718610286712646484375" lon="-72.99421657808125019073486328125">
        <ele>511.399993896484375</ele>
        <time>2023-01-11T12:57:51.000Z</time>
      </trkpt>
      <trkpt lat="-49.2297418601810932159423828125" lon="-72.9942699708044528961181640625">
        <ele>511.399993896484375</ele>
        <time>2023-01-11T12:57:53.000Z</time>
      </trkpt>
      <trkpt lat="-49.22978720627725124359130859375" lon="-72.99436527304351329803466796875">
        <ele>511.399993896484375</ele>
        <time>2023-01-11T12:57:57.000Z</time>
      </trkpt>
      <trkpt lat="-49.2297894693911075592041015625" lon="-72.994389496743679046630859375">
        <ele>511.399993896484375</ele>
        <time>2023-01-11T12:57:58.000Z</time>
      </trkpt>
      <trkpt lat="-49.22975736670196056365966796875" lon="-72.99448094330728054046630859375">
        <ele>511.399993896484375</ele>
        <time>2023-01-11T12:58:04.000Z</time>
      </trkpt>
      <trkpt lat="-49.229736328125" lon="-72.9944999702274799346923828125">
        <ele>511.399993896484375</ele>
        <time>2023-01-11T12:58:06.000Z</time>
      </trkpt>
      <trkpt lat="-49.22970741055905818939208984375" lon="-72.99460918642580509185791015625">
        <ele>511.399993896484375</ele>
        <time>2023-01-11T12:58:13.000Z</time>
      </trkpt>
      <trkpt lat="-49.22973037697374820709228515625" lon="-72.99470071680843830108642578125">
        <ele>511.399993896484375</ele>
        <time>2023-01-11T12:58:20.000Z</time>
      </trkpt>
      <trkpt lat="-49.2297814227640628814697265625" lon="-72.9948275350034236907958984375">
        <ele>511.600006103515625</ele>
        <time>2023-01-11T12:58:28.000Z</time>
      </trkpt>
      <trkpt lat="-49.22977387905120849609375" lon="-72.99484455026686191558837890625">
        <ele>511.600006103515625</ele>
        <time>2023-01-11T12:58:29.000Z</time>
      </trkpt>
      <trkpt lat="-49.229809083044528961181640625" lon="-72.9949690215289592742919921875">
        <ele>511.600006103515625</ele>
        <time>2023-01-11T12:58:35.000Z</time>
      </trkpt>
      <trkpt lat="-49.2298166267573833465576171875" lon="-72.99504320137202739715576171875">
        <ele>511.79998779296875</ele>
        <time>2023-01-11T12:58:38.000Z</time>
      </trkpt>
      <trkpt lat="-49.229819476604461669921875" lon="-72.9950615577399730682373046875">
        <ele>511.79998779296875</ele>
        <time>2023-01-11T12:58:39.000Z</time>
      </trkpt>
      <trkpt lat="-49.22980606555938720703125" lon="-72.995087206363677978515625">
        <ele>511.79998779296875</ele>
        <time>2023-01-11T12:58:40.000Z</time>
      </trkpt>
      <trkpt lat="-49.22977714799344539642333984375" lon="-72.99511947669088840484619140625">
        <ele>511.600006103515625</ele>
        <time>2023-01-11T12:58:42.000Z</time>
      </trkpt>
      <trkpt lat="-49.2297291196882724761962890625" lon="-72.99521989189088344573974609375">
        <ele>511.20001220703125</ele>
        <time>2023-01-11T12:58:49.000Z</time>
      </trkpt>
      <trkpt lat="-49.22966918908059597015380859375" lon="-72.9953227378427982330322265625">
        <ele>511.20001220703125</ele>
        <time>2023-01-11T12:58:57.000Z</time>
      </trkpt>
      <trkpt lat="-49.2296572029590606689453125" lon="-72.995443604886531829833984375">
        <ele>511</ele>
        <time>2023-01-11T12:59:04.000Z</time>
      </trkpt>
      <trkpt lat="-49.22965250909328460693359375" lon="-72.99545894376933574676513671875">
        <ele>511</ele>
        <time>2023-01-11T12:59:05.000Z</time>
      </trkpt>
      <trkpt lat="-49.229657538235187530517578125" lon="-72.99551845528185367584228515625">
        <ele>511.20001220703125</ele>
        <time>2023-01-11T12:59:09.000Z</time>
      </trkpt>
      <trkpt lat="-49.229647479951381683349609375" lon="-72.99560462124645709991455078125">
        <ele>511.600006103515625</ele>
        <time>2023-01-11T12:59:13.000Z</time>
      </trkpt>
      <trkpt lat="-49.22963163815438747406005859375" lon="-72.99566748552024364471435546875">
        <ele>511.79998779296875</ele>
        <time>2023-01-11T12:59:17.000Z</time>
      </trkpt>
      <trkpt lat="-49.22962166368961334228515625" lon="-72.9957176931202411651611328125">
        <ele>511.79998779296875</ele>
        <time>2023-01-11T12:59:20.000Z</time>
      </trkpt>
      <trkpt lat="-49.2296117730438709259033203125" lon="-72.99578919075429439544677734375">
        <ele>511.79998779296875</ele>
        <time>2023-01-11T12:59:25.000Z</time>
      </trkpt>
      <trkpt lat="-49.229599870741367340087890625" lon="-72.99581768922507762908935546875">
        <ele>512</ele>
        <time>2023-01-11T12:59:27.000Z</time>
      </trkpt>
      <trkpt lat="-49.22959274612367153167724609375" lon="-72.99585473723709583282470703125">
        <ele>512</ele>
        <time>2023-01-11T12:59:29.000Z</time>
      </trkpt>
      <trkpt lat="-49.2295856215059757232666015625" lon="-72.99588390626013278961181640625">
        <ele>512</ele>
        <time>2023-01-11T12:59:31.000Z</time>
      </trkpt>
      <trkpt lat="-49.2295826040208339691162109375" lon="-72.99591542221605777740478515625">
        <ele>512.20001220703125</ele>
        <time>2023-01-11T12:59:33.000Z</time>
      </trkpt>
      <trkpt lat="-49.229597859084606170654296875" lon="-72.9960174299776554107666015625">
        <ele>512.4000244140625</ele>
        <time>2023-01-11T12:59:39.000Z</time>
      </trkpt>
      <trkpt lat="-49.22960028983652591705322265625" lon="-72.9961180128157138824462890625">
        <ele>512.4000244140625</ele>
        <time>2023-01-11T12:59:44.000Z</time>
      </trkpt>
      <trkpt lat="-49.2295913212001323699951171875" lon="-72.99613586626946926116943359375">
        <ele>512.5999755859375</ele>
        <time>2023-01-11T12:59:45.000Z</time>
      </trkpt>
      <trkpt lat="-49.22958067618310451507568359375" lon="-72.9962460882961750030517578125">
        <ele>512.5999755859375</ele>
        <time>2023-01-11T12:59:51.000Z</time>
      </trkpt>
      <trkpt lat="-49.22958235256373882293701171875" lon="-72.99628389067947864532470703125">
        <ele>512.5999755859375</ele>
        <time>2023-01-11T12:59:53.000Z</time>
      </trkpt>
      <trkpt lat="-49.22958721406757831573486328125" lon="-72.99629193730652332305908203125">
        <ele>512.79998779296875</ele>
        <time>2023-01-11T12:59:54.000Z</time>
      </trkpt>
      <trkpt lat="-49.22959148883819580078125" lon="-72.996324710547924041748046875">
        <ele>512.79998779296875</ele>
        <time>2023-01-11T12:59:56.000Z</time>
      </trkpt>
      <trkpt lat="-49.22959743998944759368896484375" lon="-72.99635128118097782135009765625">
        <ele>513</ele>
        <time>2023-01-11T12:59:58.000Z</time>
      </trkpt>
      <trkpt lat="-49.22959408722817897796630859375" lon="-72.996374331414699554443359375">
        <ele>513</ele>
        <time>2023-01-11T13:00:00.000Z</time>
      </trkpt>
      <trkpt lat="-49.2296017147600650787353515625" lon="-72.99643375910818576812744140625">
        <ele>513.4000244140625</ele>
        <time>2023-01-11T13:00:06.000Z</time>
      </trkpt>
      <trkpt lat="-49.22960313968360424041748046875" lon="-72.99652428366243839263916015625">
        <ele>513.79998779296875</ele>
        <time>2023-01-11T13:00:11.000Z</time>
      </trkpt>
      <trkpt lat="-49.22960649244487285614013671875" lon="-72.996539287269115447998046875">
        <ele>514</ele>
        <time>2023-01-11T13:00:12.000Z</time>
      </trkpt>
      <trkpt lat="-49.2296062409877777099609375" lon="-72.996550686657428741455078125">
        <ele>514.20001220703125</ele>
        <time>2023-01-11T13:00:13.000Z</time>
      </trkpt>
      <trkpt lat="-49.2296278662979602813720703125" lon="-72.99669460393488407135009765625">
        <ele>514.5999755859375</ele>
        <time>2023-01-11T13:00:21.000Z</time>
      </trkpt>
      <trkpt lat="-49.2295973561704158782958984375" lon="-72.9968267865478992462158203125">
        <ele>514.20001220703125</ele>
        <time>2023-01-11T13:00:28.000Z</time>
      </trkpt>
      <trkpt lat="-49.22958620823919773101806640625" lon="-72.99684380181133747100830078125">
        <ele>514.20001220703125</ele>
        <time>2023-01-11T13:00:29.000Z</time>
      </trkpt>
      <trkpt lat="-49.2295417003333568572998046875" lon="-72.99689778126776218414306640625">
        <ele>513.5999755859375</ele>
        <time>2023-01-11T13:00:34.000Z</time>
      </trkpt>
      <trkpt lat="-49.22953239642083644866943359375" lon="-72.99692929722368717193603515625">
        <ele>513.5999755859375</ele>
        <time>2023-01-11T13:00:36.000Z</time>
      </trkpt>
      <trkpt lat="-49.22950708307325839996337890625" lon="-72.99698679707944393157958984375">
        <ele>513.4000244140625</ele>
        <time>2023-01-11T13:00:41.000Z</time>
      </trkpt>
      <trkpt lat="-49.22950473614037036895751953125" lon="-72.997041530907154083251953125">
        <ele>513.4000244140625</ele>
        <time>2023-01-11T13:00:44.000Z</time>
      </trkpt>
      <trkpt lat="-49.22949786297976970672607421875" lon="-72.997077740728855133056640625">
        <ele>513.4000244140625</ele>
        <time>2023-01-11T13:00:46.000Z</time>
      </trkpt>
      <trkpt lat="-49.22949065454304218292236328125" lon="-72.997152172029018402099609375">
        <ele>513.4000244140625</ele>
        <time>2023-01-11T13:00:50.000Z</time>
      </trkpt>
      <trkpt lat="-49.22948679886758327484130859375" lon="-72.99716684035956859588623046875">
        <ele>513.4000244140625</ele>
        <time>2023-01-11T13:00:51.000Z</time>
      </trkpt>
      <trkpt lat="-49.22949249856173992156982421875" lon="-72.99731888808310031890869140625">
        <ele>514.20001220703125</ele>
        <time>2023-01-11T13:01:00.000Z</time>
      </trkpt>
      <trkpt lat="-49.22948713414371013641357421875" lon="-72.99733531661331653594970703125">
        <ele>514.4000244140625</ele>
        <time>2023-01-11T13:01:02.000Z</time>
      </trkpt>
      <trkpt lat="-49.22949492931365966796875" lon="-72.9973706044256687164306640625">
        <ele>514.5999755859375</ele>
        <time>2023-01-11T13:01:05.000Z</time>
      </trkpt>
      <trkpt lat="-49.2295239306986331939697265625" lon="-72.9974879510700702667236328125">
        <ele>515</ele>
        <time>2023-01-11T13:01:11.000Z</time>
      </trkpt>
      <trkpt lat="-49.22952719964087009429931640625" lon="-72.9975077323615550994873046875">
        <ele>515</ele>
        <time>2023-01-11T13:01:12.000Z</time>
      </trkpt>
      <trkpt lat="-49.229536168277263641357421875" lon="-72.99753095023334026336669921875">
        <ele>515.20001220703125</ele>
        <time>2023-01-11T13:01:13.000Z</time>
      </trkpt>
      <trkpt lat="-49.2295417003333568572998046875" lon="-72.99758099019527435302734375">
        <ele>515.4000244140625</ele>
        <time>2023-01-11T13:01:17.000Z</time>
      </trkpt>
      <trkpt lat="-49.2295356653630733489990234375" lon="-72.99760689027607440948486328125">
        <ele>515.4000244140625</ele>
        <time>2023-01-11T13:01:19.000Z</time>
      </trkpt>
      <trkpt lat="-49.22953189350664615631103515625" lon="-72.99775374121963977813720703125">
        <ele>515.79998779296875</ele>
        <time>2023-01-11T13:01:27.000Z</time>
      </trkpt>
      <trkpt lat="-49.2295406945049762725830078125" lon="-72.99779179506003856658935546875">
        <ele>516</ele>
        <time>2023-01-11T13:01:30.000Z</time>
      </trkpt>
      <trkpt lat="-49.2295303009450435638427734375" lon="-72.99783135764300823211669921875">
        <ele>516.20001220703125</ele>
        <time>2023-01-11T13:01:32.000Z</time>
      </trkpt>
      <trkpt lat="-49.2295259423553943634033203125" lon="-72.9978512227535247802734375">
        <ele>516.20001220703125</ele>
        <time>2023-01-11T13:01:33.000Z</time>
      </trkpt>
      <trkpt lat="-49.22951362095773220062255859375" lon="-72.99797125160694122314453125">
        <ele>516.79998779296875</ele>
        <time>2023-01-11T13:01:40.000Z</time>
      </trkpt>
      <trkpt lat="-49.22952267341315746307373046875" lon="-72.99798642285168170928955078125">
        <ele>516.79998779296875</ele>
        <time>2023-01-11T13:01:41.000Z</time>
      </trkpt>
      <trkpt lat="-49.22952585853636264801025390625" lon="-72.99802162684500217437744140625">
        <ele>517.20001220703125</ele>
        <time>2023-01-11T13:01:43.000Z</time>
      </trkpt>
      <trkpt lat="-49.22952367924153804779052734375" lon="-72.99803989939391613006591796875">
        <ele>517.20001220703125</ele>
        <time>2023-01-11T13:01:44.000Z</time>
      </trkpt>
      <trkpt lat="-49.22954061068594455718994140625" lon="-72.998094968497753143310546875">
        <ele>517.4000244140625</ele>
        <time>2023-01-11T13:01:48.000Z</time>
      </trkpt>
      <trkpt lat="-49.2295494116842746734619140625" lon="-72.9981139115989208221435546875">
        <ele>517.4000244140625</ele>
        <time>2023-01-11T13:01:49.000Z</time>
      </trkpt>
      <trkpt lat="-49.22955972142517566680908203125" lon="-72.99824039451777935028076171875">
        <ele>517.4000244140625</ele>
        <time>2023-01-11T13:01:56.000Z</time>
      </trkpt>
      <trkpt lat="-49.2295551113784313201904296875" lon="-72.99828951247036457061767578125">
        <ele>517.5999755859375</ele>
        <time>2023-01-11T13:02:00.000Z</time>
      </trkpt>
      <trkpt lat="-49.229561649262905120849609375" lon="-72.9983415640890598297119140625">
        <ele>517.79998779296875</ele>
        <time>2023-01-11T13:02:04.000Z</time>
      </trkpt>
      <trkpt lat="-49.22955201007425785064697265625" lon="-72.99848212860524654388427734375">
        <ele>518.20001220703125</ele>
        <time>2023-01-11T13:02:12.000Z</time>
      </trkpt>
      <trkpt lat="-49.22955150716006755828857421875" lon="-72.99850056879222393035888671875">
        <ele>518.20001220703125</ele>
        <time>2023-01-11T13:02:13.000Z</time>
      </trkpt>
      <trkpt lat="-49.229538850486278533935546875" lon="-72.9986071027815341949462890625">
        <ele>518.5999755859375</ele>
        <time>2023-01-11T13:02:19.000Z</time>
      </trkpt>
      <trkpt lat="-49.22953675501048564910888671875" lon="-72.9986250400543212890625">
        <ele>518.5999755859375</ele>
        <time>2023-01-11T13:02:20.000Z</time>
      </trkpt>
      <trkpt lat="-49.229532144963741302490234375" lon="-72.99867709167301654815673828125">
        <ele>518.79998779296875</ele>
        <time>2023-01-11T13:02:24.000Z</time>
      </trkpt>
      <trkpt lat="-49.2294994555413722991943359375" lon="-72.9987435601651668548583984375">
        <ele>518.79998779296875</ele>
        <time>2023-01-11T13:02:28.000Z</time>
      </trkpt>
      <trkpt lat="-49.22949668951332569122314453125" lon="-72.99878102727234363555908203125">
        <ele>518.79998779296875</ele>
        <time>2023-01-11T13:02:30.000Z</time>
      </trkpt>
      <trkpt lat="-49.2294947616755962371826171875" lon="-72.998847998678684234619140625">
        <ele>518.79998779296875</ele>
        <time>2023-01-11T13:02:34.000Z</time>
      </trkpt>
      <trkpt lat="-49.2294917441904544830322265625" lon="-72.9988699592649936676025390625">
        <ele>518.79998779296875</ele>
        <time>2023-01-11T13:02:35.000Z</time>
      </trkpt>
      <trkpt lat="-49.22947087325155735015869140625" lon="-72.998928464949131011962890625">
        <ele>518.79998779296875</ele>
        <time>2023-01-11T13:02:40.000Z</time>
      </trkpt>
      <trkpt lat="-49.229497946798801422119140625" lon="-72.99903147853910923004150390625">
        <ele>519.20001220703125</ele>
        <time>2023-01-11T13:02:45.000Z</time>
      </trkpt>
      <trkpt lat="-49.22950909473001956939697265625" lon="-72.9991284571588039398193359375">
        <ele>519.79998779296875</ele>
        <time>2023-01-11T13:02:50.000Z</time>
      </trkpt>
      <trkpt lat="-49.229508340358734130859375" lon="-72.9991415329277515411376953125">
        <ele>520</ele>
        <time>2023-01-11T13:02:51.000Z</time>
      </trkpt>
      <trkpt lat="-49.22950808890163898468017578125" lon="-72.99915544688701629638671875">
        <ele>520.20001220703125</ele>
        <time>2023-01-11T13:02:52.000Z</time>
      </trkpt>
      <trkpt lat="-49.22950808890163898468017578125" lon="-72.99920112825930118560791015625">
        <ele>520.4000244140625</ele>
        <time>2023-01-11T13:02:54.000Z</time>
      </trkpt>
      <trkpt lat="-49.2295081727206707000732421875" lon="-72.9992451332509517669677734375">
        <ele>520.5999755859375</ele>
        <time>2023-01-11T13:02:57.000Z</time>
      </trkpt>
      <trkpt lat="-49.22950792126357555389404296875" lon="-72.99926131032407283782958984375">
        <ele>520.5999755859375</ele>
        <time>2023-01-11T13:02:58.000Z</time>
      </trkpt>
      <trkpt lat="-49.22950373031198978424072265625" lon="-72.9992971010506153106689453125">
        <ele>520.79998779296875</ele>
        <time>2023-01-11T13:03:00.000Z</time>
      </trkpt>
      <trkpt lat="-49.22947950661182403564453125" lon="-72.9993554390966892242431640625">
        <ele>521</ele>
        <time>2023-01-11T13:03:04.000Z</time>
      </trkpt>
      <trkpt lat="-49.22946550883352756500244140625" lon="-72.99937262199819087982177734375">
        <ele>521</ele>
        <time>2023-01-11T13:03:06.000Z</time>
      </trkpt>
      <trkpt lat="-49.22947992570698261260986328125" lon="-72.9993973486125469207763671875">
        <ele>521</ele>
        <time>2023-01-11T13:03:08.000Z</time>
      </trkpt>
      <trkpt lat="-49.22950364649295806884765625" lon="-72.99943079240620136260986328125">
        <ele>521.20001220703125</ele>
        <time>2023-01-11T13:03:10.000Z</time>
      </trkpt>
      <trkpt lat="-49.22952367924153804779052734375" lon="-72.99955870024859905242919921875">
        <ele>521.4000244140625</ele>
        <time>2023-01-11T13:03:15.000Z</time>
      </trkpt>
      <trkpt lat="-49.229515381157398223876953125" lon="-72.99959289841353893280029296875">
        <ele>521.5999755859375</ele>
        <time>2023-01-11T13:03:17.000Z</time>
      </trkpt>
      <trkpt lat="-49.22950674779713153839111328125" lon="-72.99960982985794544219970703125">
        <ele>521.5999755859375</ele>
        <time>2023-01-11T13:03:18.000Z</time>
      </trkpt>
      <trkpt lat="-49.22944405116140842437744140625" lon="-72.99971443600952625274658203125">
        <ele>522</ele>
        <time>2023-01-11T13:03:26.000Z</time>
      </trkpt>
      <trkpt lat="-49.229448325932025909423828125" lon="-72.9997502267360687255859375">
        <ele>522</ele>
        <time>2023-01-11T13:03:28.000Z</time>
      </trkpt>
      <trkpt lat="-49.2294039018452167510986328125" lon="-72.99984033219516277313232421875">
        <ele>521.79998779296875</ele>
        <time>2023-01-11T13:03:33.000Z</time>
      </trkpt>
      <trkpt lat="-49.2293889820575714111328125" lon="-72.99987503327429294586181640625">
        <ele>521.79998779296875</ele>
        <time>2023-01-11T13:03:36.000Z</time>
      </trkpt>
      <trkpt lat="-49.22936677001416683197021484375" lon="-72.99995281733572483062744140625">
        <ele>522</ele>
        <time>2023-01-11T13:03:41.000Z</time>
      </trkpt>
      <trkpt lat="-49.2293393611907958984375" lon="-73.0000157654285430908203125">
        <ele>522</ele>
        <time>2023-01-11T13:03:47.000Z</time>
      </trkpt>
      <trkpt lat="-49.22932351939380168914794921875" lon="-73.00002875737845897674560546875">
        <ele>522</ele>
        <time>2023-01-11T13:03:49.000Z</time>
      </trkpt>
      <trkpt lat="-49.22927557490766048431396484375" lon="-73.0000828206539154052734375">
        <ele>522</ele>
        <time>2023-01-11T13:03:54.000Z</time>
      </trkpt>
      <trkpt lat="-49.229272305965423583984375" lon="-73.000115342438220977783203125">
        <ele>522</ele>
        <time>2023-01-11T13:03:56.000Z</time>
      </trkpt>
      <trkpt lat="-49.22923584468662738800048828125" lon="-73.00019689835608005523681640625">
        <ele>522.20001220703125</ele>
        <time>2023-01-11T13:04:03.000Z</time>
      </trkpt>
      <trkpt lat="-49.2292288877069950103759765625" lon="-73.00023830495774745941162109375">
        <ele>522.20001220703125</ele>
        <time>2023-01-11T13:04:08.000Z</time>
      </trkpt>
      <trkpt lat="-49.2292476631700992584228515625" lon="-73.0002683959901332855224609375">
        <ele>522.4000244140625</ele>
        <time>2023-01-11T13:04:14.000Z</time>
      </trkpt>
      <trkpt lat="-49.2292533628642559051513671875" lon="-73.00029312260448932647705078125">
        <ele>522.5999755859375</ele>
        <time>2023-01-11T13:04:16.000Z</time>
      </trkpt>
      <trkpt lat="-49.229299463331699371337890625" lon="-73.00039269961416721343994140625">
        <ele>522.79998779296875</ele>
        <time>2023-01-11T13:04:23.000Z</time>
      </trkpt>
      <trkpt lat="-49.22932955436408519744873046875" lon="-73.0004390515387058258056640625">
        <ele>523</ele>
        <time>2023-01-11T13:04:26.000Z</time>
      </trkpt>
      <trkpt lat="-49.2293479107320308685302734375" lon="-73.0005242116749286651611328125">
        <ele>523.20001220703125</ele>
        <time>2023-01-11T13:04:30.000Z</time>
      </trkpt>
      <trkpt lat="-49.229395352303981781005859375" lon="-73.00061699934303760528564453125">
        <ele>523.5999755859375</ele>
        <time>2023-01-11T13:04:37.000Z</time>
      </trkpt>
      <trkpt lat="-49.22940264455974102020263671875" lon="-73.0006526224315166473388671875">
        <ele>523.5999755859375</ele>
        <time>2023-01-11T13:04:39.000Z</time>
      </trkpt>
      <trkpt lat="-49.22940180636942386627197265625" lon="-73.0006888322532176971435546875">
        <ele>524</ele>
        <time>2023-01-11T13:04:41.000Z</time>
      </trkpt>
      <trkpt lat="-49.22940063290297985076904296875" lon="-73.00072261132299900054931640625">
        <ele>524.5999755859375</ele>
        <time>2023-01-11T13:04:44.000Z</time>
      </trkpt>
      <trkpt lat="-49.22938286326825618743896484375" lon="-73.0007967911660671234130859375">
        <ele>524.79998779296875</ele>
        <time>2023-01-11T13:04:49.000Z</time>
      </trkpt>
      <trkpt lat="-49.2293469049036502838134765625" lon="-73.000919334590435028076171875">
        <ele>524.79998779296875</ele>
        <time>2023-01-11T13:04:56.000Z</time>
      </trkpt>
      <trkpt lat="-49.2293180711567401885986328125" lon="-73.00097155384719371795654296875">
        <ele>524.79998779296875</ele>
        <time>2023-01-11T13:04:59.000Z</time>
      </trkpt>
      <trkpt lat="-49.22931346110999584197998046875" lon="-73.0009835399687290191650390625">
        <ele>524.79998779296875</ele>
        <time>2023-01-11T13:05:00.000Z</time>
      </trkpt>
      <trkpt lat="-49.22931916080415248870849609375" lon="-73.00103592686355113983154296875">
        <ele>525.20001220703125</ele>
        <time>2023-01-11T13:05:03.000Z</time>
      </trkpt>
      <trkpt lat="-49.22934279777109622955322265625" lon="-73.001070879399776458740234375">
        <ele>525.4000244140625</ele>
        <time>2023-01-11T13:05:06.000Z</time>
      </trkpt>
      <trkpt lat="-49.22934296540915966033935546875" lon="-73.00112896598875522613525390625">
        <ele>525.4000244140625</ele>
        <time>2023-01-11T13:05:09.000Z</time>
      </trkpt>
      <trkpt lat="-49.22933877445757389068603515625" lon="-73.00115696154534816741943359375">
        <ele>525.5999755859375</ele>
        <time>2023-01-11T13:05:11.000Z</time>
      </trkpt>
      <trkpt lat="-49.22933642752468585968017578125" lon="-73.001167438924312591552734375">
        <ele>525.5999755859375</ele>
        <time>2023-01-11T13:05:12.000Z</time>
      </trkpt>
      <trkpt lat="-49.22934195958077907562255859375" lon="-73.0011991225183010101318359375">
        <ele>525.79998779296875</ele>
        <time>2023-01-11T13:05:15.000Z</time>
      </trkpt>
      <trkpt lat="-49.22935386188328266143798828125" lon="-73.00126693211495876312255859375">
        <ele>526.20001220703125</ele>
        <time>2023-01-11T13:05:20.000Z</time>
      </trkpt>
      <trkpt lat="-49.22936408780515193939208984375" lon="-73.0013114400207996368408203125">
        <ele>526.4000244140625</ele>
        <time>2023-01-11T13:05:22.000Z</time>
      </trkpt>
      <trkpt lat="-49.2294008843600749969482421875" lon="-73.00142015330493450164794921875">
        <ele>526.5999755859375</ele>
        <time>2023-01-11T13:05:29.000Z</time>
      </trkpt>
      <trkpt lat="-49.2294005490839481353759765625" lon="-73.00142870284616947174072265625">
        <ele>526.5999755859375</ele>
        <time>2023-01-11T13:05:30.000Z</time>
      </trkpt>
      <trkpt lat="-49.2294104397296905517578125" lon="-73.001548983156681060791015625">
        <ele>527</ele>
        <time>2023-01-11T13:05:37.000Z</time>
      </trkpt>
      <trkpt lat="-49.2294454760849475860595703125" lon="-73.00161947496235370635986328125">
        <ele>527.5999755859375</ele>
        <time>2023-01-11T13:05:43.000Z</time>
      </trkpt>
      <trkpt lat="-49.22945779748260974884033203125" lon="-73.00163514912128448486328125">
        <ele>527.5999755859375</ele>
        <time>2023-01-11T13:05:44.000Z</time>
      </trkpt>
      <trkpt lat="-49.22949635423719882965087890625" lon="-73.00174109637737274169921875">
        <ele>528.20001220703125</ele>
        <time>2023-01-11T13:05:51.000Z</time>
      </trkpt>
      <trkpt lat="-49.22950909473001956939697265625" lon="-73.00185953266918659210205078125">
        <ele>528.79998779296875</ele>
        <time>2023-01-11T13:05:58.000Z</time>
      </trkpt>
      <trkpt lat="-49.2295142076909542083740234375" lon="-73.0018733628094196319580078125">
        <ele>528.79998779296875</ele>
        <time>2023-01-11T13:05:59.000Z</time>
      </trkpt>
      <trkpt lat="-49.22948352992534637451171875" lon="-73.002013675868511199951171875">
        <ele>529.4000244140625</ele>
        <time>2023-01-11T13:06:08.000Z</time>
      </trkpt>
      <trkpt lat="-49.22944757156074047088623046875" lon="-73.002060614526271820068359375">
        <ele>529.5999755859375</ele>
        <time>2023-01-11T13:06:11.000Z</time>
      </trkpt>
      <trkpt lat="-49.22936392016708850860595703125" lon="-73.00211367197334766387939453125">
        <ele>529.5999755859375</ele>
        <time>2023-01-11T13:06:15.000Z</time>
      </trkpt>
      <trkpt lat="-49.22932167537510395050048828125" lon="-73.0021320283412933349609375">
        <ele>529.5999755859375</ele>
        <time>2023-01-11T13:06:19.000Z</time>
      </trkpt>
      <trkpt lat="-49.22930960543453693389892578125" lon="-73.00216547213494777679443359375">
        <ele>529.79998779296875</ele>
        <time>2023-01-11T13:06:22.000Z</time>
      </trkpt>
      <trkpt lat="-49.22932050190865993499755859375" lon="-73.0022123269736766815185546875">
        <ele>530</ele>
        <time>2023-01-11T13:06:25.000Z</time>
      </trkpt>
      <trkpt lat="-49.22931052744388580322265625" lon="-73.0022334493696689605712890625">
        <ele>530</ele>
        <time>2023-01-11T13:06:28.000Z</time>
      </trkpt>
      <trkpt lat="-49.22930541448295116424560546875" lon="-73.002291955053806304931640625">
        <ele>530.4000244140625</ele>
        <time>2023-01-11T13:06:32.000Z</time>
      </trkpt>
      <trkpt lat="-49.229272641241550445556640625" lon="-73.0023608542978763580322265625">
        <ele>530.5999755859375</ele>
        <time>2023-01-11T13:06:37.000Z</time>
      </trkpt>
      <trkpt lat="-49.2292634211480617523193359375" lon="-73.0024082958698272705078125">
        <ele>530.79998779296875</ele>
        <time>2023-01-11T13:06:42.000Z</time>
      </trkpt>
      <trkpt lat="-49.2292587272822856903076171875" lon="-73.00243302248418331146240234375">
        <ele>530.79998779296875</ele>
        <time>2023-01-11T13:06:44.000Z</time>
      </trkpt>
      <trkpt lat="-49.2292644269764423370361328125" lon="-73.00244425423443317413330078125">
        <ele>531</ele>
        <time>2023-01-11T13:06:45.000Z</time>
      </trkpt>
      <trkpt lat="-49.2292630858719348907470703125" lon="-73.0024721659719944000244140625">
        <ele>531.20001220703125</ele>
        <time>2023-01-11T13:06:47.000Z</time>
      </trkpt>
      <trkpt lat="-49.22925864346325397491455078125" lon="-73.0024896003305912017822265625">
        <ele>531.20001220703125</ele>
        <time>2023-01-11T13:06:48.000Z</time>
      </trkpt>
      <trkpt lat="-49.22924757935106754302978515625" lon="-73.00257735885679721832275390625">
        <ele>531.79998779296875</ele>
        <time>2023-01-11T13:06:54.000Z</time>
      </trkpt>
      <trkpt lat="-49.22924615442752838134765625" lon="-73.0025925301015377044677734375">
        <ele>531.79998779296875</ele>
        <time>2023-01-11T13:06:55.000Z</time>
      </trkpt>
      <trkpt lat="-49.229233078658580780029296875" lon="-73.00265195779502391815185546875">
        <ele>532.4000244140625</ele>
        <time>2023-01-11T13:07:00.000Z</time>
      </trkpt>
      <trkpt lat="-49.229234755039215087890625" lon="-73.0026686377823352813720703125">
        <ele>532.5999755859375</ele>
        <time>2023-01-11T13:07:01.000Z</time>
      </trkpt>
      <trkpt lat="-49.229245483875274658203125" lon="-73.0027356930077075958251953125">
        <ele>532.79998779296875</ele>
        <time>2023-01-11T13:07:05.000Z</time>
      </trkpt>
      <trkpt lat="-49.229250513017177581787109375" lon="-73.0027990601956844329833984375">
        <ele>533.4000244140625</ele>
        <time>2023-01-11T13:07:09.000Z</time>
      </trkpt>
      <trkpt lat="-49.2292547039687633514404296875" lon="-73.0029137246310710906982421875">
        <ele>533.79998779296875</ele>
        <time>2023-01-11T13:07:16.000Z</time>
      </trkpt>
      <trkpt lat="-49.22925059683620929718017578125" lon="-73.00292906351387500762939453125">
        <ele>534</ele>
        <time>2023-01-11T13:07:17.000Z</time>
      </trkpt>
      <trkpt lat="-49.22923140227794647216796875" lon="-73.00299427472054958343505859375">
        <ele>534.5999755859375</ele>
        <time>2023-01-11T13:07:24.000Z</time>
      </trkpt>
      <trkpt lat="-49.229250848293304443359375" lon="-73.0030565522611141204833984375">
        <ele>535</ele>
        <time>2023-01-11T13:07:30.000Z</time>
      </trkpt>
      <trkpt lat="-49.229240454733371734619140625" lon="-73.00314414314925670623779296875">
        <ele>534.5999755859375</ele>
        <time>2023-01-11T13:07:34.000Z</time>
      </trkpt>
      <trkpt lat="-49.22922427766025066375732421875" lon="-73.00321438349783420562744140625">
        <ele>534.5999755859375</ele>
        <time>2023-01-11T13:07:37.000Z</time>
      </trkpt>
      <trkpt lat="-49.22921103425323963165283203125" lon="-73.00330038182437419891357421875">
        <ele>534.79998779296875</ele>
        <time>2023-01-11T13:07:42.000Z</time>
      </trkpt>
      <trkpt lat="-49.229199551045894622802734375" lon="-73.00331630744040012359619140625">
        <ele>534.79998779296875</ele>
        <time>2023-01-11T13:07:44.000Z</time>
      </trkpt>
      <trkpt lat="-49.22915898263454437255859375" lon="-73.0033894814550876617431640625">
        <ele>534.79998779296875</ele>
        <time>2023-01-11T13:07:49.000Z</time>
      </trkpt>
      <trkpt lat="-49.2291413806378841400146484375" lon="-73.00343491137027740478515625">
        <ele>534.79998779296875</ele>
        <time>2023-01-11T13:07:52.000Z</time>
      </trkpt>
      <trkpt lat="-49.22914557158946990966796875" lon="-73.00352417863905429840087890625">
        <ele>534.79998779296875</ele>
        <time>2023-01-11T13:07:58.000Z</time>
      </trkpt>
      <trkpt lat="-49.2291433922946453094482421875" lon="-73.00357614643871784210205078125">
        <ele>535.20001220703125</ele>
        <time>2023-01-11T13:08:03.000Z</time>
      </trkpt>
      <trkpt lat="-49.229147918522357940673828125" lon="-73.003595508635044097900390625">
        <ele>535.20001220703125</ele>
        <time>2023-01-11T13:08:05.000Z</time>
      </trkpt>
      <trkpt lat="-49.2291262932121753692626953125" lon="-73.00366885028779506683349609375">
        <ele>535.5999755859375</ele>
        <time>2023-01-11T13:08:10.000Z</time>
      </trkpt>
      <trkpt lat="-49.22914632596075534820556640625" lon="-73.00375870428979396820068359375">
        <ele>535.5999755859375</ele>
        <time>2023-01-11T13:08:18.000Z</time>
      </trkpt>
      <trkpt lat="-49.22914766706526279449462890625" lon="-73.00376348197460174560546875">
        <ele>535.5999755859375</ele>
        <time>2023-01-11T13:08:19.000Z</time>
      </trkpt>
      <trkpt lat="-49.22915630042552947998046875" lon="-73.00381871871650218963623046875">
        <ele>536</ele>
        <time>2023-01-11T13:08:25.000Z</time>
      </trkpt>
      <trkpt lat="-49.22911933623254299163818359375" lon="-73.00388845615088939666748046875">
        <ele>535.4000244140625</ele>
        <time>2023-01-11T13:08:32.000Z</time>
      </trkpt>
      <trkpt lat="-49.2290723137557506561279296875" lon="-73.003917038440704345703125">
        <ele>534.79998779296875</ele>
        <time>2023-01-11T13:08:35.000Z</time>
      </trkpt>
      <trkpt lat="-49.2290719784796237945556640625" lon="-73.0039614625275135040283203125">
        <ele>534.20001220703125</ele>
        <time>2023-01-11T13:08:38.000Z</time>
      </trkpt>
      <trkpt lat="-49.22904767096042633056640625" lon="-73.00402441062033176422119140625">
        <ele>534</ele>
        <time>2023-01-11T13:08:42.000Z</time>
      </trkpt>
      <trkpt lat="-49.22903803177177906036376953125" lon="-73.00406548194587230682373046875">
        <ele>533.79998779296875</ele>
        <time>2023-01-11T13:08:44.000Z</time>
      </trkpt>
      <trkpt lat="-49.22902889549732208251953125" lon="-73.00409247167408466339111328125">
        <ele>533.79998779296875</ele>
        <time>2023-01-11T13:08:46.000Z</time>
      </trkpt>
      <trkpt lat="-49.229003079235553741455078125" lon="-73.0041223950684070587158203125">
        <ele>533.4000244140625</ele>
        <time>2023-01-11T13:08:49.000Z</time>
      </trkpt>
      <trkpt lat="-49.2289841361343860626220703125" lon="-73.0041659809648990631103515625">
        <ele>533</ele>
        <time>2023-01-11T13:08:52.000Z</time>
      </trkpt>
      <trkpt lat="-49.228976257145404815673828125" lon="-73.00417042337357997894287109375">
        <ele>533</ele>
        <time>2023-01-11T13:08:53.000Z</time>
      </trkpt>
      <trkpt lat="-49.2289660312235355377197265625" lon="-73.00418115220963954925537109375">
        <ele>533</ele>
        <time>2023-01-11T13:08:54.000Z</time>
      </trkpt>
      <trkpt lat="-49.2289348505437374114990234375" lon="-73.00423312000930309295654296875">
        <ele>532.4000244140625</ele>
        <time>2023-01-11T13:08:59.000Z</time>
      </trkpt>
      <trkpt lat="-49.22887257300317287445068359375" lon="-73.00428290851414203643798828125">
        <ele>531.79998779296875</ele>
        <time>2023-01-11T13:09:04.000Z</time>
      </trkpt>
      <trkpt lat="-49.22882932238280773162841796875" lon="-73.00431995652616024017333984375">
        <ele>531.5999755859375</ele>
        <time>2023-01-11T13:09:07.000Z</time>
      </trkpt>
      <trkpt lat="-49.22881892882287502288818359375" lon="-73.00435918383300304412841796875">
        <ele>531.4000244140625</ele>
        <time>2023-01-11T13:09:09.000Z</time>
      </trkpt>
      <trkpt lat="-49.22879177145659923553466796875" lon="-73.0044080503284931182861328125">
        <ele>531</ele>
        <time>2023-01-11T13:09:13.000Z</time>
      </trkpt>
      <trkpt lat="-49.2287729121744632720947265625" lon="-73.0044306814670562744140625">
        <ele>530.79998779296875</ele>
        <time>2023-01-11T13:09:15.000Z</time>
      </trkpt>
      <trkpt lat="-49.2287333495914936065673828125" lon="-73.00443730317056179046630859375">
        <ele>530.79998779296875</ele>
        <time>2023-01-11T13:09:19.000Z</time>
      </trkpt>
      <trkpt lat="-49.2287008278071880340576171875" lon="-73.004462532699108123779296875">
        <ele>529.79998779296875</ele>
        <time>2023-01-11T13:09:26.000Z</time>
      </trkpt>
      <trkpt lat="-49.228683896362781524658203125" lon="-73.0045025981962680816650390625">
        <ele>528.5999755859375</ele>
        <time>2023-01-11T13:09:33.000Z</time>
      </trkpt>
      <trkpt lat="-49.22867174260318279266357421875" lon="-73.00451718270778656005859375">
        <ele>528.4000244140625</ele>
        <time>2023-01-11T13:09:34.000Z</time>
      </trkpt>
      <trkpt lat="-49.2286257259547710418701171875" lon="-73.004608042538166046142578125">
        <ele>527.5999755859375</ele>
        <time>2023-01-11T13:09:39.000Z</time>
      </trkpt>
      <trkpt lat="-49.22862212173640727996826171875" lon="-73.00461776554584503173828125">
        <ele>527.4000244140625</ele>
        <time>2023-01-11T13:09:40.000Z</time>
      </trkpt>
      <trkpt lat="-49.2286233790218830108642578125" lon="-73.00466227345168590545654296875">
        <ele>527.4000244140625</ele>
        <time>2023-01-11T13:09:43.000Z</time>
      </trkpt>
      <trkpt lat="-49.22861994244158267974853515625" lon="-73.004681132733821868896484375">
        <ele>527.4000244140625</ele>
        <time>2023-01-11T13:09:44.000Z</time>
      </trkpt>
      <trkpt lat="-49.22862497158348560333251953125" lon="-73.00471700727939605712890625">
        <ele>527.20001220703125</ele>
        <time>2023-01-11T13:09:46.000Z</time>
      </trkpt>
      <trkpt lat="-49.22862832434475421905517578125" lon="-73.00473368726670742034912109375">
        <ele>527.20001220703125</ele>
        <time>2023-01-11T13:09:47.000Z</time>
      </trkpt>
      <trkpt lat="-49.228612482547760009765625" lon="-73.00479755736887454986572265625">
        <ele>527.79998779296875</ele>
        <time>2023-01-11T13:09:53.000Z</time>
      </trkpt>
      <trkpt lat="-49.2286143265664577484130859375" lon="-73.00483024679124355316162109375">
        <ele>528.20001220703125</ele>
        <time>2023-01-11T13:09:56.000Z</time>
      </trkpt>
      <trkpt lat="-49.22861793078482151031494140625" lon="-73.00485388375818729400634765625">
        <ele>528.5999755859375</ele>
        <time>2023-01-11T13:09:58.000Z</time>
      </trkpt>
      <trkpt lat="-49.2286196909844875335693359375" lon="-73.00486360676586627960205078125">
        <ele>528.5999755859375</ele>
        <time>2023-01-11T13:09:59.000Z</time>
      </trkpt>
      <trkpt lat="-49.22863083891570568084716796875" lon="-73.00488774664700031280517578125">
        <ele>529</ele>
        <time>2023-01-11T13:10:03.000Z</time>
      </trkpt>
      <trkpt lat="-49.2286352813243865966796875" lon="-73.00490149296820163726806640625">
        <ele>529</ele>
        <time>2023-01-11T13:10:04.000Z</time>
      </trkpt>
      <trkpt lat="-49.22863888554275035858154296875" lon="-73.0049146525561809539794921875">
        <ele>529</ele>
        <time>2023-01-11T13:10:05.000Z</time>
      </trkpt>
      <trkpt lat="-49.2286659590899944305419921875" lon="-73.00497324205935001373291015625">
        <ele>529.20001220703125</ele>
        <time>2023-01-11T13:10:09.000Z</time>
      </trkpt>
      <trkpt lat="-49.22867911867797374725341796875" lon="-73.0050189234316349029541015625">
        <ele>529.4000244140625</ele>
        <time>2023-01-11T13:10:12.000Z</time>
      </trkpt>
      <trkpt lat="-49.22868615947663784027099609375" lon="-73.00504557788372039794921875">
        <ele>529.79998779296875</ele>
        <time>2023-01-11T13:10:15.000Z</time>
      </trkpt>
      <trkpt lat="-49.2286835610866546630859375" lon="-73.00509830005466938018798828125">
        <ele>530.20001220703125</ele>
        <time>2023-01-11T13:10:18.000Z</time>
      </trkpt>
      <trkpt lat="-49.2286773584783077239990234375" lon="-73.00527364946901798248291015625">
        <ele>530.5999755859375</ele>
        <time>2023-01-11T13:10:27.000Z</time>
      </trkpt>
      <trkpt lat="-49.22874114476144313812255859375" lon="-73.00538965500891208648681640625">
        <ele>530.79998779296875</ele>
        <time>2023-01-11T13:10:37.000Z</time>
      </trkpt>
      <trkpt lat="-49.2287507839500904083251953125" lon="-73.005403317511081695556640625">
        <ele>531</ele>
        <time>2023-01-11T13:10:38.000Z</time>
      </trkpt>
      <trkpt lat="-49.22877232544124126434326171875" lon="-73.0054842866957187652587890625">
        <ele>531.5999755859375</ele>
        <time>2023-01-11T13:10:44.000Z</time>
      </trkpt>
      <trkpt lat="-49.22878540121018886566162109375" lon="-73.00551990978419780731201171875">
        <ele>531.79998779296875</ele>
        <time>2023-01-11T13:10:46.000Z</time>
      </trkpt>
      <trkpt lat="-49.22879126854240894317626953125" lon="-73.0055411159992218017578125">
        <ele>532</ele>
        <time>2023-01-11T13:10:47.000Z</time>
      </trkpt>
      <trkpt lat="-49.228790514171123504638671875" lon="-73.00558176822960376739501953125">
        <ele>532.20001220703125</ele>
        <time>2023-01-11T13:10:50.000Z</time>
      </trkpt>
      <trkpt lat="-49.22879822552204132080078125" lon="-73.00559333525598049163818359375">
        <ele>532.4000244140625</ele>
        <time>2023-01-11T13:10:51.000Z</time>
      </trkpt>
      <trkpt lat="-49.22880585305392742156982421875" lon="-73.00560347735881805419921875">
        <ele>532.4000244140625</ele>
        <time>2023-01-11T13:10:52.000Z</time>
      </trkpt>
      <trkpt lat="-49.228809960186481475830078125" lon="-73.00561278127133846282958984375">
        <ele>532.4000244140625</ele>
        <time>2023-01-11T13:10:53.000Z</time>
      </trkpt>
      <trkpt lat="-49.228828065097332000732421875" lon="-73.0056680180132389068603515625">
        <ele>532.5999755859375</ele>
        <time>2023-01-11T13:10:57.000Z</time>
      </trkpt>
      <trkpt lat="-49.2288476787507534027099609375" lon="-73.00572727806866168975830078125">
        <ele>532.5999755859375</ele>
        <time>2023-01-11T13:11:01.000Z</time>
      </trkpt>
      <trkpt lat="-49.2288771830499172210693359375" lon="-73.00584479235112667083740234375">
        <ele>533</ele>
        <time>2023-01-11T13:11:08.000Z</time>
      </trkpt>
      <trkpt lat="-49.2288835532963275909423828125" lon="-73.00585669465363025665283203125">
        <ele>533</ele>
        <time>2023-01-11T13:11:09.000Z</time>
      </trkpt>
      <trkpt lat="-49.2288999818265438079833984375" lon="-73.0059332214295864105224609375">
        <ele>533.5999755859375</ele>
        <time>2023-01-11T13:11:17.000Z</time>
      </trkpt>
      <trkpt lat="-49.22893526963889598846435546875" lon="-73.00595694221556186676025390625">
        <ele>533.5999755859375</ele>
        <time>2023-01-11T13:11:20.000Z</time>
      </trkpt>
      <trkpt lat="-49.22897047363221645355224609375" lon="-73.0059912241995334625244140625">
        <ele>533.5999755859375</ele>
        <time>2023-01-11T13:11:24.000Z</time>
      </trkpt>
      <trkpt lat="-49.22897583805024623870849609375" lon="-73.0059986002743244171142578125">
        <ele>533.79998779296875</ele>
        <time>2023-01-11T13:11:31.000Z</time>
      </trkpt>
      <trkpt lat="-49.22899293713271617889404296875" lon="-73.0060110054910182952880859375">
        <ele>533.79998779296875</ele>
        <time>2023-01-11T13:11:40.000Z</time>
      </trkpt>
      <trkpt lat="-49.22900701873004436492919921875" lon="-73.0060599558055400848388671875">
        <ele>534</ele>
        <time>2023-01-11T13:11:48.000Z</time>
      </trkpt>
      <trkpt lat="-49.22904289327561855316162109375" lon="-73.00617302767932415008544921875">
        <ele>534</ele>
        <time>2023-01-11T13:11:54.000Z</time>
      </trkpt>
      <trkpt lat="-49.22904658131301403045654296875" lon="-73.00626422278583049774169921875">
        <ele>534.4000244140625</ele>
        <time>2023-01-11T13:12:00.000Z</time>
      </trkpt>
      <trkpt lat="-49.22901682555675506591796875" lon="-73.00637670792639255523681640625">
        <ele>534.20001220703125</ele>
        <time>2023-01-11T13:12:07.000Z</time>
      </trkpt>
      <trkpt lat="-49.22900852747261524200439453125" lon="-73.00639741122722625732421875">
        <ele>534.20001220703125</ele>
        <time>2023-01-11T13:12:08.000Z</time>
      </trkpt>
      <trkpt lat="-49.229094274342060089111328125" lon="-73.00649707205593585968017578125">
        <ele>534</ele>
        <time>2023-01-11T13:12:16.000Z</time>
      </trkpt>
      <trkpt lat="-49.22909838147461414337158203125" lon="-73.00651609897613525390625">
        <ele>534</ele>
        <time>2023-01-11T13:12:17.000Z</time>
      </trkpt>
      <trkpt lat="-49.2290545441210269927978515625" lon="-73.00661223940551280975341796875">
        <ele>534.4000244140625</ele>
        <time>2023-01-11T13:12:24.000Z</time>
      </trkpt>
      <trkpt lat="-49.22907239757478237152099609375" lon="-73.006698153913021087646484375">
        <ele>534.20001220703125</ele>
        <time>2023-01-11T13:12:29.000Z</time>
      </trkpt>
      <trkpt lat="-49.22906921245157718658447265625" lon="-73.00672589801251888275146484375">
        <ele>534.20001220703125</ele>
        <time>2023-01-11T13:12:31.000Z</time>
      </trkpt>
      <trkpt lat="-49.22904876060783863067626953125" lon="-73.00684927962720394134521484375">
        <ele>534</ele>
        <time>2023-01-11T13:12:39.000Z</time>
      </trkpt>
      <trkpt lat="-49.22904524020850658416748046875" lon="-73.0068693123757839202880859375">
        <ele>534</ele>
        <time>2023-01-11T13:12:40.000Z</time>
      </trkpt>
      <trkpt lat="-49.2290411330759525299072265625" lon="-73.00692656077444553375244140625">
        <ele>534</ele>
        <time>2023-01-11T13:12:44.000Z</time>
      </trkpt>
      <trkpt lat="-49.22903534956276416778564453125" lon="-73.00694298930466175079345703125">
        <ele>534</ele>
        <time>2023-01-11T13:12:45.000Z</time>
      </trkpt>
      <trkpt lat="-49.22902914695441722869873046875" lon="-73.00698104314506053924560546875">
        <ele>534</ele>
        <time>2023-01-11T13:12:48.000Z</time>
      </trkpt>
      <trkpt lat="-49.22903233207762241363525390625" lon="-73.006996549665927886962890625">
        <ele>534</ele>
        <time>2023-01-11T13:12:49.000Z</time>
      </trkpt>
      <trkpt lat="-49.2290367744863033294677734375" lon="-73.00711984746158123016357421875">
        <ele>534.20001220703125</ele>
        <time>2023-01-11T13:12:57.000Z</time>
      </trkpt>
      <trkpt lat="-49.229013808071613311767578125" lon="-73.0071992240846157073974609375">
        <ele>534</ele>
        <time>2023-01-11T13:13:03.000Z</time>
      </trkpt>
      <trkpt lat="-49.22897114418447017669677734375" lon="-73.00735755823552608489990234375">
        <ele>534</ele>
        <time>2023-01-11T13:13:13.000Z</time>
      </trkpt>
      <trkpt lat="-49.22896175645291805267333984375" lon="-73.00750273279845714569091796875">
        <ele>534.20001220703125</ele>
        <time>2023-01-11T13:13:22.000Z</time>
      </trkpt>
      <trkpt lat="-49.228967539966106414794921875" lon="-73.00764606334269046783447265625">
        <ele>533.5999755859375</ele>
        <time>2023-01-11T13:13:29.000Z</time>
      </trkpt>
      <trkpt lat="-49.2289606668055057525634765625" lon="-73.0077396892011165618896484375">
        <ele>533.4000244140625</ele>
        <time>2023-01-11T13:13:34.000Z</time>
      </trkpt>
      <trkpt lat="-49.2289355210959911346435546875" lon="-73.00781990401446819305419921875">
        <ele>533.4000244140625</ele>
        <time>2023-01-11T13:13:38.000Z</time>
      </trkpt>
      <trkpt lat="-49.22891884110867977142333984375" lon="-73.00784186460077762603759765625">
        <ele>533.20001220703125</ele>
        <time>2023-01-11T13:13:40.000Z</time>
      </trkpt>
      <trkpt lat="-49.22887391410768032073974609375" lon="-73.00787924788892269134521484375">
        <ele>533</ele>
        <time>2023-01-11T13:13:44.000Z</time>
      </trkpt>
      <trkpt lat="-49.228813312947750091552734375" lon="-73.007925264537334442138671875">
        <ele>531.79998779296875</ele>
        <time>2023-01-11T13:13:50.000Z</time>
      </trkpt>
      <trkpt lat="-49.22880568541586399078369140625" lon="-73.00793741829693317413330078125">
        <ele>531.79998779296875</ele>
        <time>2023-01-11T13:13:51.000Z</time>
      </trkpt>
      <trkpt lat="-49.22878523357212543487548828125" lon="-73.00797580741345882415771484375">
        <ele>531.5999755859375</ele>
        <time>2023-01-11T13:13:54.000Z</time>
      </trkpt>
      <trkpt lat="-49.228756986558437347412109375" lon="-73.00810907967388629913330078125">
        <ele>531</ele>
        <time>2023-01-11T13:14:01.000Z</time>
      </trkpt>
      <trkpt lat="-49.22875388525426387786865234375" lon="-73.00811897031962871551513671875">
        <ele>530.79998779296875</ele>
        <time>2023-01-11T13:14:02.000Z</time>
      </trkpt>
      <trkpt lat="-49.228754304349422454833984375" lon="-73.00813053734600543975830078125">
        <ele>530.79998779296875</ele>
        <time>2023-01-11T13:14:03.000Z</time>
      </trkpt>
      <trkpt lat="-49.22871465794742107391357421875" lon="-73.0082295276224613189697265625">
        <ele>529.79998779296875</ele>
        <time>2023-01-11T13:14:10.000Z</time>
      </trkpt>
      <trkpt lat="-49.22871063463389873504638671875" lon="-73.00824344158172607421875">
        <ele>529.5999755859375</ele>
        <time>2023-01-11T13:14:11.000Z</time>
      </trkpt>
      <trkpt lat="-49.22868263907730579376220703125" lon="-73.0082798190414905548095703125">
        <ele>529.20001220703125</ele>
        <time>2023-01-11T13:14:14.000Z</time>
      </trkpt>
      <trkpt lat="-49.22865900211036205291748046875" lon="-73.0083453655242919921875">
        <ele>529.4000244140625</ele>
        <time>2023-01-11T13:14:19.000Z</time>
      </trkpt>
      <trkpt lat="-49.2286726646125316619873046875" lon="-73.00845189951360225677490234375">
        <ele>529.79998779296875</ele>
        <time>2023-01-11T13:14:25.000Z</time>
      </trkpt>
      <trkpt lat="-49.2286763526499271392822265625" lon="-73.00848425365984439849853515625">
        <ele>529.79998779296875</ele>
        <time>2023-01-11T13:14:27.000Z</time>
      </trkpt>
      <trkpt lat="-49.228680543601512908935546875" lon="-73.00850822590291500091552734375">
        <ele>529.79998779296875</ele>
        <time>2023-01-11T13:14:28.000Z</time>
      </trkpt>
      <trkpt lat="-49.228692613542079925537109375" lon="-73.00858651287853717803955078125">
        <ele>529.5999755859375</ele>
        <time>2023-01-11T13:14:35.000Z</time>
      </trkpt>
      <trkpt lat="-49.228709042072296142578125" lon="-73.0086251534521579742431640625">
        <ele>530.20001220703125</ele>
        <time>2023-01-11T13:14:44.000Z</time>
      </trkpt>
      <trkpt lat="-49.22874164767563343048095703125" lon="-73.0087421648204326629638671875">
        <ele>530</ele>
        <time>2023-01-11T13:14:52.000Z</time>
      </trkpt>
      <trkpt lat="-49.22874131239950656890869140625" lon="-73.00875104963779449462890625">
        <ele>530</ele>
        <time>2023-01-11T13:14:53.000Z</time>
      </trkpt>
      <trkpt lat="-49.22873963601887226104736328125" lon="-73.008771501481533050537109375">
        <ele>530.20001220703125</ele>
        <time>2023-01-11T13:14:55.000Z</time>
      </trkpt>
      <trkpt lat="-49.22876008786261081695556640625" lon="-73.00882439129054546356201171875">
        <ele>530.20001220703125</ele>
        <time>2023-01-11T13:15:00.000Z</time>
      </trkpt>
      <trkpt lat="-49.2287890054285526275634765625" lon="-73.00885020755231380462646484375">
        <ele>530.4000244140625</ele>
        <time>2023-01-11T13:15:03.000Z</time>
      </trkpt>
      <trkpt lat="-49.2288302443921566009521484375" lon="-73.00891005434095859527587890625">
        <ele>530.5999755859375</ele>
        <time>2023-01-11T13:15:08.000Z</time>
      </trkpt>
      <trkpt lat="-49.2288322560489177703857421875" lon="-73.00891810096800327301025390625">
        <ele>530.5999755859375</ele>
        <time>2023-01-11T13:15:09.000Z</time>
      </trkpt>
      <trkpt lat="-49.2288329266011714935302734375" lon="-73.00892832688987255096435546875">
        <ele>530.5999755859375</ele>
        <time>2023-01-11T13:15:10.000Z</time>
      </trkpt>
      <trkpt lat="-49.22883979976177215576171875" lon="-73.00895665772259235382080078125">
        <ele>531.20001220703125</ele>
        <time>2023-01-11T13:15:12.000Z</time>
      </trkpt>
      <trkpt lat="-49.2288480140268802642822265625" lon="-73.00897090695798397064208984375">
        <ele>531.4000244140625</ele>
        <time>2023-01-11T13:15:14.000Z</time>
      </trkpt>
      <trkpt lat="-49.22887022607028484344482421875" lon="-73.0090006627142429351806640625">
        <ele>531.5999755859375</ele>
        <time>2023-01-11T13:15:17.000Z</time>
      </trkpt>
      <trkpt lat="-49.2289093695580959320068359375" lon="-73.0090512894093990325927734375">
        <ele>531.79998779296875</ele>
        <time>2023-01-11T13:15:22.000Z</time>
      </trkpt>
      <trkpt lat="-49.2289472557604312896728515625" lon="-73.0091233737766742706298828125">
        <ele>532</ele>
        <time>2023-01-11T13:15:28.000Z</time>
      </trkpt>
      <trkpt lat="-49.2289640195667743682861328125" lon="-73.00919227302074432373046875">
        <ele>532</ele>
        <time>2023-01-11T13:15:32.000Z</time>
      </trkpt>
      <trkpt lat="-49.22899025492370128631591796875" lon="-73.0092219449579715728759765625">
        <ele>531.79998779296875</ele>
        <time>2023-01-11T13:15:35.000Z</time>
      </trkpt>
      <trkpt lat="-49.2290692962706089019775390625" lon="-73.0093205161392688751220703125">
        <ele>531.5999755859375</ele>
        <time>2023-01-11T13:15:46.000Z</time>
      </trkpt>
      <trkpt lat="-49.22911095432937145233154296875" lon="-73.00942721776664257049560546875">
        <ele>531.20001220703125</ele>
        <time>2023-01-11T13:15:53.000Z</time>
      </trkpt>
      <trkpt lat="-49.22914532013237476348876953125" lon="-73.0095136351883411407470703125">
        <ele>531.20001220703125</ele>
        <time>2023-01-11T13:16:00.000Z</time>
      </trkpt>
      <trkpt lat="-49.22914599068462848663330078125" lon="-73.009523190557956695556640625">
        <ele>531.4000244140625</ele>
        <time>2023-01-11T13:16:02.000Z</time>
      </trkpt>
      <trkpt lat="-49.229169376194477081298828125" lon="-73.00955629907548427581787109375">
        <ele>531.5999755859375</ele>
        <time>2023-01-11T13:16:08.000Z</time>
      </trkpt>
      <trkpt lat="-49.22917264513671398162841796875" lon="-73.009582869708538055419921875">
        <ele>531.79998779296875</ele>
        <time>2023-01-11T13:16:11.000Z</time>
      </trkpt>
      <trkpt lat="-49.229198209941387176513671875" lon="-73.00961413420736789703369140625">
        <ele>531.79998779296875</ele>
        <time>2023-01-11T13:16:16.000Z</time>
      </trkpt>
      <trkpt lat="-49.2292231880128383636474609375" lon="-73.00966174341738224029541015625">
        <ele>532</ele>
        <time>2023-01-11T13:16:22.000Z</time>
      </trkpt>
      <trkpt lat="-49.22926316969096660614013671875" lon="-73.00971639342606067657470703125">
        <ele>532.20001220703125</ele>
        <time>2023-01-11T13:16:29.000Z</time>
      </trkpt>
      <trkpt lat="-49.229269288480281829833984375" lon="-73.00979669205844402313232421875">
        <ele>532.20001220703125</ele>
        <time>2023-01-11T13:16:34.000Z</time>
      </trkpt>
      <trkpt lat="-49.2292778380215167999267578125" lon="-73.0099950917065143585205078125">
        <ele>531.79998779296875</ele>
        <time>2023-01-11T13:16:46.000Z</time>
      </trkpt>
      <trkpt lat="-49.2292754910886287689208984375" lon="-73.0100866220891475677490234375">
        <ele>531</ele>
        <time>2023-01-11T13:16:51.000Z</time>
      </trkpt>
      <trkpt lat="-49.22927306033670902252197265625" lon="-73.01018376834690570831298828125">
        <ele>530.79998779296875</ele>
        <time>2023-01-11T13:16:56.000Z</time>
      </trkpt>
      <trkpt lat="-49.2292738147079944610595703125" lon="-73.01023607142269611358642578125">
        <ele>530.79998779296875</ele>
        <time>2023-01-11T13:16:59.000Z</time>
      </trkpt>
      <trkpt lat="-49.2292872257530689239501953125" lon="-73.01039784215390682220458984375">
        <ele>531.20001220703125</ele>
        <time>2023-01-11T13:17:09.000Z</time>
      </trkpt>
      <trkpt lat="-49.22930113971233367919921875" lon="-73.01049976609647274017333984375">
        <ele>531.20001220703125</ele>
        <time>2023-01-11T13:17:18.000Z</time>
      </trkpt>
      <trkpt lat="-49.229291416704654693603515625" lon="-73.01050881855189800262451171875">
        <ele>530.79998779296875</ele>
        <time>2023-01-11T13:17:27.000Z</time>
      </trkpt>
      <trkpt lat="-49.229287393391132354736328125" lon="-73.01061929203569889068603515625">
        <ele>530.5999755859375</ele>
        <time>2023-01-11T13:17:33.000Z</time>
      </trkpt>
      <trkpt lat="-49.22929736785590648651123046875" lon="-73.01075289957225322723388671875">
        <ele>530.4000244140625</ele>
        <time>2023-01-11T13:17:41.000Z</time>
      </trkpt>
      <trkpt lat="-49.22927658073604106903076171875" lon="-73.0108089745044708251953125">
        <ele>530.20001220703125</ele>
        <time>2023-01-11T13:17:46.000Z</time>
      </trkpt>
      <trkpt lat="-49.2292530275881290435791015625" lon="-73.01083822734653949737548828125">
        <ele>530.20001220703125</ele>
        <time>2023-01-11T13:17:49.000Z</time>
      </trkpt>
      <trkpt lat="-49.22918739728629589080810546875" lon="-73.01089857704937458038330078125">
        <ele>530.20001220703125</ele>
        <time>2023-01-11T13:17:56.000Z</time>
      </trkpt>
      <trkpt lat="-49.22918253578245639801025390625" lon="-73.010913245379924774169921875">
        <ele>530.20001220703125</ele>
        <time>2023-01-11T13:17:57.000Z</time>
      </trkpt>
      <trkpt lat="-49.22912503592669963836669921875" lon="-73.0110441707074642181396484375">
        <ele>530.20001220703125</ele>
        <time>2023-01-11T13:18:06.000Z</time>
      </trkpt>
      <trkpt lat="-49.22906435094773769378662109375" lon="-73.0111477710306644439697265625">
        <ele>530.20001220703125</ele>
        <time>2023-01-11T13:18:14.000Z</time>
      </trkpt>
      <trkpt lat="-49.22903132624924182891845703125" lon="-73.0111792869865894317626953125">
        <ele>530.20001220703125</ele>
        <time>2023-01-11T13:18:17.000Z</time>
      </trkpt>
      <trkpt lat="-49.2290236987173557281494140625" lon="-73.01118657924234867095947265625">
        <ele>530.20001220703125</ele>
        <time>2023-01-11T13:18:18.000Z</time>
      </trkpt>
      <trkpt lat="-49.2290146462619304656982421875" lon="-73.01121373660862445831298828125">
        <ele>530.20001220703125</ele>
        <time>2023-01-11T13:18:20.000Z</time>
      </trkpt>
      <trkpt lat="-49.22901372425258159637451171875" lon="-73.01122848875820636749267578125">
        <ele>530.20001220703125</ele>
        <time>2023-01-11T13:18:21.000Z</time>
      </trkpt>
      <trkpt lat="-49.22899846918880939483642578125" lon="-73.011244833469390869140625">
        <ele>530.20001220703125</ele>
        <time>2023-01-11T13:18:23.000Z</time>
      </trkpt>
      <trkpt lat="-49.22898371703922748565673828125" lon="-73.01125715486705303192138671875">
        <ele>530.20001220703125</ele>
        <time>2023-01-11T13:18:26.000Z</time>
      </trkpt>
      <trkpt lat="-49.2289455793797969818115234375" lon="-73.0112889222800731658935546875">
        <ele>530.20001220703125</ele>
        <time>2023-01-11T13:18:30.000Z</time>
      </trkpt>
      <trkpt lat="-49.22892160713672637939453125" lon="-73.011310212314128875732421875">
        <ele>530.20001220703125</ele>
        <time>2023-01-11T13:18:33.000Z</time>
      </trkpt>
      <trkpt lat="-49.22888531349599361419677734375" lon="-73.0113750882446765899658203125">
        <ele>530.20001220703125</ele>
        <time>2023-01-11T13:18:39.000Z</time>
      </trkpt>
      <trkpt lat="-49.2288537137210369110107421875" lon="-73.0114049278199672698974609375">
        <ele>530.20001220703125</ele>
        <time>2023-01-11T13:18:44.000Z</time>
      </trkpt>
      <trkpt lat="-49.22881289385259151458740234375" lon="-73.011396043002605438232421875">
        <ele>530.20001220703125</ele>
        <time>2023-01-11T13:18:50.000Z</time>
      </trkpt>
      <trkpt lat="-49.22881037928164005279541015625" lon="-73.01140601746737957000732421875">
        <ele>530.20001220703125</ele>
        <time>2023-01-11T13:18:51.000Z</time>
      </trkpt>
      <trkpt lat="-49.2288044281303882598876953125" lon="-73.011416159570217132568359375">
        <ele>530.20001220703125</ele>
        <time>2023-01-11T13:18:52.000Z</time>
      </trkpt>
      <trkpt lat="-49.22876411117613315582275390625" lon="-73.011459410190582275390625">
        <ele>530.20001220703125</ele>
        <time>2023-01-11T13:18:59.000Z</time>
      </trkpt>
      <trkpt lat="-49.2287598364055156707763671875" lon="-73.011468462646007537841796875">
        <ele>530.20001220703125</ele>
        <time>2023-01-11T13:19:00.000Z</time>
      </trkpt>
      <trkpt lat="-49.22872991301119327545166015625" lon="-73.011542223393917083740234375">
        <ele>530.20001220703125</ele>
        <time>2023-01-11T13:19:05.000Z</time>
      </trkpt>
      <trkpt lat="-49.2286797054111957550048828125" lon="-73.01161439158022403717041015625">
        <ele>530.20001220703125</ele>
        <time>2023-01-11T13:19:12.000Z</time>
      </trkpt>
      <trkpt lat="-49.22863863408565521240234375" lon="-73.01169485785067081451416015625">
        <ele>530.20001220703125</ele>
        <time>2023-01-11T13:19:18.000Z</time>
      </trkpt>
      <trkpt lat="-49.22862924635410308837890625" lon="-73.0117043294012546539306640625">
        <ele>530.20001220703125</ele>
        <time>2023-01-11T13:19:19.000Z</time>
      </trkpt>
      <trkpt lat="-49.22860720194876194000244140625" lon="-73.0117184109985828399658203125">
        <ele>530.20001220703125</ele>
        <time>2023-01-11T13:19:21.000Z</time>
      </trkpt>
      <trkpt lat="-49.228591024875640869140625" lon="-73.0117348395287990570068359375">
        <ele>530.20001220703125</ele>
        <time>2023-01-11T13:19:23.000Z</time>
      </trkpt>
      <trkpt lat="-49.22858708538115024566650390625" lon="-73.0117378570139408111572265625">
        <ele>530.20001220703125</ele>
        <time>2023-01-11T13:19:25.000Z</time>
      </trkpt>
      <trkpt lat="-49.22854249365627765655517578125" lon="-73.01179938018321990966796875">
        <ele>530.20001220703125</ele>
        <time>2023-01-11T13:19:31.000Z</time>
      </trkpt>
      <trkpt lat="-49.2285355366766452789306640625" lon="-73.01181253977119922637939453125">
        <ele>530.20001220703125</ele>
        <time>2023-01-11T13:19:32.000Z</time>
      </trkpt>
      <trkpt lat="-49.22846185974776744842529296875" lon="-73.0118679441511631011962890625">
        <ele>530.20001220703125</ele>
        <time>2023-01-11T13:19:40.000Z</time>
      </trkpt>
      <trkpt lat="-49.2283952236175537109375" lon="-73.01194421947002410888671875">
        <ele>530.20001220703125</ele>
        <time>2023-01-11T13:19:47.000Z</time>
      </trkpt>
      <trkpt lat="-49.2283729277551174163818359375" lon="-73.0119732208549976348876953125">
        <ele>533</ele>
        <time>2023-01-11T13:19:50.000Z</time>
      </trkpt>
      <trkpt lat="-49.22830427996814250946044921875" lon="-73.0120701156556606292724609375">
        <ele>532.79998779296875</ele>
        <time>2023-01-11T13:19:59.000Z</time>
      </trkpt>
      <trkpt lat="-49.2281922139227390289306640625" lon="-73.0121988616883754730224609375">
        <ele>532</ele>
        <time>2023-01-11T13:20:11.000Z</time>
      </trkpt>
      <trkpt lat="-49.22816530801355838775634765625" lon="-73.012237250804901123046875">
        <ele>531.79998779296875</ele>
        <time>2023-01-11T13:20:14.000Z</time>
      </trkpt>
      <trkpt lat="-49.228091128170490264892578125" lon="-73.012334816157817840576171875">
        <ele>532.20001220703125</ele>
        <time>2023-01-11T13:20:23.000Z</time>
      </trkpt>
      <trkpt lat="-49.228034801781177520751953125" lon="-73.012435398995876312255859375">
        <ele>532.5999755859375</ele>
        <time>2023-01-11T13:20:31.000Z</time>
      </trkpt>
      <trkpt lat="-49.22797688283026218414306640625" lon="-73.01256942562758922576904296875">
        <ele>532.5999755859375</ele>
        <time>2023-01-11T13:20:41.000Z</time>
      </trkpt>
      <trkpt lat="-49.22793346457183361053466796875" lon="-73.01265743561089038848876953125">
        <ele>532.79998779296875</ele>
        <time>2023-01-11T13:20:48.000Z</time>
      </trkpt>
      <trkpt lat="-49.22790882177650928497314453125" lon="-73.01269314251840114593505859375">
        <ele>532.79998779296875</ele>
        <time>2023-01-11T13:20:51.000Z</time>
      </trkpt>
      <trkpt lat="-49.22780287452042102813720703125" lon="-73.0127964913845062255859375">
        <ele>532.79998779296875</ele>
        <time>2023-01-11T13:21:01.000Z</time>
      </trkpt>
      <trkpt lat="-49.22773816622793674468994140625" lon="-73.01291249692440032958984375">
        <ele>532.79998779296875</ele>
        <time>2023-01-11T13:21:10.000Z</time>
      </trkpt>
      <trkpt lat="-49.22770162113010883331298828125" lon="-73.01300629042088985443115234375">
        <ele>532.79998779296875</ele>
        <time>2023-01-11T13:21:16.000Z</time>
      </trkpt>
      <trkpt lat="-49.22767647542059421539306640625" lon="-73.0131554044783115386962890625">
        <ele>532.79998779296875</ele>
        <time>2023-01-11T13:21:25.000Z</time>
      </trkpt>
      <trkpt lat="-49.227651245892047882080078125" lon="-73.0133019201457500457763671875">
        <ele>532.79998779296875</ele>
        <time>2023-01-11T13:21:34.000Z</time>
      </trkpt>
      <trkpt lat="-49.2276276089251041412353515625" lon="-73.01336352713406085968017578125">
        <ele>532.79998779296875</ele>
        <time>2023-01-11T13:21:39.000Z</time>
      </trkpt>
      <trkpt lat="-49.22761511988937854766845703125" lon="-73.0133726634085178375244140625">
        <ele>532.79998779296875</ele>
        <time>2023-01-11T13:21:41.000Z</time>
      </trkpt>
      <trkpt lat="-49.22758989036083221435546875" lon="-73.01340761594474315643310546875">
        <ele>532.79998779296875</ele>
        <time>2023-01-11T13:21:45.000Z</time>
      </trkpt>
      <trkpt lat="-49.22756046988070011138916015625" lon="-73.01345354877412319183349609375">
        <ele>532.79998779296875</ele>
        <time>2023-01-11T13:21:49.000Z</time>
      </trkpt>
      <trkpt lat="-49.22753280960023403167724609375" lon="-73.013525046408176422119140625">
        <ele>532.79998779296875</ele>
        <time>2023-01-11T13:21:57.000Z</time>
      </trkpt>
      <trkpt lat="-49.22751487232744693756103515625" lon="-73.01355949603021144866943359375">
        <ele>532.79998779296875</ele>
        <time>2023-01-11T13:22:04.000Z</time>
      </trkpt>
      <trkpt lat="-49.227479584515094757080078125" lon="-73.01360693760216236114501953125">
        <ele>532.79998779296875</ele>
        <time>2023-01-11T13:22:10.000Z</time>
      </trkpt>
      <trkpt lat="-49.22747447155416011810302734375" lon="-73.0136160738766193389892578125">
        <ele>532.79998779296875</ele>
        <time>2023-01-11T13:22:13.000Z</time>
      </trkpt>
      <trkpt lat="-49.22747815959155559539794921875" lon="-73.01361464895308017730712890625">
        <ele>532.79998779296875</ele>
        <time>2023-01-11T13:22:16.000Z</time>
      </trkpt>
      <trkpt lat="-49.22747245989739894866943359375" lon="-73.01361297257244586944580078125">
        <ele>532.79998779296875</ele>
        <time>2023-01-11T13:22:19.000Z</time>
      </trkpt>
      <trkpt lat="-49.2274604737758636474609375" lon="-73.0136231146752834320068359375">
        <ele>532.79998779296875</ele>
        <time>2023-01-11T13:22:23.000Z</time>
      </trkpt>
      <trkpt lat="-49.22746424563229084014892578125" lon="-73.01360760815441608428955078125">
        <ele>532.79998779296875</ele>
        <time>2023-01-11T13:22:42.000Z</time>
      </trkpt>
      <trkpt lat="-49.22746248543262481689453125" lon="-73.01360760815441608428955078125">
        <ele>532.79998779296875</ele>
        <time>2023-01-11T13:22:48.000Z</time>
      </trkpt>
      <trkpt lat="-49.22746240161359310150146484375" lon="-73.01363795064389705657958984375">
        <ele>532.79998779296875</ele>
        <time>2023-01-11T13:22:50.000Z</time>
      </trkpt>
      <trkpt lat="-49.227442704141139984130859375" lon="-73.01369746215641498565673828125">
        <ele>532.79998779296875</ele>
        <time>2023-01-11T13:22:53.000Z</time>
      </trkpt>
      <trkpt lat="-49.22741881571710109710693359375" lon="-73.01375093869864940643310546875">
        <ele>532.79998779296875</ele>
        <time>2023-01-11T13:22:56.000Z</time>
      </trkpt>
      <trkpt lat="-49.227413199841976165771484375" lon="-73.01380977965891361236572265625">
        <ele>532.79998779296875</ele>
        <time>2023-01-11T13:22:59.000Z</time>
      </trkpt>
      <trkpt lat="-49.227413870394229888916015625" lon="-73.0138209275901317596435546875">
        <ele>532.79998779296875</ele>
        <time>2023-01-11T13:23:00.000Z</time>
      </trkpt>
      <trkpt lat="-49.2274175584316253662109375" lon="-73.0138370208442211151123046875">
        <ele>532.79998779296875</ele>
        <time>2023-01-11T13:23:01.000Z</time>
      </trkpt>
      <trkpt lat="-49.22741060145199298858642578125" lon="-73.01388169638812541961669921875">
        <ele>532.79998779296875</ele>
        <time>2023-01-11T13:23:05.000Z</time>
      </trkpt>
      <trkpt lat="-49.22740775160491466522216796875" lon="-73.013888485729694366455078125">
        <ele>532.79998779296875</ele>
        <time>2023-01-11T13:23:06.000Z</time>
      </trkpt>
      <trkpt lat="-49.2273821868002414703369140625" lon="-73.01389208994805812835693359375">
        <ele>532.79998779296875</ele>
        <time>2023-01-11T13:23:09.000Z</time>
      </trkpt>
      <trkpt lat="-49.22737573273479938507080078125" lon="-73.0138983763754367828369140625">
        <ele>532.79998779296875</ele>
        <time>2023-01-11T13:23:10.000Z</time>
      </trkpt>
      <trkpt lat="-49.227354861795902252197265625" lon="-73.01389326341450214385986328125">
        <ele>532.79998779296875</ele>
        <time>2023-01-11T13:23:14.000Z</time>
      </trkpt>
      <trkpt lat="-49.2273171432316303253173828125" lon="-73.01391069777309894561767578125">
        <ele>532.79998779296875</ele>
        <time>2023-01-11T13:23:16.000Z</time>
      </trkpt>
      <trkpt lat="-49.22725754790008068084716796875" lon="-73.013847582042217254638671875">
        <ele>532.79998779296875</ele>
        <time>2023-01-11T13:23:23.000Z</time>
      </trkpt>
      <trkpt lat="-49.22727028839290142059326171875" lon="-73.0137984640896320343017578125">
        <ele>532.79998779296875</ele>
        <time>2023-01-11T13:23:30.000Z</time>
      </trkpt>
      <trkpt lat="-49.22727741301059722900390625" lon="-73.0137706361711025238037109375">
        <ele>532.79998779296875</ele>
        <time>2023-01-11T13:23:32.000Z</time>
      </trkpt>
      <trkpt lat="-49.22727984376251697540283203125" lon="-73.01379418931901454925537109375">
        <ele>532.79998779296875</ele>
        <time>2023-01-11T13:23:37.000Z</time>
      </trkpt>
      <trkpt lat="-49.22729778103530406951904296875" lon="-73.01380894146859645843505859375">
        <ele>532.79998779296875</ele>
        <time>2023-01-11T13:23:44.000Z</time>
      </trkpt>
      <trkpt lat="-49.227291159331798553466796875" lon="-73.01381313242018222808837890625">
        <ele>532.79998779296875</ele>
        <time>2023-01-11T13:23:48.000Z</time>
      </trkpt>
      <trkpt lat="-49.2272950150072574615478515625" lon="-73.0138118751347064971923828125">
        <ele>532.79998779296875</ele>
        <time>2023-01-11T13:23:51.000Z</time>
      </trkpt>
      <trkpt lat="-49.227307923138141632080078125" lon="-73.01380307413637638092041015625">
        <ele>532.79998779296875</ele>
        <time>2023-01-11T13:23:57.000Z</time>
      </trkpt>
      <trkpt lat="-49.22729426063597202301025390625" lon="-73.01380642689764499664306640625">
        <ele>532.79998779296875</ele>
        <time>2023-01-11T13:24:20.000Z</time>
      </trkpt>
      <trkpt lat="-49.22728889621794223785400390625" lon="-73.01381237804889678955078125">
        <ele>532.79998779296875</ele>
        <time>2023-01-11T13:24:32.000Z</time>
      </trkpt>
      <trkpt lat="-49.22732108272612094879150390625" lon="-73.01380491815507411956787109375">
        <ele>532.79998779296875</ele>
        <time>2023-01-11T13:25:10.000Z</time>
      </trkpt>
      <trkpt lat="-49.22732108272612094879150390625" lon="-73.013805337250232696533203125">
        <ele>532.79998779296875</ele>
        <time>2023-01-11T13:25:14.000Z</time>
      </trkpt>
      <trkpt lat="-49.22732108272612094879150390625" lon="-73.01380860619246959686279296875">
        <ele>532.79998779296875</ele>
        <time>2023-01-11T13:25:17.000Z</time>
      </trkpt>
      <trkpt lat="-49.22730348072946071624755859375" lon="-73.013803996145725250244140625">
        <ele>532.79998779296875</ele>
        <time>2023-01-11T13:25:34.000Z</time>
      </trkpt>
      <trkpt lat="-49.22731135971844196319580078125" lon="-73.0137827061116695404052734375">
        <ele>532.79998779296875</ele>
        <time>2023-01-11T13:25:55.000Z</time>
      </trkpt>
      <trkpt lat="-49.22729794867336750030517578125" lon="-73.0137897469103336334228515625">
        <ele>532.79998779296875</ele>
        <time>2023-01-11T13:26:12.000Z</time>
      </trkpt>
      <trkpt lat="-49.22729392535984516143798828125" lon="-73.01379251293838024139404296875">
        <ele>532.79998779296875</ele>
        <time>2023-01-11T13:26:26.000Z</time>
      </trkpt>
      <trkpt lat="-49.2272933386266231536865234375" lon="-73.01378899253904819488525390625">
        <ele>532.79998779296875</ele>
        <time>2023-01-11T13:26:27.000Z</time>
      </trkpt>
      <trkpt lat="-49.2272983677685260772705078125" lon="-73.0137766711413860321044921875">
        <ele>532.79998779296875</ele>
        <time>2023-01-11T13:26:32.000Z</time>
      </trkpt>
      <trkpt lat="-49.22730348072946071624755859375" lon="-73.013789914548397064208984375">
        <ele>532.79998779296875</ele>
        <time>2023-01-11T13:26:48.000Z</time>
      </trkpt>
      <trkpt lat="-49.22731035389006137847900390625" lon="-73.01379720680415630340576171875">
        <ele>532.79998779296875</ele>
        <time>2023-01-11T13:26:57.000Z</time>
      </trkpt>
      <trkpt lat="-49.2273104377090930938720703125" lon="-73.0137981288135051727294921875">
        <ele>532.79998779296875</ele>
        <time>2023-01-11T13:27:00.000Z</time>
      </trkpt>
      <trkpt lat="-49.2273104377090930938720703125" lon="-73.0137981288135051727294921875">
        <ele>532.79998779296875</ele>
        <time>2023-01-11T13:27:06.000Z</time>
      </trkpt>
      <trkpt lat="-49.2273003794252872467041015625" lon="-73.013798631727695465087890625">
        <ele>532.79998779296875</ele>
        <time>2023-01-11T13:27:16.000Z</time>
      </trkpt>
      <trkpt lat="-49.22730264253914356231689453125" lon="-73.01379628479480743408203125">
        <ele>532.79998779296875</ele>
        <time>2023-01-11T13:27:38.000Z</time>
      </trkpt>
      <trkpt lat="-49.22730633057653903961181640625" lon="-73.0137969553470611572265625">
        <ele>532.79998779296875</ele>
        <time>2023-01-11T13:27:43.000Z</time>
      </trkpt>
      <trkpt lat="-49.2273483239114284515380859375" lon="-73.0138400383293628692626953125">
        <ele>532.79998779296875</ele>
        <time>2023-01-11T13:27:54.000Z</time>
      </trkpt>
      <trkpt lat="-49.22734103165566921234130859375" lon="-73.01384297199547290802001953125">
        <ele>532.79998779296875</ele>
        <time>2023-01-11T13:27:57.000Z</time>
      </trkpt>
      <trkpt lat="-49.22729618847370147705078125" lon="-73.013822101056575775146484375">
        <ele>532.79998779296875</ele>
        <time>2023-01-11T13:28:01.000Z</time>
      </trkpt>
      <trkpt lat="-49.2272700369358062744140625" lon="-73.0138078518211841583251953125">
        <ele>532.79998779296875</ele>
        <time>2023-01-11T13:28:05.000Z</time>
      </trkpt>
      <trkpt lat="-49.22726257704198360443115234375" lon="-73.0137917585670948028564453125">
        <ele>532.79998779296875</ele>
        <time>2023-01-11T13:28:19.000Z</time>
      </trkpt>
      <trkpt lat="-49.2272624932229518890380859375" lon="-73.0137917585670948028564453125">
        <ele>532.79998779296875</ele>
        <time>2023-01-11T13:28:22.000Z</time>
      </trkpt>
      <trkpt lat="-49.22726140357553958892822265625" lon="-73.0137917585670948028564453125">
        <ele>532.79998779296875</ele>
        <time>2023-01-11T13:28:24.000Z</time>
      </trkpt>
      <trkpt lat="-49.22726140357553958892822265625" lon="-73.0137917585670948028564453125">
        <ele>532.79998779296875</ele>
        <time>2023-01-11T13:28:25.000Z</time>
      </trkpt>
      <trkpt lat="-49.22726140357553958892822265625" lon="-73.0137917585670948028564453125">
        <ele>532.79998779296875</ele>
        <time>2023-01-11T13:28:31.000Z</time>
      </trkpt>
      <trkpt lat="-49.22726140357553958892822265625" lon="-73.0137917585670948028564453125">
        <ele>532.79998779296875</ele>
        <time>2023-01-11T13:28:32.000Z</time>
      </trkpt>
      <trkpt lat="-49.22726140357553958892822265625" lon="-73.0137917585670948028564453125">
        <ele>532.79998779296875</ele>
        <time>2023-01-11T13:28:35.000Z</time>
      </trkpt>
      <trkpt lat="-49.22729375772178173065185546875" lon="-73.013825118541717529296875">
        <ele>532.79998779296875</ele>
        <time>2023-01-11T13:28:50.000Z</time>
      </trkpt>
      <trkpt lat="-49.22732678242027759552001953125" lon="-73.01381983794271945953369140625">
        <ele>532.79998779296875</ele>
        <time>2023-01-11T13:29:29.000Z</time>
      </trkpt>
      <trkpt lat="-49.22732695005834102630615234375" lon="-73.01382821984589099884033203125">
        <ele>532.79998779296875</ele>
        <time>2023-01-11T13:29:42.000Z</time>
      </trkpt>
      <trkpt lat="-49.22731504775583744049072265625" lon="-73.0138333328068256378173828125">
        <ele>532.79998779296875</ele>
        <time>2023-01-11T13:30:02.000Z</time>
      </trkpt>
      <trkpt lat="-49.22731320373713970184326171875" lon="-73.01383643411099910736083984375">
        <ele>532.79998779296875</ele>
        <time>2023-01-11T13:30:12.000Z</time>
      </trkpt>
      <trkpt lat="-49.2273131199181079864501953125" lon="-73.013844899833202362060546875">
        <ele>532.79998779296875</ele>
        <time>2023-01-11T13:30:18.000Z</time>
      </trkpt>
      <trkpt lat="-49.2273684404790401458740234375" lon="-73.01373057067394256591796875">
        <ele>532.79998779296875</ele>
        <time>2023-01-11T13:46:07.000Z</time>
      </trkpt>
      <trkpt lat="-49.22740079462528228759765625" lon="-73.01376434974372386932373046875">
        <ele>532.20001220703125</ele>
        <time>2023-01-11T13:46:31.000Z</time>
      </trkpt>
      <trkpt lat="-49.22741563059389591217041015625" lon="-73.0137595720589160919189453125">
        <ele>532.4000244140625</ele>
        <time>2023-01-11T13:46:41.000Z</time>
      </trkpt>
      <trkpt lat="-49.227453768253326416015625" lon="-73.013743646442890167236328125">
        <ele>532.4000244140625</ele>
        <time>2023-01-11T13:46:44.000Z</time>
      </trkpt>
      <trkpt lat="-49.2275099270045757293701171875" lon="-73.0137149803340435028076171875">
        <ele>532</ele>
        <time>2023-01-11T13:46:49.000Z</time>
      </trkpt>
      <trkpt lat="-49.227541945874691009521484375" lon="-73.01370785571634769439697265625">
        <ele>531.79998779296875</ele>
        <time>2023-01-11T13:46:52.000Z</time>
      </trkpt>
      <trkpt lat="-49.22757052816450595855712890625" lon="-73.01372763700783252716064453125">
        <ele>531.5999755859375</ele>
        <time>2023-01-11T13:46:57.000Z</time>
      </trkpt>
      <trkpt lat="-49.22761327587068080902099609375" lon="-73.0137029103934764862060546875">
        <ele>532</ele>
        <time>2023-01-11T13:47:02.000Z</time>
      </trkpt>
      <trkpt lat="-49.22762115485966205596923828125" lon="-73.0137139745056629180908203125">
        <ele>532</ele>
        <time>2023-01-11T13:47:03.000Z</time>
      </trkpt>
      <trkpt lat="-49.22764697112143039703369140625" lon="-73.0137156508862972259521484375">
        <ele>532</ele>
        <time>2023-01-11T13:47:06.000Z</time>
      </trkpt>
      <trkpt lat="-49.227654598653316497802734375" lon="-73.0137122981250286102294921875">
        <ele>532</ele>
        <time>2023-01-11T13:47:07.000Z</time>
      </trkpt>
      <trkpt lat="-49.2276656627655029296875" lon="-73.013698719441890716552734375">
        <ele>532</ele>
        <time>2023-01-11T13:47:09.000Z</time>
      </trkpt>
      <trkpt lat="-49.227697513997554779052734375" lon="-73.0136653594672679901123046875">
        <ele>531.79998779296875</ele>
        <time>2023-01-11T13:47:13.000Z</time>
      </trkpt>
      <trkpt lat="-49.22771670855581760406494140625" lon="-73.013649769127368927001953125">
        <ele>531.79998779296875</ele>
        <time>2023-01-11T13:47:15.000Z</time>
      </trkpt>
      <trkpt lat="-49.22773011960089206695556640625" lon="-73.0136462487280368804931640625">
        <ele>531.79998779296875</ele>
        <time>2023-01-11T13:47:16.000Z</time>
      </trkpt>
      <trkpt lat="-49.227804131805896759033203125" lon="-73.01358698867261409759521484375">
        <ele>532.5999755859375</ele>
        <time>2023-01-11T13:47:23.000Z</time>
      </trkpt>
      <trkpt lat="-49.2278153635561466217041015625" lon="-73.0135877430438995361328125">
        <ele>532.79998779296875</ele>
        <time>2023-01-11T13:47:24.000Z</time>
      </trkpt>
      <trkpt lat="-49.227866493165493011474609375" lon="-73.01365924067795276641845703125">
        <ele>533</ele>
        <time>2023-01-11T13:47:30.000Z</time>
      </trkpt>
      <trkpt lat="-49.2278696782886981964111328125" lon="-73.01368094980716705322265625">
        <ele>533</ele>
        <time>2023-01-11T13:47:31.000Z</time>
      </trkpt>
      <trkpt lat="-49.2278794012963771820068359375" lon="-73.013820759952068328857421875">
        <ele>533.20001220703125</ele>
        <time>2023-01-11T13:47:38.000Z</time>
      </trkpt>
      <trkpt lat="-49.22788501717150211334228515625" lon="-73.0138591490685939788818359375">
        <ele>532.79998779296875</ele>
        <time>2023-01-11T13:47:40.000Z</time>
      </trkpt>
      <trkpt lat="-49.22790965996682643890380859375" lon="-73.01397808827459812164306640625">
        <ele>532.4000244140625</ele>
        <time>2023-01-11T13:47:46.000Z</time>
      </trkpt>
      <trkpt lat="-49.2279122583568096160888671875" lon="-73.0140237696468830108642578125">
        <ele>532.5999755859375</ele>
        <time>2023-01-11T13:47:49.000Z</time>
      </trkpt>
      <trkpt lat="-49.22792642377316951751708984375" lon="-73.0140526033937931060791015625">
        <ele>532.79998779296875</ele>
        <time>2023-01-11T13:47:51.000Z</time>
      </trkpt>
      <trkpt lat="-49.228004626929759979248046875" lon="-73.01422133110463619232177734375">
        <ele>533.4000244140625</ele>
        <time>2023-01-11T13:48:03.000Z</time>
      </trkpt>
      <trkpt lat="-49.22806824557483196258544921875" lon="-73.01432476378977298736572265625">
        <ele>533.4000244140625</ele>
        <time>2023-01-11T13:48:12.000Z</time>
      </trkpt>
      <trkpt lat="-49.22810755670070648193359375" lon="-73.01437103189527988433837890625">
        <ele>533.4000244140625</ele>
        <time>2023-01-11T13:48:16.000Z</time>
      </trkpt>
      <trkpt lat="-49.22812356613576412200927734375" lon="-73.0143898911774158477783203125">
        <ele>533.4000244140625</ele>
        <time>2023-01-11T13:48:18.000Z</time>
      </trkpt>
      <trkpt lat="-49.22816388309001922607421875" lon="-73.0144790746271610260009765625">
        <ele>533.79998779296875</ele>
        <time>2023-01-11T13:48:24.000Z</time>
      </trkpt>
      <trkpt lat="-49.228195063769817352294921875" lon="-73.014553003013134002685546875">
        <ele>534.4000244140625</ele>
        <time>2023-01-11T13:48:29.000Z</time>
      </trkpt>
      <trkpt lat="-49.22821819782257080078125" lon="-73.014605306088924407958984375">
        <ele>534.20001220703125</ele>
        <time>2023-01-11T13:48:33.000Z</time>
      </trkpt>
      <trkpt lat="-49.22824208624660968780517578125" lon="-73.0146591179072856903076171875">
        <ele>533.79998779296875</ele>
        <time>2023-01-11T13:48:39.000Z</time>
      </trkpt>
      <trkpt lat="-49.228223226964473724365234375" lon="-73.01460203714668750762939453125">
        <ele>534</ele>
        <time>2023-01-11T13:48:50.000Z</time>
      </trkpt>
      <trkpt lat="-49.228223226964473724365234375" lon="-73.01460203714668750762939453125">
        <ele>534.20001220703125</ele>
        <time>2023-01-11T13:48:55.000Z</time>
      </trkpt>
      <trkpt lat="-49.228223226964473724365234375" lon="-73.01460203714668750762939453125">
        <ele>534</ele>
        <time>2023-01-11T13:49:00.000Z</time>
      </trkpt>
      <trkpt lat="-49.228223226964473724365234375" lon="-73.01460203714668750762939453125">
        <ele>533.79998779296875</ele>
        <time>2023-01-11T13:49:03.000Z</time>
      </trkpt>
      <trkpt lat="-49.22821509651839733123779296875" lon="-73.014601282775402069091796875">
        <ele>533.79998779296875</ele>
        <time>2023-01-11T13:49:14.000Z</time>
      </trkpt>
      <trkpt lat="-49.2282173596322536468505859375" lon="-73.0146403424441814422607421875">
        <ele>533.5999755859375</ele>
        <time>2023-01-11T13:49:50.000Z</time>
      </trkpt>
      <trkpt lat="-49.22821777872741222381591796875" lon="-73.0146403424441814422607421875">
        <ele>533.5999755859375</ele>
        <time>2023-01-11T13:49:51.000Z</time>
      </trkpt>
      <trkpt lat="-49.228233955800533294677734375" lon="-73.014647550880908966064453125">
        <ele>534.20001220703125</ele>
        <time>2023-01-11T13:50:27.000Z</time>
      </trkpt>
      <trkpt lat="-49.22823538072407245635986328125" lon="-73.01466959528625011444091796875">
        <ele>533.79998779296875</ele>
        <time>2023-01-11T13:50:44.000Z</time>
      </trkpt>
      <trkpt lat="-49.22824141569435596466064453125" lon="-73.01467915065586566925048828125">
        <ele>534</ele>
        <time>2023-01-11T13:50:49.000Z</time>
      </trkpt>
      <trkpt lat="-49.228242672979831695556640625" lon="-73.01468099467456340789794921875">
        <ele>534.20001220703125</ele>
        <time>2023-01-11T13:50:53.000Z</time>
      </trkpt>
      <trkpt lat="-49.22824292443692684173583984375" lon="-73.0146812461316585540771484375">
        <ele>534.20001220703125</ele>
        <time>2023-01-11T13:50:57.000Z</time>
      </trkpt>
      <trkpt lat="-49.228244014084339141845703125" lon="-73.01468032412230968475341796875">
        <ele>534.5999755859375</ele>
        <time>2023-01-11T13:51:06.000Z</time>
      </trkpt>
      <trkpt lat="-49.2282448522746562957763671875" lon="-73.01467848010361194610595703125">
        <ele>534.79998779296875</ele>
        <time>2023-01-11T13:51:13.000Z</time>
      </trkpt>
      <trkpt lat="-49.2282753624022006988525390625" lon="-73.01475726999342441558837890625">
        <ele>535.20001220703125</ele>
        <time>2023-01-11T13:51:18.000Z</time>
      </trkpt>
      <trkpt lat="-49.22829153947532176971435546875" lon="-73.01479180343449115753173828125">
        <ele>534.79998779296875</ele>
        <time>2023-01-11T13:51:20.000Z</time>
      </trkpt>
      <trkpt lat="-49.2283256538212299346923828125" lon="-73.01488283090293407440185546875">
        <ele>534.79998779296875</ele>
        <time>2023-01-11T13:51:25.000Z</time>
      </trkpt>
      <trkpt lat="-49.2283575050532817840576171875" lon="-73.01494904793798923492431640625">
        <ele>535.20001220703125</ele>
        <time>2023-01-11T13:51:29.000Z</time>
      </trkpt>
      <trkpt lat="-49.2283863388001918792724609375" lon="-73.0150373093783855438232421875">
        <ele>534.4000244140625</ele>
        <time>2023-01-11T13:51:35.000Z</time>
      </trkpt>
      <trkpt lat="-49.228384830057621002197265625" lon="-73.0150575935840606689453125">
        <ele>535</ele>
        <time>2023-01-11T13:51:36.000Z</time>
      </trkpt>
      <trkpt lat="-49.2283863388001918792724609375" lon="-73.01506631076335906982421875">
        <ele>535.4000244140625</ele>
        <time>2023-01-11T13:51:39.000Z</time>
      </trkpt>
      <trkpt lat="-49.22837971709668636322021484375" lon="-73.0150668136775493621826171875">
        <ele>535.4000244140625</ele>
        <time>2023-01-11T13:51:41.000Z</time>
      </trkpt>
      <trkpt lat="-49.22840251587331295013427734375" lon="-73.01512573845684528350830078125">
        <ele>536</ele>
        <time>2023-01-11T13:51:48.000Z</time>
      </trkpt>
      <trkpt lat="-49.22843470238149166107177734375" lon="-73.01521542482078075408935546875">
        <ele>536.79998779296875</ele>
        <time>2023-01-11T13:51:54.000Z</time>
      </trkpt>
      <trkpt lat="-49.228446185588836669921875" lon="-73.0152478627860546112060546875">
        <ele>537</ele>
        <time>2023-01-11T13:51:57.000Z</time>
      </trkpt>
      <trkpt lat="-49.22846420668065547943115234375" lon="-73.01528532989323139190673828125">
        <ele>536.79998779296875</ele>
        <time>2023-01-11T13:52:00.000Z</time>
      </trkpt>
      <trkpt lat="-49.2285090498626232147216796875" lon="-73.01537367515265941619873046875">
        <ele>536.79998779296875</ele>
        <time>2023-01-11T13:52:06.000Z</time>
      </trkpt>
      <trkpt lat="-49.22853511758148670196533203125" lon="-73.01542061381042003631591796875">
        <ele>537.20001220703125</ele>
        <time>2023-01-11T13:52:09.000Z</time>
      </trkpt>
      <trkpt lat="-49.2285791225731372833251953125" lon="-73.01550225354731082916259765625">
        <ele>537.4000244140625</ele>
        <time>2023-01-11T13:52:14.000Z</time>
      </trkpt>
      <trkpt lat="-49.22860837541520595550537109375" lon="-73.01556679420173168182373046875">
        <ele>537.4000244140625</ele>
        <time>2023-01-11T13:52:18.000Z</time>
      </trkpt>
      <trkpt lat="-49.2286481894552707672119140625" lon="-73.01564457826316356658935546875">
        <ele>538.4000244140625</ele>
        <time>2023-01-11T13:52:23.000Z</time>
      </trkpt>
      <trkpt lat="-49.22866637818515300750732421875" lon="-73.01567508839070796966552734375">
        <ele>538.5999755859375</ele>
        <time>2023-01-11T13:52:25.000Z</time>
      </trkpt>
      <trkpt lat="-49.2286864109337329864501953125" lon="-73.0157192610204219818115234375">
        <ele>538.4000244140625</ele>
        <time>2023-01-11T13:52:28.000Z</time>
      </trkpt>
      <trkpt lat="-49.22869806177914142608642578125" lon="-73.01575706340372562408447265625">
        <ele>538.20001220703125</ele>
        <time>2023-01-11T13:52:30.000Z</time>
      </trkpt>
      <trkpt lat="-49.22871365211904048919677734375" lon="-73.01578908227384090423583984375">
        <ele>538.20001220703125</ele>
        <time>2023-01-11T13:52:32.000Z</time>
      </trkpt>
      <trkpt lat="-49.22872739844024181365966796875" lon="-73.01583317108452320098876953125">
        <ele>538</ele>
        <time>2023-01-11T13:52:35.000Z</time>
      </trkpt>
      <trkpt lat="-49.228757321834564208984375" lon="-73.01593400537967681884765625">
        <ele>538.20001220703125</ele>
        <time>2023-01-11T13:52:41.000Z</time>
      </trkpt>
      <trkpt lat="-49.22882529906928539276123046875" lon="-73.01610223017632961273193359375">
        <ele>538.79998779296875</ele>
        <time>2023-01-11T13:52:52.000Z</time>
      </trkpt>
      <trkpt lat="-49.22883787192404270172119140625" lon="-73.01619795151054859161376953125">
        <ele>538.79998779296875</ele>
        <time>2023-01-11T13:53:00.000Z</time>
      </trkpt>
      <trkpt lat="-49.22885044477880001068115234375" lon="-73.0162453092634677886962890625">
        <ele>538.5999755859375</ele>
        <time>2023-01-11T13:53:06.000Z</time>
      </trkpt>
      <trkpt lat="-49.228856898844242095947265625" lon="-73.01625788211822509765625">
        <ele>538.5999755859375</ele>
        <time>2023-01-11T13:53:07.000Z</time>
      </trkpt>
      <trkpt lat="-49.228883720934391021728515625" lon="-73.01628814078867435455322265625">
        <ele>538.5999755859375</ele>
        <time>2023-01-11T13:53:10.000Z</time>
      </trkpt>
      <trkpt lat="-49.22890408895909786224365234375" lon="-73.0163209140300750732421875">
        <ele>538.79998779296875</ele>
        <time>2023-01-11T13:53:13.000Z</time>
      </trkpt>
      <trkpt lat="-49.22894113697111606597900390625" lon="-73.01639693789184093475341796875">
        <ele>539</ele>
        <time>2023-01-11T13:53:18.000Z</time>
      </trkpt>
      <trkpt lat="-49.2289643548429012298583984375" lon="-73.01645879633724689483642578125">
        <ele>539</ele>
        <time>2023-01-11T13:53:22.000Z</time>
      </trkpt>
      <trkpt lat="-49.2289874888956546783447265625" lon="-73.0165256001055240631103515625">
        <ele>539</ele>
        <time>2023-01-11T13:53:26.000Z</time>
      </trkpt>
      <trkpt lat="-49.22901506535708904266357421875" lon="-73.01661151461303234100341796875">
        <ele>539.4000244140625</ele>
        <time>2023-01-11T13:53:31.000Z</time>
      </trkpt>
      <trkpt lat="-49.22902126796543598175048828125" lon="-73.016628362238407135009765625">
        <ele>539.4000244140625</ele>
        <time>2023-01-11T13:53:32.000Z</time>
      </trkpt>
      <trkpt lat="-49.229036606848239898681640625" lon="-73.016673959791660308837890625">
        <ele>539.79998779296875</ele>
        <time>2023-01-11T13:53:35.000Z</time>
      </trkpt>
      <trkpt lat="-49.22904825769364833831787109375" lon="-73.01670606248080730438232421875">
        <ele>539.79998779296875</ele>
        <time>2023-01-11T13:53:37.000Z</time>
      </trkpt>
      <trkpt lat="-49.229056052863597869873046875" lon="-73.01674478687345981597900390625">
        <ele>539.5999755859375</ele>
        <time>2023-01-11T13:53:39.000Z</time>
      </trkpt>
      <trkpt lat="-49.229074157774448394775390625" lon="-73.01681620068848133087158203125">
        <ele>539.79998779296875</ele>
        <time>2023-01-11T13:53:44.000Z</time>
      </trkpt>
      <trkpt lat="-49.2291232757270336151123046875" lon="-73.01694913767278194427490234375">
        <ele>539.79998779296875</ele>
        <time>2023-01-11T13:53:53.000Z</time>
      </trkpt>
      <trkpt lat="-49.22918706201016902923583984375" lon="-73.01708878017961978912353515625">
        <ele>540.4000244140625</ele>
        <time>2023-01-11T13:54:04.000Z</time>
      </trkpt>
      <trkpt lat="-49.229242801666259765625" lon="-73.0171629600226879119873046875">
        <ele>539.79998779296875</ele>
        <time>2023-01-11T13:54:11.000Z</time>
      </trkpt>
      <trkpt lat="-49.2292510159313678741455078125" lon="-73.01717209629714488983154296875">
        <ele>539.79998779296875</ele>
        <time>2023-01-11T13:54:12.000Z</time>
      </trkpt>
      <trkpt lat="-49.22931731678545475006103515625" lon="-73.017250634729862213134765625">
        <ele>540.5999755859375</ele>
        <time>2023-01-11T13:54:20.000Z</time>
      </trkpt>
      <trkpt lat="-49.22933978028595447540283203125" lon="-73.017279468476772308349609375">
        <ele>540.5999755859375</ele>
        <time>2023-01-11T13:54:23.000Z</time>
      </trkpt>
      <trkpt lat="-49.229374565184116363525390625" lon="-73.0173513852059841156005859375">
        <ele>540.5999755859375</ele>
        <time>2023-01-11T13:54:29.000Z</time>
      </trkpt>
      <trkpt lat="-49.22938202507793903350830078125" lon="-73.01737929694354534149169921875">
        <ele>540.4000244140625</ele>
        <time>2023-01-11T13:54:31.000Z</time>
      </trkpt>
      <trkpt lat="-49.2294153012335300445556640625" lon="-73.017466552555561065673828125">
        <ele>540</ele>
        <time>2023-01-11T13:54:37.000Z</time>
      </trkpt>
      <trkpt lat="-49.22942242585122585296630859375" lon="-73.017481975257396697998046875">
        <ele>539.79998779296875</ele>
        <time>2023-01-11T13:54:38.000Z</time>
      </trkpt>
      <trkpt lat="-49.2294441349804401397705078125" lon="-73.017516843974590301513671875">
        <ele>540</ele>
        <time>2023-01-11T13:54:41.000Z</time>
      </trkpt>
      <trkpt lat="-49.229489229619503021240234375" lon="-73.01765204407274723052978515625">
        <ele>541</ele>
        <time>2023-01-11T13:54:49.000Z</time>
      </trkpt>
      <trkpt lat="-49.22953323461115360260009765625" lon="-73.0177543871104717254638671875">
        <ele>541.5999755859375</ele>
        <time>2023-01-11T13:54:57.000Z</time>
      </trkpt>
      <trkpt lat="-49.229539521038532257080078125" lon="-73.01777291111648082733154296875">
        <ele>541.79998779296875</ele>
        <time>2023-01-11T13:54:58.000Z</time>
      </trkpt>
      <trkpt lat="-49.22956408001482486724853515625" lon="-73.0178365297615528106689453125">
        <ele>541.79998779296875</ele>
        <time>2023-01-11T13:55:03.000Z</time>
      </trkpt>
      <trkpt lat="-49.22956055961549282073974609375" lon="-73.0178445763885974884033203125">
        <ele>541.79998779296875</ele>
        <time>2023-01-11T13:55:05.000Z</time>
      </trkpt>
      <trkpt lat="-49.22956240363419055938720703125" lon="-73.0178435705602169036865234375">
        <ele>542</ele>
        <time>2023-01-11T13:55:12.000Z</time>
      </trkpt>
      <trkpt lat="-49.22953826375305652618408203125" lon="-73.01784851588308811187744140625">
        <ele>542.20001220703125</ele>
        <time>2023-01-11T13:55:30.000Z</time>
      </trkpt>
      <trkpt lat="-49.22953826375305652618408203125" lon="-73.01785790361464023590087890625">
        <ele>542.20001220703125</ele>
        <time>2023-01-11T13:55:35.000Z</time>
      </trkpt>
      <trkpt lat="-49.22953289933502674102783203125" lon="-73.01786142401397228240966796875">
        <ele>542.20001220703125</ele>
        <time>2023-01-11T13:55:44.000Z</time>
      </trkpt>
      <trkpt lat="-49.22955737449228763580322265625" lon="-73.01789796911180019378662109375">
        <ele>542.4000244140625</ele>
        <time>2023-01-11T13:55:51.000Z</time>
      </trkpt>
      <trkpt lat="-49.22957472503185272216796875" lon="-73.01792445592582225799560546875">
        <ele>542.4000244140625</ele>
        <time>2023-01-11T13:55:53.000Z</time>
      </trkpt>
      <trkpt lat="-49.22964789904654026031494140625" lon="-73.01800810731947422027587890625">
        <ele>542.4000244140625</ele>
        <time>2023-01-11T13:56:01.000Z</time>
      </trkpt>
      <trkpt lat="-49.22965058125555515289306640625" lon="-73.01801732741296291351318359375">
        <ele>542.5999755859375</ele>
        <time>2023-01-11T13:56:03.000Z</time>
      </trkpt>
      <trkpt lat="-49.22964706085622310638427734375" lon="-73.01801363937556743621826171875">
        <ele>542.5999755859375</ele>
        <time>2023-01-11T13:56:08.000Z</time>
      </trkpt>
      <trkpt lat="-49.229640103876590728759765625" lon="-73.018035851418972015380859375">
        <ele>542.5999755859375</ele>
        <time>2023-01-11T13:56:22.000Z</time>
      </trkpt>
      <trkpt lat="-49.229663908481597900390625" lon="-73.01810600794851779937744140625">
        <ele>543.20001220703125</ele>
        <time>2023-01-11T13:56:29.000Z</time>
      </trkpt>
      <trkpt lat="-49.229676984250545501708984375" lon="-73.01813618279993534088134765625">
        <ele>543.20001220703125</ele>
        <time>2023-01-11T13:56:38.000Z</time>
      </trkpt>
      <trkpt lat="-49.2296788282692432403564453125" lon="-73.0181345902383327484130859375">
        <ele>543</ele>
        <time>2023-01-11T13:56:48.000Z</time>
      </trkpt>
      <trkpt lat="-49.2296788282692432403564453125" lon="-73.0181345902383327484130859375">
        <ele>543</ele>
        <time>2023-01-11T13:56:54.000Z</time>
      </trkpt>
      <trkpt lat="-49.229681678116321563720703125" lon="-73.0181345902383327484130859375">
        <ele>543</ele>
        <time>2023-01-11T13:56:56.000Z</time>
      </trkpt>
      <trkpt lat="-49.22968863509595394134521484375" lon="-73.0181339196860790252685546875">
        <ele>543</ele>
        <time>2023-01-11T13:57:01.000Z</time>
      </trkpt>
      <trkpt lat="-49.229693077504634857177734375" lon="-73.01813316531479358673095703125">
        <ele>542.79998779296875</ele>
        <time>2023-01-11T13:57:06.000Z</time>
      </trkpt>
      <trkpt lat="-49.22968964092433452606201171875" lon="-73.01813132129609584808349609375">
        <ele>543</ele>
        <time>2023-01-11T13:57:26.000Z</time>
      </trkpt>
      <trkpt lat="-49.2296999506652355194091796875" lon="-73.0181480012834072113037109375">
        <ele>543</ele>
        <time>2023-01-11T13:57:28.000Z</time>
      </trkpt>
      <trkpt lat="-49.22972199507057666778564453125" lon="-73.0181664414703845977783203125">
        <ele>543</ele>
        <time>2023-01-11T13:57:30.000Z</time>
      </trkpt>
      <trkpt lat="-49.22974781133234500885009765625" lon="-73.01820223219692707061767578125">
        <ele>543</ele>
        <time>2023-01-11T13:57:33.000Z</time>
      </trkpt>
      <trkpt lat="-49.2297703586518764495849609375" lon="-73.01830507814884185791015625">
        <ele>543</ele>
        <time>2023-01-11T13:57:44.000Z</time>
      </trkpt>
      <trkpt lat="-49.229803048074245452880859375" lon="-73.01832879893481731414794921875">
        <ele>543</ele>
        <time>2023-01-11T13:57:50.000Z</time>
      </trkpt>
      <trkpt lat="-49.22983934171497821807861328125" lon="-73.01838361658155918121337890625">
        <ele>543</ele>
        <time>2023-01-11T13:58:00.000Z</time>
      </trkpt>
      <trkpt lat="-49.22984889708459377288818359375" lon="-73.0183994583785533905029296875">
        <ele>543</ele>
        <time>2023-01-11T13:58:02.000Z</time>
      </trkpt>
      <trkpt lat="-49.22984252683818340301513671875" lon="-73.0184403620660305023193359375">
        <ele>543</ele>
        <time>2023-01-11T13:58:10.000Z</time>
      </trkpt>
      <trkpt lat="-49.2298464663326740264892578125" lon="-73.0184343270957469940185546875">
        <ele>543</ele>
        <time>2023-01-11T13:58:16.000Z</time>
      </trkpt>
      <trkpt lat="-49.229850657284259796142578125" lon="-73.0184313096106052398681640625">
        <ele>543</ele>
        <time>2023-01-11T13:58:19.000Z</time>
      </trkpt>
      <trkpt lat="-49.229850657284259796142578125" lon="-73.0184313096106052398681640625">
        <ele>543</ele>
        <time>2023-01-11T13:58:22.000Z</time>
      </trkpt>
      <trkpt lat="-49.22985007055103778839111328125" lon="-73.0184313096106052398681640625">
        <ele>549.79998779296875</ele>
        <time>2023-01-11T13:58:26.000Z</time>
      </trkpt>
      <trkpt lat="-49.22984118573367595672607421875" lon="-73.018436171114444732666015625">
        <ele>550.20001220703125</ele>
        <time>2023-01-11T13:58:40.000Z</time>
      </trkpt>
      <trkpt lat="-49.22984101809561252593994140625" lon="-73.018436171114444732666015625">
        <ele>550.20001220703125</ele>
        <time>2023-01-11T13:58:42.000Z</time>
      </trkpt>
      <trkpt lat="-49.22984034754335880279541015625" lon="-73.018436171114444732666015625">
        <ele>550.4000244140625</ele>
        <time>2023-01-11T13:58:46.000Z</time>
      </trkpt>
      <trkpt lat="-49.22982995398342609405517578125" lon="-73.0184574611485004425048828125">
        <ele>550.5999755859375</ele>
        <time>2023-01-11T13:58:55.000Z</time>
      </trkpt>
      <trkpt lat="-49.22982995398342609405517578125" lon="-73.018457628786563873291015625">
        <ele>550.79998779296875</ele>
        <time>2023-01-11T13:58:58.000Z</time>
      </trkpt>
      <trkpt lat="-49.22982995398342609405517578125" lon="-73.018457628786563873291015625">
        <ele>550.79998779296875</ele>
        <time>2023-01-11T13:59:04.000Z</time>
      </trkpt>
      <trkpt lat="-49.229843616485595703125" lon="-73.01844723522663116455078125">
        <ele>550.4000244140625</ele>
        <time>2023-01-11T13:59:21.000Z</time>
      </trkpt>
      <trkpt lat="-49.22983163036406040191650390625" lon="-73.018452264368534088134765625">
        <ele>550.5999755859375</ele>
        <time>2023-01-11T13:59:32.000Z</time>
      </trkpt>
      <trkpt lat="-49.22982827760279178619384765625" lon="-73.01846022717654705047607421875">
        <ele>550.20001220703125</ele>
        <time>2023-01-11T13:59:46.000Z</time>
      </trkpt>
      <trkpt lat="-49.22982878051698207855224609375" lon="-73.01846022717654705047607421875">
        <ele>549.5999755859375</ele>
        <time>2023-01-11T13:59:49.000Z</time>
      </trkpt>
      <trkpt lat="-49.22982794232666492462158203125" lon="-73.0184571258723735809326171875">
        <ele>548.5999755859375</ele>
        <time>2023-01-11T13:59:55.000Z</time>
      </trkpt>
      <trkpt lat="-49.22982693649828433990478515625" lon="-73.01845385693013668060302734375">
        <ele>548</ele>
        <time>2023-01-11T13:59:59.000Z</time>
      </trkpt>
      <trkpt lat="-49.22982685267925262451171875" lon="-73.01843072287738323211669921875">
        <ele>547.20001220703125</ele>
        <time>2023-01-11T14:00:02.000Z</time>
      </trkpt>
      <trkpt lat="-49.22982308082282543182373046875" lon="-73.0183977819979190826416015625">
        <ele>546.20001220703125</ele>
        <time>2023-01-11T14:00:07.000Z</time>
      </trkpt>
      <trkpt lat="-49.22980782575905323028564453125" lon="-73.018380515277385711669921875">
        <ele>545.20001220703125</ele>
        <time>2023-01-11T14:00:14.000Z</time>
      </trkpt>
      <trkpt lat="-49.2297703586518764495849609375" lon="-73.01832578144967555999755859375">
        <ele>544.20001220703125</ele>
        <time>2023-01-11T14:00:17.000Z</time>
      </trkpt>
      <trkpt lat="-49.2297576181590557098388671875" lon="-73.018310107290744781494140625">
        <ele>544</ele>
        <time>2023-01-11T14:00:18.000Z</time>
      </trkpt>
      <trkpt lat="-49.22974546439945697784423828125" lon="-73.01829393021762371063232421875">
        <ele>543.79998779296875</ele>
        <time>2023-01-11T14:00:19.000Z</time>
      </trkpt>
    </trkseg>
  </trk>
</gpx>
